<?xml version='1.0' encoding='UTF-8'?><gpx version="1.1" creator="JPX - https://github.com/jenetics/jpx" xmlns="http://www.topografix.com/GPX/1/1"><trk><trkseg><trkpt lat="44.36444159130831" lon="11.714565931047444"><ele>42.0</ele><time>2026-04-12T08:02:37.287Z</time></trkpt><trkpt lat="44.36445960785175" lon="11.714430547354736"><ele>42.0</ele><time>2026-04-12T08:03:20.047Z</time></trkpt><trkpt lat="44.36439000292197" lon="11.714499070396476"><ele>42.0</ele><time>2026-04-12T08:04:47Z</time></trkpt><trkpt lat="44.36442272776351" lon="11.71440998566295"><ele>42.0</ele><time>2026-04-12T08:05:03Z</time></trkpt><trkpt lat="44.36433660432277" lon="11.71436561486887"><ele>42.0</ele><time>2026-04-12T08:05:38Z</time></trkpt><trkpt lat="44.36438368325063" lon="11.714281826050053"><ele>42.0</ele><time>2026-04-12T08:05:40Z</time></trkpt><trkpt lat="44.36442326048941" lon="11.714180880692492"><ele>42.0</ele><time>2026-04-12T08:05:43Z</time></trkpt><trkpt lat="44.364447785654946" lon="11.714036471634063"><ele>42.0</ele><time>2026-04-12T08:05:44Z</time></trkpt><trkpt lat="44.36454398859709" lon="11.714145945667482"><ele>42.0</ele><time>2026-04-12T08:05:47Z</time></trkpt><trkpt lat="44.36461613839907" lon="11.71421386474486"><ele>42.0</ele><time>2026-04-12T08:05:49Z</time></trkpt><trkpt lat="44.36463414096528" lon="11.714320224249521"><ele>42.0</ele><time>2026-04-12T08:06:26.999Z</time></trkpt><trkpt lat="44.364632869342394" lon="11.714461786527734"><ele>42.0</ele><time>2026-04-12T08:06:28.999Z</time></trkpt><trkpt lat="44.36458329741134" lon="11.714566631882118"><ele>42.0</ele><time>2026-04-12T08:06:31.999Z</time></trkpt><trkpt lat="44.36454563159407" lon="11.714644510299653"><ele>42.0</ele><time>2026-04-12T08:06:33.999Z</time></trkpt><trkpt lat="44.364453619202294" lon="11.714631233553726"><ele>42.0</ele><time>2026-04-12T08:06:34.999Z</time></trkpt><trkpt lat="44.364410190507755" lon="11.71472233104857"><ele>42.0</ele><time>2026-04-12T08:06:36.999Z</time></trkpt><trkpt lat="44.36442781991607" lon="11.714846579854674"><ele>42.0</ele><time>2026-04-12T08:06:38.999Z</time></trkpt><trkpt lat="44.364408936993264" lon="11.71498670686833"><ele>42.0</ele><time>2026-04-12T08:06:41.999Z</time></trkpt><trkpt lat="44.36436133545703" lon="11.71508571867767"><ele>42.0</ele><time>2026-04-12T08:06:43.999Z</time></trkpt><trkpt lat="44.36431648727829" lon="11.715175726786716"><ele>42.0</ele><time>2026-04-12T08:06:45.999Z</time></trkpt><trkpt lat="44.36427281661977" lon="11.715285536468574"><ele>42.0</ele><time>2026-04-12T08:06:47.999Z</time></trkpt><trkpt lat="44.36422413965029" lon="11.715389831499653"><ele>42.0</ele><time>2026-04-12T08:06:49.999Z</time></trkpt><trkpt lat="44.36412027179208" lon="11.715407917097513"><ele>42.0</ele><time>2026-04-12T08:06:51.999Z</time></trkpt><trkpt lat="44.3640351907571" lon="11.715313904034604"><ele>42.0</ele><time>2026-04-12T08:06:53.999Z</time></trkpt><trkpt lat="44.36394862025202" lon="11.715244260354467"><ele>42.0</ele><time>2026-04-12T08:06:55.999Z</time></trkpt><trkpt lat="44.363863422563895" lon="11.715184522218927"><ele>42.0</ele><time>2026-04-12T08:06:57.999Z</time></trkpt><trkpt lat="44.36377062368626" lon="11.715108846534843"><ele>42.0</ele><time>2026-04-12T08:06:59.999Z</time></trkpt><trkpt lat="44.36368096452342" lon="11.715041049217259"><ele>42.0</ele><time>2026-04-12T08:07:01.999Z</time></trkpt><trkpt lat="44.3636008133011" lon="11.714972922686904"><ele>41.8</ele><time>2026-04-12T08:07:03.999Z</time></trkpt><trkpt lat="44.36350659265648" lon="11.714907902173698"><ele>41.6</ele><time>2026-04-12T08:07:05.999Z</time></trkpt><trkpt lat="44.3634129822746" lon="11.714859911018555"><ele>41.4</ele><time>2026-04-12T08:07:07.999Z</time></trkpt><trkpt lat="44.3633157780593" lon="11.714799942002509"><ele>41.199999999999996</ele><time>2026-04-12T08:07:09.999Z</time></trkpt><trkpt lat="44.363223580657994" lon="11.714713061724957"><ele>41.0</ele><time>2026-04-12T08:07:11.999Z</time></trkpt><trkpt lat="44.3631261897725" lon="11.714611775777543"><ele>41.0</ele><time>2026-04-12T08:07:13.999Z</time></trkpt><trkpt lat="44.363025793849054" lon="11.714513095814901"><ele>41.0</ele><time>2026-04-12T08:07:15.999Z</time></trkpt><trkpt lat="44.362918437105115" lon="11.714426712814168"><ele>41.0</ele><time>2026-04-12T08:07:17.999Z</time></trkpt><trkpt lat="44.36285440354753" lon="11.714422450777862"><ele>41.0</ele><time>2026-04-12T08:07:18.999Z</time></trkpt><trkpt lat="44.36275152499517" lon="11.714348332112245"><ele>41.0</ele><time>2026-04-12T08:07:20.999Z</time></trkpt><trkpt lat="44.3626515590308" lon="11.714265816706453"><ele>41.0</ele><time>2026-04-12T08:07:22.999Z</time></trkpt><trkpt lat="44.3625651507896" lon="11.714170670753912"><ele>41.0</ele><time>2026-04-12T08:07:24.999Z</time></trkpt><trkpt lat="44.362473031795744" lon="11.71409950787583"><ele>41.0</ele><time>2026-04-12T08:07:27Z</time></trkpt><trkpt lat="44.362375167740225" lon="11.714022440058548"><ele>41.0</ele><time>2026-04-12T08:07:29Z</time></trkpt><trkpt lat="44.36227654803409" lon="11.71394412422335"><ele>41.0</ele><time>2026-04-12T08:07:31Z</time></trkpt><trkpt lat="44.3621669351571" lon="11.713844012757857"><ele>40.99999999999999</ele><time>2026-04-12T08:07:33Z</time></trkpt><trkpt lat="44.36211204528462" lon="11.713796093928977"><ele>41.0</ele><time>2026-04-12T08:07:34Z</time></trkpt><trkpt lat="44.36205313621003" lon="11.713738823002625"><ele>41.0</ele><time>2026-04-12T08:07:35Z</time></trkpt><trkpt lat="44.36199626651051" lon="11.713684015232689"><ele>41.0</ele><time>2026-04-12T08:07:36Z</time></trkpt><trkpt lat="44.36193745437148" lon="11.713622334363777"><ele>41.0</ele><time>2026-04-12T08:07:37Z</time></trkpt><trkpt lat="44.36187104132425" lon="11.713562221782412"><ele>40.99999999999999</ele><time>2026-04-12T08:07:38Z</time></trkpt><trkpt lat="44.36179929540167" lon="11.71350610870507"><ele>41.0</ele><time>2026-04-12T08:07:39Z</time></trkpt><trkpt lat="44.3617339754112" lon="11.71344928202129"><ele>41.166666666666664</ele><time>2026-04-12T08:07:40Z</time></trkpt><trkpt lat="44.36166097475504" lon="11.71339192968097"><ele>41.33333333333333</ele><time>2026-04-12T08:07:41Z</time></trkpt><trkpt lat="44.36159618859738" lon="11.713339383672835"><ele>41.5</ele><time>2026-04-12T08:07:42Z</time></trkpt><trkpt lat="44.361530118666494" lon="11.71327722655785"><ele>41.666666666666664</ele><time>2026-04-12T08:07:43Z</time></trkpt><trkpt lat="44.36146796794217" lon="11.713221585125051"><ele>41.833333333333336</ele><time>2026-04-12T08:07:44Z</time></trkpt><trkpt lat="44.36140190053772" lon="11.713172458930979"><ele>42.0</ele><time>2026-04-12T08:07:45Z</time></trkpt><trkpt lat="44.36133374486544" lon="11.713137988442158"><ele>42.2</ele><time>2026-04-12T08:07:46Z</time></trkpt><trkpt lat="44.36126732496012" lon="11.713117263799033"><ele>42.400000000000006</ele><time>2026-04-12T08:07:47Z</time></trkpt><trkpt lat="44.3612044084783" lon="11.713080052569707"><ele>42.599999999999994</ele><time>2026-04-12T08:07:48Z</time></trkpt><trkpt lat="44.361090580009964" lon="11.71301726206721"><ele>42.8</ele><time>2026-04-12T08:07:50Z</time></trkpt><trkpt lat="44.360982441068444" lon="11.712939982368756"><ele>43.0</ele><time>2026-04-12T08:07:52Z</time></trkpt><trkpt lat="44.36087276277267" lon="11.712886217036758"><ele>43.0</ele><time>2026-04-12T08:07:54Z</time></trkpt><trkpt lat="44.36075607093411" lon="11.712847137726737"><ele>43.0</ele><time>2026-04-12T08:07:56Z</time></trkpt><trkpt lat="44.360634746561225" lon="11.712815958908243"><ele>43.0</ele><time>2026-04-12T08:07:58Z</time></trkpt><trkpt lat="44.3605307381011" lon="11.71277494095589"><ele>43.0</ele><time>2026-04-12T08:08:00Z</time></trkpt><trkpt lat="44.36043090941543" lon="11.712733787773184"><ele>43.599999999999994</ele><time>2026-04-12T08:08:02Z</time></trkpt><trkpt lat="44.36032942261493" lon="11.712697442814187"><ele>44.199999999999996</ele><time>2026-04-12T08:08:04Z</time></trkpt><trkpt lat="44.36023149832699" lon="11.712644944735974"><ele>44.8</ele><time>2026-04-12T08:08:06Z</time></trkpt><trkpt lat="44.36013693427549" lon="11.712618117235403"><ele>45.4</ele><time>2026-04-12T08:08:08Z</time></trkpt><trkpt lat="44.36007735061668" lon="11.71258096766843"><ele>46.0</ele><time>2026-04-12T08:08:11Z</time></trkpt><trkpt lat="44.359998070234376" lon="11.712513735291072"><ele>46.0</ele><time>2026-04-12T08:08:18.999Z</time></trkpt><trkpt lat="44.35992549521629" lon="11.712451271524301"><ele>46.0</ele><time>2026-04-12T08:08:20.999Z</time></trkpt><trkpt lat="44.359834651639865" lon="11.712373363641213"><ele>46.0</ele><time>2026-04-12T08:08:22.999Z</time></trkpt><trkpt lat="44.35973910377926" lon="11.71229142139951"><ele>46.0</ele><time>2026-04-12T08:08:24.999Z</time></trkpt><trkpt lat="44.359646910305806" lon="11.71221353050224"><ele>46.0</ele><time>2026-04-12T08:08:26.999Z</time></trkpt><trkpt lat="44.35954882739877" lon="11.712129082517427"><ele>46.0</ele><time>2026-04-12T08:08:28.999Z</time></trkpt><trkpt lat="44.35945377500499" lon="11.712049565076933"><ele>46.0</ele><time>2026-04-12T08:08:30.999Z</time></trkpt><trkpt lat="44.35937893869838" lon="11.711942455395375"><ele>46.0</ele><time>2026-04-12T08:08:32.999Z</time></trkpt><trkpt lat="44.35928328340638" lon="11.711860846969907"><ele>46.0</ele><time>2026-04-12T08:08:34.999Z</time></trkpt><trkpt lat="44.359191247929715" lon="11.711780746055842"><ele>46.0</ele><time>2026-04-12T08:08:36.999Z</time></trkpt><trkpt lat="44.359101414126876" lon="11.711693349050604"><ele>46.199999999999996</ele><time>2026-04-12T08:08:38.999Z</time></trkpt><trkpt lat="44.35899577161262" lon="11.711655840694702"><ele>46.4</ele><time>2026-04-12T08:08:40.999Z</time></trkpt><trkpt lat="44.35890182751427" lon="11.711574752211735"><ele>46.6</ele><time>2026-04-12T08:08:42.999Z</time></trkpt><trkpt lat="44.35880897238616" lon="11.711495650045592"><ele>46.8</ele><time>2026-04-12T08:08:44.999Z</time></trkpt><trkpt lat="44.35872061276292" lon="11.711420158900456"><ele>47.0</ele><time>2026-04-12T08:08:46.999Z</time></trkpt><trkpt lat="44.358626925589725" lon="11.711339803142888"><ele>47.0</ele><time>2026-04-12T08:08:48.999Z</time></trkpt><trkpt lat="44.35853686447632" lon="11.711262336418342"><ele>47.0</ele><time>2026-04-12T08:08:50.999Z</time></trkpt><trkpt lat="44.358447646056305" lon="11.711185594581046"><ele>47.0</ele><time>2026-04-12T08:08:52.999Z</time></trkpt><trkpt lat="44.35835817395842" lon="11.711108624791812"><ele>47.0</ele><time>2026-04-12T08:08:54.999Z</time></trkpt><trkpt lat="44.358282458106174" lon="11.711017062908534"><ele>47.0</ele><time>2026-04-12T08:08:56.999Z</time></trkpt><trkpt lat="44.35820243866983" lon="11.710957139122867"><ele>47.400000000000006</ele><time>2026-04-12T08:08:58.999Z</time></trkpt><trkpt lat="44.35812583600789" lon="11.710895293694229"><ele>47.800000000000004</ele><time>2026-04-12T08:09:00.999Z</time></trkpt><trkpt lat="44.3580607603483" lon="11.710834491665254"><ele>48.2</ele><time>2026-04-12T08:09:02.999Z</time></trkpt><trkpt lat="44.358000435640136" lon="11.71078906621033"><ele>48.6</ele><time>2026-04-12T08:09:04.999Z</time></trkpt><trkpt lat="44.358040767041366" lon="11.710589612206503"><ele>49.0</ele><time>2026-04-12T08:09:07.999Z</time></trkpt><trkpt lat="44.35808117834586" lon="11.710473519789375"><ele>49.0</ele><time>2026-04-12T08:09:09.999Z</time></trkpt><trkpt lat="44.358117198437775" lon="11.710334736448313"><ele>49.0</ele><time>2026-04-12T08:09:11.999Z</time></trkpt><trkpt lat="44.358164269406885" lon="11.710189840842306"><ele>49.0</ele><time>2026-04-12T08:09:13.999Z</time></trkpt><trkpt lat="44.358210303203464" lon="11.710033123504692"><ele>49.0</ele><time>2026-04-12T08:09:15.999Z</time></trkpt><trkpt lat="44.358257358513704" lon="11.709879285772413"><ele>48.75</ele><time>2026-04-12T08:09:17.999Z</time></trkpt><trkpt lat="44.35829145377522" lon="11.709715791339711"><ele>48.5</ele><time>2026-04-12T08:09:19.999Z</time></trkpt><trkpt lat="44.3583115818896" lon="11.70955101749771"><ele>48.25</ele><time>2026-04-12T08:09:21.999Z</time></trkpt><trkpt lat="44.35831444363151" lon="11.709388119934758"><ele>48.0</ele><time>2026-04-12T08:09:23.999Z</time></trkpt><trkpt lat="44.35830267392211" lon="11.709218569201681"><ele>48.0</ele><time>2026-04-12T08:09:25.999Z</time></trkpt><trkpt lat="44.35827165658624" lon="11.709051821725822"><ele>48.0</ele><time>2026-04-12T08:09:27.999Z</time></trkpt><trkpt lat="44.35821199302934" lon="11.708899264717074"><ele>48.0</ele><time>2026-04-12T08:09:29.999Z</time></trkpt><trkpt lat="44.358133720892454" lon="11.708769263266479"><ele>48.0</ele><time>2026-04-12T08:09:31.999Z</time></trkpt><trkpt lat="44.35805934043867" lon="11.708641290279374"><ele>48.599999999999994</ele><time>2026-04-12T08:09:33.999Z</time></trkpt><trkpt lat="44.35802541452076" lon="11.708566278743305"><ele>49.199999999999996</ele><time>2026-04-12T08:09:34.999Z</time></trkpt><trkpt lat="44.357955241747256" lon="11.708426459236719"><ele>49.8</ele><time>2026-04-12T08:09:36.999Z</time></trkpt><trkpt lat="44.35787119600207" lon="11.708310380649248"><ele>50.4</ele><time>2026-04-12T08:09:38.999Z</time></trkpt><trkpt lat="44.35780992457283" lon="11.70816827308997"><ele>51.0</ele><time>2026-04-12T08:09:40.999Z</time></trkpt><trkpt lat="44.35776134120094" lon="11.708009246641943"><ele>51.0</ele><time>2026-04-12T08:09:42.999Z</time></trkpt><trkpt lat="44.35772735135686" lon="11.707933581113458"><ele>51.0</ele><time>2026-04-12T08:09:43.999Z</time></trkpt><trkpt lat="44.35769741551975" lon="11.707850784705913"><ele>51.0</ele><time>2026-04-12T08:09:44.999Z</time></trkpt><trkpt lat="44.357670455840385" lon="11.707768905310076"><ele>51.0</ele><time>2026-04-12T08:09:45.999Z</time></trkpt><trkpt lat="44.357638439166614" lon="11.707691291949978"><ele>51.0</ele><time>2026-04-12T08:09:46.999Z</time></trkpt><trkpt lat="44.35756976094448" lon="11.707545900200595"><ele>51.0</ele><time>2026-04-12T08:09:48.999Z</time></trkpt><trkpt lat="44.35749389529644" lon="11.707409351870249"><ele>51.0</ele><time>2026-04-12T08:09:50.999Z</time></trkpt><trkpt lat="44.35745097869573" lon="11.707344845392633"><ele>51.0</ele><time>2026-04-12T08:09:51.999Z</time></trkpt><trkpt lat="44.35741000100425" lon="11.707271861467113"><ele>51.0</ele><time>2026-04-12T08:09:52.999Z</time></trkpt><trkpt lat="44.35737669120771" lon="11.70719573037208"><ele>51.0</ele><time>2026-04-12T08:09:54Z</time></trkpt><trkpt lat="44.35734355576734" lon="11.707120234262657"><ele>51.0</ele><time>2026-04-12T08:09:55Z</time></trkpt><trkpt lat="44.35730382547732" lon="11.70704701650364"><ele>51.0</ele><time>2026-04-12T08:09:56Z</time></trkpt><trkpt lat="44.35721267260462" lon="11.706923547281146"><ele>51.0</ele><time>2026-04-12T08:09:58Z</time></trkpt><trkpt lat="44.35709759717869" lon="11.70683477986405"><ele>51.0</ele><time>2026-04-12T08:10:00Z</time></trkpt><trkpt lat="44.356983928594346" lon="11.706766103998051"><ele>51.0</ele><time>2026-04-12T08:10:02Z</time></trkpt><trkpt lat="44.35692734776587" lon="11.706727156513207"><ele>51.0</ele><time>2026-04-12T08:10:03Z</time></trkpt><trkpt lat="44.3568194850474" lon="11.706650279466702"><ele>51.0</ele><time>2026-04-12T08:10:05Z</time></trkpt><trkpt lat="44.35671609458908" lon="11.706572934009452"><ele>51.0</ele><time>2026-04-12T08:10:07Z</time></trkpt><trkpt lat="44.35661004467747" lon="11.706499284783936"><ele>51.0</ele><time>2026-04-12T08:10:09Z</time></trkpt><trkpt lat="44.35656642841581" lon="11.7064313890321"><ele>51.0</ele><time>2026-04-12T08:10:10Z</time></trkpt><trkpt lat="44.35657255544106" lon="11.706336057802012"><ele>51.0</ele><time>2026-04-12T08:10:11Z</time></trkpt><trkpt lat="44.356595971427105" lon="11.70624328387152"><ele>51.0</ele><time>2026-04-12T08:10:12Z</time></trkpt><trkpt lat="44.356634039351555" lon="11.706166269058325"><ele>51.0</ele><time>2026-04-12T08:10:13Z</time></trkpt><trkpt lat="44.3566616886322" lon="11.70608451821626"><ele>51.0</ele><time>2026-04-12T08:10:13.999Z</time></trkpt><trkpt lat="44.35669256870593" lon="11.70600152760442"><ele>51.0</ele><time>2026-04-12T08:10:14.999Z</time></trkpt><trkpt lat="44.356726398929595" lon="11.705921291296304"><ele>51.0</ele><time>2026-04-12T08:10:15.999Z</time></trkpt><trkpt lat="44.35675762643269" lon="11.705842807426265"><ele>51.0</ele><time>2026-04-12T08:10:16.999Z</time></trkpt><trkpt lat="44.356784985689586" lon="11.705760885991685"><ele>51.0</ele><time>2026-04-12T08:10:17.999Z</time></trkpt><trkpt lat="44.35683543273645" lon="11.705632545024159"><ele>51.0</ele><time>2026-04-12T08:10:19.999Z</time></trkpt><trkpt lat="44.35686905484702" lon="11.705546219988497"><ele>51.0</ele><time>2026-04-12T08:10:21.999Z</time></trkpt><trkpt lat="44.356923646638855" lon="11.7054057587171"><ele>51.0</ele><time>2026-04-12T08:10:23.999Z</time></trkpt><trkpt lat="44.35685734235551" lon="11.705273094622504"><ele>50.8</ele><time>2026-04-12T08:10:24.999Z</time></trkpt><trkpt lat="44.356873871056216" lon="11.705153323197008"><ele>50.599999999999994</ele><time>2026-04-12T08:10:26.999Z</time></trkpt><trkpt lat="44.35677321846365" lon="11.705098164469913"><ele>50.4</ele><time>2026-04-12T08:10:28.999Z</time></trkpt><trkpt lat="44.35669201787579" lon="11.705033589183273"><ele>50.2</ele><time>2026-04-12T08:10:30.999Z</time></trkpt><trkpt lat="44.35658137112648" lon="11.704950646830813"><ele>50.0</ele><time>2026-04-12T08:10:32.999Z</time></trkpt><trkpt lat="44.356569477799134" lon="11.704786214003477"><ele>50.0</ele><time>2026-04-12T08:10:33.999Z</time></trkpt><trkpt lat="44.356465871506806" lon="11.704711367661929"><ele>50.0</ele><time>2026-04-12T08:10:35.999Z</time></trkpt><trkpt lat="44.356358704619645" lon="11.704633544962748"><ele>50.0</ele><time>2026-04-12T08:10:37.999Z</time></trkpt><trkpt lat="44.35629815728803" lon="11.704589188567526"><ele>50.0</ele><time>2026-04-12T08:10:38.999Z</time></trkpt><trkpt lat="44.356240686271896" lon="11.704547085999767"><ele>50.0</ele><time>2026-04-12T08:10:39.999Z</time></trkpt><trkpt lat="44.35612973905886" lon="11.704465807386043"><ele>50.333333333333336</ele><time>2026-04-12T08:10:41.999Z</time></trkpt><trkpt lat="44.35602095948543" lon="11.704383128128892"><ele>50.66666666666667</ele><time>2026-04-12T08:10:43.999Z</time></trkpt><trkpt lat="44.35595650351829" lon="11.704332753711123"><ele>51.0</ele><time>2026-04-12T08:10:44.999Z</time></trkpt><trkpt lat="44.35589915089845" lon="11.70429610963592"><ele>51.33333333333333</ele><time>2026-04-12T08:10:45.999Z</time></trkpt><trkpt lat="44.3558384681746" lon="11.704251843716037"><ele>51.666666666666664</ele><time>2026-04-12T08:10:46.999Z</time></trkpt><trkpt lat="44.3557760335598" lon="11.704206299935054"><ele>52.0</ele><time>2026-04-12T08:10:47.999Z</time></trkpt><trkpt lat="44.35571258340377" lon="11.704160015225694"><ele>51.99999999999999</ele><time>2026-04-12T08:10:48.999Z</time></trkpt><trkpt lat="44.35560124117707" lon="11.704078796998084"><ele>52.0</ele><time>2026-04-12T08:10:50.999Z</time></trkpt><trkpt lat="44.355496225392436" lon="11.70400403697444"><ele>52.0</ele><time>2026-04-12T08:10:52.999Z</time></trkpt><trkpt lat="44.35543743062513" lon="11.703961682984007"><ele>52.0</ele><time>2026-04-12T08:10:53.999Z</time></trkpt><trkpt lat="44.35537016751547" lon="11.703913229021573"><ele>51.99999999999999</ele><time>2026-04-12T08:10:54.999Z</time></trkpt><trkpt lat="44.35531353385356" lon="11.703872431945339"><ele>52.0</ele><time>2026-04-12T08:10:55.999Z</time></trkpt><trkpt lat="44.35520142966289" lon="11.703789770809617"><ele>52.166666666666664</ele><time>2026-04-12T08:10:57.999Z</time></trkpt><trkpt lat="44.35514284901014" lon="11.703746169583782"><ele>52.33333333333333</ele><time>2026-04-12T08:10:58.999Z</time></trkpt><trkpt lat="44.35504147298198" lon="11.703671881373076"><ele>52.5</ele><time>2026-04-12T08:11:00.999Z</time></trkpt><trkpt lat="44.35497671395675" lon="11.703624128553589"><ele>52.66666666666667</ele><time>2026-04-12T08:11:01.999Z</time></trkpt><trkpt lat="44.35488329833121" lon="11.70355524488764"><ele>52.833333333333336</ele><time>2026-04-12T08:11:03.999Z</time></trkpt><trkpt lat="44.35481476063533" lon="11.703504706244944"><ele>53.0</ele><time>2026-04-12T08:11:04.999Z</time></trkpt><trkpt lat="44.35475790993868" lon="11.70346278511614"><ele>52.2</ele><time>2026-04-12T08:11:05.999Z</time></trkpt><trkpt lat="44.354702195234445" lon="11.703421701724166"><ele>51.4</ele><time>2026-04-12T08:11:06.999Z</time></trkpt><trkpt lat="44.3545923213927" lon="11.703339864177536"><ele>50.6</ele><time>2026-04-12T08:11:08.999Z</time></trkpt><trkpt lat="44.35448071369364" lon="11.703256535911715"><ele>49.800000000000004</ele><time>2026-04-12T08:11:10.999Z</time></trkpt><trkpt lat="44.35438559123922" lon="11.703185515948661"><ele>49.0</ele><time>2026-04-12T08:11:12.999Z</time></trkpt><trkpt lat="44.35431000466564" lon="11.703131386403392"><ele>49.0</ele><time>2026-04-12T08:11:14.999Z</time></trkpt><trkpt lat="44.35424640637257" lon="11.703087120859273"><ele>49.0</ele><time>2026-04-12T08:11:18.999Z</time></trkpt><trkpt lat="44.35402256802373" lon="11.702928457875174"><ele>49.0</ele><time>2026-04-12T08:11:36.999Z</time></trkpt><trkpt lat="44.35393098366504" lon="11.702861519482651"><ele>49.0</ele><time>2026-04-12T08:11:38.999Z</time></trkpt><trkpt lat="44.35383523517592" lon="11.702791301220136"><ele>49.2</ele><time>2026-04-12T08:11:40.999Z</time></trkpt><trkpt lat="44.35372794437039" lon="11.702712938439657"><ele>49.400000000000006</ele><time>2026-04-12T08:11:42.999Z</time></trkpt><trkpt lat="44.35361494585687" lon="11.702630863470523"><ele>49.6</ele><time>2026-04-12T08:11:45Z</time></trkpt><trkpt lat="44.35350570862427" lon="11.702551520403883"><ele>49.8</ele><time>2026-04-12T08:11:47Z</time></trkpt><trkpt lat="44.35344767131687" lon="11.702509365776981"><ele>50.0</ele><time>2026-04-12T08:11:48Z</time></trkpt><trkpt lat="44.353348458099006" lon="11.702567986493296"><ele>50.00000000000001</ele><time>2026-04-12T08:11:49Z</time></trkpt><trkpt lat="44.353289631074894" lon="11.702525638358226"><ele>50.0</ele><time>2026-04-12T08:11:50Z</time></trkpt><trkpt lat="44.35323092829028" lon="11.702484912970517"><ele>50.0</ele><time>2026-04-12T08:11:51Z</time></trkpt><trkpt lat="44.353170040501105" lon="11.702446856782792"><ele>50.0</ele><time>2026-04-12T08:11:52Z</time></trkpt><trkpt lat="44.35315108317413" lon="11.702294084048381"><ele>50.00000000000001</ele><time>2026-04-12T08:11:53Z</time></trkpt><trkpt lat="44.353054987695174" lon="11.70235483631209"><ele>50.0</ele><time>2026-04-12T08:11:54Z</time></trkpt><trkpt lat="44.35299681777263" lon="11.702309943025032"><ele>50.00000000000001</ele><time>2026-04-12T08:11:55Z</time></trkpt><trkpt lat="44.352936847912645" lon="11.702266815819279"><ele>50.0</ele><time>2026-04-12T08:11:56Z</time></trkpt><trkpt lat="44.352878051757486" lon="11.702222876252538"><ele>50.0</ele><time>2026-04-12T08:11:57Z</time></trkpt><trkpt lat="44.35285835554444" lon="11.70208233270202"><ele>50.0</ele><time>2026-04-12T08:11:58Z</time></trkpt><trkpt lat="44.352798980792656" lon="11.702039102681926"><ele>50.00000000000001</ele><time>2026-04-12T08:11:59Z</time></trkpt><trkpt lat="44.35273910063573" lon="11.701995597620833"><ele>50.0</ele><time>2026-04-12T08:12:00Z</time></trkpt><trkpt lat="44.35262757345131" lon="11.70191456918319"><ele>50.16666666666667</ele><time>2026-04-12T08:12:02Z</time></trkpt><trkpt lat="44.35251246302472" lon="11.701830937628078"><ele>50.333333333333336</ele><time>2026-04-12T08:12:04Z</time></trkpt><trkpt lat="44.352408049381125" lon="11.701754434357305"><ele>50.5</ele><time>2026-04-12T08:12:06Z</time></trkpt><trkpt lat="44.3523496621722" lon="11.701711695268463"><ele>50.66666666666667</ele><time>2026-04-12T08:12:07Z</time></trkpt><trkpt lat="44.3522895605558" lon="11.701667701269661"><ele>50.833333333333336</ele><time>2026-04-12T08:12:08Z</time></trkpt><trkpt lat="44.35223353864817" lon="11.701626613515577"><ele>51.0</ele><time>2026-04-12T08:12:09Z</time></trkpt><trkpt lat="44.35217767926638" lon="11.701585567932211"><ele>51.0</ele><time>2026-04-12T08:12:10Z</time></trkpt><trkpt lat="44.352067255846436" lon="11.701504428653266"><ele>51.0</ele><time>2026-04-12T08:12:12Z</time></trkpt><trkpt lat="44.352007455670986" lon="11.701460487419174"><ele>51.0</ele><time>2026-04-12T08:12:13Z</time></trkpt><trkpt lat="44.35189788934112" lon="11.701379977900773"><ele>51.0</ele><time>2026-04-12T08:12:15Z</time></trkpt><trkpt lat="44.35178603914457" lon="11.701297790240698"><ele>51.0</ele><time>2026-04-12T08:12:17Z</time></trkpt><trkpt lat="44.35172575271387" lon="11.701253473330846"><ele>51.0</ele><time>2026-04-12T08:12:18Z</time></trkpt><trkpt lat="44.35166708581342" lon="11.701210150983732"><ele>51.0</ele><time>2026-04-12T08:12:19Z</time></trkpt><trkpt lat="44.351610884324614" lon="11.701168649512896"><ele>51.0</ele><time>2026-04-12T08:12:20Z</time></trkpt><trkpt lat="44.35150897173653" lon="11.701080804442054"><ele>51.0</ele><time>2026-04-12T08:12:22Z</time></trkpt><trkpt lat="44.351453369475415" lon="11.701031292755523"><ele>51.0</ele><time>2026-04-12T08:12:23Z</time></trkpt><trkpt lat="44.35135504288299" lon="11.700934579633488"><ele>51.0</ele><time>2026-04-12T08:12:25Z</time></trkpt><trkpt lat="44.35124939217462" lon="11.700821481161555"><ele>50.833333333333336</ele><time>2026-04-12T08:12:27Z</time></trkpt><trkpt lat="44.35119687405984" lon="11.700765259101864"><ele>50.66666666666667</ele><time>2026-04-12T08:12:28Z</time></trkpt><trkpt lat="44.351104090771436" lon="11.700645957800058"><ele>50.5</ele><time>2026-04-12T08:12:30Z</time></trkpt><trkpt lat="44.35101511343599" lon="11.700525632809185"><ele>50.333333333333336</ele><time>2026-04-12T08:12:32Z</time></trkpt><trkpt lat="44.35096870447434" lon="11.700458622007146"><ele>50.16666666666667</ele><time>2026-04-12T08:12:33Z</time></trkpt><trkpt lat="44.35092484620195" lon="11.700392295580581"><ele>50.0</ele><time>2026-04-12T08:12:34Z</time></trkpt><trkpt lat="44.35088173615587" lon="11.700324778064655"><ele>50.00000000000001</ele><time>2026-04-12T08:12:35Z</time></trkpt><trkpt lat="44.350838504469" lon="11.700257070014972"><ele>50.0</ele><time>2026-04-12T08:12:36Z</time></trkpt><trkpt lat="44.350793823976275" lon="11.700187092870918"><ele>50.0</ele><time>2026-04-12T08:12:37Z</time></trkpt><trkpt lat="44.35075270420837" lon="11.700118114061564"><ele>50.0</ele><time>2026-04-12T08:12:38Z</time></trkpt><trkpt lat="44.35071275482807" lon="11.700049913401068"><ele>50.0</ele><time>2026-04-12T08:12:39Z</time></trkpt><trkpt lat="44.35067143855444" lon="11.699979379614685"><ele>50.00000000000001</ele><time>2026-04-12T08:12:40Z</time></trkpt><trkpt lat="44.35061422659289" lon="11.699876562358192"><ele>50.0</ele><time>2026-04-12T08:12:42Z</time></trkpt><trkpt lat="44.35055773102802" lon="11.699788204701617"><ele>49.66666666666667</ele><time>2026-04-12T08:12:44Z</time></trkpt><trkpt lat="44.350267029275244" lon="11.70002039391302"><ele>49.33333333333333</ele><time>2026-04-12T08:12:47Z</time></trkpt><trkpt lat="44.350199640080604" lon="11.70006887262075"><ele>49.0</ele><time>2026-04-12T08:12:51Z</time></trkpt><trkpt lat="44.350134265084" lon="11.699998398716572"><ele>48.99999999999999</ele><time>2026-04-12T08:12:53Z</time></trkpt><trkpt lat="44.35009246505833" lon="11.699914512013557"><ele>49.0</ele><time>2026-04-12T08:12:54.999Z</time></trkpt><trkpt lat="44.35002559557459" lon="11.69985728620599"><ele>49.0</ele><time>2026-04-12T08:12:57.999Z</time></trkpt><trkpt lat="44.34995045565412" lon="11.699834976588766"><ele>49.0</ele><time>2026-04-12T08:12:59.999Z</time></trkpt><trkpt lat="44.349952290706554" lon="11.699731004434252"><ele>48.99999999999999</ele><time>2026-04-12T08:13:01.999Z</time></trkpt><trkpt lat="44.34998693019179" lon="11.699597971553446"><ele>49.0</ele><time>2026-04-12T08:13:03.999Z</time></trkpt><trkpt lat="44.34998937998548" lon="11.699444425980412"><ele>49.2</ele><time>2026-04-12T08:13:05.999Z</time></trkpt><trkpt lat="44.349973345162596" lon="11.699289654086583"><ele>49.400000000000006</ele><time>2026-04-12T08:13:07.999Z</time></trkpt><trkpt lat="44.3499438653559" lon="11.699132205379563"><ele>49.6</ele><time>2026-04-12T08:13:09.999Z</time></trkpt><trkpt lat="44.34991752491583" lon="11.699043008258105"><ele>49.8</ele><time>2026-04-12T08:13:10.999Z</time></trkpt><trkpt lat="44.34984799165126" lon="11.698892885938184"><ele>50.0</ele><time>2026-04-12T08:13:12.999Z</time></trkpt><trkpt lat="44.34984908514432" lon="11.698741022327377"><ele>50.00000000000001</ele><time>2026-04-12T08:13:13.999Z</time></trkpt><trkpt lat="44.34979670857749" lon="11.698689002581279"><ele>50.0</ele><time>2026-04-12T08:13:14.999Z</time></trkpt><trkpt lat="44.34973794647559" lon="11.698632442329199"><ele>50.0</ele><time>2026-04-12T08:13:15.999Z</time></trkpt><trkpt lat="44.349683062998054" lon="11.698581507832696"><ele>50.0</ele><time>2026-04-12T08:13:16.999Z</time></trkpt><trkpt lat="44.349581493858885" lon="11.698490744959452"><ele>50.00000000000001</ele><time>2026-04-12T08:13:18.999Z</time></trkpt><trkpt lat="44.34947487746536" lon="11.698395949376163"><ele>50.0</ele><time>2026-04-12T08:13:20.999Z</time></trkpt><trkpt lat="44.349374267187265" lon="11.698307257344414"><ele>50.6</ele><time>2026-04-12T08:13:22.999Z</time></trkpt><trkpt lat="44.34927109696199" lon="11.698216308257157"><ele>51.2</ele><time>2026-04-12T08:13:24.999Z</time></trkpt><trkpt lat="44.34916828526437" lon="11.698122059059948"><ele>51.8</ele><time>2026-04-12T08:13:26.999Z</time></trkpt><trkpt lat="44.34906694227183" lon="11.698029651427994"><ele>52.4</ele><time>2026-04-12T08:13:28.999Z</time></trkpt><trkpt lat="44.349009506838705" lon="11.697978695119321"><ele>53.0</ele><time>2026-04-12T08:13:29.999Z</time></trkpt><trkpt lat="44.34894964379617" lon="11.697925660569807"><ele>52.75</ele><time>2026-04-12T08:13:30.999Z</time></trkpt><trkpt lat="44.34884585952586" lon="11.697833994645068"><ele>52.5</ele><time>2026-04-12T08:13:32.999Z</time></trkpt><trkpt lat="44.3487432825964" lon="11.697740644061264"><ele>52.25</ele><time>2026-04-12T08:13:34.999Z</time></trkpt><trkpt lat="44.34863742893385" lon="11.697644948336647"><ele>52.0</ele><time>2026-04-12T08:13:36.999Z</time></trkpt><trkpt lat="44.34852887614989" lon="11.69754930628692"><ele>52.0</ele><time>2026-04-12T08:13:38.999Z</time></trkpt><trkpt lat="44.348424058757914" lon="11.697456955380167"><ele>52.0</ele><time>2026-04-12T08:13:40.999Z</time></trkpt><trkpt lat="44.34831650408889" lon="11.697362192745157"><ele>52.0</ele><time>2026-04-12T08:13:42.999Z</time></trkpt><trkpt lat="44.34826178967814" lon="11.697313985786254"><ele>52.0</ele><time>2026-04-12T08:13:43.999Z</time></trkpt><trkpt lat="44.348207504893786" lon="11.697266157358012"><ele>52.0</ele><time>2026-04-12T08:13:45Z</time></trkpt><trkpt lat="44.34809982475965" lon="11.697171284159232"><ele>51.99999999999999</ele><time>2026-04-12T08:13:47Z</time></trkpt><trkpt lat="44.348043413109075" lon="11.697121581834555"><ele>52.0</ele><time>2026-04-12T08:13:48Z</time></trkpt><trkpt lat="44.34798721612887" lon="11.697072068639557"><ele>52.0</ele><time>2026-04-12T08:13:49Z</time></trkpt><trkpt lat="44.347932195909145" lon="11.697023592264243"><ele>52.0</ele><time>2026-04-12T08:13:50Z</time></trkpt><trkpt lat="44.34782938367612" lon="11.69693300842294"><ele>51.99999999999999</ele><time>2026-04-12T08:13:52Z</time></trkpt><trkpt lat="44.34772290415302" lon="11.696838001466084"><ele>52.0</ele><time>2026-04-12T08:13:54Z</time></trkpt><trkpt lat="44.3476282593263" lon="11.696872194577114"><ele>51.99999999999999</ele><time>2026-04-12T08:13:55Z</time></trkpt><trkpt lat="44.347573961083114" lon="11.696823193693959"><ele>52.0</ele><time>2026-04-12T08:13:56Z</time></trkpt><trkpt lat="44.34751568348108" lon="11.696775474130112"><ele>52.0</ele><time>2026-04-12T08:13:57Z</time></trkpt><trkpt lat="44.347459223713614" lon="11.696725813985738"><ele>52.0</ele><time>2026-04-12T08:13:58Z</time></trkpt><trkpt lat="44.34740167341599" lon="11.69667695891687"><ele>51.99999999999999</ele><time>2026-04-12T08:13:59Z</time></trkpt><trkpt lat="44.34734655541955" lon="11.696624669071259"><ele>52.0</ele><time>2026-04-12T08:14:00Z</time></trkpt><trkpt lat="44.347242297571476" lon="11.696524563961539"><ele>51.99999999999999</ele><time>2026-04-12T08:14:02Z</time></trkpt><trkpt lat="44.347218319726736" lon="11.696403234702348"><ele>52.0</ele><time>2026-04-12T08:14:03Z</time></trkpt><trkpt lat="44.34710481748257" lon="11.696308271804407"><ele>52.0</ele><time>2026-04-12T08:14:05Z</time></trkpt><trkpt lat="44.34704710593983" lon="11.696259560650768"><ele>52.0</ele><time>2026-04-12T08:14:06Z</time></trkpt><trkpt lat="44.34699032738881" lon="11.696211637013135"><ele>51.99999999999999</ele><time>2026-04-12T08:14:07Z</time></trkpt><trkpt lat="44.34693323807596" lon="11.69616345105943"><ele>52.0</ele><time>2026-04-12T08:14:08Z</time></trkpt><trkpt lat="44.34687509631634" lon="11.696114956803283"><ele>52.166666666666664</ele><time>2026-04-12T08:14:09Z</time></trkpt><trkpt lat="44.346816553630326" lon="11.696066574259003"><ele>52.33333333333333</ele><time>2026-04-12T08:14:10Z</time></trkpt><trkpt lat="44.34676201544961" lon="11.696021501204296"><ele>52.5</ele><time>2026-04-12T08:14:11Z</time></trkpt><trkpt lat="44.34670611338207" lon="11.69597530103015"><ele>52.66666666666667</ele><time>2026-04-12T08:14:12Z</time></trkpt><trkpt lat="44.34659997543036" lon="11.69588748758414"><ele>52.833333333333336</ele><time>2026-04-12T08:14:14Z</time></trkpt><trkpt lat="44.346544964057294" lon="11.695841352897036"><ele>53.0</ele><time>2026-04-12T08:14:15Z</time></trkpt><trkpt lat="44.346439436037926" lon="11.695748301875165"><ele>52.25</ele><time>2026-04-12T08:14:17Z</time></trkpt><trkpt lat="44.346338105256294" lon="11.695657376280666"><ele>51.5</ele><time>2026-04-12T08:14:19Z</time></trkpt><trkpt lat="44.346243460718924" lon="11.69556647154914"><ele>50.75</ele><time>2026-04-12T08:14:21Z</time></trkpt><trkpt lat="44.346151293613175" lon="11.69546801065371"><ele>50.0</ele><time>2026-04-12T08:14:23Z</time></trkpt><trkpt lat="44.34606085344692" lon="11.695365215468263"><ele>50.6</ele><time>2026-04-12T08:14:25Z</time></trkpt><trkpt lat="44.34597599920134" lon="11.695249115911993"><ele>51.2</ele><time>2026-04-12T08:14:27Z</time></trkpt><trkpt lat="44.34593524003693" lon="11.695180921938448"><ele>51.8</ele><time>2026-04-12T08:14:28Z</time></trkpt><trkpt lat="44.34586217214208" lon="11.695043018122197"><ele>52.4</ele><time>2026-04-12T08:14:30Z</time></trkpt><trkpt lat="44.345801271597566" lon="11.69489483989688"><ele>53.0</ele><time>2026-04-12T08:14:32Z</time></trkpt><trkpt lat="44.34574235706637" lon="11.694733642262156"><ele>53.0</ele><time>2026-04-12T08:14:34Z</time></trkpt><trkpt lat="44.345696461660864" lon="11.694570321297329"><ele>53.0</ele><time>2026-04-12T08:14:36Z</time></trkpt><trkpt lat="44.34567552666628" lon="11.69448689295604"><ele>53.0</ele><time>2026-04-12T08:14:37Z</time></trkpt><trkpt lat="44.34563652307344" lon="11.694320855284861"><ele>53.0</ele><time>2026-04-12T08:14:39Z</time></trkpt><trkpt lat="44.34559869125289" lon="11.694157203721144"><ele>53.0</ele><time>2026-04-12T08:14:41Z</time></trkpt><trkpt lat="44.345562211065584" lon="11.693999399066218"><ele>53.0</ele><time>2026-04-12T08:14:43Z</time></trkpt><trkpt lat="44.3455420160251" lon="11.693912040019038"><ele>53.0</ele><time>2026-04-12T08:14:44Z</time></trkpt><trkpt lat="44.3454935219446" lon="11.693770255621285"><ele>53.0</ele><time>2026-04-12T08:14:46Z</time></trkpt><trkpt lat="44.345490224437214" lon="11.693605736952073"><ele>53.0</ele><time>2026-04-12T08:14:48Z</time></trkpt><trkpt lat="44.345452744775976" lon="11.693429547375665"><ele>53.0</ele><time>2026-04-12T08:14:50Z</time></trkpt><trkpt lat="44.34542907090578" lon="11.69334383791311"><ele>53.25</ele><time>2026-04-12T08:14:51Z</time></trkpt><trkpt lat="44.34539196694763" lon="11.693183810561212"><ele>53.5</ele><time>2026-04-12T08:14:53Z</time></trkpt><trkpt lat="44.3453426135677" lon="11.693030743022218"><ele>53.75</ele><time>2026-04-12T08:14:55Z</time></trkpt><trkpt lat="44.34528985751018" lon="11.692881438409588"><ele>54.0</ele><time>2026-04-12T08:14:57Z</time></trkpt><trkpt lat="44.34523252127997" lon="11.692724265756382"><ele>54.0</ele><time>2026-04-12T08:14:59Z</time></trkpt><trkpt lat="44.34519595478495" lon="11.692646914348133"><ele>54.00000000000001</ele><time>2026-04-12T08:15:00Z</time></trkpt><trkpt lat="44.34512480330424" lon="11.692494470477168"><ele>54.00000000000001</ele><time>2026-04-12T08:15:02Z</time></trkpt><trkpt lat="44.34508907602942" lon="11.692413968164649"><ele>54.0</ele><time>2026-04-12T08:15:03Z</time></trkpt><trkpt lat="44.34502132845116" lon="11.692268199107277"><ele>54.0</ele><time>2026-04-12T08:15:05Z</time></trkpt><trkpt lat="44.34498606533912" lon="11.692192449420336"><ele>54.0</ele><time>2026-04-12T08:15:06Z</time></trkpt><trkpt lat="44.3449209711096" lon="11.69204849620766"><ele>54.0</ele><time>2026-04-12T08:15:08Z</time></trkpt><trkpt lat="44.3448826970155" lon="11.691973319524942"><ele>54.0</ele><time>2026-04-12T08:15:09Z</time></trkpt><trkpt lat="44.344809410010456" lon="11.691843020976536"><ele>54.0</ele><time>2026-04-12T08:15:11Z</time></trkpt><trkpt lat="44.34476530016544" lon="11.691773874518367"><ele>54.0</ele><time>2026-04-12T08:15:12Z</time></trkpt><trkpt lat="44.34472115062878" lon="11.691708429021313"><ele>54.0</ele><time>2026-04-12T08:15:13Z</time></trkpt><trkpt lat="44.344675515630435" lon="11.691637134273128"><ele>54.0</ele><time>2026-04-12T08:15:14Z</time></trkpt><trkpt lat="44.34462823455564" lon="11.69157322416897"><ele>54.0</ele><time>2026-04-12T08:15:15Z</time></trkpt><trkpt lat="44.344581542259284" lon="11.69150963738529"><ele>54.0</ele><time>2026-04-12T08:15:16Z</time></trkpt><trkpt lat="44.34449228963988" lon="11.691387093169793"><ele>54.0</ele><time>2026-04-12T08:15:18Z</time></trkpt><trkpt lat="44.34441098987301" lon="11.69125725454947"><ele>54.0</ele><time>2026-04-12T08:15:20Z</time></trkpt><trkpt lat="44.344367532666496" lon="11.691190081025452"><ele>54.0</ele><time>2026-04-12T08:15:21Z</time></trkpt><trkpt lat="44.344280090300224" lon="11.69106250233373"><ele>54.0</ele><time>2026-04-12T08:15:23Z</time></trkpt><trkpt lat="44.34423429732648" lon="11.691000407481676"><ele>54.0</ele><time>2026-04-12T08:15:24Z</time></trkpt><trkpt lat="44.344142661447705" lon="11.690878294288629"><ele>54.0</ele><time>2026-04-12T08:15:26Z</time></trkpt><trkpt lat="44.3440977626823" lon="11.690813449643489"><ele>54.0</ele><time>2026-04-12T08:15:27Z</time></trkpt><trkpt lat="44.34405372044698" lon="11.690745130853417"><ele>54.0</ele><time>2026-04-12T08:15:28Z</time></trkpt><trkpt lat="44.34400811246861" lon="11.690682574303976"><ele>54.0</ele><time>2026-04-12T08:15:29Z</time></trkpt><trkpt lat="44.34396220054167" lon="11.690616509035207"><ele>54.0</ele><time>2026-04-12T08:15:30Z</time></trkpt><trkpt lat="44.34391749659316" lon="11.69055089824562"><ele>54.0</ele><time>2026-04-12T08:15:31Z</time></trkpt><trkpt lat="44.34387180273275" lon="11.690488324392811"><ele>54.0</ele><time>2026-04-12T08:15:32Z</time></trkpt><trkpt lat="44.343826052991616" lon="11.690423532535211"><ele>54.0</ele><time>2026-04-12T08:15:33Z</time></trkpt><trkpt lat="44.34378145920283" lon="11.690360679689373"><ele>54.0</ele><time>2026-04-12T08:15:34Z</time></trkpt><trkpt lat="44.34373524047428" lon="11.690296766055628"><ele>54.0</ele><time>2026-04-12T08:15:35Z</time></trkpt><trkpt lat="44.34368911905227" lon="11.690234781622614"><ele>54.0</ele><time>2026-04-12T08:15:35.999Z</time></trkpt><trkpt lat="44.34364428039284" lon="11.690171528059174"><ele>54.25</ele><time>2026-04-12T08:15:36.999Z</time></trkpt><trkpt lat="44.34355347657788" lon="11.690047200032907"><ele>54.5</ele><time>2026-04-12T08:15:38.999Z</time></trkpt><trkpt lat="44.34346461331248" lon="11.689922865574323"><ele>54.75</ele><time>2026-04-12T08:15:40.999Z</time></trkpt><trkpt lat="44.34337602401696" lon="11.689801838319191"><ele>55.0</ele><time>2026-04-12T08:15:42.999Z</time></trkpt><trkpt lat="44.34328614864057" lon="11.689679846835467"><ele>54.99999999999999</ele><time>2026-04-12T08:15:44.999Z</time></trkpt><trkpt lat="44.343198545017735" lon="11.689551807166257"><ele>55.0</ele><time>2026-04-12T08:15:46.999Z</time></trkpt><trkpt lat="44.34315277383963" lon="11.68948838593558"><ele>55.0</ele><time>2026-04-12T08:15:47.999Z</time></trkpt><trkpt lat="44.34306180610632" lon="11.689365523351622"><ele>55.0</ele><time>2026-04-12T08:15:49.999Z</time></trkpt><trkpt lat="44.34301552384698" lon="11.68930171744426"><ele>54.99999999999999</ele><time>2026-04-12T08:15:51Z</time></trkpt><trkpt lat="44.34296829844955" lon="11.689239031856053"><ele>55.0</ele><time>2026-04-12T08:15:52Z</time></trkpt><trkpt lat="44.34292188708132" lon="11.689177622023086"><ele>55.2</ele><time>2026-04-12T08:15:53Z</time></trkpt><trkpt lat="44.342831197613094" lon="11.689059010929611"><ele>55.4</ele><time>2026-04-12T08:15:55Z</time></trkpt><trkpt lat="44.34278252680383" lon="11.688997238733343"><ele>55.599999999999994</ele><time>2026-04-12T08:15:56Z</time></trkpt><trkpt lat="44.34273478902824" lon="11.688932195305714"><ele>55.8</ele><time>2026-04-12T08:15:57Z</time></trkpt><trkpt lat="44.34269227113821" lon="11.688859379655089"><ele>56.0</ele><time>2026-04-12T08:15:58Z</time></trkpt><trkpt lat="44.34261284664058" lon="11.688722771076588"><ele>56.0</ele><time>2026-04-12T08:16:00Z</time></trkpt><trkpt lat="44.34252701353652" lon="11.688592185650588"><ele>55.99999999999999</ele><time>2026-04-12T08:16:02Z</time></trkpt><trkpt lat="44.34248068578654" lon="11.688527326211842"><ele>55.99999999999999</ele><time>2026-04-12T08:16:03Z</time></trkpt><trkpt lat="44.342434726646765" lon="11.688464021524181"><ele>56.0</ele><time>2026-04-12T08:16:04Z</time></trkpt><trkpt lat="44.342349266662794" lon="11.688338115008866"><ele>56.0</ele><time>2026-04-12T08:16:06Z</time></trkpt><trkpt lat="44.34226436943119" lon="11.688211223881714"><ele>56.4</ele><time>2026-04-12T08:16:08Z</time></trkpt><trkpt lat="44.342187886247366" lon="11.68808523700665"><ele>56.8</ele><time>2026-04-12T08:16:10Z</time></trkpt><trkpt lat="44.34218066793975" lon="11.68799587888437"><ele>57.199999999999996</ele><time>2026-04-12T08:16:13Z</time></trkpt><trkpt lat="44.34221150168534" lon="11.687858541485628"><ele>57.599999999999994</ele><time>2026-04-12T08:16:16Z</time></trkpt><trkpt lat="44.34227027100806" lon="11.687749750930632"><ele>58.0</ele><time>2026-04-12T08:16:18Z</time></trkpt><trkpt lat="44.342291189594214" lon="11.68760478330682"><ele>57.99999999999999</ele><time>2026-04-12T08:16:20Z</time></trkpt><trkpt lat="44.34226386073173" lon="11.687447427269236"><ele>58.0</ele><time>2026-04-12T08:16:22Z</time></trkpt><trkpt lat="44.34222468005736" lon="11.68737431557198"><ele>58.0</ele><time>2026-04-12T08:16:23Z</time></trkpt><trkpt lat="44.34211217124908" lon="11.687295556267456"><ele>58.0</ele><time>2026-04-12T08:16:25Z</time></trkpt><trkpt lat="44.342048664493596" lon="11.687273833645051"><ele>57.99999999999999</ele><time>2026-04-12T08:16:26Z</time></trkpt><trkpt lat="44.341981939633925" lon="11.687264486073893"><ele>58.0</ele><time>2026-04-12T08:16:27Z</time></trkpt><trkpt lat="44.341917405694495" lon="11.687247947258886"><ele>58.14285714285715</ele><time>2026-04-12T08:16:28Z</time></trkpt><trkpt lat="44.34185213759443" lon="11.68722637352547"><ele>58.28571428571429</ele><time>2026-04-12T08:16:29Z</time></trkpt><trkpt lat="44.34178977608781" lon="11.687195568767104"><ele>58.42857142857143</ele><time>2026-04-12T08:16:30Z</time></trkpt><trkpt lat="44.34172874259119" lon="11.687166003476662"><ele>58.57142857142858</ele><time>2026-04-12T08:16:31Z</time></trkpt><trkpt lat="44.34166634723149" lon="11.687138863247805"><ele>58.71428571428572</ele><time>2026-04-12T08:16:32Z</time></trkpt><trkpt lat="44.341603948446554" lon="11.687121078231899"><ele>58.857142857142854</ele><time>2026-04-12T08:16:33Z</time></trkpt><trkpt lat="44.34153720378715" lon="11.687102597912752"><ele>59.0</ele><time>2026-04-12T08:16:34Z</time></trkpt><trkpt lat="44.341474162416596" lon="11.687086738134399"><ele>59.0</ele><time>2026-04-12T08:16:35Z</time></trkpt><trkpt lat="44.34140787924728" lon="11.687062924405467"><ele>59.0</ele><time>2026-04-12T08:16:36Z</time></trkpt><trkpt lat="44.34135475935633" lon="11.687004282001253"><ele>59.0</ele><time>2026-04-12T08:16:37Z</time></trkpt><trkpt lat="44.34131233345868" lon="11.68692999483135"><ele>59.0</ele><time>2026-04-12T08:16:38Z</time></trkpt><trkpt lat="44.34127144442011" lon="11.686860416474639"><ele>59.0</ele><time>2026-04-12T08:16:39Z</time></trkpt><trkpt lat="44.34122582620073" lon="11.686795601675353"><ele>59.0</ele><time>2026-04-12T08:16:40Z</time></trkpt><trkpt lat="44.34117884265309" lon="11.686729909172827"><ele>59.0</ele><time>2026-04-12T08:16:41Z</time></trkpt><trkpt lat="44.34113281957775" lon="11.68666124034128"><ele>59.0</ele><time>2026-04-12T08:16:42Z</time></trkpt><trkpt lat="44.34108618782565" lon="11.686595006753507"><ele>59.0</ele><time>2026-04-12T08:16:43Z</time></trkpt><trkpt lat="44.341039111211984" lon="11.686530399037606"><ele>59.0</ele><time>2026-04-12T08:16:44Z</time></trkpt><trkpt lat="44.34099397026901" lon="11.686466673005794"><ele>59.0</ele><time>2026-04-12T08:16:45Z</time></trkpt><trkpt lat="44.34094447139504" lon="11.686400529670944"><ele>59.0</ele><time>2026-04-12T08:16:46Z</time></trkpt><trkpt lat="44.34089655206412" lon="11.68633820151032"><ele>59.0</ele><time>2026-04-12T08:16:47Z</time></trkpt><trkpt lat="44.34084710320845" lon="11.686277962596467"><ele>59.0</ele><time>2026-04-12T08:16:48Z</time></trkpt><trkpt lat="44.340795942645016" lon="11.686216492614996"><ele>59.0</ele><time>2026-04-12T08:16:49Z</time></trkpt><trkpt lat="44.340748373900276" lon="11.686157265084251"><ele>59.0</ele><time>2026-04-12T08:16:50Z</time></trkpt><trkpt lat="44.34070028929644" lon="11.686096674829962"><ele>59.0</ele><time>2026-04-12T08:16:51Z</time></trkpt><trkpt lat="44.3406498699963" lon="11.686038277737447"><ele>59.0</ele><time>2026-04-12T08:16:52Z</time></trkpt><trkpt lat="44.34060014037142" lon="11.685982397287743"><ele>59.0</ele><time>2026-04-12T08:16:53Z</time></trkpt><trkpt lat="44.34050020966203" lon="11.685874490925348"><ele>59.0</ele><time>2026-04-12T08:16:55Z</time></trkpt><trkpt lat="44.34044951992534" lon="11.685816970413049"><ele>59.0</ele><time>2026-04-12T08:16:56Z</time></trkpt><trkpt lat="44.34039889464144" lon="11.685760294575731"><ele>58.857142857142854</ele><time>2026-04-12T08:16:57Z</time></trkpt><trkpt lat="44.3403462110185" lon="11.685710527065615"><ele>58.71428571428572</ele><time>2026-04-12T08:16:58Z</time></trkpt><trkpt lat="44.340291434807405" lon="11.68565860443049"><ele>58.57142857142858</ele><time>2026-04-12T08:16:59Z</time></trkpt><trkpt lat="44.34023796339036" lon="11.68560731272892"><ele>58.42857142857143</ele><time>2026-04-12T08:17:00Z</time></trkpt><trkpt lat="44.34018360899443" lon="11.68555718839654"><ele>58.28571428571429</ele><time>2026-04-12T08:17:01Z</time></trkpt><trkpt lat="44.34012983419937" lon="11.685508661783265"><ele>58.14285714285715</ele><time>2026-04-12T08:17:02Z</time></trkpt><trkpt lat="44.34007432902286" lon="11.685460802889331"><ele>58.00000000000001</ele><time>2026-04-12T08:17:03Z</time></trkpt><trkpt lat="44.34001877601284" lon="11.685411671735546"><ele>57.99999999999999</ele><time>2026-04-12T08:17:04Z</time></trkpt><trkpt lat="44.33996517648958" lon="11.685364106697358"><ele>58.0</ele><time>2026-04-12T08:17:05Z</time></trkpt><trkpt lat="44.33990689959672" lon="11.68531945569971"><ele>58.0</ele><time>2026-04-12T08:17:06Z</time></trkpt><trkpt lat="44.33979723585394" lon="11.685233062725047"><ele>58.0</ele><time>2026-04-12T08:17:08Z</time></trkpt><trkpt lat="44.33974104935245" lon="11.685188561399277"><ele>57.99999999999999</ele><time>2026-04-12T08:17:09Z</time></trkpt><trkpt lat="44.339684374778955" lon="11.685144795105536"><ele>58.0</ele><time>2026-04-12T08:17:10Z</time></trkpt><trkpt lat="44.33962819548514" lon="11.685099688129954"><ele>57.85714285714286</ele><time>2026-04-12T08:17:11Z</time></trkpt><trkpt lat="44.339570270356816" lon="11.685054921049803"><ele>57.714285714285715</ele><time>2026-04-12T08:17:12Z</time></trkpt><trkpt lat="44.339513403762375" lon="11.685010779189852"><ele>57.57142857142857</ele><time>2026-04-12T08:17:13Z</time></trkpt><trkpt lat="44.339450703347985" lon="11.684960429878888"><ele>57.42857142857143</ele><time>2026-04-12T08:17:14Z</time></trkpt><trkpt lat="44.33938857712736" lon="11.684910123125817"><ele>57.28571428571428</ele><time>2026-04-12T08:17:15Z</time></trkpt><trkpt lat="44.33932867138513" lon="11.684859742076247"><ele>57.14285714285714</ele><time>2026-04-12T08:17:16Z</time></trkpt><trkpt lat="44.3392651264492" lon="11.684810683813517"><ele>57.0</ele><time>2026-04-12T08:17:17Z</time></trkpt><trkpt lat="44.339200062349704" lon="11.684763898467292"><ele>57.0</ele><time>2026-04-12T08:17:18Z</time></trkpt><trkpt lat="44.3391349326413" lon="11.684712422111655"><ele>56.99999999999999</ele><time>2026-04-12T08:17:19Z</time></trkpt><trkpt lat="44.33907018147653" lon="11.68465992724825"><ele>57.0</ele><time>2026-04-12T08:17:20Z</time></trkpt><trkpt lat="44.339006430327785" lon="11.684609069150499"><ele>57.0</ele><time>2026-04-12T08:17:21Z</time></trkpt><trkpt lat="44.33894227025537" lon="11.684555851652412"><ele>56.99999999999999</ele><time>2026-04-12T08:17:22Z</time></trkpt><trkpt lat="44.33887619703685" lon="11.684505389504713"><ele>57.0</ele><time>2026-04-12T08:17:23Z</time></trkpt><trkpt lat="44.338813255721035" lon="11.684454118696166"><ele>57.0</ele><time>2026-04-12T08:17:24Z</time></trkpt><trkpt lat="44.338751584102674" lon="11.684406350514575"><ele>57.285714285714285</ele><time>2026-04-12T08:17:25Z</time></trkpt><trkpt lat="44.33868475445334" lon="11.684356216894855"><ele>57.57142857142857</ele><time>2026-04-12T08:17:26Z</time></trkpt><trkpt lat="44.33862097347351" lon="11.68430635886927"><ele>57.857142857142854</ele><time>2026-04-12T08:17:27Z</time></trkpt><trkpt lat="44.33855859175636" lon="11.684256592585943"><ele>58.14285714285714</ele><time>2026-04-12T08:17:28Z</time></trkpt><trkpt lat="44.33849649120384" lon="11.684205785450516"><ele>58.42857142857143</ele><time>2026-04-12T08:17:29Z</time></trkpt><trkpt lat="44.33843543854419" lon="11.684159737714646"><ele>58.71428571428571</ele><time>2026-04-12T08:17:30Z</time></trkpt><trkpt lat="44.33837494906393" lon="11.684110692800152"><ele>59.0</ele><time>2026-04-12T08:17:31Z</time></trkpt><trkpt lat="44.338315303266" lon="11.684063337666887"><ele>59.0</ele><time>2026-04-12T08:17:32Z</time></trkpt><trkpt lat="44.33825680270234" lon="11.684016544051483"><ele>59.0</ele><time>2026-04-12T08:17:33Z</time></trkpt><trkpt lat="44.33819881750366" lon="11.68396905073872"><ele>59.0</ele><time>2026-04-12T08:17:34Z</time></trkpt><trkpt lat="44.33814150633424" lon="11.68392193977231"><ele>59.0</ele><time>2026-04-12T08:17:35Z</time></trkpt><trkpt lat="44.33808002054267" lon="11.683873098263275"><ele>59.0</ele><time>2026-04-12T08:17:36Z</time></trkpt><trkpt lat="44.338019817692306" lon="11.683826921873463"><ele>59.0</ele><time>2026-04-12T08:17:37Z</time></trkpt><trkpt lat="44.337964424077086" lon="11.683779062820555"><ele>59.0</ele><time>2026-04-12T08:17:38Z</time></trkpt><trkpt lat="44.33790650799987" lon="11.683732811759903"><ele>58.857142857142854</ele><time>2026-04-12T08:17:39Z</time></trkpt><trkpt lat="44.33784947961516" lon="11.68368743173874"><ele>58.71428571428572</ele><time>2026-04-12T08:17:39.999Z</time></trkpt><trkpt lat="44.33779008901933" lon="11.68364078010057"><ele>58.57142857142858</ele><time>2026-04-12T08:17:40.999Z</time></trkpt><trkpt lat="44.3377312497897" lon="11.683591282070056"><ele>58.42857142857143</ele><time>2026-04-12T08:17:41.999Z</time></trkpt><trkpt lat="44.33767094101917" lon="11.6835412269466"><ele>58.28571428571429</ele><time>2026-04-12T08:17:42.999Z</time></trkpt><trkpt lat="44.337613607900145" lon="11.68349475028657"><ele>58.14285714285715</ele><time>2026-04-12T08:17:43.999Z</time></trkpt><trkpt lat="44.33755517975481" lon="11.683448805306844"><ele>58.00000000000001</ele><time>2026-04-12T08:17:44.999Z</time></trkpt><trkpt lat="44.33749815524722" lon="11.683402520537504"><ele>58.00000000000001</ele><time>2026-04-12T08:17:45.999Z</time></trkpt><trkpt lat="44.33744108988201" lon="11.683352604294207"><ele>58.0</ele><time>2026-04-12T08:17:46.999Z</time></trkpt><trkpt lat="44.33738145833272" lon="11.683304529190545"><ele>58.00000000000001</ele><time>2026-04-12T08:17:47.999Z</time></trkpt><trkpt lat="44.33732298644453" lon="11.683257909966638"><ele>58.00000000000001</ele><time>2026-04-12T08:17:48.999Z</time></trkpt><trkpt lat="44.33726345220621" lon="11.683207732355848"><ele>58.0</ele><time>2026-04-12T08:17:49.999Z</time></trkpt><trkpt lat="44.33720122145118" lon="11.683159480870813"><ele>58.00000000000001</ele><time>2026-04-12T08:17:50.999Z</time></trkpt><trkpt lat="44.33713839750089" lon="11.683101824009949"><ele>58.00000000000001</ele><time>2026-04-12T08:17:51.999Z</time></trkpt><trkpt lat="44.33707822765199" lon="11.683056226137387"><ele>58.42857142857144</ele><time>2026-04-12T08:17:52.999Z</time></trkpt><trkpt lat="44.337018955810365" lon="11.683005213506263"><ele>58.85714285714286</ele><time>2026-04-12T08:17:53.999Z</time></trkpt><trkpt lat="44.336957856801874" lon="11.68295296551932"><ele>59.285714285714285</ele><time>2026-04-12T08:17:54.999Z</time></trkpt><trkpt lat="44.33689693574079" lon="11.682897962677364"><ele>59.714285714285715</ele><time>2026-04-12T08:17:55.999Z</time></trkpt><trkpt lat="44.33683353764666" lon="11.682846549431938"><ele>60.14285714285714</ele><time>2026-04-12T08:17:57Z</time></trkpt><trkpt lat="44.33676716218565" lon="11.682791293280586"><ele>60.57142857142856</ele><time>2026-04-12T08:17:58Z</time></trkpt><trkpt lat="44.336708017996834" lon="11.68273733603218"><ele>60.99999999999999</ele><time>2026-04-12T08:17:59Z</time></trkpt><trkpt lat="44.336646284645326" lon="11.682683947916768"><ele>60.99999999999999</ele><time>2026-04-12T08:18:00Z</time></trkpt><trkpt lat="44.336580817846034" lon="11.682629795261823"><ele>61.0</ele><time>2026-04-12T08:18:01Z</time></trkpt><trkpt lat="44.33651661131104" lon="11.682574928530125"><ele>60.99999999999999</ele><time>2026-04-12T08:18:02Z</time></trkpt><trkpt lat="44.336457192631414" lon="11.68252000533226"><ele>60.99999999999999</ele><time>2026-04-12T08:18:03Z</time></trkpt><trkpt lat="44.336393690443494" lon="11.68246643379593"><ele>61.0</ele><time>2026-04-12T08:18:04Z</time></trkpt><trkpt lat="44.33633288566285" lon="11.682407904669112"><ele>60.99999999999999</ele><time>2026-04-12T08:18:05Z</time></trkpt><trkpt lat="44.33626848192477" lon="11.682350624150514"><ele>60.99999999999999</ele><time>2026-04-12T08:18:06Z</time></trkpt><trkpt lat="44.33620678791927" lon="11.682292513764663"><ele>61.14285714285714</ele><time>2026-04-12T08:18:07Z</time></trkpt><trkpt lat="44.33614364020049" lon="11.682234494080888"><ele>61.285714285714285</ele><time>2026-04-12T08:18:08Z</time></trkpt><trkpt lat="44.336080048037424" lon="11.682173386891256"><ele>61.42857142857143</ele><time>2026-04-12T08:18:09Z</time></trkpt><trkpt lat="44.33601915293644" lon="11.682113640842642"><ele>61.57142857142857</ele><time>2026-04-12T08:18:10Z</time></trkpt><trkpt lat="44.33595927612616" lon="11.682051486059114"><ele>61.71428571428572</ele><time>2026-04-12T08:18:11Z</time></trkpt><trkpt lat="44.33590178986723" lon="11.681991482236265"><ele>61.85714285714286</ele><time>2026-04-12T08:18:12Z</time></trkpt><trkpt lat="44.33584840252909" lon="11.681926058307461"><ele>62.0</ele><time>2026-04-12T08:18:13Z</time></trkpt><trkpt lat="44.335792018030325" lon="11.681862714556488"><ele>62.00000000000001</ele><time>2026-04-12T08:18:14Z</time></trkpt><trkpt lat="44.33573581581823" lon="11.681800803438941"><ele>62.0</ele><time>2026-04-12T08:18:15Z</time></trkpt><trkpt lat="44.33568821260369" lon="11.68173428295682"><ele>62.0</ele><time>2026-04-12T08:18:16Z</time></trkpt><trkpt lat="44.335638524572865" lon="11.68167111081776"><ele>62.0</ele><time>2026-04-12T08:18:17Z</time></trkpt><trkpt lat="44.3355942892753" lon="11.681603625777841"><ele>62.00000000000001</ele><time>2026-04-12T08:18:18Z</time></trkpt><trkpt lat="44.33550875680602" lon="11.681462049215991"><ele>62.0</ele><time>2026-04-12T08:18:20Z</time></trkpt><trkpt lat="44.33546911299557" lon="11.6813908920376"><ele>61.714285714285715</ele><time>2026-04-12T08:18:21Z</time></trkpt><trkpt lat="44.33542542762289" lon="11.681317969947049"><ele>61.42857142857143</ele><time>2026-04-12T08:18:22Z</time></trkpt><trkpt lat="44.33538628944621" lon="11.681243495831621"><ele>61.142857142857146</ele><time>2026-04-12T08:18:23Z</time></trkpt><trkpt lat="44.33534996342892" lon="11.681165421427021"><ele>60.85714285714286</ele><time>2026-04-12T08:18:24Z</time></trkpt><trkpt lat="44.33531166726573" lon="11.681088887892303"><ele>60.57142857142857</ele><time>2026-04-12T08:18:25Z</time></trkpt><trkpt lat="44.33527251586042" lon="11.681017649270013"><ele>60.28571428571429</ele><time>2026-04-12T08:18:26Z</time></trkpt><trkpt lat="44.3352305233581" lon="11.680940668347512"><ele>60.0</ele><time>2026-04-12T08:18:27Z</time></trkpt><trkpt lat="44.335188953893244" lon="11.68085981130572"><ele>60.0</ele><time>2026-04-12T08:18:28Z</time></trkpt><trkpt lat="44.33514778700272" lon="11.680783772735685"><ele>60.0</ele><time>2026-04-12T08:18:29Z</time></trkpt><trkpt lat="44.335107380282935" lon="11.680707963928333"><ele>60.0</ele><time>2026-04-12T08:18:30Z</time></trkpt><trkpt lat="44.33506806393419" lon="11.68062794352954"><ele>60.0</ele><time>2026-04-12T08:18:31Z</time></trkpt><trkpt lat="44.33502970530288" lon="11.680542789977524"><ele>60.0</ele><time>2026-04-12T08:18:32Z</time></trkpt><trkpt lat="44.33499478522771" lon="11.680459876435433"><ele>60.0</ele><time>2026-04-12T08:18:33Z</time></trkpt><trkpt lat="44.33496194393211" lon="11.680376457178012"><ele>60.0</ele><time>2026-04-12T08:18:34Z</time></trkpt><trkpt lat="44.33492886284203" lon="11.680288274569978"><ele>60.142857142857146</ele><time>2026-04-12T08:18:35Z</time></trkpt><trkpt lat="44.33490056179442" lon="11.680202617040978"><ele>60.28571428571428</ele><time>2026-04-12T08:18:36Z</time></trkpt><trkpt lat="44.33487035500794" lon="11.68011678574185"><ele>60.42857142857142</ele><time>2026-04-12T08:18:37Z</time></trkpt><trkpt lat="44.334843807782796" lon="11.680029293117412"><ele>60.57142857142857</ele><time>2026-04-12T08:18:38Z</time></trkpt><trkpt lat="44.33481748642084" lon="11.679938903129127"><ele>60.71428571428571</ele><time>2026-04-12T08:18:39Z</time></trkpt><trkpt lat="44.33478891332308" lon="11.679848830337932"><ele>60.85714285714285</ele><time>2026-04-12T08:18:40Z</time></trkpt><trkpt lat="44.33476138115826" lon="11.679757330456448"><ele>60.99999999999999</ele><time>2026-04-12T08:18:41Z</time></trkpt><trkpt lat="44.33473533571483" lon="11.679666930254818"><ele>60.99999999999999</ele><time>2026-04-12T08:18:42Z</time></trkpt><trkpt lat="44.33470717345639" lon="11.679575923195248"><ele>61.0</ele><time>2026-04-12T08:18:43Z</time></trkpt><trkpt lat="44.334677363875436" lon="11.679484388248067"><ele>60.99999999999999</ele><time>2026-04-12T08:18:44Z</time></trkpt><trkpt lat="44.33465291972095" lon="11.679392753367473"><ele>60.99999999999999</ele><time>2026-04-12T08:18:45Z</time></trkpt><trkpt lat="44.334625192471826" lon="11.679300088513463"><ele>61.0</ele><time>2026-04-12T08:18:46Z</time></trkpt><trkpt lat="44.33459618616026" lon="11.679207716748662"><ele>60.99999999999999</ele><time>2026-04-12T08:18:47Z</time></trkpt><trkpt lat="44.3345725245939" lon="11.679119027157551"><ele>60.99999999999999</ele><time>2026-04-12T08:18:48Z</time></trkpt><trkpt lat="44.33454703939788" lon="11.679028953917424"><ele>61.428571428571416</ele><time>2026-04-12T08:18:49Z</time></trkpt><trkpt lat="44.33451890834006" lon="11.678939489794255"><ele>61.857142857142854</ele><time>2026-04-12T08:18:50Z</time></trkpt><trkpt lat="44.3344891962096" lon="11.678850136383808"><ele>62.28571428571428</ele><time>2026-04-12T08:18:51Z</time></trkpt><trkpt lat="44.3344591996936" lon="11.678757606544814"><ele>62.71428571428571</ele><time>2026-04-12T08:18:52Z</time></trkpt><trkpt lat="44.33443526584083" lon="11.67866947933199"><ele>63.14285714285714</ele><time>2026-04-12T08:18:53Z</time></trkpt><trkpt lat="44.33441159384393" lon="11.678580914206849"><ele>63.57142857142857</ele><time>2026-04-12T08:18:54Z</time></trkpt><trkpt lat="44.33438538762973" lon="11.678488655443074"><ele>64.0</ele><time>2026-04-12T08:18:55Z</time></trkpt><trkpt lat="44.334359839065215" lon="11.678395236474705"><ele>64.0</ele><time>2026-04-12T08:18:56Z</time></trkpt><trkpt lat="44.3343318032571" lon="11.678306492805172"><ele>63.99999999999999</ele><time>2026-04-12T08:18:57Z</time></trkpt><trkpt lat="44.33430312576717" lon="11.678215738126795"><ele>64.0</ele><time>2026-04-12T08:18:58Z</time></trkpt><trkpt lat="44.33427704307556" lon="11.678127108822768"><ele>64.0</ele><time>2026-04-12T08:18:59Z</time></trkpt><trkpt lat="44.334251119949336" lon="11.67802974008081"><ele>63.99999999999999</ele><time>2026-04-12T08:19:00Z</time></trkpt><trkpt lat="44.334225168458985" lon="11.677934388294535"><ele>64.0</ele><time>2026-04-12T08:19:01Z</time></trkpt><trkpt lat="44.33419471964084" lon="11.677839427053357"><ele>64.0</ele><time>2026-04-12T08:19:02Z</time></trkpt><trkpt lat="44.334166917959145" lon="11.677749211649077"><ele>64.71428571428571</ele><time>2026-04-12T08:19:03Z</time></trkpt><trkpt lat="44.33413934736136" lon="11.677655374711444"><ele>65.42857142857142</ele><time>2026-04-12T08:19:04Z</time></trkpt><trkpt lat="44.33411200506804" lon="11.677563523598788"><ele>66.14285714285714</ele><time>2026-04-12T08:19:05Z</time></trkpt><trkpt lat="44.334081791110314" lon="11.677470975723917"><ele>66.85714285714286</ele><time>2026-04-12T08:19:06Z</time></trkpt><trkpt lat="44.33405627652849" lon="11.677378396418945"><ele>67.57142857142858</ele><time>2026-04-12T08:19:07Z</time></trkpt><trkpt lat="44.33402839140202" lon="11.677281921325177"><ele>68.28571428571429</ele><time>2026-04-12T08:19:08Z</time></trkpt><trkpt lat="44.33400232432654" lon="11.677179871470807"><ele>69.0</ele><time>2026-04-12T08:19:09Z</time></trkpt><trkpt lat="44.333976761467326" lon="11.677092308199159"><ele>69.0</ele><time>2026-04-12T08:19:10Z</time></trkpt><trkpt lat="44.333948469354326" lon="11.67699316904198"><ele>69.0</ele><time>2026-04-12T08:19:11Z</time></trkpt><trkpt lat="44.33392084166413" lon="11.676893257162783"><ele>69.0</ele><time>2026-04-12T08:19:12Z</time></trkpt><trkpt lat="44.33389111096336" lon="11.676794888316309"><ele>69.0</ele><time>2026-04-12T08:19:13Z</time></trkpt><trkpt lat="44.33386147885443" lon="11.676696821579242"><ele>69.0</ele><time>2026-04-12T08:19:14Z</time></trkpt><trkpt lat="44.33383222912834" lon="11.676602431727385"><ele>69.0</ele><time>2026-04-12T08:19:15Z</time></trkpt><trkpt lat="44.33379853270569" lon="11.676507132589526"><ele>67.83333333333333</ele><time>2026-04-12T08:19:16Z</time></trkpt><trkpt lat="44.33376525939938" lon="11.676412918750769"><ele>66.66666666666667</ele><time>2026-04-12T08:19:17Z</time></trkpt><trkpt lat="44.333729416057565" lon="11.676321860240742"><ele>65.5</ele><time>2026-04-12T08:19:18Z</time></trkpt><trkpt lat="44.333688443479986" lon="11.676231076795153"><ele>64.33333333333334</ele><time>2026-04-12T08:19:19Z</time></trkpt><trkpt lat="44.333651913419956" lon="11.676141954293962"><ele>63.16666666666667</ele><time>2026-04-12T08:19:20Z</time></trkpt><trkpt lat="44.333608740285065" lon="11.676054384162347"><ele>62.0</ele><time>2026-04-12T08:19:21Z</time></trkpt><trkpt lat="44.3335636962144" lon="11.675969880284866"><ele>62.0</ele><time>2026-04-12T08:19:22Z</time></trkpt><trkpt lat="44.333522689575226" lon="11.675883059822231"><ele>62.00000000000001</ele><time>2026-04-12T08:19:23Z</time></trkpt><trkpt lat="44.33347989097971" lon="11.675796998287108"><ele>62.0</ele><time>2026-04-12T08:19:24Z</time></trkpt><trkpt lat="44.333434779665026" lon="11.67571530650156"><ele>62.0</ele><time>2026-04-12T08:19:25Z</time></trkpt><trkpt lat="44.333389329310634" lon="11.675635801891795"><ele>62.00000000000001</ele><time>2026-04-12T08:19:26Z</time></trkpt><trkpt lat="44.333339579666195" lon="11.67555847330394"><ele>62.0</ele><time>2026-04-12T08:19:27Z</time></trkpt><trkpt lat="44.33329077955106" lon="11.675478404978607"><ele>62.0</ele><time>2026-04-12T08:19:28Z</time></trkpt><trkpt lat="44.333242291485504" lon="11.675398933452371"><ele>62.00000000000001</ele><time>2026-04-12T08:19:29Z</time></trkpt><trkpt lat="44.33319179714717" lon="11.675319968770873"><ele>62.0</ele><time>2026-04-12T08:19:30Z</time></trkpt><trkpt lat="44.333140271724524" lon="11.6752420316029"><ele>62.0</ele><time>2026-04-12T08:19:31Z</time></trkpt><trkpt lat="44.33308875541506" lon="11.675164868286727"><ele>62.0</ele><time>2026-04-12T08:19:32Z</time></trkpt><trkpt lat="44.33303569570093" lon="11.675086610205517"><ele>62.00000000000001</ele><time>2026-04-12T08:19:33Z</time></trkpt><trkpt lat="44.33298202535427" lon="11.675011187137"><ele>62.0</ele><time>2026-04-12T08:19:34Z</time></trkpt><trkpt lat="44.3329311094626" lon="11.674931417656564"><ele>62.0</ele><time>2026-04-12T08:19:35Z</time></trkpt><trkpt lat="44.3328803596971" lon="11.674855301263554"><ele>62.00000000000001</ele><time>2026-04-12T08:19:36Z</time></trkpt><trkpt lat="44.33282889267403" lon="11.674778971199933"><ele>62.0</ele><time>2026-04-12T08:19:37Z</time></trkpt><trkpt lat="44.33277681694392" lon="11.67470525629471"><ele>62.0</ele><time>2026-04-12T08:19:38Z</time></trkpt><trkpt lat="44.33272512877786" lon="11.674626692414195"><ele>62.00000000000001</ele><time>2026-04-12T08:19:39Z</time></trkpt><trkpt lat="44.33267421972357" lon="11.674551827105633"><ele>62.0</ele><time>2026-04-12T08:19:40Z</time></trkpt><trkpt lat="44.33262356085106" lon="11.674478126012872"><ele>62.0</ele><time>2026-04-12T08:19:41Z</time></trkpt><trkpt lat="44.33257404575538" lon="11.674403495814131"><ele>62.57142857142858</ele><time>2026-04-12T08:19:42Z</time></trkpt><trkpt lat="44.332522779371025" lon="11.674327215248157"><ele>63.14285714285715</ele><time>2026-04-12T08:19:43Z</time></trkpt><trkpt lat="44.33247304416074" lon="11.674252991920747"><ele>63.714285714285715</ele><time>2026-04-12T08:19:44Z</time></trkpt><trkpt lat="44.33242471405361" lon="11.674177424666295"><ele>64.28571428571429</ele><time>2026-04-12T08:19:45Z</time></trkpt><trkpt lat="44.33237524172407" lon="11.67410303111625"><ele>64.85714285714286</ele><time>2026-04-12T08:19:46Z</time></trkpt><trkpt lat="44.332325171860234" lon="11.674027757887236"><ele>65.42857142857143</ele><time>2026-04-12T08:19:47Z</time></trkpt><trkpt lat="44.33227466569133" lon="11.673956410422916"><ele>66.0</ele><time>2026-04-12T08:19:48Z</time></trkpt><trkpt lat="44.33222444278457" lon="11.673886501053465"><ele>66.0</ele><time>2026-04-12T08:19:48.999Z</time></trkpt><trkpt lat="44.33217596008175" lon="11.673814269437756"><ele>66.0</ele><time>2026-04-12T08:19:49.999Z</time></trkpt><trkpt lat="44.33212770352328" lon="11.673744052935247"><ele>66.0</ele><time>2026-04-12T08:19:50.999Z</time></trkpt><trkpt lat="44.33207627958906" lon="11.67367511411459"><ele>66.0</ele><time>2026-04-12T08:19:51.999Z</time></trkpt><trkpt lat="44.332024776688726" lon="11.673603632640638"><ele>66.0</ele><time>2026-04-12T08:19:52.999Z</time></trkpt><trkpt lat="44.33197478664734" lon="11.673533994319307"><ele>66.0</ele><time>2026-04-12T08:19:53.999Z</time></trkpt><trkpt lat="44.33192162922516" lon="11.673465056437502"><ele>66.0</ele><time>2026-04-12T08:19:54.999Z</time></trkpt><trkpt lat="44.331872011820046" lon="11.673396172788784"><ele>66.0</ele><time>2026-04-12T08:19:55.999Z</time></trkpt><trkpt lat="44.33182224146476" lon="11.67332783030836"><ele>66.0</ele><time>2026-04-12T08:19:56.999Z</time></trkpt><trkpt lat="44.3317706953484" lon="11.673260874959887"><ele>66.0</ele><time>2026-04-12T08:19:57.999Z</time></trkpt><trkpt lat="44.33172011304084" lon="11.673191017207335"><ele>66.0</ele><time>2026-04-12T08:19:58.999Z</time></trkpt><trkpt lat="44.33166978980494" lon="11.673123057955385"><ele>66.0</ele><time>2026-04-12T08:19:59.999Z</time></trkpt><trkpt lat="44.33161788296083" lon="11.673055969028043"><ele>66.0</ele><time>2026-04-12T08:20:00.999Z</time></trkpt><trkpt lat="44.331569023012406" lon="11.672984057537212"><ele>66.0</ele><time>2026-04-12T08:20:01.999Z</time></trkpt><trkpt lat="44.33151804565519" lon="11.672918258654384"><ele>66.0</ele><time>2026-04-12T08:20:03Z</time></trkpt><trkpt lat="44.33146502513658" lon="11.672852108924596"><ele>66.0</ele><time>2026-04-12T08:20:04Z</time></trkpt><trkpt lat="44.3314140233095" lon="11.672781809877794"><ele>66.0</ele><time>2026-04-12T08:20:05Z</time></trkpt><trkpt lat="44.331360782630334" lon="11.672711689671337"><ele>66.0</ele><time>2026-04-12T08:20:06Z</time></trkpt><trkpt lat="44.3313095442916" lon="11.672642198987951"><ele>66.0</ele><time>2026-04-12T08:20:07Z</time></trkpt><trkpt lat="44.331259732774" lon="11.672574394508544"><ele>66.0</ele><time>2026-04-12T08:20:08Z</time></trkpt><trkpt lat="44.33121098269782" lon="11.672501899022544"><ele>66.0</ele><time>2026-04-12T08:20:09Z</time></trkpt><trkpt lat="44.33116327606315" lon="11.67242708236897"><ele>66.28571428571428</ele><time>2026-04-12T08:20:10Z</time></trkpt><trkpt lat="44.331114796496394" lon="11.672352133375297"><ele>66.57142857142857</ele><time>2026-04-12T08:20:11Z</time></trkpt><trkpt lat="44.33106733483447" lon="11.672275193696713"><ele>66.85714285714286</ele><time>2026-04-12T08:20:12Z</time></trkpt><trkpt lat="44.331021501519736" lon="11.672195451537029"><ele>67.14285714285714</ele><time>2026-04-12T08:20:13Z</time></trkpt><trkpt lat="44.330974267542544" lon="11.672113876342245"><ele>67.42857142857143</ele><time>2026-04-12T08:20:14Z</time></trkpt><trkpt lat="44.330927911368086" lon="11.67203505245749"><ele>67.71428571428571</ele><time>2026-04-12T08:20:15Z</time></trkpt><trkpt lat="44.33088356825184" lon="11.671954472948087"><ele>68.0</ele><time>2026-04-12T08:20:16Z</time></trkpt><trkpt lat="44.330840541115634" lon="11.67187050665147"><ele>67.99999999999999</ele><time>2026-04-12T08:20:17Z</time></trkpt><trkpt lat="44.330797702391045" lon="11.671788384940674"><ele>68.0</ele><time>2026-04-12T08:20:18Z</time></trkpt><trkpt lat="44.33075488945041" lon="11.671706120480279"><ele>68.0</ele><time>2026-04-12T08:20:19Z</time></trkpt><trkpt lat="44.3307102339437" lon="11.671623265061294"><ele>68.0</ele><time>2026-04-12T08:20:20Z</time></trkpt><trkpt lat="44.330666550075684" lon="11.671537657205699"><ele>68.0</ele><time>2026-04-12T08:20:21Z</time></trkpt><trkpt lat="44.33062117025724" lon="11.67145841605483"><ele>67.99999999999999</ele><time>2026-04-12T08:20:22Z</time></trkpt><trkpt lat="44.330581220495596" lon="11.671376879619782"><ele>68.0</ele><time>2026-04-12T08:20:23Z</time></trkpt><trkpt lat="44.330539538052385" lon="11.671297088524978"><ele>67.85714285714285</ele><time>2026-04-12T08:20:24Z</time></trkpt><trkpt lat="44.330498679884485" lon="11.67121170059006"><ele>67.71428571428571</ele><time>2026-04-12T08:20:25Z</time></trkpt><trkpt lat="44.3304600758126" lon="11.671127891489308"><ele>67.57142857142857</ele><time>2026-04-12T08:20:26Z</time></trkpt><trkpt lat="44.33042062137957" lon="11.671042786983618"><ele>67.42857142857142</ele><time>2026-04-12T08:20:27Z</time></trkpt><trkpt lat="44.33037903999059" lon="11.670958289725776"><ele>67.28571428571428</ele><time>2026-04-12T08:20:28Z</time></trkpt><trkpt lat="44.3303420239048" lon="11.670872336974794"><ele>67.14285714285714</ele><time>2026-04-12T08:20:29Z</time></trkpt><trkpt lat="44.33030632173703" lon="11.67078363039486"><ele>67.0</ele><time>2026-04-12T08:20:30Z</time></trkpt><trkpt lat="44.330268815114515" lon="11.670700071242381"><ele>67.28571428571429</ele><time>2026-04-12T08:20:31Z</time></trkpt><trkpt lat="44.33023341818868" lon="11.670614185099243"><ele>67.57142857142857</ele><time>2026-04-12T08:20:32Z</time></trkpt><trkpt lat="44.33019985148641" lon="11.670531769286846"><ele>67.85714285714286</ele><time>2026-04-12T08:20:33Z</time></trkpt><trkpt lat="44.330158358892476" lon="11.670449417265603"><ele>68.14285714285714</ele><time>2026-04-12T08:20:34Z</time></trkpt><trkpt lat="44.33012537729123" lon="11.670365043479626"><ele>68.42857142857143</ele><time>2026-04-12T08:20:35Z</time></trkpt><trkpt lat="44.330091451808364" lon="11.670276342952642"><ele>68.71428571428572</ele><time>2026-04-12T08:20:36Z</time></trkpt><trkpt lat="44.330057108988626" lon="11.670191139691598"><ele>69.0</ele><time>2026-04-12T08:20:37Z</time></trkpt><trkpt lat="44.33002388664294" lon="11.670106639176003"><ele>69.0</ele><time>2026-04-12T08:20:38Z</time></trkpt><trkpt lat="44.329988919614" lon="11.670019074881093"><ele>69.0</ele><time>2026-04-12T08:20:39Z</time></trkpt><trkpt lat="44.32995397020639" lon="11.669934439280375"><ele>69.0</ele><time>2026-04-12T08:20:40Z</time></trkpt><trkpt lat="44.32991952577906" lon="11.669850579942334"><ele>69.0</ele><time>2026-04-12T08:20:41Z</time></trkpt><trkpt lat="44.3298833089154" lon="11.669766375574177"><ele>69.0</ele><time>2026-04-12T08:20:42Z</time></trkpt><trkpt lat="44.329850877318975" lon="11.669680461360759"><ele>69.0</ele><time>2026-04-12T08:20:43Z</time></trkpt><trkpt lat="44.32981427778223" lon="11.669600040980681"><ele>69.0</ele><time>2026-04-12T08:20:44Z</time></trkpt><trkpt lat="44.3297802281266" lon="11.669510401166871"><ele>69.0</ele><time>2026-04-12T08:20:45Z</time></trkpt><trkpt lat="44.32974744767228" lon="11.669428134820059"><ele>69.0</ele><time>2026-04-12T08:20:46Z</time></trkpt><trkpt lat="44.32971355571513" lon="11.669340964646628"><ele>69.0</ele><time>2026-04-12T08:20:47Z</time></trkpt><trkpt lat="44.32967814003707" lon="11.669255551601992"><ele>69.0</ele><time>2026-04-12T08:20:48Z</time></trkpt><trkpt lat="44.329641491379974" lon="11.669165137243747"><ele>69.0</ele><time>2026-04-12T08:20:49Z</time></trkpt><trkpt lat="44.32960635063681" lon="11.669079686714465"><ele>69.0</ele><time>2026-04-12T08:20:50Z</time></trkpt><trkpt lat="44.32957418437902" lon="11.668992884138921"><ele>69.0</ele><time>2026-04-12T08:20:51Z</time></trkpt><trkpt lat="44.32953727217671" lon="11.66890375513543"><ele>69.0</ele><time>2026-04-12T08:20:52Z</time></trkpt><trkpt lat="44.32950135819427" lon="11.668815717001893"><ele>69.0</ele><time>2026-04-12T08:20:53Z</time></trkpt><trkpt lat="44.329467984382156" lon="11.668735103081827"><ele>69.0</ele><time>2026-04-12T08:20:54Z</time></trkpt><trkpt lat="44.329397896890505" lon="11.668555210617752"><ele>69.0</ele><time>2026-04-12T08:20:56Z</time></trkpt><trkpt lat="44.32935829258441" lon="11.668467867989627"><ele>69.0</ele><time>2026-04-12T08:20:57Z</time></trkpt><trkpt lat="44.32932551719341" lon="11.668377581366482"><ele>69.0</ele><time>2026-04-12T08:20:58Z</time></trkpt><trkpt lat="44.329292816750566" lon="11.668293218452838"><ele>69.0</ele><time>2026-04-12T08:20:59Z</time></trkpt><trkpt lat="44.32925841513696" lon="11.668201386028672"><ele>69.0</ele><time>2026-04-12T08:21:00Z</time></trkpt><trkpt lat="44.32921661173017" lon="11.668110589703966"><ele>69.0</ele><time>2026-04-12T08:21:01Z</time></trkpt><trkpt lat="44.32918103607317" lon="11.668026225396169"><ele>69.0</ele><time>2026-04-12T08:21:02Z</time></trkpt><trkpt lat="44.32914832439892" lon="11.667937671978693"><ele>69.0</ele><time>2026-04-12T08:21:03Z</time></trkpt><trkpt lat="44.329113290579194" lon="11.667848185466083"><ele>69.0</ele><time>2026-04-12T08:21:04Z</time></trkpt><trkpt lat="44.32906978372218" lon="11.667754460209135"><ele>69.0</ele><time>2026-04-12T08:21:05Z</time></trkpt><trkpt lat="44.329034794568315" lon="11.667661198626577"><ele>69.33333333333333</ele><time>2026-04-12T08:21:06Z</time></trkpt><trkpt lat="44.329000895265004" lon="11.667570721178574"><ele>69.66666666666667</ele><time>2026-04-12T08:21:07Z</time></trkpt><trkpt lat="44.328951229258045" lon="11.667481228638707"><ele>70.0</ele><time>2026-04-12T08:21:08Z</time></trkpt><trkpt lat="44.32891677966457" lon="11.667389682348968"><ele>70.33333333333334</ele><time>2026-04-12T08:21:09Z</time></trkpt><trkpt lat="44.32888504048267" lon="11.667297486262912"><ele>70.66666666666667</ele><time>2026-04-12T08:21:10Z</time></trkpt><trkpt lat="44.32884571578337" lon="11.667204944684189"><ele>71.0</ele><time>2026-04-12T08:21:11Z</time></trkpt><trkpt lat="44.328803775835006" lon="11.667110691661883"><ele>70.71428571428571</ele><time>2026-04-12T08:21:12Z</time></trkpt><trkpt lat="44.3287612917853" lon="11.667027295008102"><ele>70.42857142857142</ele><time>2026-04-12T08:21:13Z</time></trkpt><trkpt lat="44.328714318959165" lon="11.66694817122336"><ele>70.14285714285714</ele><time>2026-04-12T08:21:14Z</time></trkpt><trkpt lat="44.32866425439551" lon="11.666868583597822"><ele>69.85714285714286</ele><time>2026-04-12T08:21:15Z</time></trkpt><trkpt lat="44.328616569819474" lon="11.666788629806963"><ele>69.57142857142858</ele><time>2026-04-12T08:21:16Z</time></trkpt><trkpt lat="44.32856890375009" lon="11.666713373132499"><ele>69.28571428571429</ele><time>2026-04-12T08:21:17Z</time></trkpt><trkpt lat="44.32851963372863" lon="11.666638639159757"><ele>69.0</ele><time>2026-04-12T08:21:18Z</time></trkpt><trkpt lat="44.32846802035258" lon="11.666565809123112"><ele>69.0</ele><time>2026-04-12T08:21:19Z</time></trkpt><trkpt lat="44.32841594217788" lon="11.666490670441352"><ele>69.0</ele><time>2026-04-12T08:21:20Z</time></trkpt><trkpt lat="44.328363411881774" lon="11.666410701721183"><ele>69.0</ele><time>2026-04-12T08:21:21Z</time></trkpt><trkpt lat="44.328310879065" lon="11.6663392609219"><ele>69.0</ele><time>2026-04-12T08:21:22Z</time></trkpt><trkpt lat="44.3282557780705" lon="11.666264833234491"><ele>69.0</ele><time>2026-04-12T08:21:23Z</time></trkpt><trkpt lat="44.328204705147755" lon="11.666190349224102"><ele>69.0</ele><time>2026-04-12T08:21:24Z</time></trkpt><trkpt lat="44.328154463884914" lon="11.666118024498134"><ele>69.0</ele><time>2026-04-12T08:21:25Z</time></trkpt><trkpt lat="44.328104631642674" lon="11.666040802966876"><ele>69.14285714285714</ele><time>2026-04-12T08:21:26Z</time></trkpt><trkpt lat="44.3280544502141" lon="11.665960835719005"><ele>69.28571428571429</ele><time>2026-04-12T08:21:27Z</time></trkpt><trkpt lat="44.328005094452166" lon="11.66588273399662"><ele>69.42857142857143</ele><time>2026-04-12T08:21:28Z</time></trkpt><trkpt lat="44.32795703528213" lon="11.665809006132426"><ele>69.57142857142857</ele><time>2026-04-12T08:21:29Z</time></trkpt><trkpt lat="44.32790636620765" lon="11.665730616347265"><ele>69.71428571428572</ele><time>2026-04-12T08:21:30Z</time></trkpt><trkpt lat="44.32786094120416" lon="11.66565566390064"><ele>69.85714285714286</ele><time>2026-04-12T08:21:31Z</time></trkpt><trkpt lat="44.32781332980283" lon="11.665582999103915"><ele>70.0</ele><time>2026-04-12T08:21:32Z</time></trkpt><trkpt lat="44.32777262564464" lon="11.66550908146878"><ele>70.0</ele><time>2026-04-12T08:21:33Z</time></trkpt><trkpt lat="44.3277323253933" lon="11.66542581449482"><ele>70.0</ele><time>2026-04-12T08:21:34Z</time></trkpt><trkpt lat="44.32769121274471" lon="11.66534450469177"><ele>70.0</ele><time>2026-04-12T08:21:35Z</time></trkpt><trkpt lat="44.327650360172875" lon="11.665264757786922"><ele>70.0</ele><time>2026-04-12T08:21:36Z</time></trkpt><trkpt lat="44.32761301537766" lon="11.665182530557516"><ele>70.0</ele><time>2026-04-12T08:21:37Z</time></trkpt><trkpt lat="44.327575303839744" lon="11.665099205028389"><ele>70.0</ele><time>2026-04-12T08:21:38Z</time></trkpt><trkpt lat="44.32753690563376" lon="11.665014500532505"><ele>70.0</ele><time>2026-04-12T08:21:39Z</time></trkpt><trkpt lat="44.327497816590345" lon="11.664929226286505"><ele>69.85714285714286</ele><time>2026-04-12T08:21:40Z</time></trkpt><trkpt lat="44.32746214610512" lon="11.664840115839798"><ele>69.71428571428572</ele><time>2026-04-12T08:21:41Z</time></trkpt><trkpt lat="44.327422313763236" lon="11.664752922098277"><ele>69.57142857142857</ele><time>2026-04-12T08:21:41.999Z</time></trkpt><trkpt lat="44.32738438981283" lon="11.664668118517275"><ele>69.42857142857143</ele><time>2026-04-12T08:21:42.999Z</time></trkpt><trkpt lat="44.327339211297215" lon="11.664582170449865"><ele>69.28571428571429</ele><time>2026-04-12T08:21:43.999Z</time></trkpt><trkpt lat="44.32729677811872" lon="11.664492640853593"><ele>69.14285714285714</ele><time>2026-04-12T08:21:44.999Z</time></trkpt><trkpt lat="44.327260032111276" lon="11.664404222640187"><ele>69.0</ele><time>2026-04-12T08:21:45.999Z</time></trkpt><trkpt lat="44.32722067353681" lon="11.664315359457621"><ele>69.0</ele><time>2026-04-12T08:21:46.999Z</time></trkpt><trkpt lat="44.32718194041683" lon="11.66422694722822"><ele>69.0</ele><time>2026-04-12T08:21:47.999Z</time></trkpt><trkpt lat="44.327143094253884" lon="11.664138774208428"><ele>69.0</ele><time>2026-04-12T08:21:48.999Z</time></trkpt><trkpt lat="44.32710166541839" lon="11.664051233985173"><ele>69.0</ele><time>2026-04-12T08:21:49.999Z</time></trkpt><trkpt lat="44.32706271387058" lon="11.663961741301911"><ele>69.0</ele><time>2026-04-12T08:21:50.999Z</time></trkpt><trkpt lat="44.327021390104086" lon="11.663874191667146"><ele>69.0</ele><time>2026-04-12T08:21:51.999Z</time></trkpt><trkpt lat="44.32698130872943" lon="11.663786960354546"><ele>69.0</ele><time>2026-04-12T08:21:52.999Z</time></trkpt><trkpt lat="44.32693821419081" lon="11.663699969553544"><ele>69.42857142857143</ele><time>2026-04-12T08:21:53.999Z</time></trkpt><trkpt lat="44.326896563407935" lon="11.663609131522588"><ele>69.85714285714286</ele><time>2026-04-12T08:21:54.999Z</time></trkpt><trkpt lat="44.32685284480909" lon="11.663525250786039"><ele>70.28571428571429</ele><time>2026-04-12T08:21:55.999Z</time></trkpt><trkpt lat="44.326813591642775" lon="11.663432782942714"><ele>70.71428571428572</ele><time>2026-04-12T08:21:56.999Z</time></trkpt><trkpt lat="44.32677853423969" lon="11.663342577192262"><ele>71.14285714285714</ele><time>2026-04-12T08:21:57.999Z</time></trkpt><trkpt lat="44.3267398333939" lon="11.663254180016798"><ele>71.57142857142858</ele><time>2026-04-12T08:21:58.999Z</time></trkpt><trkpt lat="44.32670099108368" lon="11.663170365467924"><ele>72.0</ele><time>2026-04-12T08:21:59.999Z</time></trkpt><trkpt lat="44.32666253322816" lon="11.66308326922645"><ele>72.00000000000001</ele><time>2026-04-12T08:22:00.999Z</time></trkpt><trkpt lat="44.32662613001296" lon="11.662998379777967"><ele>72.0</ele><time>2026-04-12T08:22:01.999Z</time></trkpt><trkpt lat="44.32658192774564" lon="11.662915249334446"><ele>72.0</ele><time>2026-04-12T08:22:02.999Z</time></trkpt><trkpt lat="44.326538464094085" lon="11.66283863260826"><ele>72.0</ele><time>2026-04-12T08:22:03.999Z</time></trkpt><trkpt lat="44.32648787596604" lon="11.66276577453997"><ele>72.0</ele><time>2026-04-12T08:22:04.999Z</time></trkpt><trkpt lat="44.3264332601012" lon="11.662692640339667"><ele>72.00000000000001</ele><time>2026-04-12T08:22:05.999Z</time></trkpt><trkpt lat="44.32637710187477" lon="11.662622685464429"><ele>72.0</ele><time>2026-04-12T08:22:06.999Z</time></trkpt><trkpt lat="44.32632213999789" lon="11.662556284071776"><ele>72.00000000000001</ele><time>2026-04-12T08:22:07.999Z</time></trkpt><trkpt lat="44.32626734824952" lon="11.662489589120916"><ele>72.0</ele><time>2026-04-12T08:22:09Z</time></trkpt><trkpt lat="44.32621343298729" lon="11.662424979383703"><ele>72.0</ele><time>2026-04-12T08:22:10Z</time></trkpt><trkpt lat="44.326158839745624" lon="11.662359659640076"><ele>72.0</ele><time>2026-04-12T08:22:11Z</time></trkpt><trkpt lat="44.32610536226155" lon="11.662294738316097"><ele>72.0</ele><time>2026-04-12T08:22:12Z</time></trkpt><trkpt lat="44.326051252187156" lon="11.662227695066576"><ele>72.00000000000001</ele><time>2026-04-12T08:22:13Z</time></trkpt><trkpt lat="44.3259926636118" lon="11.662162549987068"><ele>72.0</ele><time>2026-04-12T08:22:14Z</time></trkpt><trkpt lat="44.32593798215193" lon="11.662091483056795"><ele>72.00000000000001</ele><time>2026-04-12T08:22:15Z</time></trkpt><trkpt lat="44.32588675457349" lon="11.662026589118007"><ele>72.0</ele><time>2026-04-12T08:22:16Z</time></trkpt><trkpt lat="44.32582593664868" lon="11.661962287275697"><ele>72.0</ele><time>2026-04-12T08:22:17Z</time></trkpt><trkpt lat="44.325771367934244" lon="11.661899328982901"><ele>72.0</ele><time>2026-04-12T08:22:18Z</time></trkpt><trkpt lat="44.325711075780745" lon="11.66182865499614"><ele>72.0</ele><time>2026-04-12T08:22:19Z</time></trkpt><trkpt lat="44.32565413560957" lon="11.661759261675712"><ele>72.00000000000001</ele><time>2026-04-12T08:22:20Z</time></trkpt><trkpt lat="44.32559540456605" lon="11.661689479606412"><ele>72.0</ele><time>2026-04-12T08:22:21Z</time></trkpt><trkpt lat="44.32554065289562" lon="11.661612390526379"><ele>71.83333333333333</ele><time>2026-04-12T08:22:22Z</time></trkpt><trkpt lat="44.32548254618988" lon="11.661532464546845"><ele>71.66666666666667</ele><time>2026-04-12T08:22:23Z</time></trkpt><trkpt lat="44.325429077554446" lon="11.66146228603051"><ele>71.5</ele><time>2026-04-12T08:22:24Z</time></trkpt><trkpt lat="44.32537918549726" lon="11.661377636363262"><ele>71.33333333333334</ele><time>2026-04-12T08:22:25Z</time></trkpt><trkpt lat="44.32533314680473" lon="11.661299253984758"><ele>71.16666666666667</ele><time>2026-04-12T08:22:26Z</time></trkpt><trkpt lat="44.32528592715507" lon="11.661212160700062"><ele>71.0</ele><time>2026-04-12T08:22:27Z</time></trkpt><trkpt lat="44.32524252343019" lon="11.661128323756904"><ele>71.14285714285714</ele><time>2026-04-12T08:22:28Z</time></trkpt><trkpt lat="44.325201825270405" lon="11.661037074749514"><ele>71.28571428571428</ele><time>2026-04-12T08:22:29Z</time></trkpt><trkpt lat="44.325164442553394" lon="11.660949778389682"><ele>71.42857142857143</ele><time>2026-04-12T08:22:30Z</time></trkpt><trkpt lat="44.32513332439809" lon="11.660859823107636"><ele>71.57142857142857</ele><time>2026-04-12T08:22:31Z</time></trkpt><trkpt lat="44.32510186098239" lon="11.660767536415873"><ele>71.71428571428572</ele><time>2026-04-12T08:22:32Z</time></trkpt><trkpt lat="44.32507028361271" lon="11.66067498462308"><ele>71.85714285714286</ele><time>2026-04-12T08:22:33Z</time></trkpt><trkpt lat="44.32504185118016" lon="11.660584305986388"><ele>72.0</ele><time>2026-04-12T08:22:34Z</time></trkpt><trkpt lat="44.32501104277321" lon="11.660487081836543"><ele>72.0</ele><time>2026-04-12T08:22:35Z</time></trkpt><trkpt lat="44.32498333850096" lon="11.660391080803493"><ele>72.0</ele><time>2026-04-12T08:22:36Z</time></trkpt><trkpt lat="44.32495477845483" lon="11.660293720520755"><ele>72.0</ele><time>2026-04-12T08:22:37Z</time></trkpt><trkpt lat="44.32493008434532" lon="11.660208130169115"><ele>72.0</ele><time>2026-04-12T08:22:38Z</time></trkpt><trkpt lat="44.324898376859544" lon="11.660116367313224"><ele>72.0</ele><time>2026-04-12T08:22:39Z</time></trkpt><trkpt lat="44.32484732183867" lon="11.659944842461144"><ele>72.0</ele><time>2026-04-12T08:22:41Z</time></trkpt><trkpt lat="44.32482106387075" lon="11.659850166014431"><ele>72.66666666666667</ele><time>2026-04-12T08:22:42Z</time></trkpt><trkpt lat="44.3247927108808" lon="11.659757881506643"><ele>73.33333333333333</ele><time>2026-04-12T08:22:43Z</time></trkpt><trkpt lat="44.324765989978545" lon="11.659665285089735"><ele>74.0</ele><time>2026-04-12T08:22:44Z</time></trkpt><trkpt lat="44.32474081600555" lon="11.659581077468486"><ele>74.66666666666666</ele><time>2026-04-12T08:22:45Z</time></trkpt><trkpt lat="44.32470222901371" lon="11.659419214762135"><ele>75.33333333333333</ele><time>2026-04-12T08:22:47Z</time></trkpt><trkpt lat="44.32468278795588" lon="11.659333047327202"><ele>76.0</ele><time>2026-04-12T08:22:48Z</time></trkpt><trkpt lat="44.32465772277256" lon="11.659245990923822"><ele>76.0</ele><time>2026-04-12T08:22:49Z</time></trkpt><trkpt lat="44.32463448837014" lon="11.659159232111529"><ele>76.0</ele><time>2026-04-12T08:22:50Z</time></trkpt><trkpt lat="44.324583532465205" lon="11.658997412419339"><ele>76.0</ele><time>2026-04-12T08:22:52Z</time></trkpt><trkpt lat="44.32455747816229" lon="11.658913150045972"><ele>76.0</ele><time>2026-04-12T08:22:53Z</time></trkpt><trkpt lat="44.32453125978715" lon="11.658832182842511"><ele>76.0</ele><time>2026-04-12T08:22:54Z</time></trkpt><trkpt lat="44.324503554624854" lon="11.658745577917667"><ele>76.0</ele><time>2026-04-12T08:22:55Z</time></trkpt><trkpt lat="44.32447781605382" lon="11.658660214563515"><ele>76.14285714285714</ele><time>2026-04-12T08:22:56Z</time></trkpt><trkpt lat="44.324452152500264" lon="11.658572872394268"><ele>76.28571428571429</ele><time>2026-04-12T08:22:57Z</time></trkpt><trkpt lat="44.32442334486408" lon="11.658480763948186"><ele>76.42857142857143</ele><time>2026-04-12T08:22:58Z</time></trkpt><trkpt lat="44.32439172005479" lon="11.658389220946521"><ele>76.57142857142857</ele><time>2026-04-12T08:22:59Z</time></trkpt><trkpt lat="44.32436257640497" lon="11.658297943464198"><ele>76.71428571428572</ele><time>2026-04-12T08:23:00Z</time></trkpt><trkpt lat="44.324335848588355" lon="11.65820775167999"><ele>76.85714285714286</ele><time>2026-04-12T08:23:01Z</time></trkpt><trkpt lat="44.32430143594506" lon="11.658117035620215"><ele>77.0</ele><time>2026-04-12T08:23:02Z</time></trkpt><trkpt lat="44.324263797595655" lon="11.658029483118383"><ele>77.0</ele><time>2026-04-12T08:23:03Z</time></trkpt><trkpt lat="44.32422213580207" lon="11.657946255856737"><ele>77.0</ele><time>2026-04-12T08:23:04Z</time></trkpt><trkpt lat="44.32417813894396" lon="11.6578602883132"><ele>77.0</ele><time>2026-04-12T08:23:05Z</time></trkpt><trkpt lat="44.32413746999728" lon="11.657781999648131"><ele>77.0</ele><time>2026-04-12T08:23:06Z</time></trkpt><trkpt lat="44.32409317613661" lon="11.657702583802454"><ele>77.0</ele><time>2026-04-12T08:23:07Z</time></trkpt><trkpt lat="44.32405090721402" lon="11.657621761674706"><ele>77.0</ele><time>2026-04-12T08:23:08Z</time></trkpt><trkpt lat="44.324008500632075" lon="11.657538879042711"><ele>77.0</ele><time>2026-04-12T08:23:09Z</time></trkpt><trkpt lat="44.32395943503141" lon="11.657456347803825"><ele>77.0</ele><time>2026-04-12T08:23:10Z</time></trkpt><trkpt lat="44.32392190811932" lon="11.657377953901628"><ele>77.0</ele><time>2026-04-12T08:23:11Z</time></trkpt><trkpt lat="44.323880576653764" lon="11.657294049446032"><ele>77.0</ele><time>2026-04-12T08:23:12Z</time></trkpt><trkpt lat="44.323837599661225" lon="11.65721615313319"><ele>77.0</ele><time>2026-04-12T08:23:13Z</time></trkpt><trkpt lat="44.323801380543514" lon="11.65713417133197"><ele>77.0</ele><time>2026-04-12T08:23:14Z</time></trkpt><trkpt lat="44.32376266295076" lon="11.657057690973977"><ele>77.0</ele><time>2026-04-12T08:23:15Z</time></trkpt><trkpt lat="44.323725441404605" lon="11.6569841657999"><ele>77.0</ele><time>2026-04-12T08:23:16Z</time></trkpt><trkpt lat="44.32365758149091" lon="11.656850119490336"><ele>76.25</ele><time>2026-04-12T08:23:18Z</time></trkpt><trkpt lat="44.32359037454765" lon="11.656717363026303"><ele>75.5</ele><time>2026-04-12T08:23:20Z</time></trkpt><trkpt lat="44.32352846240897" lon="11.65659624414316"><ele>74.75</ele><time>2026-04-12T08:23:22Z</time></trkpt><trkpt lat="44.32347839498336" lon="11.656498646115617"><ele>74.0</ele><time>2026-04-12T08:23:24Z</time></trkpt><trkpt lat="44.32313967680569" lon="11.656466093599736"><ele>74.0</ele><time>2026-04-12T08:23:30.999Z</time></trkpt><trkpt lat="44.32311920478671" lon="11.656634491868155"><ele>74.0</ele><time>2026-04-12T08:27:16Z</time></trkpt><trkpt lat="44.32322269863255" lon="11.656626802870358"><ele>74.0</ele><time>2026-04-12T08:30:37.001Z</time></trkpt><trkpt lat="44.323210836327654" lon="11.656524564001248"><ele>74.0</ele><time>2026-04-12T08:30:43Z</time></trkpt><trkpt lat="44.32325693515849" lon="11.656427603763932"><ele>74.0</ele><time>2026-04-12T08:30:46Z</time></trkpt><trkpt lat="44.32327983989509" lon="11.656339275736098"><ele>74.0</ele><time>2026-04-12T08:30:48Z</time></trkpt><trkpt lat="44.32328041194597" lon="11.656244263891526"><ele>74.0</ele><time>2026-04-12T08:30:50Z</time></trkpt><trkpt lat="44.323263696475074" lon="11.656146310785678"><ele>74.0</ele><time>2026-04-12T08:30:52Z</time></trkpt><trkpt lat="44.32326386171562" lon="11.656034788447473"><ele>74.0</ele><time>2026-04-12T08:30:54Z</time></trkpt><trkpt lat="44.323218524740525" lon="11.65592494063494"><ele>74.0</ele><time>2026-04-12T08:30:56Z</time></trkpt><trkpt lat="44.32317175385271" lon="11.655794041594799"><ele>74.0</ele><time>2026-04-12T08:30:58Z</time></trkpt><trkpt lat="44.323104781151685" lon="11.65567769115955"><ele>74.4</ele><time>2026-04-12T08:31:00Z</time></trkpt><trkpt lat="44.32304742888376" lon="11.655557802679176"><ele>74.80000000000001</ele><time>2026-04-12T08:31:02Z</time></trkpt><trkpt lat="44.32299515184322" lon="11.655432241439515"><ele>75.19999999999999</ele><time>2026-04-12T08:31:04Z</time></trkpt><trkpt lat="44.32292709890259" lon="11.65530611451737"><ele>75.6</ele><time>2026-04-12T08:31:06Z</time></trkpt><trkpt lat="44.32285935046122" lon="11.655177915823518"><ele>76.0</ele><time>2026-04-12T08:31:08Z</time></trkpt><trkpt lat="44.322792937937095" lon="11.655047900123515"><ele>76.5</ele><time>2026-04-12T08:31:10Z</time></trkpt><trkpt lat="44.32272071886083" lon="11.65492589231086"><ele>77.0</ele><time>2026-04-12T08:31:12Z</time></trkpt><trkpt lat="44.32263617754388" lon="11.65480725448594"><ele>77.5</ele><time>2026-04-12T08:31:14Z</time></trkpt><trkpt lat="44.322548846574236" lon="11.654684974536792"><ele>78.0</ele><time>2026-04-12T08:31:16Z</time></trkpt><trkpt lat="44.32246761305412" lon="11.654559213435608"><ele>78.2</ele><time>2026-04-12T08:31:18Z</time></trkpt><trkpt lat="44.322377139870675" lon="11.654435420475773"><ele>78.4</ele><time>2026-04-12T08:31:20Z</time></trkpt><trkpt lat="44.32228649002183" lon="11.6543147882235"><ele>78.60000000000001</ele><time>2026-04-12T08:31:22Z</time></trkpt><trkpt lat="44.32223927341814" lon="11.654253517361857"><ele>78.8</ele><time>2026-04-12T08:31:23Z</time></trkpt><trkpt lat="44.322139867958704" lon="11.654145644453868"><ele>79.0</ele><time>2026-04-12T08:31:25Z</time></trkpt><trkpt lat="44.32203710621879" lon="11.654036177317439"><ele>79.00000000000001</ele><time>2026-04-12T08:31:27Z</time></trkpt><trkpt lat="44.321983161706875" lon="11.653981555191592"><ele>79.0</ele><time>2026-04-12T08:31:28Z</time></trkpt><trkpt lat="44.321929871685775" lon="11.653928916799899"><ele>79.0</ele><time>2026-04-12T08:31:29Z</time></trkpt><trkpt lat="44.32187395930211" lon="11.653877374520635"><ele>79.0</ele><time>2026-04-12T08:31:30Z</time></trkpt><trkpt lat="44.32181945280328" lon="11.653824930954165"><ele>79.0</ele><time>2026-04-12T08:31:31Z</time></trkpt><trkpt lat="44.32176822499676" lon="11.653765037382207"><ele>79.00000000000001</ele><time>2026-04-12T08:31:32Z</time></trkpt><trkpt lat="44.3217116496509" lon="11.653718474609706"><ele>79.0</ele><time>2026-04-12T08:31:33Z</time></trkpt><trkpt lat="44.321655101436995" lon="11.653667423316591"><ele>79.16666666666666</ele><time>2026-04-12T08:31:34Z</time></trkpt><trkpt lat="44.32159746986225" lon="11.653617599264662"><ele>79.33333333333333</ele><time>2026-04-12T08:31:35Z</time></trkpt><trkpt lat="44.32148546154114" lon="11.653510881753345"><ele>79.5</ele><time>2026-04-12T08:31:37Z</time></trkpt><trkpt lat="44.32142903546993" lon="11.653453140889612"><ele>79.66666666666667</ele><time>2026-04-12T08:31:38Z</time></trkpt><trkpt lat="44.32137018831159" lon="11.653404978424472"><ele>79.83333333333334</ele><time>2026-04-12T08:31:39Z</time></trkpt><trkpt lat="44.321312261497035" lon="11.653347563028461"><ele>80.0</ele><time>2026-04-12T08:31:40Z</time></trkpt><trkpt lat="44.321260002389536" lon="11.653291879894988"><ele>80.0</ele><time>2026-04-12T08:31:41Z</time></trkpt><trkpt lat="44.32120433181167" lon="11.653237225779055"><ele>80.0</ele><time>2026-04-12T08:31:42Z</time></trkpt><trkpt lat="44.32114660678688" lon="11.65318491816852"><ele>80.0</ele><time>2026-04-12T08:31:43Z</time></trkpt><trkpt lat="44.32108505721079" lon="11.653132337138041"><ele>80.0</ele><time>2026-04-12T08:31:44Z</time></trkpt><trkpt lat="44.3210259378373" lon="11.653077150479284"><ele>80.0</ele><time>2026-04-12T08:31:45Z</time></trkpt><trkpt lat="44.320966745787594" lon="11.653024817923578"><ele>80.0</ele><time>2026-04-12T08:31:46Z</time></trkpt><trkpt lat="44.320904837214464" lon="11.652979934129307"><ele>80.0</ele><time>2026-04-12T08:31:47Z</time></trkpt><trkpt lat="44.32084305905786" lon="11.652931509499254"><ele>80.0</ele><time>2026-04-12T08:31:48Z</time></trkpt><trkpt lat="44.32077790089983" lon="11.652872584416484"><ele>80.0</ele><time>2026-04-12T08:31:49Z</time></trkpt><trkpt lat="44.32071750341426" lon="11.652821196247634"><ele>80.0</ele><time>2026-04-12T08:31:50Z</time></trkpt><trkpt lat="44.320652504440666" lon="11.652771537700884"><ele>80.0</ele><time>2026-04-12T08:31:50.999Z</time></trkpt><trkpt lat="44.32058776023565" lon="11.652723287253194"><ele>80.0</ele><time>2026-04-12T08:31:51.999Z</time></trkpt><trkpt lat="44.32052276334415" lon="11.65267475313613"><ele>80.0</ele><time>2026-04-12T08:31:52.999Z</time></trkpt><trkpt lat="44.32045634864589" lon="11.652624103038981"><ele>80.0</ele><time>2026-04-12T08:31:53.999Z</time></trkpt><trkpt lat="44.32039132682626" lon="11.652572960737794"><ele>80.0</ele><time>2026-04-12T08:31:54.999Z</time></trkpt><trkpt lat="44.32032480006579" lon="11.65252512531753"><ele>80.0</ele><time>2026-04-12T08:31:55.999Z</time></trkpt><trkpt lat="44.32025755326892" lon="11.652478168804668"><ele>80.0</ele><time>2026-04-12T08:31:56.999Z</time></trkpt><trkpt lat="44.32019227599028" lon="11.652431060554497"><ele>80.0</ele><time>2026-04-12T08:31:57.999Z</time></trkpt><trkpt lat="44.320126693097656" lon="11.652383617566551"><ele>80.0</ele><time>2026-04-12T08:31:58.999Z</time></trkpt><trkpt lat="44.320061875357965" lon="11.652337376329724"><ele>80.0</ele><time>2026-04-12T08:31:59.999Z</time></trkpt><trkpt lat="44.319996603719204" lon="11.652290270144503"><ele>80.0</ele><time>2026-04-12T08:32:00.999Z</time></trkpt><trkpt lat="44.3199315794622" lon="11.652243354159445"><ele>80.0</ele><time>2026-04-12T08:32:01.999Z</time></trkpt><trkpt lat="44.31986741230228" lon="11.65219764987409"><ele>80.0</ele><time>2026-04-12T08:32:02.999Z</time></trkpt><trkpt lat="44.31980150164946" lon="11.65214857141378"><ele>80.0</ele><time>2026-04-12T08:32:03.999Z</time></trkpt><trkpt lat="44.319739920568615" lon="11.652095432746842"><ele>80.0</ele><time>2026-04-12T08:32:04.999Z</time></trkpt><trkpt lat="44.31967708475293" lon="11.652045047322794"><ele>80.0</ele><time>2026-04-12T08:32:05.999Z</time></trkpt><trkpt lat="44.31961254663503" lon="11.651995635828145"><ele>80.0</ele><time>2026-04-12T08:32:06.999Z</time></trkpt><trkpt lat="44.31955132476371" lon="11.65194547857172"><ele>80.0</ele><time>2026-04-12T08:32:07.999Z</time></trkpt><trkpt lat="44.31949460038241" lon="11.651892523845204"><ele>79.71428571428571</ele><time>2026-04-12T08:32:08.999Z</time></trkpt><trkpt lat="44.31942732566748" lon="11.651844693880031"><ele>79.42857142857143</ele><time>2026-04-12T08:32:09.999Z</time></trkpt><trkpt lat="44.319362006446134" lon="11.651794022487755"><ele>79.14285714285714</ele><time>2026-04-12T08:32:10.999Z</time></trkpt><trkpt lat="44.319295052167085" lon="11.651753602807819"><ele>78.85714285714286</ele><time>2026-04-12T08:32:11.999Z</time></trkpt><trkpt lat="44.319233601338055" lon="11.651705126363542"><ele>78.57142857142857</ele><time>2026-04-12T08:32:12.999Z</time></trkpt><trkpt lat="44.319168684933494" lon="11.651653938045982"><ele>78.28571428571429</ele><time>2026-04-12T08:32:13.999Z</time></trkpt><trkpt lat="44.319103477233234" lon="11.651600434952577"><ele>78.0</ele><time>2026-04-12T08:32:14.999Z</time></trkpt><trkpt lat="44.319037098184616" lon="11.651547440171955"><ele>78.0</ele><time>2026-04-12T08:32:15.999Z</time></trkpt><trkpt lat="44.318973037567254" lon="11.651498082360826"><ele>78.0</ele><time>2026-04-12T08:32:16.999Z</time></trkpt><trkpt lat="44.318903855857485" lon="11.651451595564655"><ele>78.0</ele><time>2026-04-12T08:32:17.999Z</time></trkpt><trkpt lat="44.3188333490228" lon="11.651400307719511"><ele>78.0</ele><time>2026-04-12T08:32:18.999Z</time></trkpt><trkpt lat="44.31876568546147" lon="11.651350695110658"><ele>78.0</ele><time>2026-04-12T08:32:19.999Z</time></trkpt><trkpt lat="44.31869556867246" lon="11.65129849925132"><ele>78.0</ele><time>2026-04-12T08:32:20.999Z</time></trkpt><trkpt lat="44.31862199242541" lon="11.651246883190334"><ele>77.5</ele><time>2026-04-12T08:32:21.999Z</time></trkpt><trkpt lat="44.318548311160484" lon="11.651197108821062"><ele>77.0</ele><time>2026-04-12T08:32:22.999Z</time></trkpt><trkpt lat="44.31847513485444" lon="11.651144518612393"><ele>76.5</ele><time>2026-04-12T08:32:23.999Z</time></trkpt><trkpt lat="44.31839944219673" lon="11.651088605387073"><ele>76.0</ele><time>2026-04-12T08:32:24.999Z</time></trkpt><trkpt lat="44.318329294850116" lon="11.65103284559751"><ele>75.5</ele><time>2026-04-12T08:32:25.999Z</time></trkpt><trkpt lat="44.318258612280246" lon="11.650976975738736"><ele>75.0</ele><time>2026-04-12T08:32:26.999Z</time></trkpt><trkpt lat="44.318185566818265" lon="11.650933909387824"><ele>74.66666666666667</ele><time>2026-04-12T08:32:27.999Z</time></trkpt><trkpt lat="44.31811746919278" lon="11.650888859821013"><ele>74.33333333333333</ele><time>2026-04-12T08:32:28.999Z</time></trkpt><trkpt lat="44.31805113640966" lon="11.650832596132787"><ele>74.0</ele><time>2026-04-12T08:32:29.999Z</time></trkpt><trkpt lat="44.317984554337" lon="11.650776552216838"><ele>73.66666666666666</ele><time>2026-04-12T08:32:30.999Z</time></trkpt><trkpt lat="44.317916437480626" lon="11.65072583281972"><ele>73.33333333333333</ele><time>2026-04-12T08:32:31.999Z</time></trkpt><trkpt lat="44.31784875865966" lon="11.650672831401064"><ele>73.0</ele><time>2026-04-12T08:32:32.999Z</time></trkpt><trkpt lat="44.31778020655946" lon="11.650620365108816"><ele>72.5</ele><time>2026-04-12T08:32:33.999Z</time></trkpt><trkpt lat="44.31771322603693" lon="11.650569806599098"><ele>72.0</ele><time>2026-04-12T08:32:34.999Z</time></trkpt><trkpt lat="44.31764602843235" lon="11.650518662802144"><ele>71.5</ele><time>2026-04-12T08:32:35.999Z</time></trkpt><trkpt lat="44.31758078568175" lon="11.65046451945859"><ele>71.0</ele><time>2026-04-12T08:32:36.999Z</time></trkpt><trkpt lat="44.317517085199825" lon="11.650411753195966"><ele>70.5</ele><time>2026-04-12T08:32:37.999Z</time></trkpt><trkpt lat="44.317454293496255" lon="11.650359030607689"><ele>70.0</ele><time>2026-04-12T08:32:39Z</time></trkpt><trkpt lat="44.31738942424765" lon="11.650306333723826"><ele>70.57142857142857</ele><time>2026-04-12T08:32:40Z</time></trkpt><trkpt lat="44.317327328513116" lon="11.65025504814687"><ele>71.14285714285714</ele><time>2026-04-12T08:32:41Z</time></trkpt><trkpt lat="44.31726437437802" lon="11.650200979939218"><ele>71.71428571428572</ele><time>2026-04-12T08:32:42Z</time></trkpt><trkpt lat="44.317201995477035" lon="11.650148873948517"><ele>72.28571428571428</ele><time>2026-04-12T08:32:43Z</time></trkpt><trkpt lat="44.31714056827697" lon="11.650096417153598"><ele>72.85714285714286</ele><time>2026-04-12T08:32:44Z</time></trkpt><trkpt lat="44.317079232587865" lon="11.650046975154378"><ele>73.42857142857143</ele><time>2026-04-12T08:32:45Z</time></trkpt><trkpt lat="44.317016947516485" lon="11.650000496155718"><ele>74.0</ele><time>2026-04-12T08:32:46Z</time></trkpt><trkpt lat="44.31695779263012" lon="11.649951697577356"><ele>74.14285714285714</ele><time>2026-04-12T08:32:47Z</time></trkpt><trkpt lat="44.31689912325967" lon="11.649896303748772"><ele>74.28571428571428</ele><time>2026-04-12T08:32:48Z</time></trkpt><trkpt lat="44.31683869362992" lon="11.649843073713535"><ele>74.42857142857142</ele><time>2026-04-12T08:32:49Z</time></trkpt><trkpt lat="44.31678024464041" lon="11.649792279717161"><ele>74.57142857142857</ele><time>2026-04-12T08:32:50Z</time></trkpt><trkpt lat="44.31671904296856" lon="11.64974837771251"><ele>74.71428571428571</ele><time>2026-04-12T08:32:51Z</time></trkpt><trkpt lat="44.31666161288667" lon="11.649709045950944"><ele>74.85714285714285</ele><time>2026-04-12T08:32:52Z</time></trkpt><trkpt lat="44.31660288808687" lon="11.649659118150481"><ele>75.0</ele><time>2026-04-12T08:32:53Z</time></trkpt><trkpt lat="44.31654154753335" lon="11.649615028902996"><ele>74.99999999999999</ele><time>2026-04-12T08:32:54Z</time></trkpt><trkpt lat="44.316481783619395" lon="11.649568929549181"><ele>75.0</ele><time>2026-04-12T08:32:55Z</time></trkpt><trkpt lat="44.31642321602798" lon="11.649527770186312"><ele>75.0</ele><time>2026-04-12T08:32:56Z</time></trkpt><trkpt lat="44.31636346077886" lon="11.649485063271296"><ele>75.0</ele><time>2026-04-12T08:32:57Z</time></trkpt><trkpt lat="44.31630567857907" lon="11.649442200909943"><ele>75.0</ele><time>2026-04-12T08:32:58Z</time></trkpt><trkpt lat="44.31624679058971" lon="11.649397256892954"><ele>74.99999999999999</ele><time>2026-04-12T08:32:59Z</time></trkpt><trkpt lat="44.316188133879784" lon="11.649354837139814"><ele>75.0</ele><time>2026-04-12T08:33:00Z</time></trkpt><trkpt lat="44.31613061329678" lon="11.649311265523837"><ele>75.42857142857142</ele><time>2026-04-12T08:33:01Z</time></trkpt><trkpt lat="44.31607191806793" lon="11.649274509714639"><ele>75.85714285714286</ele><time>2026-04-12T08:33:02Z</time></trkpt><trkpt lat="44.316012453333315" lon="11.64922543721726"><ele>76.28571428571428</ele><time>2026-04-12T08:33:03Z</time></trkpt><trkpt lat="44.31595072645731" lon="11.64918530385129"><ele>76.71428571428571</ele><time>2026-04-12T08:33:04Z</time></trkpt><trkpt lat="44.31588617539618" lon="11.64913765096738"><ele>77.14285714285714</ele><time>2026-04-12T08:33:05Z</time></trkpt><trkpt lat="44.31582372233176" lon="11.649091305955464"><ele>77.57142857142857</ele><time>2026-04-12T08:33:06Z</time></trkpt><trkpt lat="44.31576304056103" lon="11.64904622670905"><ele>78.0</ele><time>2026-04-12T08:33:07Z</time></trkpt><trkpt lat="44.315702167495424" lon="11.649000174713038"><ele>78.0</ele><time>2026-04-12T08:33:08Z</time></trkpt><trkpt lat="44.315639980503896" lon="11.648957535061188"><ele>78.0</ele><time>2026-04-12T08:33:09Z</time></trkpt><trkpt lat="44.315579383580584" lon="11.648909656737757"><ele>78.0</ele><time>2026-04-12T08:33:10Z</time></trkpt><trkpt lat="44.31551458633553" lon="11.64887004818493"><ele>78.0</ele><time>2026-04-12T08:33:11Z</time></trkpt><trkpt lat="44.315452637400526" lon="11.648824098298812"><ele>78.0</ele><time>2026-04-12T08:33:12Z</time></trkpt><trkpt lat="44.31538566628438" lon="11.648772232590913"><ele>78.0</ele><time>2026-04-12T08:33:13Z</time></trkpt><trkpt lat="44.31532062974242" lon="11.64872681474381"><ele>78.0</ele><time>2026-04-12T08:33:14Z</time></trkpt><trkpt lat="44.31525402404753" lon="11.648681527194134"><ele>77.66666666666667</ele><time>2026-04-12T08:33:15Z</time></trkpt><trkpt lat="44.315189292050185" lon="11.648632857329412"><ele>77.33333333333333</ele><time>2026-04-12T08:33:16Z</time></trkpt><trkpt lat="44.31512364379879" lon="11.648583019667358"><ele>77.0</ele><time>2026-04-12T08:33:17Z</time></trkpt><trkpt lat="44.315056987073326" lon="11.648530191385275"><ele>76.66666666666666</ele><time>2026-04-12T08:33:18Z</time></trkpt><trkpt lat="44.31498823322576" lon="11.64848012148156"><ele>76.33333333333333</ele><time>2026-04-12T08:33:19Z</time></trkpt><trkpt lat="44.31491878925143" lon="11.648429282617192"><ele>76.0</ele><time>2026-04-12T08:33:20Z</time></trkpt><trkpt lat="44.314846197840325" lon="11.648376947977908"><ele>76.0</ele><time>2026-04-12T08:33:21Z</time></trkpt><trkpt lat="44.31477847086865" lon="11.648321854899157"><ele>76.0</ele><time>2026-04-12T08:33:22Z</time></trkpt><trkpt lat="44.31470866362095" lon="11.648267623078993"><ele>76.0</ele><time>2026-04-12T08:33:23Z</time></trkpt><trkpt lat="44.31463837798589" lon="11.64821460755564"><ele>76.0</ele><time>2026-04-12T08:33:23.999Z</time></trkpt><trkpt lat="44.314566827530825" lon="11.648163272699128"><ele>76.0</ele><time>2026-04-12T08:33:24.999Z</time></trkpt><trkpt lat="44.3144966628311" lon="11.648110880554553"><ele>76.0</ele><time>2026-04-12T08:33:25.999Z</time></trkpt><trkpt lat="44.31442668429446" lon="11.648058138559946"><ele>75.83333333333333</ele><time>2026-04-12T08:33:26.999Z</time></trkpt><trkpt lat="44.31435565630851" lon="11.648003872551302"><ele>75.66666666666666</ele><time>2026-04-12T08:33:27.999Z</time></trkpt><trkpt lat="44.314284665973425" lon="11.647949557153753"><ele>75.5</ele><time>2026-04-12T08:33:28.999Z</time></trkpt><trkpt lat="44.3142152384404" lon="11.647894778351056"><ele>75.33333333333333</ele><time>2026-04-12T08:33:29.999Z</time></trkpt><trkpt lat="44.31414416097301" lon="11.647840154390934"><ele>75.16666666666667</ele><time>2026-04-12T08:33:30.999Z</time></trkpt><trkpt lat="44.314073177706156" lon="11.647787638313378"><ele>75.0</ele><time>2026-04-12T08:33:31.999Z</time></trkpt><trkpt lat="44.31400213534268" lon="11.647739125236992"><ele>75.0</ele><time>2026-04-12T08:33:32.999Z</time></trkpt><trkpt lat="44.313935541847776" lon="11.647688642315737"><ele>75.0</ele><time>2026-04-12T08:33:33.999Z</time></trkpt><trkpt lat="44.31386581855358" lon="11.647641189506267"><ele>75.0</ele><time>2026-04-12T08:33:34.999Z</time></trkpt><trkpt lat="44.313794372536684" lon="11.647598251260892"><ele>75.0</ele><time>2026-04-12T08:33:35.999Z</time></trkpt><trkpt lat="44.31372493812757" lon="11.647551984046938"><ele>75.0</ele><time>2026-04-12T08:33:36.999Z</time></trkpt><trkpt lat="44.31365685641473" lon="11.647504953043322"><ele>75.0</ele><time>2026-04-12T08:33:37.999Z</time></trkpt><trkpt lat="44.31359272409219" lon="11.647440121160075"><ele>74.2</ele><time>2026-04-12T08:33:38.999Z</time></trkpt><trkpt lat="44.31352735924325" lon="11.647389245315207"><ele>73.4</ele><time>2026-04-12T08:33:39.999Z</time></trkpt><trkpt lat="44.31346936151549" lon="11.647344103577423"><ele>72.6</ele><time>2026-04-12T08:33:40.999Z</time></trkpt><trkpt lat="44.31333944673962" lon="11.647532405695216"><ele>71.8</ele><time>2026-04-12T08:33:42.999Z</time></trkpt><trkpt lat="44.313315429937944" lon="11.64762066181498"><ele>71.0</ele><time>2026-04-12T08:33:43.999Z</time></trkpt><trkpt lat="44.313274519920775" lon="11.647692778849414"><ele>71.0</ele><time>2026-04-12T08:33:44.999Z</time></trkpt><trkpt lat="44.31324136097644" lon="11.647770836549201"><ele>71.0</ele><time>2026-04-12T08:33:45.999Z</time></trkpt><trkpt lat="44.31320376297295" lon="11.647858765975512"><ele>71.0</ele><time>2026-04-12T08:33:46.999Z</time></trkpt><trkpt lat="44.31316644291515" lon="11.647953427906847"><ele>71.0</ele><time>2026-04-12T08:33:47.999Z</time></trkpt><trkpt lat="44.313132034939976" lon="11.64804787214335"><ele>71.0</ele><time>2026-04-12T08:33:48.999Z</time></trkpt><trkpt lat="44.313095278631444" lon="11.648146731111991"><ele>71.0</ele><time>2026-04-12T08:33:49.999Z</time></trkpt><trkpt lat="44.31305776384647" lon="11.648245182177718"><ele>70.5</ele><time>2026-04-12T08:33:50.999Z</time></trkpt><trkpt lat="44.31302391762133" lon="11.648342550706813"><ele>70.0</ele><time>2026-04-12T08:33:51.999Z</time></trkpt><trkpt lat="44.312993380219275" lon="11.648443350969096"><ele>69.5</ele><time>2026-04-12T08:33:52.999Z</time></trkpt><trkpt lat="44.31296572703828" lon="11.648544949559719"><ele>69.0</ele><time>2026-04-12T08:33:53.999Z</time></trkpt><trkpt lat="44.31293821399853" lon="11.64865197539221"><ele>68.5</ele><time>2026-04-12T08:33:54.999Z</time></trkpt><trkpt lat="44.31291587274514" lon="11.648761690311103"><ele>68.0</ele><time>2026-04-12T08:33:55.999Z</time></trkpt><trkpt lat="44.312883891893954" lon="11.648870756984588"><ele>68.0</ele><time>2026-04-12T08:33:56.999Z</time></trkpt><trkpt lat="44.312844680108114" lon="11.648975649515405"><ele>68.0</ele><time>2026-04-12T08:33:57.999Z</time></trkpt><trkpt lat="44.312795742376714" lon="11.649070009901314"><ele>68.0</ele><time>2026-04-12T08:33:58.999Z</time></trkpt><trkpt lat="44.312744530780904" lon="11.649160504080006"><ele>68.0</ele><time>2026-04-12T08:33:59.999Z</time></trkpt><trkpt lat="44.31268880512677" lon="11.649252407947724"><ele>68.0</ele><time>2026-04-12T08:34:00.999Z</time></trkpt><trkpt lat="44.312634065433954" lon="11.649338069185275"><ele>68.0</ele><time>2026-04-12T08:34:01.999Z</time></trkpt><trkpt lat="44.3125765529662" lon="11.649421908576477"><ele>68.16666666666667</ele><time>2026-04-12T08:34:02.999Z</time></trkpt><trkpt lat="44.312516844844126" lon="11.64950511492043"><ele>68.33333333333334</ele><time>2026-04-12T08:34:03.999Z</time></trkpt><trkpt lat="44.31245778197078" lon="11.649587975282273"><ele>68.5</ele><time>2026-04-12T08:34:04.999Z</time></trkpt><trkpt lat="44.31239798352677" lon="11.649668004234341"><ele>68.66666666666667</ele><time>2026-04-12T08:34:05.999Z</time></trkpt><trkpt lat="44.31233433835036" lon="11.649743409298996"><ele>68.83333333333333</ele><time>2026-04-12T08:34:06.999Z</time></trkpt><trkpt lat="44.31227043612705" lon="11.649810292112107"><ele>69.0</ele><time>2026-04-12T08:34:07.999Z</time></trkpt><trkpt lat="44.31219607966781" lon="11.64988013412078"><ele>68.5</ele><time>2026-04-12T08:34:08.999Z</time></trkpt><trkpt lat="44.31211974908441" lon="11.649944973993192"><ele>68.0</ele><time>2026-04-12T08:34:09.999Z</time></trkpt><trkpt lat="44.31204620554404" lon="11.650002455704948"><ele>67.5</ele><time>2026-04-12T08:34:10.999Z</time></trkpt><trkpt lat="44.311972388959745" lon="11.650050984362343"><ele>67.0</ele><time>2026-04-12T08:34:11.999Z</time></trkpt><trkpt lat="44.311893346790676" lon="11.650097328694178"><ele>66.5</ele><time>2026-04-12T08:34:12.999Z</time></trkpt><trkpt lat="44.311817050540014" lon="11.650139598280187"><ele>66.0</ele><time>2026-04-12T08:34:13.999Z</time></trkpt><trkpt lat="44.31173640917723" lon="11.650185877342505"><ele>66.0</ele><time>2026-04-12T08:34:14.999Z</time></trkpt><trkpt lat="44.31165492519962" lon="11.650232693385679"><ele>66.0</ele><time>2026-04-12T08:34:15.999Z</time></trkpt><trkpt lat="44.31157783214836" lon="11.65027990470047"><ele>66.0</ele><time>2026-04-12T08:34:16.999Z</time></trkpt><trkpt lat="44.31150185852548" lon="11.650336330521554"><ele>66.0</ele><time>2026-04-12T08:34:17.999Z</time></trkpt><trkpt lat="44.3114283817139" lon="11.650398197829576"><ele>66.0</ele><time>2026-04-12T08:34:18.999Z</time></trkpt><trkpt lat="44.311354192985895" lon="11.65046205572416"><ele>66.0</ele><time>2026-04-12T08:34:19.999Z</time></trkpt><trkpt lat="44.31128542156844" lon="11.65053173443198"><ele>65.83333333333333</ele><time>2026-04-12T08:34:20.999Z</time></trkpt><trkpt lat="44.31121904400173" lon="11.650598604081956"><ele>65.66666666666667</ele><time>2026-04-12T08:34:21.999Z</time></trkpt><trkpt lat="44.31115696929937" lon="11.650670092427145"><ele>65.5</ele><time>2026-04-12T08:34:22.999Z</time></trkpt><trkpt lat="44.311092987703084" lon="11.650738213389307"><ele>65.33333333333334</ele><time>2026-04-12T08:34:23.999Z</time></trkpt><trkpt lat="44.31102794925691" lon="11.650807095340168"><ele>65.16666666666667</ele><time>2026-04-12T08:34:24.999Z</time></trkpt><trkpt lat="44.31096005346579" lon="11.650877405597408"><ele>65.0</ele><time>2026-04-12T08:34:25.999Z</time></trkpt><trkpt lat="44.31089833671885" lon="11.650944633930427"><ele>65.0</ele><time>2026-04-12T08:34:26.999Z</time></trkpt><trkpt lat="44.31083268725504" lon="11.651016819009445"><ele>65.0</ele><time>2026-04-12T08:34:27.999Z</time></trkpt><trkpt lat="44.31076826474997" lon="11.651081485952764"><ele>65.0</ele><time>2026-04-12T08:34:28.999Z</time></trkpt><trkpt lat="44.31070027446774" lon="11.65115059010308"><ele>65.0</ele><time>2026-04-12T08:34:29.999Z</time></trkpt><trkpt lat="44.31063389015634" lon="11.65122414464584"><ele>65.0</ele><time>2026-04-12T08:34:30.999Z</time></trkpt><trkpt lat="44.310569027733656" lon="11.651294920330933"><ele>65.0</ele><time>2026-04-12T08:34:31.999Z</time></trkpt><trkpt lat="44.310500255392085" lon="11.651366358649208"><ele>64.5</ele><time>2026-04-12T08:34:32.999Z</time></trkpt><trkpt lat="44.31042896080217" lon="11.651430764154124"><ele>64.0</ele><time>2026-04-12T08:34:33.999Z</time></trkpt><trkpt lat="44.310363652294896" lon="11.65150090666082"><ele>63.5</ele><time>2026-04-12T08:34:34.999Z</time></trkpt><trkpt lat="44.31030071628823" lon="11.651569963057948"><ele>63.0</ele><time>2026-04-12T08:34:35.999Z</time></trkpt><trkpt lat="44.31023552716763" lon="11.65163870342103"><ele>62.50000000000001</ele><time>2026-04-12T08:34:36.999Z</time></trkpt><trkpt lat="44.31017154108764" lon="11.651705891303452"><ele>62.0</ele><time>2026-04-12T08:34:37.999Z</time></trkpt><trkpt lat="44.310109667904676" lon="11.651770343265024"><ele>62.00000000000001</ele><time>2026-04-12T08:34:38.999Z</time></trkpt><trkpt lat="44.31004754928758" lon="11.651835987619021"><ele>62.0</ele><time>2026-04-12T08:34:39.999Z</time></trkpt><trkpt lat="44.309985552871034" lon="11.65189369269358"><ele>62.0</ele><time>2026-04-12T08:34:40.999Z</time></trkpt><trkpt lat="44.30992860743412" lon="11.651959058927732"><ele>62.0</ele><time>2026-04-12T08:34:41.999Z</time></trkpt><trkpt lat="44.30987127972328" lon="11.652016392714225"><ele>62.00000000000001</ele><time>2026-04-12T08:34:42.999Z</time></trkpt><trkpt lat="44.309754730461" lon="11.65208060225481"><ele>62.0</ele><time>2026-04-12T08:34:44.999Z</time></trkpt><trkpt lat="44.309623377469386" lon="11.65198963433948"><ele>61.85714285714286</ele><time>2026-04-12T08:34:46.999Z</time></trkpt><trkpt lat="44.309571060486974" lon="11.651914227768156"><ele>61.71428571428572</ele><time>2026-04-12T08:34:47.999Z</time></trkpt><trkpt lat="44.30952182267975" lon="11.65184326522357"><ele>61.57142857142857</ele><time>2026-04-12T08:34:48.999Z</time></trkpt><trkpt lat="44.30947362623618" lon="11.651771262817848"><ele>61.42857142857143</ele><time>2026-04-12T08:34:49.999Z</time></trkpt><trkpt lat="44.30942310809811" lon="11.65169579195408"><ele>61.285714285714285</ele><time>2026-04-12T08:34:50.999Z</time></trkpt><trkpt lat="44.30937742137769" lon="11.651627538931272"><ele>61.14285714285714</ele><time>2026-04-12T08:34:52Z</time></trkpt><trkpt lat="44.30933103473254" lon="11.65155772333032"><ele>60.99999999999999</ele><time>2026-04-12T08:34:53Z</time></trkpt><trkpt lat="44.30928310997501" lon="11.651484829363556"><ele>60.99999999999999</ele><time>2026-04-12T08:34:54Z</time></trkpt><trkpt lat="44.309235365548474" lon="11.651412209691621"><ele>61.0</ele><time>2026-04-12T08:34:55Z</time></trkpt><trkpt lat="44.30919163977128" lon="11.651339002913538"><ele>60.99999999999999</ele><time>2026-04-12T08:34:56Z</time></trkpt><trkpt lat="44.309148823999806" lon="11.651266678270854"><ele>60.99999999999999</ele><time>2026-04-12T08:34:57Z</time></trkpt><trkpt lat="44.309101721787954" lon="11.651187112924774"><ele>61.0</ele><time>2026-04-12T08:34:58Z</time></trkpt><trkpt lat="44.309068226278086" lon="11.65110863232455"><ele>60.99999999999999</ele><time>2026-04-12T08:34:59Z</time></trkpt><trkpt lat="44.30901818886472" lon="11.651038840733369"><ele>60.99999999999999</ele><time>2026-04-12T08:35:00Z</time></trkpt><trkpt lat="44.30897351756512" lon="11.650975163895994"><ele>61.28571428571428</ele><time>2026-04-12T08:35:01Z</time></trkpt><trkpt lat="44.308928315446444" lon="11.650905083383572"><ele>61.57142857142857</ele><time>2026-04-12T08:35:02Z</time></trkpt><trkpt lat="44.30888522141745" lon="11.650834758668601"><ele>61.857142857142854</ele><time>2026-04-12T08:35:03Z</time></trkpt><trkpt lat="44.308844292670244" lon="11.650767081320517"><ele>62.14285714285714</ele><time>2026-04-12T08:35:04Z</time></trkpt><trkpt lat="44.308799970714915" lon="11.650694486648295"><ele>62.42857142857143</ele><time>2026-04-12T08:35:05Z</time></trkpt><trkpt lat="44.30875755065615" lon="11.650622477710906"><ele>62.714285714285715</ele><time>2026-04-12T08:35:06Z</time></trkpt><trkpt lat="44.30871470092082" lon="11.650547001046567"><ele>63.0</ele><time>2026-04-12T08:35:07Z</time></trkpt><trkpt lat="44.3086708051176" lon="11.65047589918115"><ele>63.0</ele><time>2026-04-12T08:35:08Z</time></trkpt><trkpt lat="44.30861778233477" lon="11.650408905644438"><ele>63.0</ele><time>2026-04-12T08:35:09Z</time></trkpt><trkpt lat="44.30856357312859" lon="11.650345603582537"><ele>63.0</ele><time>2026-04-12T08:35:10Z</time></trkpt><trkpt lat="44.308509035936396" lon="11.650279505049578"><ele>63.0</ele><time>2026-04-12T08:35:11Z</time></trkpt><trkpt lat="44.30845761097907" lon="11.650212508817448"><ele>63.0</ele><time>2026-04-12T08:35:12Z</time></trkpt><trkpt lat="44.30840711204698" lon="11.65013877451118"><ele>63.0</ele><time>2026-04-12T08:35:13Z</time></trkpt><trkpt lat="44.3083597331508" lon="11.65005947381297"><ele>63.0</ele><time>2026-04-12T08:35:14Z</time></trkpt><trkpt lat="44.30832885436129" lon="11.649963432459991"><ele>63.0</ele><time>2026-04-12T08:35:15Z</time></trkpt><trkpt lat="44.308293043374405" lon="11.649877754052609"><ele>63.0</ele><time>2026-04-12T08:35:16Z</time></trkpt><trkpt lat="44.3082530080064" lon="11.649791993127891"><ele>63.0</ele><time>2026-04-12T08:35:17Z</time></trkpt><trkpt lat="44.30820599286063" lon="11.649713974037473"><ele>63.0</ele><time>2026-04-12T08:35:18Z</time></trkpt><trkpt lat="44.30816154540911" lon="11.64963626588285"><ele>63.0</ele><time>2026-04-12T08:35:18.999Z</time></trkpt><trkpt lat="44.30811701369905" lon="11.649555550342848"><ele>63.0</ele><time>2026-04-12T08:35:19.999Z</time></trkpt><trkpt lat="44.308071626389705" lon="11.6494729527891"><ele>63.0</ele><time>2026-04-12T08:35:20.999Z</time></trkpt><trkpt lat="44.308014568886485" lon="11.649417118699812"><ele>62.5</ele><time>2026-04-12T08:35:21.999Z</time></trkpt><trkpt lat="44.30792713907725" lon="11.649307772598412"><ele>62.0</ele><time>2026-04-12T08:35:23.999Z</time></trkpt><trkpt lat="44.30787877017673" lon="11.649208810555082"><ele>61.5</ele><time>2026-04-12T08:35:25.999Z</time></trkpt><trkpt lat="44.30800650272077" lon="11.648918832103059"><ele>61.0</ele><time>2026-04-12T08:35:26.999Z</time></trkpt><trkpt lat="44.30801654559491" lon="11.648819374385496"><ele>60.99999999999999</ele><time>2026-04-12T08:35:27.999Z</time></trkpt><trkpt lat="44.30802711469016" lon="11.648724793251912"><ele>61.0</ele><time>2026-04-12T08:35:28.999Z</time></trkpt><trkpt lat="44.30803576300296" lon="11.64862585175715"><ele>61.0</ele><time>2026-04-12T08:35:29.999Z</time></trkpt><trkpt lat="44.30803863609709" lon="11.648529965313331"><ele>61.0</ele><time>2026-04-12T08:35:30.999Z</time></trkpt><trkpt lat="44.30803138281145" lon="11.64843122175548"><ele>60.99999999999999</ele><time>2026-04-12T08:35:31.999Z</time></trkpt><trkpt lat="44.30801191145085" lon="11.648339144793592"><ele>61.0</ele><time>2026-04-12T08:35:32.999Z</time></trkpt><trkpt lat="44.30792760878956" lon="11.648233184376817"><ele>61.33333333333333</ele><time>2026-04-12T08:35:34.999Z</time></trkpt><trkpt lat="44.30781747559272" lon="11.648285499728045"><ele>61.666666666666664</ele><time>2026-04-12T08:35:36.999Z</time></trkpt><trkpt lat="44.3077723840508" lon="11.648354469506199"><ele>62.0</ele><time>2026-04-12T08:35:37.999Z</time></trkpt><trkpt lat="44.307730717814636" lon="11.648421844623295"><ele>62.33333333333333</ele><time>2026-04-12T08:35:38.999Z</time></trkpt><trkpt lat="44.30767916096976" lon="11.648477991112083"><ele>62.666666666666664</ele><time>2026-04-12T08:35:39.999Z</time></trkpt><trkpt lat="44.30760873873033" lon="11.648486115126833"><ele>63.0</ele><time>2026-04-12T08:35:40.999Z</time></trkpt><trkpt lat="44.307545903628075" lon="11.64843303521709"><ele>63.0</ele><time>2026-04-12T08:35:41.999Z</time></trkpt><trkpt lat="44.307508435488344" lon="11.648345088931734"><ele>63.0</ele><time>2026-04-12T08:35:42.999Z</time></trkpt><trkpt lat="44.30747501906504" lon="11.648266763244463"><ele>63.0</ele><time>2026-04-12T08:35:43.999Z</time></trkpt><trkpt lat="44.30738528863521" lon="11.648146169473518"><ele>63.0</ele><time>2026-04-12T08:35:45.999Z</time></trkpt><trkpt lat="44.307339976596076" lon="11.648084039961235"><ele>63.0</ele><time>2026-04-12T08:35:46.999Z</time></trkpt><trkpt lat="44.30729284509118" lon="11.648022562057003"><ele>63.0</ele><time>2026-04-12T08:35:47.999Z</time></trkpt><trkpt lat="44.307200285658375" lon="11.647901851746877"><ele>62.833333333333336</ele><time>2026-04-12T08:35:49.999Z</time></trkpt><trkpt lat="44.30715190620763" lon="11.647838073509318"><ele>62.66666666666667</ele><time>2026-04-12T08:35:50.999Z</time></trkpt><trkpt lat="44.30710537753714" lon="11.647775970169544"><ele>62.5</ele><time>2026-04-12T08:35:51.999Z</time></trkpt><trkpt lat="44.307057592347014" lon="11.64771127235772"><ele>62.333333333333336</ele><time>2026-04-12T08:35:52.999Z</time></trkpt><trkpt lat="44.306963219940286" lon="11.647588564883979"><ele>62.16666666666667</ele><time>2026-04-12T08:35:54.999Z</time></trkpt><trkpt lat="44.30691160375698" lon="11.647526634749381"><ele>62.0</ele><time>2026-04-12T08:35:55.999Z</time></trkpt><trkpt lat="44.306865214577414" lon="11.647464274750064"><ele>62.0</ele><time>2026-04-12T08:35:56.999Z</time></trkpt><trkpt lat="44.30681662555083" lon="11.647401351478619"><ele>62.00000000000001</ele><time>2026-04-12T08:35:57.999Z</time></trkpt><trkpt lat="44.30676903737391" lon="11.647335753074177"><ele>62.0</ele><time>2026-04-12T08:35:58.999Z</time></trkpt><trkpt lat="44.30671957974125" lon="11.647270671719387"><ele>62.0</ele><time>2026-04-12T08:35:59.999Z</time></trkpt><trkpt lat="44.306671793284856" lon="11.647208405127085"><ele>62.00000000000001</ele><time>2026-04-12T08:36:00.999Z</time></trkpt><trkpt lat="44.30662375840298" lon="11.647147965772737"><ele>62.0</ele><time>2026-04-12T08:36:01.999Z</time></trkpt><trkpt lat="44.30657031330758" lon="11.647081510575909"><ele>62.0</ele><time>2026-04-12T08:36:02.999Z</time></trkpt><trkpt lat="44.306520982842244" lon="11.647017518524532"><ele>62.142857142857146</ele><time>2026-04-12T08:36:03.999Z</time></trkpt><trkpt lat="44.30647285926356" lon="11.646950861876622"><ele>62.28571428571429</ele><time>2026-04-12T08:36:04.999Z</time></trkpt><trkpt lat="44.30642351004658" lon="11.646887760013007"><ele>62.42857142857143</ele><time>2026-04-12T08:36:05.999Z</time></trkpt><trkpt lat="44.30637242335723" lon="11.646824638385507"><ele>62.57142857142857</ele><time>2026-04-12T08:36:06.999Z</time></trkpt><trkpt lat="44.30632280661398" lon="11.646758518759704"><ele>62.714285714285715</ele><time>2026-04-12T08:36:07.999Z</time></trkpt><trkpt lat="44.306275639020356" lon="11.64669780654463"><ele>62.85714285714286</ele><time>2026-04-12T08:36:08.999Z</time></trkpt><trkpt lat="44.30622596565369" lon="11.646637545878407"><ele>63.0</ele><time>2026-04-12T08:36:09.999Z</time></trkpt><trkpt lat="44.30617758631991" lon="11.646573266949005"><ele>63.0</ele><time>2026-04-12T08:36:10.999Z</time></trkpt><trkpt lat="44.30613112872338" lon="11.646513289659051"><ele>63.0</ele><time>2026-04-12T08:36:11.999Z</time></trkpt><trkpt lat="44.30607150935644" lon="11.64638466667785"><ele>63.0</ele><time>2026-04-12T08:36:13.999Z</time></trkpt><trkpt lat="44.3061424368912" lon="11.646254642580388"><ele>63.0</ele><time>2026-04-12T08:36:15.999Z</time></trkpt><trkpt lat="44.306219692166074" lon="11.64614386884128"><ele>63.0</ele><time>2026-04-12T08:36:17.999Z</time></trkpt><trkpt lat="44.306286903592856" lon="11.646011652538638"><ele>63.2</ele><time>2026-04-12T08:36:19.999Z</time></trkpt><trkpt lat="44.306360266037004" lon="11.645876464511826"><ele>63.4</ele><time>2026-04-12T08:36:21.999Z</time></trkpt><trkpt lat="44.30643029829733" lon="11.645741942443049"><ele>63.60000000000001</ele><time>2026-04-12T08:36:23.999Z</time></trkpt><trkpt lat="44.30649728451063" lon="11.645628162820518"><ele>63.800000000000004</ele><time>2026-04-12T08:36:25.999Z</time></trkpt><trkpt lat="44.30651260466268" lon="11.6455348667339"><ele>64.0</ele><time>2026-04-12T08:36:27.999Z</time></trkpt><trkpt lat="44.30642846907779" lon="11.645471026826629"><ele>63.99999999999999</ele><time>2026-04-12T08:36:29.999Z</time></trkpt><trkpt lat="44.30636423066864" lon="11.645486986300863"><ele>64.0</ele><time>2026-04-12T08:36:30.999Z</time></trkpt><trkpt lat="44.30625675072125" lon="11.645565244485754"><ele>64.0</ele><time>2026-04-12T08:36:32.999Z</time></trkpt><trkpt lat="44.30613635065391" lon="11.645532709692535"><ele>64.0</ele><time>2026-04-12T08:36:34.999Z</time></trkpt><trkpt lat="44.306076406351714" lon="11.645471850219007"><ele>63.99999999999999</ele><time>2026-04-12T08:36:35.999Z</time></trkpt><trkpt lat="44.306014005075625" lon="11.645455984801744"><ele>64.0</ele><time>2026-04-12T08:36:36.999Z</time></trkpt><trkpt lat="44.30595555983594" lon="11.645421120926805"><ele>63.99999999999999</ele><time>2026-04-12T08:36:37.999Z</time></trkpt><trkpt lat="44.305896245585465" lon="11.645382009410524"><ele>64.0</ele><time>2026-04-12T08:36:38.999Z</time></trkpt><trkpt lat="44.305770493145" lon="11.64532715054035"><ele>64.0</ele><time>2026-04-12T08:36:40.999Z</time></trkpt><trkpt lat="44.305705664904316" lon="11.645305816223964"><ele>64.0</ele><time>2026-04-12T08:36:41.999Z</time></trkpt><trkpt lat="44.305634625312415" lon="11.645264921843555"><ele>63.99999999999999</ele><time>2026-04-12T08:36:42.999Z</time></trkpt><trkpt lat="44.30556350305283" lon="11.645256612970982"><ele>64.0</ele><time>2026-04-12T08:36:43.999Z</time></trkpt><trkpt lat="44.305495938247994" lon="11.645275194560218"><ele>64.0</ele><time>2026-04-12T08:36:44.999Z</time></trkpt><trkpt lat="44.30543076521213" lon="11.645250943177786"><ele>63.99999999999999</ele><time>2026-04-12T08:36:45.999Z</time></trkpt><trkpt lat="44.3053586801978" lon="11.64527157358161"><ele>64.0</ele><time>2026-04-12T08:36:46.999Z</time></trkpt><trkpt lat="44.305285713034486" lon="11.645271313235948"><ele>64.0</ele><time>2026-04-12T08:36:47.999Z</time></trkpt><trkpt lat="44.305216284373564" lon="11.645255853250944"><ele>63.99999999999999</ele><time>2026-04-12T08:36:48.999Z</time></trkpt><trkpt lat="44.305146160747356" lon="11.645265787008118"><ele>64.0</ele><time>2026-04-12T08:36:49.999Z</time></trkpt><trkpt lat="44.30507654458898" lon="11.645238646115821"><ele>64.0</ele><time>2026-04-12T08:36:51Z</time></trkpt><trkpt lat="44.30500844296357" lon="11.645231410232716"><ele>64.0</ele><time>2026-04-12T08:36:52Z</time></trkpt><trkpt lat="44.30494446724736" lon="11.645220585223115"><ele>63.99999999999999</ele><time>2026-04-12T08:36:53Z</time></trkpt><trkpt lat="44.304876423474404" lon="11.645224405358107"><ele>64.0</ele><time>2026-04-12T08:36:54Z</time></trkpt><trkpt lat="44.304810961374436" lon="11.645190067728656"><ele>64.0</ele><time>2026-04-12T08:36:55Z</time></trkpt><trkpt lat="44.30474537090756" lon="11.645160255439816"><ele>63.99999999999999</ele><time>2026-04-12T08:36:56Z</time></trkpt><trkpt lat="44.30467862434122" lon="11.645124597561521"><ele>64.0</ele><time>2026-04-12T08:36:57Z</time></trkpt><trkpt lat="44.30461326413565" lon="11.645092469367054"><ele>64.0</ele><time>2026-04-12T08:36:58Z</time></trkpt><trkpt lat="44.30448893274963" lon="11.645016198650174"><ele>64.14285714285714</ele><time>2026-04-12T08:37:00Z</time></trkpt><trkpt lat="44.30441782533211" lon="11.644973991527982"><ele>64.28571428571428</ele><time>2026-04-12T08:37:01Z</time></trkpt><trkpt lat="44.30435789854746" lon="11.64493615592281"><ele>64.42857142857143</ele><time>2026-04-12T08:37:02Z</time></trkpt><trkpt lat="44.304300271580686" lon="11.64487898052556"><ele>64.57142857142857</ele><time>2026-04-12T08:37:03Z</time></trkpt><trkpt lat="44.30424875013035" lon="11.64481276138719"><ele>64.71428571428572</ele><time>2026-04-12T08:37:04Z</time></trkpt><trkpt lat="44.30420106313546" lon="11.644746000163783"><ele>64.85714285714286</ele><time>2026-04-12T08:37:05Z</time></trkpt><trkpt lat="44.304155650068004" lon="11.644683254402281"><ele>65.0</ele><time>2026-04-12T08:37:06Z</time></trkpt><trkpt lat="44.30406046145946" lon="11.64458323610225"><ele>65.0</ele><time>2026-04-12T08:37:08Z</time></trkpt><trkpt lat="44.303999069242934" lon="11.644474071516774"><ele>65.0</ele><time>2026-04-12T08:37:10Z</time></trkpt><trkpt lat="44.303801569043024" lon="11.644716683686662"><ele>65.0</ele><time>2026-04-12T08:37:13Z</time></trkpt><trkpt lat="44.303758723439955" lon="11.644793618878882"><ele>65.0</ele><time>2026-04-12T08:37:14Z</time></trkpt><trkpt lat="44.30370887398313" lon="11.644872556800504"><ele>64.57142857142858</ele><time>2026-04-12T08:37:15Z</time></trkpt><trkpt lat="44.30365816139703" lon="11.644950439409612"><ele>64.14285714285714</ele><time>2026-04-12T08:37:16Z</time></trkpt><trkpt lat="44.30360526744627" lon="11.645023099485158"><ele>63.71428571428572</ele><time>2026-04-12T08:37:17Z</time></trkpt><trkpt lat="44.30355531989927" lon="11.645100253945172"><ele>63.28571428571429</ele><time>2026-04-12T08:37:18Z</time></trkpt><trkpt lat="44.303508679419444" lon="11.645180071694433"><ele>62.85714285714286</ele><time>2026-04-12T08:37:19Z</time></trkpt><trkpt lat="44.303459102680314" lon="11.64525889919577"><ele>62.42857142857143</ele><time>2026-04-12T08:37:20Z</time></trkpt><trkpt lat="44.303412428528475" lon="11.645332961259532"><ele>62.0</ele><time>2026-04-12T08:37:21Z</time></trkpt><trkpt lat="44.30336194592643" lon="11.64540730467738"><ele>62.00000000000001</ele><time>2026-04-12T08:37:22Z</time></trkpt><trkpt lat="44.303311869178145" lon="11.645475720564459"><ele>62.0</ele><time>2026-04-12T08:37:23Z</time></trkpt><trkpt lat="44.303262231442766" lon="11.645540891115452"><ele>62.0</ele><time>2026-04-12T08:37:24Z</time></trkpt><trkpt lat="44.30319927335131" lon="11.645597427397837"><ele>62.0</ele><time>2026-04-12T08:37:25Z</time></trkpt><trkpt lat="44.30314134268983" lon="11.645643693709166"><ele>62.00000000000001</ele><time>2026-04-12T08:37:26Z</time></trkpt><trkpt lat="44.30308120909436" lon="11.645688357459884"><ele>62.0</ele><time>2026-04-12T08:37:27Z</time></trkpt><trkpt lat="44.30298037451184" lon="11.645666333508998"><ele>62.0</ele><time>2026-04-12T08:37:29Z</time></trkpt><trkpt lat="44.30293267089923" lon="11.645527758801812"><ele>62.0</ele><time>2026-04-12T08:37:31Z</time></trkpt><trkpt lat="44.30288102579694" lon="11.645381677354205"><ele>62.0</ele><time>2026-04-12T08:37:33Z</time></trkpt><trkpt lat="44.30281265182835" lon="11.645229642693442"><ele>62.0</ele><time>2026-04-12T08:37:35Z</time></trkpt><trkpt lat="44.30277786176651" lon="11.645149581655804"><ele>62.0</ele><time>2026-04-12T08:37:36Z</time></trkpt><trkpt lat="44.30274457099288" lon="11.645068904758809"><ele>62.0</ele><time>2026-04-12T08:37:37Z</time></trkpt><trkpt lat="44.30270942351067" lon="11.644995181616096"><ele>62.00000000000001</ele><time>2026-04-12T08:37:38Z</time></trkpt><trkpt lat="44.30267344235912" lon="11.64491762725872"><ele>62.0</ele><time>2026-04-12T08:37:39Z</time></trkpt><trkpt lat="44.30263987858858" lon="11.64483514957653"><ele>62.0</ele><time>2026-04-12T08:37:40Z</time></trkpt><trkpt lat="44.302608244130774" lon="11.644749398729225"><ele>62.00000000000001</ele><time>2026-04-12T08:37:41Z</time></trkpt><trkpt lat="44.30257279821104" lon="11.644668291673147"><ele>62.0</ele><time>2026-04-12T08:37:41.999Z</time></trkpt><trkpt lat="44.30253708526507" lon="11.644588325830977"><ele>62.0</ele><time>2026-04-12T08:37:42.999Z</time></trkpt><trkpt lat="44.30250275011366" lon="11.644509060812817"><ele>62.0</ele><time>2026-04-12T08:37:43.999Z</time></trkpt><trkpt lat="44.30246840007467" lon="11.644429722713905"><ele>62.00000000000001</ele><time>2026-04-12T08:37:44.999Z</time></trkpt><trkpt lat="44.302432892114254" lon="11.644346750753718"><ele>62.0</ele><time>2026-04-12T08:37:45.999Z</time></trkpt><trkpt lat="44.30239822278759" lon="11.644266475102048"><ele>62.0</ele><time>2026-04-12T08:37:46.999Z</time></trkpt><trkpt lat="44.302361915668875" lon="11.644185285988405"><ele>62.00000000000001</ele><time>2026-04-12T08:37:47.999Z</time></trkpt><trkpt lat="44.30232746113186" lon="11.644104200427059"><ele>62.0</ele><time>2026-04-12T08:37:48.999Z</time></trkpt><trkpt lat="44.302293157775004" lon="11.64402132338248"><ele>62.0</ele><time>2026-04-12T08:37:49.999Z</time></trkpt><trkpt lat="44.30225821738448" lon="11.643944571472193"><ele>62.142857142857146</ele><time>2026-04-12T08:37:50.999Z</time></trkpt><trkpt lat="44.30222569899717" lon="11.643866137329937"><ele>62.28571428571429</ele><time>2026-04-12T08:37:51.999Z</time></trkpt><trkpt lat="44.30219297571558" lon="11.64378609414283"><ele>62.42857142857143</ele><time>2026-04-12T08:37:52.999Z</time></trkpt><trkpt lat="44.30215790607035" lon="11.643708617019762"><ele>62.57142857142857</ele><time>2026-04-12T08:37:53.999Z</time></trkpt><trkpt lat="44.30212295501195" lon="11.6436324431068"><ele>62.714285714285715</ele><time>2026-04-12T08:37:54.999Z</time></trkpt><trkpt lat="44.30208910162205" lon="11.643554907796617"><ele>62.85714285714286</ele><time>2026-04-12T08:37:55.999Z</time></trkpt><trkpt lat="44.30205621886344" lon="11.643476884483412"><ele>63.0</ele><time>2026-04-12T08:37:56.999Z</time></trkpt><trkpt lat="44.301987612856315" lon="11.643326259100037"><ele>63.0</ele><time>2026-04-12T08:37:58.999Z</time></trkpt><trkpt lat="44.301976915675695" lon="11.643149484937805"><ele>63.0</ele><time>2026-04-12T08:38:00.999Z</time></trkpt><trkpt lat="44.30202181708697" lon="11.643072646421068"><ele>63.0</ele><time>2026-04-12T08:38:01.999Z</time></trkpt><trkpt lat="44.302047171797795" lon="11.642984195206164"><ele>63.0</ele><time>2026-04-12T08:38:02.999Z</time></trkpt><trkpt lat="44.30210084167439" lon="11.642927729185796"><ele>63.0</ele><time>2026-04-12T08:38:03.999Z</time></trkpt><trkpt lat="44.302138929113234" lon="11.642842875762764"><ele>63.0</ele><time>2026-04-12T08:38:04.999Z</time></trkpt><trkpt lat="44.302177641981004" lon="11.642767968471686"><ele>62.85714285714286</ele><time>2026-04-12T08:38:05.999Z</time></trkpt><trkpt lat="44.302211273828995" lon="11.64268390003"><ele>62.714285714285715</ele><time>2026-04-12T08:38:06.999Z</time></trkpt><trkpt lat="44.30225434407672" lon="11.642606981685468"><ele>62.57142857142857</ele><time>2026-04-12T08:38:07.999Z</time></trkpt><trkpt lat="44.30231125935423" lon="11.642546526176176"><ele>62.42857142857143</ele><time>2026-04-12T08:38:08.999Z</time></trkpt><trkpt lat="44.30235721375902" lon="11.642470366566874"><ele>62.28571428571429</ele><time>2026-04-12T08:38:09.999Z</time></trkpt><trkpt lat="44.302402631433985" lon="11.642395096431958"><ele>62.142857142857146</ele><time>2026-04-12T08:38:10.999Z</time></trkpt><trkpt lat="44.30244884358657" lon="11.642318509652272"><ele>62.0</ele><time>2026-04-12T08:38:11.999Z</time></trkpt><trkpt lat="44.30249438087704" lon="11.642243041284926"><ele>62.28571428571429</ele><time>2026-04-12T08:38:12.999Z</time></trkpt><trkpt lat="44.30253839508581" lon="11.642170097113834"><ele>62.57142857142858</ele><time>2026-04-12T08:38:13.999Z</time></trkpt><trkpt lat="44.30258359699691" lon="11.642095298673395"><ele>62.85714285714286</ele><time>2026-04-12T08:38:14.999Z</time></trkpt><trkpt lat="44.30262832251661" lon="11.642021289473242"><ele>63.14285714285714</ele><time>2026-04-12T08:38:15.999Z</time></trkpt><trkpt lat="44.302672984111716" lon="11.641947386008253"><ele>63.42857142857142</ele><time>2026-04-12T08:38:16.999Z</time></trkpt><trkpt lat="44.30271608480449" lon="11.641876065376916"><ele>63.71428571428571</ele><time>2026-04-12T08:38:17.999Z</time></trkpt><trkpt lat="44.302759290493185" lon="11.641806134814132"><ele>64.0</ele><time>2026-04-12T08:38:18.999Z</time></trkpt><trkpt lat="44.30280143283366" lon="11.641738775374582"><ele>64.2</ele><time>2026-04-12T08:38:19.999Z</time></trkpt><trkpt lat="44.30284507752489" lon="11.641669013835884"><ele>64.4</ele><time>2026-04-12T08:38:20.999Z</time></trkpt><trkpt lat="44.30288939046175" lon="11.641602098462492"><ele>64.6</ele><time>2026-04-12T08:38:21.999Z</time></trkpt><trkpt lat="44.30297375071871" lon="11.641478343087638"><ele>64.8</ele><time>2026-04-12T08:38:23.999Z</time></trkpt><trkpt lat="44.30305582128587" lon="11.641391952425302"><ele>65.0</ele><time>2026-04-12T08:38:25.999Z</time></trkpt><trkpt lat="44.303131463764274" lon="11.641297766403524"><ele>65.0</ele><time>2026-04-12T08:38:27.999Z</time></trkpt><trkpt lat="44.30316939625223" lon="11.641216027057775"><ele>65.0</ele><time>2026-04-12T08:38:29.999Z</time></trkpt><trkpt lat="44.302981015503356" lon="11.641128519314405"><ele>65.0</ele><time>2026-04-12T08:38:30.999Z</time></trkpt><trkpt lat="44.30288479853484" lon="11.641150910368726"><ele>65.0</ele><time>2026-04-12T08:38:32.999Z</time></trkpt><trkpt lat="44.3027776351836" lon="11.641141453114855"><ele>65.0</ele><time>2026-04-12T08:38:34.999Z</time></trkpt><trkpt lat="44.30265335262794" lon="11.641140601605942"><ele>65.0</ele><time>2026-04-12T08:38:36.999Z</time></trkpt><trkpt lat="44.302526604638494" lon="11.641133049123747"><ele>65.0</ele><time>2026-04-12T08:38:38.999Z</time></trkpt><trkpt lat="44.30245897729093" lon="11.641127782285954"><ele>65.0</ele><time>2026-04-12T08:38:39.999Z</time></trkpt><trkpt lat="44.30239373711543" lon="11.6411263725848"><ele>65.0</ele><time>2026-04-12T08:38:40.999Z</time></trkpt><trkpt lat="44.30232425612537" lon="11.641125976952344"><ele>65.00000000000001</ele><time>2026-04-12T08:38:41.999Z</time></trkpt><trkpt lat="44.3022567978421" lon="11.641125556137187"><ele>65.0</ele><time>2026-04-12T08:38:42.999Z</time></trkpt><trkpt lat="44.30219191779509" lon="11.641118960951713"><ele>65.0</ele><time>2026-04-12T08:38:43.999Z</time></trkpt><trkpt lat="44.3021265235499" lon="11.641110946569372"><ele>65.0</ele><time>2026-04-12T08:38:44.999Z</time></trkpt><trkpt lat="44.30206046696115" lon="11.641108055209955"><ele>65.0</ele><time>2026-04-12T08:38:45.999Z</time></trkpt><trkpt lat="44.30199189036389" lon="11.64110450098389"><ele>65.00000000000001</ele><time>2026-04-12T08:38:46.999Z</time></trkpt><trkpt lat="44.30192559650598" lon="11.641101247463743"><ele>65.0</ele><time>2026-04-12T08:38:47.999Z</time></trkpt><trkpt lat="44.30185709044769" lon="11.641095355428131"><ele>65.14285714285715</ele><time>2026-04-12T08:38:48.999Z</time></trkpt><trkpt lat="44.30178596906952" lon="11.641094119099611"><ele>65.28571428571429</ele><time>2026-04-12T08:38:49.999Z</time></trkpt><trkpt lat="44.30171927698915" lon="11.641086970912173"><ele>65.42857142857143</ele><time>2026-04-12T08:38:50.999Z</time></trkpt><trkpt lat="44.30164966788749" lon="11.641081496864961"><ele>65.57142857142858</ele><time>2026-04-12T08:38:51.999Z</time></trkpt><trkpt lat="44.30158481663721" lon="11.64107856012012"><ele>65.71428571428572</ele><time>2026-04-12T08:38:52.999Z</time></trkpt><trkpt lat="44.301514603955525" lon="11.641078000435055"><ele>65.85714285714286</ele><time>2026-04-12T08:38:53.999Z</time></trkpt><trkpt lat="44.30144445778058" lon="11.641073034506004"><ele>66.0</ele><time>2026-04-12T08:38:54.999Z</time></trkpt><trkpt lat="44.301374524522636" lon="11.64106721855909"><ele>66.14285714285714</ele><time>2026-04-12T08:38:55.999Z</time></trkpt><trkpt lat="44.30130443172919" lon="11.641064834402615"><ele>66.28571428571429</ele><time>2026-04-12T08:38:57Z</time></trkpt><trkpt lat="44.30123795987022" lon="11.641060183743875"><ele>66.42857142857143</ele><time>2026-04-12T08:38:58Z</time></trkpt><trkpt lat="44.30116699606906" lon="11.641054263378422"><ele>66.57142857142857</ele><time>2026-04-12T08:38:59Z</time></trkpt><trkpt lat="44.30109928507592" lon="11.641044556092481"><ele>66.71428571428571</ele><time>2026-04-12T08:39:00Z</time></trkpt><trkpt lat="44.3010323353155" lon="11.641043665385805"><ele>66.85714285714286</ele><time>2026-04-12T08:39:01Z</time></trkpt><trkpt lat="44.3009598377258" lon="11.64104097388567"><ele>67.0</ele><time>2026-04-12T08:39:02Z</time></trkpt><trkpt lat="44.30088747338163" lon="11.64103209921736"><ele>67.0</ele><time>2026-04-12T08:39:03Z</time></trkpt><trkpt lat="44.30081497081679" lon="11.641023580787824"><ele>67.0</ele><time>2026-04-12T08:39:04Z</time></trkpt><trkpt lat="44.300744438265525" lon="11.64101879358147"><ele>67.0</ele><time>2026-04-12T08:39:05Z</time></trkpt><trkpt lat="44.300675936375136" lon="11.641016491828037"><ele>67.0</ele><time>2026-04-12T08:39:06Z</time></trkpt><trkpt lat="44.3006069441982" lon="11.64101063392394"><ele>67.0</ele><time>2026-04-12T08:39:07Z</time></trkpt><trkpt lat="44.30053656445527" lon="11.641006195548883"><ele>67.0</ele><time>2026-04-12T08:39:08Z</time></trkpt><trkpt lat="44.30047012053881" lon="11.64100151724861"><ele>67.0</ele><time>2026-04-12T08:39:09Z</time></trkpt><trkpt lat="44.30039802954188" lon="11.640999902169394"><ele>67.0</ele><time>2026-04-12T08:39:10Z</time></trkpt><trkpt lat="44.30033071687882" lon="11.640995391883523"><ele>67.0</ele><time>2026-04-12T08:39:11Z</time></trkpt><trkpt lat="44.30025886887732" lon="11.640987586962686"><ele>67.0</ele><time>2026-04-12T08:39:12Z</time></trkpt><trkpt lat="44.30019161999304" lon="11.640983784200758"><ele>67.0</ele><time>2026-04-12T08:39:13Z</time></trkpt><trkpt lat="44.300127367703965" lon="11.640977589089365"><ele>67.0</ele><time>2026-04-12T08:39:14Z</time></trkpt><trkpt lat="44.30001052649838" lon="11.640962086901448"><ele>67.0</ele><time>2026-04-12T08:39:16Z</time></trkpt><trkpt lat="44.299912054567415" lon="11.641076125719506"><ele>67.0</ele><time>2026-04-12T08:39:18Z</time></trkpt><trkpt lat="44.299849347563075" lon="11.641066990306525"><ele>67.0</ele><time>2026-04-12T08:39:20Z</time></trkpt><trkpt lat="44.29978272457835" lon="11.641057284470966"><ele>67.0</ele><time>2026-04-12T08:39:22Z</time></trkpt><trkpt lat="44.29968759876391" lon="11.641081514942254"><ele>67.0</ele><time>2026-04-12T08:39:25Z</time></trkpt><trkpt lat="44.29962772765193" lon="11.641403470101274"><ele>66.85714285714286</ele><time>2026-04-12T08:39:26Z</time></trkpt><trkpt lat="44.299583792129745" lon="11.641467622633973"><ele>66.71428571428571</ele><time>2026-04-12T08:39:27Z</time></trkpt><trkpt lat="44.299538805198544" lon="11.641532244098121"><ele>66.57142857142857</ele><time>2026-04-12T08:39:28Z</time></trkpt><trkpt lat="44.29949250484347" lon="11.641598844086607"><ele>66.42857142857143</ele><time>2026-04-12T08:39:29Z</time></trkpt><trkpt lat="44.299449826186724" lon="11.641666977263352"><ele>66.28571428571429</ele><time>2026-04-12T08:39:30Z</time></trkpt><trkpt lat="44.2994069355507" lon="11.64173368961278"><ele>66.14285714285714</ele><time>2026-04-12T08:39:31Z</time></trkpt><trkpt lat="44.29936240650224" lon="11.641803359951856"><ele>66.0</ele><time>2026-04-12T08:39:32Z</time></trkpt><trkpt lat="44.299318039050384" lon="11.641869996346374"><ele>66.0</ele><time>2026-04-12T08:39:33Z</time></trkpt><trkpt lat="44.299272005654714" lon="11.641941036591627"><ele>66.0</ele><time>2026-04-12T08:39:34Z</time></trkpt><trkpt lat="44.29922760582877" lon="11.642010540071084"><ele>66.0</ele><time>2026-04-12T08:39:35Z</time></trkpt><trkpt lat="44.29918170675173" lon="11.642079716334035"><ele>66.0</ele><time>2026-04-12T08:39:36Z</time></trkpt><trkpt lat="44.29913625384623" lon="11.642149543073215"><ele>66.0</ele><time>2026-04-12T08:39:37Z</time></trkpt><trkpt lat="44.29909247074625" lon="11.6422198829231"><ele>66.0</ele><time>2026-04-12T08:39:38Z</time></trkpt><trkpt lat="44.29904924474158" lon="11.64228802466427"><ele>66.0</ele><time>2026-04-12T08:39:39Z</time></trkpt><trkpt lat="44.29900504506835" lon="11.642357674894196"><ele>66.0</ele><time>2026-04-12T08:39:40Z</time></trkpt><trkpt lat="44.29896008283443" lon="11.642428330850748"><ele>66.0</ele><time>2026-04-12T08:39:41Z</time></trkpt><trkpt lat="44.29891325701758" lon="11.64249320333471"><ele>66.0</ele><time>2026-04-12T08:39:42Z</time></trkpt><trkpt lat="44.29886584408604" lon="11.642561520957877"><ele>66.0</ele><time>2026-04-12T08:39:43Z</time></trkpt><trkpt lat="44.29880709525478" lon="11.642615102745328"><ele>66.0</ele><time>2026-04-12T08:39:44Z</time></trkpt><trkpt lat="44.29876135169213" lon="11.64268396682905"><ele>66.0</ele><time>2026-04-12T08:39:45Z</time></trkpt><trkpt lat="44.29871545720128" lon="11.642753058030964"><ele>66.0</ele><time>2026-04-12T08:39:46Z</time></trkpt><trkpt lat="44.29866869280792" lon="11.642823838548285"><ele>66.0</ele><time>2026-04-12T08:39:47Z</time></trkpt><trkpt lat="44.298621897541615" lon="11.642895073539435"><ele>66.0</ele><time>2026-04-12T08:39:48Z</time></trkpt><trkpt lat="44.298589321226274" lon="11.642977186946766"><ele>66.0</ele><time>2026-04-12T08:39:49Z</time></trkpt><trkpt lat="44.298542586865594" lon="11.643043655857275"><ele>66.0</ele><time>2026-04-12T08:39:50Z</time></trkpt><trkpt lat="44.29849990708898" lon="11.643112715168858"><ele>66.0</ele><time>2026-04-12T08:39:51Z</time></trkpt><trkpt lat="44.298453666428884" lon="11.64317898297804"><ele>66.0</ele><time>2026-04-12T08:39:52Z</time></trkpt><trkpt lat="44.298356153250346" lon="11.643307081494772"><ele>66.0</ele><time>2026-04-12T08:39:54Z</time></trkpt><trkpt lat="44.2982681159613" lon="11.643417907743606"><ele>66.0</ele><time>2026-04-12T08:39:56Z</time></trkpt><trkpt lat="44.298179238075186" lon="11.6435364976124"><ele>66.0</ele><time>2026-04-12T08:39:58Z</time></trkpt><trkpt lat="44.29808438155405" lon="11.643613276760428"><ele>66.0</ele><time>2026-04-12T08:40:00Z</time></trkpt><trkpt lat="44.29798142656778" lon="11.643619160359018"><ele>69.19999999999999</ele><time>2026-04-12T08:40:02Z</time></trkpt><trkpt lat="44.29787757743257" lon="11.643581530102296"><ele>72.39999999999999</ele><time>2026-04-12T08:40:04Z</time></trkpt><trkpt lat="44.29779148110352" lon="11.643518532721998"><ele>75.6</ele><time>2026-04-12T08:40:06Z</time></trkpt><trkpt lat="44.297710392828186" lon="11.643453327322854"><ele>78.8</ele><time>2026-04-12T08:40:08Z</time></trkpt><trkpt lat="44.29762571019997" lon="11.643394440779423"><ele>82.0</ele><time>2026-04-12T08:40:10Z</time></trkpt><trkpt lat="44.29754247864425" lon="11.64333524306226"><ele>82.0</ele><time>2026-04-12T08:40:12Z</time></trkpt><trkpt lat="44.29746524243565" lon="11.64327505342782"><ele>82.0</ele><time>2026-04-12T08:40:14Z</time></trkpt><trkpt lat="44.29738742546392" lon="11.643224344430191"><ele>82.0</ele><time>2026-04-12T08:40:16Z</time></trkpt><trkpt lat="44.297307528012965" lon="11.643156732633429"><ele>82.0</ele><time>2026-04-12T08:40:17.999Z</time></trkpt><trkpt lat="44.29722191361991" lon="11.643096718702795"><ele>82.0</ele><time>2026-04-12T08:40:19.999Z</time></trkpt><trkpt lat="44.29714886210856" lon="11.643036142736277"><ele>82.0</ele><time>2026-04-12T08:40:21.999Z</time></trkpt><trkpt lat="44.297058263523205" lon="11.64297293999102"><ele>82.6</ele><time>2026-04-12T08:40:23.999Z</time></trkpt><trkpt lat="44.29698150232606" lon="11.642917218073412"><ele>83.19999999999999</ele><time>2026-04-12T08:40:25.999Z</time></trkpt><trkpt lat="44.29689515096464" lon="11.642858334286482"><ele>83.8</ele><time>2026-04-12T08:40:27.999Z</time></trkpt><trkpt lat="44.296810958017744" lon="11.642794759103701"><ele>84.4</ele><time>2026-04-12T08:40:29.999Z</time></trkpt><trkpt lat="44.29672691584622" lon="11.642736372081764"><ele>85.0</ele><time>2026-04-12T08:40:31.999Z</time></trkpt><trkpt lat="44.296644715224524" lon="11.642677101839302"><ele>85.0</ele><time>2026-04-12T08:40:33.999Z</time></trkpt><trkpt lat="44.29656353414669" lon="11.642615592026848"><ele>85.0</ele><time>2026-04-12T08:40:35.999Z</time></trkpt><trkpt lat="44.29647676957062" lon="11.642557220271716"><ele>85.0</ele><time>2026-04-12T08:40:37.999Z</time></trkpt><trkpt lat="44.2963790404238" lon="11.642483864796487"><ele>85.0</ele><time>2026-04-12T08:40:39.999Z</time></trkpt><trkpt lat="44.29628561373151" lon="11.64240954378366"><ele>85.0</ele><time>2026-04-12T08:40:41.999Z</time></trkpt><trkpt lat="44.29618455767309" lon="11.642339633935235"><ele>85.25</ele><time>2026-04-12T08:40:43.999Z</time></trkpt><trkpt lat="44.29608585994039" lon="11.642269170467728"><ele>85.5</ele><time>2026-04-12T08:40:45.999Z</time></trkpt><trkpt lat="44.2959844462556" lon="11.64218908718472"><ele>85.75</ele><time>2026-04-12T08:40:47.999Z</time></trkpt><trkpt lat="44.295877929028514" lon="11.642125891909059"><ele>86.0</ele><time>2026-04-12T08:40:49.999Z</time></trkpt><trkpt lat="44.29576519467661" lon="11.642106741362541"><ele>86.0</ele><time>2026-04-12T08:40:51.999Z</time></trkpt><trkpt lat="44.295645816142375" lon="11.64214765459421"><ele>86.0</ele><time>2026-04-12T08:40:53.999Z</time></trkpt><trkpt lat="44.29553848328861" lon="11.642221088203696"><ele>86.0</ele><time>2026-04-12T08:40:55.999Z</time></trkpt><trkpt lat="44.295436356034436" lon="11.642313043618518"><ele>86.0</ele><time>2026-04-12T08:40:57.999Z</time></trkpt><trkpt lat="44.29533484853064" lon="11.642402264638168"><ele>87.0</ele><time>2026-04-12T08:40:59.999Z</time></trkpt><trkpt lat="44.29523418572657" lon="11.642485007553073"><ele>88.0</ele><time>2026-04-12T08:41:01.999Z</time></trkpt><trkpt lat="44.295139249748125" lon="11.642570306460133"><ele>89.0</ele><time>2026-04-12T08:41:04Z</time></trkpt><trkpt lat="44.29504071447199" lon="11.642651072044272"><ele>90.0</ele><time>2026-04-12T08:41:06Z</time></trkpt><trkpt lat="44.29494130207554" lon="11.642731126764293"><ele>90.5</ele><time>2026-04-12T08:41:08Z</time></trkpt><trkpt lat="44.294835792073194" lon="11.642799493626887"><ele>91.0</ele><time>2026-04-12T08:41:10Z</time></trkpt><trkpt lat="44.294726366174864" lon="11.642867278525552"><ele>91.5</ele><time>2026-04-12T08:41:12Z</time></trkpt><trkpt lat="44.294618489479646" lon="11.642929934860263"><ele>92.0</ele><time>2026-04-12T08:41:14Z</time></trkpt><trkpt lat="44.294512631789395" lon="11.642998549896266"><ele>92.19999999999999</ele><time>2026-04-12T08:41:16Z</time></trkpt><trkpt lat="44.29440911678933" lon="11.643064894697387"><ele>92.4</ele><time>2026-04-12T08:41:18Z</time></trkpt><trkpt lat="44.29432333277373" lon="11.643112511587606"><ele>92.6</ele><time>2026-04-12T08:41:20Z</time></trkpt><trkpt lat="44.29425159834351" lon="11.643111143372952"><ele>92.80000000000001</ele><time>2026-04-12T08:41:22Z</time></trkpt><trkpt lat="44.294229320860495" lon="11.642973162765859"><ele>93.0</ele><time>2026-04-12T08:41:23Z</time></trkpt><trkpt lat="44.294182713760286" lon="11.642842977817047"><ele>93.0</ele><time>2026-04-12T08:41:25Z</time></trkpt><trkpt lat="44.29412427015533" lon="11.642708196648545"><ele>93.0</ele><time>2026-04-12T08:41:27Z</time></trkpt><trkpt lat="44.29407037406801" lon="11.64256225170785"><ele>93.0</ele><time>2026-04-12T08:41:29Z</time></trkpt><trkpt lat="44.294016587552534" lon="11.642411371187242"><ele>93.0</ele><time>2026-04-12T08:41:31Z</time></trkpt><trkpt lat="44.29396991641793" lon="11.642257439346569"><ele>93.0</ele><time>2026-04-12T08:41:33Z</time></trkpt><trkpt lat="44.29394234639146" lon="11.642092268971314"><ele>93.0</ele><time>2026-04-12T08:41:35Z</time></trkpt><trkpt lat="44.29392505602977" lon="11.64191976004159"><ele>93.0</ele><time>2026-04-12T08:41:37Z</time></trkpt><trkpt lat="44.29391412807717" lon="11.641830785267416"><ele>93.0</ele><time>2026-04-12T08:41:38Z</time></trkpt><trkpt lat="44.293903022555604" lon="11.64174053336389"><ele>93.0</ele><time>2026-04-12T08:41:39Z</time></trkpt><trkpt lat="44.293871467944214" lon="11.641594088669757"><ele>92.85714285714286</ele><time>2026-04-12T08:41:41Z</time></trkpt><trkpt lat="44.29385848898061" lon="11.6414930364168"><ele>92.71428571428572</ele><time>2026-04-12T08:41:42Z</time></trkpt><trkpt lat="44.29383622834966" lon="11.641401498725104"><ele>92.57142857142858</ele><time>2026-04-12T08:41:43Z</time></trkpt><trkpt lat="44.29380370756833" lon="11.641306324436806"><ele>92.42857142857143</ele><time>2026-04-12T08:41:44Z</time></trkpt><trkpt lat="44.29376887240781" lon="11.641220710438278"><ele>92.28571428571428</ele><time>2026-04-12T08:41:45Z</time></trkpt><trkpt lat="44.29373043623324" lon="11.641133989603413"><ele>92.14285714285715</ele><time>2026-04-12T08:41:46Z</time></trkpt><trkpt lat="44.29370408773373" lon="11.641037421139329"><ele>92.0</ele><time>2026-04-12T08:41:47Z</time></trkpt><trkpt lat="44.29365244236563" lon="11.640950537334124"><ele>92.0</ele><time>2026-04-12T08:41:48Z</time></trkpt><trkpt lat="44.293609682925684" lon="11.640853122935914"><ele>92.0</ele><time>2026-04-12T08:41:49Z</time></trkpt><trkpt lat="44.293566376222394" lon="11.640756501884773"><ele>92.0</ele><time>2026-04-12T08:41:50Z</time></trkpt><trkpt lat="44.293523915287494" lon="11.640659137546308"><ele>92.0</ele><time>2026-04-12T08:41:51Z</time></trkpt><trkpt lat="44.29348102461695" lon="11.640556317702575"><ele>92.0</ele><time>2026-04-12T08:41:52Z</time></trkpt><trkpt lat="44.29343216532206" lon="11.640454397560656"><ele>92.0</ele><time>2026-04-12T08:41:53Z</time></trkpt><trkpt lat="44.29338876089012" lon="11.640350195651697"><ele>91.33333333333334</ele><time>2026-04-12T08:41:54Z</time></trkpt><trkpt lat="44.29334239660413" lon="11.640246781770928"><ele>90.66666666666667</ele><time>2026-04-12T08:41:55Z</time></trkpt><trkpt lat="44.293294098851746" lon="11.640143624953092"><ele>90.0</ele><time>2026-04-12T08:41:56Z</time></trkpt><trkpt lat="44.2932443252148" lon="11.640037865377836"><ele>89.33333333333333</ele><time>2026-04-12T08:41:57Z</time></trkpt><trkpt lat="44.29319311505657" lon="11.639932787143696"><ele>88.66666666666666</ele><time>2026-04-12T08:41:58Z</time></trkpt><trkpt lat="44.2931369263433" lon="11.639830609627289"><ele>88.0</ele><time>2026-04-12T08:41:59Z</time></trkpt><trkpt lat="44.29307837354408" lon="11.639728167811207"><ele>88.0</ele><time>2026-04-12T08:42:00Z</time></trkpt><trkpt lat="44.293019213908785" lon="11.639627955053276"><ele>88.0</ele><time>2026-04-12T08:42:01Z</time></trkpt><trkpt lat="44.29295829601354" lon="11.639532782249352"><ele>88.0</ele><time>2026-04-12T08:42:02Z</time></trkpt><trkpt lat="44.29289857654038" lon="11.639436323724805"><ele>88.0</ele><time>2026-04-12T08:42:03Z</time></trkpt><trkpt lat="44.29283467782126" lon="11.639338351745831"><ele>88.0</ele><time>2026-04-12T08:42:04Z</time></trkpt><trkpt lat="44.292773574772994" lon="11.639242597706946"><ele>87.16666666666666</ele><time>2026-04-12T08:42:05Z</time></trkpt><trkpt lat="44.29271276968343" lon="11.639150072607134"><ele>86.33333333333333</ele><time>2026-04-12T08:42:06Z</time></trkpt><trkpt lat="44.29265485461158" lon="11.639056657584986"><ele>85.5</ele><time>2026-04-12T08:42:07Z</time></trkpt><trkpt lat="44.29260004665054" lon="11.63896046426456"><ele>84.66666666666667</ele><time>2026-04-12T08:42:08Z</time></trkpt><trkpt lat="44.29253911346482" lon="11.638863945346733"><ele>83.83333333333334</ele><time>2026-04-12T08:42:09Z</time></trkpt><trkpt lat="44.29248138790382" lon="11.63877185467337"><ele>83.0</ele><time>2026-04-12T08:42:10Z</time></trkpt><trkpt lat="44.29242047537742" lon="11.63867930501257"><ele>82.83333333333334</ele><time>2026-04-12T08:42:11Z</time></trkpt><trkpt lat="44.292363416597496" lon="11.638588161303753"><ele>82.66666666666667</ele><time>2026-04-12T08:42:12Z</time></trkpt><trkpt lat="44.292305929673496" lon="11.638495676158666"><ele>82.5</ele><time>2026-04-12T08:42:13Z</time></trkpt><trkpt lat="44.29224762240542" lon="11.638402346744813"><ele>82.33333333333333</ele><time>2026-04-12T08:42:14Z</time></trkpt><trkpt lat="44.292190890598334" lon="11.638307680187209"><ele>82.16666666666666</ele><time>2026-04-12T08:42:15Z</time></trkpt><trkpt lat="44.292136329850315" lon="11.638214679037722"><ele>82.0</ele><time>2026-04-12T08:42:16Z</time></trkpt><trkpt lat="44.29207472828594" lon="11.638122992907789"><ele>82.0</ele><time>2026-04-12T08:42:17Z</time></trkpt><trkpt lat="44.29201678471453" lon="11.6380315634514"><ele>82.0</ele><time>2026-04-12T08:42:17.999Z</time></trkpt><trkpt lat="44.29195831346167" lon="11.637939227446918"><ele>82.0</ele><time>2026-04-12T08:42:18.999Z</time></trkpt><trkpt lat="44.291899274585646" lon="11.63784529706088"><ele>82.0</ele><time>2026-04-12T08:42:19.999Z</time></trkpt><trkpt lat="44.291840537642635" lon="11.637749071866102"><ele>82.0</ele><time>2026-04-12T08:42:20.999Z</time></trkpt><trkpt lat="44.291781223130464" lon="11.637652606462938"><ele>82.0</ele><time>2026-04-12T08:42:21.999Z</time></trkpt><trkpt lat="44.2917288585859" lon="11.637565992361237"><ele>82.0</ele><time>2026-04-12T08:42:22.999Z</time></trkpt><trkpt lat="44.291670777551964" lon="11.637470542402705"><ele>82.0</ele><time>2026-04-12T08:42:23.999Z</time></trkpt><trkpt lat="44.29161214031837" lon="11.637374174685025"><ele>82.0</ele><time>2026-04-12T08:42:24.999Z</time></trkpt><trkpt lat="44.29155275922667" lon="11.637285480987414"><ele>82.0</ele><time>2026-04-12T08:42:25.999Z</time></trkpt><trkpt lat="44.291499052417905" lon="11.637198402895404"><ele>82.0</ele><time>2026-04-12T08:42:26.999Z</time></trkpt><trkpt lat="44.2914431042091" lon="11.637106845487018"><ele>82.0</ele><time>2026-04-12T08:42:27.999Z</time></trkpt><trkpt lat="44.29138834222828" lon="11.637017558446361"><ele>81.66666666666666</ele><time>2026-04-12T08:42:28.999Z</time></trkpt><trkpt lat="44.29133207589753" lon="11.63692962793909"><ele>81.33333333333333</ele><time>2026-04-12T08:42:29.999Z</time></trkpt><trkpt lat="44.29128042422547" lon="11.636843204204787"><ele>81.0</ele><time>2026-04-12T08:42:30.999Z</time></trkpt><trkpt lat="44.29122806986745" lon="11.636759452365718"><ele>80.66666666666667</ele><time>2026-04-12T08:42:31.999Z</time></trkpt><trkpt lat="44.29117489945647" lon="11.636672597245745"><ele>80.33333333333334</ele><time>2026-04-12T08:42:32.999Z</time></trkpt><trkpt lat="44.291125790723044" lon="11.636584126049318"><ele>80.0</ele><time>2026-04-12T08:42:33.999Z</time></trkpt><trkpt lat="44.29107308443795" lon="11.636502490643702"><ele>80.0</ele><time>2026-04-12T08:42:34.999Z</time></trkpt><trkpt lat="44.29102310703607" lon="11.6364209325671"><ele>80.0</ele><time>2026-04-12T08:42:35.999Z</time></trkpt><trkpt lat="44.29096838692686" lon="11.636330769703589"><ele>80.0</ele><time>2026-04-12T08:42:36.999Z</time></trkpt><trkpt lat="44.2909183482252" lon="11.636248588115558"><ele>80.0</ele><time>2026-04-12T08:42:37.999Z</time></trkpt><trkpt lat="44.29086462897842" lon="11.636161976055796"><ele>80.0</ele><time>2026-04-12T08:42:38.999Z</time></trkpt><trkpt lat="44.29081372136274" lon="11.636080037763195"><ele>80.0</ele><time>2026-04-12T08:42:39.999Z</time></trkpt><trkpt lat="44.290761070260686" lon="11.635997324224347"><ele>80.16666666666667</ele><time>2026-04-12T08:42:40.999Z</time></trkpt><trkpt lat="44.29071204438753" lon="11.635916236248786"><ele>80.33333333333334</ele><time>2026-04-12T08:42:41.999Z</time></trkpt><trkpt lat="44.290662912258455" lon="11.635835293457886"><ele>80.5</ele><time>2026-04-12T08:42:42.999Z</time></trkpt><trkpt lat="44.29061276463479" lon="11.635756682432724"><ele>80.66666666666667</ele><time>2026-04-12T08:42:43.999Z</time></trkpt><trkpt lat="44.29056305774851" lon="11.635677211271481"><ele>80.83333333333333</ele><time>2026-04-12T08:42:44.999Z</time></trkpt><trkpt lat="44.29051502089309" lon="11.635598051988177"><ele>81.0</ele><time>2026-04-12T08:42:45.999Z</time></trkpt><trkpt lat="44.29046709408605" lon="11.635518831293863"><ele>81.0</ele><time>2026-04-12T08:42:46.999Z</time></trkpt><trkpt lat="44.2904191235634" lon="11.635440078441283"><ele>81.0</ele><time>2026-04-12T08:42:47.999Z</time></trkpt><trkpt lat="44.29037269861717" lon="11.635359287640943"><ele>81.0</ele><time>2026-04-12T08:42:48.999Z</time></trkpt><trkpt lat="44.29032562015826" lon="11.635282236640297"><ele>81.0</ele><time>2026-04-12T08:42:49.999Z</time></trkpt><trkpt lat="44.29027640373728" lon="11.635205328585794"><ele>81.0</ele><time>2026-04-12T08:42:50.999Z</time></trkpt><trkpt lat="44.29022715276482" lon="11.635126204864385"><ele>81.0</ele><time>2026-04-12T08:42:51.999Z</time></trkpt><trkpt lat="44.29017868808487" lon="11.635043885045054"><ele>81.0</ele><time>2026-04-12T08:42:52.999Z</time></trkpt><trkpt lat="44.29012911351425" lon="11.634964362355387"><ele>81.0</ele><time>2026-04-12T08:42:53.999Z</time></trkpt><trkpt lat="44.29008107475589" lon="11.634886100831686"><ele>81.0</ele><time>2026-04-12T08:42:54.999Z</time></trkpt><trkpt lat="44.29003603352518" lon="11.63480829445169"><ele>81.0</ele><time>2026-04-12T08:42:55.999Z</time></trkpt><trkpt lat="44.28998682673502" lon="11.634729024262969"><ele>81.0</ele><time>2026-04-12T08:42:56.999Z</time></trkpt><trkpt lat="44.289940274975535" lon="11.634653632559006"><ele>81.0</ele><time>2026-04-12T08:42:57.999Z</time></trkpt><trkpt lat="44.289891294426" lon="11.63457605437969"><ele>81.0</ele><time>2026-04-12T08:42:58.999Z</time></trkpt><trkpt lat="44.28984062100337" lon="11.634499574999138"><ele>81.0</ele><time>2026-04-12T08:42:59.999Z</time></trkpt><trkpt lat="44.28979176660509" lon="11.634421197652996"><ele>81.14285714285714</ele><time>2026-04-12T08:43:00.999Z</time></trkpt><trkpt lat="44.28974485495746" lon="11.634341169008966"><ele>81.28571428571428</ele><time>2026-04-12T08:43:01.999Z</time></trkpt><trkpt lat="44.28969730657437" lon="11.634263812102429"><ele>81.42857142857142</ele><time>2026-04-12T08:43:02.999Z</time></trkpt><trkpt lat="44.28964855766861" lon="11.634181285554853"><ele>81.57142857142857</ele><time>2026-04-12T08:43:03.999Z</time></trkpt><trkpt lat="44.28959903485104" lon="11.634101244347384"><ele>81.71428571428571</ele><time>2026-04-12T08:43:04.999Z</time></trkpt><trkpt lat="44.289550491076284" lon="11.634023237133999"><ele>81.85714285714285</ele><time>2026-04-12T08:43:05.999Z</time></trkpt><trkpt lat="44.2895012096441" lon="11.633942468799342"><ele>82.0</ele><time>2026-04-12T08:43:06.999Z</time></trkpt><trkpt lat="44.28945240043866" lon="11.6338607125617"><ele>82.0</ele><time>2026-04-12T08:43:07.999Z</time></trkpt><trkpt lat="44.289402240712754" lon="11.633779747749807"><ele>82.0</ele><time>2026-04-12T08:43:09Z</time></trkpt><trkpt lat="44.28935258271105" lon="11.633700100400171"><ele>82.0</ele><time>2026-04-12T08:43:10Z</time></trkpt><trkpt lat="44.28930347551176" lon="11.63362360398069"><ele>82.0</ele><time>2026-04-12T08:43:11Z</time></trkpt><trkpt lat="44.28925274810404" lon="11.633546263848555"><ele>82.0</ele><time>2026-04-12T08:43:12Z</time></trkpt><trkpt lat="44.28920270585028" lon="11.633462292480832"><ele>82.0</ele><time>2026-04-12T08:43:13Z</time></trkpt><trkpt lat="44.28915219226077" lon="11.63338057907802"><ele>82.0</ele><time>2026-04-12T08:43:14Z</time></trkpt><trkpt lat="44.28910346861716" lon="11.633300497263933"><ele>82.0</ele><time>2026-04-12T08:43:15Z</time></trkpt><trkpt lat="44.289054853395015" lon="11.633219895751616"><ele>82.0</ele><time>2026-04-12T08:43:16Z</time></trkpt><trkpt lat="44.289005726388446" lon="11.63313941308356"><ele>82.0</ele><time>2026-04-12T08:43:17Z</time></trkpt><trkpt lat="44.288957076134096" lon="11.633059290753236"><ele>82.0</ele><time>2026-04-12T08:43:18Z</time></trkpt><trkpt lat="44.28890683175689" lon="11.632985028879439"><ele>82.0</ele><time>2026-04-12T08:43:19Z</time></trkpt><trkpt lat="44.288854445076275" lon="11.63290757533948"><ele>82.0</ele><time>2026-04-12T08:43:20Z</time></trkpt><trkpt lat="44.28880352581309" lon="11.632820585610416"><ele>82.0</ele><time>2026-04-12T08:43:21Z</time></trkpt><trkpt lat="44.28875643029452" lon="11.632740434448896"><ele>82.0</ele><time>2026-04-12T08:43:22Z</time></trkpt><trkpt lat="44.28870972413261" lon="11.632661748613714"><ele>82.0</ele><time>2026-04-12T08:43:23Z</time></trkpt><trkpt lat="44.288659974658685" lon="11.632583793811962"><ele>82.0</ele><time>2026-04-12T08:43:24Z</time></trkpt><trkpt lat="44.28860426913732" lon="11.63251359067807"><ele>82.0</ele><time>2026-04-12T08:43:25Z</time></trkpt><trkpt lat="44.28855238970899" lon="11.632442383534283"><ele>81.99999999999999</ele><time>2026-04-12T08:43:26Z</time></trkpt><trkpt lat="44.28849606382715" lon="11.632370130021888"><ele>82.0</ele><time>2026-04-12T08:43:27Z</time></trkpt><trkpt lat="44.28844455818649" lon="11.63230036536072"><ele>82.0</ele><time>2026-04-12T08:43:28Z</time></trkpt><trkpt lat="44.28838963760306" lon="11.632233053434065"><ele>82.0</ele><time>2026-04-12T08:43:29Z</time></trkpt><trkpt lat="44.28834407804548" lon="11.632170101665675"><ele>82.0</ele><time>2026-04-12T08:43:30Z</time></trkpt><trkpt lat="44.28828623630641" lon="11.632101825073391"><ele>81.99999999999999</ele><time>2026-04-12T08:43:31Z</time></trkpt><trkpt lat="44.28823239854119" lon="11.63203975967003"><ele>82.0</ele><time>2026-04-12T08:43:32Z</time></trkpt><trkpt lat="44.28817274550445" lon="11.631968122438538"><ele>82.66666666666666</ele><time>2026-04-12T08:43:33Z</time></trkpt><trkpt lat="44.28811295816125" lon="11.631897908428437"><ele>83.33333333333333</ele><time>2026-04-12T08:43:34Z</time></trkpt><trkpt lat="44.28805768090076" lon="11.631840476270112"><ele>84.0</ele><time>2026-04-12T08:43:35Z</time></trkpt><trkpt lat="44.28799659809143" lon="11.631783064155796"><ele>84.66666666666667</ele><time>2026-04-12T08:43:36Z</time></trkpt><trkpt lat="44.28793331847991" lon="11.631714136027346"><ele>85.33333333333334</ele><time>2026-04-12T08:43:37Z</time></trkpt><trkpt lat="44.28787066995667" lon="11.631650171224559"><ele>86.0</ele><time>2026-04-12T08:43:38Z</time></trkpt><trkpt lat="44.28781061052358" lon="11.631591480304875"><ele>86.0</ele><time>2026-04-12T08:43:39Z</time></trkpt><trkpt lat="44.28774913342521" lon="11.631529516090827"><ele>86.0</ele><time>2026-04-12T08:43:40Z</time></trkpt><trkpt lat="44.28768649987982" lon="11.63146998502322"><ele>86.0</ele><time>2026-04-12T08:43:41Z</time></trkpt><trkpt lat="44.28762234619067" lon="11.631408635145306"><ele>86.0</ele><time>2026-04-12T08:43:42Z</time></trkpt><trkpt lat="44.28755811674567" lon="11.631349477517976"><ele>86.0</ele><time>2026-04-12T08:43:43Z</time></trkpt><trkpt lat="44.287494226347114" lon="11.631289351292468"><ele>86.0</ele><time>2026-04-12T08:43:44Z</time></trkpt><trkpt lat="44.28743079423843" lon="11.63122629395685"><ele>86.0</ele><time>2026-04-12T08:43:45Z</time></trkpt><trkpt lat="44.28736747597248" lon="11.631165418051905"><ele>86.0</ele><time>2026-04-12T08:43:46Z</time></trkpt><trkpt lat="44.28730412995037" lon="11.631099494350362"><ele>86.0</ele><time>2026-04-12T08:43:47Z</time></trkpt><trkpt lat="44.28724295681351" lon="11.63104275635434"><ele>86.0</ele><time>2026-04-12T08:43:48Z</time></trkpt><trkpt lat="44.28717997762899" lon="11.6309795152735"><ele>86.0</ele><time>2026-04-12T08:43:49Z</time></trkpt><trkpt lat="44.287116063114226" lon="11.630917661916802"><ele>86.0</ele><time>2026-04-12T08:43:50Z</time></trkpt><trkpt lat="44.28705473014222" lon="11.630859385374729"><ele>86.0</ele><time>2026-04-12T08:43:51Z</time></trkpt><trkpt lat="44.28698974830372" lon="11.630797161237515"><ele>86.0</ele><time>2026-04-12T08:43:52Z</time></trkpt><trkpt lat="44.286925482013665" lon="11.630735467115915"><ele>86.0</ele><time>2026-04-12T08:43:53Z</time></trkpt><trkpt lat="44.286860249701704" lon="11.630672809972268"><ele>86.0</ele><time>2026-04-12T08:43:54Z</time></trkpt><trkpt lat="44.28679754025066" lon="11.630611924234328"><ele>86.0</ele><time>2026-04-12T08:43:55Z</time></trkpt><trkpt lat="44.286735330471366" lon="11.63054935401749"><ele>86.0</ele><time>2026-04-12T08:43:56Z</time></trkpt><trkpt lat="44.28667214400255" lon="11.630481256186695"><ele>86.0</ele><time>2026-04-12T08:43:57Z</time></trkpt><trkpt lat="44.286608631694804" lon="11.630417076562152"><ele>86.0</ele><time>2026-04-12T08:43:58Z</time></trkpt><trkpt lat="44.28654683809778" lon="11.630350799001707"><ele>86.0</ele><time>2026-04-12T08:43:59Z</time></trkpt><trkpt lat="44.28648840676511" lon="11.630278718245396"><ele>86.0</ele><time>2026-04-12T08:44:00Z</time></trkpt><trkpt lat="44.286430953181934" lon="11.630201134512472"><ele>86.0</ele><time>2026-04-12T08:44:01Z</time></trkpt><trkpt lat="44.28637725508137" lon="11.630124171395387"><ele>86.0</ele><time>2026-04-12T08:44:02Z</time></trkpt><trkpt lat="44.286332761139725" lon="11.63003101434411"><ele>86.5</ele><time>2026-04-12T08:44:03Z</time></trkpt><trkpt lat="44.28628675916857" lon="11.629941196948455"><ele>87.0</ele><time>2026-04-12T08:44:04Z</time></trkpt><trkpt lat="44.286248598301775" lon="11.629850051610008"><ele>87.5</ele><time>2026-04-12T08:44:05Z</time></trkpt><trkpt lat="44.28621222282372" lon="11.62975382516658"><ele>88.0</ele><time>2026-04-12T08:44:06Z</time></trkpt><trkpt lat="44.28617813941027" lon="11.629654364855888"><ele>88.5</ele><time>2026-04-12T08:44:07Z</time></trkpt><trkpt lat="44.28614308874292" lon="11.629552762160804"><ele>89.0</ele><time>2026-04-12T08:44:08Z</time></trkpt><trkpt lat="44.286108082909884" lon="11.629452950329394"><ele>87.66666666666667</ele><time>2026-04-12T08:44:09Z</time></trkpt><trkpt lat="44.28607226167208" lon="11.62935117958713"><ele>86.33333333333334</ele><time>2026-04-12T08:44:10Z</time></trkpt><trkpt lat="44.286040638947576" lon="11.629257184723894"><ele>85.0</ele><time>2026-04-12T08:44:11Z</time></trkpt><trkpt lat="44.28600749838518" lon="11.629159734915904"><ele>83.66666666666667</ele><time>2026-04-12T08:44:12Z</time></trkpt><trkpt lat="44.28597526666275" lon="11.629066260594316"><ele>82.33333333333333</ele><time>2026-04-12T08:44:13Z</time></trkpt><trkpt lat="44.28594233736469" lon="11.62897760167848"><ele>81.0</ele><time>2026-04-12T08:44:14Z</time></trkpt><trkpt lat="44.28591143463593" lon="11.628873844801461"><ele>81.0</ele><time>2026-04-12T08:44:15Z</time></trkpt><trkpt lat="44.28588193370019" lon="11.628781798623482"><ele>81.0</ele><time>2026-04-12T08:44:16Z</time></trkpt><trkpt lat="44.28584744990367" lon="11.628687868696511"><ele>81.0</ele><time>2026-04-12T08:44:17Z</time></trkpt><trkpt lat="44.28581504423171" lon="11.628590800266403"><ele>81.0</ele><time>2026-04-12T08:44:18Z</time></trkpt><trkpt lat="44.285781352454954" lon="11.628491955032485"><ele>81.0</ele><time>2026-04-12T08:44:19Z</time></trkpt><trkpt lat="44.285748347117305" lon="11.628393095673582"><ele>81.0</ele><time>2026-04-12T08:44:20Z</time></trkpt><trkpt lat="44.285715528375704" lon="11.628295010764836"><ele>81.0</ele><time>2026-04-12T08:44:21Z</time></trkpt><trkpt lat="44.28568039645625" lon="11.628197453722315"><ele>81.0</ele><time>2026-04-12T08:44:22Z</time></trkpt><trkpt lat="44.28564710516631" lon="11.628097265556333"><ele>81.0</ele><time>2026-04-12T08:44:23Z</time></trkpt><trkpt lat="44.28561664030866" lon="11.628002483571379"><ele>81.0</ele><time>2026-04-12T08:44:24Z</time></trkpt><trkpt lat="44.28557933324149" lon="11.627905029606085"><ele>81.0</ele><time>2026-04-12T08:44:25Z</time></trkpt><trkpt lat="44.28554675588638" lon="11.627806441088435"><ele>81.0</ele><time>2026-04-12T08:44:26Z</time></trkpt><trkpt lat="44.285514430974445" lon="11.627706824030756"><ele>81.0</ele><time>2026-04-12T08:44:27Z</time></trkpt><trkpt lat="44.28548098430146" lon="11.627609772720856"><ele>81.0</ele><time>2026-04-12T08:44:28Z</time></trkpt><trkpt lat="44.28544669679593" lon="11.627508557299933"><ele>81.0</ele><time>2026-04-12T08:44:29Z</time></trkpt><trkpt lat="44.28540960939705" lon="11.62740667945184"><ele>81.0</ele><time>2026-04-12T08:44:30Z</time></trkpt><trkpt lat="44.28537738290278" lon="11.627306517098988"><ele>81.0</ele><time>2026-04-12T08:44:31Z</time></trkpt><trkpt lat="44.285342260515776" lon="11.627205576524007"><ele>81.0</ele><time>2026-04-12T08:44:32Z</time></trkpt><trkpt lat="44.285307204116144" lon="11.627103860693762"><ele>81.0</ele><time>2026-04-12T08:44:33Z</time></trkpt><trkpt lat="44.285273920990306" lon="11.627004733124021"><ele>81.0</ele><time>2026-04-12T08:44:33.999Z</time></trkpt><trkpt lat="44.28523871282545" lon="11.626905961822539"><ele>81.0</ele><time>2026-04-12T08:44:34.999Z</time></trkpt><trkpt lat="44.285203961364836" lon="11.626807542090834"><ele>81.0</ele><time>2026-04-12T08:44:35.999Z</time></trkpt><trkpt lat="44.285170140723594" lon="11.626710409393286"><ele>81.0</ele><time>2026-04-12T08:44:36.999Z</time></trkpt><trkpt lat="44.28513546835826" lon="11.626611920291063"><ele>81.0</ele><time>2026-04-12T08:44:37.999Z</time></trkpt><trkpt lat="44.28510376337444" lon="11.626513685738871"><ele>80.5</ele><time>2026-04-12T08:44:38.999Z</time></trkpt><trkpt lat="44.28507176386337" lon="11.626414416302556"><ele>80.0</ele><time>2026-04-12T08:44:39.999Z</time></trkpt><trkpt lat="44.28503783221137" lon="11.626314531973748"><ele>79.5</ele><time>2026-04-12T08:44:40.999Z</time></trkpt><trkpt lat="44.28500656536311" lon="11.626216947510681"><ele>79.0</ele><time>2026-04-12T08:44:41.999Z</time></trkpt><trkpt lat="44.284972996071815" lon="11.626118350930778"><ele>78.5</ele><time>2026-04-12T08:44:42.999Z</time></trkpt><trkpt lat="44.284937636131865" lon="11.626017875806761"><ele>78.0</ele><time>2026-04-12T08:44:43.999Z</time></trkpt><trkpt lat="44.28490520759344" lon="11.625919598008508"><ele>78.0</ele><time>2026-04-12T08:44:44.999Z</time></trkpt><trkpt lat="44.28487091445015" lon="11.625818950018914"><ele>78.0</ele><time>2026-04-12T08:44:45.999Z</time></trkpt><trkpt lat="44.284838212645454" lon="11.625721840223159"><ele>78.0</ele><time>2026-04-12T08:44:46.999Z</time></trkpt><trkpt lat="44.284802572642626" lon="11.625621180378445"><ele>78.0</ele><time>2026-04-12T08:44:47.999Z</time></trkpt><trkpt lat="44.284768425186776" lon="11.625523058819962"><ele>78.0</ele><time>2026-04-12T08:44:48.999Z</time></trkpt><trkpt lat="44.28473502488698" lon="11.625422346993425"><ele>78.0</ele><time>2026-04-12T08:44:49.999Z</time></trkpt><trkpt lat="44.28470231707638" lon="11.625323384678627"><ele>78.83333333333333</ele><time>2026-04-12T08:44:50.999Z</time></trkpt><trkpt lat="44.28467061131734" lon="11.625226780885916"><ele>79.66666666666667</ele><time>2026-04-12T08:44:51.999Z</time></trkpt><trkpt lat="44.28463617196371" lon="11.625129547811056"><ele>80.5</ele><time>2026-04-12T08:44:52.999Z</time></trkpt><trkpt lat="44.28460378989004" lon="11.62503142188845"><ele>81.33333333333334</ele><time>2026-04-12T08:44:53.999Z</time></trkpt><trkpt lat="44.28457201263813" lon="11.624936407338835"><ele>82.16666666666667</ele><time>2026-04-12T08:44:54.999Z</time></trkpt><trkpt lat="44.28453792119649" lon="11.624837765318953"><ele>83.0</ele><time>2026-04-12T08:44:55.999Z</time></trkpt><trkpt lat="44.28450665727086" lon="11.624740788083686"><ele>83.0</ele><time>2026-04-12T08:44:56.999Z</time></trkpt><trkpt lat="44.284471794509756" lon="11.624641856207303"><ele>83.0</ele><time>2026-04-12T08:44:57.999Z</time></trkpt><trkpt lat="44.28444058647273" lon="11.624541641446765"><ele>83.0</ele><time>2026-04-12T08:44:58.999Z</time></trkpt><trkpt lat="44.28440847955933" lon="11.624443672890866"><ele>83.0</ele><time>2026-04-12T08:44:59.999Z</time></trkpt><trkpt lat="44.28437592969201" lon="11.624342892676363"><ele>83.0</ele><time>2026-04-12T08:45:00.999Z</time></trkpt><trkpt lat="44.28434459088478" lon="11.624240381559982"><ele>83.0</ele><time>2026-04-12T08:45:01.999Z</time></trkpt><trkpt lat="44.28431245088591" lon="11.624139751957934"><ele>82.66666666666667</ele><time>2026-04-12T08:45:02.999Z</time></trkpt><trkpt lat="44.284281255316195" lon="11.624038099095205"><ele>82.33333333333334</ele><time>2026-04-12T08:45:03.999Z</time></trkpt><trkpt lat="44.28425241845544" lon="11.62393941101851"><ele>82.0</ele><time>2026-04-12T08:45:04.999Z</time></trkpt><trkpt lat="44.284220645354374" lon="11.62383866480069"><ele>81.66666666666667</ele><time>2026-04-12T08:45:05.999Z</time></trkpt><trkpt lat="44.28419148876284" lon="11.623737092994796"><ele>81.33333333333333</ele><time>2026-04-12T08:45:06.999Z</time></trkpt><trkpt lat="44.284162176750755" lon="11.623633341223366"><ele>81.0</ele><time>2026-04-12T08:45:07.999Z</time></trkpt><trkpt lat="44.28413371098172" lon="11.623535011631947"><ele>80.5</ele><time>2026-04-12T08:45:08.999Z</time></trkpt><trkpt lat="44.284108713208475" lon="11.623436904322508"><ele>80.0</ele><time>2026-04-12T08:45:09.999Z</time></trkpt><trkpt lat="44.28408078910126" lon="11.623336170073102"><ele>79.5</ele><time>2026-04-12T08:45:10.999Z</time></trkpt><trkpt lat="44.284054213055775" lon="11.623232438222033"><ele>79.0</ele><time>2026-04-12T08:45:11.999Z</time></trkpt><trkpt lat="44.28402281861279" lon="11.623126268705038"><ele>78.5</ele><time>2026-04-12T08:45:12.999Z</time></trkpt><trkpt lat="44.28399370972016" lon="11.623025122877777"><ele>78.0</ele><time>2026-04-12T08:45:13.999Z</time></trkpt><trkpt lat="44.28396588968826" lon="11.62292024281119"><ele>78.0</ele><time>2026-04-12T08:45:15Z</time></trkpt><trkpt lat="44.28393991131651" lon="11.622820133400573"><ele>78.0</ele><time>2026-04-12T08:45:16Z</time></trkpt><trkpt lat="44.28391240554126" lon="11.622717284511204"><ele>78.0</ele><time>2026-04-12T08:45:17Z</time></trkpt><trkpt lat="44.28388490631123" lon="11.622614295188392"><ele>78.0</ele><time>2026-04-12T08:45:18Z</time></trkpt><trkpt lat="44.28385444740061" lon="11.622514044986096"><ele>78.0</ele><time>2026-04-12T08:45:19Z</time></trkpt><trkpt lat="44.28382923337305" lon="11.622408690145024"><ele>78.0</ele><time>2026-04-12T08:45:20Z</time></trkpt><trkpt lat="44.28380416305406" lon="11.622308449469669"><ele>78.16666666666667</ele><time>2026-04-12T08:45:21Z</time></trkpt><trkpt lat="44.28377807496065" lon="11.622210643563847"><ele>78.33333333333333</ele><time>2026-04-12T08:45:22Z</time></trkpt><trkpt lat="44.28375145745931" lon="11.622113594768187"><ele>78.5</ele><time>2026-04-12T08:45:23Z</time></trkpt><trkpt lat="44.28372484482515" lon="11.622013627727634"><ele>78.66666666666666</ele><time>2026-04-12T08:45:24Z</time></trkpt><trkpt lat="44.283699113864685" lon="11.621915447730585"><ele>78.83333333333333</ele><time>2026-04-12T08:45:25Z</time></trkpt><trkpt lat="44.28367332981547" lon="11.621810345896185"><ele>79.0</ele><time>2026-04-12T08:45:26Z</time></trkpt><trkpt lat="44.28365133563228" lon="11.62171432369859"><ele>79.00000000000001</ele><time>2026-04-12T08:45:27Z</time></trkpt><trkpt lat="44.28362520944669" lon="11.62161294321088"><ele>79.0</ele><time>2026-04-12T08:45:28Z</time></trkpt><trkpt lat="44.28360169285034" lon="11.621515443158017"><ele>79.0</ele><time>2026-04-12T08:45:29Z</time></trkpt><trkpt lat="44.28357511955153" lon="11.621417551489593"><ele>79.0</ele><time>2026-04-12T08:45:30Z</time></trkpt><trkpt lat="44.28354847485164" lon="11.621323098888835"><ele>79.0</ele><time>2026-04-12T08:45:31Z</time></trkpt><trkpt lat="44.283523606343714" lon="11.621228248397452"><ele>79.00000000000001</ele><time>2026-04-12T08:45:32Z</time></trkpt><trkpt lat="44.28350212453183" lon="11.621137570815954"><ele>79.0</ele><time>2026-04-12T08:45:33Z</time></trkpt><trkpt lat="44.2834627617302" lon="11.620986923003187"><ele>78.8</ele><time>2026-04-12T08:45:35Z</time></trkpt><trkpt lat="44.28343051157129" lon="11.620860445450697"><ele>78.60000000000001</ele><time>2026-04-12T08:45:37Z</time></trkpt><trkpt lat="44.283395199006925" lon="11.620757892279293"><ele>78.4</ele><time>2026-04-12T08:45:39Z</time></trkpt><trkpt lat="44.28336818499221" lon="11.620663675969714"><ele>78.2</ele><time>2026-04-12T08:45:42Z</time></trkpt><trkpt lat="44.28323313921664" lon="11.620678512172539"><ele>78.0</ele><time>2026-04-12T08:45:43Z</time></trkpt><trkpt lat="44.28314450873547" lon="11.620582229879407"><ele>78.16666666666667</ele><time>2026-04-12T08:45:45Z</time></trkpt><trkpt lat="44.28303016011186" lon="11.620530129806037"><ele>78.33333333333333</ele><time>2026-04-12T08:45:47Z</time></trkpt><trkpt lat="44.28292117858811" lon="11.620438884654561"><ele>78.5</ele><time>2026-04-12T08:45:49Z</time></trkpt><trkpt lat="44.282858855585644" lon="11.620423758496475"><ele>78.66666666666666</ele><time>2026-04-12T08:45:50Z</time></trkpt><trkpt lat="44.282801946139294" lon="11.620379677155713"><ele>78.83333333333333</ele><time>2026-04-12T08:45:51Z</time></trkpt><trkpt lat="44.28274549106683" lon="11.620336013416566"><ele>79.0</ele><time>2026-04-12T08:45:52Z</time></trkpt><trkpt lat="44.28265360962969" lon="11.620211485714968"><ele>79.00000000000001</ele><time>2026-04-12T08:45:54Z</time></trkpt><trkpt lat="44.28261771200441" lon="11.620130900036887"><ele>79.0</ele><time>2026-04-12T08:45:55Z</time></trkpt><trkpt lat="44.28259439426241" lon="11.620046986422993"><ele>79.0</ele><time>2026-04-12T08:45:56Z</time></trkpt><trkpt lat="44.282563331958094" lon="11.619958536809268"><ele>79.0</ele><time>2026-04-12T08:45:57Z</time></trkpt><trkpt lat="44.28253222705328" lon="11.619874010238455"><ele>79.0</ele><time>2026-04-12T08:45:58Z</time></trkpt><trkpt lat="44.28250423046481" lon="11.619789769213606"><ele>79.00000000000001</ele><time>2026-04-12T08:45:59Z</time></trkpt><trkpt lat="44.28247806036801" lon="11.619709766847446"><ele>79.0</ele><time>2026-04-12T08:46:00Z</time></trkpt><trkpt lat="44.28245515297575" lon="11.619627342472313"><ele>79.0</ele><time>2026-04-12T08:46:01Z</time></trkpt><trkpt lat="44.28242348102728" lon="11.619542128590403"><ele>79.0</ele><time>2026-04-12T08:46:02Z</time></trkpt><trkpt lat="44.282364073316806" lon="11.61938996878217"><ele>79.0</ele><time>2026-04-12T08:46:04Z</time></trkpt><trkpt lat="44.282336796416494" lon="11.619310285519585"><ele>79.0</ele><time>2026-04-12T08:46:05Z</time></trkpt><trkpt lat="44.28228594873936" lon="11.619150759697874"><ele>79.0</ele><time>2026-04-12T08:46:07Z</time></trkpt><trkpt lat="44.282257170069094" lon="11.619066601580332"><ele>79.0</ele><time>2026-04-12T08:46:08Z</time></trkpt><trkpt lat="44.28223245351163" lon="11.618982189589588"><ele>78.83333333333333</ele><time>2026-04-12T08:46:09Z</time></trkpt><trkpt lat="44.282203440744425" lon="11.618902005829751"><ele>78.66666666666666</ele><time>2026-04-12T08:46:10Z</time></trkpt><trkpt lat="44.28215189046118" lon="11.618746208211052"><ele>78.5</ele><time>2026-04-12T08:46:12Z</time></trkpt><trkpt lat="44.28211859907569" lon="11.61866478690192"><ele>78.33333333333333</ele><time>2026-04-12T08:46:13Z</time></trkpt><trkpt lat="44.282082486004576" lon="11.618585281270024"><ele>78.16666666666667</ele><time>2026-04-12T08:46:14Z</time></trkpt><trkpt lat="44.282040232292744" lon="11.618511932216903"><ele>78.0</ele><time>2026-04-12T08:46:15Z</time></trkpt><trkpt lat="44.28199326400396" lon="11.618445678439919"><ele>78.0</ele><time>2026-04-12T08:46:16Z</time></trkpt><trkpt lat="44.281939299645344" lon="11.618397942838039"><ele>78.0</ele><time>2026-04-12T08:46:17Z</time></trkpt><trkpt lat="44.281879542685274" lon="11.618357108264847"><ele>78.0</ele><time>2026-04-12T08:46:18Z</time></trkpt><trkpt lat="44.281767586468256" lon="11.618277670294644"><ele>78.0</ele><time>2026-04-12T08:46:20Z</time></trkpt><trkpt lat="44.281705848911514" lon="11.618243505951554"><ele>78.0</ele><time>2026-04-12T08:46:21Z</time></trkpt><trkpt lat="44.281646911802085" lon="11.618199233715126"><ele>78.0</ele><time>2026-04-12T08:46:22Z</time></trkpt><trkpt lat="44.28159268857612" lon="11.618149725967815"><ele>78.0</ele><time>2026-04-12T08:46:23Z</time></trkpt><trkpt lat="44.28153093720519" lon="11.618108989258225"><ele>78.0</ele><time>2026-04-12T08:46:24Z</time></trkpt><trkpt lat="44.28146775138453" lon="11.618074064199613"><ele>78.0</ele><time>2026-04-12T08:46:25Z</time></trkpt><trkpt lat="44.28141184184414" lon="11.618022848523175"><ele>78.0</ele><time>2026-04-12T08:46:26Z</time></trkpt><trkpt lat="44.28135127610433" lon="11.617980969401806"><ele>78.0</ele><time>2026-04-12T08:46:27Z</time></trkpt><trkpt lat="44.28129224575022" lon="11.617943423583599"><ele>78.0</ele><time>2026-04-12T08:46:28Z</time></trkpt><trkpt lat="44.28123463633169" lon="11.61789415653215"><ele>78.0</ele><time>2026-04-12T08:46:29Z</time></trkpt><trkpt lat="44.28117709516567" lon="11.617849423126584"><ele>78.8</ele><time>2026-04-12T08:46:30Z</time></trkpt><trkpt lat="44.28111662006269" lon="11.617810776027843"><ele>79.6</ele><time>2026-04-12T08:46:31Z</time></trkpt><trkpt lat="44.281058823120574" lon="11.617766123321205"><ele>80.39999999999999</ele><time>2026-04-12T08:46:32Z</time></trkpt><trkpt lat="44.28094746170668" lon="11.61768234250855"><ele>81.19999999999999</ele><time>2026-04-12T08:46:34Z</time></trkpt><trkpt lat="44.28083934707109" lon="11.617600906205137"><ele>82.0</ele><time>2026-04-12T08:46:36Z</time></trkpt><trkpt lat="44.2807286509444" lon="11.617523785977246"><ele>82.0</ele><time>2026-04-12T08:46:37.999Z</time></trkpt><trkpt lat="44.28062217714779" lon="11.617440505523962"><ele>82.0</ele><time>2026-04-12T08:46:39.999Z</time></trkpt><trkpt lat="44.28051113024456" lon="11.61736299788884"><ele>82.0</ele><time>2026-04-12T08:46:41.999Z</time></trkpt><trkpt lat="44.2804049057894" lon="11.617282521365766"><ele>82.0</ele><time>2026-04-12T08:46:43.999Z</time></trkpt><trkpt lat="44.28034927472732" lon="11.617241306507033"><ele>82.0</ele><time>2026-04-12T08:46:44.999Z</time></trkpt><trkpt lat="44.28024195972095" lon="11.617157562567328"><ele>82.6</ele><time>2026-04-12T08:46:46.999Z</time></trkpt><trkpt lat="44.28018238858148" lon="11.617120482790531"><ele>83.19999999999999</ele><time>2026-04-12T08:46:47.999Z</time></trkpt><trkpt lat="44.280075921875486" lon="11.617039799535188"><ele>83.8</ele><time>2026-04-12T08:46:49.999Z</time></trkpt><trkpt lat="44.27998327322772" lon="11.616940855484767"><ele>84.4</ele><time>2026-04-12T08:46:51.999Z</time></trkpt><trkpt lat="44.27988316017638" lon="11.616860840318685"><ele>85.0</ele><time>2026-04-12T08:46:53.999Z</time></trkpt><trkpt lat="44.27978576253697" lon="11.616797176413675"><ele>86.2</ele><time>2026-04-12T08:46:55.999Z</time></trkpt><trkpt lat="44.279701739436234" lon="11.616716943517062"><ele>87.4</ele><time>2026-04-12T08:46:57.999Z</time></trkpt><trkpt lat="44.279617406891724" lon="11.61664028718744"><ele>88.6</ele><time>2026-04-12T08:46:59.999Z</time></trkpt><trkpt lat="44.27953197795344" lon="11.616567575577617"><ele>89.8</ele><time>2026-04-12T08:47:01.999Z</time></trkpt><trkpt lat="44.279452090960994" lon="11.616453067503752"><ele>91.0</ele><time>2026-04-12T08:47:03.999Z</time></trkpt><trkpt lat="44.279377817342414" lon="11.6163415469075"><ele>91.0</ele><time>2026-04-12T08:47:05.999Z</time></trkpt><trkpt lat="44.27931926972604" lon="11.61621690359276"><ele>91.0</ele><time>2026-04-12T08:47:07.999Z</time></trkpt><trkpt lat="44.27927381080379" lon="11.616079637280137"><ele>91.0</ele><time>2026-04-12T08:47:09.999Z</time></trkpt><trkpt lat="44.27922869000028" lon="11.615926067892829"><ele>91.0</ele><time>2026-04-12T08:47:11.999Z</time></trkpt><trkpt lat="44.27917598983198" lon="11.61576842253476"><ele>90.5</ele><time>2026-04-12T08:47:13.999Z</time></trkpt><trkpt lat="44.27912432056491" lon="11.615612373329899"><ele>90.0</ele><time>2026-04-12T08:47:15.999Z</time></trkpt><trkpt lat="44.27909696982519" lon="11.615532409432515"><ele>89.5</ele><time>2026-04-12T08:47:16.999Z</time></trkpt><trkpt lat="44.279069463354276" lon="11.615449833985577"><ele>89.0</ele><time>2026-04-12T08:47:17.999Z</time></trkpt><trkpt lat="44.27904187490864" lon="11.61536673127877"><ele>88.5</ele><time>2026-04-12T08:47:18.999Z</time></trkpt><trkpt lat="44.27901311554719" lon="11.615282606847138"><ele>88.0</ele><time>2026-04-12T08:47:19.999Z</time></trkpt><trkpt lat="44.278984236887055" lon="11.615197363790344"><ele>87.71428571428572</ele><time>2026-04-12T08:47:21Z</time></trkpt><trkpt lat="44.27895770890806" lon="11.615114123484446"><ele>87.42857142857143</ele><time>2026-04-12T08:47:22Z</time></trkpt><trkpt lat="44.27893172466871" lon="11.615031031813308"><ele>87.14285714285714</ele><time>2026-04-12T08:47:23Z</time></trkpt><trkpt lat="44.27890204768707" lon="11.614942646309105"><ele>86.85714285714286</ele><time>2026-04-12T08:47:24Z</time></trkpt><trkpt lat="44.278871761543776" lon="11.61485322144112"><ele>86.57142857142857</ele><time>2026-04-12T08:47:25Z</time></trkpt><trkpt lat="44.278841711648" lon="11.614768036296482"><ele>86.28571428571429</ele><time>2026-04-12T08:47:26Z</time></trkpt><trkpt lat="44.27880968227762" lon="11.614682621122311"><ele>86.0</ele><time>2026-04-12T08:47:27Z</time></trkpt><trkpt lat="44.278786860042295" lon="11.61459893911901"><ele>86.42857142857143</ele><time>2026-04-12T08:47:28Z</time></trkpt><trkpt lat="44.27875717363363" lon="11.614516809259332"><ele>86.85714285714286</ele><time>2026-04-12T08:47:29Z</time></trkpt><trkpt lat="44.27872678484342" lon="11.614430810855511"><ele>87.28571428571428</ele><time>2026-04-12T08:47:30Z</time></trkpt><trkpt lat="44.27869617545985" lon="11.614339870425729"><ele>87.71428571428572</ele><time>2026-04-12T08:47:31Z</time></trkpt><trkpt lat="44.27867007082948" lon="11.614256214406844"><ele>88.14285714285714</ele><time>2026-04-12T08:47:32Z</time></trkpt><trkpt lat="44.27864650691423" lon="11.614173554011842"><ele>88.57142857142857</ele><time>2026-04-12T08:47:33Z</time></trkpt><trkpt lat="44.278614646076065" lon="11.614090792325666"><ele>89.0</ele><time>2026-04-12T08:47:34Z</time></trkpt><trkpt lat="44.27858283571292" lon="11.614006285245855"><ele>89.0</ele><time>2026-04-12T08:47:35Z</time></trkpt><trkpt lat="44.27854069779995" lon="11.613931027627462"><ele>89.0</ele><time>2026-04-12T08:47:36Z</time></trkpt><trkpt lat="44.27849293969358" lon="11.613863943991463"><ele>89.0</ele><time>2026-04-12T08:47:37Z</time></trkpt><trkpt lat="44.27844150521639" lon="11.613796897049992"><ele>89.0</ele><time>2026-04-12T08:47:38Z</time></trkpt><trkpt lat="44.2783895453273" lon="11.61373835173784"><ele>89.0</ele><time>2026-04-12T08:47:39Z</time></trkpt><trkpt lat="44.2782973211607" lon="11.613626590851398"><ele>89.0</ele><time>2026-04-12T08:47:41Z</time></trkpt><trkpt lat="44.27823079665019" lon="11.613497291769518"><ele>88.80000000000001</ele><time>2026-04-12T08:47:43Z</time></trkpt><trkpt lat="44.27820179194927" lon="11.61340096445442"><ele>88.60000000000001</ele><time>2026-04-12T08:47:45Z</time></trkpt><trkpt lat="44.27807637057943" lon="11.613421590364227"><ele>88.4</ele><time>2026-04-12T08:47:46Z</time></trkpt><trkpt lat="44.27795429485271" lon="11.613371446160672"><ele>88.2</ele><time>2026-04-12T08:47:48Z</time></trkpt><trkpt lat="44.27789195025321" lon="11.613357527373541"><ele>88.0</ele><time>2026-04-12T08:47:49Z</time></trkpt><trkpt lat="44.277826817130446" lon="11.61336369770424"><ele>88.66666666666666</ele><time>2026-04-12T08:47:50Z</time></trkpt><trkpt lat="44.27770245262282" lon="11.613389200440714"><ele>89.33333333333333</ele><time>2026-04-12T08:47:52Z</time></trkpt><trkpt lat="44.27758069281063" lon="11.613419357117197"><ele>90.0</ele><time>2026-04-12T08:47:54Z</time></trkpt><trkpt lat="44.27751932777406" lon="11.613445786456142"><ele>90.66666666666667</ele><time>2026-04-12T08:47:55Z</time></trkpt><trkpt lat="44.27745114399179" lon="11.613448596016992"><ele>91.33333333333334</ele><time>2026-04-12T08:47:56Z</time></trkpt><trkpt lat="44.277386236230285" lon="11.613474703012935"><ele>92.0</ele><time>2026-04-12T08:47:57Z</time></trkpt><trkpt lat="44.27732303174196" lon="11.613508674172389"><ele>92.0</ele><time>2026-04-12T08:47:58Z</time></trkpt><trkpt lat="44.277262366458245" lon="11.613537687077422"><ele>92.0</ele><time>2026-04-12T08:47:59Z</time></trkpt><trkpt lat="44.27719905870483" lon="11.613567963705345"><ele>92.0</ele><time>2026-04-12T08:48:00Z</time></trkpt><trkpt lat="44.277090250659114" lon="11.613638078930501"><ele>92.0</ele><time>2026-04-12T08:48:02Z</time></trkpt><trkpt lat="44.276975666232985" lon="11.613718013304902"><ele>92.0</ele><time>2026-04-12T08:48:04Z</time></trkpt><trkpt lat="44.27685921871596" lon="11.613790083053043"><ele>92.0</ele><time>2026-04-12T08:48:06Z</time></trkpt><trkpt lat="44.276793193613926" lon="11.613798700307537"><ele>92.0</ele><time>2026-04-12T08:48:07Z</time></trkpt><trkpt lat="44.27672899525043" lon="11.613785591260307"><ele>92.0</ele><time>2026-04-12T08:48:08Z</time></trkpt><trkpt lat="44.276665156434284" lon="11.613757574235313"><ele>92.0</ele><time>2026-04-12T08:48:09Z</time></trkpt><trkpt lat="44.276545932762076" lon="11.613682992614104"><ele>92.0</ele><time>2026-04-12T08:48:11Z</time></trkpt><trkpt lat="44.27648788915356" lon="11.613635152827653"><ele>92.0</ele><time>2026-04-12T08:48:12Z</time></trkpt><trkpt lat="44.276377685941455" lon="11.613544556674894"><ele>92.42857142857143</ele><time>2026-04-12T08:48:14Z</time></trkpt><trkpt lat="44.276323396593504" lon="11.613488504825579"><ele>92.85714285714285</ele><time>2026-04-12T08:48:15Z</time></trkpt><trkpt lat="44.27627455805795" lon="11.613426202205675"><ele>93.28571428571428</ele><time>2026-04-12T08:48:16Z</time></trkpt><trkpt lat="44.27622031776814" lon="11.613368617942667"><ele>93.71428571428572</ele><time>2026-04-12T08:48:17Z</time></trkpt><trkpt lat="44.276165224338285" lon="11.61330904824349"><ele>94.14285714285714</ele><time>2026-04-12T08:48:18Z</time></trkpt><trkpt lat="44.27611120530352" lon="11.61324780381158"><ele>94.57142857142857</ele><time>2026-04-12T08:48:19Z</time></trkpt><trkpt lat="44.27605743265258" lon="11.613187481503397"><ele>95.0</ele><time>2026-04-12T08:48:20Z</time></trkpt><trkpt lat="44.27600489833558" lon="11.613128386573608"><ele>95.0</ele><time>2026-04-12T08:48:21Z</time></trkpt><trkpt lat="44.275906345790595" lon="11.612998223256675"><ele>95.0</ele><time>2026-04-12T08:48:23Z</time></trkpt><trkpt lat="44.275866257705815" lon="11.612924677730408"><ele>95.0</ele><time>2026-04-12T08:48:24Z</time></trkpt><trkpt lat="44.27582096410635" lon="11.612856378019263"><ele>95.0</ele><time>2026-04-12T08:48:25Z</time></trkpt><trkpt lat="44.275724910340266" lon="11.61273906355092"><ele>95.0</ele><time>2026-04-12T08:48:27Z</time></trkpt><trkpt lat="44.275671507184235" lon="11.612680074092676"><ele>95.5</ele><time>2026-04-12T08:48:28Z</time></trkpt><trkpt lat="44.27562114202763" lon="11.612622192096264"><ele>96.0</ele><time>2026-04-12T08:48:29Z</time></trkpt><trkpt lat="44.27556611245412" lon="11.612573473145163"><ele>96.5</ele><time>2026-04-12T08:48:30Z</time></trkpt><trkpt lat="44.27550959188837" lon="11.612533713277967"><ele>97.0</ele><time>2026-04-12T08:48:31Z</time></trkpt><trkpt lat="44.27539048139484" lon="11.61247117464284"><ele>97.49999999999999</ele><time>2026-04-12T08:48:33Z</time></trkpt><trkpt lat="44.275324444616004" lon="11.612461961430812"><ele>98.0</ele><time>2026-04-12T08:48:34Z</time></trkpt><trkpt lat="44.27520589160122" lon="11.612488498327242"><ele>98.0</ele><time>2026-04-12T08:48:36Z</time></trkpt><trkpt lat="44.27510282984357" lon="11.612532924227633"><ele>98.0</ele><time>2026-04-12T08:48:38Z</time></trkpt><trkpt lat="44.27501207550136" lon="11.612624191749171"><ele>98.0</ele><time>2026-04-12T08:48:40Z</time></trkpt><trkpt lat="44.274947899948906" lon="11.612720102196628"><ele>98.0</ele><time>2026-04-12T08:48:42Z</time></trkpt><trkpt lat="44.274898168893635" lon="11.61279576094754"><ele>98.0</ele><time>2026-04-12T08:48:44Z</time></trkpt><trkpt lat="44.27486123646037" lon="11.612871458629911"><ele>98.16666666666666</ele><time>2026-04-12T08:48:46Z</time></trkpt><trkpt lat="44.274799769493754" lon="11.612915326211764"><ele>98.33333333333333</ele><time>2026-04-12T08:48:47.999Z</time></trkpt><trkpt lat="44.27473994743145" lon="11.612987488436069"><ele>98.5</ele><time>2026-04-12T08:48:50.999Z</time></trkpt><trkpt lat="44.274685864261784" lon="11.613052727944018"><ele>98.66666666666666</ele><time>2026-04-12T08:48:53.999Z</time></trkpt><trkpt lat="44.27463948594316" lon="11.613153202578944"><ele>98.83333333333333</ele><time>2026-04-12T08:48:56.999Z</time></trkpt><trkpt lat="44.27458295105732" lon="11.613256603820139"><ele>99.0</ele><time>2026-04-12T08:48:59.999Z</time></trkpt><trkpt lat="44.27452784808729" lon="11.613336648516103"><ele>100.33333333333333</ele><time>2026-04-12T08:49:02.999Z</time></trkpt><trkpt lat="44.27448593671175" lon="11.613404760420966"><ele>101.66666666666666</ele><time>2026-04-12T08:49:04.999Z</time></trkpt><trkpt lat="44.27442308267924" lon="11.613475440430717"><ele>103.0</ele><time>2026-04-12T08:49:07.999Z</time></trkpt><trkpt lat="44.27436422969865" lon="11.613557684242984"><ele>104.33333333333333</ele><time>2026-04-12T08:49:10.999Z</time></trkpt><trkpt lat="44.27429603645048" lon="11.613610350381444"><ele>105.66666666666666</ele><time>2026-04-12T08:49:13.999Z</time></trkpt><trkpt lat="44.27421671195244" lon="11.613649072819387"><ele>107.0</ele><time>2026-04-12T08:49:16.999Z</time></trkpt><trkpt lat="44.27415264038197" lon="11.613687550563709"><ele>108.83333333333333</ele><time>2026-04-12T08:49:19.999Z</time></trkpt><trkpt lat="44.27408265889348" lon="11.613731554463056"><ele>110.66666666666666</ele><time>2026-04-12T08:49:22.999Z</time></trkpt><trkpt lat="44.27400551983609" lon="11.613790351900962"><ele>112.5</ele><time>2026-04-12T08:49:25.999Z</time></trkpt><trkpt lat="44.27393510846951" lon="11.61384840554096"><ele>114.33333333333334</ele><time>2026-04-12T08:49:29Z</time></trkpt><trkpt lat="44.273882587075" lon="11.613922601210236"><ele>116.16666666666667</ele><time>2026-04-12T08:49:32Z</time></trkpt><trkpt lat="44.27382654257164" lon="11.613979707365173"><ele>118.0</ele><time>2026-04-12T08:49:35Z</time></trkpt><trkpt lat="44.273759533958824" lon="11.614019728590183"><ele>118.57142857142857</ele><time>2026-04-12T08:49:38Z</time></trkpt><trkpt lat="44.27369711627272" lon="11.614048372292222"><ele>119.14285714285714</ele><time>2026-04-12T08:49:41Z</time></trkpt><trkpt lat="44.27363183583014" lon="11.614044973561183"><ele>119.71428571428571</ele><time>2026-04-12T08:49:44Z</time></trkpt><trkpt lat="44.27356884339761" lon="11.614041481845286"><ele>120.28571428571428</ele><time>2026-04-12T08:49:46Z</time></trkpt><trkpt lat="44.27350123064841" lon="11.614041099578198"><ele>120.85714285714286</ele><time>2026-04-12T08:49:49Z</time></trkpt><trkpt lat="44.27341559510745" lon="11.614031448806218"><ele>121.42857142857142</ele><time>2026-04-12T08:49:52Z</time></trkpt><trkpt lat="44.27335071195331" lon="11.614090489789787"><ele>121.99999999999999</ele><time>2026-04-12T08:49:55Z</time></trkpt><trkpt lat="44.27332269218648" lon="11.614191717272934"><ele>121.99999999999999</ele><time>2026-04-12T08:49:58Z</time></trkpt><trkpt lat="44.273358618723066" lon="11.614296272692835"><ele>122.0</ele><time>2026-04-12T08:50:01Z</time></trkpt><trkpt lat="44.2733000552188" lon="11.614374784293759"><ele>122.0</ele><time>2026-04-12T08:50:04Z</time></trkpt><trkpt lat="44.273233934577554" lon="11.614364882594968"><ele>122.0</ele><time>2026-04-12T08:50:07Z</time></trkpt><trkpt lat="44.27317639772603" lon="11.614322920583803"><ele>121.99999999999999</ele><time>2026-04-12T08:50:10Z</time></trkpt><trkpt lat="44.273104298079204" lon="11.61429123329015"><ele>122.0</ele><time>2026-04-12T08:50:13Z</time></trkpt><trkpt lat="44.27303419460939" lon="11.614219274415689"><ele>125.99999999999999</ele><time>2026-04-12T08:50:16Z</time></trkpt><trkpt lat="44.27298136687335" lon="11.614140972628892"><ele>130.0</ele><time>2026-04-12T08:50:19Z</time></trkpt><trkpt lat="44.272911826136315" lon="11.61407628223758"><ele>134.0</ele><time>2026-04-12T08:50:22Z</time></trkpt><trkpt lat="44.27287135334329" lon="11.613986760572214"><ele>138.0</ele><time>2026-04-12T08:50:25Z</time></trkpt><trkpt lat="44.272839599494084" lon="11.613905185286404"><ele>142.0</ele><time>2026-04-12T08:50:28Z</time></trkpt><trkpt lat="44.272792707744784" lon="11.613803210969296"><ele>146.0</ele><time>2026-04-12T08:50:31Z</time></trkpt><trkpt lat="44.2727445498698" lon="11.613704870693661"><ele>146.0</ele><time>2026-04-12T08:50:34Z</time></trkpt><trkpt lat="44.272699204943365" lon="11.613627430210629"><ele>146.0</ele><time>2026-04-12T08:50:37Z</time></trkpt><trkpt lat="44.27261408705244" lon="11.613653667740934"><ele>146.0</ele><time>2026-04-12T08:50:40Z</time></trkpt><trkpt lat="44.27259357155164" lon="11.613757313992831"><ele>146.0</ele><time>2026-04-12T08:50:43Z</time></trkpt><trkpt lat="44.27256640076981" lon="11.613845055147847"><ele>146.0</ele><time>2026-04-12T08:50:45.999Z</time></trkpt><trkpt lat="44.27256365055217" lon="11.613935834058193"><ele>146.0</ele><time>2026-04-12T08:50:48.999Z</time></trkpt><trkpt lat="44.27257459237987" lon="11.614050438276577"><ele>146.0</ele><time>2026-04-12T08:50:51.999Z</time></trkpt><trkpt lat="44.27259548579343" lon="11.614168705101797"><ele>146.0</ele><time>2026-04-12T08:50:55.999Z</time></trkpt><trkpt lat="44.272593473437965" lon="11.614260897272876"><ele>146.0</ele><time>2026-04-12T08:50:58.999Z</time></trkpt><trkpt lat="44.272585818097106" lon="11.61435714860947"><ele>146.0</ele><time>2026-04-12T08:51:01.999Z</time></trkpt><trkpt lat="44.2725562308129" lon="11.614452811197909"><ele>146.0</ele><time>2026-04-12T08:51:04.999Z</time></trkpt><trkpt lat="44.27251016283783" lon="11.614519969503297"><ele>146.0</ele><time>2026-04-12T08:51:07.999Z</time></trkpt><trkpt lat="44.27244215212105" lon="11.614553081126493"><ele>146.0</ele><time>2026-04-12T08:51:11.999Z</time></trkpt><trkpt lat="44.27241287164503" lon="11.614459484329545"><ele>146.0</ele><time>2026-04-12T08:51:15.999Z</time></trkpt><trkpt lat="44.27239046215742" lon="11.614369968893742"><ele>146.0</ele><time>2026-04-12T08:51:18.999Z</time></trkpt><trkpt lat="44.27236667960208" lon="11.614267088243842"><ele>146.0</ele><time>2026-04-12T08:51:22.999Z</time></trkpt><trkpt lat="44.272323597947256" lon="11.614190116875308"><ele>146.0</ele><time>2026-04-12T08:51:25.999Z</time></trkpt><trkpt lat="44.27227247309747" lon="11.614096286616505"><ele>146.0</ele><time>2026-04-12T08:51:29.999Z</time></trkpt><trkpt lat="44.2722378187384" lon="11.613986875665352"><ele>146.0</ele><time>2026-04-12T08:51:33Z</time></trkpt><trkpt lat="44.27219207050593" lon="11.613901107179707"><ele>151.0</ele><time>2026-04-12T08:51:36Z</time></trkpt><trkpt lat="44.27213144011699" lon="11.613855402065681"><ele>156.0</ele><time>2026-04-12T08:51:39Z</time></trkpt><trkpt lat="44.272099243496754" lon="11.613960736991594"><ele>161.0</ele><time>2026-04-12T08:51:42Z</time></trkpt><trkpt lat="44.27212163646338" lon="11.614056081418374"><ele>166.0</ele><time>2026-04-12T08:51:45Z</time></trkpt><trkpt lat="44.272115360088335" lon="11.614184050723638"><ele>171.0</ele><time>2026-04-12T08:51:48Z</time></trkpt><trkpt lat="44.27204470544371" lon="11.614211627026789"><ele>176.0</ele><time>2026-04-12T08:51:51Z</time></trkpt><trkpt lat="44.27200867239531" lon="11.614137301890862"><ele>176.0</ele><time>2026-04-12T08:51:54Z</time></trkpt><trkpt lat="44.27199997704926" lon="11.614034333605904"><ele>176.0</ele><time>2026-04-12T08:51:57Z</time></trkpt><trkpt lat="44.27199605123584" lon="11.61394116789543"><ele>176.0</ele><time>2026-04-12T08:52:00Z</time></trkpt><trkpt lat="44.27198869738047" lon="11.61382694710661"><ele>176.0</ele><time>2026-04-12T08:52:03Z</time></trkpt><trkpt lat="44.27197293094548" lon="11.613728529643913"><ele>176.0</ele><time>2026-04-12T08:52:06Z</time></trkpt><trkpt lat="44.27195927704363" lon="11.613624020262508"><ele>176.0</ele><time>2026-04-12T08:52:09Z</time></trkpt><trkpt lat="44.27194399149908" lon="11.613516039145944"><ele>175.5</ele><time>2026-04-12T08:52:12Z</time></trkpt><trkpt lat="44.27192700588235" lon="11.61340994340169"><ele>175.0</ele><time>2026-04-12T08:52:15Z</time></trkpt><trkpt lat="44.27191610027407" lon="11.61330540032971"><ele>174.5</ele><time>2026-04-12T08:52:18Z</time></trkpt><trkpt lat="44.271910137846795" lon="11.613193272588994"><ele>174.0</ele><time>2026-04-12T08:52:21Z</time></trkpt><trkpt lat="44.27188033016356" lon="11.613111838130921"><ele>173.5</ele><time>2026-04-12T08:52:24Z</time></trkpt><trkpt lat="44.27180117454714" lon="11.613095230922939"><ele>173.0</ele><time>2026-04-12T08:52:27Z</time></trkpt><trkpt lat="44.2717928248755" lon="11.61320621358048"><ele>173.0</ele><time>2026-04-12T08:52:30Z</time></trkpt><trkpt lat="44.27178665580119" lon="11.613310104858082"><ele>173.0</ele><time>2026-04-12T08:52:33Z</time></trkpt><trkpt lat="44.27177037116881" lon="11.613411533910567"><ele>173.0</ele><time>2026-04-12T08:52:36Z</time></trkpt><trkpt lat="44.271735206800564" lon="11.613501394471587"><ele>173.0</ele><time>2026-04-12T08:52:39Z</time></trkpt><trkpt lat="44.27168822901627" lon="11.613586654887072"><ele>173.0</ele><time>2026-04-12T08:52:42Z</time></trkpt><trkpt lat="44.271647964912894" lon="11.613680228633934"><ele>173.0</ele><time>2026-04-12T08:52:45.999Z</time></trkpt><trkpt lat="44.27160228696795" lon="11.613769093988923"><ele>173.5</ele><time>2026-04-12T08:52:48.999Z</time></trkpt><trkpt lat="44.271557478329136" lon="11.613855912126413"><ele>174.0</ele><time>2026-04-12T08:52:51.999Z</time></trkpt><trkpt lat="44.271525122314735" lon="11.613963220918244"><ele>174.5</ele><time>2026-04-12T08:52:55.999Z</time></trkpt><trkpt lat="44.27149234747055" lon="11.614041368487102"><ele>175.0</ele><time>2026-04-12T08:52:58.999Z</time></trkpt><trkpt lat="44.27145638449711" lon="11.614143515823903"><ele>175.5</ele><time>2026-04-12T08:53:01.999Z</time></trkpt><trkpt lat="44.271446225186644" lon="11.614233427561905"><ele>176.0</ele><time>2026-04-12T08:53:04.999Z</time></trkpt><trkpt lat="44.271420791536904" lon="11.614350481422052"><ele>180.28571428571428</ele><time>2026-04-12T08:53:08.999Z</time></trkpt><trkpt lat="44.27141349703075" lon="11.614438462093876"><ele>184.57142857142856</ele><time>2026-04-12T08:53:11.999Z</time></trkpt><trkpt lat="44.271413601293105" lon="11.614534180801373"><ele>188.85714285714283</ele><time>2026-04-12T08:53:14.999Z</time></trkpt><trkpt lat="44.271422526921434" lon="11.614630230532958"><ele>193.14285714285714</ele><time>2026-04-12T08:53:17.999Z</time></trkpt><trkpt lat="44.27142493775861" lon="11.61472364146977"><ele>197.42857142857142</ele><time>2026-04-12T08:53:20.999Z</time></trkpt><trkpt lat="44.27143857623255" lon="11.614823432424766"><ele>201.7142857142857</ele><time>2026-04-12T08:53:23.999Z</time></trkpt><trkpt lat="44.27143518130072" lon="11.614926902874888"><ele>206.0</ele><time>2026-04-12T08:53:26.999Z</time></trkpt><trkpt lat="44.27142781885046" lon="11.615015690774865"><ele>206.33333333333334</ele><time>2026-04-12T08:53:28.999Z</time></trkpt><trkpt lat="44.27141601199744" lon="11.615128104145638"><ele>206.66666666666669</ele><time>2026-04-12T08:53:31.999Z</time></trkpt><trkpt lat="44.271398725438615" lon="11.615233897184234"><ele>207.0</ele><time>2026-04-12T08:53:34.999Z</time></trkpt><trkpt lat="44.27135072851458" lon="11.615315246385642"><ele>207.33333333333331</ele><time>2026-04-12T08:53:37.999Z</time></trkpt><trkpt lat="44.27127023206936" lon="11.615314132576255"><ele>207.66666666666666</ele><time>2026-04-12T08:53:41Z</time></trkpt><trkpt lat="44.271256028197364" lon="11.61522077604963"><ele>208.0</ele><time>2026-04-12T08:53:44Z</time></trkpt><trkpt lat="44.27125427809762" lon="11.615096580365483"><ele>208.0</ele><time>2026-04-12T08:53:47Z</time></trkpt><trkpt lat="44.27123089405464" lon="11.615003875693015"><ele>208.0</ele><time>2026-04-12T08:53:50Z</time></trkpt><trkpt lat="44.271197961639515" lon="11.614910612396416"><ele>208.0</ele><time>2026-04-12T08:53:53Z</time></trkpt><trkpt lat="44.271161201314804" lon="11.614808998805573"><ele>208.0</ele><time>2026-04-12T08:53:56Z</time></trkpt><trkpt lat="44.27111243588057" lon="11.614746337559437"><ele>208.0</ele><time>2026-04-12T08:53:59Z</time></trkpt><trkpt lat="44.27106476303931" lon="11.614680275484915"><ele>208.0</ele><time>2026-04-12T08:54:02Z</time></trkpt><trkpt lat="44.27101213391866" lon="11.614599341060748"><ele>208.0</ele><time>2026-04-12T08:54:05Z</time></trkpt><trkpt lat="44.270986138306995" lon="11.614494795560118"><ele>207.7142857142857</ele><time>2026-04-12T08:54:08Z</time></trkpt><trkpt lat="44.27096554416254" lon="11.614391935911232"><ele>207.42857142857144</ele><time>2026-04-12T08:54:12Z</time></trkpt><trkpt lat="44.27097407206386" lon="11.61428839845216"><ele>207.14285714285714</ele><time>2026-04-12T08:54:15Z</time></trkpt><trkpt lat="44.27098025284543" lon="11.614187740829966"><ele>206.85714285714283</ele><time>2026-04-12T08:54:18Z</time></trkpt><trkpt lat="44.27097874694917" lon="11.61407637889671"><ele>206.57142857142856</ele><time>2026-04-12T08:54:22Z</time></trkpt><trkpt lat="44.27096242589295" lon="11.613986219928675"><ele>206.28571428571428</ele><time>2026-04-12T08:54:26Z</time></trkpt><trkpt lat="44.27094192031152" lon="11.613902894846259"><ele>206.0</ele><time>2026-04-12T08:54:31Z</time></trkpt><trkpt lat="44.27094009116826" lon="11.613806336696255"><ele>205.99999999999997</ele><time>2026-04-12T08:54:37Z</time></trkpt><trkpt lat="44.27092006950855" lon="11.613720488357844"><ele>206.0</ele><time>2026-04-12T08:54:42Z</time></trkpt><trkpt lat="44.27089485288047" lon="11.613630446198004"><ele>206.0</ele><time>2026-04-12T08:54:47Z</time></trkpt><trkpt lat="44.27086481428441" lon="11.613552083072785"><ele>206.0</ele><time>2026-04-12T08:54:52Z</time></trkpt><trkpt lat="44.27080138082638" lon="11.613490402876966"><ele>206.0</ele><time>2026-04-12T08:54:57.999Z</time></trkpt><trkpt lat="44.27073452799083" lon="11.613431514837002"><ele>205.99999999999997</ele><time>2026-04-12T08:55:02.999Z</time></trkpt><trkpt lat="44.2706692608377" lon="11.613461531471687"><ele>206.0</ele><time>2026-04-12T08:55:06.999Z</time></trkpt><trkpt lat="44.27060527102749" lon="11.613499753829876"><ele>205.85714285714283</ele><time>2026-04-12T08:55:10.999Z</time></trkpt><trkpt lat="44.270545895878506" lon="11.613538226169366"><ele>205.71428571428572</ele><time>2026-04-12T08:55:14.999Z</time></trkpt><trkpt lat="44.270489281088366" lon="11.613598174104593"><ele>205.57142857142856</ele><time>2026-04-12T08:55:17.999Z</time></trkpt><trkpt lat="44.27044238712079" lon="11.613674583400712"><ele>205.42857142857142</ele><time>2026-04-12T08:55:21.999Z</time></trkpt><trkpt lat="44.27039905952475" lon="11.61375054156743"><ele>205.28571428571428</ele><time>2026-04-12T08:55:25.999Z</time></trkpt><trkpt lat="44.27036075868051" lon="11.613835630116021"><ele>205.14285714285714</ele><time>2026-04-12T08:55:29.999Z</time></trkpt><trkpt lat="44.27034508690396" lon="11.613951872951121"><ele>205.0</ele><time>2026-04-12T08:55:33.999Z</time></trkpt><trkpt lat="44.270342400714924" lon="11.614059006438707"><ele>208.99999999999997</ele><time>2026-04-12T08:55:36.999Z</time></trkpt><trkpt lat="44.27033183062892" lon="11.614155485040103"><ele>213.0</ele><time>2026-04-12T08:55:39.999Z</time></trkpt><trkpt lat="44.27031736839861" lon="11.614279585338508"><ele>217.0</ele><time>2026-04-12T08:55:42.999Z</time></trkpt><trkpt lat="44.27029316180548" lon="11.614372402360456"><ele>221.0</ele><time>2026-04-12T08:55:46Z</time></trkpt><trkpt lat="44.27027294335541" lon="11.614490025723027"><ele>224.99999999999997</ele><time>2026-04-12T08:55:49Z</time></trkpt><trkpt lat="44.2702641636966" lon="11.6146102098972"><ele>229.0</ele><time>2026-04-12T08:55:52Z</time></trkpt><trkpt lat="44.27027255911777" lon="11.6147112941032"><ele>230.14285714285714</ele><time>2026-04-12T08:55:55Z</time></trkpt><trkpt lat="44.27028168614902" lon="11.614804631118375"><ele>231.28571428571428</ele><time>2026-04-12T08:55:58Z</time></trkpt><trkpt lat="44.27029371952973" lon="11.614906270352243"><ele>232.42857142857142</ele><time>2026-04-12T08:56:01Z</time></trkpt><trkpt lat="44.27029576411834" lon="11.615002663920121"><ele>233.57142857142856</ele><time>2026-04-12T08:56:04Z</time></trkpt><trkpt lat="44.27029335591584" lon="11.615094072571475"><ele>234.71428571428572</ele><time>2026-04-12T08:56:06Z</time></trkpt><trkpt lat="44.27028684521449" lon="11.615181979083642"><ele>235.85714285714283</ele><time>2026-04-12T08:56:08Z</time></trkpt><trkpt lat="44.27027387535897" lon="11.615302216918826"><ele>236.99999999999997</ele><time>2026-04-12T08:56:11Z</time></trkpt><trkpt lat="44.27023217092019" lon="11.615401328999262"><ele>237.0</ele><time>2026-04-12T08:56:14Z</time></trkpt><trkpt lat="44.27015354459405" lon="11.615423714816254"><ele>237.0</ele><time>2026-04-12T08:56:17Z</time></trkpt><trkpt lat="44.27008802018611" lon="11.615450341705555"><ele>237.0</ele><time>2026-04-12T08:56:20Z</time></trkpt><trkpt lat="44.27001498796133" lon="11.61549422602636"><ele>237.0</ele><time>2026-04-12T08:56:24Z</time></trkpt><trkpt lat="44.2699502559996" lon="11.615563463026406"><ele>237.0</ele><time>2026-04-12T08:56:28Z</time></trkpt><trkpt lat="44.269886988494676" lon="11.615622754160038"><ele>237.0</ele><time>2026-04-12T08:56:32Z</time></trkpt><trkpt lat="44.26981768613154" lon="11.615678199842966"><ele>241.83333333333334</ele><time>2026-04-12T08:56:36Z</time></trkpt><trkpt lat="44.26976850817231" lon="11.615751075815393"><ele>246.66666666666669</ele><time>2026-04-12T08:56:39Z</time></trkpt><trkpt lat="44.26974120036602" lon="11.615847211316463"><ele>251.5</ele><time>2026-04-12T08:56:42Z</time></trkpt><trkpt lat="44.26970874230462" lon="11.615948693385063"><ele>256.33333333333337</ele><time>2026-04-12T08:56:44.999Z</time></trkpt><trkpt lat="44.26966678051773" lon="11.616062033650639"><ele>261.1666666666667</ele><time>2026-04-12T08:56:47.999Z</time></trkpt><trkpt lat="44.26963179853398" lon="11.616175317124679"><ele>266.0</ele><time>2026-04-12T08:56:49.999Z</time></trkpt><trkpt lat="44.269603343427114" lon="11.616264558469211"><ele>266.0</ele><time>2026-04-12T08:56:51.999Z</time></trkpt><trkpt lat="44.269573676669886" lon="11.61637867428275"><ele>266.0</ele><time>2026-04-12T08:56:53.999Z</time></trkpt><trkpt lat="44.26955839976864" lon="11.616486319783348"><ele>266.0</ele><time>2026-04-12T08:56:55.999Z</time></trkpt><trkpt lat="44.26951673829457" lon="11.616590354786323"><ele>266.0</ele><time>2026-04-12T08:56:57.999Z</time></trkpt><trkpt lat="44.269504139535016" lon="11.616684299488087"><ele>266.0</ele><time>2026-04-12T08:56:59.999Z</time></trkpt><trkpt lat="44.2694976914504" lon="11.61679448590831"><ele>266.0</ele><time>2026-04-12T08:57:01.999Z</time></trkpt><trkpt lat="44.26947216255406" lon="11.616882767800153"><ele>264.0</ele><time>2026-04-12T08:57:03.999Z</time></trkpt><trkpt lat="44.26943251686033" lon="11.61699974862382"><ele>262.0</ele><time>2026-04-12T08:57:07.999Z</time></trkpt><trkpt lat="44.26936704204502" lon="11.61710421316438"><ele>260.0</ele><time>2026-04-12T08:57:10.999Z</time></trkpt><trkpt lat="44.2693328133896" lon="11.617190434374317"><ele>258.0</ele><time>2026-04-12T08:57:12.999Z</time></trkpt><trkpt lat="44.269279336860166" lon="11.61727561061235"><ele>256.0</ele><time>2026-04-12T08:57:14.999Z</time></trkpt><trkpt lat="44.26921473777509" lon="11.61737833103823"><ele>254.0</ele><time>2026-04-12T08:57:17.999Z</time></trkpt><trkpt lat="44.26916477443109" lon="11.617469344413763"><ele>254.00000000000003</ele><time>2026-04-12T08:57:20.999Z</time></trkpt><trkpt lat="44.269122338388755" lon="11.617536105418738"><ele>254.0</ele><time>2026-04-12T08:57:22.999Z</time></trkpt><trkpt lat="44.26906568087847" lon="11.617648816813434"><ele>254.0</ele><time>2026-04-12T08:57:25.999Z</time></trkpt><trkpt lat="44.26902665086878" lon="11.61776714821625"><ele>254.0</ele><time>2026-04-12T08:57:28.999Z</time></trkpt><trkpt lat="44.268982884979195" lon="11.6178786806291"><ele>254.00000000000003</ele><time>2026-04-12T08:57:31.999Z</time></trkpt><trkpt lat="44.268939326943794" lon="11.617994165938764"><ele>254.0</ele><time>2026-04-12T08:57:34.999Z</time></trkpt><trkpt lat="44.26890689282833" lon="11.618099135523028"><ele>258.33333333333337</ele><time>2026-04-12T08:57:37.999Z</time></trkpt><trkpt lat="44.26887806292573" lon="11.618187133900395"><ele>262.6666666666667</ele><time>2026-04-12T08:57:39.999Z</time></trkpt><trkpt lat="44.2688322828773" lon="11.618292914188311"><ele>267.0</ele><time>2026-04-12T08:57:41.999Z</time></trkpt><trkpt lat="44.268817059575646" lon="11.618394868166536"><ele>271.3333333333333</ele><time>2026-04-12T08:57:44.999Z</time></trkpt><trkpt lat="44.26878041912832" lon="11.618485149546133"><ele>275.66666666666663</ele><time>2026-04-12T08:57:46.999Z</time></trkpt><trkpt lat="44.26874599000583" lon="11.618617989959949"><ele>280.0</ele><time>2026-04-12T08:57:49.999Z</time></trkpt><trkpt lat="44.2687184740247" lon="11.61871368388773"><ele>280.0</ele><time>2026-04-12T08:57:52Z</time></trkpt><trkpt lat="44.26869584666396" lon="11.61879672516289"><ele>280.0</ele><time>2026-04-12T08:57:54Z</time></trkpt><trkpt lat="44.26867537678738" lon="11.618880275445669"><ele>280.0</ele><time>2026-04-12T08:57:56Z</time></trkpt><trkpt lat="44.26864795483145" lon="11.619020428750988"><ele>280.0</ele><time>2026-04-12T08:57:59Z</time></trkpt><trkpt lat="44.268613257647196" lon="11.61909848642425"><ele>280.0</ele><time>2026-04-12T08:58:01Z</time></trkpt><trkpt lat="44.268601935212246" lon="11.619204184310846"><ele>280.0</ele><time>2026-04-12T08:58:04Z</time></trkpt><trkpt lat="44.26858535927228" lon="11.619333048650974"><ele>280.0</ele><time>2026-04-12T08:58:07Z</time></trkpt><trkpt lat="44.26855276813749" lon="11.619433537477228"><ele>280.0</ele><time>2026-04-12T08:58:09Z</time></trkpt><trkpt lat="44.26848315249857" lon="11.619555565842123"><ele>280.0</ele><time>2026-04-12T08:58:11Z</time></trkpt><trkpt lat="44.268460756572246" lon="11.619674035291201"><ele>280.0</ele><time>2026-04-12T08:58:14Z</time></trkpt><trkpt lat="44.2684338887725" lon="11.619793380123474"><ele>280.0</ele><time>2026-04-12T08:58:17Z</time></trkpt><trkpt lat="44.268397718708435" lon="11.619907361148714"><ele>280.0</ele><time>2026-04-12T08:58:19Z</time></trkpt><trkpt lat="44.26836751529625" lon="11.61999238473649"><ele>280.0</ele><time>2026-04-12T08:58:21Z</time></trkpt><trkpt lat="44.26832696343725" lon="11.620110577053063"><ele>280.0</ele><time>2026-04-12T08:58:24Z</time></trkpt><trkpt lat="44.26830207186801" lon="11.620208619329745"><ele>280.0</ele><time>2026-04-12T08:58:27Z</time></trkpt><trkpt lat="44.268288088745315" lon="11.62030033142367"><ele>280.0</ele><time>2026-04-12T08:58:30Z</time></trkpt><trkpt lat="44.26826538453814" lon="11.620411571660117"><ele>280.0</ele><time>2026-04-12T08:58:33Z</time></trkpt><trkpt lat="44.268227774963314" lon="11.6204951551585"><ele>280.0</ele><time>2026-04-12T08:58:36Z</time></trkpt><trkpt lat="44.26821450651351" lon="11.620581918264048"><ele>280.0</ele><time>2026-04-12T08:58:37Z</time></trkpt><trkpt lat="44.26820181621479" lon="11.620686352129765"><ele>280.0</ele><time>2026-04-12T08:58:39Z</time></trkpt><trkpt lat="44.26818468842068" lon="11.620812167110417"><ele>280.0</ele><time>2026-04-12T08:58:42Z</time></trkpt><trkpt lat="44.26816758725423" lon="11.620899350158934"><ele>280.0</ele><time>2026-04-12T08:58:44Z</time></trkpt><trkpt lat="44.26816014492769" lon="11.621025473509231"><ele>280.0</ele><time>2026-04-12T08:58:48Z</time></trkpt><trkpt lat="44.26814359884448" lon="11.62115448525034"><ele>280.7142857142857</ele><time>2026-04-12T08:58:51Z</time></trkpt><trkpt lat="44.26813928986264" lon="11.621244282322625"><ele>281.42857142857144</ele><time>2026-04-12T08:58:53Z</time></trkpt><trkpt lat="44.26813542369885" lon="11.62134653348976"><ele>282.1428571428571</ele><time>2026-04-12T08:58:55Z</time></trkpt><trkpt lat="44.268138141187464" lon="11.621435642924913"><ele>282.8571428571429</ele><time>2026-04-12T08:58:57Z</time></trkpt><trkpt lat="44.268134816571504" lon="11.621551571552676"><ele>283.57142857142856</ele><time>2026-04-12T08:59:01Z</time></trkpt><trkpt lat="44.268156855962" lon="11.621645925833505"><ele>284.2857142857143</ele><time>2026-04-12T08:59:03Z</time></trkpt><trkpt lat="44.26815437081149" lon="11.621753906840883"><ele>285.0</ele><time>2026-04-12T08:59:06Z</time></trkpt><trkpt lat="44.268141489774074" lon="11.621856005794351"><ele>285.0</ele><time>2026-04-12T08:59:09Z</time></trkpt><trkpt lat="44.26812684139736" lon="11.621962442025007"><ele>285.0</ele><time>2026-04-12T08:59:12Z</time></trkpt><trkpt lat="44.26810922373544" lon="11.622074086869528"><ele>285.0</ele><time>2026-04-12T08:59:15Z</time></trkpt><trkpt lat="44.26812683189761" lon="11.622167964706035"><ele>285.0</ele><time>2026-04-12T08:59:18Z</time></trkpt><trkpt lat="44.26815319691586" lon="11.62226597933022"><ele>285.0</ele><time>2026-04-12T08:59:20Z</time></trkpt><trkpt lat="44.26813543407286" lon="11.622355713559893"><ele>285.0</ele><time>2026-04-12T08:59:22.999Z</time></trkpt><trkpt lat="44.26814414252464" lon="11.622444666875507"><ele>285.0</ele><time>2026-04-12T08:59:24.999Z</time></trkpt><trkpt lat="44.26814262427362" lon="11.622543851613377"><ele>286.6666666666667</ele><time>2026-04-12T08:59:27.999Z</time></trkpt><trkpt lat="44.268121741210116" lon="11.622650089514009"><ele>288.3333333333333</ele><time>2026-04-12T08:59:30.999Z</time></trkpt><trkpt lat="44.26810575088007" lon="11.62275243946702"><ele>290.0</ele><time>2026-04-12T08:59:32.999Z</time></trkpt><trkpt lat="44.26808240355422" lon="11.622868565697878"><ele>291.66666666666663</ele><time>2026-04-12T08:59:35.999Z</time></trkpt><trkpt lat="44.268062899373604" lon="11.622983836278848"><ele>293.3333333333333</ele><time>2026-04-12T08:59:38.999Z</time></trkpt><trkpt lat="44.268061583496326" lon="11.623092703675423"><ele>295.0</ele><time>2026-04-12T08:59:41.999Z</time></trkpt><trkpt lat="44.26805158987358" lon="11.623187202494561"><ele>296.16666666666663</ele><time>2026-04-12T08:59:43.999Z</time></trkpt><trkpt lat="44.26802901759839" lon="11.623294644851418"><ele>297.3333333333333</ele><time>2026-04-12T08:59:47.999Z</time></trkpt><trkpt lat="44.26804286411135" lon="11.623395758626458"><ele>298.5</ele><time>2026-04-12T08:59:50.999Z</time></trkpt><trkpt lat="44.26807549047114" lon="11.623482504699426"><ele>299.6666666666667</ele><time>2026-04-12T08:59:53.999Z</time></trkpt><trkpt lat="44.2681269891757" lon="11.623536932453268"><ele>300.83333333333337</ele><time>2026-04-12T08:59:57Z</time></trkpt><trkpt lat="44.26817353059505" lon="11.623660752829762"><ele>302.0</ele><time>2026-04-12T09:00:00Z</time></trkpt><trkpt lat="44.26822480328357" lon="11.62373614247394"><ele>303.33333333333337</ele><time>2026-04-12T09:00:03Z</time></trkpt><trkpt lat="44.26826747780627" lon="11.623853015587363"><ele>304.6666666666667</ele><time>2026-04-12T09:00:06Z</time></trkpt><trkpt lat="44.268277413773" lon="11.623956273058898"><ele>306.0</ele><time>2026-04-12T09:00:08Z</time></trkpt><trkpt lat="44.26828825746847" lon="11.624067504921541"><ele>307.3333333333333</ele><time>2026-04-12T09:00:11Z</time></trkpt><trkpt lat="44.26829790501484" lon="11.624181816463034"><ele>308.66666666666663</ele><time>2026-04-12T09:00:14Z</time></trkpt><trkpt lat="44.26827499507541" lon="11.62427859526148"><ele>310.0</ele><time>2026-04-12T09:00:16Z</time></trkpt><trkpt lat="44.26825972927241" lon="11.624384255125916"><ele>310.0</ele><time>2026-04-12T09:00:19Z</time></trkpt><trkpt lat="44.268207560070046" lon="11.624479541177575"><ele>310.0</ele><time>2026-04-12T09:00:22Z</time></trkpt><trkpt lat="44.268143649113554" lon="11.624506340600888"><ele>310.0</ele><time>2026-04-12T09:00:25Z</time></trkpt><trkpt lat="44.26809066714544" lon="11.624415906549022"><ele>310.0</ele><time>2026-04-12T09:00:29Z</time></trkpt><trkpt lat="44.268035830105546" lon="11.624365704734982"><ele>310.0</ele><time>2026-04-12T09:00:32Z</time></trkpt><trkpt lat="44.267983453195484" lon="11.624314112913089"><ele>310.0</ele><time>2026-04-12T09:00:35Z</time></trkpt><trkpt lat="44.267918011853894" lon="11.624264164202366"><ele>310.0</ele><time>2026-04-12T09:00:39Z</time></trkpt><trkpt lat="44.26784596251709" lon="11.624290378395221"><ele>314.5</ele><time>2026-04-12T09:00:43Z</time></trkpt><trkpt lat="44.2677810584139" lon="11.624356258240278"><ele>319.0</ele><time>2026-04-12T09:00:47Z</time></trkpt><trkpt lat="44.26770921150374" lon="11.624405632354945"><ele>323.5</ele><time>2026-04-12T09:00:51Z</time></trkpt><trkpt lat="44.26763177065876" lon="11.624429525662208"><ele>328.0</ele><time>2026-04-12T09:00:55Z</time></trkpt><trkpt lat="44.267553558901234" lon="11.624409577044423"><ele>332.5</ele><time>2026-04-12T09:00:59Z</time></trkpt><trkpt lat="44.267473651351054" lon="11.624407905521162"><ele>337.0</ele><time>2026-04-12T09:01:03Z</time></trkpt><trkpt lat="44.26741188684181" lon="11.624373715890766"><ele>337.00000000000006</ele><time>2026-04-12T09:01:05Z</time></trkpt><trkpt lat="44.26734677795474" lon="11.624366590512153"><ele>337.0</ele><time>2026-04-12T09:01:08Z</time></trkpt><trkpt lat="44.26726774276365" lon="11.624353887977795"><ele>337.0</ele><time>2026-04-12T09:01:11Z</time></trkpt><trkpt lat="44.26720433024165" lon="11.624339173051187"><ele>337.0</ele><time>2026-04-12T09:01:13Z</time></trkpt><trkpt lat="44.267122348465676" lon="11.62431424740603"><ele>337.0</ele><time>2026-04-12T09:01:16Z</time></trkpt><trkpt lat="44.26704948585622" lon="11.624302728061526"><ele>337.00000000000006</ele><time>2026-04-12T09:01:19Z</time></trkpt><trkpt lat="44.26698154367491" lon="11.624300834202332"><ele>337.0</ele><time>2026-04-12T09:01:22Z</time></trkpt><trkpt lat="44.2669041272227" lon="11.624302552690592"><ele>338.14285714285717</ele><time>2026-04-12T09:01:25Z</time></trkpt><trkpt lat="44.266834961868724" lon="11.62434187302519"><ele>339.2857142857143</ele><time>2026-04-12T09:01:28Z</time></trkpt><trkpt lat="44.26677724648311" lon="11.624398777175651"><ele>340.42857142857144</ele><time>2026-04-12T09:01:31Z</time></trkpt><trkpt lat="44.26670055883602" lon="11.624458859300272"><ele>341.57142857142856</ele><time>2026-04-12T09:01:34Z</time></trkpt><trkpt lat="44.26663896935109" lon="11.624523935123113"><ele>342.7142857142857</ele><time>2026-04-12T09:01:37Z</time></trkpt><trkpt lat="44.26657294757348" lon="11.624558027746394"><ele>343.8571428571429</ele><time>2026-04-12T09:01:40Z</time></trkpt><trkpt lat="44.26651643777752" lon="11.624600422587596"><ele>345.0</ele><time>2026-04-12T09:01:42.999Z</time></trkpt><trkpt lat="44.26644013384826" lon="11.624646669404472"><ele>347.6666666666667</ele><time>2026-04-12T09:01:45.999Z</time></trkpt><trkpt lat="44.266369023872755" lon="11.624695994093987"><ele>350.3333333333333</ele><time>2026-04-12T09:01:48.999Z</time></trkpt><trkpt lat="44.26630958928304" lon="11.624739824575336"><ele>353.0</ele><time>2026-04-12T09:01:50.999Z</time></trkpt><trkpt lat="44.266239046744786" lon="11.624773653592404"><ele>355.66666666666663</ele><time>2026-04-12T09:01:52.999Z</time></trkpt><trkpt lat="44.266174599581035" lon="11.624832525260318"><ele>358.3333333333333</ele><time>2026-04-12T09:01:55.999Z</time></trkpt><trkpt lat="44.26611403867252" lon="11.624865106926249"><ele>361.0</ele><time>2026-04-12T09:01:57.999Z</time></trkpt><trkpt lat="44.26602485659719" lon="11.624887447474732"><ele>361.0</ele><time>2026-04-12T09:02:00.999Z</time></trkpt><trkpt lat="44.265937793357686" lon="11.624935123179682"><ele>361.0</ele><time>2026-04-12T09:02:04Z</time></trkpt><trkpt lat="44.26586503529164" lon="11.625000296419284"><ele>361.0</ele><time>2026-04-12T09:02:07Z</time></trkpt><trkpt lat="44.26580087060534" lon="11.625045958532993"><ele>361.0</ele><time>2026-04-12T09:02:09Z</time></trkpt><trkpt lat="44.26572870371248" lon="11.625090968983374"><ele>361.0</ele><time>2026-04-12T09:02:11Z</time></trkpt><trkpt lat="44.26564575739068" lon="11.62513149103641"><ele>361.0</ele><time>2026-04-12T09:02:13Z</time></trkpt><trkpt lat="44.26557303299118" lon="11.625187696638996"><ele>364.0</ele><time>2026-04-12T09:02:16Z</time></trkpt><trkpt lat="44.265513363461274" lon="11.62523092511234"><ele>367.0</ele><time>2026-04-12T09:02:18Z</time></trkpt><trkpt lat="44.2654575811572" lon="11.625311035930276"><ele>370.0</ele><time>2026-04-12T09:02:20Z</time></trkpt><trkpt lat="44.26541345925314" lon="11.625428328741584"><ele>373.0</ele><time>2026-04-12T09:02:22Z</time></trkpt><trkpt lat="44.265363703431404" lon="11.62553767545175"><ele>376.0</ele><time>2026-04-12T09:02:24Z</time></trkpt><trkpt lat="44.26528966950949" lon="11.625657286824008"><ele>379.0</ele><time>2026-04-12T09:02:26Z</time></trkpt><trkpt lat="44.26522363931346" lon="11.62571608532634"><ele>379.0</ele><time>2026-04-12T09:02:28Z</time></trkpt><trkpt lat="44.26516373238586" lon="11.625763806786964"><ele>379.0</ele><time>2026-04-12T09:02:30Z</time></trkpt><trkpt lat="44.2651172001921" lon="11.625825695178015"><ele>379.0</ele><time>2026-04-12T09:02:32Z</time></trkpt><trkpt lat="44.265097465333135" lon="11.625969506971868"><ele>379.0</ele><time>2026-04-12T09:02:34Z</time></trkpt><trkpt lat="44.2651107902451" lon="11.626081985788089"><ele>379.0</ele><time>2026-04-12T09:02:36Z</time></trkpt><trkpt lat="44.26510268912948" lon="11.626184234603782"><ele>379.0</ele><time>2026-04-12T09:02:38Z</time></trkpt><trkpt lat="44.26508215318302" lon="11.6262778018447"><ele>377.5</ele><time>2026-04-12T09:02:40Z</time></trkpt><trkpt lat="44.26505825831495" lon="11.626367736636412"><ele>376.0</ele><time>2026-04-12T09:02:42Z</time></trkpt><trkpt lat="44.26501289057789" lon="11.626430410066792"><ele>374.5</ele><time>2026-04-12T09:02:44Z</time></trkpt><trkpt lat="44.264967070548806" lon="11.626512135645603"><ele>373.0</ele><time>2026-04-12T09:02:46Z</time></trkpt><trkpt lat="44.264925490405446" lon="11.626602076560202"><ele>371.5</ele><time>2026-04-12T09:02:49Z</time></trkpt><trkpt lat="44.26487277169307" lon="11.626712717048388"><ele>370.0</ele><time>2026-04-12T09:02:52Z</time></trkpt><trkpt lat="44.26482096533921" lon="11.626817022402209"><ele>370.0</ele><time>2026-04-12T09:02:55Z</time></trkpt><trkpt lat="44.26480160196985" lon="11.62690816809777"><ele>370.0</ele><time>2026-04-12T09:02:58Z</time></trkpt><trkpt lat="44.26476693095224" lon="11.627020434755044"><ele>370.0</ele><time>2026-04-12T09:03:01Z</time></trkpt><trkpt lat="44.26471566196687" lon="11.627129455878372"><ele>370.0</ele><time>2026-04-12T09:03:03Z</time></trkpt><trkpt lat="44.26466543719783" lon="11.627235374044012"><ele>370.0</ele><time>2026-04-12T09:03:06Z</time></trkpt><trkpt lat="44.26463925729451" lon="11.627318619676446"><ele>370.0</ele><time>2026-04-12T09:03:08Z</time></trkpt><trkpt lat="44.26459451946666" lon="11.627418227796564"><ele>374.0</ele><time>2026-04-12T09:03:11Z</time></trkpt><trkpt lat="44.2645934060099" lon="11.62753375801389"><ele>378.0</ele><time>2026-04-12T09:03:14Z</time></trkpt><trkpt lat="44.26458369502855" lon="11.627651888256423"><ele>382.0</ele><time>2026-04-12T09:03:16Z</time></trkpt><trkpt lat="44.264557006919105" lon="11.627799747606739"><ele>386.0</ele><time>2026-04-12T09:03:19Z</time></trkpt><trkpt lat="44.26455139395494" lon="11.627927292222303"><ele>390.0</ele><time>2026-04-12T09:03:21Z</time></trkpt><trkpt lat="44.26457024506648" lon="11.628074376695116"><ele>390.0</ele><time>2026-04-12T09:03:23Z</time></trkpt><trkpt lat="44.26455854432708" lon="11.628178388304795"><ele>390.0</ele><time>2026-04-12T09:03:24Z</time></trkpt><trkpt lat="44.264491697742" lon="11.628261298325667"><ele>390.0</ele><time>2026-04-12T09:03:26Z</time></trkpt><trkpt lat="44.26444366418967" lon="11.628345871438292"><ele>390.0</ele><time>2026-04-12T09:03:28Z</time></trkpt><trkpt lat="44.264403187598845" lon="11.628428988529333"><ele>390.0</ele><time>2026-04-12T09:03:30Z</time></trkpt><trkpt lat="44.26436426059068" lon="11.62850755186591"><ele>390.0</ele><time>2026-04-12T09:03:32Z</time></trkpt><trkpt lat="44.26432247534252" lon="11.628587609929925"><ele>389.6666666666667</ele><time>2026-04-12T09:03:34Z</time></trkpt><trkpt lat="44.26427242510695" lon="11.628679280687988"><ele>389.33333333333337</ele><time>2026-04-12T09:03:36Z</time></trkpt><trkpt lat="44.264221813552965" lon="11.628783275655575"><ele>389.0</ele><time>2026-04-12T09:03:39Z</time></trkpt><trkpt lat="44.26419693104311" lon="11.628864183614425"><ele>388.6666666666667</ele><time>2026-04-12T09:03:41Z</time></trkpt><trkpt lat="44.26417355201247" lon="11.628952267179267"><ele>388.33333333333337</ele><time>2026-04-12T09:03:43Z</time></trkpt><trkpt lat="44.264127242736976" lon="11.629053173471714"><ele>388.0</ele><time>2026-04-12T09:03:45Z</time></trkpt><trkpt lat="44.264106640472114" lon="11.629171435793873"><ele>388.00000000000006</ele><time>2026-04-12T09:03:47Z</time></trkpt><trkpt lat="44.264111649333074" lon="11.62926989710482"><ele>388.0</ele><time>2026-04-12T09:03:49Z</time></trkpt><trkpt lat="44.264127762927174" lon="11.629377206169814"><ele>388.0</ele><time>2026-04-12T09:03:52Z</time></trkpt><trkpt lat="44.26417650699332" lon="11.62945368156994"><ele>388.0</ele><time>2026-04-12T09:03:54Z</time></trkpt><trkpt lat="44.26426490136539" lon="11.629488216473625"><ele>388.00000000000006</ele><time>2026-04-12T09:03:56Z</time></trkpt><trkpt lat="44.264274300643834" lon="11.62959205591724"><ele>388.0</ele><time>2026-04-12T09:03:58Z</time></trkpt><trkpt lat="44.26424146878477" lon="11.629750143780958"><ele>387.79999999999995</ele><time>2026-04-12T09:04:00Z</time></trkpt><trkpt lat="44.26420203201455" lon="11.629837156969035"><ele>387.6</ele><time>2026-04-12T09:04:02Z</time></trkpt><trkpt lat="44.26415774074824" lon="11.629960648484188"><ele>387.4</ele><time>2026-04-12T09:04:04Z</time></trkpt><trkpt lat="44.26410386172808" lon="11.630118291951815"><ele>387.20000000000005</ele><time>2026-04-12T09:04:06Z</time></trkpt><trkpt lat="44.26403722357398" lon="11.630238727604395"><ele>387.0</ele><time>2026-04-12T09:04:08Z</time></trkpt><trkpt lat="44.26395379870258" lon="11.630243584413396"><ele>388.40000000000003</ele><time>2026-04-12T09:04:12Z</time></trkpt><trkpt lat="44.26385123086818" lon="11.630255732126654"><ele>389.8</ele><time>2026-04-12T09:04:14Z</time></trkpt><trkpt lat="44.26378059676105" lon="11.630247861499631"><ele>391.2</ele><time>2026-04-12T09:04:16Z</time></trkpt><trkpt lat="44.26369489484569" lon="11.63023581356732"><ele>392.6</ele><time>2026-04-12T09:04:18Z</time></trkpt><trkpt lat="44.26358931005431" lon="11.630265838203481"><ele>394.0</ele><time>2026-04-12T09:04:20Z</time></trkpt><trkpt lat="44.263508013831256" lon="11.630311756326844"><ele>394.0</ele><time>2026-04-12T09:04:22Z</time></trkpt><trkpt lat="44.263421396152" lon="11.630358188158109"><ele>394.0</ele><time>2026-04-12T09:04:24Z</time></trkpt><trkpt lat="44.26333304052903" lon="11.630405243511376"><ele>394.0</ele><time>2026-04-12T09:04:26Z</time></trkpt><trkpt lat="44.26322760583291" lon="11.630444033468505"><ele>394.0</ele><time>2026-04-12T09:04:28Z</time></trkpt><trkpt lat="44.26314591269154" lon="11.63049455363442"><ele>394.0</ele><time>2026-04-12T09:04:30Z</time></trkpt><trkpt lat="44.26306102604338" lon="11.630550089521641"><ele>398.1666666666667</ele><time>2026-04-12T09:04:32Z</time></trkpt><trkpt lat="44.262966148638434" lon="11.630626874676949"><ele>402.33333333333337</ele><time>2026-04-12T09:04:34Z</time></trkpt><trkpt lat="44.26290774682244" lon="11.630721721947031"><ele>406.5</ele><time>2026-04-12T09:04:36Z</time></trkpt><trkpt lat="44.2628523795338" lon="11.630830206432229"><ele>410.66666666666663</ele><time>2026-04-12T09:04:38Z</time></trkpt><trkpt lat="44.26281513786187" lon="11.630926011328587"><ele>414.8333333333333</ele><time>2026-04-12T09:04:40Z</time></trkpt><trkpt lat="44.262770232833574" lon="11.631010269109671"><ele>419.0</ele><time>2026-04-12T09:04:42Z</time></trkpt><trkpt lat="44.26271580744813" lon="11.631092587500984"><ele>418.99999999999994</ele><time>2026-04-12T09:04:45Z</time></trkpt><trkpt lat="44.262652363001465" lon="11.631125046030212"><ele>419.0</ele><time>2026-04-12T09:04:48Z</time></trkpt><trkpt lat="44.2625927721853" lon="11.63118105133058"><ele>419.0</ele><time>2026-04-12T09:04:51Z</time></trkpt><trkpt lat="44.26252324649169" lon="11.631206065954196"><ele>419.0</ele><time>2026-04-12T09:04:54Z</time></trkpt><trkpt lat="44.26241467963347" lon="11.63122904892546"><ele>418.99999999999994</ele><time>2026-04-12T09:04:56Z</time></trkpt><trkpt lat="44.26231965217107" lon="11.631263742916968"><ele>419.0</ele><time>2026-04-12T09:04:58Z</time></trkpt><trkpt lat="44.26220650918939" lon="11.631266983163265"><ele>417.49999999999994</ele><time>2026-04-12T09:05:00Z</time></trkpt><trkpt lat="44.26214380644928" lon="11.631289879673718"><ele>416.0</ele><time>2026-04-12T09:05:01Z</time></trkpt><trkpt lat="44.26202717250544" lon="11.631273007097134"><ele>414.5</ele><time>2026-04-12T09:05:03Z</time></trkpt><trkpt lat="44.26193375524023" lon="11.63131275317354"><ele>413.0</ele><time>2026-04-12T09:05:05Z</time></trkpt><trkpt lat="44.26187709443003" lon="11.631351883536592"><ele>411.49999999999994</ele><time>2026-04-12T09:05:06Z</time></trkpt><trkpt lat="44.26181677481895" lon="11.6314134675194"><ele>410.0</ele><time>2026-04-12T09:05:07Z</time></trkpt><trkpt lat="44.26174368492271" lon="11.631508328552634"><ele>409.99999999999994</ele><time>2026-04-12T09:05:08Z</time></trkpt><trkpt lat="44.26170073540623" lon="11.631628396655115"><ele>410.0</ele><time>2026-04-12T09:05:09Z</time></trkpt><trkpt lat="44.261682607405625" lon="11.631726857430074"><ele>410.0</ele><time>2026-04-12T09:05:10Z</time></trkpt><trkpt lat="44.26166673929672" lon="11.631822509745012"><ele>410.0</ele><time>2026-04-12T09:05:11Z</time></trkpt><trkpt lat="44.26164729585036" lon="11.631911959244535"><ele>409.99999999999994</ele><time>2026-04-12T09:05:13Z</time></trkpt><trkpt lat="44.261635263447076" lon="11.63201695327738"><ele>410.0</ele><time>2026-04-12T09:05:15Z</time></trkpt><trkpt lat="44.26162690353273" lon="11.632113305154077"><ele>408.4</ele><time>2026-04-12T09:05:17Z</time></trkpt><trkpt lat="44.26164190337584" lon="11.632241322374979"><ele>406.8</ele><time>2026-04-12T09:05:20Z</time></trkpt><trkpt lat="44.26165426345384" lon="11.6323727335505"><ele>405.20000000000005</ele><time>2026-04-12T09:05:23Z</time></trkpt><trkpt lat="44.261689021407236" lon="11.632518624473555"><ele>403.6</ele><time>2026-04-12T09:05:25Z</time></trkpt><trkpt lat="44.261628509696436" lon="11.632666566130617"><ele>402.0</ele><time>2026-04-12T09:05:27Z</time></trkpt><trkpt lat="44.261515085858655" lon="11.632717347734825"><ele>403.0</ele><time>2026-04-12T09:05:29Z</time></trkpt><trkpt lat="44.26144473959444" lon="11.632717777559886"><ele>404.0</ele><time>2026-04-12T09:05:30Z</time></trkpt><trkpt lat="44.261385219539584" lon="11.632669637629725"><ele>405.0</ele><time>2026-04-12T09:05:31Z</time></trkpt><trkpt lat="44.26131749287233" lon="11.63272694265202"><ele>406.0</ele><time>2026-04-12T09:05:32Z</time></trkpt><trkpt lat="44.261242618841564" lon="11.63278272850621"><ele>407.0</ele><time>2026-04-12T09:05:33Z</time></trkpt><trkpt lat="44.261157001852105" lon="11.632872386009435"><ele>408.0</ele><time>2026-04-12T09:05:35Z</time></trkpt><trkpt lat="44.261083064784735" lon="11.63300598323481"><ele>408.0</ele><time>2026-04-12T09:05:36Z</time></trkpt><trkpt lat="44.26103092406015" lon="11.633091892377546"><ele>408.0</ele><time>2026-04-12T09:05:37Z</time></trkpt><trkpt lat="44.26098067265536" lon="11.633188504537534"><ele>408.0</ele><time>2026-04-12T09:05:38Z</time></trkpt><trkpt lat="44.26090539297103" lon="11.633285011889638"><ele>408.0</ele><time>2026-04-12T09:05:40Z</time></trkpt><trkpt lat="44.260857761072" lon="11.633383288807096"><ele>408.0</ele><time>2026-04-12T09:05:42Z</time></trkpt><trkpt lat="44.26084508512818" lon="11.633472838235962"><ele>408.0</ele><time>2026-04-12T09:05:43Z</time></trkpt><trkpt lat="44.260864108274134" lon="11.633558025023532"><ele>405.8333333333333</ele><time>2026-04-12T09:05:44Z</time></trkpt><trkpt lat="44.26086339829265" lon="11.633650754370244"><ele>403.66666666666663</ele><time>2026-04-12T09:05:45Z</time></trkpt><trkpt lat="44.26085255119895" lon="11.633756570731101"><ele>401.5</ele><time>2026-04-12T09:05:46Z</time></trkpt><trkpt lat="44.260831965702884" lon="11.633847555301394"><ele>399.3333333333333</ele><time>2026-04-12T09:05:47Z</time></trkpt><trkpt lat="44.260808348755006" lon="11.63398264068016"><ele>397.16666666666663</ele><time>2026-04-12T09:05:48Z</time></trkpt><trkpt lat="44.26074772252135" lon="11.634141426583168"><ele>395.0</ele><time>2026-04-12T09:05:50Z</time></trkpt><trkpt lat="44.26069459603881" lon="11.634207339296756"><ele>394.99999999999994</ele><time>2026-04-12T09:05:51Z</time></trkpt><trkpt lat="44.26065581717572" lon="11.634316592765405"><ele>395.0</ele><time>2026-04-12T09:05:52Z</time></trkpt><trkpt lat="44.260598309263074" lon="11.634429239511618"><ele>395.0</ele><time>2026-04-12T09:05:53Z</time></trkpt><trkpt lat="44.26055100581776" lon="11.634547500296199"><ele>395.0</ele><time>2026-04-12T09:05:54Z</time></trkpt><trkpt lat="44.26053037721944" lon="11.634666368830844"><ele>394.99999999999994</ele><time>2026-04-12T09:05:55Z</time></trkpt><trkpt lat="44.260534144669386" lon="11.634775355751298"><ele>395.0</ele><time>2026-04-12T09:05:56Z</time></trkpt><trkpt lat="44.260541957097516" lon="11.634876195090152"><ele>396.49999999999994</ele><time>2026-04-12T09:05:57Z</time></trkpt><trkpt lat="44.26053397827373" lon="11.635012029893707"><ele>398.0</ele><time>2026-04-12T09:06:00Z</time></trkpt><trkpt lat="44.26050132858847" lon="11.635099219701027"><ele>399.5</ele><time>2026-04-12T09:06:01Z</time></trkpt><trkpt lat="44.260469169086214" lon="11.635203732940171"><ele>401.0</ele><time>2026-04-12T09:06:03Z</time></trkpt><trkpt lat="44.26040269636541" lon="11.635292965957236"><ele>402.49999999999994</ele><time>2026-04-12T09:06:05Z</time></trkpt><trkpt lat="44.26034167094434" lon="11.63537496894145"><ele>404.0</ele><time>2026-04-12T09:06:07Z</time></trkpt><trkpt lat="44.26027772320104" lon="11.635371280118434"><ele>403.99999999999994</ele><time>2026-04-12T09:06:08Z</time></trkpt><trkpt lat="44.26021180464936" lon="11.635406214109336"><ele>404.0</ele><time>2026-04-12T09:06:09Z</time></trkpt><trkpt lat="44.26016222333495" lon="11.635475949686217"><ele>404.0</ele><time>2026-04-12T09:06:11Z</time></trkpt><trkpt lat="44.260083526062495" lon="11.635511759462656"><ele>404.0</ele><time>2026-04-12T09:06:14Z</time></trkpt><trkpt lat="44.26001730561271" lon="11.635531965765095"><ele>403.99999999999994</ele><time>2026-04-12T09:06:16Z</time></trkpt><trkpt lat="44.25992734812513" lon="11.63556101661296"><ele>404.0</ele><time>2026-04-12T09:06:19Z</time></trkpt><trkpt lat="44.2598466021138" lon="11.635532481725544"><ele>404.66666666666663</ele><time>2026-04-12T09:06:23Z</time></trkpt><trkpt lat="44.259779798521315" lon="11.635430112975095"><ele>405.3333333333333</ele><time>2026-04-12T09:06:26Z</time></trkpt><trkpt lat="44.25971951653816" lon="11.635360066408978"><ele>406.0</ele><time>2026-04-12T09:06:29Z</time></trkpt><trkpt lat="44.25966992858746" lon="11.635295352379183"><ele>406.66666666666663</ele><time>2026-04-12T09:06:31Z</time></trkpt><trkpt lat="44.25961667808829" lon="11.635232887642955"><ele>407.3333333333333</ele><time>2026-04-12T09:06:33Z</time></trkpt><trkpt lat="44.25954307565221" lon="11.63518332754075"><ele>408.0</ele><time>2026-04-12T09:06:35Z</time></trkpt><trkpt lat="44.2595150689996" lon="11.635065603285831"><ele>409.0</ele><time>2026-04-12T09:06:37Z</time></trkpt><trkpt lat="44.25946017849609" lon="11.634985039255575"><ele>410.0</ele><time>2026-04-12T09:06:39Z</time></trkpt><trkpt lat="44.2594051137663" lon="11.634940587064683"><ele>411.0</ele><time>2026-04-12T09:06:41Z</time></trkpt><trkpt lat="44.25932634638724" lon="11.634875156204158"><ele>412.0</ele><time>2026-04-12T09:06:44Z</time></trkpt><trkpt lat="44.25925316621979" lon="11.634805953274078"><ele>413.0</ele><time>2026-04-12T09:06:46Z</time></trkpt><trkpt lat="44.25915837295604" lon="11.634745743934928"><ele>414.0</ele><time>2026-04-12T09:06:49Z</time></trkpt><trkpt lat="44.259064804368016" lon="11.634687933364924"><ele>414.0</ele><time>2026-04-12T09:06:52Z</time></trkpt><trkpt lat="44.258998745455315" lon="11.634633546140904"><ele>414.0</ele><time>2026-04-12T09:06:54Z</time></trkpt><trkpt lat="44.25893681929682" lon="11.63461586010115"><ele>414.0</ele><time>2026-04-12T09:06:56Z</time></trkpt><trkpt lat="44.25885138854631" lon="11.634573836087629"><ele>414.0</ele><time>2026-04-12T09:06:59Z</time></trkpt><trkpt lat="44.258762974551395" lon="11.63454801069693"><ele>414.0</ele><time>2026-04-12T09:07:02Z</time></trkpt><trkpt lat="44.25867763966828" lon="11.634527207112303"><ele>414.0</ele><time>2026-04-12T09:07:05Z</time></trkpt><trkpt lat="44.258587416183" lon="11.63451955214223"><ele>415.3333333333333</ele><time>2026-04-12T09:07:08Z</time></trkpt><trkpt lat="44.258492806569016" lon="11.634519246198513"><ele>416.66666666666663</ele><time>2026-04-12T09:07:11Z</time></trkpt><trkpt lat="44.258410158014485" lon="11.634519689407103"><ele>418.0</ele><time>2026-04-12T09:07:14Z</time></trkpt><trkpt lat="44.25833560809329" lon="11.634530209135457"><ele>419.3333333333333</ele><time>2026-04-12T09:07:17Z</time></trkpt><trkpt lat="44.25826890620098" lon="11.634508624648669"><ele>420.66666666666663</ele><time>2026-04-12T09:07:20Z</time></trkpt><trkpt lat="44.25820775709907" lon="11.634467977554872"><ele>422.0</ele><time>2026-04-12T09:07:23Z</time></trkpt><trkpt lat="44.25813944369368" lon="11.634390821619428"><ele>419.8333333333333</ele><time>2026-04-12T09:07:26Z</time></trkpt><trkpt lat="44.258102246812534" lon="11.634315194474055"><ele>417.66666666666663</ele><time>2026-04-12T09:07:29Z</time></trkpt><trkpt lat="44.25807253103399" lon="11.634219994207827"><ele>415.5</ele><time>2026-04-12T09:07:32Z</time></trkpt><trkpt lat="44.25804131627654" lon="11.634113395952069"><ele>413.33333333333337</ele><time>2026-04-12T09:07:35Z</time></trkpt><trkpt lat="44.25801491339872" lon="11.634005105560114"><ele>411.1666666666667</ele><time>2026-04-12T09:10:34Z</time></trkpt><trkpt lat="44.25794652394135" lon="11.633938260908938"><ele>409.0</ele><time>2026-04-12T09:10:42Z</time></trkpt><trkpt lat="44.25788592183077" lon="11.633877021577685"><ele>409.0</ele><time>2026-04-12T09:10:44Z</time></trkpt><trkpt lat="44.25779067005806" lon="11.633812555585951"><ele>409.0</ele><time>2026-04-12T09:10:46Z</time></trkpt><trkpt lat="44.25765315016464" lon="11.633748825383657"><ele>409.0</ele><time>2026-04-12T09:10:48Z</time></trkpt><trkpt lat="44.257566262513805" lon="11.633702723852327"><ele>409.0</ele><time>2026-04-12T09:10:49Z</time></trkpt><trkpt lat="44.257472735230884" lon="11.633652191861175"><ele>409.0</ele><time>2026-04-12T09:10:50Z</time></trkpt><trkpt lat="44.257389192449104" lon="11.63360324271153"><ele>408.00000000000006</ele><time>2026-04-12T09:10:51Z</time></trkpt><trkpt lat="44.2573249516091" lon="11.633558873050966"><ele>407.0</ele><time>2026-04-12T09:10:52Z</time></trkpt><trkpt lat="44.257211274982986" lon="11.633492371217782"><ele>406.0</ele><time>2026-04-12T09:10:54Z</time></trkpt><trkpt lat="44.2571376688329" lon="11.633466833103618"><ele>405.0</ele><time>2026-04-12T09:10:55Z</time></trkpt><trkpt lat="44.25704892774949" lon="11.63346479422245"><ele>404.00000000000006</ele><time>2026-04-12T09:10:56Z</time></trkpt><trkpt lat="44.25696341993653" lon="11.633479724190492"><ele>403.0</ele><time>2026-04-12T09:10:57Z</time></trkpt><trkpt lat="44.25688315511232" lon="11.63346964475189"><ele>400.2</ele><time>2026-04-12T09:10:58Z</time></trkpt><trkpt lat="44.256793480106126" lon="11.633433709705779"><ele>397.4</ele><time>2026-04-12T09:10:59Z</time></trkpt><trkpt lat="44.25671943802605" lon="11.633419269527627"><ele>394.59999999999997</ele><time>2026-04-12T09:11:00Z</time></trkpt><trkpt lat="44.25661519979146" lon="11.633467706749393"><ele>391.79999999999995</ele><time>2026-04-12T09:11:02Z</time></trkpt><trkpt lat="44.25651725417559" lon="11.633462142495913"><ele>389.0</ele><time>2026-04-12T09:11:04Z</time></trkpt><trkpt lat="44.25642814025013" lon="11.633552352407087"><ele>387.66666666666663</ele><time>2026-04-12T09:11:06Z</time></trkpt><trkpt lat="44.256317488955034" lon="11.633546431193185"><ele>386.3333333333333</ele><time>2026-04-12T09:11:08Z</time></trkpt><trkpt lat="44.25628398824241" lon="11.633471926257664"><ele>385.0</ele><time>2026-04-12T09:11:09Z</time></trkpt><trkpt lat="44.25622098485942" lon="11.633353119320711"><ele>383.66666666666663</ele><time>2026-04-12T09:11:11Z</time></trkpt><trkpt lat="44.256164653989835" lon="11.633289340665469"><ele>382.3333333333333</ele><time>2026-04-12T09:11:12Z</time></trkpt><trkpt lat="44.25609813578063" lon="11.633243386166729"><ele>381.0</ele><time>2026-04-12T09:11:13Z</time></trkpt><trkpt lat="44.25603024520323" lon="11.633209665902056"><ele>381.0</ele><time>2026-04-12T09:11:14Z</time></trkpt><trkpt lat="44.25596274789431" lon="11.633160068210168"><ele>381.0</ele><time>2026-04-12T09:11:15Z</time></trkpt><trkpt lat="44.255888687035686" lon="11.633121749807659"><ele>381.0</ele><time>2026-04-12T09:11:17Z</time></trkpt><trkpt lat="44.25578739585339" lon="11.633240868943233"><ele>381.0</ele><time>2026-04-12T09:11:19Z</time></trkpt><trkpt lat="44.255754709280595" lon="11.633320115230926"><ele>381.0</ele><time>2026-04-12T09:11:20Z</time></trkpt><trkpt lat="44.255724429644935" lon="11.633440823724525"><ele>381.0</ele><time>2026-04-12T09:11:21Z</time></trkpt><trkpt lat="44.25566565882242" lon="11.63354951113706"><ele>377.8333333333333</ele><time>2026-04-12T09:11:23Z</time></trkpt><trkpt lat="44.255591255384324" lon="11.63352406324589"><ele>374.6666666666667</ele><time>2026-04-12T09:11:24Z</time></trkpt><trkpt lat="44.25551831497246" lon="11.633470189179286"><ele>371.5</ele><time>2026-04-12T09:11:25Z</time></trkpt><trkpt lat="44.25544745751861" lon="11.633410871166697"><ele>368.33333333333337</ele><time>2026-04-12T09:11:26Z</time></trkpt><trkpt lat="44.255373720398794" lon="11.633355874495622"><ele>365.1666666666667</ele><time>2026-04-12T09:11:27Z</time></trkpt><trkpt lat="44.25529727606671" lon="11.633317116153666"><ele>362.0</ele><time>2026-04-12T09:11:28Z</time></trkpt><trkpt lat="44.25522372637946" lon="11.633267605092843"><ele>362.0</ele><time>2026-04-12T09:11:29Z</time></trkpt><trkpt lat="44.255155564735404" lon="11.63322298813095"><ele>362.0</ele><time>2026-04-12T09:11:30Z</time></trkpt><trkpt lat="44.25508873792144" lon="11.633194692372678"><ele>362.0</ele><time>2026-04-12T09:11:31Z</time></trkpt><trkpt lat="44.255022638468894" lon="11.63315739255115"><ele>362.0</ele><time>2026-04-12T09:11:32Z</time></trkpt><trkpt lat="44.25497790002622" lon="11.632996487897092"><ele>362.0</ele><time>2026-04-12T09:11:34Z</time></trkpt><trkpt lat="44.254975384025485" lon="11.632887486529512"><ele>362.0</ele><time>2026-04-12T09:11:36Z</time></trkpt><trkpt lat="44.25495447293012" lon="11.632782342865461"><ele>361.83333333333337</ele><time>2026-04-12T09:11:37Z</time></trkpt><trkpt lat="44.25492981482891" lon="11.632677164326061"><ele>361.6666666666667</ele><time>2026-04-12T09:11:38Z</time></trkpt><trkpt lat="44.25489066588137" lon="11.63258187701315"><ele>361.5</ele><time>2026-04-12T09:11:39Z</time></trkpt><trkpt lat="44.254853883481964" lon="11.632480710305998"><ele>361.3333333333333</ele><time>2026-04-12T09:11:40Z</time></trkpt><trkpt lat="44.25482023738553" lon="11.63238967520972"><ele>361.16666666666663</ele><time>2026-04-12T09:11:41Z</time></trkpt><trkpt lat="44.254758331158015" lon="11.632311590186744"><ele>361.0</ele><time>2026-04-12T09:11:42Z</time></trkpt><trkpt lat="44.25468648159233" lon="11.632235683075463"><ele>361.0</ele><time>2026-04-12T09:11:43Z</time></trkpt><trkpt lat="44.254613416886066" lon="11.632155452139104"><ele>361.0</ele><time>2026-04-12T09:11:44Z</time></trkpt><trkpt lat="44.25454648546533" lon="11.632082557163006"><ele>361.0</ele><time>2026-04-12T09:11:45Z</time></trkpt><trkpt lat="44.25448648307316" lon="11.63202381680134"><ele>361.0</ele><time>2026-04-12T09:11:46Z</time></trkpt><trkpt lat="44.25442496590331" lon="11.631972353333278"><ele>361.0</ele><time>2026-04-12T09:11:47Z</time></trkpt><trkpt lat="44.25435955514737" lon="11.631917334521564"><ele>361.0</ele><time>2026-04-12T09:11:48Z</time></trkpt><trkpt lat="44.254302799843614" lon="11.631868293123771"><ele>362.16666666666663</ele><time>2026-04-12T09:11:49Z</time></trkpt><trkpt lat="44.254240468734835" lon="11.631808224955561"><ele>363.3333333333333</ele><time>2026-04-12T09:11:50Z</time></trkpt><trkpt lat="44.25418700741249" lon="11.63175096000956"><ele>364.5</ele><time>2026-04-12T09:11:51Z</time></trkpt><trkpt lat="44.254127794855954" lon="11.63170035236775"><ele>365.6666666666667</ele><time>2026-04-12T09:11:52Z</time></trkpt><trkpt lat="44.25402548893144" lon="11.63160663530781"><ele>366.83333333333337</ele><time>2026-04-12T09:11:54Z</time></trkpt><trkpt lat="44.25393015411929" lon="11.631536060299887"><ele>368.0</ele><time>2026-04-12T09:11:56Z</time></trkpt><trkpt lat="44.25383950512572" lon="11.631446694015434"><ele>368.0</ele><time>2026-04-12T09:11:58Z</time></trkpt><trkpt lat="44.253760593147476" lon="11.631362345757918"><ele>368.0</ele><time>2026-04-12T09:12:00Z</time></trkpt><trkpt lat="44.25369560074696" lon="11.631291890142728"><ele>368.0</ele><time>2026-04-12T09:12:02Z</time></trkpt><trkpt lat="44.25362859569463" lon="11.631216352818448"><ele>368.0</ele><time>2026-04-12T09:12:04Z</time></trkpt><trkpt lat="44.253552420922865" lon="11.631150227322212"><ele>368.0</ele><time>2026-04-12T09:12:06Z</time></trkpt><trkpt lat="44.25345555858705" lon="11.631144604193308"><ele>368.0</ele><time>2026-04-12T09:12:08Z</time></trkpt><trkpt lat="44.253336811898386" lon="11.631145657108501"><ele>368.0</ele><time>2026-04-12T09:12:10Z</time></trkpt><trkpt lat="44.253220126013815" lon="11.631195400330162"><ele>368.0</ele><time>2026-04-12T09:12:12Z</time></trkpt><trkpt lat="44.25315903862698" lon="11.631234451687774"><ele>368.0</ele><time>2026-04-12T09:12:13Z</time></trkpt><trkpt lat="44.25309736961455" lon="11.631268990344111"><ele>368.0</ele><time>2026-04-12T09:12:14Z</time></trkpt><trkpt lat="44.253030237996576" lon="11.631301860754467"><ele>368.0</ele><time>2026-04-12T09:12:15Z</time></trkpt><trkpt lat="44.25295604495808" lon="11.631323367339126"><ele>367.1666666666667</ele><time>2026-04-12T09:12:16Z</time></trkpt><trkpt lat="44.25288704804224" lon="11.631331481287049"><ele>366.33333333333337</ele><time>2026-04-12T09:12:17Z</time></trkpt><trkpt lat="44.25281917712461" lon="11.63135004930774"><ele>365.5</ele><time>2026-04-12T09:12:18Z</time></trkpt><trkpt lat="44.25275318796115" lon="11.631358228151662"><ele>364.6666666666667</ele><time>2026-04-12T09:12:19Z</time></trkpt><trkpt lat="44.25268559247688" lon="11.631350214592153"><ele>363.8333333333333</ele><time>2026-04-12T09:12:20Z</time></trkpt><trkpt lat="44.25256807727739" lon="11.631349034192848"><ele>363.0</ele><time>2026-04-12T09:12:22Z</time></trkpt><trkpt lat="44.25245377026024" lon="11.631367945324227"><ele>363.0</ele><time>2026-04-12T09:12:24Z</time></trkpt><trkpt lat="44.25234638908532" lon="11.631372449492492"><ele>363.0</ele><time>2026-04-12T09:12:25.999Z</time></trkpt><trkpt lat="44.252248666807574" lon="11.631324213374814"><ele>363.0</ele><time>2026-04-12T09:12:27.999Z</time></trkpt><trkpt lat="44.252161568372756" lon="11.631243111927601"><ele>363.0</ele><time>2026-04-12T09:12:29.999Z</time></trkpt><trkpt lat="44.2520864146151" lon="11.63114101110672"><ele>363.0</ele><time>2026-04-12T09:12:31.999Z</time></trkpt><trkpt lat="44.251997144268095" lon="11.631052918208084"><ele>366.79999999999995</ele><time>2026-04-12T09:12:34Z</time></trkpt><trkpt lat="44.25193774935203" lon="11.630947519302913"><ele>370.6</ele><time>2026-04-12T09:12:36Z</time></trkpt><trkpt lat="44.251875921482586" lon="11.630849119361391"><ele>374.4</ele><time>2026-04-12T09:12:38Z</time></trkpt><trkpt lat="44.2518199079571" lon="11.630747288102366"><ele>378.20000000000005</ele><time>2026-04-12T09:12:40Z</time></trkpt><trkpt lat="44.251770049570055" lon="11.630647099515162"><ele>382.0</ele><time>2026-04-12T09:12:42Z</time></trkpt><trkpt lat="44.2517249489006" lon="11.630553757980437"><ele>382.0</ele><time>2026-04-12T09:12:44Z</time></trkpt><trkpt lat="44.25169111665972" lon="11.630470812022148"><ele>382.0</ele><time>2026-04-12T09:12:46Z</time></trkpt><trkpt lat="44.25165842076744" lon="11.63038231439578"><ele>382.0</ele><time>2026-04-12T09:12:48Z</time></trkpt><trkpt lat="44.25161254809104" lon="11.630259396281348"><ele>382.0</ele><time>2026-04-12T09:12:51Z</time></trkpt><trkpt lat="44.25157412286895" lon="11.630189126527691"><ele>382.0</ele><time>2026-04-12T09:12:53Z</time></trkpt><trkpt lat="44.2515240800185" lon="11.630130760385612"><ele>382.0</ele><time>2026-04-12T09:12:55Z</time></trkpt><trkpt lat="44.25145450157031" lon="11.63009402254398"><ele>382.0</ele><time>2026-04-12T09:12:57Z</time></trkpt><trkpt lat="44.25137822796313" lon="11.630096731222936"><ele>383.5714285714286</ele><time>2026-04-12T09:12:59Z</time></trkpt><trkpt lat="44.251306890828104" lon="11.630109836635725"><ele>385.1428571428571</ele><time>2026-04-12T09:13:01Z</time></trkpt><trkpt lat="44.251233675952214" lon="11.630117719306751"><ele>386.7142857142857</ele><time>2026-04-12T09:13:03Z</time></trkpt><trkpt lat="44.25116796964748" lon="11.630135244661766"><ele>388.28571428571433</ele><time>2026-04-12T09:13:05Z</time></trkpt><trkpt lat="44.25109764774596" lon="11.63013669809129"><ele>389.8571428571429</ele><time>2026-04-12T09:13:07Z</time></trkpt><trkpt lat="44.251034270363974" lon="11.63012509487689"><ele>391.42857142857144</ele><time>2026-04-12T09:13:09Z</time></trkpt><trkpt lat="44.25097013028786" lon="11.630117157630632"><ele>393.0</ele><time>2026-04-12T09:13:11Z</time></trkpt><trkpt lat="44.250906922833984" lon="11.630100305224216"><ele>393.0</ele><time>2026-04-12T09:13:13Z</time></trkpt><trkpt lat="44.25083537123168" lon="11.630079802030775"><ele>393.0</ele><time>2026-04-12T09:13:15Z</time></trkpt><trkpt lat="44.25076298995282" lon="11.630055875521792"><ele>393.0</ele><time>2026-04-12T09:13:17Z</time></trkpt><trkpt lat="44.2506884455557" lon="11.630019001497466"><ele>393.0</ele><time>2026-04-12T09:13:19Z</time></trkpt><trkpt lat="44.25060665887683" lon="11.629985572947257"><ele>393.0</ele><time>2026-04-12T09:13:21Z</time></trkpt><trkpt lat="44.25052801897407" lon="11.629951012814658"><ele>393.0</ele><time>2026-04-12T09:13:23Z</time></trkpt><trkpt lat="44.250455333260014" lon="11.629919280978214"><ele>394.6666666666667</ele><time>2026-04-12T09:13:25Z</time></trkpt><trkpt lat="44.25037371296438" lon="11.629890998394899"><ele>396.33333333333337</ele><time>2026-04-12T09:13:27Z</time></trkpt><trkpt lat="44.25030824038064" lon="11.629848915579695"><ele>398.0</ele><time>2026-04-12T09:13:29Z</time></trkpt><trkpt lat="44.25023502960465" lon="11.629834207038236"><ele>399.6666666666667</ele><time>2026-04-12T09:13:31Z</time></trkpt><trkpt lat="44.250155202760965" lon="11.629824301262271"><ele>401.33333333333337</ele><time>2026-04-12T09:13:33Z</time></trkpt><trkpt lat="44.25008150588393" lon="11.629821730315"><ele>403.0</ele><time>2026-04-12T09:13:36Z</time></trkpt><trkpt lat="44.24998751112184" lon="11.629806472849959"><ele>403.0</ele><time>2026-04-12T09:13:39Z</time></trkpt><trkpt lat="44.249920694598686" lon="11.629788734314289"><ele>403.0</ele><time>2026-04-12T09:13:40Z</time></trkpt><trkpt lat="44.24984844187882" lon="11.629771633986506"><ele>403.0</ele><time>2026-04-12T09:13:42Z</time></trkpt><trkpt lat="44.249783190548975" lon="11.629740383058035"><ele>403.0</ele><time>2026-04-12T09:13:44Z</time></trkpt><trkpt lat="44.249721394313845" lon="11.629697425822924"><ele>403.0</ele><time>2026-04-12T09:13:46Z</time></trkpt><trkpt lat="44.249660868761886" lon="11.629629521182428"><ele>403.0</ele><time>2026-04-12T09:13:48Z</time></trkpt><trkpt lat="44.24960783400294" lon="11.629556809372318"><ele>403.0</ele><time>2026-04-12T09:13:49.999Z</time></trkpt><trkpt lat="44.24955201132886" lon="11.629465846184583"><ele>402.6666666666667</ele><time>2026-04-12T09:13:51.999Z</time></trkpt><trkpt lat="44.24948935382859" lon="11.629393534193854"><ele>402.33333333333337</ele><time>2026-04-12T09:13:53.999Z</time></trkpt><trkpt lat="44.249430754187124" lon="11.629333708839837"><ele>402.0</ele><time>2026-04-12T09:13:55.999Z</time></trkpt><trkpt lat="44.24936511754671" lon="11.629268522113527"><ele>401.66666666666663</ele><time>2026-04-12T09:13:57.999Z</time></trkpt><trkpt lat="44.24929673322796" lon="11.629222483645485"><ele>401.3333333333333</ele><time>2026-04-12T09:13:59.999Z</time></trkpt><trkpt lat="44.24923460798489" lon="11.629170374416537"><ele>401.0</ele><time>2026-04-12T09:14:01.999Z</time></trkpt><trkpt lat="44.24918887080148" lon="11.629077586553123"><ele>401.0</ele><time>2026-04-12T09:14:03.999Z</time></trkpt><trkpt lat="44.24915011292447" lon="11.628944929998463"><ele>401.0</ele><time>2026-04-12T09:14:05.999Z</time></trkpt><trkpt lat="44.24914037498376" lon="11.628804886105442"><ele>401.0</ele><time>2026-04-12T09:14:07.999Z</time></trkpt><trkpt lat="44.24914369230738" lon="11.628640700154511"><ele>401.0</ele><time>2026-04-12T09:14:09.999Z</time></trkpt><trkpt lat="44.24912972195575" lon="11.628553726268445"><ele>401.0</ele><time>2026-04-12T09:14:10.999Z</time></trkpt><trkpt lat="44.24910994210494" lon="11.628464871742413"><ele>400.7142857142857</ele><time>2026-04-12T09:14:11.999Z</time></trkpt><trkpt lat="44.249081162608185" lon="11.62837250131256"><ele>400.42857142857144</ele><time>2026-04-12T09:14:12.999Z</time></trkpt><trkpt lat="44.24903651618906" lon="11.628288752196193"><ele>400.1428571428571</ele><time>2026-04-12T09:14:13.999Z</time></trkpt><trkpt lat="44.2489721548072" lon="11.628230864003871"><ele>399.8571428571429</ele><time>2026-04-12T09:14:14.999Z</time></trkpt><trkpt lat="44.24889911298639" lon="11.628204379663403"><ele>399.57142857142856</ele><time>2026-04-12T09:14:15.999Z</time></trkpt><trkpt lat="44.248821239870026" lon="11.62818277059007"><ele>399.2857142857143</ele><time>2026-04-12T09:14:16.999Z</time></trkpt><trkpt lat="44.248755856049144" lon="11.628144475115565"><ele>399.0</ele><time>2026-04-12T09:14:17.999Z</time></trkpt><trkpt lat="44.248696514883264" lon="11.628106725155927"><ele>399.0</ele><time>2026-04-12T09:14:18.999Z</time></trkpt><trkpt lat="44.24863564868884" lon="11.628065173004869"><ele>399.0</ele><time>2026-04-12T09:14:19.999Z</time></trkpt><trkpt lat="44.2485303916389" lon="11.627994947039287"><ele>399.0</ele><time>2026-04-12T09:14:21.999Z</time></trkpt><trkpt lat="44.24843288192168" lon="11.627931470363176"><ele>399.0</ele><time>2026-04-12T09:14:23.999Z</time></trkpt><trkpt lat="44.2483391181127" lon="11.627878241867103"><ele>399.0</ele><time>2026-04-12T09:14:25.999Z</time></trkpt><trkpt lat="44.2482436568446" lon="11.627826199215656"><ele>397.6</ele><time>2026-04-12T09:14:27.999Z</time></trkpt><trkpt lat="44.24814730252495" lon="11.62778540254393"><ele>396.2</ele><time>2026-04-12T09:14:29.999Z</time></trkpt><trkpt lat="44.24806044274518" lon="11.627729536587708"><ele>394.8</ele><time>2026-04-12T09:14:31.999Z</time></trkpt><trkpt lat="44.2479788264663" lon="11.627681317927575"><ele>393.40000000000003</ele><time>2026-04-12T09:14:33.999Z</time></trkpt><trkpt lat="44.24789339751759" lon="11.627628489316203"><ele>392.0</ele><time>2026-04-12T09:14:35.999Z</time></trkpt><trkpt lat="44.24780808510697" lon="11.627601037755927"><ele>396.16666666666663</ele><time>2026-04-12T09:14:37.999Z</time></trkpt><trkpt lat="44.24772133278647" lon="11.627571348030617"><ele>400.3333333333333</ele><time>2026-04-12T09:14:40Z</time></trkpt><trkpt lat="44.24764621530919" lon="11.627560009935554"><ele>404.5</ele><time>2026-04-12T09:14:42Z</time></trkpt><trkpt lat="44.24756269553355" lon="11.627543072435003"><ele>408.66666666666663</ele><time>2026-04-12T09:14:44Z</time></trkpt><trkpt lat="44.247490869745214" lon="11.627519042894809"><ele>412.8333333333333</ele><time>2026-04-12T09:14:46Z</time></trkpt><trkpt lat="44.24742216620425" lon="11.627503189007074"><ele>417.0</ele><time>2026-04-12T09:14:48Z</time></trkpt><trkpt lat="44.24733697023463" lon="11.62750412379313"><ele>415.0</ele><time>2026-04-12T09:14:51Z</time></trkpt><trkpt lat="44.24727697393462" lon="11.62757184758019"><ele>413.0</ele><time>2026-04-12T09:14:54Z</time></trkpt><trkpt lat="44.24727209580745" lon="11.627465519215948"><ele>411.0</ele><time>2026-04-12T09:16:08Z</time></trkpt><trkpt lat="44.2472554363214" lon="11.627371501545799"><ele>409.0</ele><time>2026-04-12T09:16:10.999Z</time></trkpt><trkpt lat="44.247260146818626" lon="11.627281612275679"><ele>407.0</ele><time>2026-04-12T09:16:12.999Z</time></trkpt><trkpt lat="44.24724998954333" lon="11.627186481108808"><ele>405.0</ele><time>2026-04-12T09:16:14.999Z</time></trkpt><trkpt lat="44.247260628779394" lon="11.627049081667604"><ele>404.6</ele><time>2026-04-12T09:16:17.999Z</time></trkpt><trkpt lat="44.24726508151735" lon="11.626939066189763"><ele>404.2</ele><time>2026-04-12T09:16:19.999Z</time></trkpt><trkpt lat="44.24723674407476" lon="11.626832062741224"><ele>403.79999999999995</ele><time>2026-04-12T09:16:21.999Z</time></trkpt><trkpt lat="44.247217452877" lon="11.626695868038249"><ele>403.4</ele><time>2026-04-12T09:16:23.999Z</time></trkpt><trkpt lat="44.247217126300704" lon="11.626540115630608"><ele>403.0</ele><time>2026-04-12T09:16:25.999Z</time></trkpt><trkpt lat="44.24725171223842" lon="11.626387998519924"><ele>403.00000000000006</ele><time>2026-04-12T09:16:27.999Z</time></trkpt><trkpt lat="44.24720448444009" lon="11.626225962962376"><ele>403.0</ele><time>2026-04-12T09:16:29.999Z</time></trkpt><trkpt lat="44.247175106700276" lon="11.62613994852931"><ele>403.0</ele><time>2026-04-12T09:16:30.999Z</time></trkpt><trkpt lat="44.247142152346946" lon="11.626042458714545"><ele>403.0</ele><time>2026-04-12T09:16:31.999Z</time></trkpt><trkpt lat="44.24710200022949" lon="11.625937239016432"><ele>403.00000000000006</ele><time>2026-04-12T09:16:32.999Z</time></trkpt><trkpt lat="44.2470494904802" lon="11.625849094954702"><ele>403.0</ele><time>2026-04-12T09:16:33.999Z</time></trkpt><trkpt lat="44.24701202841102" lon="11.625738778095608"><ele>403.00000000000006</ele><time>2026-04-12T09:16:34.999Z</time></trkpt><trkpt lat="44.24695152971747" lon="11.62566069326505"><ele>403.0</ele><time>2026-04-12T09:16:35.999Z</time></trkpt><trkpt lat="44.24689534200715" lon="11.625585135666267"><ele>403.0</ele><time>2026-04-12T09:16:36.999Z</time></trkpt><trkpt lat="44.24684793638987" lon="11.625506231479898"><ele>403.0</ele><time>2026-04-12T09:16:37.999Z</time></trkpt><trkpt lat="44.24681644434114" lon="11.625404483147129"><ele>403.00000000000006</ele><time>2026-04-12T09:16:38.999Z</time></trkpt><trkpt lat="44.246788812523285" lon="11.625274795806746"><ele>403.0</ele><time>2026-04-12T09:16:40.999Z</time></trkpt><trkpt lat="44.24670922004158" lon="11.625476467789733"><ele>403.0</ele><time>2026-04-12T09:16:46Z</time></trkpt><trkpt lat="44.24668261359073" lon="11.625563485000525"><ele>403.0</ele><time>2026-04-12T09:16:47Z</time></trkpt><trkpt lat="44.2466268721571" lon="11.625692138361117"><ele>403.0</ele><time>2026-04-12T09:16:49Z</time></trkpt><trkpt lat="44.24654820875623" lon="11.62571674927883"><ele>403.0</ele><time>2026-04-12T09:16:51Z</time></trkpt><trkpt lat="44.24645059238636" lon="11.62559531977781"><ele>403.0</ele><time>2026-04-12T09:16:53Z</time></trkpt><trkpt lat="44.24639894219612" lon="11.625517615463439"><ele>402.0</ele><time>2026-04-12T09:16:54Z</time></trkpt><trkpt lat="44.246346891475255" lon="11.625438746419714"><ele>401.0</ele><time>2026-04-12T09:16:55Z</time></trkpt><trkpt lat="44.24629000848033" lon="11.625349740806012"><ele>400.0</ele><time>2026-04-12T09:16:56Z</time></trkpt><trkpt lat="44.24624260147149" lon="11.625258581142129"><ele>399.0</ele><time>2026-04-12T09:16:57Z</time></trkpt><trkpt lat="44.246198692962324" lon="11.625189369905474"><ele>398.0</ele><time>2026-04-12T09:16:58Z</time></trkpt><trkpt lat="44.24614547300134" lon="11.6251381620116"><ele>397.0</ele><time>2026-04-12T09:16:59Z</time></trkpt><trkpt lat="44.24609374044401" lon="11.625083039647963"><ele>396.0</ele><time>2026-04-12T09:17:00Z</time></trkpt><trkpt lat="44.24604552031445" lon="11.62502423847304"><ele>396.0</ele><time>2026-04-12T09:17:01Z</time></trkpt><trkpt lat="44.245982616524586" lon="11.624968895822727"><ele>396.0</ele><time>2026-04-12T09:17:02Z</time></trkpt><trkpt lat="44.245928106293505" lon="11.624911841764195"><ele>396.0</ele><time>2026-04-12T09:17:03Z</time></trkpt><trkpt lat="44.2458240087841" lon="11.624810283148296"><ele>396.0</ele><time>2026-04-12T09:17:05Z</time></trkpt><trkpt lat="44.245773449198275" lon="11.624749458644697"><ele>396.0</ele><time>2026-04-12T09:17:06Z</time></trkpt><trkpt lat="44.245716847084424" lon="11.624686354401998"><ele>396.0</ele><time>2026-04-12T09:17:07Z</time></trkpt><trkpt lat="44.24565271151807" lon="11.62461952552019"><ele>396.0</ele><time>2026-04-12T09:17:08Z</time></trkpt><trkpt lat="44.245592923473104" lon="11.624549801381313"><ele>396.0</ele><time>2026-04-12T09:17:09Z</time></trkpt><trkpt lat="44.245534851339016" lon="11.624484784172008"><ele>396.0</ele><time>2026-04-12T09:17:10Z</time></trkpt><trkpt lat="44.24546994465984" lon="11.624417254563822"><ele>396.0</ele><time>2026-04-12T09:17:11Z</time></trkpt><trkpt lat="44.245404923346925" lon="11.62436213633836"><ele>396.0</ele><time>2026-04-12T09:17:12Z</time></trkpt><trkpt lat="44.245339523547756" lon="11.624314021015682"><ele>396.0</ele><time>2026-04-12T09:17:13Z</time></trkpt><trkpt lat="44.24526575771105" lon="11.624281787401914"><ele>396.0</ele><time>2026-04-12T09:17:14Z</time></trkpt><trkpt lat="44.245183745702626" lon="11.6242615554832"><ele>396.0</ele><time>2026-04-12T09:17:15Z</time></trkpt><trkpt lat="44.2451096889052" lon="11.624264296822817"><ele>396.0</ele><time>2026-04-12T09:17:16Z</time></trkpt><trkpt lat="44.24503324154017" lon="11.62424610278917"><ele>396.0</ele><time>2026-04-12T09:17:17Z</time></trkpt><trkpt lat="44.244956629821544" lon="11.624244583443094"><ele>396.0</ele><time>2026-04-12T09:17:18Z</time></trkpt><trkpt lat="44.244885021724485" lon="11.624232476548379"><ele>396.0</ele><time>2026-04-12T09:17:19Z</time></trkpt><trkpt lat="44.24476450707787" lon="11.624200618490937"><ele>395.1666666666667</ele><time>2026-04-12T09:17:21Z</time></trkpt><trkpt lat="44.24470123053344" lon="11.624141673803164"><ele>394.33333333333337</ele><time>2026-04-12T09:17:22Z</time></trkpt><trkpt lat="44.24464401666044" lon="11.624087128210958"><ele>393.5</ele><time>2026-04-12T09:17:23Z</time></trkpt><trkpt lat="44.24458544739029" lon="11.6240487616024"><ele>392.6666666666667</ele><time>2026-04-12T09:17:24Z</time></trkpt><trkpt lat="44.24451544333981" lon="11.624054137466638"><ele>391.83333333333337</ele><time>2026-04-12T09:17:25Z</time></trkpt><trkpt lat="44.244450903000256" lon="11.624036538829513"><ele>391.0</ele><time>2026-04-12T09:17:26Z</time></trkpt><trkpt lat="44.2443364952328" lon="11.623970395025495"><ele>391.0</ele><time>2026-04-12T09:17:28Z</time></trkpt><trkpt lat="44.2442310357723" lon="11.623892375665477"><ele>391.0</ele><time>2026-04-12T09:17:30Z</time></trkpt><trkpt lat="44.24416503494037" lon="11.623897487382493"><ele>391.0</ele><time>2026-04-12T09:17:31Z</time></trkpt><trkpt lat="44.244097572484364" lon="11.623922978337983"><ele>391.0</ele><time>2026-04-12T09:17:32Z</time></trkpt><trkpt lat="44.24403357787329" lon="11.623977727999774"><ele>391.0</ele><time>2026-04-12T09:17:33Z</time></trkpt><trkpt lat="44.24393538682262" lon="11.624084667127793"><ele>392.50000000000006</ele><time>2026-04-12T09:17:35Z</time></trkpt><trkpt lat="44.24386955940187" lon="11.624150298819089"><ele>394.0</ele><time>2026-04-12T09:17:36Z</time></trkpt><trkpt lat="44.24380541552709" lon="11.624213751998225"><ele>395.5</ele><time>2026-04-12T09:17:37Z</time></trkpt><trkpt lat="44.2437371910282" lon="11.624274862191525"><ele>397.0</ele><time>2026-04-12T09:17:38Z</time></trkpt><trkpt lat="44.2436592733018" lon="11.624322730923959"><ele>398.50000000000006</ele><time>2026-04-12T09:17:39Z</time></trkpt><trkpt lat="44.24359209788642" lon="11.624345472939886"><ele>400.0</ele><time>2026-04-12T09:17:40Z</time></trkpt><trkpt lat="44.243514270364635" lon="11.6243728355824"><ele>400.00000000000006</ele><time>2026-04-12T09:17:41Z</time></trkpt><trkpt lat="44.2434404076029" lon="11.624419936362223"><ele>400.0</ele><time>2026-04-12T09:17:42Z</time></trkpt><trkpt lat="44.24336140495441" lon="11.62444139567015"><ele>400.0</ele><time>2026-04-12T09:17:43Z</time></trkpt><trkpt lat="44.24328548434758" lon="11.624450572842017"><ele>400.0</ele><time>2026-04-12T09:17:44Z</time></trkpt><trkpt lat="44.24322028987077" lon="11.624484650666428"><ele>400.00000000000006</ele><time>2026-04-12T09:17:45Z</time></trkpt><trkpt lat="44.243136113206745" lon="11.624544237135868"><ele>400.0</ele><time>2026-04-12T09:17:47Z</time></trkpt><trkpt lat="44.24306124134999" lon="11.624618484313016"><ele>400.83333333333337</ele><time>2026-04-12T09:17:49Z</time></trkpt><trkpt lat="44.242995522532375" lon="11.624695690378154"><ele>401.6666666666667</ele><time>2026-04-12T09:17:51Z</time></trkpt><trkpt lat="44.24295902140966" lon="11.624792492438813"><ele>402.5</ele><time>2026-04-12T09:17:53Z</time></trkpt><trkpt lat="44.24289667791166" lon="11.624876835879514"><ele>403.33333333333337</ele><time>2026-04-12T09:17:55Z</time></trkpt><trkpt lat="44.242846072563026" lon="11.624932904385178"><ele>404.1666666666667</ele><time>2026-04-12T09:17:57Z</time></trkpt><trkpt lat="44.24278531378165" lon="11.624999911307157"><ele>405.0</ele><time>2026-04-12T09:17:59Z</time></trkpt><trkpt lat="44.2427027321429" lon="11.625048128397083"><ele>404.99999999999994</ele><time>2026-04-12T09:18:02Z</time></trkpt><trkpt lat="44.242644328054425" lon="11.62509800372253"><ele>405.0</ele><time>2026-04-12T09:18:04Z</time></trkpt><trkpt lat="44.242561933305964" lon="11.625150861568027"><ele>405.0</ele><time>2026-04-12T09:18:07Z</time></trkpt><trkpt lat="44.242482843128265" lon="11.62520884160899"><ele>405.0</ele><time>2026-04-12T09:18:10Z</time></trkpt><trkpt lat="44.24243854096853" lon="11.625272399032031"><ele>405.0</ele><time>2026-04-12T09:18:12Z</time></trkpt><trkpt lat="44.242384776788235" lon="11.625340999832778"><ele>404.99999999999994</ele><time>2026-04-12T09:18:14Z</time></trkpt><trkpt lat="44.242341458887054" lon="11.62540491566489"><ele>405.0</ele><time>2026-04-12T09:18:16Z</time></trkpt><trkpt lat="44.24228928555738" lon="11.625488825796316"><ele>402.6666666666667</ele><time>2026-04-12T09:18:18Z</time></trkpt><trkpt lat="44.242238916059854" lon="11.625555851583112"><ele>400.33333333333337</ele><time>2026-04-12T09:18:19.999Z</time></trkpt><trkpt lat="44.24218930646945" lon="11.625636928319404"><ele>398.0</ele><time>2026-04-12T09:18:21.999Z</time></trkpt><trkpt lat="44.24212870708453" lon="11.625730457539493"><ele>395.6666666666667</ele><time>2026-04-12T09:18:24.999Z</time></trkpt><trkpt lat="44.24205781911494" lon="11.625761427392428"><ele>393.33333333333337</ele><time>2026-04-12T09:18:26.999Z</time></trkpt><trkpt lat="44.24197722647708" lon="11.62573708059366"><ele>391.0</ele><time>2026-04-12T09:18:28.999Z</time></trkpt><trkpt lat="44.24190143348737" lon="11.62566721362622"><ele>391.0</ele><time>2026-04-12T09:18:30.999Z</time></trkpt><trkpt lat="44.24181324642885" lon="11.62558593992893"><ele>391.0</ele><time>2026-04-12T09:18:32.999Z</time></trkpt><trkpt lat="44.24172251134805" lon="11.625499044805391"><ele>391.0</ele><time>2026-04-12T09:18:34.999Z</time></trkpt><trkpt lat="44.24161726756632" lon="11.625422279564797"><ele>391.0</ele><time>2026-04-12T09:18:36.999Z</time></trkpt><trkpt lat="44.24155518836045" lon="11.625403210775223"><ele>391.0</ele><time>2026-04-12T09:18:37.999Z</time></trkpt><trkpt lat="44.24148811037906" lon="11.625402223386734"><ele>390.00000000000006</ele><time>2026-04-12T09:18:38.999Z</time></trkpt><trkpt lat="44.241362302336505" lon="11.62540842234732"><ele>389.0</ele><time>2026-04-12T09:18:40.999Z</time></trkpt><trkpt lat="44.24129537716933" lon="11.62543890973249"><ele>388.0</ele><time>2026-04-12T09:18:41.999Z</time></trkpt><trkpt lat="44.241224054711566" lon="11.625450327344705"><ele>387.0</ele><time>2026-04-12T09:18:42.999Z</time></trkpt><trkpt lat="44.24115744613168" lon="11.625457290131198"><ele>386.00000000000006</ele><time>2026-04-12T09:18:43.999Z</time></trkpt><trkpt lat="44.24108934703632" lon="11.625465760341932"><ele>385.0</ele><time>2026-04-12T09:18:44.999Z</time></trkpt><trkpt lat="44.24101551261244" lon="11.625474996287299"><ele>385.00000000000006</ele><time>2026-04-12T09:18:45.999Z</time></trkpt><trkpt lat="44.240942436977015" lon="11.62549052417401"><ele>385.0</ele><time>2026-04-12T09:18:46.999Z</time></trkpt><trkpt lat="44.240869803671" lon="11.625522844654343"><ele>385.0</ele><time>2026-04-12T09:18:47.999Z</time></trkpt><trkpt lat="44.24079824112389" lon="11.625578853380407"><ele>385.0</ele><time>2026-04-12T09:18:48.999Z</time></trkpt><trkpt lat="44.24073483656234" lon="11.625655759933547"><ele>385.00000000000006</ele><time>2026-04-12T09:18:49.999Z</time></trkpt><trkpt lat="44.240664082328244" lon="11.625724708414138"><ele>385.0</ele><time>2026-04-12T09:18:51Z</time></trkpt><trkpt lat="44.24059341317183" lon="11.62578189396521"><ele>385.50000000000006</ele><time>2026-04-12T09:18:52Z</time></trkpt><trkpt lat="44.24052634741317" lon="11.625835635335175"><ele>386.0</ele><time>2026-04-12T09:18:53Z</time></trkpt><trkpt lat="44.24045740006311" lon="11.625895890498098"><ele>386.5</ele><time>2026-04-12T09:18:54Z</time></trkpt><trkpt lat="44.240399577598765" lon="11.625963247766544"><ele>387.0</ele><time>2026-04-12T09:18:55Z</time></trkpt><trkpt lat="44.240336768732575" lon="11.626032115481328"><ele>387.50000000000006</ele><time>2026-04-12T09:18:56Z</time></trkpt><trkpt lat="44.24027889681569" lon="11.626096350981559"><ele>388.0</ele><time>2026-04-12T09:18:57Z</time></trkpt><trkpt lat="44.24021913622665" lon="11.62614402926173"><ele>385.50000000000006</ele><time>2026-04-12T09:18:58Z</time></trkpt><trkpt lat="44.24016067744286" lon="11.626190306931841"><ele>383.0</ele><time>2026-04-12T09:18:59Z</time></trkpt><trkpt lat="44.24007477350718" lon="11.6262169108054"><ele>380.5</ele><time>2026-04-12T09:19:00Z</time></trkpt><trkpt lat="44.23998919149118" lon="11.62624520089151"><ele>378.0</ele><time>2026-04-12T09:19:01Z</time></trkpt><trkpt lat="44.23990043442333" lon="11.62624352099085"><ele>375.5</ele><time>2026-04-12T09:19:02Z</time></trkpt><trkpt lat="44.239794578541485" lon="11.626219962194222"><ele>373.0</ele><time>2026-04-12T09:19:03Z</time></trkpt><trkpt lat="44.239689946892184" lon="11.626183815902671"><ele>373.59999999999997</ele><time>2026-04-12T09:19:04Z</time></trkpt><trkpt lat="44.239587124959506" lon="11.626133636330328"><ele>374.2</ele><time>2026-04-12T09:19:05Z</time></trkpt><trkpt lat="44.23948645577322" lon="11.626096172855"><ele>374.8</ele><time>2026-04-12T09:19:06Z</time></trkpt><trkpt lat="44.2393903551656" lon="11.626068327953753"><ele>375.4</ele><time>2026-04-12T09:19:07Z</time></trkpt><trkpt lat="44.2393084317764" lon="11.626054224623635"><ele>376.0</ele><time>2026-04-12T09:19:08Z</time></trkpt><trkpt lat="44.23923548360706" lon="11.626047139138652"><ele>376.0</ele><time>2026-04-12T09:19:09Z</time></trkpt><trkpt lat="44.239170456019295" lon="11.62605807908354"><ele>376.0</ele><time>2026-04-12T09:19:10Z</time></trkpt><trkpt lat="44.239103200680596" lon="11.62609252392994"><ele>376.0</ele><time>2026-04-12T09:19:11Z</time></trkpt><trkpt lat="44.23903683005302" lon="11.626133000932612"><ele>376.0</ele><time>2026-04-12T09:19:12Z</time></trkpt><trkpt lat="44.238969989715144" lon="11.626185977858714"><ele>376.0</ele><time>2026-04-12T09:19:13Z</time></trkpt><trkpt lat="44.2389114253981" lon="11.626251567177368"><ele>376.0</ele><time>2026-04-12T09:19:14Z</time></trkpt><trkpt lat="44.23885981830937" lon="11.626327054647337"><ele>376.0</ele><time>2026-04-12T09:19:15Z</time></trkpt><trkpt lat="44.23880918137624" lon="11.626421126237735"><ele>375.6</ele><time>2026-04-12T09:19:16Z</time></trkpt><trkpt lat="44.23875287525144" lon="11.626506238863701"><ele>375.20000000000005</ele><time>2026-04-12T09:19:17Z</time></trkpt><trkpt lat="44.2386787260043" lon="11.626551780025652"><ele>374.79999999999995</ele><time>2026-04-12T09:19:18Z</time></trkpt><trkpt lat="44.23856366681783" lon="11.626572019174084"><ele>374.4</ele><time>2026-04-12T09:19:19Z</time></trkpt><trkpt lat="44.238459775463625" lon="11.626563669307776"><ele>374.0</ele><time>2026-04-12T09:19:20Z</time></trkpt><trkpt lat="44.238369236985115" lon="11.626621118769108"><ele>374.0</ele><time>2026-04-12T09:19:21Z</time></trkpt><trkpt lat="44.23826989695863" lon="11.626637510046068"><ele>374.0</ele><time>2026-04-12T09:19:22Z</time></trkpt><trkpt lat="44.238178154718874" lon="11.626694089681532"><ele>374.0</ele><time>2026-04-12T09:19:23Z</time></trkpt><trkpt lat="44.23809741167082" lon="11.626742071847346"><ele>374.0</ele><time>2026-04-12T09:19:24Z</time></trkpt><trkpt lat="44.238019739244166" lon="11.626749652814096"><ele>374.0</ele><time>2026-04-12T09:19:26Z</time></trkpt><trkpt lat="44.237942328574356" lon="11.626731946089313"><ele>374.0</ele><time>2026-04-12T09:19:28Z</time></trkpt><trkpt lat="44.237856896229495" lon="11.626706679029311"><ele>373.5</ele><time>2026-04-12T09:19:29Z</time></trkpt><trkpt lat="44.2377807501883" lon="11.626700445262028"><ele>373.0</ele><time>2026-04-12T09:19:30Z</time></trkpt><trkpt lat="44.23767243706722" lon="11.626646110933441"><ele>372.5</ele><time>2026-04-12T09:19:32Z</time></trkpt><trkpt lat="44.23760925866061" lon="11.626620797556754"><ele>372.0</ele><time>2026-04-12T09:19:33Z</time></trkpt><trkpt lat="44.23754034364623" lon="11.626588558344562"><ele>371.5</ele><time>2026-04-12T09:19:34Z</time></trkpt><trkpt lat="44.23742864951123" lon="11.626557398101218"><ele>371.0</ele><time>2026-04-12T09:19:36Z</time></trkpt><trkpt lat="44.2373100177014" lon="11.626489947777687"><ele>369.6666666666667</ele><time>2026-04-12T09:19:38Z</time></trkpt><trkpt lat="44.23726009885483" lon="11.626435366696386"><ele>368.33333333333337</ele><time>2026-04-12T09:19:39Z</time></trkpt><trkpt lat="44.237165056224654" lon="11.626352623707644"><ele>367.0</ele><time>2026-04-12T09:19:41Z</time></trkpt><trkpt lat="44.23709081642871" lon="11.626389425070272"><ele>365.6666666666667</ele><time>2026-04-12T09:19:43Z</time></trkpt><trkpt lat="44.23705486369361" lon="11.626507038918355"><ele>364.3333333333333</ele><time>2026-04-12T09:19:45Z</time></trkpt><trkpt lat="44.237028161061644" lon="11.62659620631076"><ele>363.0</ele><time>2026-04-12T09:19:46Z</time></trkpt><trkpt lat="44.23700935940572" lon="11.626713947509193"><ele>363.0</ele><time>2026-04-12T09:19:47Z</time></trkpt><trkpt lat="44.23697404543221" lon="11.626793926510258"><ele>363.0</ele><time>2026-04-12T09:19:48Z</time></trkpt><trkpt lat="44.236931912396564" lon="11.62686156848373"><ele>363.0</ele><time>2026-04-12T09:19:49Z</time></trkpt><trkpt lat="44.23676666296219" lon="11.626871670664348"><ele>363.0</ele><time>2026-04-12T09:19:51Z</time></trkpt><trkpt lat="44.23665693747053" lon="11.626882166051315"><ele>363.0</ele><time>2026-04-12T09:19:52Z</time></trkpt><trkpt lat="44.23654768553927" lon="11.626908738934628"><ele>363.0</ele><time>2026-04-12T09:19:53Z</time></trkpt><trkpt lat="44.23647723569522" lon="11.626919233597835"><ele>363.0</ele><time>2026-04-12T09:19:54Z</time></trkpt><trkpt lat="44.236394696637724" lon="11.626910448681214"><ele>363.0</ele><time>2026-04-12T09:19:55Z</time></trkpt><trkpt lat="44.2363172681956" lon="11.626907226332849"><ele>363.0</ele><time>2026-04-12T09:19:56Z</time></trkpt><trkpt lat="44.23620227139397" lon="11.626923199173724"><ele>363.0</ele><time>2026-04-12T09:19:58Z</time></trkpt><trkpt lat="44.236093752225386" lon="11.627008977950133"><ele>361.0</ele><time>2026-04-12T09:20:00Z</time></trkpt><trkpt lat="44.23604935635423" lon="11.6271372054746"><ele>359.0</ele><time>2026-04-12T09:20:02Z</time></trkpt><trkpt lat="44.23605852355528" lon="11.627248638870995"><ele>357.0</ele><time>2026-04-12T09:20:04Z</time></trkpt><trkpt lat="44.2360816714005" lon="11.627395844437501"><ele>355.0</ele><time>2026-04-12T09:20:06Z</time></trkpt><trkpt lat="44.236093732286804" lon="11.627495428752123"><ele>353.0</ele><time>2026-04-12T09:20:07Z</time></trkpt><trkpt lat="44.23609463721037" lon="11.627633237520206"><ele>353.0</ele><time>2026-04-12T09:20:08Z</time></trkpt><trkpt lat="44.23610887814818" lon="11.627747494853356"><ele>353.0</ele><time>2026-04-12T09:20:09Z</time></trkpt><trkpt lat="44.236106211558955" lon="11.627871612996302"><ele>353.0</ele><time>2026-04-12T09:20:10Z</time></trkpt><trkpt lat="44.236119885720456" lon="11.628004115457323"><ele>353.0</ele><time>2026-04-12T09:20:11Z</time></trkpt><trkpt lat="44.236114978334236" lon="11.62811112896796"><ele>353.0</ele><time>2026-04-12T09:20:12Z</time></trkpt><trkpt lat="44.23607241275532" lon="11.62821142050527"><ele>353.0</ele><time>2026-04-12T09:20:15Z</time></trkpt><trkpt lat="44.23595703042629" lon="11.628193543690312"><ele>352.0</ele><time>2026-04-12T09:20:17Z</time></trkpt><trkpt lat="44.23585104689226" lon="11.628154150479658"><ele>351.0</ele><time>2026-04-12T09:20:19Z</time></trkpt><trkpt lat="44.23570310243413" lon="11.628100024052895"><ele>350.0</ele><time>2026-04-12T09:20:21Z</time></trkpt><trkpt lat="44.235631369097355" lon="11.628059050283907"><ele>349.0</ele><time>2026-04-12T09:20:23Z</time></trkpt><trkpt lat="44.2355596233086" lon="11.628018058805372"><ele>348.0</ele><time>2026-04-12T09:20:26Z</time></trkpt><trkpt lat="44.235491699244236" lon="11.627994194989636"><ele>346.8333333333333</ele><time>2026-04-12T09:20:27Z</time></trkpt><trkpt lat="44.235422906819544" lon="11.627978260669094"><ele>345.6666666666667</ele><time>2026-04-12T09:20:28Z</time></trkpt><trkpt lat="44.23535968144902" lon="11.627945668308566"><ele>344.5</ele><time>2026-04-12T09:20:28.999Z</time></trkpt><trkpt lat="44.235302888037076" lon="11.627906418240386"><ele>343.33333333333337</ele><time>2026-04-12T09:20:29.999Z</time></trkpt><trkpt lat="44.235222001736595" lon="11.62784864613274"><ele>342.1666666666667</ele><time>2026-04-12T09:20:31.999Z</time></trkpt><trkpt lat="44.23529314357621" lon="11.627717127529328"><ele>341.0</ele><time>2026-04-12T09:20:33.999Z</time></trkpt><trkpt lat="44.23534947744094" lon="11.627652552481278"><ele>340.0</ele><time>2026-04-12T09:20:34.999Z</time></trkpt><trkpt lat="44.23540547298705" lon="11.627605972430178"><ele>339.0</ele><time>2026-04-12T09:20:35.999Z</time></trkpt><trkpt lat="44.23538167969264" lon="11.627470792953005"><ele>338.0</ele><time>2026-04-12T09:20:37.999Z</time></trkpt><trkpt lat="44.235298468618964" lon="11.627397425237797"><ele>337.0</ele><time>2026-04-12T09:20:39.999Z</time></trkpt><trkpt lat="44.23522874283228" lon="11.627367790104204"><ele>336.0</ele><time>2026-04-12T09:20:40.999Z</time></trkpt><trkpt lat="44.235150442161114" lon="11.627302144865581"><ele>335.0</ele><time>2026-04-12T09:20:41.999Z</time></trkpt><trkpt lat="44.23508296591498" lon="11.6272723492053"><ele>335.0</ele><time>2026-04-12T09:20:42.999Z</time></trkpt><trkpt lat="44.23502402827218" lon="11.627220628816909"><ele>335.0</ele><time>2026-04-12T09:20:44.999Z</time></trkpt><trkpt lat="44.23500241352587" lon="11.627111147728629"><ele>335.0</ele><time>2026-04-12T09:20:46.999Z</time></trkpt><trkpt lat="44.23489943170029" lon="11.627032145517619"><ele>335.0</ele><time>2026-04-12T09:20:48.999Z</time></trkpt><trkpt lat="44.234857795434706" lon="11.626960997777188"><ele>335.0</ele><time>2026-04-12T09:20:49.999Z</time></trkpt><trkpt lat="44.23479751269743" lon="11.626922518419464"><ele>335.0</ele><time>2026-04-12T09:20:50.999Z</time></trkpt><trkpt lat="44.23466162287868" lon="11.626885597237697"><ele>329.6</ele><time>2026-04-12T09:20:52.999Z</time></trkpt><trkpt lat="44.23460414290753" lon="11.626829520426158"><ele>324.2</ele><time>2026-04-12T09:20:53.999Z</time></trkpt><trkpt lat="44.23454615214748" lon="11.626752133664283"><ele>318.8</ele><time>2026-04-12T09:20:54.999Z</time></trkpt><trkpt lat="44.23442607494444" lon="11.626762168573483"><ele>313.4</ele><time>2026-04-12T09:20:57Z</time></trkpt><trkpt lat="44.23431092259689" lon="11.626706700721186"><ele>308.0</ele><time>2026-04-12T09:20:59Z</time></trkpt><trkpt lat="44.23417855068197" lon="11.62676406958459"><ele>308.0</ele><time>2026-04-12T09:21:01Z</time></trkpt><trkpt lat="44.23405368590172" lon="11.6267774205101"><ele>308.0</ele><time>2026-04-12T09:21:03Z</time></trkpt><trkpt lat="44.23400417277056" lon="11.626701245167549"><ele>308.0</ele><time>2026-04-12T09:21:04Z</time></trkpt><trkpt lat="44.23392425388455" lon="11.626671475911264"><ele>308.0</ele><time>2026-04-12T09:21:05Z</time></trkpt><trkpt lat="44.23385313533191" lon="11.62662242054174"><ele>308.0</ele><time>2026-04-12T09:21:06Z</time></trkpt><trkpt lat="44.23376835825215" lon="11.626572121653137"><ele>305.2</ele><time>2026-04-12T09:21:07Z</time></trkpt><trkpt lat="44.23363155906784" lon="11.62655533081703"><ele>302.4</ele><time>2026-04-12T09:21:09Z</time></trkpt><trkpt lat="44.23355070158723" lon="11.626578226017198"><ele>299.59999999999997</ele><time>2026-04-12T09:21:10Z</time></trkpt><trkpt lat="44.233469480977035" lon="11.626561239541347"><ele>296.8</ele><time>2026-04-12T09:21:11Z</time></trkpt><trkpt lat="44.233375210654586" lon="11.626637114701822"><ele>294.0</ele><time>2026-04-12T09:21:13Z</time></trkpt><trkpt lat="44.233313085702356" lon="11.626796063309312"><ele>294.0</ele><time>2026-04-12T09:21:15Z</time></trkpt><trkpt lat="44.233278131263205" lon="11.626892768831748"><ele>294.0</ele><time>2026-04-12T09:21:16Z</time></trkpt><trkpt lat="44.23316545201731" lon="11.626988995581772"><ele>294.0</ele><time>2026-04-12T09:21:18Z</time></trkpt><trkpt lat="44.23309850257789" lon="11.627012199650803"><ele>294.0</ele><time>2026-04-12T09:21:19Z</time></trkpt><trkpt lat="44.23301593844583" lon="11.627018318060781"><ele>294.0</ele><time>2026-04-12T09:21:20Z</time></trkpt><trkpt lat="44.232928431172255" lon="11.627035839851347"><ele>293.8333333333333</ele><time>2026-04-12T09:21:21Z</time></trkpt><trkpt lat="44.23283652101329" lon="11.627011782132028"><ele>293.6666666666667</ele><time>2026-04-12T09:21:22Z</time></trkpt><trkpt lat="44.23276377844501" lon="11.626980819772927"><ele>293.5</ele><time>2026-04-12T09:21:23Z</time></trkpt><trkpt lat="44.23268103981432" lon="11.626955027739328"><ele>293.33333333333337</ele><time>2026-04-12T09:21:24Z</time></trkpt><trkpt lat="44.23260461170629" lon="11.626882728772744"><ele>293.1666666666667</ele><time>2026-04-12T09:21:26Z</time></trkpt><trkpt lat="44.23253562471868" lon="11.626866565984281"><ele>293.0</ele><time>2026-04-12T09:21:28Z</time></trkpt><trkpt lat="44.2324680972778" lon="11.626952667003502"><ele>293.0</ele><time>2026-04-12T09:21:30Z</time></trkpt><trkpt lat="44.232410930806026" lon="11.62708640982555"><ele>293.0</ele><time>2026-04-12T09:21:32Z</time></trkpt><trkpt lat="44.232347591815746" lon="11.627119919034046"><ele>293.0</ele><time>2026-04-12T09:21:33Z</time></trkpt><trkpt lat="44.232232574005785" lon="11.627228009786034"><ele>293.0</ele><time>2026-04-12T09:21:35Z</time></trkpt><trkpt lat="44.232145146812606" lon="11.627263154718321"><ele>293.0</ele><time>2026-04-12T09:21:36Z</time></trkpt><trkpt lat="44.232057385053125" lon="11.627263227466727"><ele>288.85714285714283</ele><time>2026-04-12T09:21:37Z</time></trkpt><trkpt lat="44.2319859761426" lon="11.627305763848868"><ele>284.7142857142857</ele><time>2026-04-12T09:21:38Z</time></trkpt><trkpt lat="44.231921763042564" lon="11.627300202662711"><ele>280.57142857142856</ele><time>2026-04-12T09:21:39Z</time></trkpt><trkpt lat="44.23184433079867" lon="11.627290639764407"><ele>276.42857142857144</ele><time>2026-04-12T09:21:40Z</time></trkpt><trkpt lat="44.23177812335892" lon="11.627277814352546"><ele>272.2857142857143</ele><time>2026-04-12T09:21:41Z</time></trkpt><trkpt lat="44.23171027141727" lon="11.62731352553999"><ele>268.1428571428571</ele><time>2026-04-12T09:21:42Z</time></trkpt><trkpt lat="44.23165608662307" lon="11.627384873901194"><ele>264.0</ele><time>2026-04-12T09:21:43Z</time></trkpt><trkpt lat="44.231604101945805" lon="11.627478941842192"><ele>264.0</ele><time>2026-04-12T09:21:44Z</time></trkpt><trkpt lat="44.23158951419785" lon="11.627590176483386"><ele>264.0</ele><time>2026-04-12T09:21:45Z</time></trkpt><trkpt lat="44.231623118970795" lon="11.62769131047996"><ele>264.0</ele><time>2026-04-12T09:21:46Z</time></trkpt><trkpt lat="44.23166158249017" lon="11.627785299974404"><ele>264.0</ele><time>2026-04-12T09:21:47Z</time></trkpt><trkpt lat="44.23155040576805" lon="11.627768999727783"><ele>264.0</ele><time>2026-04-12T09:21:50Z</time></trkpt><trkpt lat="44.23148443917593" lon="11.62761735530439"><ele>264.0</ele><time>2026-04-12T09:21:52Z</time></trkpt><trkpt lat="44.23141509737055" lon="11.627457624091257"><ele>264.0</ele><time>2026-04-12T09:21:54Z</time></trkpt><trkpt lat="44.23137927089447" lon="11.627339189228994"><ele>264.0</ele><time>2026-04-12T09:21:55Z</time></trkpt><trkpt lat="44.231397505179714" lon="11.627225267728896"><ele>264.0</ele><time>2026-04-12T09:21:56Z</time></trkpt><trkpt lat="44.23147932480854" lon="11.627107103651893"><ele>264.0</ele><time>2026-04-12T09:21:58Z</time></trkpt><trkpt lat="44.231399053288435" lon="11.627114611912896"><ele>256.8</ele><time>2026-04-12T09:22:01Z</time></trkpt><trkpt lat="44.231287606962844" lon="11.627157160924492"><ele>249.59999999999997</ele><time>2026-04-12T09:22:03Z</time></trkpt><trkpt lat="44.23127365236343" lon="11.627255496980945"><ele>242.4</ele><time>2026-04-12T09:22:05Z</time></trkpt><trkpt lat="44.23121437806319" lon="11.62737612884896"><ele>235.2</ele><time>2026-04-12T09:22:07Z</time></trkpt><trkpt lat="44.23118912898889" lon="11.627475341269257"><ele>228.0</ele><time>2026-04-12T09:22:08Z</time></trkpt><trkpt lat="44.23115996292047" lon="11.6276168129995"><ele>228.0</ele><time>2026-04-12T09:22:10Z</time></trkpt><trkpt lat="44.2311274603153" lon="11.627694286087165"><ele>228.0</ele><time>2026-04-12T09:22:11Z</time></trkpt><trkpt lat="44.23108760265788" lon="11.62777059765479"><ele>228.0</ele><time>2026-04-12T09:22:12Z</time></trkpt><trkpt lat="44.23113564785168" lon="11.627879612951467"><ele>228.0</ele><time>2026-04-12T09:22:14Z</time></trkpt><trkpt lat="44.231178277620415" lon="11.628011813948525"><ele>228.0</ele><time>2026-04-12T09:22:16Z</time></trkpt><trkpt lat="44.2312029731995" lon="11.62810861040783"><ele>228.0</ele><time>2026-04-12T09:22:18Z</time></trkpt><trkpt lat="44.231138287605965" lon="11.628135887293057"><ele>227.7142857142857</ele><time>2026-04-12T09:22:19Z</time></trkpt><trkpt lat="44.23107114293605" lon="11.62813291065202"><ele>227.4285714285714</ele><time>2026-04-12T09:22:20Z</time></trkpt><trkpt lat="44.23100173170927" lon="11.628104542755377"><ele>227.14285714285714</ele><time>2026-04-12T09:22:21Z</time></trkpt><trkpt lat="44.23091251369716" lon="11.628070279580779"><ele>226.85714285714283</ele><time>2026-04-12T09:22:23Z</time></trkpt><trkpt lat="44.230864855830134" lon="11.628139529006717"><ele>226.57142857142856</ele><time>2026-04-12T09:22:24.999Z</time></trkpt><trkpt lat="44.230856449630124" lon="11.62822809255495"><ele>226.28571428571428</ele><time>2026-04-12T09:22:25.999Z</time></trkpt><trkpt lat="44.23077889172344" lon="11.62825030184593"><ele>226.0</ele><time>2026-04-12T09:22:27.999Z</time></trkpt><trkpt lat="44.23072478038158" lon="11.628204705862956"><ele>225.99999999999997</ele><time>2026-04-12T09:22:28.999Z</time></trkpt><trkpt lat="44.23068948139014" lon="11.628069508271919"><ele>226.0</ele><time>2026-04-12T09:22:30.999Z</time></trkpt><trkpt lat="44.230702715347945" lon="11.627932849022649"><ele>226.0</ele><time>2026-04-12T09:22:32.999Z</time></trkpt><trkpt lat="44.23073840762063" lon="11.627830205808392"><ele>226.0</ele><time>2026-04-12T09:22:34.999Z</time></trkpt><trkpt lat="44.23072123113647" lon="11.627741473118384"><ele>225.99999999999997</ele><time>2026-04-12T09:22:35.999Z</time></trkpt><trkpt lat="44.23068782917161" lon="11.627659521235485"><ele>226.0</ele><time>2026-04-12T09:22:36.999Z</time></trkpt><trkpt lat="44.23066337513539" lon="11.627551197435652"><ele>226.28571428571428</ele><time>2026-04-12T09:22:37.999Z</time></trkpt><trkpt lat="44.23065081891051" lon="11.627431011413167"><ele>226.57142857142856</ele><time>2026-04-12T09:22:39.999Z</time></trkpt><trkpt lat="44.23057878382959" lon="11.627389019974427"><ele>226.85714285714283</ele><time>2026-04-12T09:22:42.999Z</time></trkpt><trkpt lat="44.23051798043538" lon="11.62745456440222"><ele>227.14285714285714</ele><time>2026-04-12T09:22:44.999Z</time></trkpt><trkpt lat="44.23047102399894" lon="11.627527578643157"><ele>227.4285714285714</ele><time>2026-04-12T09:22:45.999Z</time></trkpt><trkpt lat="44.23043383537145" lon="11.627613885941459"><ele>227.7142857142857</ele><time>2026-04-12T09:22:46.999Z</time></trkpt><trkpt lat="44.23041122208044" lon="11.627697988458321"><ele>228.0</ele><time>2026-04-12T09:22:47.999Z</time></trkpt><trkpt lat="44.230459437176336" lon="11.627773035442244"><ele>224.60000000000002</ele><time>2026-04-12T09:22:49.999Z</time></trkpt><trkpt lat="44.230506539435076" lon="11.627882480508008"><ele>221.20000000000002</ele><time>2026-04-12T09:22:51.999Z</time></trkpt><trkpt lat="44.23053727974571" lon="11.628002438160642"><ele>217.8</ele><time>2026-04-12T09:22:53.999Z</time></trkpt><trkpt lat="44.23045804223302" lon="11.628091824376611"><ele>214.4</ele><time>2026-04-12T09:22:55.999Z</time></trkpt><trkpt lat="44.23039210828994" lon="11.628131150006903"><ele>211.0</ele><time>2026-04-12T09:22:56.999Z</time></trkpt><trkpt lat="44.23029351687512" lon="11.628197024709289"><ele>210.99999999999997</ele><time>2026-04-12T09:22:58.999Z</time></trkpt><trkpt lat="44.23022343998231" lon="11.6283276535886"><ele>211.0</ele><time>2026-04-12T09:23:00.999Z</time></trkpt><trkpt lat="44.23017665507431" lon="11.628483640292856"><ele>211.0</ele><time>2026-04-12T09:23:03Z</time></trkpt><trkpt lat="44.23017008113851" lon="11.628571346394287"><ele>211.0</ele><time>2026-04-12T09:23:04Z</time></trkpt><trkpt lat="44.2301746721513" lon="11.62867995560397"><ele>210.99999999999997</ele><time>2026-04-12T09:23:05Z</time></trkpt><trkpt lat="44.23020260437726" lon="11.628768458214305"><ele>211.0</ele><time>2026-04-12T09:23:06Z</time></trkpt><trkpt lat="44.230196155371736" lon="11.62895678163758"><ele>210.33333333333331</ele><time>2026-04-12T09:23:08Z</time></trkpt><trkpt lat="44.230178896252376" lon="11.629054760516956"><ele>209.66666666666666</ele><time>2026-04-12T09:23:09Z</time></trkpt><trkpt lat="44.230181481435665" lon="11.629188700917757"><ele>209.0</ele><time>2026-04-12T09:23:11Z</time></trkpt><trkpt lat="44.23018234423535" lon="11.629288838549684"><ele>208.33333333333331</ele><time>2026-04-12T09:23:13Z</time></trkpt><trkpt lat="44.23019992650062" lon="11.629392850435535"><ele>207.66666666666666</ele><time>2026-04-12T09:23:15Z</time></trkpt><trkpt lat="44.230241091587565" lon="11.629510261490115"><ele>207.0</ele><time>2026-04-12T09:23:17Z</time></trkpt><trkpt lat="44.23029229567493" lon="11.62964659039155"><ele>205.83333333333334</ele><time>2026-04-12T09:23:19Z</time></trkpt><trkpt lat="44.230330318325564" lon="11.629813025035538"><ele>204.66666666666669</ele><time>2026-04-12T09:23:21Z</time></trkpt><trkpt lat="44.2303472903184" lon="11.629908025175181"><ele>203.5</ele><time>2026-04-12T09:23:22Z</time></trkpt><trkpt lat="44.23036789373843" lon="11.630006233717726"><ele>202.33333333333334</ele><time>2026-04-12T09:23:23Z</time></trkpt><trkpt lat="44.23039376241154" lon="11.630107336229008"><ele>201.16666666666669</ele><time>2026-04-12T09:23:24Z</time></trkpt><trkpt lat="44.230412556688975" lon="11.63021062021604"><ele>200.0</ele><time>2026-04-12T09:23:25Z</time></trkpt><trkpt lat="44.23043643232689" lon="11.630320673207946"><ele>198.8</ele><time>2026-04-12T09:23:26Z</time></trkpt><trkpt lat="44.23045678947843" lon="11.630434547228841"><ele>197.6</ele><time>2026-04-12T09:23:27Z</time></trkpt><trkpt lat="44.230474768342425" lon="11.630551945892238"><ele>196.39999999999998</ele><time>2026-04-12T09:23:28Z</time></trkpt><trkpt lat="44.23049313563656" lon="11.630674703642567"><ele>195.2</ele><time>2026-04-12T09:23:29Z</time></trkpt><trkpt lat="44.23048501920113" lon="11.630804598434402"><ele>194.0</ele><time>2026-04-12T09:23:30Z</time></trkpt><trkpt lat="44.23046106820211" lon="11.630934712827475"><ele>194.0</ele><time>2026-04-12T09:23:31Z</time></trkpt><trkpt lat="44.23043254524242" lon="11.631061149454078"><ele>194.0</ele><time>2026-04-12T09:23:32Z</time></trkpt><trkpt lat="44.23040872447058" lon="11.631192290858353"><ele>194.0</ele><time>2026-04-12T09:23:33Z</time></trkpt><trkpt lat="44.23038238632785" lon="11.631320272035362"><ele>194.0</ele><time>2026-04-12T09:23:34Z</time></trkpt><trkpt lat="44.23036083846463" lon="11.631445508745498"><ele>194.0</ele><time>2026-04-12T09:23:35Z</time></trkpt><trkpt lat="44.230311002792035" lon="11.63155956442526"><ele>193.6</ele><time>2026-04-12T09:23:36Z</time></trkpt><trkpt lat="44.230228321999405" lon="11.63163437543482"><ele>193.2</ele><time>2026-04-12T09:23:37Z</time></trkpt><trkpt lat="44.23013176488073" lon="11.631659108246897"><ele>192.79999999999998</ele><time>2026-04-12T09:23:38Z</time></trkpt><trkpt lat="44.230037209161175" lon="11.631628338281864"><ele>192.39999999999998</ele><time>2026-04-12T09:23:39Z</time></trkpt><trkpt lat="44.229955476816194" lon="11.631572249885593"><ele>192.0</ele><time>2026-04-12T09:23:40Z</time></trkpt><trkpt lat="44.22990035588275" lon="11.631482389324889"><ele>192.0</ele><time>2026-04-12T09:23:41Z</time></trkpt><trkpt lat="44.22984228885493" lon="11.631410720795632"><ele>192.0</ele><time>2026-04-12T09:23:42Z</time></trkpt><trkpt lat="44.22978154471414" lon="11.631340080858235"><ele>192.0</ele><time>2026-04-12T09:23:43Z</time></trkpt><trkpt lat="44.22971383034598" lon="11.631272279035356"><ele>192.0</ele><time>2026-04-12T09:23:44Z</time></trkpt><trkpt lat="44.22964742686382" lon="11.631206955585311"><ele>192.0</ele><time>2026-04-12T09:23:45Z</time></trkpt><trkpt lat="44.229584099120835" lon="11.63114784038395"><ele>192.0</ele><time>2026-04-12T09:23:46Z</time></trkpt><trkpt lat="44.22952142664562" lon="11.631078865601749"><ele>192.33333333333334</ele><time>2026-04-12T09:23:47Z</time></trkpt><trkpt lat="44.22946089099991" lon="11.631012081969011"><ele>192.66666666666669</ele><time>2026-04-12T09:23:48Z</time></trkpt><trkpt lat="44.2294027280264" lon="11.630946506852096"><ele>193.0</ele><time>2026-04-12T09:23:49Z</time></trkpt><trkpt lat="44.22934184012979" lon="11.630881369163612"><ele>193.33333333333334</ele><time>2026-04-12T09:23:50Z</time></trkpt><trkpt lat="44.22928107253182" lon="11.630816195970864"><ele>193.66666666666669</ele><time>2026-04-12T09:23:51Z</time></trkpt><trkpt lat="44.22921826387899" lon="11.630751262383713"><ele>194.0</ele><time>2026-04-12T09:23:52Z</time></trkpt><trkpt lat="44.22915866538867" lon="11.630686777536226"><ele>194.00000000000003</ele><time>2026-04-12T09:23:53Z</time></trkpt><trkpt lat="44.2290990279264" lon="11.6306204621197"><ele>194.0</ele><time>2026-04-12T09:23:54Z</time></trkpt><trkpt lat="44.22903869674617" lon="11.630557319290183"><ele>194.0</ele><time>2026-04-12T09:23:55Z</time></trkpt><trkpt lat="44.22897859136518" lon="11.630496087251885"><ele>194.0</ele><time>2026-04-12T09:23:56Z</time></trkpt><trkpt lat="44.22892040875531" lon="11.630433328164735"><ele>194.00000000000003</ele><time>2026-04-12T09:23:57Z</time></trkpt><trkpt lat="44.22885942270993" lon="11.630370635150873"><ele>194.0</ele><time>2026-04-12T09:23:58Z</time></trkpt><trkpt lat="44.2288002736881" lon="11.630307671141725"><ele>193.85714285714286</ele><time>2026-04-12T09:23:59Z</time></trkpt><trkpt lat="44.22874072992846" lon="11.630245859798187"><ele>193.71428571428572</ele><time>2026-04-12T09:24:00Z</time></trkpt><trkpt lat="44.22868246446703" lon="11.630186229586325"><ele>193.57142857142858</ele><time>2026-04-12T09:24:01Z</time></trkpt><trkpt lat="44.22862476250229" lon="11.630126578652284"><ele>193.42857142857144</ele><time>2026-04-12T09:24:02Z</time></trkpt><trkpt lat="44.22856878586215" lon="11.630065909455883"><ele>193.28571428571428</ele><time>2026-04-12T09:24:03Z</time></trkpt><trkpt lat="44.22851121536135" lon="11.630002485098657"><ele>193.14285714285717</ele><time>2026-04-12T09:24:04Z</time></trkpt><trkpt lat="44.22845220582393" lon="11.629942218899984"><ele>193.0</ele><time>2026-04-12T09:24:05Z</time></trkpt><trkpt lat="44.22839540802514" lon="11.629882310432523"><ele>193.00000000000003</ele><time>2026-04-12T09:24:06Z</time></trkpt><trkpt lat="44.228339568981696" lon="11.629821492794855"><ele>193.0</ele><time>2026-04-12T09:24:07Z</time></trkpt><trkpt lat="44.228284386141986" lon="11.629762952384674"><ele>193.0</ele><time>2026-04-12T09:24:08Z</time></trkpt><trkpt lat="44.22822956577706" lon="11.629705083065634"><ele>193.0</ele><time>2026-04-12T09:24:09Z</time></trkpt><trkpt lat="44.22817637610292" lon="11.629647040392811"><ele>193.0</ele><time>2026-04-12T09:24:10Z</time></trkpt><trkpt lat="44.22811920327442" lon="11.629587754577607"><ele>193.00000000000003</ele><time>2026-04-12T09:24:11Z</time></trkpt><trkpt lat="44.22806301636309" lon="11.629532345911313"><ele>193.0</ele><time>2026-04-12T09:24:12Z</time></trkpt><trkpt lat="44.228008830184635" lon="11.629475610760128"><ele>193.42857142857144</ele><time>2026-04-12T09:24:13Z</time></trkpt><trkpt lat="44.22795608007652" lon="11.629416613311141"><ele>193.85714285714286</ele><time>2026-04-12T09:24:14Z</time></trkpt><trkpt lat="44.227901189851124" lon="11.629359068127629"><ele>194.28571428571428</ele><time>2026-04-12T09:24:15Z</time></trkpt><trkpt lat="44.227846697611135" lon="11.62930279018894"><ele>194.71428571428572</ele><time>2026-04-12T09:24:16Z</time></trkpt><trkpt lat="44.22779821602519" lon="11.629240554606469"><ele>195.14285714285714</ele><time>2026-04-12T09:24:17Z</time></trkpt><trkpt lat="44.22774365360063" lon="11.629181159585086"><ele>195.57142857142858</ele><time>2026-04-12T09:24:18Z</time></trkpt><trkpt lat="44.227691259925216" lon="11.629125156707103"><ele>196.0</ele><time>2026-04-12T09:24:19Z</time></trkpt><trkpt lat="44.227638246681714" lon="11.62906826366476"><ele>196.0</ele><time>2026-04-12T09:24:20Z</time></trkpt><trkpt lat="44.227587587488316" lon="11.62900971755138"><ele>196.0</ele><time>2026-04-12T09:24:21Z</time></trkpt><trkpt lat="44.22753355586429" lon="11.628950849506927"><ele>196.0</ele><time>2026-04-12T09:24:22Z</time></trkpt><trkpt lat="44.227480311640164" lon="11.628892471750543"><ele>196.0</ele><time>2026-04-12T09:24:23Z</time></trkpt><trkpt lat="44.227426585397566" lon="11.62883707117095"><ele>196.0</ele><time>2026-04-12T09:24:24Z</time></trkpt><trkpt lat="44.227372922375416" lon="11.628781824071877"><ele>196.0</ele><time>2026-04-12T09:24:25Z</time></trkpt><trkpt lat="44.22732065031909" lon="11.628723079931133"><ele>196.0</ele><time>2026-04-12T09:24:26Z</time></trkpt><trkpt lat="44.227267504459554" lon="11.628662097089828"><ele>196.14285714285714</ele><time>2026-04-12T09:24:27Z</time></trkpt><trkpt lat="44.22721466211572" lon="11.628608829948677"><ele>196.28571428571428</ele><time>2026-04-12T09:24:28Z</time></trkpt><trkpt lat="44.22716215096027" lon="11.628553791327692"><ele>196.42857142857144</ele><time>2026-04-12T09:24:29Z</time></trkpt><trkpt lat="44.227108316713355" lon="11.628497328058687"><ele>196.57142857142856</ele><time>2026-04-12T09:24:30Z</time></trkpt><trkpt lat="44.22705491513809" lon="11.628436486414625"><ele>196.71428571428572</ele><time>2026-04-12T09:24:31Z</time></trkpt><trkpt lat="44.22699911709596" lon="11.628380593075157"><ele>196.85714285714286</ele><time>2026-04-12T09:24:32Z</time></trkpt><trkpt lat="44.22694514858628" lon="11.628323905026823"><ele>197.0</ele><time>2026-04-12T09:24:33Z</time></trkpt><trkpt lat="44.22689604852268" lon="11.628261274944228"><ele>197.0</ele><time>2026-04-12T09:24:34Z</time></trkpt><trkpt lat="44.226841770135245" lon="11.628204182290782"><ele>197.0</ele><time>2026-04-12T09:24:35Z</time></trkpt><trkpt lat="44.22678880316228" lon="11.628148736010775"><ele>197.0</ele><time>2026-04-12T09:24:36Z</time></trkpt><trkpt lat="44.22673578493555" lon="11.628095387429216"><ele>197.0</ele><time>2026-04-12T09:24:37Z</time></trkpt><trkpt lat="44.226683254035294" lon="11.628037994354399"><ele>197.0</ele><time>2026-04-12T09:24:38Z</time></trkpt><trkpt lat="44.22663367446795" lon="11.627978889626611"><ele>197.0</ele><time>2026-04-12T09:24:38.999Z</time></trkpt><trkpt lat="44.226585946782684" lon="11.627914367093426"><ele>197.0</ele><time>2026-04-12T09:24:39.999Z</time></trkpt><trkpt lat="44.22653769149362" lon="11.627847986833704"><ele>197.28571428571428</ele><time>2026-04-12T09:24:40.999Z</time></trkpt><trkpt lat="44.22648971073319" lon="11.627786766171731"><ele>197.57142857142858</ele><time>2026-04-12T09:24:41.999Z</time></trkpt><trkpt lat="44.22644027305829" lon="11.62772472207257"><ele>197.85714285714283</ele><time>2026-04-12T09:24:42.999Z</time></trkpt><trkpt lat="44.22639279959686" lon="11.627659595235539"><ele>198.14285714285714</ele><time>2026-04-12T09:24:43.999Z</time></trkpt><trkpt lat="44.22634422170116" lon="11.627595999092252"><ele>198.42857142857142</ele><time>2026-04-12T09:24:44.999Z</time></trkpt><trkpt lat="44.22629310989286" lon="11.627535092489524"><ele>198.7142857142857</ele><time>2026-04-12T09:24:45.999Z</time></trkpt><trkpt lat="44.22624540715811" lon="11.627474795061508"><ele>199.0</ele><time>2026-04-12T09:24:46.999Z</time></trkpt><trkpt lat="44.22619848541729" lon="11.627412495125053"><ele>198.85714285714283</ele><time>2026-04-12T09:24:47.999Z</time></trkpt><trkpt lat="44.22615013692981" lon="11.627350642515603"><ele>198.71428571428572</ele><time>2026-04-12T09:24:48.999Z</time></trkpt><trkpt lat="44.22610068661485" lon="11.627289026519678"><ele>198.57142857142856</ele><time>2026-04-12T09:24:49.999Z</time></trkpt><trkpt lat="44.22605391848748" lon="11.62722466800664"><ele>198.42857142857142</ele><time>2026-04-12T09:24:50.999Z</time></trkpt><trkpt lat="44.22600292652856" lon="11.627162058673463"><ele>198.28571428571428</ele><time>2026-04-12T09:24:51.999Z</time></trkpt><trkpt lat="44.22595150601925" lon="11.627100165086189"><ele>198.14285714285714</ele><time>2026-04-12T09:24:52.999Z</time></trkpt><trkpt lat="44.22589978726097" lon="11.627035609225858"><ele>198.0</ele><time>2026-04-12T09:24:53.999Z</time></trkpt><trkpt lat="44.225849249799516" lon="11.6269721135397"><ele>198.0</ele><time>2026-04-12T09:24:54.999Z</time></trkpt><trkpt lat="44.225796707584436" lon="11.626910435169552"><ele>198.0</ele><time>2026-04-12T09:24:55.999Z</time></trkpt><trkpt lat="44.2257448460252" lon="11.626845336690971"><ele>198.0</ele><time>2026-04-12T09:24:56.999Z</time></trkpt><trkpt lat="44.22569215265832" lon="11.626782257558054"><ele>198.0</ele><time>2026-04-12T09:24:57.999Z</time></trkpt><trkpt lat="44.22563675717688" lon="11.62671880336523"><ele>198.0</ele><time>2026-04-12T09:24:58.999Z</time></trkpt><trkpt lat="44.22558430215573" lon="11.626656217536983"><ele>198.0</ele><time>2026-04-12T09:24:59.999Z</time></trkpt><trkpt lat="44.22553282456126" lon="11.626590172266322"><ele>198.0</ele><time>2026-04-12T09:25:00.999Z</time></trkpt><trkpt lat="44.225480305090976" lon="11.626521067771032"><ele>197.85714285714286</ele><time>2026-04-12T09:25:01.999Z</time></trkpt><trkpt lat="44.22542784793226" lon="11.62645367230063"><ele>197.7142857142857</ele><time>2026-04-12T09:25:02.999Z</time></trkpt><trkpt lat="44.225372030294416" lon="11.626387405185957"><ele>197.57142857142856</ele><time>2026-04-12T09:25:03.999Z</time></trkpt><trkpt lat="44.225320392345196" lon="11.626323831631794"><ele>197.42857142857144</ele><time>2026-04-12T09:25:04.999Z</time></trkpt><trkpt lat="44.22527092052269" lon="11.626255131772801"><ele>197.28571428571428</ele><time>2026-04-12T09:25:05.999Z</time></trkpt><trkpt lat="44.22521985500262" lon="11.626186486578986"><ele>197.14285714285714</ele><time>2026-04-12T09:25:06.999Z</time></trkpt><trkpt lat="44.22516646188095" lon="11.626114860026233"><ele>197.0</ele><time>2026-04-12T09:25:07.999Z</time></trkpt><trkpt lat="44.22511795018337" lon="11.626045952703704"><ele>197.0</ele><time>2026-04-12T09:25:09Z</time></trkpt><trkpt lat="44.22506664693241" lon="11.625973318221323"><ele>197.0</ele><time>2026-04-12T09:25:10Z</time></trkpt><trkpt lat="44.22501260786981" lon="11.625905503754616"><ele>197.0</ele><time>2026-04-12T09:25:11Z</time></trkpt><trkpt lat="44.22495345754496" lon="11.625840726697646"><ele>197.0</ele><time>2026-04-12T09:25:12Z</time></trkpt><trkpt lat="44.22489710604766" lon="11.625773346314547"><ele>197.0</ele><time>2026-04-12T09:25:13Z</time></trkpt><trkpt lat="44.22483961375207" lon="11.625708518184975"><ele>197.0</ele><time>2026-04-12T09:25:14Z</time></trkpt><trkpt lat="44.2247844342718" lon="11.625643061189288"><ele>197.0</ele><time>2026-04-12T09:25:15Z</time></trkpt><trkpt lat="44.224734183320365" lon="11.625574434691906"><ele>196.85714285714286</ele><time>2026-04-12T09:25:16Z</time></trkpt><trkpt lat="44.2246880527621" lon="11.62550078327075"><ele>196.71428571428572</ele><time>2026-04-12T09:25:17Z</time></trkpt><trkpt lat="44.2246360641349" lon="11.625434902663514"><ele>196.57142857142856</ele><time>2026-04-12T09:25:18Z</time></trkpt><trkpt lat="44.22458258955883" lon="11.625375690079062"><ele>196.42857142857144</ele><time>2026-04-12T09:25:19Z</time></trkpt><trkpt lat="44.224534269071114" lon="11.62530886647269"><ele>196.28571428571428</ele><time>2026-04-12T09:25:20Z</time></trkpt><trkpt lat="44.224487866397936" lon="11.625241147707754"><ele>196.14285714285714</ele><time>2026-04-12T09:25:21Z</time></trkpt><trkpt lat="44.22443908815196" lon="11.62516479772145"><ele>196.0</ele><time>2026-04-12T09:25:22Z</time></trkpt><trkpt lat="44.22439841704775" lon="11.625085486721126"><ele>196.57142857142858</ele><time>2026-04-12T09:25:23Z</time></trkpt><trkpt lat="44.22435127968799" lon="11.625014719282882"><ele>197.14285714285714</ele><time>2026-04-12T09:25:24Z</time></trkpt><trkpt lat="44.22430992514334" lon="11.624945827708205"><ele>197.71428571428572</ele><time>2026-04-12T09:25:25Z</time></trkpt><trkpt lat="44.224269176872916" lon="11.624877851316125"><ele>198.28571428571428</ele><time>2026-04-12T09:25:26Z</time></trkpt><trkpt lat="44.22422752053288" lon="11.62480723344936"><ele>198.85714285714286</ele><time>2026-04-12T09:25:27Z</time></trkpt><trkpt lat="44.22418795893548" lon="11.624737933272186"><ele>199.42857142857144</ele><time>2026-04-12T09:25:28Z</time></trkpt><trkpt lat="44.22414793146933" lon="11.624668952538395"><ele>200.0</ele><time>2026-04-12T09:25:29Z</time></trkpt><trkpt lat="44.22411287639103" lon="11.624594491786999"><ele>200.00000000000003</ele><time>2026-04-12T09:25:30Z</time></trkpt><trkpt lat="44.22407223638349" lon="11.624526783365484"><ele>200.0</ele><time>2026-04-12T09:25:31Z</time></trkpt><trkpt lat="44.22400072313266" lon="11.624387626892236"><ele>200.0</ele><time>2026-04-12T09:25:33Z</time></trkpt><trkpt lat="44.223963902817694" lon="11.62431566689703"><ele>200.0</ele><time>2026-04-12T09:25:34Z</time></trkpt><trkpt lat="44.22388655592788" lon="11.624179866384107"><ele>200.00000000000003</ele><time>2026-04-12T09:25:36Z</time></trkpt><trkpt lat="44.22384607218362" lon="11.62411177543504"><ele>200.0</ele><time>2026-04-12T09:25:37Z</time></trkpt><trkpt lat="44.223808422062234" lon="11.624040888433992"><ele>200.16666666666669</ele><time>2026-04-12T09:25:38Z</time></trkpt><trkpt lat="44.223731304704394" lon="11.623906077207634"><ele>200.33333333333334</ele><time>2026-04-12T09:25:40Z</time></trkpt><trkpt lat="44.22369115820231" lon="11.623837358419022"><ele>200.5</ele><time>2026-04-12T09:25:41Z</time></trkpt><trkpt lat="44.22365212061813" lon="11.623767025692247"><ele>200.66666666666669</ele><time>2026-04-12T09:25:42Z</time></trkpt><trkpt lat="44.22361430270721" lon="11.623695992674794"><ele>200.83333333333334</ele><time>2026-04-12T09:25:43Z</time></trkpt><trkpt lat="44.22357676844207" lon="11.623625394676251"><ele>201.0</ele><time>2026-04-12T09:25:44Z</time></trkpt><trkpt lat="44.223509187344476" lon="11.623499066099376"><ele>201.0</ele><time>2026-04-12T09:25:46Z</time></trkpt><trkpt lat="44.223440399946846" lon="11.623370043689594"><ele>201.0</ele><time>2026-04-12T09:25:48Z</time></trkpt><trkpt lat="44.22336736426166" lon="11.62323281249532"><ele>201.0</ele><time>2026-04-12T09:25:50Z</time></trkpt><trkpt lat="44.2232976319873" lon="11.62308556039643"><ele>201.0</ele><time>2026-04-12T09:25:52Z</time></trkpt><trkpt lat="44.223261241456996" lon="11.623013115692517"><ele>201.0</ele><time>2026-04-12T09:25:53Z</time></trkpt><trkpt lat="44.22318747749876" lon="11.622890048972975"><ele>201.16666666666666</ele><time>2026-04-12T09:25:55Z</time></trkpt><trkpt lat="44.223121752731565" lon="11.622768870269832"><ele>201.33333333333331</ele><time>2026-04-12T09:25:57Z</time></trkpt><trkpt lat="44.22305927684177" lon="11.622661749372279"><ele>201.5</ele><time>2026-04-12T09:25:59Z</time></trkpt><trkpt lat="44.22301482901546" lon="11.622579814709527"><ele>201.66666666666666</ele><time>2026-04-12T09:26:01Z</time></trkpt><trkpt lat="44.22295672786059" lon="11.622523542576744"><ele>201.83333333333331</ele><time>2026-04-12T09:26:04Z</time></trkpt><trkpt lat="44.22302202278996" lon="11.622598607305378"><ele>202.0</ele><time>2026-04-12T09:26:42Z</time></trkpt><trkpt lat="44.222954566456046" lon="11.622595899536359"><ele>202.0</ele><time>2026-04-12T09:40:53Z</time></trkpt><trkpt lat="44.222924366105644" lon="11.622491160812706"><ele>202.0</ele><time>2026-04-12T09:41:39.999Z</time></trkpt><trkpt lat="44.22286945631174" lon="11.622388749814872"><ele>202.0</ele><time>2026-04-12T09:41:41.999Z</time></trkpt><trkpt lat="44.22281485071586" lon="11.622270265799067"><ele>202.0</ele><time>2026-04-12T09:41:43.999Z</time></trkpt><trkpt lat="44.22276361533001" lon="11.62216836310449"><ele>202.0</ele><time>2026-04-12T09:41:45.999Z</time></trkpt><trkpt lat="44.22270529495904" lon="11.622060409665247"><ele>202.39999999999998</ele><time>2026-04-12T09:41:47.999Z</time></trkpt><trkpt lat="44.22264425322391" lon="11.621941957473856"><ele>202.79999999999998</ele><time>2026-04-12T09:41:49.999Z</time></trkpt><trkpt lat="44.22258312888429" lon="11.621825569137199"><ele>203.2</ele><time>2026-04-12T09:41:51.999Z</time></trkpt><trkpt lat="44.222517014735374" lon="11.621714975511251"><ele>203.6</ele><time>2026-04-12T09:41:53.999Z</time></trkpt><trkpt lat="44.22245435496" lon="11.62159506766124"><ele>204.0</ele><time>2026-04-12T09:41:55.999Z</time></trkpt><trkpt lat="44.222394924017266" lon="11.621482395928629"><ele>204.0</ele><time>2026-04-12T09:41:58Z</time></trkpt><trkpt lat="44.22232533946943" lon="11.621360321240205"><ele>204.0</ele><time>2026-04-12T09:42:00Z</time></trkpt><trkpt lat="44.22225859398702" lon="11.621243311583964"><ele>204.0</ele><time>2026-04-12T09:42:02Z</time></trkpt><trkpt lat="44.22219222798124" lon="11.621122694333108"><ele>204.0</ele><time>2026-04-12T09:42:04Z</time></trkpt><trkpt lat="44.22212311856324" lon="11.620993400109121"><ele>204.0</ele><time>2026-04-12T09:42:06Z</time></trkpt><trkpt lat="44.222056048222" lon="11.620870257892797"><ele>202.75</ele><time>2026-04-12T09:42:08Z</time></trkpt><trkpt lat="44.22198803309234" lon="11.62074481848227"><ele>201.5</ele><time>2026-04-12T09:42:10Z</time></trkpt><trkpt lat="44.22192085214553" lon="11.620619057383525"><ele>200.25</ele><time>2026-04-12T09:42:12Z</time></trkpt><trkpt lat="44.221851368316734" lon="11.620494869349885"><ele>199.0</ele><time>2026-04-12T09:42:14Z</time></trkpt><trkpt lat="44.22177927219858" lon="11.620364871017092"><ele>200.5</ele><time>2026-04-12T09:42:16Z</time></trkpt><trkpt lat="44.22171134409297" lon="11.620229226491038"><ele>202.0</ele><time>2026-04-12T09:42:18Z</time></trkpt><trkpt lat="44.221638819832016" lon="11.62010205110886"><ele>203.5</ele><time>2026-04-12T09:42:20Z</time></trkpt><trkpt lat="44.22156967810853" lon="11.619977588578465"><ele>205.0</ele><time>2026-04-12T09:42:22Z</time></trkpt><trkpt lat="44.221499617474564" lon="11.619846631464771"><ele>204.25</ele><time>2026-04-12T09:42:24Z</time></trkpt><trkpt lat="44.22142654475744" lon="11.619716510164034"><ele>203.5</ele><time>2026-04-12T09:42:26Z</time></trkpt><trkpt lat="44.22135426935558" lon="11.619586172349015"><ele>202.75</ele><time>2026-04-12T09:42:28Z</time></trkpt><trkpt lat="44.2212833393149" lon="11.619455663511989"><ele>202.0</ele><time>2026-04-12T09:42:30Z</time></trkpt><trkpt lat="44.22120777927258" lon="11.619323785520736"><ele>202.0</ele><time>2026-04-12T09:42:32Z</time></trkpt><trkpt lat="44.2211328290875" lon="11.61919166940498"><ele>202.0</ele><time>2026-04-12T09:42:34Z</time></trkpt><trkpt lat="44.22105474971274" lon="11.619059728246699"><ele>202.0</ele><time>2026-04-12T09:42:36Z</time></trkpt><trkpt lat="44.22097524263496" lon="11.618928052351512"><ele>202.0</ele><time>2026-04-12T09:42:38Z</time></trkpt><trkpt lat="44.22089402544601" lon="11.618798096971375"><ele>202.0</ele><time>2026-04-12T09:42:40Z</time></trkpt><trkpt lat="44.22080947875628" lon="11.618667888392695"><ele>202.0</ele><time>2026-04-12T09:42:42Z</time></trkpt><trkpt lat="44.22072356599617" lon="11.618534904697478"><ele>202.0</ele><time>2026-04-12T09:42:44Z</time></trkpt><trkpt lat="44.22068153971412" lon="11.61846790105534"><ele>202.0</ele><time>2026-04-12T09:42:45Z</time></trkpt><trkpt lat="44.220634592786695" lon="11.618402435132376"><ele>202.0</ele><time>2026-04-12T09:42:46Z</time></trkpt><trkpt lat="44.22054631501135" lon="11.618295361131452"><ele>200.99999999999997</ele><time>2026-04-12T09:42:48Z</time></trkpt><trkpt lat="44.22049673593951" lon="11.618239595559166"><ele>200.0</ele><time>2026-04-12T09:42:49Z</time></trkpt><trkpt lat="44.22044296845084" lon="11.61818679658668"><ele>199.0</ele><time>2026-04-12T09:42:50Z</time></trkpt><trkpt lat="44.22033670879045" lon="11.61808789513291"><ele>198.0</ele><time>2026-04-12T09:42:52Z</time></trkpt><trkpt lat="44.22027968721633" lon="11.618041089941494"><ele>196.99999999999997</ele><time>2026-04-12T09:42:53Z</time></trkpt><trkpt lat="44.220225282606776" lon="11.617993480125357"><ele>196.0</ele><time>2026-04-12T09:42:54Z</time></trkpt><trkpt lat="44.220120979456865" lon="11.6179036769265"><ele>196.0</ele><time>2026-04-12T09:42:56Z</time></trkpt><trkpt lat="44.22000699057695" lon="11.617822096211354"><ele>196.0</ele><time>2026-04-12T09:42:58Z</time></trkpt><trkpt lat="44.21990665460228" lon="11.617743180036587"><ele>196.0</ele><time>2026-04-12T09:43:00Z</time></trkpt><trkpt lat="44.21981142004448" lon="11.617664211905744"><ele>196.0</ele><time>2026-04-12T09:43:02Z</time></trkpt><trkpt lat="44.2197303587939" lon="11.617607135502837"><ele>196.0</ele><time>2026-04-12T09:43:04Z</time></trkpt><trkpt lat="44.21967307101404" lon="11.617555057666056"><ele>197.0</ele><time>2026-04-12T09:43:07Z</time></trkpt><trkpt lat="44.21960225289116" lon="11.617510694611887"><ele>198.0</ele><time>2026-04-12T09:43:38Z</time></trkpt><trkpt lat="44.21952345740385" lon="11.617449575102839"><ele>199.0</ele><time>2026-04-12T09:43:41Z</time></trkpt><trkpt lat="44.21943082485179" lon="11.617404930992064"><ele>200.0</ele><time>2026-04-12T09:43:43Z</time></trkpt><trkpt lat="44.21933533169808" lon="11.617321693982841"><ele>201.0</ele><time>2026-04-12T09:43:45Z</time></trkpt><trkpt lat="44.21923239676131" lon="11.617241471289327"><ele>201.0</ele><time>2026-04-12T09:43:47Z</time></trkpt><trkpt lat="44.21911836645581" lon="11.617162946963283"><ele>201.0</ele><time>2026-04-12T09:43:49Z</time></trkpt><trkpt lat="44.219057558529826" lon="11.617128935070186"><ele>201.0</ele><time>2026-04-12T09:43:50Z</time></trkpt><trkpt lat="44.218997945766986" lon="11.617095687553011"><ele>201.0</ele><time>2026-04-12T09:43:51Z</time></trkpt><trkpt lat="44.21888993119287" lon="11.617015012662094"><ele>201.0</ele><time>2026-04-12T09:43:53Z</time></trkpt><trkpt lat="44.21877604952567" lon="11.616943437568592"><ele>204.28571428571428</ele><time>2026-04-12T09:43:55Z</time></trkpt><trkpt lat="44.21867251803757" lon="11.61686803915048"><ele>207.57142857142858</ele><time>2026-04-12T09:43:57Z</time></trkpt><trkpt lat="44.218615764881825" lon="11.616817788430975"><ele>210.85714285714286</ele><time>2026-04-12T09:43:58Z</time></trkpt><trkpt lat="44.21855959872239" lon="11.616772426037498"><ele>214.14285714285714</ele><time>2026-04-12T09:43:59Z</time></trkpt><trkpt lat="44.2185004349817" lon="11.616733130044455"><ele>217.42857142857144</ele><time>2026-04-12T09:44:00Z</time></trkpt><trkpt lat="44.21843706031153" lon="11.616710539588288"><ele>220.71428571428572</ele><time>2026-04-12T09:44:01Z</time></trkpt><trkpt lat="44.21836869365733" lon="11.616705721656043"><ele>224.0</ele><time>2026-04-12T09:44:02Z</time></trkpt><trkpt lat="44.21830071379893" lon="11.61671006901783"><ele>224.0</ele><time>2026-04-12T09:44:03Z</time></trkpt><trkpt lat="44.218235763793516" lon="11.61672920251614"><ele>224.0</ele><time>2026-04-12T09:44:04Z</time></trkpt><trkpt lat="44.21817606911448" lon="11.616763811009125"><ele>224.0</ele><time>2026-04-12T09:44:05Z</time></trkpt><trkpt lat="44.21811801124493" lon="11.616820389471476"><ele>224.0</ele><time>2026-04-12T09:44:06Z</time></trkpt><trkpt lat="44.218062773149406" lon="11.616873655113572"><ele>224.0</ele><time>2026-04-12T09:44:07Z</time></trkpt><trkpt lat="44.21800170036998" lon="11.616926741954638"><ele>224.0</ele><time>2026-04-12T09:44:08Z</time></trkpt><trkpt lat="44.21794249950256" lon="11.616978214727903"><ele>224.0</ele><time>2026-04-12T09:44:09Z</time></trkpt><trkpt lat="44.217883388143576" lon="11.617034271378847"><ele>222.28571428571428</ele><time>2026-04-12T09:44:10Z</time></trkpt><trkpt lat="44.2178251290411" lon="11.617087398289545"><ele>220.57142857142856</ele><time>2026-04-12T09:44:11Z</time></trkpt><trkpt lat="44.21776627534712" lon="11.617140087099289"><ele>218.85714285714286</ele><time>2026-04-12T09:44:12Z</time></trkpt><trkpt lat="44.217707450157526" lon="11.617194091946272"><ele>217.14285714285714</ele><time>2026-04-12T09:44:13Z</time></trkpt><trkpt lat="44.21764606627185" lon="11.617250516252659"><ele>215.42857142857142</ele><time>2026-04-12T09:44:14Z</time></trkpt><trkpt lat="44.21758482793727" lon="11.617305600578675"><ele>213.71428571428572</ele><time>2026-04-12T09:44:15Z</time></trkpt><trkpt lat="44.21752367652356" lon="11.617360158228148"><ele>212.0</ele><time>2026-04-12T09:44:16Z</time></trkpt><trkpt lat="44.21746264473147" lon="11.617415271114323"><ele>212.0</ele><time>2026-04-12T09:44:17Z</time></trkpt><trkpt lat="44.21739876901117" lon="11.617469025189433"><ele>212.0</ele><time>2026-04-12T09:44:18Z</time></trkpt><trkpt lat="44.2173392351643" lon="11.617517458918897"><ele>212.0</ele><time>2026-04-12T09:44:19Z</time></trkpt><trkpt lat="44.21727529770526" lon="11.617561218920049"><ele>212.0</ele><time>2026-04-12T09:44:20Z</time></trkpt><trkpt lat="44.21720455959973" lon="11.617602584638519"><ele>212.0</ele><time>2026-04-12T09:44:21Z</time></trkpt><trkpt lat="44.21713491840783" lon="11.61762863075341"><ele>212.0</ele><time>2026-04-12T09:44:22Z</time></trkpt><trkpt lat="44.21706775635359" lon="11.617643663511151"><ele>212.0</ele><time>2026-04-12T09:44:23Z</time></trkpt><trkpt lat="44.21699686765753" lon="11.617654322180993"><ele>212.85714285714286</ele><time>2026-04-12T09:44:24Z</time></trkpt><trkpt lat="44.21692279364064" lon="11.617663318836264"><ele>213.7142857142857</ele><time>2026-04-12T09:44:25Z</time></trkpt><trkpt lat="44.216851573232944" lon="11.617665341830211"><ele>214.57142857142856</ele><time>2026-04-12T09:44:26Z</time></trkpt><trkpt lat="44.21678056770636" lon="11.617664959351004"><ele>215.42857142857144</ele><time>2026-04-12T09:44:27Z</time></trkpt><trkpt lat="44.216709391667194" lon="11.617664372506347"><ele>216.28571428571428</ele><time>2026-04-12T09:44:28Z</time></trkpt><trkpt lat="44.21663913557143" lon="11.617668197765413"><ele>217.14285714285714</ele><time>2026-04-12T09:44:29Z</time></trkpt><trkpt lat="44.216567364038276" lon="11.617672492875231"><ele>218.0</ele><time>2026-04-12T09:44:30Z</time></trkpt><trkpt lat="44.21649668620048" lon="11.617673909873858"><ele>218.0</ele><time>2026-04-12T09:44:31Z</time></trkpt><trkpt lat="44.216423860927044" lon="11.617674796663657"><ele>218.0</ele><time>2026-04-12T09:44:32Z</time></trkpt><trkpt lat="44.216356088307386" lon="11.617677126286276"><ele>218.0</ele><time>2026-04-12T09:44:33Z</time></trkpt><trkpt lat="44.216285354763706" lon="11.617678864414215"><ele>218.0</ele><time>2026-04-12T09:44:34Z</time></trkpt><trkpt lat="44.21621749690101" lon="11.617677287916658"><ele>218.0</ele><time>2026-04-12T09:44:35Z</time></trkpt><trkpt lat="44.21614720600279" lon="11.617677611973571"><ele>218.0</ele><time>2026-04-12T09:44:36Z</time></trkpt><trkpt lat="44.21607215545893" lon="11.617681543486476"><ele>218.0</ele><time>2026-04-12T09:44:37Z</time></trkpt><trkpt lat="44.21599940800257" lon="11.617685515215472"><ele>218.0</ele><time>2026-04-12T09:44:38Z</time></trkpt><trkpt lat="44.215929682997526" lon="11.617686001067979"><ele>218.0</ele><time>2026-04-12T09:44:39Z</time></trkpt><trkpt lat="44.215856560039505" lon="11.617691612524233"><ele>218.0</ele><time>2026-04-12T09:44:40Z</time></trkpt><trkpt lat="44.215784200627006" lon="11.617695016632194"><ele>218.0</ele><time>2026-04-12T09:44:41Z</time></trkpt><trkpt lat="44.215713239518124" lon="11.617696627398253"><ele>218.0</ele><time>2026-04-12T09:44:42Z</time></trkpt><trkpt lat="44.21564025034088" lon="11.617699996213496"><ele>218.0</ele><time>2026-04-12T09:44:43Z</time></trkpt><trkpt lat="44.215571205136115" lon="11.617701845728352"><ele>218.0</ele><time>2026-04-12T09:44:44Z</time></trkpt><trkpt lat="44.215500268272706" lon="11.617706324697226"><ele>218.14285714285714</ele><time>2026-04-12T09:44:45Z</time></trkpt><trkpt lat="44.21542884247819" lon="11.61770877333368"><ele>218.28571428571428</ele><time>2026-04-12T09:44:46Z</time></trkpt><trkpt lat="44.21535718169078" lon="11.617715468000288"><ele>218.42857142857144</ele><time>2026-04-12T09:44:47Z</time></trkpt><trkpt lat="44.21528649837508" lon="11.617719346625202"><ele>218.57142857142856</ele><time>2026-04-12T09:44:48Z</time></trkpt><trkpt lat="44.2152161039884" lon="11.617723394625536"><ele>218.7142857142857</ele><time>2026-04-12T09:44:49Z</time></trkpt><trkpt lat="44.21514286647027" lon="11.617727587567826"><ele>218.85714285714286</ele><time>2026-04-12T09:44:50Z</time></trkpt><trkpt lat="44.21507163026482" lon="11.617731335121649"><ele>219.0</ele><time>2026-04-12T09:44:51Z</time></trkpt><trkpt lat="44.21500203399071" lon="11.617736161577103"><ele>219.0</ele><time>2026-04-12T09:44:52Z</time></trkpt><trkpt lat="44.21493473209918" lon="11.617738906822403"><ele>219.0</ele><time>2026-04-12T09:44:53Z</time></trkpt><trkpt lat="44.21486820897902" lon="11.61774350239742"><ele>219.0</ele><time>2026-04-12T09:44:54Z</time></trkpt><trkpt lat="44.214803297281655" lon="11.617746575367576"><ele>219.0</ele><time>2026-04-12T09:44:55Z</time></trkpt><trkpt lat="44.21473776701659" lon="11.617748455666055"><ele>219.0</ele><time>2026-04-12T09:44:56Z</time></trkpt><trkpt lat="44.214672598322494" lon="11.61775088739707"><ele>219.0</ele><time>2026-04-12T09:44:57Z</time></trkpt><trkpt lat="44.21460623859914" lon="11.617754413757462"><ele>219.0</ele><time>2026-04-12T09:44:58Z</time></trkpt><trkpt lat="44.214482705364915" lon="11.617760795532487"><ele>219.85714285714286</ele><time>2026-04-12T09:45:00Z</time></trkpt><trkpt lat="44.214419436376104" lon="11.617765489407606"><ele>220.71428571428572</ele><time>2026-04-12T09:45:01Z</time></trkpt><trkpt lat="44.21435322383242" lon="11.617769444063025"><ele>221.57142857142858</ele><time>2026-04-12T09:45:02Z</time></trkpt><trkpt lat="44.214285759564966" lon="11.617774432527243"><ele>222.42857142857144</ele><time>2026-04-12T09:45:03Z</time></trkpt><trkpt lat="44.2142204648118" lon="11.617777372817196"><ele>223.28571428571428</ele><time>2026-04-12T09:45:04Z</time></trkpt><trkpt lat="44.21415537562413" lon="11.617777324710271"><ele>224.14285714285717</ele><time>2026-04-12T09:45:05Z</time></trkpt><trkpt lat="44.21408953565639" lon="11.617780206884303"><ele>225.00000000000003</ele><time>2026-04-12T09:45:06Z</time></trkpt><trkpt lat="44.214022194203125" lon="11.617786345438914"><ele>224.8571428571429</ele><time>2026-04-12T09:45:07Z</time></trkpt><trkpt lat="44.21395382760021" lon="11.61778696033523"><ele>224.71428571428572</ele><time>2026-04-12T09:45:08Z</time></trkpt><trkpt lat="44.21388501342172" lon="11.617787639892446"><ele>224.57142857142858</ele><time>2026-04-12T09:45:09Z</time></trkpt><trkpt lat="44.21381687826724" lon="11.61778671255576"><ele>224.42857142857144</ele><time>2026-04-12T09:45:10Z</time></trkpt><trkpt lat="44.21374896006883" lon="11.61778299880307"><ele>224.28571428571428</ele><time>2026-04-12T09:45:11Z</time></trkpt><trkpt lat="44.21368166426143" lon="11.617774887829416"><ele>224.14285714285714</ele><time>2026-04-12T09:45:12Z</time></trkpt><trkpt lat="44.21361317718484" lon="11.617760977651898"><ele>224.0</ele><time>2026-04-12T09:45:13Z</time></trkpt><trkpt lat="44.21354922197558" lon="11.617737890167053"><ele>224.0</ele><time>2026-04-12T09:45:14Z</time></trkpt><trkpt lat="44.2134850818611" lon="11.617716758899169"><ele>224.0</ele><time>2026-04-12T09:45:15Z</time></trkpt><trkpt lat="44.21342176438128" lon="11.617694484534576"><ele>224.0</ele><time>2026-04-12T09:45:16Z</time></trkpt><trkpt lat="44.21335546726543" lon="11.617673943514017"><ele>224.0</ele><time>2026-04-12T09:45:17Z</time></trkpt><trkpt lat="44.21329172253036" lon="11.617648444607953"><ele>224.0</ele><time>2026-04-12T09:45:18Z</time></trkpt><trkpt lat="44.21322674858629" lon="11.617625849775314"><ele>224.0</ele><time>2026-04-12T09:45:19Z</time></trkpt><trkpt lat="44.21316184955946" lon="11.617604310615471"><ele>224.0</ele><time>2026-04-12T09:45:20Z</time></trkpt><trkpt lat="44.2130957143962" lon="11.617578043807056"><ele>223.57142857142858</ele><time>2026-04-12T09:45:21Z</time></trkpt><trkpt lat="44.21303068933517" lon="11.617556971696848"><ele>223.14285714285714</ele><time>2026-04-12T09:45:22Z</time></trkpt><trkpt lat="44.21296892026225" lon="11.617533981763254"><ele>222.71428571428572</ele><time>2026-04-12T09:45:23Z</time></trkpt><trkpt lat="44.21290492851107" lon="11.617507819944596"><ele>222.28571428571428</ele><time>2026-04-12T09:45:24Z</time></trkpt><trkpt lat="44.21284199404495" lon="11.617481731040392"><ele>221.85714285714286</ele><time>2026-04-12T09:45:25Z</time></trkpt><trkpt lat="44.21277834871095" lon="11.617459875274132"><ele>221.42857142857144</ele><time>2026-04-12T09:45:26Z</time></trkpt><trkpt lat="44.21271263026522" lon="11.617437749330994"><ele>221.0</ele><time>2026-04-12T09:45:27Z</time></trkpt><trkpt lat="44.21259644873456" lon="11.61740333949001"><ele>221.0</ele><time>2026-04-12T09:45:29Z</time></trkpt><trkpt lat="44.21248172086544" lon="11.61735070605032"><ele>221.00000000000003</ele><time>2026-04-12T09:45:31Z</time></trkpt><trkpt lat="44.21237131416451" lon="11.617306788652861"><ele>221.00000000000003</ele><time>2026-04-12T09:45:33Z</time></trkpt><trkpt lat="44.21226804190983" lon="11.617274725635275"><ele>221.0</ele><time>2026-04-12T09:45:35Z</time></trkpt><trkpt lat="44.212170938384276" lon="11.617236732896231"><ele>221.0</ele><time>2026-04-12T09:45:37Z</time></trkpt><trkpt lat="44.212093818490416" lon="11.617204612501192"><ele>218.83333333333334</ele><time>2026-04-12T09:45:39Z</time></trkpt><trkpt lat="44.21202748700623" lon="11.617177640088187"><ele>216.66666666666669</ele><time>2026-04-12T09:45:41Z</time></trkpt><trkpt lat="44.211966604589215" lon="11.61715079702809"><ele>214.5</ele><time>2026-04-12T09:45:46Z</time></trkpt><trkpt lat="44.21190103852371" lon="11.617122098091723"><ele>212.33333333333331</ele><time>2026-04-12T09:45:58Z</time></trkpt><trkpt lat="44.21181860029848" lon="11.617099778398929"><ele>210.16666666666666</ele><time>2026-04-12T09:46:49Z</time></trkpt><trkpt lat="44.21175053674365" lon="11.617077274842131"><ele>208.0</ele><time>2026-04-12T09:46:51Z</time></trkpt><trkpt lat="44.211657873601524" lon="11.617003661891266"><ele>209.66666666666666</ele><time>2026-04-12T09:46:53Z</time></trkpt><trkpt lat="44.21154056628616" lon="11.61694085036449"><ele>211.33333333333331</ele><time>2026-04-12T09:46:55Z</time></trkpt><trkpt lat="44.21147258182748" lon="11.61691151958229"><ele>213.0</ele><time>2026-04-12T09:46:56Z</time></trkpt><trkpt lat="44.21140211284921" lon="11.616879908993711"><ele>214.66666666666669</ele><time>2026-04-12T09:46:57Z</time></trkpt><trkpt lat="44.21132658052209" lon="11.616849739905255"><ele>216.33333333333334</ele><time>2026-04-12T09:46:58Z</time></trkpt><trkpt lat="44.211252402575106" lon="11.6168168735265"><ele>218.0</ele><time>2026-04-12T09:46:59Z</time></trkpt><trkpt lat="44.211171533913884" lon="11.616792619703272"><ele>218.00000000000003</ele><time>2026-04-12T09:47:00Z</time></trkpt><trkpt lat="44.21108828818271" lon="11.616767427379358"><ele>218.0</ele><time>2026-04-12T09:47:01Z</time></trkpt><trkpt lat="44.211001358920285" lon="11.616746227413989"><ele>218.0</ele><time>2026-04-12T09:47:02Z</time></trkpt><trkpt lat="44.21092983253067" lon="11.616714869388495"><ele>218.0</ele><time>2026-04-12T09:47:03Z</time></trkpt><trkpt lat="44.2108476131989" lon="11.616690857846837"><ele>218.00000000000003</ele><time>2026-04-12T09:47:04Z</time></trkpt><trkpt lat="44.2107479544332" lon="11.616663558028085"><ele>218.0</ele><time>2026-04-12T09:47:05Z</time></trkpt><trkpt lat="44.210653132623406" lon="11.616639248446905"><ele>217.0</ele><time>2026-04-12T09:47:06Z</time></trkpt><trkpt lat="44.21056039142812" lon="11.616616231073813"><ele>216.0</ele><time>2026-04-12T09:47:07Z</time></trkpt><trkpt lat="44.210464256247356" lon="11.616600450475197"><ele>215.0</ele><time>2026-04-12T09:47:08Z</time></trkpt><trkpt lat="44.21036774049179" lon="11.61659975972346"><ele>214.0</ele><time>2026-04-12T09:47:09Z</time></trkpt><trkpt lat="44.21027390268861" lon="11.616622592020065"><ele>213.0</ele><time>2026-04-12T09:47:10Z</time></trkpt><trkpt lat="44.210183206108546" lon="11.616660865688663"><ele>213.0</ele><time>2026-04-12T09:47:11Z</time></trkpt><trkpt lat="44.21009962077861" lon="11.616731340261625"><ele>213.0</ele><time>2026-04-12T09:47:12Z</time></trkpt><trkpt lat="44.210033874215696" lon="11.616822973270724"><ele>213.0</ele><time>2026-04-12T09:47:13Z</time></trkpt><trkpt lat="44.209993013939695" lon="11.616937418728076"><ele>213.0</ele><time>2026-04-12T09:47:14Z</time></trkpt><trkpt lat="44.20996785782087" lon="11.617062096966087"><ele>213.0</ele><time>2026-04-12T09:47:15Z</time></trkpt><trkpt lat="44.209938180230864" lon="11.617182172548874"><ele>212.33333333333334</ele><time>2026-04-12T09:47:16Z</time></trkpt><trkpt lat="44.20990896366418" lon="11.617297258427326"><ele>211.66666666666669</ele><time>2026-04-12T09:47:17Z</time></trkpt><trkpt lat="44.209878082333354" lon="11.617410262351033"><ele>211.0</ele><time>2026-04-12T09:47:18Z</time></trkpt><trkpt lat="44.209842578692275" lon="11.617524974601912"><ele>210.33333333333334</ele><time>2026-04-12T09:47:19Z</time></trkpt><trkpt lat="44.20980975915085" lon="11.617633888733872"><ele>209.66666666666669</ele><time>2026-04-12T09:47:20Z</time></trkpt><trkpt lat="44.20978218326424" lon="11.617741499291931"><ele>209.0</ele><time>2026-04-12T09:47:21Z</time></trkpt><trkpt lat="44.20974984828502" lon="11.617845592485681"><ele>211.00000000000003</ele><time>2026-04-12T09:47:22Z</time></trkpt><trkpt lat="44.20970661544138" lon="11.617947010530044"><ele>213.0</ele><time>2026-04-12T09:47:23Z</time></trkpt><trkpt lat="44.20964396813874" lon="11.618015625394627"><ele>215.0</ele><time>2026-04-12T09:47:24Z</time></trkpt><trkpt lat="44.209569445746986" lon="11.618061075101892"><ele>217.0</ele><time>2026-04-12T09:47:25Z</time></trkpt><trkpt lat="44.20949699434019" lon="11.618093317254063"><ele>219.00000000000003</ele><time>2026-04-12T09:47:26Z</time></trkpt><trkpt lat="44.2094284849247" lon="11.618122275206673"><ele>221.0</ele><time>2026-04-12T09:47:27Z</time></trkpt><trkpt lat="44.20935446311623" lon="11.618131843454504"><ele>221.00000000000003</ele><time>2026-04-12T09:47:28Z</time></trkpt><trkpt lat="44.20928822965107" lon="11.618113058612606"><ele>221.0</ele><time>2026-04-12T09:47:29Z</time></trkpt><trkpt lat="44.20922254660269" lon="11.618073531363772"><ele>221.0</ele><time>2026-04-12T09:47:30Z</time></trkpt><trkpt lat="44.209163880911206" lon="11.618028774116897"><ele>221.0</ele><time>2026-04-12T09:47:31Z</time></trkpt><trkpt lat="44.209106862241555" lon="11.617982463969442"><ele>221.00000000000003</ele><time>2026-04-12T09:47:32Z</time></trkpt><trkpt lat="44.20899262728042" lon="11.61790069624818"><ele>221.0</ele><time>2026-04-12T09:47:34Z</time></trkpt><trkpt lat="44.20893151910245" lon="11.617861891603837"><ele>220.85714285714286</ele><time>2026-04-12T09:47:35Z</time></trkpt><trkpt lat="44.20887596261579" lon="11.61781562500678"><ele>220.71428571428572</ele><time>2026-04-12T09:47:36Z</time></trkpt><trkpt lat="44.2088166941341" lon="11.61777393647878"><ele>220.57142857142856</ele><time>2026-04-12T09:47:37Z</time></trkpt><trkpt lat="44.20875774938563" lon="11.617734401983741"><ele>220.42857142857144</ele><time>2026-04-12T09:47:38Z</time></trkpt><trkpt lat="44.20870137196538" lon="11.617693546109084"><ele>220.28571428571428</ele><time>2026-04-12T09:47:39Z</time></trkpt><trkpt lat="44.20864353566531" lon="11.61764755826781"><ele>220.14285714285714</ele><time>2026-04-12T09:47:40Z</time></trkpt><trkpt lat="44.20858731429538" lon="11.617605604864105"><ele>220.0</ele><time>2026-04-12T09:47:41Z</time></trkpt><trkpt lat="44.20853046770364" lon="11.617565281077196"><ele>219.99999999999997</ele><time>2026-04-12T09:47:42Z</time></trkpt><trkpt lat="44.208473623299945" lon="11.61752592330722"><ele>220.0</ele><time>2026-04-12T09:47:43Z</time></trkpt><trkpt lat="44.20841588411989" lon="11.617482432333166"><ele>220.0</ele><time>2026-04-12T09:47:44Z</time></trkpt><trkpt lat="44.20836126675577" lon="11.617438263293009"><ele>220.0</ele><time>2026-04-12T09:47:45Z</time></trkpt><trkpt lat="44.208304002454575" lon="11.617393757005981"><ele>220.0</ele><time>2026-04-12T09:47:46Z</time></trkpt><trkpt lat="44.20824837234681" lon="11.617352503098617"><ele>219.99999999999997</ele><time>2026-04-12T09:47:47Z</time></trkpt><trkpt lat="44.208190525093364" lon="11.617309184504732"><ele>220.0</ele><time>2026-04-12T09:47:48Z</time></trkpt><trkpt lat="44.20813451331213" lon="11.617263589066209"><ele>220.99999999999997</ele><time>2026-04-12T09:47:49Z</time></trkpt><trkpt lat="44.20807960916658" lon="11.617217019977954"><ele>222.0</ele><time>2026-04-12T09:47:50Z</time></trkpt><trkpt lat="44.208022608553016" lon="11.6171693749113"><ele>223.0</ele><time>2026-04-12T09:47:51Z</time></trkpt><trkpt lat="44.207966144442175" lon="11.617122284382884"><ele>224.0</ele><time>2026-04-12T09:47:52Z</time></trkpt><trkpt lat="44.20791164488131" lon="11.61707678271785"><ele>224.99999999999997</ele><time>2026-04-12T09:47:53Z</time></trkpt><trkpt lat="44.20780277194063" lon="11.616982011460946"><ele>226.0</ele><time>2026-04-12T09:47:55Z</time></trkpt><trkpt lat="44.207747593082566" lon="11.616931835653885"><ele>226.0</ele><time>2026-04-12T09:47:56Z</time></trkpt><trkpt lat="44.207693123262544" lon="11.61688137698923"><ele>226.0</ele><time>2026-04-12T09:47:57Z</time></trkpt><trkpt lat="44.20763999085497" lon="11.616830202686845"><ele>226.0</ele><time>2026-04-12T09:47:58Z</time></trkpt><trkpt lat="44.2075852686356" lon="11.61677531994904"><ele>226.0</ele><time>2026-04-12T09:47:59Z</time></trkpt><trkpt lat="44.20753099947806" lon="11.616720845307068"><ele>226.0</ele><time>2026-04-12T09:48:00Z</time></trkpt><trkpt lat="44.20747775392997" lon="11.616668559907595"><ele>226.0</ele><time>2026-04-12T09:48:01Z</time></trkpt><trkpt lat="44.207424514535916" lon="11.616615375740999"><ele>226.0</ele><time>2026-04-12T09:48:02Z</time></trkpt><trkpt lat="44.20737351167188" lon="11.616561641458995"><ele>227.57142857142858</ele><time>2026-04-12T09:48:03Z</time></trkpt><trkpt lat="44.207321126766146" lon="11.616505469681234"><ele>229.1428571428571</ele><time>2026-04-12T09:48:04Z</time></trkpt><trkpt lat="44.207271949796564" lon="11.616450293302528"><ele>230.7142857142857</ele><time>2026-04-12T09:48:05Z</time></trkpt><trkpt lat="44.207221220383296" lon="11.616392673336374"><ele>232.28571428571428</ele><time>2026-04-12T09:48:06Z</time></trkpt><trkpt lat="44.2071719424402" lon="11.616333573309653"><ele>233.85714285714283</ele><time>2026-04-12T09:48:07Z</time></trkpt><trkpt lat="44.20711937063028" lon="11.61627226462139"><ele>235.4285714285714</ele><time>2026-04-12T09:48:08Z</time></trkpt><trkpt lat="44.207068418667745" lon="11.616216304989402"><ele>236.99999999999997</ele><time>2026-04-12T09:48:09Z</time></trkpt><trkpt lat="44.20701972241121" lon="11.616160013309324"><ele>235.57142857142856</ele><time>2026-04-12T09:48:10Z</time></trkpt><trkpt lat="44.206970967193854" lon="11.616102565445145"><ele>234.14285714285714</ele><time>2026-04-12T09:48:11Z</time></trkpt><trkpt lat="44.206918540021476" lon="11.616042568298464"><ele>232.71428571428572</ele><time>2026-04-12T09:48:12Z</time></trkpt><trkpt lat="44.20686819252049" lon="11.6159848509612"><ele>231.28571428571428</ele><time>2026-04-12T09:48:13Z</time></trkpt><trkpt lat="44.20681772629042" lon="11.61592955544887"><ele>229.8571428571429</ele><time>2026-04-12T09:48:14Z</time></trkpt><trkpt lat="44.206769274236024" lon="11.615872600002772"><ele>228.42857142857144</ele><time>2026-04-12T09:48:15Z</time></trkpt><trkpt lat="44.206718906936786" lon="11.615816485561371"><ele>227.0</ele><time>2026-04-12T09:48:16Z</time></trkpt><trkpt lat="44.20666731130299" lon="11.615761320579773"><ele>227.0</ele><time>2026-04-12T09:48:17Z</time></trkpt><trkpt lat="44.2066163328134" lon="11.615706037762372"><ele>227.00000000000003</ele><time>2026-04-12T09:48:18Z</time></trkpt><trkpt lat="44.206567509894235" lon="11.615648061226514"><ele>227.0</ele><time>2026-04-12T09:48:19Z</time></trkpt><trkpt lat="44.20651930254002" lon="11.615591259266974"><ele>227.0</ele><time>2026-04-12T09:48:20Z</time></trkpt><trkpt lat="44.20646843455828" lon="11.615532043640208"><ele>227.00000000000003</ele><time>2026-04-12T09:48:21Z</time></trkpt><trkpt lat="44.20641888574574" lon="11.615476905375326"><ele>227.0</ele><time>2026-04-12T09:48:22Z</time></trkpt><trkpt lat="44.206368664358656" lon="11.615418699776205"><ele>227.0</ele><time>2026-04-12T09:48:23Z</time></trkpt><trkpt lat="44.20632057455136" lon="11.615362012660201"><ele>228.2</ele><time>2026-04-12T09:48:24Z</time></trkpt><trkpt lat="44.20627240568637" lon="11.615299980128007"><ele>229.39999999999998</ele><time>2026-04-12T09:48:25Z</time></trkpt><trkpt lat="44.20622527661204" lon="11.615241124985697"><ele>230.60000000000002</ele><time>2026-04-12T09:48:26Z</time></trkpt><trkpt lat="44.20613310274734" lon="11.615128407976464"><ele>231.8</ele><time>2026-04-12T09:48:28Z</time></trkpt><trkpt lat="44.206040941296656" lon="11.615006473732839"><ele>233.0</ele><time>2026-04-12T09:48:30Z</time></trkpt><trkpt lat="44.2059558762528" lon="11.614888289936774"><ele>233.0</ele><time>2026-04-12T09:48:32Z</time></trkpt><trkpt lat="44.20587001672066" lon="11.614767130884971"><ele>233.0</ele><time>2026-04-12T09:48:34Z</time></trkpt><trkpt lat="44.205779677793515" lon="11.614645115995094"><ele>233.0</ele><time>2026-04-12T09:48:36Z</time></trkpt><trkpt lat="44.20569332007962" lon="11.614524068778106"><ele>233.0</ele><time>2026-04-12T09:48:38Z</time></trkpt><trkpt lat="44.205645075763385" lon="11.614467080207648"><ele>233.0</ele><time>2026-04-12T09:48:39Z</time></trkpt><trkpt lat="44.20555872965218" lon="11.614348907601526"><ele>233.50000000000003</ele><time>2026-04-12T09:48:41Z</time></trkpt><trkpt lat="44.2055134298558" lon="11.614285422743968"><ele>234.0</ele><time>2026-04-12T09:48:42Z</time></trkpt><trkpt lat="44.20542241777584" lon="11.614164017213039"><ele>234.5</ele><time>2026-04-12T09:48:44Z</time></trkpt><trkpt lat="44.205374632358826" lon="11.614101027828433"><ele>235.0</ele><time>2026-04-12T09:48:45Z</time></trkpt><trkpt lat="44.20532819315229" lon="11.6140408721554"><ele>235.50000000000003</ele><time>2026-04-12T09:48:46Z</time></trkpt><trkpt lat="44.20523783914406" lon="11.613916605014259"><ele>236.0</ele><time>2026-04-12T09:48:48Z</time></trkpt><trkpt lat="44.20519128247152" lon="11.613853998575298"><ele>236.0</ele><time>2026-04-12T09:48:49Z</time></trkpt><trkpt lat="44.20514414551518" lon="11.613791647590002"><ele>236.0</ele><time>2026-04-12T09:48:50Z</time></trkpt><trkpt lat="44.205097855606304" lon="11.613731664621755"><ele>236.0</ele><time>2026-04-12T09:48:51Z</time></trkpt><trkpt lat="44.20505221548443" lon="11.61367002495839"><ele>236.0</ele><time>2026-04-12T09:48:52Z</time></trkpt><trkpt lat="44.205004880840264" lon="11.613609250316511"><ele>236.0</ele><time>2026-04-12T09:48:53Z</time></trkpt><trkpt lat="44.204958390112196" lon="11.613548909082798"><ele>236.0</ele><time>2026-04-12T09:48:54Z</time></trkpt><trkpt lat="44.204912103812404" lon="11.61348674600466"><ele>236.0</ele><time>2026-04-12T09:48:55Z</time></trkpt><trkpt lat="44.204865072850254" lon="11.613423568211916"><ele>236.0</ele><time>2026-04-12T09:48:56Z</time></trkpt><trkpt lat="44.204777918274104" lon="11.613297029972921"><ele>238.25</ele><time>2026-04-12T09:48:58Z</time></trkpt><trkpt lat="44.20469827468613" lon="11.613161868585772"><ele>240.5</ele><time>2026-04-12T09:49:00Z</time></trkpt><trkpt lat="44.20462313791796" lon="11.613020408629481"><ele>242.75</ele><time>2026-04-12T09:49:02Z</time></trkpt><trkpt lat="44.2045519086029" lon="11.612876228702843"><ele>245.0</ele><time>2026-04-12T09:49:04Z</time></trkpt><trkpt lat="44.2044890368058" lon="11.612733077619932"><ele>245.0</ele><time>2026-04-12T09:49:06Z</time></trkpt><trkpt lat="44.2044317860722" lon="11.612586045413927"><ele>245.0</ele><time>2026-04-12T09:49:08Z</time></trkpt><trkpt lat="44.20437598578622" lon="11.612432099583772"><ele>245.0</ele><time>2026-04-12T09:49:10Z</time></trkpt><trkpt lat="44.20431657128433" lon="11.612286152830292"><ele>245.0</ele><time>2026-04-12T09:49:12Z</time></trkpt><trkpt lat="44.2042583785506" lon="11.612144872934689"><ele>245.0</ele><time>2026-04-12T09:49:14Z</time></trkpt><trkpt lat="44.20420051769317" lon="11.611998165667405"><ele>245.0</ele><time>2026-04-12T09:49:16Z</time></trkpt><trkpt lat="44.20416923826952" lon="11.611918806938348"><ele>245.0</ele><time>2026-04-12T09:49:17Z</time></trkpt><trkpt lat="44.204114262120925" lon="11.611778364899122"><ele>245.0</ele><time>2026-04-12T09:49:19Z</time></trkpt><trkpt lat="44.204049626935586" lon="11.61163519828177"><ele>245.0</ele><time>2026-04-12T09:49:21Z</time></trkpt><trkpt lat="44.204015161598356" lon="11.611558168054737"><ele>245.2</ele><time>2026-04-12T09:49:22Z</time></trkpt><trkpt lat="44.2039492181376" lon="11.611413848204633"><ele>245.4</ele><time>2026-04-12T09:49:24Z</time></trkpt><trkpt lat="44.2038869002798" lon="11.611271263077322"><ele>245.60000000000002</ele><time>2026-04-12T09:49:26Z</time></trkpt><trkpt lat="44.20385258554835" lon="11.611195904398054"><ele>245.8</ele><time>2026-04-12T09:49:27Z</time></trkpt><trkpt lat="44.203791730339084" lon="11.611045724412188"><ele>246.0</ele><time>2026-04-12T09:49:29Z</time></trkpt><trkpt lat="44.20375685601828" lon="11.610967234973817"><ele>246.0</ele><time>2026-04-12T09:49:30Z</time></trkpt><trkpt lat="44.20369135845631" lon="11.610820728409012"><ele>246.00000000000003</ele><time>2026-04-12T09:49:32Z</time></trkpt><trkpt lat="44.203625166855" lon="11.610672573204377"><ele>246.00000000000003</ele><time>2026-04-12T09:49:34Z</time></trkpt><trkpt lat="44.20359106461733" lon="11.610596721740578"><ele>246.0</ele><time>2026-04-12T09:49:35Z</time></trkpt><trkpt lat="44.20352398463724" lon="11.610448666573452"><ele>246.0</ele><time>2026-04-12T09:49:37Z</time></trkpt><trkpt lat="44.20346049288668" lon="11.610304169578257"><ele>245.25</ele><time>2026-04-12T09:49:39Z</time></trkpt><trkpt lat="44.20338386728237" lon="11.610174435441298"><ele>244.5</ele><time>2026-04-12T09:49:41Z</time></trkpt><trkpt lat="44.20329877365489" lon="11.610050633067416"><ele>243.75</ele><time>2026-04-12T09:49:43Z</time></trkpt><trkpt lat="44.203210360593765" lon="11.609929568689322"><ele>243.0</ele><time>2026-04-12T09:49:45Z</time></trkpt><trkpt lat="44.203122060070754" lon="11.609812667438455"><ele>244.0</ele><time>2026-04-12T09:49:47Z</time></trkpt><trkpt lat="44.20303751787086" lon="11.609695314714541"><ele>245.0</ele><time>2026-04-12T09:49:49Z</time></trkpt><trkpt lat="44.20295164040187" lon="11.609574945222821"><ele>246.0</ele><time>2026-04-12T09:49:51Z</time></trkpt><trkpt lat="44.20290479755567" lon="11.609514140166523"><ele>247.0</ele><time>2026-04-12T09:49:52Z</time></trkpt><trkpt lat="44.20281732516" lon="11.6093924131596"><ele>248.0</ele><time>2026-04-12T09:49:54Z</time></trkpt><trkpt lat="44.20273116153671" lon="11.609271482114643"><ele>248.0</ele><time>2026-04-12T09:49:56Z</time></trkpt><trkpt lat="44.20264509479634" lon="11.609149452247282"><ele>248.0</ele><time>2026-04-12T09:49:58Z</time></trkpt><trkpt lat="44.2025575224983" lon="11.60903044484884"><ele>248.0</ele><time>2026-04-12T09:50:00Z</time></trkpt><trkpt lat="44.20251280462587" lon="11.608967327991914"><ele>248.0</ele><time>2026-04-12T09:50:01Z</time></trkpt><trkpt lat="44.20242787657472" lon="11.608842429529341"><ele>248.0</ele><time>2026-04-12T09:50:03Z</time></trkpt><trkpt lat="44.20238256079144" lon="11.608780067598046"><ele>248.0</ele><time>2026-04-12T09:50:04Z</time></trkpt><trkpt lat="44.202338214564634" lon="11.608716687038296"><ele>248.00000000000003</ele><time>2026-04-12T09:50:05Z</time></trkpt><trkpt lat="44.20224694867771" lon="11.608593432538182"><ele>248.0</ele><time>2026-04-12T09:50:07Z</time></trkpt><trkpt lat="44.20220237602472" lon="11.608530639340447"><ele>248.0</ele><time>2026-04-12T09:50:08Z</time></trkpt><trkpt lat="44.2021588085224" lon="11.60846701842141"><ele>248.00000000000003</ele><time>2026-04-12T09:50:09Z</time></trkpt><trkpt lat="44.20211525001128" lon="11.60840359685679"><ele>248.0</ele><time>2026-04-12T09:50:10Z</time></trkpt><trkpt lat="44.20206944454422" lon="11.608339375816781"><ele>248.0</ele><time>2026-04-12T09:50:11Z</time></trkpt><trkpt lat="44.20202470596085" lon="11.608275752577017"><ele>248.14285714285717</ele><time>2026-04-12T09:50:12Z</time></trkpt><trkpt lat="44.2019793274014" lon="11.608213425350579"><ele>248.2857142857143</ele><time>2026-04-12T09:50:13Z</time></trkpt><trkpt lat="44.201933438817214" lon="11.608152155255718"><ele>248.42857142857144</ele><time>2026-04-12T09:50:14Z</time></trkpt><trkpt lat="44.20188633148087" lon="11.608088349397828"><ele>248.57142857142856</ele><time>2026-04-12T09:50:15Z</time></trkpt><trkpt lat="44.20184194451579" lon="11.60802165747256"><ele>248.7142857142857</ele><time>2026-04-12T09:50:16Z</time></trkpt><trkpt lat="44.20179507735605" lon="11.607954681577125"><ele>248.85714285714283</ele><time>2026-04-12T09:50:17Z</time></trkpt><trkpt lat="44.20174593750404" lon="11.607890755305117"><ele>249.0</ele><time>2026-04-12T09:50:18Z</time></trkpt><trkpt lat="44.20169848455133" lon="11.607826045649816"><ele>249.0</ele><time>2026-04-12T09:50:19Z</time></trkpt><trkpt lat="44.20165273643821" lon="11.60776328334387"><ele>248.99999999999997</ele><time>2026-04-12T09:50:20Z</time></trkpt><trkpt lat="44.201608643247496" lon="11.607696497583492"><ele>249.0</ele><time>2026-04-12T09:50:21.001Z</time></trkpt><trkpt lat="44.20156264669161" lon="11.60763442843984"><ele>249.0</ele><time>2026-04-12T09:50:22.001Z</time></trkpt><trkpt lat="44.20151804639565" lon="11.607570958142919"><ele>248.99999999999997</ele><time>2026-04-12T09:50:23.001Z</time></trkpt><trkpt lat="44.20147376899725" lon="11.607508440012472"><ele>249.0</ele><time>2026-04-12T09:50:24Z</time></trkpt><trkpt lat="44.201425372840006" lon="11.607444054750758"><ele>249.0</ele><time>2026-04-12T09:50:25Z</time></trkpt><trkpt lat="44.201378070561" lon="11.607381131396323"><ele>249.57142857142856</ele><time>2026-04-12T09:50:26Z</time></trkpt><trkpt lat="44.20133115579532" lon="11.60731805388792"><ele>250.1428571428571</ele><time>2026-04-12T09:50:27Z</time></trkpt><trkpt lat="44.201286708070185" lon="11.607252152467753"><ele>250.71428571428572</ele><time>2026-04-12T09:50:28Z</time></trkpt><trkpt lat="44.201242206977426" lon="11.60718842650152"><ele>251.28571428571428</ele><time>2026-04-12T09:50:29Z</time></trkpt><trkpt lat="44.20119516193504" lon="11.60712708841329"><ele>251.85714285714286</ele><time>2026-04-12T09:50:30Z</time></trkpt><trkpt lat="44.20114771092457" lon="11.607063334086696"><ele>252.42857142857144</ele><time>2026-04-12T09:50:31Z</time></trkpt><trkpt lat="44.201102060287816" lon="11.606996732493455"><ele>253.00000000000003</ele><time>2026-04-12T09:50:32Z</time></trkpt><trkpt lat="44.2010565268747" lon="11.606926240524771"><ele>253.00000000000003</ele><time>2026-04-12T09:50:33Z</time></trkpt><trkpt lat="44.2010105915127" lon="11.606854471655016"><ele>253.0</ele><time>2026-04-12T09:50:34Z</time></trkpt><trkpt lat="44.200966648484204" lon="11.606778050489634"><ele>253.00000000000003</ele><time>2026-04-12T09:50:35Z</time></trkpt><trkpt lat="44.20092094052413" lon="11.606699594249946"><ele>253.00000000000003</ele><time>2026-04-12T09:50:36Z</time></trkpt><trkpt lat="44.20088190990321" lon="11.606617172340044"><ele>253.0</ele><time>2026-04-12T09:50:37Z</time></trkpt><trkpt lat="44.200845082711794" lon="11.606527162513192"><ele>253.00000000000003</ele><time>2026-04-12T09:50:38Z</time></trkpt><trkpt lat="44.200811417888744" lon="11.606432829549837"><ele>253.00000000000003</ele><time>2026-04-12T09:50:39Z</time></trkpt><trkpt lat="44.20077845868577" lon="11.606331154664504"><ele>252.99999999999997</ele><time>2026-04-12T09:50:40Z</time></trkpt><trkpt lat="44.20075263942823" lon="11.60622445318774"><ele>253.0</ele><time>2026-04-12T09:50:41Z</time></trkpt><trkpt lat="44.2007271249162" lon="11.60611604197282"><ele>253.0</ele><time>2026-04-12T09:50:42Z</time></trkpt><trkpt lat="44.200697435723676" lon="11.606005710169546"><ele>253.0</ele><time>2026-04-12T09:50:43Z</time></trkpt><trkpt lat="44.2006630106284" lon="11.605894261972608"><ele>252.99999999999997</ele><time>2026-04-12T09:50:44Z</time></trkpt><trkpt lat="44.200625508183336" lon="11.6057701171821"><ele>253.0</ele><time>2026-04-12T09:50:45Z</time></trkpt><trkpt lat="44.20058951471658" lon="11.605653866673164"><ele>252.8</ele><time>2026-04-12T09:50:46Z</time></trkpt><trkpt lat="44.20056028387121" lon="11.60553282068985"><ele>252.60000000000002</ele><time>2026-04-12T09:50:47Z</time></trkpt><trkpt lat="44.200525130190904" lon="11.60540785341506"><ele>252.39999999999998</ele><time>2026-04-12T09:50:48Z</time></trkpt><trkpt lat="44.20048914334192" lon="11.605281420078487"><ele>252.2</ele><time>2026-04-12T09:50:49Z</time></trkpt><trkpt lat="44.200452859268516" lon="11.605165192408544"><ele>252.0</ele><time>2026-04-12T09:50:50Z</time></trkpt><trkpt lat="44.20042026926648" lon="11.605045372804174"><ele>252.0</ele><time>2026-04-12T09:50:51Z</time></trkpt><trkpt lat="44.20038772550207" lon="11.604921183265432"><ele>252.0</ele><time>2026-04-12T09:50:52Z</time></trkpt><trkpt lat="44.200355430851296" lon="11.604811780567447"><ele>252.0</ele><time>2026-04-12T09:50:53Z</time></trkpt><trkpt lat="44.20032159033259" lon="11.604694249708151"><ele>252.0</ele><time>2026-04-12T09:50:54Z</time></trkpt><trkpt lat="44.2002863288979" lon="11.604580604057901"><ele>252.0</ele><time>2026-04-12T09:50:55Z</time></trkpt><trkpt lat="44.20025521341101" lon="11.60446318299042"><ele>252.0</ele><time>2026-04-12T09:50:56Z</time></trkpt><trkpt lat="44.200223751760674" lon="11.604354548973308"><ele>250.5</ele><time>2026-04-12T09:50:57Z</time></trkpt><trkpt lat="44.200185558938834" lon="11.604242699053023"><ele>249.0</ele><time>2026-04-12T09:50:58Z</time></trkpt><trkpt lat="44.20014209461964" lon="11.604138903161607"><ele>247.5</ele><time>2026-04-12T09:50:59Z</time></trkpt><trkpt lat="44.20009453736478" lon="11.604040412840986"><ele>246.0</ele><time>2026-04-12T09:51:00Z</time></trkpt><trkpt lat="44.20004361481446" lon="11.603943129188483"><ele>244.5</ele><time>2026-04-12T09:51:01Z</time></trkpt><trkpt lat="44.19999157152207" lon="11.603845162654556"><ele>243.0</ele><time>2026-04-12T09:51:02Z</time></trkpt><trkpt lat="44.19993907086902" lon="11.603751674060232"><ele>242.5</ele><time>2026-04-12T09:51:03Z</time></trkpt><trkpt lat="44.19988200828065" lon="11.60365593140119"><ele>242.0</ele><time>2026-04-12T09:51:04Z</time></trkpt><trkpt lat="44.199822703808664" lon="11.603567197898954"><ele>241.5</ele><time>2026-04-12T09:51:05Z</time></trkpt><trkpt lat="44.19976048230708" lon="11.60347802031301"><ele>241.0</ele><time>2026-04-12T09:51:06Z</time></trkpt><trkpt lat="44.19969388269816" lon="11.60340115534256"><ele>240.5</ele><time>2026-04-12T09:51:07Z</time></trkpt><trkpt lat="44.19962437669033" lon="11.603326541513418"><ele>240.0</ele><time>2026-04-12T09:51:08Z</time></trkpt><trkpt lat="44.199555518053295" lon="11.603249869477056"><ele>240.16666666666666</ele><time>2026-04-12T09:51:09Z</time></trkpt><trkpt lat="44.19948415937304" lon="11.60317853717801"><ele>240.33333333333331</ele><time>2026-04-12T09:51:10Z</time></trkpt><trkpt lat="44.19941686928939" lon="11.603105302963495"><ele>240.5</ele><time>2026-04-12T09:51:11Z</time></trkpt><trkpt lat="44.19934700280476" lon="11.603031367526773"><ele>240.66666666666666</ele><time>2026-04-12T09:51:12Z</time></trkpt><trkpt lat="44.19927665502943" lon="11.602961415139168"><ele>240.83333333333331</ele><time>2026-04-12T09:51:13Z</time></trkpt><trkpt lat="44.199207126675724" lon="11.602894285814603"><ele>241.0</ele><time>2026-04-12T09:51:14Z</time></trkpt><trkpt lat="44.19913897880119" lon="11.60282496435401"><ele>240.99999999999997</ele><time>2026-04-12T09:51:15Z</time></trkpt><trkpt lat="44.199071691041645" lon="11.602753953927508"><ele>241.0</ele><time>2026-04-12T09:51:16Z</time></trkpt><trkpt lat="44.199005189915034" lon="11.602688177575669"><ele>241.0</ele><time>2026-04-12T09:51:17Z</time></trkpt><trkpt lat="44.198936708164936" lon="11.602621429456123"><ele>241.0</ele><time>2026-04-12T09:51:18Z</time></trkpt><trkpt lat="44.19886740172093" lon="11.602552542483862"><ele>240.99999999999997</ele><time>2026-04-12T09:51:19Z</time></trkpt><trkpt lat="44.19879888081655" lon="11.602485359329643"><ele>241.0</ele><time>2026-04-12T09:51:20Z</time></trkpt><trkpt lat="44.198728176528896" lon="11.602422585965202"><ele>241.49999999999997</ele><time>2026-04-12T09:51:21Z</time></trkpt><trkpt lat="44.19865524845482" lon="11.60236409291705"><ele>242.0</ele><time>2026-04-12T09:51:22Z</time></trkpt><trkpt lat="44.198579591245135" lon="11.602313645384307"><ele>242.5</ele><time>2026-04-12T09:51:23Z</time></trkpt><trkpt lat="44.19850238555949" lon="11.602270028637928"><ele>243.0</ele><time>2026-04-12T09:51:24Z</time></trkpt><trkpt lat="44.19842284070787" lon="11.602229132250201"><ele>243.49999999999997</ele><time>2026-04-12T09:51:25Z</time></trkpt><trkpt lat="44.19834042079057" lon="11.602209675884232"><ele>244.0</ele><time>2026-04-12T09:51:26Z</time></trkpt><trkpt lat="44.19825690222523" lon="11.60219716840822"><ele>243.99999999999997</ele><time>2026-04-12T09:51:27Z</time></trkpt><trkpt lat="44.198168707366015" lon="11.60218896290165"><ele>244.0</ele><time>2026-04-12T09:51:28Z</time></trkpt><trkpt lat="44.19808262128352" lon="11.60218565877775"><ele>244.0</ele><time>2026-04-12T09:51:29Z</time></trkpt><trkpt lat="44.19799524051302" lon="11.602183277329992"><ele>244.0</ele><time>2026-04-12T09:51:30Z</time></trkpt><trkpt lat="44.19791039881353" lon="11.602179603303266"><ele>243.99999999999997</ele><time>2026-04-12T09:51:31Z</time></trkpt><trkpt lat="44.197826658963706" lon="11.602178337527972"><ele>244.0</ele><time>2026-04-12T09:51:32Z</time></trkpt><trkpt lat="44.19774111848235" lon="11.602168532369154"><ele>243.49999999999997</ele><time>2026-04-12T09:51:33Z</time></trkpt><trkpt lat="44.197657093172566" lon="11.602167035962598"><ele>243.0</ele><time>2026-04-12T09:51:34Z</time></trkpt><trkpt lat="44.197573751312966" lon="11.602165770702575"><ele>242.5</ele><time>2026-04-12T09:51:35Z</time></trkpt><trkpt lat="44.197492045226376" lon="11.602162821820128"><ele>242.0</ele><time>2026-04-12T09:51:36Z</time></trkpt><trkpt lat="44.19741467155821" lon="11.602157586073362"><ele>241.49999999999997</ele><time>2026-04-12T09:51:37Z</time></trkpt><trkpt lat="44.19733394214851" lon="11.602150577800451"><ele>241.0</ele><time>2026-04-12T09:51:38Z</time></trkpt><trkpt lat="44.197253222852595" lon="11.602143799282368"><ele>240.99999999999997</ele><time>2026-04-12T09:51:39Z</time></trkpt><trkpt lat="44.197171665476006" lon="11.602139155034033"><ele>241.0</ele><time>2026-04-12T09:51:40Z</time></trkpt><trkpt lat="44.1970898255621" lon="11.602138127229054"><ele>241.0</ele><time>2026-04-12T09:51:41Z</time></trkpt><trkpt lat="44.19700655602548" lon="11.602131721429146"><ele>241.0</ele><time>2026-04-12T09:51:42Z</time></trkpt><trkpt lat="44.196926321670745" lon="11.602125226335481"><ele>240.99999999999997</ele><time>2026-04-12T09:51:43Z</time></trkpt><trkpt lat="44.19684729630545" lon="11.602121368500711"><ele>241.0</ele><time>2026-04-12T09:51:44Z</time></trkpt><trkpt lat="44.1967726412621" lon="11.602117169549466"><ele>241.0</ele><time>2026-04-12T09:51:45Z</time></trkpt><trkpt lat="44.19669268522957" lon="11.6021105481854"><ele>241.00000000000003</ele><time>2026-04-12T09:51:46Z</time></trkpt><trkpt lat="44.19662155441692" lon="11.602097735496447"><ele>241.0</ele><time>2026-04-12T09:51:47Z</time></trkpt><trkpt lat="44.196547994672585" lon="11.60209086182531"><ele>241.0</ele><time>2026-04-12T09:51:48Z</time></trkpt><trkpt lat="44.196477957825316" lon="11.602080588820625"><ele>241.00000000000003</ele><time>2026-04-12T09:51:49Z</time></trkpt><trkpt lat="44.196403915456635" lon="11.602069116949009"><ele>241.0</ele><time>2026-04-12T09:51:50Z</time></trkpt><trkpt lat="44.19632997777894" lon="11.602055097170828"><ele>241.0</ele><time>2026-04-12T09:51:51Z</time></trkpt><trkpt lat="44.196263524048305" lon="11.602032582998456"><ele>243.0</ele><time>2026-04-12T09:51:52Z</time></trkpt><trkpt lat="44.19614225910578" lon="11.601977373974186"><ele>245.0</ele><time>2026-04-12T09:51:54Z</time></trkpt><trkpt lat="44.196023513882345" lon="11.601920935632252"><ele>247.0</ele><time>2026-04-12T09:51:56Z</time></trkpt><trkpt lat="44.195909158782264" lon="11.601866666008956"><ele>249.0</ele><time>2026-04-12T09:51:58Z</time></trkpt><trkpt lat="44.19579561172493" lon="11.601817449669216"><ele>249.0</ele><time>2026-04-12T09:52:00Z</time></trkpt><trkpt lat="44.195684189929764" lon="11.60176016341768"><ele>249.0</ele><time>2026-04-12T09:52:02Z</time></trkpt><trkpt lat="44.195573932996595" lon="11.601710049313716"><ele>249.0</ele><time>2026-04-12T09:52:04Z</time></trkpt><trkpt lat="44.195466017667606" lon="11.601659368372342"><ele>249.0</ele><time>2026-04-12T09:52:06Z</time></trkpt><trkpt lat="44.19535773617752" lon="11.601607531119104"><ele>250.0</ele><time>2026-04-12T09:52:08Z</time></trkpt><trkpt lat="44.19524766785177" lon="11.601559309917826"><ele>251.0</ele><time>2026-04-12T09:52:10Z</time></trkpt><trkpt lat="44.19513900368568" lon="11.601509130028763"><ele>252.0</ele><time>2026-04-12T09:52:12Z</time></trkpt><trkpt lat="44.19503045437389" lon="11.60145805652763"><ele>253.0</ele><time>2026-04-12T09:52:14Z</time></trkpt><trkpt lat="44.1949231311316" lon="11.601408407826078"><ele>253.75</ele><time>2026-04-12T09:52:16Z</time></trkpt><trkpt lat="44.194812736750585" lon="11.601389695206468"><ele>254.5</ele><time>2026-04-12T09:52:18Z</time></trkpt><trkpt lat="44.19469950520142" lon="11.601396954725217"><ele>255.25</ele><time>2026-04-12T09:52:20Z</time></trkpt><trkpt lat="44.19458432878613" lon="11.601421799291137"><ele>256.0</ele><time>2026-04-12T09:52:22Z</time></trkpt><trkpt lat="44.19447460137003" lon="11.601458505284686"><ele>256.0</ele><time>2026-04-12T09:52:24Z</time></trkpt><trkpt lat="44.1943612598142" lon="11.601497527470226"><ele>256.0</ele><time>2026-04-12T09:52:26Z</time></trkpt><trkpt lat="44.194251119761944" lon="11.601540168143272"><ele>256.0</ele><time>2026-04-12T09:52:28.001Z</time></trkpt><trkpt lat="44.19414101273195" lon="11.601576643425798"><ele>256.0</ele><time>2026-04-12T09:52:30.001Z</time></trkpt><trkpt lat="44.19403126720927" lon="11.601624182392937"><ele>257.2</ele><time>2026-04-12T09:52:32.001Z</time></trkpt><trkpt lat="44.19392853030515" lon="11.60166433340124"><ele>258.40000000000003</ele><time>2026-04-12T09:52:34.001Z</time></trkpt><trkpt lat="44.19381581890093" lon="11.601699463464863"><ele>259.6</ele><time>2026-04-12T09:52:36.001Z</time></trkpt><trkpt lat="44.193708475039244" lon="11.601670739064199"><ele>260.8</ele><time>2026-04-12T09:52:38.001Z</time></trkpt><trkpt lat="44.19367274976631" lon="11.601589014214763"><ele>262.0</ele><time>2026-04-12T09:52:39.001Z</time></trkpt><trkpt lat="44.1935742191102" lon="11.601550546655062"><ele>262.0</ele><time>2026-04-12T09:52:41.001Z</time></trkpt><trkpt lat="44.1934713246713" lon="11.601548522311685"><ele>262.0</ele><time>2026-04-12T09:52:43.001Z</time></trkpt><trkpt lat="44.193374080190715" lon="11.601558421894655"><ele>262.0</ele><time>2026-04-12T09:52:45Z</time></trkpt><trkpt lat="44.19327375597753" lon="11.601579103797727"><ele>262.0</ele><time>2026-04-12T09:52:47Z</time></trkpt><trkpt lat="44.1931660711222" lon="11.601600792574715"><ele>262.0</ele><time>2026-04-12T09:52:49Z</time></trkpt><trkpt lat="44.193048158166775" lon="11.601618684985842"><ele>262.25</ele><time>2026-04-12T09:52:51Z</time></trkpt><trkpt lat="44.192932467250074" lon="11.601640215605443"><ele>262.5</ele><time>2026-04-12T09:52:53Z</time></trkpt><trkpt lat="44.192816936212935" lon="11.601669119158347"><ele>262.75</ele><time>2026-04-12T09:52:55Z</time></trkpt><trkpt lat="44.19270079987539" lon="11.601694256952904"><ele>263.0</ele><time>2026-04-12T09:52:57Z</time></trkpt><trkpt lat="44.19258335932121" lon="11.601715208766297"><ele>263.0</ele><time>2026-04-12T09:52:59Z</time></trkpt><trkpt lat="44.19246443499116" lon="11.60173228729273"><ele>263.0</ele><time>2026-04-12T09:53:01Z</time></trkpt><trkpt lat="44.192343878367865" lon="11.601752175334394"><ele>263.0</ele><time>2026-04-12T09:53:03Z</time></trkpt><trkpt lat="44.19222931349301" lon="11.6017719624117"><ele>263.0</ele><time>2026-04-12T09:53:05Z</time></trkpt><trkpt lat="44.19211096365726" lon="11.601792549296311"><ele>263.75</ele><time>2026-04-12T09:53:07Z</time></trkpt><trkpt lat="44.19199108777992" lon="11.601809820003337"><ele>264.5</ele><time>2026-04-12T09:53:09Z</time></trkpt><trkpt lat="44.19186949098213" lon="11.60182289506252"><ele>265.25</ele><time>2026-04-12T09:53:11Z</time></trkpt><trkpt lat="44.1917505024793" lon="11.601851201212288"><ele>266.0</ele><time>2026-04-12T09:53:13Z</time></trkpt><trkpt lat="44.19163104651086" lon="11.601879004720239"><ele>266.0</ele><time>2026-04-12T09:53:15Z</time></trkpt><trkpt lat="44.1915140375219" lon="11.60189964347285"><ele>266.0</ele><time>2026-04-12T09:53:17Z</time></trkpt><trkpt lat="44.19139845081683" lon="11.60191647263625"><ele>266.0</ele><time>2026-04-12T09:53:19Z</time></trkpt><trkpt lat="44.191289859515415" lon="11.601891813583292"><ele>266.0</ele><time>2026-04-12T09:53:21Z</time></trkpt><trkpt lat="44.19118702066636" lon="11.601848162731985"><ele>263.6</ele><time>2026-04-12T09:53:23Z</time></trkpt><trkpt lat="44.19108085171328" lon="11.601796013149498"><ele>261.20000000000005</ele><time>2026-04-12T09:53:25Z</time></trkpt><trkpt lat="44.190976238651025" lon="11.601711963181872"><ele>258.79999999999995</ele><time>2026-04-12T09:53:27Z</time></trkpt><trkpt lat="44.19092088879728" lon="11.601649026688108"><ele>256.4</ele><time>2026-04-12T09:53:28Z</time></trkpt><trkpt lat="44.19086604628912" lon="11.601586120198867"><ele>254.0</ele><time>2026-04-12T09:53:29Z</time></trkpt><trkpt lat="44.19080197136404" lon="11.601525432248813"><ele>254.0</ele><time>2026-04-12T09:53:30Z</time></trkpt><trkpt lat="44.19074819093314" lon="11.601427735798653"><ele>253.99999999999997</ele><time>2026-04-12T09:53:31Z</time></trkpt><trkpt lat="44.190668765989265" lon="11.601361394997484"><ele>253.99999999999997</ele><time>2026-04-12T09:53:32Z</time></trkpt><trkpt lat="44.190587572656334" lon="11.601292562516498"><ele>254.0</ele><time>2026-04-12T09:53:33Z</time></trkpt><trkpt lat="44.190510041160984" lon="11.601205668194476"><ele>254.0</ele><time>2026-04-12T09:53:34Z</time></trkpt><trkpt lat="44.190437206925985" lon="11.601098904800535"><ele>252.5</ele><time>2026-04-12T09:53:35Z</time></trkpt><trkpt lat="44.190383098266025" lon="11.600967527330262"><ele>251.0</ele><time>2026-04-12T09:53:36Z</time></trkpt><trkpt lat="44.19032019572641" lon="11.600826325187278"><ele>249.5</ele><time>2026-04-12T09:53:37Z</time></trkpt><trkpt lat="44.19030294104893" lon="11.60065253438856"><ele>248.0</ele><time>2026-04-12T09:53:38Z</time></trkpt><trkpt lat="44.19028855921122" lon="11.600499750579935"><ele>248.0</ele><time>2026-04-12T09:53:39Z</time></trkpt><trkpt lat="44.19025852656327" lon="11.600354419647179"><ele>248.0</ele><time>2026-04-12T09:53:40Z</time></trkpt><trkpt lat="44.19023458235817" lon="11.600212690418752"><ele>248.0</ele><time>2026-04-12T09:53:41Z</time></trkpt><trkpt lat="44.19020469702234" lon="11.600080871709082"><ele>248.0</ele><time>2026-04-12T09:53:42Z</time></trkpt><trkpt lat="44.190134483856475" lon="11.599979319796201"><ele>248.0</ele><time>2026-04-12T09:53:43Z</time></trkpt><trkpt lat="44.190047168542456" lon="11.59992769719217"><ele>248.50000000000003</ele><time>2026-04-12T09:53:44Z</time></trkpt><trkpt lat="44.18998630639097" lon="11.599867716171087"><ele>249.0</ele><time>2026-04-12T09:53:45Z</time></trkpt><trkpt lat="44.189939463614465" lon="11.599804722635861"><ele>249.5</ele><time>2026-04-12T09:53:46Z</time></trkpt><trkpt lat="44.18986433781516" lon="11.5996872768031"><ele>250.0</ele><time>2026-04-12T09:53:48Z</time></trkpt><trkpt lat="44.18980266391228" lon="11.599598651940285"><ele>250.50000000000003</ele><time>2026-04-12T09:53:50Z</time></trkpt><trkpt lat="44.18975670916626" lon="11.59949296861324"><ele>251.0</ele><time>2026-04-12T09:53:52Z</time></trkpt><trkpt lat="44.189725324977296" lon="11.59938601929457"><ele>252.33333333333334</ele><time>2026-04-12T09:53:54Z</time></trkpt><trkpt lat="44.18970510933246" lon="11.599267321818362"><ele>253.66666666666669</ele><time>2026-04-12T09:53:56Z</time></trkpt><trkpt lat="44.18971277897461" lon="11.599162024121446"><ele>255.0</ele><time>2026-04-12T09:53:58Z</time></trkpt><trkpt lat="44.18972492935825" lon="11.599053613325772"><ele>256.3333333333333</ele><time>2026-04-12T09:54:00Z</time></trkpt><trkpt lat="44.189744399081384" lon="11.598936054054759"><ele>257.66666666666663</ele><time>2026-04-12T09:54:02Z</time></trkpt><trkpt lat="44.18975729826989" lon="11.598819088574457"><ele>259.0</ele><time>2026-04-12T09:54:04Z</time></trkpt><trkpt lat="44.18977182326396" lon="11.598705612364155"><ele>260.8333333333333</ele><time>2026-04-12T09:54:06Z</time></trkpt><trkpt lat="44.18977539568164" lon="11.598603101207964"><ele>262.66666666666663</ele><time>2026-04-12T09:54:08Z</time></trkpt><trkpt lat="44.18978849666247" lon="11.598499953622833"><ele>264.5</ele><time>2026-04-12T09:54:10Z</time></trkpt><trkpt lat="44.18980031347696" lon="11.59839451262028"><ele>266.3333333333333</ele><time>2026-04-12T09:54:12Z</time></trkpt><trkpt lat="44.18980353577501" lon="11.598284488202031"><ele>268.1666666666667</ele><time>2026-04-12T09:54:14Z</time></trkpt><trkpt lat="44.18981498759037" lon="11.598170090276259"><ele>270.0</ele><time>2026-04-12T09:54:16Z</time></trkpt><trkpt lat="44.18982953523642" lon="11.598048810046933"><ele>270.0</ele><time>2026-04-12T09:54:18Z</time></trkpt><trkpt lat="44.189837818773256" lon="11.59791557815344"><ele>270.0</ele><time>2026-04-12T09:54:20Z</time></trkpt><trkpt lat="44.18985061801147" lon="11.597765447900866"><ele>270.0</ele><time>2026-04-12T09:54:22Z</time></trkpt><trkpt lat="44.1898804933015" lon="11.597621763882513"><ele>270.0</ele><time>2026-04-12T09:54:24Z</time></trkpt><trkpt lat="44.18992274305122" lon="11.597481751005468"><ele>270.0</ele><time>2026-04-12T09:54:26Z</time></trkpt><trkpt lat="44.18996025620916" lon="11.597340465897263"><ele>269.6</ele><time>2026-04-12T09:54:28Z</time></trkpt><trkpt lat="44.18998727888676" lon="11.597260755542393"><ele>269.2</ele><time>2026-04-12T09:54:29Z</time></trkpt><trkpt lat="44.19003875731484" lon="11.597116159170778"><ele>268.8</ele><time>2026-04-12T09:54:31Z</time></trkpt><trkpt lat="44.19008770988609" lon="11.596959150726946"><ele>268.4</ele><time>2026-04-12T09:54:33.001Z</time></trkpt><trkpt lat="44.190137776263164" lon="11.596810579789592"><ele>268.0</ele><time>2026-04-12T09:54:35.001Z</time></trkpt><trkpt lat="44.19017416592861" lon="11.596736647143624"><ele>268.8333333333333</ele><time>2026-04-12T09:54:36.001Z</time></trkpt><trkpt lat="44.19021790517863" lon="11.59657174632071"><ele>269.66666666666663</ele><time>2026-04-12T09:54:38.001Z</time></trkpt><trkpt lat="44.19022203028991" lon="11.5964826553881"><ele>270.5</ele><time>2026-04-12T09:54:39.001Z</time></trkpt><trkpt lat="44.19025281710542" lon="11.596400435789322"><ele>271.3333333333333</ele><time>2026-04-12T09:54:40.001Z</time></trkpt><trkpt lat="44.19026373707204" lon="11.596309307591666"><ele>272.1666666666667</ele><time>2026-04-12T09:54:41.001Z</time></trkpt><trkpt lat="44.19025658864303" lon="11.596218131657308"><ele>273.0</ele><time>2026-04-12T09:54:42.001Z</time></trkpt><trkpt lat="44.190257883149286" lon="11.596045577971186"><ele>274.6</ele><time>2026-04-12T09:54:44.001Z</time></trkpt><trkpt lat="44.190270301718556" lon="11.595881189761476"><ele>276.20000000000005</ele><time>2026-04-12T09:54:46.001Z</time></trkpt><trkpt lat="44.19026769794937" lon="11.595732834343218"><ele>277.8</ele><time>2026-04-12T09:54:48.001Z</time></trkpt><trkpt lat="44.19025883304057" lon="11.595588728858566"><ele>279.40000000000003</ele><time>2026-04-12T09:54:50.001Z</time></trkpt><trkpt lat="44.190226737107594" lon="11.595467129985964"><ele>281.0</ele><time>2026-04-12T09:54:52.001Z</time></trkpt><trkpt lat="44.19019653182796" lon="11.595354748270495"><ele>281.6666666666667</ele><time>2026-04-12T09:54:54.001Z</time></trkpt><trkpt lat="44.190167725016195" lon="11.595238832291628"><ele>282.33333333333337</ele><time>2026-04-12T09:54:56.001Z</time></trkpt><trkpt lat="44.1901144295903" lon="11.59515044631863"><ele>283.0</ele><time>2026-04-12T09:54:58Z</time></trkpt><trkpt lat="44.19007813539541" lon="11.595036294547157"><ele>283.6666666666667</ele><time>2026-04-12T09:55:00Z</time></trkpt><trkpt lat="44.19003735470774" lon="11.594926406138965"><ele>284.3333333333333</ele><time>2026-04-12T09:55:02Z</time></trkpt><trkpt lat="44.189993054905095" lon="11.594824729384563"><ele>285.0</ele><time>2026-04-12T09:55:04Z</time></trkpt><trkpt lat="44.189945573594095" lon="11.594718197856238"><ele>285.0</ele><time>2026-04-12T09:55:06Z</time></trkpt><trkpt lat="44.1899115259326" lon="11.594618802307428"><ele>285.0</ele><time>2026-04-12T09:55:08Z</time></trkpt><trkpt lat="44.18989193703173" lon="11.59450904737213"><ele>285.0</ele><time>2026-04-12T09:55:10Z</time></trkpt><trkpt lat="44.189890176675036" lon="11.594377639320292"><ele>285.0</ele><time>2026-04-12T09:55:12Z</time></trkpt><trkpt lat="44.18991022076833" lon="11.594253695755045"><ele>285.0</ele><time>2026-04-12T09:55:14Z</time></trkpt><trkpt lat="44.189912569748756" lon="11.594114063143927"><ele>285.0</ele><time>2026-04-12T09:55:16Z</time></trkpt><trkpt lat="44.1899129240753" lon="11.593982011366048"><ele>283.8</ele><time>2026-04-12T09:55:18Z</time></trkpt><trkpt lat="44.18990808342759" lon="11.593840198216347"><ele>282.6</ele><time>2026-04-12T09:55:20Z</time></trkpt><trkpt lat="44.18989038534201" lon="11.593699186323628"><ele>281.4</ele><time>2026-04-12T09:55:22Z</time></trkpt><trkpt lat="44.18986521407554" lon="11.593567790136765"><ele>280.2</ele><time>2026-04-12T09:55:24Z</time></trkpt><trkpt lat="44.1898387771319" lon="11.593415970265868"><ele>279.0</ele><time>2026-04-12T09:55:26Z</time></trkpt><trkpt lat="44.189808864050526" lon="11.593262783627205"><ele>283.59999999999997</ele><time>2026-04-12T09:55:28Z</time></trkpt><trkpt lat="44.18976533459137" lon="11.59312085839498"><ele>288.2</ele><time>2026-04-12T09:55:30Z</time></trkpt><trkpt lat="44.18971100616058" lon="11.592998948807114"><ele>292.79999999999995</ele><time>2026-04-12T09:55:32Z</time></trkpt><trkpt lat="44.1896541992506" lon="11.592872815688622"><ele>297.4</ele><time>2026-04-12T09:55:34Z</time></trkpt><trkpt lat="44.18960080530647" lon="11.592762519455889"><ele>302.0</ele><time>2026-04-12T09:55:36Z</time></trkpt><trkpt lat="44.18955583669587" lon="11.59267176753727"><ele>302.83333333333337</ele><time>2026-04-12T09:55:38Z</time></trkpt><trkpt lat="44.18952702609136" lon="11.592582553199554"><ele>303.6666666666667</ele><time>2026-04-12T09:55:40Z</time></trkpt><trkpt lat="44.18946058947298" lon="11.592484650961815"><ele>304.5</ele><time>2026-04-12T09:55:42Z</time></trkpt><trkpt lat="44.18942561144642" lon="11.59237838217324"><ele>305.3333333333333</ele><time>2026-04-12T09:55:44Z</time></trkpt><trkpt lat="44.189383524046235" lon="11.592259923230776"><ele>306.16666666666663</ele><time>2026-04-12T09:55:46Z</time></trkpt><trkpt lat="44.189361014094565" lon="11.592131730352165"><ele>307.0</ele><time>2026-04-12T09:55:48Z</time></trkpt><trkpt lat="44.18933314201496" lon="11.591973189924762"><ele>307.0</ele><time>2026-04-12T09:55:50Z</time></trkpt><trkpt lat="44.18933078435463" lon="11.591842252849498"><ele>307.0</ele><time>2026-04-12T09:55:52Z</time></trkpt><trkpt lat="44.189335464957296" lon="11.591690107376078"><ele>307.0</ele><time>2026-04-12T09:55:54Z</time></trkpt><trkpt lat="44.18933647277746" lon="11.591547797302406"><ele>307.0</ele><time>2026-04-12T09:55:56Z</time></trkpt><trkpt lat="44.18933674460011" lon="11.591391013792258"><ele>307.0</ele><time>2026-04-12T09:55:58Z</time></trkpt><trkpt lat="44.18932230117508" lon="11.591252442120096"><ele>306.6</ele><time>2026-04-12T09:56:00Z</time></trkpt><trkpt lat="44.18926097622563" lon="11.591118063433099"><ele>306.2</ele><time>2026-04-12T09:56:02Z</time></trkpt><trkpt lat="44.189211595460144" lon="11.591027042111302"><ele>305.8</ele><time>2026-04-12T09:56:04Z</time></trkpt><trkpt lat="44.18917085663775" lon="11.59091489359551"><ele>305.4</ele><time>2026-04-12T09:56:06Z</time></trkpt><trkpt lat="44.18912804791269" lon="11.590779055270495"><ele>305.0</ele><time>2026-04-12T09:56:08Z</time></trkpt><trkpt lat="44.189102082858476" lon="11.59064544520396"><ele>305.0</ele><time>2026-04-12T09:56:10Z</time></trkpt><trkpt lat="44.1890956083148" lon="11.590513257789441"><ele>305.0</ele><time>2026-04-12T09:56:12Z</time></trkpt><trkpt lat="44.18909712646237" lon="11.590381915048933"><ele>305.0</ele><time>2026-04-12T09:56:14Z</time></trkpt><trkpt lat="44.18911643464821" lon="11.590235990919188"><ele>305.0</ele><time>2026-04-12T09:56:16Z</time></trkpt><trkpt lat="44.18915077250778" lon="11.590109414994277"><ele>305.0</ele><time>2026-04-12T09:56:18Z</time></trkpt><trkpt lat="44.18916978685181" lon="11.589985116465353"><ele>307.0</ele><time>2026-04-12T09:56:20Z</time></trkpt><trkpt lat="44.18920922077096" lon="11.589869681198852"><ele>309.0</ele><time>2026-04-12T09:56:22Z</time></trkpt><trkpt lat="44.18924106391576" lon="11.589758035851618"><ele>311.0</ele><time>2026-04-12T09:56:24Z</time></trkpt><trkpt lat="44.189280905595524" lon="11.589656066323526"><ele>313.0</ele><time>2026-04-12T09:56:26Z</time></trkpt><trkpt lat="44.189314405380046" lon="11.589554105661923"><ele>315.0</ele><time>2026-04-12T09:56:28Z</time></trkpt><trkpt lat="44.18933181801987" lon="11.589443052084563"><ele>317.0</ele><time>2026-04-12T09:56:30Z</time></trkpt><trkpt lat="44.189337296599916" lon="11.589319750575243"><ele>318.6666666666667</ele><time>2026-04-12T09:56:32Z</time></trkpt><trkpt lat="44.189333677956014" lon="11.589208699984422"><ele>320.33333333333337</ele><time>2026-04-12T09:56:34Z</time></trkpt><trkpt lat="44.18933105722317" lon="11.589100426761636"><ele>322.0</ele><time>2026-04-12T09:56:36Z</time></trkpt><trkpt lat="44.18932481176654" lon="11.588984058264579"><ele>323.6666666666667</ele><time>2026-04-12T09:56:38Z</time></trkpt><trkpt lat="44.18932577835015" lon="11.588883879638159"><ele>325.3333333333333</ele><time>2026-04-12T09:56:40.001Z</time></trkpt><trkpt lat="44.18933589475496" lon="11.588786838831792"><ele>327.0</ele><time>2026-04-12T09:56:42.001Z</time></trkpt><trkpt lat="44.18932184340183" lon="11.588676210044165"><ele>328.42857142857144</ele><time>2026-04-12T09:56:44.001Z</time></trkpt><trkpt lat="44.18935928958426" lon="11.588575118038932"><ele>329.8571428571429</ele><time>2026-04-12T09:56:46.001Z</time></trkpt><trkpt lat="44.189307140354146" lon="11.588517962257905"><ele>331.28571428571433</ele><time>2026-04-12T09:56:47.001Z</time></trkpt><trkpt lat="44.18929726446917" lon="11.588414782311732"><ele>332.7142857142857</ele><time>2026-04-12T09:56:49.001Z</time></trkpt><trkpt lat="44.18929936664823" lon="11.588318029668615"><ele>334.14285714285717</ele><time>2026-04-12T09:56:51.001Z</time></trkpt><trkpt lat="44.18931798290973" lon="11.588214040920246"><ele>335.5714285714286</ele><time>2026-04-12T09:56:53.001Z</time></trkpt><trkpt lat="44.18935595778394" lon="11.588122835154929"><ele>337.0</ele><time>2026-04-12T09:56:55.001Z</time></trkpt><trkpt lat="44.189383932572674" lon="11.588025723403163"><ele>337.0</ele><time>2026-04-12T09:56:57Z</time></trkpt><trkpt lat="44.18941731351929" lon="11.58792124881246"><ele>337.0</ele><time>2026-04-12T09:56:59Z</time></trkpt><trkpt lat="44.1894531527181" lon="11.587812379602422"><ele>337.0</ele><time>2026-04-12T09:57:01Z</time></trkpt><trkpt lat="44.18945710406503" lon="11.587702945637846"><ele>337.0</ele><time>2026-04-12T09:57:03Z</time></trkpt><trkpt lat="44.18945392642866" lon="11.587594316803253"><ele>337.0</ele><time>2026-04-12T09:57:05Z</time></trkpt><trkpt lat="44.1894600639746" lon="11.587482724562792"><ele>337.0</ele><time>2026-04-12T09:57:07Z</time></trkpt><trkpt lat="44.189440369663544" lon="11.587388292767592"><ele>338.3333333333333</ele><time>2026-04-12T09:57:09Z</time></trkpt><trkpt lat="44.189446947791666" lon="11.587289626465891"><ele>339.66666666666663</ele><time>2026-04-12T09:57:11Z</time></trkpt><trkpt lat="44.18945398757014" lon="11.587191669529043"><ele>341.0</ele><time>2026-04-12T09:57:13Z</time></trkpt><trkpt lat="44.18945551625086" lon="11.587088325855714"><ele>342.3333333333333</ele><time>2026-04-12T09:57:15Z</time></trkpt><trkpt lat="44.189458387086795" lon="11.586983498313593"><ele>343.6666666666667</ele><time>2026-04-12T09:57:17Z</time></trkpt><trkpt lat="44.189469841930865" lon="11.586886483949835"><ele>345.0</ele><time>2026-04-12T09:57:19Z</time></trkpt><trkpt lat="44.189472067094535" lon="11.586751063795155"><ele>347.0</ele><time>2026-04-12T09:57:22Z</time></trkpt><trkpt lat="44.18946542333358" lon="11.586660416551284"><ele>349.0</ele><time>2026-04-12T09:57:24Z</time></trkpt><trkpt lat="44.18945838881801" lon="11.586564649340264"><ele>351.0</ele><time>2026-04-12T09:57:26Z</time></trkpt><trkpt lat="44.189449455535325" lon="11.586440229328378"><ele>353.0</ele><time>2026-04-12T09:57:29Z</time></trkpt><trkpt lat="44.18943089106532" lon="11.58634409117901"><ele>355.0</ele><time>2026-04-12T09:57:31Z</time></trkpt><trkpt lat="44.18943863628066" lon="11.586222505803674"><ele>357.0</ele><time>2026-04-12T09:57:33Z</time></trkpt><trkpt lat="44.18943324576154" lon="11.58612510057445"><ele>358.0</ele><time>2026-04-12T09:57:35Z</time></trkpt><trkpt lat="44.18942368593973" lon="11.586020848911206"><ele>359.0</ele><time>2026-04-12T09:57:38Z</time></trkpt><trkpt lat="44.18944383555421" lon="11.585894850157166"><ele>360.0</ele><time>2026-04-12T09:57:41Z</time></trkpt><trkpt lat="44.18941052314126" lon="11.585798522035324"><ele>361.0</ele><time>2026-04-12T09:57:42Z</time></trkpt><trkpt lat="44.189431544146366" lon="11.585689020912078"><ele>362.0</ele><time>2026-04-12T09:57:43Z</time></trkpt><trkpt lat="44.18947529104827" lon="11.585559285077085"><ele>363.0</ele><time>2026-04-12T09:57:45Z</time></trkpt><trkpt lat="44.1895065713712" lon="11.585422775666498"><ele>365.0</ele><time>2026-04-12T09:57:47Z</time></trkpt><trkpt lat="44.18950186558842" lon="11.58526638314064"><ele>367.0</ele><time>2026-04-12T09:57:49Z</time></trkpt><trkpt lat="44.189477953532744" lon="11.585131912736232"><ele>369.0</ele><time>2026-04-12T09:57:51Z</time></trkpt><trkpt lat="44.189478931301245" lon="11.584975881335568"><ele>371.0</ele><time>2026-04-12T09:57:53Z</time></trkpt><trkpt lat="44.18951604984528" lon="11.584832775854574"><ele>373.0</ele><time>2026-04-12T09:57:55Z</time></trkpt><trkpt lat="44.189558891163934" lon="11.584706224158397"><ele>373.0</ele><time>2026-04-12T09:57:57Z</time></trkpt><trkpt lat="44.18960891997105" lon="11.584548328886658"><ele>373.0</ele><time>2026-04-12T09:57:59Z</time></trkpt><trkpt lat="44.18965930699514" lon="11.584402108012801"><ele>373.0</ele><time>2026-04-12T09:58:01Z</time></trkpt><trkpt lat="44.18973387894885" lon="11.584251152618302"><ele>373.0</ele><time>2026-04-12T09:58:03Z</time></trkpt><trkpt lat="44.18976499010451" lon="11.584172827704048"><ele>373.0</ele><time>2026-04-12T09:58:04Z</time></trkpt><trkpt lat="44.18978900556902" lon="11.584090338376651"><ele>374.5</ele><time>2026-04-12T09:58:05Z</time></trkpt><trkpt lat="44.18980005212934" lon="11.584003864712653"><ele>376.0</ele><time>2026-04-12T09:58:06Z</time></trkpt><trkpt lat="44.18981612005722" lon="11.583918923271183"><ele>377.5</ele><time>2026-04-12T09:58:07Z</time></trkpt><trkpt lat="44.18983267721586" lon="11.583755061298513"><ele>379.0</ele><time>2026-04-12T09:58:09Z</time></trkpt><trkpt lat="44.18983566161058" lon="11.583607794448465"><ele>380.5</ele><time>2026-04-12T09:58:11Z</time></trkpt><trkpt lat="44.1898519700116" lon="11.583497356045791"><ele>382.0</ele><time>2026-04-12T09:58:13Z</time></trkpt><trkpt lat="44.18985824281734" lon="11.583363343126242"><ele>382.66666666666663</ele><time>2026-04-12T09:58:15Z</time></trkpt><trkpt lat="44.18986080154152" lon="11.583255041183701"><ele>383.3333333333333</ele><time>2026-04-12T09:58:17Z</time></trkpt><trkpt lat="44.18985381282888" lon="11.583109969868103"><ele>384.0</ele><time>2026-04-12T09:58:19Z</time></trkpt><trkpt lat="44.18983577914505" lon="11.582989143830448"><ele>384.66666666666663</ele><time>2026-04-12T09:58:20.999Z</time></trkpt><trkpt lat="44.18981130371775" lon="11.58287039503481"><ele>385.3333333333333</ele><time>2026-04-12T09:58:22.999Z</time></trkpt><trkpt lat="44.18980383631588" lon="11.582779875399723"><ele>386.0</ele><time>2026-04-12T09:58:24.999Z</time></trkpt><trkpt lat="44.18977632959943" lon="11.582667945893842"><ele>385.99999999999994</ele><time>2026-04-12T09:58:26.999Z</time></trkpt><trkpt lat="44.18976400349826" lon="11.58257663830349"><ele>386.0</ele><time>2026-04-12T09:58:28.999Z</time></trkpt><trkpt lat="44.189741342550576" lon="11.58247917226465"><ele>386.0</ele><time>2026-04-12T09:58:30.999Z</time></trkpt><trkpt lat="44.18971672698363" lon="11.582375610971578"><ele>386.0</ele><time>2026-04-12T09:58:32.999Z</time></trkpt><trkpt lat="44.18968598941348" lon="11.58226560458644"><ele>385.99999999999994</ele><time>2026-04-12T09:58:34.999Z</time></trkpt><trkpt lat="44.18964907670345" lon="11.58215487235168"><ele>386.0</ele><time>2026-04-12T09:58:36.999Z</time></trkpt><trkpt lat="44.1895947280973" lon="11.582052015753359"><ele>382.4</ele><time>2026-04-12T09:58:38.999Z</time></trkpt><trkpt lat="44.189542556748805" lon="11.58194179584713"><ele>378.8</ele><time>2026-04-12T09:58:40.999Z</time></trkpt><trkpt lat="44.18947993115099" lon="11.581844081172468"><ele>375.2</ele><time>2026-04-12T09:58:42.999Z</time></trkpt><trkpt lat="44.189424038973634" lon="11.581735685824864"><ele>371.59999999999997</ele><time>2026-04-12T09:58:45Z</time></trkpt><trkpt lat="44.18935770104316" lon="11.581662809752233"><ele>368.0</ele><time>2026-04-12T09:58:47Z</time></trkpt><trkpt lat="44.18926983922811" lon="11.5815824061109"><ele>368.0</ele><time>2026-04-12T09:58:49Z</time></trkpt><trkpt lat="44.18921481467251" lon="11.581468262691219"><ele>368.0</ele><time>2026-04-12T09:58:51Z</time></trkpt><trkpt lat="44.189149852718565" lon="11.581425180598352"><ele>368.0</ele><time>2026-04-12T09:58:53Z</time></trkpt><trkpt lat="44.189185357696026" lon="11.58119822808507"><ele>368.0</ele><time>2026-04-12T09:58:55Z</time></trkpt><trkpt lat="44.18919748699836" lon="11.58104589111656"><ele>368.0</ele><time>2026-04-12T09:58:57Z</time></trkpt><trkpt lat="44.18924682996425" lon="11.580966932208005"><ele>367.0</ele><time>2026-04-12T09:58:58Z</time></trkpt><trkpt lat="44.18930192760152" lon="11.580826019227825"><ele>366.0</ele><time>2026-04-12T09:59:00Z</time></trkpt><trkpt lat="44.1893447380388" lon="11.580675925334415"><ele>365.0</ele><time>2026-04-12T09:59:02Z</time></trkpt><trkpt lat="44.18933373908509" lon="11.580527997014746"><ele>364.0</ele><time>2026-04-12T09:59:04Z</time></trkpt><trkpt lat="44.18929281471214" lon="11.58039064561266"><ele>363.0</ele><time>2026-04-12T09:59:06Z</time></trkpt><trkpt lat="44.189216925749825" lon="11.580260444433518"><ele>363.0</ele><time>2026-04-12T09:59:08Z</time></trkpt><trkpt lat="44.18916817908647" lon="11.58019325746593"><ele>363.0</ele><time>2026-04-12T09:59:09Z</time></trkpt><trkpt lat="44.18911504285969" lon="11.580134812162239"><ele>363.0</ele><time>2026-04-12T09:59:10Z</time></trkpt><trkpt lat="44.1890112034446" lon="11.580035437137939"><ele>363.0</ele><time>2026-04-12T09:59:12Z</time></trkpt><trkpt lat="44.188906915609444" lon="11.579937329127445"><ele>363.0</ele><time>2026-04-12T09:59:14Z</time></trkpt><trkpt lat="44.188855068261006" lon="11.579883035111093"><ele>365.79999999999995</ele><time>2026-04-12T09:59:15Z</time></trkpt><trkpt lat="44.18880039118517" lon="11.579838505753003"><ele>368.6</ele><time>2026-04-12T09:59:16Z</time></trkpt><trkpt lat="44.18870231398413" lon="11.579730798173406"><ele>371.4</ele><time>2026-04-12T09:59:18Z</time></trkpt><trkpt lat="44.188626037483324" lon="11.579613958317555"><ele>374.20000000000005</ele><time>2026-04-12T09:59:20Z</time></trkpt><trkpt lat="44.188584772858945" lon="11.579457982284843"><ele>377.0</ele><time>2026-04-12T09:59:22Z</time></trkpt><trkpt lat="44.188569455466585" lon="11.579307444402598"><ele>377.0</ele><time>2026-04-12T09:59:24Z</time></trkpt><trkpt lat="44.1885901729276" lon="11.579134052786815"><ele>377.0</ele><time>2026-04-12T09:59:26Z</time></trkpt><trkpt lat="44.188627270158115" lon="11.579059733030041"><ele>377.0</ele><time>2026-04-12T09:59:27Z</time></trkpt><trkpt lat="44.188676779710384" lon="11.579005031356703"><ele>377.0</ele><time>2026-04-12T09:59:28Z</time></trkpt><trkpt lat="44.188794684770066" lon="11.578956979430183"><ele>377.0</ele><time>2026-04-12T09:59:30Z</time></trkpt><trkpt lat="44.18890766277306" lon="11.578974546664597"><ele>377.0</ele><time>2026-04-12T09:59:32Z</time></trkpt><trkpt lat="44.1890024079529" lon="11.57900866626375"><ele>377.0</ele><time>2026-04-12T09:59:34Z</time></trkpt><trkpt lat="44.18909386347844" lon="11.579033453624076"><ele>377.0</ele><time>2026-04-12T09:59:36Z</time></trkpt><trkpt lat="44.18919176295742" lon="11.57904654832745"><ele>377.0</ele><time>2026-04-12T09:59:38Z</time></trkpt><trkpt lat="44.189292901650056" lon="11.579102666571307"><ele>377.0</ele><time>2026-04-12T09:59:40Z</time></trkpt><trkpt lat="44.18939572199584" lon="11.579157872653264"><ele>376.0</ele><time>2026-04-12T09:59:42Z</time></trkpt><trkpt lat="44.18949111837409" lon="11.579217915603842"><ele>375.0</ele><time>2026-04-12T09:59:44Z</time></trkpt><trkpt lat="44.18958130423598" lon="11.579261803008793"><ele>374.0</ele><time>2026-04-12T09:59:46Z</time></trkpt><trkpt lat="44.18967232945378" lon="11.579237608578644"><ele>373.0</ele><time>2026-04-12T09:59:48Z</time></trkpt><trkpt lat="44.1897101131227" lon="11.579161557329243"><ele>372.0</ele><time>2026-04-12T09:59:49Z</time></trkpt><trkpt lat="44.18972178177234" lon="11.579058967377092"><ele>371.0</ele><time>2026-04-12T09:59:50Z</time></trkpt><trkpt lat="44.18970077961382" lon="11.578974444850624"><ele>371.0</ele><time>2026-04-12T09:59:51Z</time></trkpt><trkpt lat="44.189648497726516" lon="11.57884649245124"><ele>371.0</ele><time>2026-04-12T09:59:53Z</time></trkpt><trkpt lat="44.189611832471" lon="11.578715527703865"><ele>371.0</ele><time>2026-04-12T09:59:55Z</time></trkpt><trkpt lat="44.18958321403184" lon="11.578585171158391"><ele>371.0</ele><time>2026-04-12T09:59:57Z</time></trkpt><trkpt lat="44.18955979906146" lon="11.578436830485153"><ele>371.0</ele><time>2026-04-12T09:59:59Z</time></trkpt><trkpt lat="44.18954331392025" lon="11.578266969459671"><ele>374.0</ele><time>2026-04-12T10:00:01Z</time></trkpt><trkpt lat="44.18953797722137" lon="11.578169904144575"><ele>377.0</ele><time>2026-04-12T10:00:02Z</time></trkpt><trkpt lat="44.1895311712197" lon="11.57806927981629"><ele>380.0</ele><time>2026-04-12T10:00:03Z</time></trkpt><trkpt lat="44.18952839151456" lon="11.577961802616484"><ele>383.0</ele><time>2026-04-12T10:00:04Z</time></trkpt><trkpt lat="44.18952682130724" lon="11.577851993745998"><ele>385.99999999999994</ele><time>2026-04-12T10:00:04.999Z</time></trkpt><trkpt lat="44.1895288213407" lon="11.577743401751613"><ele>389.0</ele><time>2026-04-12T10:00:05.999Z</time></trkpt><trkpt lat="44.18952308446245" lon="11.577629147854116"><ele>389.66666666666663</ele><time>2026-04-12T10:00:06.999Z</time></trkpt><trkpt lat="44.18952290404045" lon="11.577507297630879"><ele>390.3333333333333</ele><time>2026-04-12T10:00:07.999Z</time></trkpt><trkpt lat="44.18951534802005" lon="11.57738917353438"><ele>391.0</ele><time>2026-04-12T10:00:08.999Z</time></trkpt><trkpt lat="44.189512328564675" lon="11.577270086289017"><ele>391.66666666666663</ele><time>2026-04-12T10:00:09.999Z</time></trkpt><trkpt lat="44.18951238299409" lon="11.577148219065116"><ele>392.3333333333333</ele><time>2026-04-12T10:00:10.999Z</time></trkpt><trkpt lat="44.189515223669254" lon="11.577025601692675"><ele>393.0</ele><time>2026-04-12T10:00:11.999Z</time></trkpt><trkpt lat="44.1895215620426" lon="11.576904319149937"><ele>393.0</ele><time>2026-04-12T10:00:12.999Z</time></trkpt><trkpt lat="44.189540150107256" lon="11.576784776253362"><ele>393.0</ele><time>2026-04-12T10:00:13.999Z</time></trkpt><trkpt lat="44.18956631541256" lon="11.576673264341256"><ele>393.0</ele><time>2026-04-12T10:00:14.999Z</time></trkpt><trkpt lat="44.18959388974129" lon="11.57656527230353"><ele>393.0</ele><time>2026-04-12T10:00:15.999Z</time></trkpt><trkpt lat="44.189612384269736" lon="11.576454401886757"><ele>393.0</ele><time>2026-04-12T10:00:16.999Z</time></trkpt><trkpt lat="44.18963604175818" lon="11.576353664592958"><ele>393.0</ele><time>2026-04-12T10:00:17.999Z</time></trkpt><trkpt lat="44.18965720152101" lon="11.576262452329505"><ele>395.3333333333333</ele><time>2026-04-12T10:00:18.999Z</time></trkpt><trkpt lat="44.18969818399188" lon="11.576164353707394"><ele>397.66666666666663</ele><time>2026-04-12T10:00:19.999Z</time></trkpt><trkpt lat="44.18973101717212" lon="11.576072336230675"><ele>400.0</ele><time>2026-04-12T10:00:20.999Z</time></trkpt><trkpt lat="44.189765254880356" lon="11.575986710562612"><ele>402.3333333333333</ele><time>2026-04-12T10:00:21.999Z</time></trkpt><trkpt lat="44.18984296491407" lon="11.57583368370809"><ele>404.66666666666663</ele><time>2026-04-12T10:00:23.999Z</time></trkpt><trkpt lat="44.18990272271582" lon="11.575763715853427"><ele>407.0</ele><time>2026-04-12T10:00:24.999Z</time></trkpt><trkpt lat="44.18994652341161" lon="11.575685885541638"><ele>401.42857142857144</ele><time>2026-04-12T10:00:25.999Z</time></trkpt><trkpt lat="44.18999430751805" lon="11.575600346594138"><ele>395.8571428571429</ele><time>2026-04-12T10:00:26.999Z</time></trkpt><trkpt lat="44.19005859078879" lon="11.575531038835683"><ele>390.28571428571433</ele><time>2026-04-12T10:00:27.999Z</time></trkpt><trkpt lat="44.19010785168416" lon="11.575446779258975"><ele>384.7142857142857</ele><time>2026-04-12T10:00:28.999Z</time></trkpt><trkpt lat="44.19016218816568" lon="11.575393103286656"><ele>379.1428571428571</ele><time>2026-04-12T10:00:29.999Z</time></trkpt><trkpt lat="44.19022996428742" lon="11.575360554648086"><ele>373.5714285714286</ele><time>2026-04-12T10:00:30.999Z</time></trkpt><trkpt lat="44.190282462609666" lon="11.57530142804496"><ele>368.0</ele><time>2026-04-12T10:00:31.999Z</time></trkpt><trkpt lat="44.190285974295485" lon="11.575181993825959"><ele>368.0</ele><time>2026-04-12T10:00:32.999Z</time></trkpt><trkpt lat="44.190300425201514" lon="11.575083645167357"><ele>368.0</ele><time>2026-04-12T10:00:33.999Z</time></trkpt><trkpt lat="44.19030586133162" lon="11.574979328652306"><ele>368.0</ele><time>2026-04-12T10:00:34.999Z</time></trkpt><trkpt lat="44.19030236695829" lon="11.574875436808396"><ele>368.0</ele><time>2026-04-12T10:00:35.999Z</time></trkpt><trkpt lat="44.19027387666217" lon="11.574780575522535"><ele>368.0</ele><time>2026-04-12T10:00:36.999Z</time></trkpt><trkpt lat="44.19020691055213" lon="11.57470888284377"><ele>368.0</ele><time>2026-04-12T10:00:37.999Z</time></trkpt><trkpt lat="44.19013248227413" lon="11.57466593752818"><ele>368.0</ele><time>2026-04-12T10:00:38.999Z</time></trkpt><trkpt lat="44.19005730368695" lon="11.574664132443464"><ele>368.0</ele><time>2026-04-12T10:00:39.999Z</time></trkpt><trkpt lat="44.18998371867018" lon="11.574640023201216"><ele>368.0</ele><time>2026-04-12T10:00:40.999Z</time></trkpt><trkpt lat="44.189862197184034" lon="11.574582839310416"><ele>368.0</ele><time>2026-04-12T10:00:42.999Z</time></trkpt><trkpt lat="44.18974132393941" lon="11.574524133333728"><ele>368.0</ele><time>2026-04-12T10:00:44.999Z</time></trkpt><trkpt lat="44.189674031334995" lon="11.574491853833289"><ele>369.1666666666667</ele><time>2026-04-12T10:00:45.999Z</time></trkpt><trkpt lat="44.18960643797807" lon="11.57445586582747"><ele>370.33333333333337</ele><time>2026-04-12T10:00:46.999Z</time></trkpt><trkpt lat="44.189544238245134" lon="11.574427417627675"><ele>371.5</ele><time>2026-04-12T10:00:47.999Z</time></trkpt><trkpt lat="44.18941973566767" lon="11.574336321663997"><ele>372.6666666666667</ele><time>2026-04-12T10:00:49.999Z</time></trkpt><trkpt lat="44.1893562774179" lon="11.57430411084964"><ele>373.8333333333333</ele><time>2026-04-12T10:00:51Z</time></trkpt><trkpt lat="44.18926979344092" lon="11.57427892338221"><ele>375.0</ele><time>2026-04-12T10:00:53Z</time></trkpt><trkpt lat="44.18920326530433" lon="11.574259106046187"><ele>375.0</ele><time>2026-04-12T10:00:54Z</time></trkpt><trkpt lat="44.18914446928333" lon="11.574215201225057"><ele>375.0</ele><time>2026-04-12T10:00:55Z</time></trkpt><trkpt lat="44.18902595403206" lon="11.574150665811484"><ele>375.0</ele><time>2026-04-12T10:00:57Z</time></trkpt><trkpt lat="44.188918471969544" lon="11.574054479742523"><ele>375.0</ele><time>2026-04-12T10:00:59Z</time></trkpt><trkpt lat="44.18886294178789" lon="11.574004192477"><ele>375.0</ele><time>2026-04-12T10:01:00Z</time></trkpt><trkpt lat="44.188753743928785" lon="11.573929190789508"><ele>377.6666666666667</ele><time>2026-04-12T10:01:02Z</time></trkpt><trkpt lat="44.18865025579258" lon="11.573854812695703"><ele>380.33333333333337</ele><time>2026-04-12T10:01:04Z</time></trkpt><trkpt lat="44.18859224979474" lon="11.57380673237217"><ele>383.0</ele><time>2026-04-12T10:01:05Z</time></trkpt><trkpt lat="44.188554905901" lon="11.573734630241857"><ele>385.6666666666667</ele><time>2026-04-12T10:01:06Z</time></trkpt><trkpt lat="44.188566014242234" lon="11.573647311590603"><ele>388.33333333333337</ele><time>2026-04-12T10:01:07Z</time></trkpt><trkpt lat="44.18858003179299" lon="11.573556607283637"><ele>391.0</ele><time>2026-04-12T10:01:08Z</time></trkpt><trkpt lat="44.18869400391366" lon="11.573497029925756"><ele>391.50000000000006</ele><time>2026-04-12T10:01:10Z</time></trkpt><trkpt lat="44.18876115893556" lon="11.573498987594544"><ele>392.0</ele><time>2026-04-12T10:01:11Z</time></trkpt><trkpt lat="44.188815326957055" lon="11.57354553712418"><ele>392.5</ele><time>2026-04-12T10:01:12Z</time></trkpt><trkpt lat="44.18887925666093" lon="11.573547329977911"><ele>393.0</ele><time>2026-04-12T10:01:13Z</time></trkpt><trkpt lat="44.18899326559915" lon="11.573568935353734"><ele>393.50000000000006</ele><time>2026-04-12T10:01:15Z</time></trkpt><trkpt lat="44.18908944618981" lon="11.573581488780414"><ele>394.0</ele><time>2026-04-12T10:01:17Z</time></trkpt><trkpt lat="44.18915393253141" lon="11.573590608536977"><ele>392.79999999999995</ele><time>2026-04-12T10:01:18Z</time></trkpt><trkpt lat="44.18923946007211" lon="11.5735958969774"><ele>391.59999999999997</ele><time>2026-04-12T10:01:19Z</time></trkpt><trkpt lat="44.18934228061837" lon="11.5736048055361"><ele>390.4</ele><time>2026-04-12T10:01:21Z</time></trkpt><trkpt lat="44.18945856148898" lon="11.57364206893678"><ele>389.2</ele><time>2026-04-12T10:01:23Z</time></trkpt><trkpt lat="44.189524265590386" lon="11.57369458508314"><ele>388.0</ele><time>2026-04-12T10:01:24Z</time></trkpt><trkpt lat="44.189639275552125" lon="11.573687955912698"><ele>388.0</ele><time>2026-04-12T10:01:26Z</time></trkpt><trkpt lat="44.18976898552697" lon="11.573679854195959"><ele>388.0</ele><time>2026-04-12T10:01:28Z</time></trkpt><trkpt lat="44.189892197040514" lon="11.573684988920613"><ele>388.0</ele><time>2026-04-12T10:01:30Z</time></trkpt><trkpt lat="44.18999951348991" lon="11.573666691246313"><ele>388.0</ele><time>2026-04-12T10:01:32Z</time></trkpt><trkpt lat="44.19007207142528" lon="11.573518616269087"><ele>387.00000000000006</ele><time>2026-04-12T10:01:34Z</time></trkpt><trkpt lat="44.19007095232267" lon="11.573414362212056"><ele>386.0</ele><time>2026-04-12T10:01:35Z</time></trkpt><trkpt lat="44.190082388066266" lon="11.573309953372815"><ele>385.0</ele><time>2026-04-12T10:01:36Z</time></trkpt><trkpt lat="44.190075767878135" lon="11.573140523764994"><ele>384.0</ele><time>2026-04-12T10:01:38Z</time></trkpt><trkpt lat="44.19005968225924" lon="11.573049174437863"><ele>383.0</ele><time>2026-04-12T10:01:39Z</time></trkpt><trkpt lat="44.190044851078156" lon="11.57294898760767"><ele>382.0</ele><time>2026-04-12T10:01:40Z</time></trkpt><trkpt lat="44.190049454485035" lon="11.572778805875231"><ele>382.0</ele><time>2026-04-12T10:01:42Z</time></trkpt><trkpt lat="44.19005236885186" lon="11.572688215575548"><ele>382.0</ele><time>2026-04-12T10:01:43Z</time></trkpt><trkpt lat="44.190052702988694" lon="11.572598268271271"><ele>382.0</ele><time>2026-04-12T10:01:44Z</time></trkpt><trkpt lat="44.19007518641891" lon="11.57241862993515"><ele>382.0</ele><time>2026-04-12T10:01:46Z</time></trkpt><trkpt lat="44.19007414706394" lon="11.572306053601558"><ele>382.0</ele><time>2026-04-12T10:01:47Z</time></trkpt><trkpt lat="44.19008156500942" lon="11.572215745620577"><ele>382.0</ele><time>2026-04-12T10:01:48Z</time></trkpt><trkpt lat="44.19007824946357" lon="11.57204979153062"><ele>383.0</ele><time>2026-04-12T10:01:50Z</time></trkpt><trkpt lat="44.19007950825801" lon="11.57195896994536"><ele>384.0</ele><time>2026-04-12T10:01:51Z</time></trkpt><trkpt lat="44.19008235336619" lon="11.57187017988134"><ele>385.0</ele><time>2026-04-12T10:01:52Z</time></trkpt><trkpt lat="44.19009083325295" lon="11.571697002633746"><ele>386.0</ele><time>2026-04-12T10:01:54Z</time></trkpt><trkpt lat="44.19009319015425" lon="11.571518915094222"><ele>387.0</ele><time>2026-04-12T10:01:56Z</time></trkpt><trkpt lat="44.19010617179294" lon="11.571364133319937"><ele>387.0</ele><time>2026-04-12T10:01:58Z</time></trkpt><trkpt lat="44.190115430132295" lon="11.57127407406878"><ele>387.0</ele><time>2026-04-12T10:01:59Z</time></trkpt><trkpt lat="44.19014078123319" lon="11.571169025442481"><ele>387.0</ele><time>2026-04-12T10:02:00Z</time></trkpt><trkpt lat="44.190171805204876" lon="11.571064239676257"><ele>387.0</ele><time>2026-04-12T10:02:01Z</time></trkpt><trkpt lat="44.19018444145982" lon="11.570957241728443"><ele>387.0</ele><time>2026-04-12T10:02:01.999Z</time></trkpt><trkpt lat="44.19020429484315" lon="11.57084287567333"><ele>387.0</ele><time>2026-04-12T10:02:02.999Z</time></trkpt><trkpt lat="44.19022070252042" lon="11.570736757627861"><ele>388.42857142857144</ele><time>2026-04-12T10:02:03.999Z</time></trkpt><trkpt lat="44.19022126918245" lon="11.570635797865656"><ele>389.8571428571429</ele><time>2026-04-12T10:02:04.999Z</time></trkpt><trkpt lat="44.190227823229854" lon="11.570535622073674"><ele>391.2857142857143</ele><time>2026-04-12T10:02:05.999Z</time></trkpt><trkpt lat="44.190248377133614" lon="11.570429951744863"><ele>392.7142857142857</ele><time>2026-04-12T10:02:06.999Z</time></trkpt><trkpt lat="44.1902705364731" lon="11.570334178809713"><ele>394.1428571428571</ele><time>2026-04-12T10:02:07.999Z</time></trkpt><trkpt lat="44.190277853869716" lon="11.570232514297441"><ele>395.57142857142856</ele><time>2026-04-12T10:02:08.999Z</time></trkpt><trkpt lat="44.19030533288247" lon="11.570138460201564"><ele>397.0</ele><time>2026-04-12T10:02:09.999Z</time></trkpt><trkpt lat="44.19033511267496" lon="11.570043724042971"><ele>397.57142857142856</ele><time>2026-04-12T10:02:10.999Z</time></trkpt><trkpt lat="44.190393351993364" lon="11.569969028661122"><ele>398.1428571428571</ele><time>2026-04-12T10:02:11.999Z</time></trkpt><trkpt lat="44.190408559087295" lon="11.569879503047511"><ele>398.7142857142857</ele><time>2026-04-12T10:02:12.999Z</time></trkpt><trkpt lat="44.190429697961115" lon="11.569790891432653"><ele>399.2857142857143</ele><time>2026-04-12T10:02:13.999Z</time></trkpt><trkpt lat="44.19046082014046" lon="11.569699652632211"><ele>399.8571428571429</ele><time>2026-04-12T10:02:14.999Z</time></trkpt><trkpt lat="44.190487848298126" lon="11.56960596507046"><ele>400.42857142857144</ele><time>2026-04-12T10:02:15.999Z</time></trkpt><trkpt lat="44.19050655886031" lon="11.56951319428324"><ele>401.0</ele><time>2026-04-12T10:02:16.999Z</time></trkpt><trkpt lat="44.19051647927825" lon="11.569413142810037"><ele>399.7142857142857</ele><time>2026-04-12T10:02:17.999Z</time></trkpt><trkpt lat="44.190518940253135" lon="11.569302083679975"><ele>398.42857142857144</ele><time>2026-04-12T10:02:18.999Z</time></trkpt><trkpt lat="44.190533836677034" lon="11.569207458163419"><ele>397.1428571428571</ele><time>2026-04-12T10:02:19.999Z</time></trkpt><trkpt lat="44.19051351875757" lon="11.569113423716225"><ele>395.8571428571429</ele><time>2026-04-12T10:02:20.999Z</time></trkpt><trkpt lat="44.190496707301364" lon="11.56901036687324"><ele>394.57142857142856</ele><time>2026-04-12T10:02:21.999Z</time></trkpt><trkpt lat="44.19046236629159" lon="11.568918099487348"><ele>393.2857142857143</ele><time>2026-04-12T10:02:22.999Z</time></trkpt><trkpt lat="44.1904113672216" lon="11.568856473657773"><ele>392.0</ele><time>2026-04-12T10:02:23.999Z</time></trkpt><trkpt lat="44.19032909376584" lon="11.568815189991794"><ele>391.99999999999994</ele><time>2026-04-12T10:02:24.999Z</time></trkpt><trkpt lat="44.190250576047504" lon="11.568804309513185"><ele>392.0</ele><time>2026-04-12T10:02:25.999Z</time></trkpt><trkpt lat="44.19017633200389" lon="11.56876437734557"><ele>392.0</ele><time>2026-04-12T10:02:26.999Z</time></trkpt><trkpt lat="44.19007118921775" lon="11.568721514467311"><ele>392.0</ele><time>2026-04-12T10:02:27.999Z</time></trkpt><trkpt lat="44.18998448950888" lon="11.568732150294922"><ele>391.99999999999994</ele><time>2026-04-12T10:02:28.999Z</time></trkpt><trkpt lat="44.18990818471204" lon="11.568727685491577"><ele>392.0</ele><time>2026-04-12T10:02:29.999Z</time></trkpt><trkpt lat="44.18984608633276" lon="11.568712824608452"><ele>391.2857142857143</ele><time>2026-04-12T10:02:30.999Z</time></trkpt><trkpt lat="44.18978265152844" lon="11.568701327636086"><ele>390.57142857142856</ele><time>2026-04-12T10:02:31.999Z</time></trkpt><trkpt lat="44.189711527972726" lon="11.568689759326777"><ele>389.8571428571429</ele><time>2026-04-12T10:02:32.999Z</time></trkpt><trkpt lat="44.18964065007217" lon="11.568687182650834"><ele>389.1428571428571</ele><time>2026-04-12T10:02:33.999Z</time></trkpt><trkpt lat="44.18956348067867" lon="11.568672400680208"><ele>388.42857142857144</ele><time>2026-04-12T10:02:34.999Z</time></trkpt><trkpt lat="44.189496713027516" lon="11.568655645732875"><ele>387.7142857142857</ele><time>2026-04-12T10:02:35.999Z</time></trkpt><trkpt lat="44.18943212266053" lon="11.568636768540536"><ele>387.0</ele><time>2026-04-12T10:02:36.999Z</time></trkpt><trkpt lat="44.18935727870602" lon="11.568636591917947"><ele>387.0</ele><time>2026-04-12T10:02:37.999Z</time></trkpt><trkpt lat="44.189288877267416" lon="11.5686584419342"><ele>387.0</ele><time>2026-04-12T10:02:38.999Z</time></trkpt><trkpt lat="44.189221715430406" lon="11.568660957199956"><ele>387.0</ele><time>2026-04-12T10:02:39.999Z</time></trkpt><trkpt lat="44.18915947427794" lon="11.56868474212291"><ele>387.0</ele><time>2026-04-12T10:02:40.999Z</time></trkpt><trkpt lat="44.189032188274126" lon="11.568675020093423"><ele>387.0</ele><time>2026-04-12T10:02:42.999Z</time></trkpt><trkpt lat="44.18894894628081" lon="11.568650651362386"><ele>387.0</ele><time>2026-04-12T10:02:43.999Z</time></trkpt><trkpt lat="44.18887789552401" lon="11.56861705760523"><ele>389.0</ele><time>2026-04-12T10:02:44.999Z</time></trkpt><trkpt lat="44.18880858257391" lon="11.568577247967452"><ele>391.0</ele><time>2026-04-12T10:02:45.999Z</time></trkpt><trkpt lat="44.18875622809076" lon="11.568518374186338"><ele>393.0</ele><time>2026-04-12T10:02:46.999Z</time></trkpt><trkpt lat="44.18870690257831" lon="11.568431812462272"><ele>395.0</ele><time>2026-04-12T10:02:47.999Z</time></trkpt><trkpt lat="44.18870656209965" lon="11.568338098339504"><ele>397.0</ele><time>2026-04-12T10:02:48.999Z</time></trkpt><trkpt lat="44.18878055202885" lon="11.568216273887076"><ele>399.0</ele><time>2026-04-12T10:02:50.999Z</time></trkpt><trkpt lat="44.188888608875956" lon="11.568202592199368"><ele>399.0</ele><time>2026-04-12T10:02:52.999Z</time></trkpt><trkpt lat="44.18899306143696" lon="11.568160308589032"><ele>399.0</ele><time>2026-04-12T10:02:54.999Z</time></trkpt><trkpt lat="44.18909987120398" lon="11.56812290689975"><ele>399.0</ele><time>2026-04-12T10:02:57Z</time></trkpt><trkpt lat="44.189188628655415" lon="11.56806495104674"><ele>399.0</ele><time>2026-04-12T10:02:59Z</time></trkpt><trkpt lat="44.18929124887295" lon="11.568003590107455"><ele>399.0</ele><time>2026-04-12T10:03:01Z</time></trkpt><trkpt lat="44.189347585038476" lon="11.567954839753858"><ele>399.79999999999995</ele><time>2026-04-12T10:03:02Z</time></trkpt><trkpt lat="44.18945999365792" lon="11.567938814503341"><ele>400.59999999999997</ele><time>2026-04-12T10:03:04Z</time></trkpt><trkpt lat="44.18956808844189" lon="11.567890654813896"><ele>401.4</ele><time>2026-04-12T10:03:06Z</time></trkpt><trkpt lat="44.1896719432246" lon="11.567867299896943"><ele>402.2</ele><time>2026-04-12T10:03:08Z</time></trkpt><trkpt lat="44.1897712591008" lon="11.567857574848686"><ele>403.0</ele><time>2026-04-12T10:03:10Z</time></trkpt><trkpt lat="44.18988723907934" lon="11.567810346191864"><ele>403.0</ele><time>2026-04-12T10:03:12Z</time></trkpt><trkpt lat="44.19000310049459" lon="11.567789805442962"><ele>403.0</ele><time>2026-04-12T10:03:14Z</time></trkpt><trkpt lat="44.1901157424261" lon="11.567800124834948"><ele>403.0</ele><time>2026-04-12T10:03:16Z</time></trkpt><trkpt lat="44.19021290177569" lon="11.567818983353163"><ele>403.0</ele><time>2026-04-12T10:03:18Z</time></trkpt><trkpt lat="44.19031442228391" lon="11.567747969199619"><ele>403.0</ele><time>2026-04-12T10:03:20Z</time></trkpt><trkpt lat="44.190354550993966" lon="11.567588494871902"><ele>403.0</ele><time>2026-04-12T10:03:22Z</time></trkpt><trkpt lat="44.19035882819822" lon="11.567432211977254"><ele>403.0</ele><time>2026-04-12T10:03:24Z</time></trkpt><trkpt lat="44.19037858271751" lon="11.567288528792412"><ele>403.0</ele><time>2026-04-12T10:03:26Z</time></trkpt><trkpt lat="44.19039766712161" lon="11.567131543701702"><ele>403.0</ele><time>2026-04-12T10:03:28Z</time></trkpt><trkpt lat="44.19042563300049" lon="11.56697410784192"><ele>403.0</ele><time>2026-04-12T10:03:30Z</time></trkpt><trkpt lat="44.19045267411059" lon="11.566818553193306"><ele>408.0</ele><time>2026-04-12T10:03:32Z</time></trkpt><trkpt lat="44.19045923925369" lon="11.56665539642333"><ele>413.0</ele><time>2026-04-12T10:03:34Z</time></trkpt><trkpt lat="44.19047252961327" lon="11.566486089143165"><ele>418.0</ele><time>2026-04-12T10:03:36Z</time></trkpt><trkpt lat="44.19047295213877" lon="11.566334043161877"><ele>423.0</ele><time>2026-04-12T10:03:38Z</time></trkpt><trkpt lat="44.19046101906983" lon="11.566186336500213"><ele>423.0</ele><time>2026-04-12T10:03:40Z</time></trkpt><trkpt lat="44.19042819989895" lon="11.566044762812789"><ele>423.0</ele><time>2026-04-12T10:03:42Z</time></trkpt><trkpt lat="44.19038979979486" lon="11.56589641900032"><ele>423.0</ele><time>2026-04-12T10:03:44Z</time></trkpt><trkpt lat="44.19037979427994" lon="11.565749785222545"><ele>423.0</ele><time>2026-04-12T10:03:46Z</time></trkpt><trkpt lat="44.190421324417066" lon="11.56565789619527"><ele>423.0</ele><time>2026-04-12T10:03:47Z</time></trkpt><trkpt lat="44.19046723345025" lon="11.565541071706727"><ele>423.0</ele><time>2026-04-12T10:03:49Z</time></trkpt><trkpt lat="44.19053813966343" lon="11.565429451001414"><ele>423.0</ele><time>2026-04-12T10:03:51Z</time></trkpt><trkpt lat="44.19055274037458" lon="11.565268485600065"><ele>423.0</ele><time>2026-04-12T10:03:53Z</time></trkpt><trkpt lat="44.19056285589513" lon="11.565114281331795"><ele>423.0</ele><time>2026-04-12T10:03:55Z</time></trkpt><trkpt lat="44.190540293290255" lon="11.564949369800095"><ele>423.0</ele><time>2026-04-12T10:03:57Z</time></trkpt><trkpt lat="44.19050192023478" lon="11.564816454851504"><ele>423.0</ele><time>2026-04-12T10:03:59Z</time></trkpt><trkpt lat="44.190424317651186" lon="11.564704340021981"><ele>423.0</ele><time>2026-04-12T10:04:01Z</time></trkpt><trkpt lat="44.19039650337296" lon="11.564610170402089"><ele>423.0</ele><time>2026-04-12T10:04:02Z</time></trkpt><trkpt lat="44.190388439617955" lon="11.564460927258672"><ele>423.0</ele><time>2026-04-12T10:04:03.999Z</time></trkpt><trkpt lat="44.19040237437346" lon="11.564310034069273"><ele>423.0</ele><time>2026-04-12T10:04:05.999Z</time></trkpt><trkpt lat="44.19043561498869" lon="11.564158207611005"><ele>423.0</ele><time>2026-04-12T10:04:07.999Z</time></trkpt><trkpt lat="44.19051521909766" lon="11.564034592851298"><ele>423.0</ele><time>2026-04-12T10:04:09.999Z</time></trkpt><trkpt lat="44.1906124661881" lon="11.563952376010285"><ele>423.0</ele><time>2026-04-12T10:04:11.999Z</time></trkpt><trkpt lat="44.190704795391106" lon="11.563893170000268"><ele>423.0</ele><time>2026-04-12T10:04:13.999Z</time></trkpt><trkpt lat="44.19081982891509" lon="11.563865776589441"><ele>422.5</ele><time>2026-04-12T10:04:15.999Z</time></trkpt><trkpt lat="44.19091651662993" lon="11.563830326176097"><ele>422.0</ele><time>2026-04-12T10:04:17.999Z</time></trkpt><trkpt lat="44.19101100110266" lon="11.563749318203346"><ele>421.5</ele><time>2026-04-12T10:04:19.999Z</time></trkpt><trkpt lat="44.19109251224448" lon="11.563630411573145"><ele>421.0</ele><time>2026-04-12T10:04:21.999Z</time></trkpt><trkpt lat="44.191097580519916" lon="11.563460665847503"><ele>421.0</ele><time>2026-04-12T10:04:23.999Z</time></trkpt><trkpt lat="44.19108230834424" lon="11.563325353587858"><ele>421.0</ele><time>2026-04-12T10:04:25.999Z</time></trkpt><trkpt lat="44.19105473318121" lon="11.56319616667617"><ele>421.0</ele><time>2026-04-12T10:04:27.999Z</time></trkpt><trkpt lat="44.19102799387159" lon="11.563077349500308"><ele>421.0</ele><time>2026-04-12T10:04:29.999Z</time></trkpt><trkpt lat="44.190996981688016" lon="11.562948851365102"><ele>421.0</ele><time>2026-04-12T10:04:31.999Z</time></trkpt><trkpt lat="44.19097729162157" lon="11.56281066305428"><ele>421.6</ele><time>2026-04-12T10:04:33.999Z</time></trkpt><trkpt lat="44.19093562395998" lon="11.562689448758723"><ele>422.20000000000005</ele><time>2026-04-12T10:04:35.999Z</time></trkpt><trkpt lat="44.190889900471824" lon="11.562573839211609"><ele>422.79999999999995</ele><time>2026-04-12T10:04:37.999Z</time></trkpt><trkpt lat="44.190864936810556" lon="11.562454337589237"><ele>423.4</ele><time>2026-04-12T10:04:39.999Z</time></trkpt><trkpt lat="44.19082559927431" lon="11.562322565098322"><ele>424.0</ele><time>2026-04-12T10:04:41.999Z</time></trkpt><trkpt lat="44.19081382568607" lon="11.562195760966066"><ele>424.0</ele><time>2026-04-12T10:04:43.999Z</time></trkpt><trkpt lat="44.19080009819787" lon="11.562040281939781"><ele>424.0</ele><time>2026-04-12T10:04:45.999Z</time></trkpt><trkpt lat="44.190785349614785" lon="11.561909212933651"><ele>424.0</ele><time>2026-04-12T10:04:47.999Z</time></trkpt><trkpt lat="44.190780779948824" lon="11.56177627292216"><ele>424.0</ele><time>2026-04-12T10:04:49.999Z</time></trkpt><trkpt lat="44.19077611046226" lon="11.561651018261335"><ele>424.0</ele><time>2026-04-12T10:04:51.999Z</time></trkpt><trkpt lat="44.19078919812654" lon="11.561524549360737"><ele>423.6</ele><time>2026-04-12T10:04:53.999Z</time></trkpt><trkpt lat="44.19080596853242" lon="11.561383454216244"><ele>423.2</ele><time>2026-04-12T10:04:55.999Z</time></trkpt><trkpt lat="44.190801668496526" lon="11.561251321552092"><ele>422.8</ele><time>2026-04-12T10:04:57.999Z</time></trkpt><trkpt lat="44.1907944798435" lon="11.561134256369817"><ele>422.40000000000003</ele><time>2026-04-12T10:04:59.999Z</time></trkpt><trkpt lat="44.190742299409905" lon="11.561014496193197"><ele>422.0</ele><time>2026-04-12T10:05:01.999Z</time></trkpt><trkpt lat="44.19067456748538" lon="11.560930037370051"><ele>427.20000000000005</ele><time>2026-04-12T10:05:04Z</time></trkpt><trkpt lat="44.1905870225603" lon="11.560865650571255"><ele>432.4</ele><time>2026-04-12T10:05:06Z</time></trkpt><trkpt lat="44.19050441760891" lon="11.560811615213714"><ele>437.59999999999997</ele><time>2026-04-12T10:05:08Z</time></trkpt><trkpt lat="44.19041847843257" lon="11.560736013168833"><ele>442.79999999999995</ele><time>2026-04-12T10:05:10Z</time></trkpt><trkpt lat="44.190334664684684" lon="11.560636497198612"><ele>448.0</ele><time>2026-04-12T10:05:12Z</time></trkpt><trkpt lat="44.19028297791178" lon="11.56056616106847"><ele>448.0</ele><time>2026-04-12T10:05:14Z</time></trkpt><trkpt lat="44.19019233279264" lon="11.560503580879665"><ele>447.99999999999994</ele><time>2026-04-12T10:05:16Z</time></trkpt><trkpt lat="44.19010032563777" lon="11.56047085391838"><ele>447.99999999999994</ele><time>2026-04-12T10:05:18Z</time></trkpt><trkpt lat="44.19001191126167" lon="11.56045294274626"><ele>448.0</ele><time>2026-04-12T10:05:20Z</time></trkpt><trkpt lat="44.18991695136985" lon="11.560421584988656"><ele>448.0</ele><time>2026-04-12T10:05:22Z</time></trkpt><trkpt lat="44.1898231184849" lon="11.560370407540018"><ele>450.00000000000006</ele><time>2026-04-12T10:05:24Z</time></trkpt><trkpt lat="44.189746663224376" lon="11.560315014310307"><ele>452.0</ele><time>2026-04-12T10:05:26Z</time></trkpt><trkpt lat="44.189676788184705" lon="11.560238192012768"><ele>454.0</ele><time>2026-04-12T10:05:28Z</time></trkpt><trkpt lat="44.189629436641795" lon="11.560144698563779"><ele>456.0</ele><time>2026-04-12T10:05:30Z</time></trkpt><trkpt lat="44.18959244508522" lon="11.560041176034005"><ele>458.00000000000006</ele><time>2026-04-12T10:05:32Z</time></trkpt><trkpt lat="44.189560494364905" lon="11.559939562972241"><ele>460.0</ele><time>2026-04-12T10:05:34Z</time></trkpt><trkpt lat="44.18952866920742" lon="11.559834363809804"><ele>460.00000000000006</ele><time>2026-04-12T10:05:36Z</time></trkpt><trkpt lat="44.18951257110629" lon="11.559727090159408"><ele>460.0</ele><time>2026-04-12T10:05:38Z</time></trkpt><trkpt lat="44.189473206282145" lon="11.559628739409668"><ele>460.0</ele><time>2026-04-12T10:05:40Z</time></trkpt><trkpt lat="44.18940461603945" lon="11.559560968530697"><ele>460.0</ele><time>2026-04-12T10:05:42Z</time></trkpt><trkpt lat="44.18932894798789" lon="11.559555296973"><ele>460.00000000000006</ele><time>2026-04-12T10:05:44Z</time></trkpt><trkpt lat="44.18924911257263" lon="11.559546007018913"><ele>460.0</ele><time>2026-04-12T10:05:46Z</time></trkpt><trkpt lat="44.18917927956235" lon="11.559522272755204"><ele>459.1666666666667</ele><time>2026-04-12T10:05:48Z</time></trkpt><trkpt lat="44.189107735297185" lon="11.559515575443188"><ele>458.33333333333337</ele><time>2026-04-12T10:05:50Z</time></trkpt><trkpt lat="44.18903520758446" lon="11.559479275388274"><ele>457.5</ele><time>2026-04-12T10:05:52Z</time></trkpt><trkpt lat="44.18896928603357" lon="11.55943740917783"><ele>456.66666666666663</ele><time>2026-04-12T10:05:54Z</time></trkpt><trkpt lat="44.18888831315602" lon="11.559407833735454"><ele>455.8333333333333</ele><time>2026-04-12T10:05:56Z</time></trkpt><trkpt lat="44.18882732530618" lon="11.559372262894383"><ele>455.0</ele><time>2026-04-12T10:05:58Z</time></trkpt><trkpt lat="44.188748264475805" lon="11.559375220156426"><ele>454.99999999999994</ele><time>2026-04-12T10:06:00Z</time></trkpt><trkpt lat="44.1886576462908" lon="11.559418397797877"><ele>455.0</ele><time>2026-04-12T10:06:02Z</time></trkpt><trkpt lat="44.18858293418495" lon="11.55944900886556"><ele>455.0</ele><time>2026-04-12T10:06:04Z</time></trkpt><trkpt lat="44.18850301901988" lon="11.559481845150934"><ele>455.0</ele><time>2026-04-12T10:06:06Z</time></trkpt><trkpt lat="44.18842255038893" lon="11.559530543134649"><ele>454.99999999999994</ele><time>2026-04-12T10:06:08Z</time></trkpt><trkpt lat="44.18833773705351" lon="11.559550239761862"><ele>455.0</ele><time>2026-04-12T10:06:09.999Z</time></trkpt><trkpt lat="44.188268142684265" lon="11.559546529937771"><ele>454.99999999999994</ele><time>2026-04-12T10:06:11.999Z</time></trkpt><trkpt lat="44.18820124121893" lon="11.559471400624897"><ele>455.0</ele><time>2026-04-12T10:06:13.999Z</time></trkpt><trkpt lat="44.188169912710606" lon="11.559358783626353"><ele>455.0</ele><time>2026-04-12T10:06:15.999Z</time></trkpt><trkpt lat="44.188178273327125" lon="11.559233722935822"><ele>455.0</ele><time>2026-04-12T10:06:17.999Z</time></trkpt><trkpt lat="44.188211622532506" lon="11.55913686247679"><ele>454.99999999999994</ele><time>2026-04-12T10:06:19.999Z</time></trkpt><trkpt lat="44.18822767805781" lon="11.559044062216023"><ele>455.0</ele><time>2026-04-12T10:06:21.999Z</time></trkpt><trkpt lat="44.188220447036386" lon="11.55893285425996"><ele>455.0</ele><time>2026-04-12T10:06:24.999Z</time></trkpt><trkpt lat="44.18820749178124" lon="11.558830843341283"><ele>455.0</ele><time>2026-04-12T10:06:26.999Z</time></trkpt><trkpt lat="44.18821585078336" lon="11.558701819761918"><ele>455.0</ele><time>2026-04-12T10:06:28.999Z</time></trkpt><trkpt lat="44.188242945406515" lon="11.55855877987914"><ele>455.0</ele><time>2026-04-12T10:06:30.999Z</time></trkpt><trkpt lat="44.188281497378625" lon="11.558403538912764"><ele>455.0</ele><time>2026-04-12T10:06:32.999Z</time></trkpt><trkpt lat="44.18832442140164" lon="11.558253003795995"><ele>454.8333333333333</ele><time>2026-04-12T10:06:34.999Z</time></trkpt><trkpt lat="44.1883533443609" lon="11.558171199473989"><ele>454.66666666666663</ele><time>2026-04-12T10:06:35.999Z</time></trkpt><trkpt lat="44.18842127803168" lon="11.558108094684075"><ele>454.5</ele><time>2026-04-12T10:06:36.999Z</time></trkpt><trkpt lat="44.188514213050894" lon="11.557996110425018"><ele>454.33333333333337</ele><time>2026-04-12T10:06:38.999Z</time></trkpt><trkpt lat="44.18856697891051" lon="11.557927315768602"><ele>454.1666666666667</ele><time>2026-04-12T10:06:39.999Z</time></trkpt><trkpt lat="44.18860290942506" lon="11.557848347215074"><ele>454.0</ele><time>2026-04-12T10:06:40.999Z</time></trkpt><trkpt lat="44.188613789934394" lon="11.557758878580765"><ele>453.6666666666667</ele><time>2026-04-12T10:06:41.999Z</time></trkpt><trkpt lat="44.188603104216625" lon="11.557656349788216"><ele>453.33333333333337</ele><time>2026-04-12T10:06:42.999Z</time></trkpt><trkpt lat="44.18857545674674" lon="11.557546593866114"><ele>453.0</ele><time>2026-04-12T10:06:43.999Z</time></trkpt><trkpt lat="44.188547390600434" lon="11.557440216449262"><ele>452.66666666666663</ele><time>2026-04-12T10:06:44.999Z</time></trkpt><trkpt lat="44.188519707611384" lon="11.557319405194518"><ele>452.3333333333333</ele><time>2026-04-12T10:06:45.999Z</time></trkpt><trkpt lat="44.188485924714726" lon="11.557194713587986"><ele>452.0</ele><time>2026-04-12T10:06:46.999Z</time></trkpt><trkpt lat="44.18845796393498" lon="11.557071370769794"><ele>450.40000000000003</ele><time>2026-04-12T10:06:47.999Z</time></trkpt><trkpt lat="44.18843680074226" lon="11.55693430884642"><ele>448.80000000000007</ele><time>2026-04-12T10:06:48.999Z</time></trkpt><trkpt lat="44.188398263034415" lon="11.556802840362522"><ele>447.2</ele><time>2026-04-12T10:06:49.999Z</time></trkpt><trkpt lat="44.18835247762352" lon="11.556680456886701"><ele>445.6</ele><time>2026-04-12T10:06:50.999Z</time></trkpt><trkpt lat="44.18831111112084" lon="11.556564704003236"><ele>444.0</ele><time>2026-04-12T10:06:51.999Z</time></trkpt><trkpt lat="44.188290458378496" lon="11.556408759077065"><ele>444.0</ele><time>2026-04-12T10:06:52.999Z</time></trkpt><trkpt lat="44.188300162096866" lon="11.556266627343096"><ele>444.0</ele><time>2026-04-12T10:06:53.999Z</time></trkpt><trkpt lat="44.18834218022087" lon="11.55616751189792"><ele>444.0</ele><time>2026-04-12T10:06:54.999Z</time></trkpt><trkpt lat="44.1883961981292" lon="11.556061184528673"><ele>444.0</ele><time>2026-04-12T10:06:55.999Z</time></trkpt><trkpt lat="44.18842861324906" lon="11.555947684672754"><ele>444.0</ele><time>2026-04-12T10:06:56.999Z</time></trkpt><trkpt lat="44.18846713703393" lon="11.555835000145885"><ele>444.1666666666667</ele><time>2026-04-12T10:06:57.999Z</time></trkpt><trkpt lat="44.188527002796604" lon="11.55572217625684"><ele>444.33333333333337</ele><time>2026-04-12T10:06:58.999Z</time></trkpt><trkpt lat="44.18855378382213" lon="11.555602976341019"><ele>444.5</ele><time>2026-04-12T10:06:59.999Z</time></trkpt><trkpt lat="44.18855435869379" lon="11.555486150414822"><ele>444.6666666666667</ele><time>2026-04-12T10:07:00.999Z</time></trkpt><trkpt lat="44.18853865569458" lon="11.555361457361863"><ele>444.83333333333337</ele><time>2026-04-12T10:07:01.999Z</time></trkpt><trkpt lat="44.188536736923865" lon="11.555255474058209"><ele>445.0</ele><time>2026-04-12T10:07:02.999Z</time></trkpt><trkpt lat="44.18853162570303" lon="11.555143835483815"><ele>445.50000000000006</ele><time>2026-04-12T10:07:03.999Z</time></trkpt><trkpt lat="44.188526805769044" lon="11.555026020274184"><ele>446.0</ele><time>2026-04-12T10:07:04.999Z</time></trkpt><trkpt lat="44.188525318483286" lon="11.554900624023794"><ele>446.5</ele><time>2026-04-12T10:07:05.999Z</time></trkpt><trkpt lat="44.18852475087625" lon="11.554777985445053"><ele>447.0</ele><time>2026-04-12T10:07:06.999Z</time></trkpt><trkpt lat="44.18851184552238" lon="11.55465915977211"><ele>447.50000000000006</ele><time>2026-04-12T10:07:07.999Z</time></trkpt><trkpt lat="44.18849685181807" lon="11.55454558400403"><ele>448.0</ele><time>2026-04-12T10:07:09Z</time></trkpt><trkpt lat="44.18848337456194" lon="11.554425679175436"><ele>446.83333333333337</ele><time>2026-04-12T10:07:10Z</time></trkpt><trkpt lat="44.188467972631685" lon="11.554307122028014"><ele>445.6666666666667</ele><time>2026-04-12T10:07:11Z</time></trkpt><trkpt lat="44.18845262090373" lon="11.554183306276682"><ele>444.5</ele><time>2026-04-12T10:07:12Z</time></trkpt><trkpt lat="44.18844943690982" lon="11.554068309623764"><ele>443.33333333333337</ele><time>2026-04-12T10:07:13Z</time></trkpt><trkpt lat="44.18844101192143" lon="11.553960108639544"><ele>442.1666666666667</ele><time>2026-04-12T10:07:14Z</time></trkpt><trkpt lat="44.188408606545345" lon="11.553851856945146"><ele>441.0</ele><time>2026-04-12T10:07:15Z</time></trkpt><trkpt lat="44.188367238522304" lon="11.553748265570103"><ele>439.6666666666667</ele><time>2026-04-12T10:07:16Z</time></trkpt><trkpt lat="44.18832076391347" lon="11.553651189829697"><ele>438.33333333333337</ele><time>2026-04-12T10:07:17Z</time></trkpt><trkpt lat="44.188268637833275" lon="11.553564333004044"><ele>437.0</ele><time>2026-04-12T10:07:18Z</time></trkpt><trkpt lat="44.18822135598492" lon="11.553460130093454"><ele>435.6666666666667</ele><time>2026-04-12T10:07:19Z</time></trkpt><trkpt lat="44.1881929328511" lon="11.553356693796701"><ele>434.33333333333337</ele><time>2026-04-12T10:07:20Z</time></trkpt><trkpt lat="44.18816890039713" lon="11.553239398859612"><ele>433.0</ele><time>2026-04-12T10:07:21Z</time></trkpt><trkpt lat="44.18816071549923" lon="11.55311833814133"><ele>438.00000000000006</ele><time>2026-04-12T10:07:22Z</time></trkpt><trkpt lat="44.18815538616065" lon="11.552996487970383"><ele>443.0</ele><time>2026-04-12T10:07:23Z</time></trkpt><trkpt lat="44.188145786305874" lon="11.552874863826597"><ele>448.0</ele><time>2026-04-12T10:07:24Z</time></trkpt><trkpt lat="44.188140048424124" lon="11.552752720112789"><ele>453.0</ele><time>2026-04-12T10:07:25Z</time></trkpt><trkpt lat="44.188131384053044" lon="11.552626412695986"><ele>458.00000000000006</ele><time>2026-04-12T10:07:26Z</time></trkpt><trkpt lat="44.18811781860874" lon="11.55250390790768"><ele>463.0</ele><time>2026-04-12T10:07:27Z</time></trkpt><trkpt lat="44.18811043264889" lon="11.552371894226054"><ele>463.0</ele><time>2026-04-12T10:07:28Z</time></trkpt><trkpt lat="44.18809815070009" lon="11.552238623697221"><ele>462.99999999999994</ele><time>2026-04-12T10:07:29Z</time></trkpt><trkpt lat="44.18809450321751" lon="11.55209405022979"><ele>462.99999999999994</ele><time>2026-04-12T10:07:30Z</time></trkpt><trkpt lat="44.18809077242055" lon="11.551957160375226"><ele>463.0</ele><time>2026-04-12T10:07:31Z</time></trkpt><trkpt lat="44.188081599966715" lon="11.551816764139742"><ele>463.0</ele><time>2026-04-12T10:07:32Z</time></trkpt><trkpt lat="44.18806758183579" lon="11.551675174784021"><ele>459.79999999999995</ele><time>2026-04-12T10:07:33Z</time></trkpt><trkpt lat="44.188043298857096" lon="11.551537164067254"><ele>456.59999999999997</ele><time>2026-04-12T10:07:34Z</time></trkpt><trkpt lat="44.18800993078355" lon="11.551396892593624"><ele>453.40000000000003</ele><time>2026-04-12T10:07:35Z</time></trkpt><trkpt lat="44.18796844621023" lon="11.551248527033563"><ele>450.20000000000005</ele><time>2026-04-12T10:07:36Z</time></trkpt><trkpt lat="44.18793163016321" lon="11.551115458510472"><ele>447.0</ele><time>2026-04-12T10:07:37Z</time></trkpt><trkpt lat="44.18790896517039" lon="11.55100242128242"><ele>445.6666666666667</ele><time>2026-04-12T10:07:38Z</time></trkpt><trkpt lat="44.187914679226274" lon="11.550902874625992"><ele>444.33333333333337</ele><time>2026-04-12T10:07:39Z</time></trkpt><trkpt lat="44.18795608746029" lon="11.550809117323107"><ele>443.0</ele><time>2026-04-12T10:07:40Z</time></trkpt><trkpt lat="44.18802294316887" lon="11.550717352950043"><ele>441.6666666666667</ele><time>2026-04-12T10:07:41Z</time></trkpt><trkpt lat="44.18809001291026" lon="11.550622272186892"><ele>440.33333333333337</ele><time>2026-04-12T10:07:42Z</time></trkpt><trkpt lat="44.18814134661735" lon="11.55050967935366"><ele>439.0</ele><time>2026-04-12T10:07:43Z</time></trkpt><trkpt lat="44.18817402232527" lon="11.550384136382116"><ele>436.79999999999995</ele><time>2026-04-12T10:07:44Z</time></trkpt><trkpt lat="44.18820896367348" lon="11.550246487306143"><ele>434.59999999999997</ele><time>2026-04-12T10:07:45Z</time></trkpt><trkpt lat="44.18821345250209" lon="11.550108376726765"><ele>432.4</ele><time>2026-04-12T10:07:46Z</time></trkpt><trkpt lat="44.18820896146248" lon="11.550015282717249"><ele>430.2</ele><time>2026-04-12T10:07:47Z</time></trkpt><trkpt lat="44.1881843400517" lon="11.549903433961568"><ele>428.0</ele><time>2026-04-12T10:07:48Z</time></trkpt><trkpt lat="44.18814916349418" lon="11.549769801848472"><ele>428.0</ele><time>2026-04-12T10:07:49Z</time></trkpt><trkpt lat="44.188107920426006" lon="11.549689186839908"><ele>427.99999999999994</ele><time>2026-04-12T10:07:50Z</time></trkpt><trkpt lat="44.18814657734743" lon="11.549519097944168"><ele>427.99999999999994</ele><time>2026-04-12T10:07:52Z</time></trkpt><trkpt lat="44.188205086911736" lon="11.54946844984277"><ele>428.0</ele><time>2026-04-12T10:07:53Z</time></trkpt><trkpt lat="44.188299325283396" lon="11.54939628825243"><ele>428.0</ele><time>2026-04-12T10:07:55Z</time></trkpt><trkpt lat="44.188388530034324" lon="11.54946250968118"><ele>426.42857142857144</ele><time>2026-04-12T10:07:58Z</time></trkpt><trkpt lat="44.18845611020424" lon="11.549519581482594"><ele>424.8571428571429</ele><time>2026-04-12T10:08:00Z</time></trkpt><trkpt lat="44.188509595806075" lon="11.54960095530377"><ele>423.28571428571433</ele><time>2026-04-12T10:08:03Z</time></trkpt><trkpt lat="44.188525439007336" lon="11.54970199110562"><ele>421.7142857142857</ele><time>2026-04-12T10:08:06Z</time></trkpt><trkpt lat="44.188528610473625" lon="11.549796812115916"><ele>420.1428571428571</ele><time>2026-04-12T10:08:08Z</time></trkpt><trkpt lat="44.18853301350018" lon="11.549888011954517"><ele>418.5714285714286</ele><time>2026-04-12T10:08:10Z</time></trkpt><trkpt lat="44.188545768382674" lon="11.549975252432928"><ele>417.0</ele><time>2026-04-12T10:08:12Z</time></trkpt><trkpt lat="44.18854891030978" lon="11.550102156256807"><ele>415.3333333333333</ele><time>2026-04-12T10:08:15Z</time></trkpt><trkpt lat="44.18854882678553" lon="11.550226275269363"><ele>413.66666666666663</ele><time>2026-04-12T10:08:17.999Z</time></trkpt><trkpt lat="44.18856383419925" lon="11.55033638667319"><ele>412.0</ele><time>2026-04-12T10:08:19.999Z</time></trkpt><trkpt lat="44.18858937142268" lon="11.55045823845704"><ele>410.3333333333333</ele><time>2026-04-12T10:08:22.999Z</time></trkpt><trkpt lat="44.18863704569495" lon="11.550539292084931"><ele>408.66666666666663</ele><time>2026-04-12T10:08:24.999Z</time></trkpt><trkpt lat="44.18870820401136" lon="11.550607759418588"><ele>407.0</ele><time>2026-04-12T10:08:27.999Z</time></trkpt><trkpt lat="44.18876497898152" lon="11.550664979708962"><ele>406.99999999999994</ele><time>2026-04-12T10:08:29.999Z</time></trkpt><trkpt lat="44.188847695962586" lon="11.55073788831878"><ele>407.0</ele><time>2026-04-12T10:08:32.999Z</time></trkpt><trkpt lat="44.18892370989877" lon="11.55074652923683"><ele>407.0</ele><time>2026-04-12T10:08:35.999Z</time></trkpt><trkpt lat="44.18899304342141" lon="11.550749844179512"><ele>407.0</ele><time>2026-04-12T10:08:37.999Z</time></trkpt><trkpt lat="44.18905281624292" lon="11.550702143709078"><ele>406.99999999999994</ele><time>2026-04-12T10:08:39.999Z</time></trkpt><trkpt lat="44.18909846487426" lon="11.550596038603215"><ele>407.0</ele><time>2026-04-12T10:08:42.999Z</time></trkpt><trkpt lat="44.189129636873766" lon="11.550516222553536"><ele>408.99999999999994</ele><time>2026-04-12T10:08:44.999Z</time></trkpt><trkpt lat="44.18915517111072" lon="11.550426661947206"><ele>411.0</ele><time>2026-04-12T10:08:46.999Z</time></trkpt><trkpt lat="44.18916686506739" lon="11.550303145298527"><ele>413.0</ele><time>2026-04-12T10:08:49.999Z</time></trkpt><trkpt lat="44.18919844751186" lon="11.550179535137602"><ele>415.0</ele><time>2026-04-12T10:08:52.999Z</time></trkpt><trkpt lat="44.18922236967709" lon="11.550097799656811"><ele>416.99999999999994</ele><time>2026-04-12T10:08:54.999Z</time></trkpt><trkpt lat="44.189258299772625" lon="11.550015805280408"><ele>419.0</ele><time>2026-04-12T10:08:56.999Z</time></trkpt><trkpt lat="44.18929622747774" lon="11.5499420595267"><ele>418.99999999999994</ele><time>2026-04-12T10:08:58.999Z</time></trkpt><trkpt lat="44.189362404361894" lon="11.549859034568355"><ele>419.0</ele><time>2026-04-12T10:09:01.999Z</time></trkpt><trkpt lat="44.18942250372039" lon="11.549762774147306"><ele>419.0</ele><time>2026-04-12T10:09:04.999Z</time></trkpt><trkpt lat="44.18947797962786" lon="11.549718088843687"><ele>419.0</ele><time>2026-04-12T10:09:06.999Z</time></trkpt><trkpt lat="44.189555291947514" lon="11.54963074301354"><ele>418.99999999999994</ele><time>2026-04-12T10:09:09.999Z</time></trkpt><trkpt lat="44.18960621160839" lon="11.549565287048896"><ele>419.0</ele><time>2026-04-12T10:09:11.999Z</time></trkpt><trkpt lat="44.189647234406294" lon="11.549498243401024"><ele>419.85714285714283</ele><time>2026-04-12T10:09:13.999Z</time></trkpt><trkpt lat="44.18967930843726" lon="11.549418861610768"><ele>420.7142857142857</ele><time>2026-04-12T10:09:16Z</time></trkpt><trkpt lat="44.189710158298546" lon="11.549342325488022"><ele>421.57142857142856</ele><time>2026-04-12T10:09:18Z</time></trkpt><trkpt lat="44.18974810115099" lon="11.549267445252063"><ele>422.42857142857144</ele><time>2026-04-12T10:09:20Z</time></trkpt><trkpt lat="44.189803061488554" lon="11.549212153785742"><ele>423.2857142857143</ele><time>2026-04-12T10:09:22Z</time></trkpt><trkpt lat="44.18985876362943" lon="11.549137093580343"><ele>424.1428571428571</ele><time>2026-04-12T10:09:24Z</time></trkpt><trkpt lat="44.18992124116848" lon="11.549066937122417"><ele>425.0</ele><time>2026-04-12T10:09:26Z</time></trkpt><trkpt lat="44.190007521456934" lon="11.549034829907727"><ele>426.49999999999994</ele><time>2026-04-12T10:09:29Z</time></trkpt><trkpt lat="44.19005615625124" lon="11.548959444719992"><ele>428.0</ele><time>2026-04-12T10:09:31Z</time></trkpt><trkpt lat="44.190123097380386" lon="11.548923408570927"><ele>429.5</ele><time>2026-04-12T10:09:33Z</time></trkpt><trkpt lat="44.19019953629229" lon="11.548918228229493"><ele>431.0</ele><time>2026-04-12T10:09:36Z</time></trkpt><trkpt lat="44.19029045132656" lon="11.548898290865479"><ele>432.49999999999994</ele><time>2026-04-12T10:09:38Z</time></trkpt><trkpt lat="44.19038141145896" lon="11.548851806677966"><ele>434.0</ele><time>2026-04-12T10:09:41Z</time></trkpt><trkpt lat="44.190442301232736" lon="11.548785140954552"><ele>434.0</ele><time>2026-04-12T10:09:43Z</time></trkpt><trkpt lat="44.1904887580911" lon="11.548725103299091"><ele>434.0</ele><time>2026-04-12T10:09:45Z</time></trkpt><trkpt lat="44.19050507624546" lon="11.548638194712069"><ele>434.0</ele><time>2026-04-12T10:09:47Z</time></trkpt><trkpt lat="44.19052018489216" lon="11.548533886949112"><ele>434.0</ele><time>2026-04-12T10:09:49Z</time></trkpt><trkpt lat="44.190548374017176" lon="11.548431554144557"><ele>434.0</ele><time>2026-04-12T10:09:52Z</time></trkpt><trkpt lat="44.1905686306838" lon="11.548337665807836"><ele>434.0</ele><time>2026-04-12T10:09:54Z</time></trkpt><trkpt lat="44.190566738507826" lon="11.548244700262714"><ele>434.0</ele><time>2026-04-12T10:09:56Z</time></trkpt><trkpt lat="44.1905997272282" lon="11.548131270625316"><ele>433.99999999999994</ele><time>2026-04-12T10:09:59Z</time></trkpt><trkpt lat="44.190588609207204" lon="11.548034563932177"><ele>434.0</ele><time>2026-04-12T10:10:01Z</time></trkpt><trkpt lat="44.19062200909595" lon="11.547916297843498"><ele>434.0</ele><time>2026-04-12T10:10:04Z</time></trkpt><trkpt lat="44.1906352200903" lon="11.547829476955059"><ele>434.0</ele><time>2026-04-12T10:10:06Z</time></trkpt><trkpt lat="44.1906628870594" lon="11.547745563243831"><ele>433.99999999999994</ele><time>2026-04-12T10:10:08Z</time></trkpt><trkpt lat="44.19070021329641" lon="11.5476744608254"><ele>434.0</ele><time>2026-04-12T10:10:10Z</time></trkpt><trkpt lat="44.19074531800061" lon="11.547553203436046"><ele>435.57142857142856</ele><time>2026-04-12T10:10:13Z</time></trkpt><trkpt lat="44.190778773009846" lon="11.547478096668021"><ele>437.1428571428571</ele><time>2026-04-12T10:10:14.999Z</time></trkpt><trkpt lat="44.19082769434771" lon="11.547417158490504"><ele>438.7142857142857</ele><time>2026-04-12T10:10:16.999Z</time></trkpt><trkpt lat="44.19089399031244" lon="11.547338344638394"><ele>440.2857142857143</ele><time>2026-04-12T10:10:19.999Z</time></trkpt><trkpt lat="44.190955741597755" lon="11.547276493068471"><ele>441.85714285714283</ele><time>2026-04-12T10:10:21.999Z</time></trkpt><trkpt lat="44.19101891989626" lon="11.547213916044216"><ele>443.42857142857144</ele><time>2026-04-12T10:10:24.999Z</time></trkpt><trkpt lat="44.19108425400076" lon="11.547168553237961"><ele>445.0</ele><time>2026-04-12T10:10:27.999Z</time></trkpt><trkpt lat="44.191149385856406" lon="11.547146518717023"><ele>445.00000000000006</ele><time>2026-04-12T10:10:31.999Z</time></trkpt><trkpt lat="44.19112927951426" lon="11.547261624618184"><ele>445.0</ele><time>2026-04-12T10:10:34.999Z</time></trkpt><trkpt lat="44.1910928601002" lon="11.547345678254498"><ele>445.0</ele><time>2026-04-12T10:10:37.999Z</time></trkpt><trkpt lat="44.19109884514147" lon="11.547475287955452"><ele>445.0</ele><time>2026-04-12T10:10:41.999Z</time></trkpt><trkpt lat="44.191079180376256" lon="11.547581927975399"><ele>445.00000000000006</ele><time>2026-04-12T10:10:44.999Z</time></trkpt><trkpt lat="44.19105396530938" lon="11.547683005500561"><ele>445.0</ele><time>2026-04-12T10:10:47.999Z</time></trkpt><trkpt lat="44.19108661613155" lon="11.547771678143285"><ele>445.00000000000006</ele><time>2026-04-12T10:10:50.999Z</time></trkpt><trkpt lat="44.19115212865428" lon="11.547830410878177"><ele>445.0</ele><time>2026-04-12T10:10:53.999Z</time></trkpt><trkpt lat="44.1912108740469" lon="11.547883523702755"><ele>445.0</ele><time>2026-04-12T10:10:56.999Z</time></trkpt><trkpt lat="44.191270951558046" lon="11.547943801639438"><ele>445.0</ele><time>2026-04-12T10:10:59.999Z</time></trkpt><trkpt lat="44.19132481964125" lon="11.548011484500973"><ele>445.00000000000006</ele><time>2026-04-12T10:11:01.999Z</time></trkpt><trkpt lat="44.19140332586668" lon="11.548116956439152"><ele>445.0</ele><time>2026-04-12T10:11:03.999Z</time></trkpt><trkpt lat="44.19148113474619" lon="11.548223605108038"><ele>449.0</ele><time>2026-04-12T10:11:05.999Z</time></trkpt><trkpt lat="44.191512723172444" lon="11.548312611937732"><ele>453.0</ele><time>2026-04-12T10:11:07.999Z</time></trkpt><trkpt lat="44.19155898340391" lon="11.548395537744828"><ele>457.0</ele><time>2026-04-12T10:11:09.999Z</time></trkpt><trkpt lat="44.19158993672295" lon="11.548483046966892"><ele>461.0</ele><time>2026-04-12T10:11:11.999Z</time></trkpt><trkpt lat="44.19163002751178" lon="11.5485637172279"><ele>465.0</ele><time>2026-04-12T10:11:14.999Z</time></trkpt><trkpt lat="44.19166958516827" lon="11.548658681354201"><ele>469.0</ele><time>2026-04-12T10:11:17.999Z</time></trkpt><trkpt lat="44.19172380936336" lon="11.54870690254602"><ele>473.0</ele><time>2026-04-12T10:11:21Z</time></trkpt><trkpt lat="44.191790436878" lon="11.548645755848426"><ele>473.0</ele><time>2026-04-12T10:11:25Z</time></trkpt><trkpt lat="44.19183553291121" lon="11.548570923777735"><ele>473.0</ele><time>2026-04-12T10:11:28Z</time></trkpt><trkpt lat="44.19188914299795" lon="11.548501858518508"><ele>473.0</ele><time>2026-04-12T10:11:31Z</time></trkpt><trkpt lat="44.1919480172661" lon="11.548439180050098"><ele>473.0</ele><time>2026-04-12T10:11:34Z</time></trkpt><trkpt lat="44.192012863876876" lon="11.548371234830753"><ele>473.0</ele><time>2026-04-12T10:11:39Z</time></trkpt><trkpt lat="44.19205504502788" lon="11.548277040369022"><ele>473.0</ele><time>2026-04-12T10:11:42Z</time></trkpt><trkpt lat="44.19204651454987" lon="11.54817891710006"><ele>473.0</ele><time>2026-04-12T10:11:45Z</time></trkpt><trkpt lat="44.191997067554546" lon="11.548054894557222"><ele>472.99999999999994</ele><time>2026-04-12T10:11:48Z</time></trkpt><trkpt lat="44.19198624069845" lon="11.547964423251733"><ele>473.0</ele><time>2026-04-12T10:11:52Z</time></trkpt><trkpt lat="44.191938913410446" lon="11.547871297427978"><ele>473.0</ele><time>2026-04-12T10:11:55Z</time></trkpt><trkpt lat="44.19187874244922" lon="11.547785366984758"><ele>473.0</ele><time>2026-04-12T10:11:59Z</time></trkpt><trkpt lat="44.191833557437526" lon="11.547687765473407"><ele>472.99999999999994</ele><time>2026-04-12T10:12:02Z</time></trkpt><trkpt lat="44.1919080772481" lon="11.547633795957516"><ele>473.0</ele><time>2026-04-12T10:12:07Z</time></trkpt><trkpt lat="44.1919745602605" lon="11.54762210494377"><ele>472.8333333333333</ele><time>2026-04-12T10:12:10Z</time></trkpt><trkpt lat="44.1920411528248" lon="11.547629942933783"><ele>472.66666666666663</ele><time>2026-04-12T10:12:14Z</time></trkpt><trkpt lat="44.19212528476686" lon="11.547614217213294"><ele>472.5</ele><time>2026-04-12T10:12:17Z</time></trkpt><trkpt lat="44.19221478246428" lon="11.54757473760791"><ele>472.33333333333337</ele><time>2026-04-12T10:12:21Z</time></trkpt><trkpt lat="44.19228730789338" lon="11.547566158952367"><ele>472.1666666666667</ele><time>2026-04-12T10:12:24.999Z</time></trkpt><trkpt lat="44.192348296232026" lon="11.547539110038139"><ele>472.0</ele><time>2026-04-12T10:12:27.999Z</time></trkpt><trkpt lat="44.19242788038628" lon="11.547505828763986"><ele>476.42857142857144</ele><time>2026-04-12T10:12:31.999Z</time></trkpt><trkpt lat="44.19249688723134" lon="11.547530488892852"><ele>480.8571428571429</ele><time>2026-04-12T10:12:35.999Z</time></trkpt><trkpt lat="44.19256505196089" lon="11.547527067102182"><ele>485.28571428571433</ele><time>2026-04-12T10:12:38.999Z</time></trkpt><trkpt lat="44.19263054826266" lon="11.547526754688633"><ele>489.7142857142857</ele><time>2026-04-12T10:12:41.999Z</time></trkpt><trkpt lat="44.19270154120063" lon="11.547528756003901"><ele>494.1428571428572</ele><time>2026-04-12T10:12:44.999Z</time></trkpt><trkpt lat="44.192779378819296" lon="11.547541227621974"><ele>498.5714285714286</ele><time>2026-04-12T10:12:47.999Z</time></trkpt><trkpt lat="44.19283160255918" lon="11.547595057962798"><ele>503.0</ele><time>2026-04-12T10:12:50.999Z</time></trkpt><trkpt lat="44.1928795083531" lon="11.547664085981276"><ele>503.0</ele><time>2026-04-12T10:12:53.999Z</time></trkpt><trkpt lat="44.192914076557855" lon="11.547744851203179"><ele>503.00000000000006</ele><time>2026-04-12T10:12:56.999Z</time></trkpt><trkpt lat="44.19294166864549" lon="11.547841351213544"><ele>503.0</ele><time>2026-04-12T10:13:00.999Z</time></trkpt><trkpt lat="44.19294662972239" lon="11.54795248397672"><ele>503.0</ele><time>2026-04-12T10:13:03.999Z</time></trkpt><trkpt lat="44.192947976224254" lon="11.548046575040571"><ele>503.00000000000006</ele><time>2026-04-12T10:13:06.999Z</time></trkpt><trkpt lat="44.192944325556084" lon="11.548148076668404"><ele>503.0</ele><time>2026-04-12T10:13:09.999Z</time></trkpt><trkpt lat="44.19295431072948" lon="11.548238330837064"><ele>503.0</ele><time>2026-04-12T10:13:12.999Z</time></trkpt><trkpt lat="44.19292303697697" lon="11.548331020380983"><ele>503.14285714285717</ele><time>2026-04-12T10:13:15.999Z</time></trkpt><trkpt lat="44.19295247103184" lon="11.548420560151515"><ele>503.28571428571433</ele><time>2026-04-12T10:13:17.999Z</time></trkpt><trkpt lat="44.192974938845516" lon="11.548511274375134"><ele>503.42857142857144</ele><time>2026-04-12T10:13:21.999Z</time></trkpt><trkpt lat="44.19302136671913" lon="11.54858883225649"><ele>503.57142857142856</ele><time>2026-04-12T10:13:24.999Z</time></trkpt><trkpt lat="44.19304546622783" lon="11.548705082271024"><ele>503.7142857142857</ele><time>2026-04-12T10:13:29Z</time></trkpt><trkpt lat="44.19305259005093" lon="11.548802152674542"><ele>503.8571428571429</ele><time>2026-04-12T10:13:32Z</time></trkpt><trkpt lat="44.19304428891515" lon="11.548902316154988"><ele>504.0</ele><time>2026-04-12T10:13:35Z</time></trkpt><trkpt lat="44.193042072467456" lon="11.548992072904259"><ele>505.7142857142857</ele><time>2026-04-12T10:13:38Z</time></trkpt><trkpt lat="44.19302451475215" lon="11.549085499388418"><ele>507.42857142857144</ele><time>2026-04-12T10:13:41Z</time></trkpt><trkpt lat="44.193011919633236" lon="11.549185481388744"><ele>509.1428571428571</ele><time>2026-04-12T10:13:44Z</time></trkpt><trkpt lat="44.19303737904176" lon="11.549275303155284"><ele>510.85714285714283</ele><time>2026-04-12T10:13:47Z</time></trkpt><trkpt lat="44.19307458812723" lon="11.549353606579569"><ele>512.5714285714286</ele><time>2026-04-12T10:13:50Z</time></trkpt><trkpt lat="44.1931074110222" lon="11.54944226604338"><ele>514.2857142857142</ele><time>2026-04-12T10:13:55Z</time></trkpt><trkpt lat="44.19317828516606" lon="11.54942518362609"><ele>516.0</ele><time>2026-04-12T10:14:01Z</time></trkpt><trkpt lat="44.193250032276644" lon="11.549439279672836"><ele>521.2</ele><time>2026-04-12T10:14:07Z</time></trkpt><trkpt lat="44.193333664238445" lon="11.549412760479356"><ele>526.4000000000001</ele><time>2026-04-12T10:14:09Z</time></trkpt><trkpt lat="44.19340966595425" lon="11.549418073653515"><ele>531.6</ele><time>2026-04-12T10:14:10Z</time></trkpt><trkpt lat="44.19350486310931" lon="11.549438052072398"><ele>536.8000000000001</ele><time>2026-04-12T10:14:11Z</time></trkpt><trkpt lat="44.19360512944394" lon="11.549443137484765"><ele>542.0</ele><time>2026-04-12T10:14:12Z</time></trkpt><trkpt lat="44.19369663314532" lon="11.549381373462287"><ele>542.0</ele><time>2026-04-12T10:14:13Z</time></trkpt><trkpt lat="44.19385846433113" lon="11.549346876119454"><ele>542.0</ele><time>2026-04-12T10:14:15Z</time></trkpt><trkpt lat="44.193954466858294" lon="11.549344718618881"><ele>542.0</ele><time>2026-04-12T10:14:16Z</time></trkpt><trkpt lat="44.194035274438995" lon="11.549395288299985"><ele>542.0</ele><time>2026-04-12T10:14:17Z</time></trkpt><trkpt lat="44.19410352405726" lon="11.549482753369617"><ele>542.0</ele><time>2026-04-12T10:14:18Z</time></trkpt><trkpt lat="44.19421081760028" lon="11.549561505422469"><ele>541.8571428571429</ele><time>2026-04-12T10:14:19.999Z</time></trkpt><trkpt lat="44.19427971788942" lon="11.549545535567695"><ele>541.7142857142858</ele><time>2026-04-12T10:14:20.999Z</time></trkpt><trkpt lat="44.19434094121399" lon="11.549497320160446"><ele>541.5714285714287</ele><time>2026-04-12T10:14:21.999Z</time></trkpt><trkpt lat="44.19439729980087" lon="11.549445310716425"><ele>541.4285714285714</ele><time>2026-04-12T10:14:22.999Z</time></trkpt><trkpt lat="44.19446871423425" lon="11.549405566904687"><ele>541.2857142857143</ele><time>2026-04-12T10:14:23.999Z</time></trkpt><trkpt lat="44.19450042834756" lon="11.549310048588291"><ele>541.1428571428572</ele><time>2026-04-12T10:14:24.999Z</time></trkpt><trkpt lat="44.194574944148385" lon="11.549247284147947"><ele>541.0</ele><time>2026-04-12T10:14:25.999Z</time></trkpt><trkpt lat="44.194660647582324" lon="11.54919532285756"><ele>541.0</ele><time>2026-04-12T10:14:26.999Z</time></trkpt><trkpt lat="44.19473151908188" lon="11.549115800616724"><ele>541.0</ele><time>2026-04-12T10:14:27.999Z</time></trkpt><trkpt lat="44.19481136021503" lon="11.549030793448663"><ele>541.0</ele><time>2026-04-12T10:14:28.999Z</time></trkpt><trkpt lat="44.1949297242177" lon="11.548943509252604"><ele>541.0</ele><time>2026-04-12T10:14:30.999Z</time></trkpt><trkpt lat="44.19498872450446" lon="11.548892135545485"><ele>541.0</ele><time>2026-04-12T10:14:31.999Z</time></trkpt><trkpt lat="44.19502074291473" lon="11.548812671115986"><ele>541.2</ele><time>2026-04-12T10:14:32.999Z</time></trkpt><trkpt lat="44.195108603255164" lon="11.548762690330811"><ele>541.4000000000001</ele><time>2026-04-12T10:14:33.999Z</time></trkpt><trkpt lat="44.195192863987245" lon="11.548793587613979"><ele>541.6</ele><time>2026-04-12T10:14:35.999Z</time></trkpt><trkpt lat="44.19527241491839" lon="11.5488043150019"><ele>541.8000000000001</ele><time>2026-04-12T10:14:37.999Z</time></trkpt><trkpt lat="44.19535021692229" lon="11.548720124532062"><ele>542.0</ele><time>2026-04-12T10:14:39.999Z</time></trkpt><trkpt lat="44.19541596227661" lon="11.548602940600691"><ele>542.0</ele><time>2026-04-12T10:14:41.999Z</time></trkpt><trkpt lat="44.19543127012423" lon="11.548515021088978"><ele>542.0</ele><time>2026-04-12T10:14:43.999Z</time></trkpt><trkpt lat="44.195510648297905" lon="11.548419772054764"><ele>542.0</ele><time>2026-04-12T10:14:46.999Z</time></trkpt><trkpt lat="44.19552959257189" lon="11.548321519839515"><ele>542.0</ele><time>2026-04-12T10:14:49.999Z</time></trkpt><trkpt lat="44.195568167216884" lon="11.548239322657427"><ele>542.0</ele><time>2026-04-12T10:14:52.999Z</time></trkpt><trkpt lat="44.195605906477084" lon="11.54835699717304"><ele>542.0</ele><time>2026-04-12T10:14:56.999Z</time></trkpt><trkpt lat="44.195648192093785" lon="11.5484875837564"><ele>540.0</ele><time>2026-04-12T10:14:58.999Z</time></trkpt><trkpt lat="44.195710957938815" lon="11.548566833738308"><ele>538.0</ele><time>2026-04-12T10:14:59.999Z</time></trkpt><trkpt lat="44.19577519501336" lon="11.548576729787714"><ele>536.0</ele><time>2026-04-12T10:15:00.999Z</time></trkpt><trkpt lat="44.19587559994781" lon="11.548673272825654"><ele>534.0</ele><time>2026-04-12T10:15:02.999Z</time></trkpt><trkpt lat="44.195966066706696" lon="11.548731241023221"><ele>532.0</ele><time>2026-04-12T10:15:04.999Z</time></trkpt><trkpt lat="44.19601736888287" lon="11.548802431927738"><ele>530.0</ele><time>2026-04-12T10:15:06.999Z</time></trkpt><trkpt lat="44.196102991082164" lon="11.548795570378298"><ele>530.0</ele><time>2026-04-12T10:15:08.999Z</time></trkpt><trkpt lat="44.1962235744999" lon="11.54878291997966"><ele>530.0</ele><time>2026-04-12T10:15:10.999Z</time></trkpt><trkpt lat="44.19629432152976" lon="11.548750025739613"><ele>530.0</ele><time>2026-04-12T10:15:11.999Z</time></trkpt><trkpt lat="44.19635736800648" lon="11.548685787333493"><ele>530.0</ele><time>2026-04-12T10:15:14.999Z</time></trkpt><trkpt lat="44.196459101684084" lon="11.548633211613842"><ele>530.0</ele><time>2026-04-12T10:15:16.999Z</time></trkpt><trkpt lat="44.196531491447494" lon="11.548608968664867"><ele>529.5</ele><time>2026-04-12T10:15:17.999Z</time></trkpt><trkpt lat="44.19660179806198" lon="11.548583357389978"><ele>529.0</ele><time>2026-04-12T10:15:18.999Z</time></trkpt><trkpt lat="44.196680828843526" lon="11.548526859648973"><ele>528.5</ele><time>2026-04-12T10:15:20.999Z</time></trkpt><trkpt lat="44.19674037467909" lon="11.548561507122042"><ele>528.0</ele><time>2026-04-12T10:15:21.999Z</time></trkpt><trkpt lat="44.19676109045763" lon="11.548645632027299"><ele>527.5</ele><time>2026-04-12T10:15:22.999Z</time></trkpt><trkpt lat="44.19682437939571" lon="11.548723522568471"><ele>527.0</ele><time>2026-04-12T10:15:23.999Z</time></trkpt><trkpt lat="44.19687393838739" lon="11.548811210123345"><ele>527.0</ele><time>2026-04-12T10:15:24.999Z</time></trkpt><trkpt lat="44.19695110920601" lon="11.548770493860593"><ele>527.0</ele><time>2026-04-12T10:15:26.999Z</time></trkpt><trkpt lat="44.196990218330676" lon="11.54868140674137"><ele>527.0</ele><time>2026-04-12T10:15:27.999Z</time></trkpt><trkpt lat="44.19702588882949" lon="11.548598067693016"><ele>527.0</ele><time>2026-04-12T10:15:28.999Z</time></trkpt><trkpt lat="44.197074234443306" lon="11.548487707681705"><ele>527.0</ele><time>2026-04-12T10:15:29.999Z</time></trkpt><trkpt lat="44.197105540838955" lon="11.54839630683614"><ele>527.0</ele><time>2026-04-12T10:15:30.999Z</time></trkpt><trkpt lat="44.197164810159" lon="11.548340388513042"><ele>527.0</ele><time>2026-04-12T10:15:31.999Z</time></trkpt><trkpt lat="44.197241792761886" lon="11.548315979840147"><ele>527.0</ele><time>2026-04-12T10:15:33Z</time></trkpt><trkpt lat="44.197315197913674" lon="11.548296870389155"><ele>527.0</ele><time>2026-04-12T10:15:34Z</time></trkpt><trkpt lat="44.19737539712009" lon="11.548266644260288"><ele>527.0</ele><time>2026-04-12T10:15:35Z</time></trkpt><trkpt lat="44.19746469118893" lon="11.548210710064508"><ele>527.0</ele><time>2026-04-12T10:15:37Z</time></trkpt><trkpt lat="44.19746811803679" lon="11.548072821036625"><ele>527.0</ele><time>2026-04-12T10:15:39Z</time></trkpt><trkpt lat="44.197482594327006" lon="11.547949316043672"><ele>528.1666666666666</ele><time>2026-04-12T10:15:41Z</time></trkpt><trkpt lat="44.19752543211685" lon="11.547828008508406"><ele>529.3333333333333</ele><time>2026-04-12T10:15:43Z</time></trkpt><trkpt lat="44.197557910811284" lon="11.547726897406319"><ele>530.5</ele><time>2026-04-12T10:15:45Z</time></trkpt><trkpt lat="44.19761658358566" lon="11.547662865670715"><ele>531.6666666666666</ele><time>2026-04-12T10:15:48Z</time></trkpt><trkpt lat="44.19766788149155" lon="11.547756306460688"><ele>532.8333333333334</ele><time>2026-04-12T10:15:53Z</time></trkpt><trkpt lat="44.19766789438498" lon="11.547844178132507"><ele>534.0</ele><time>2026-04-12T10:15:56Z</time></trkpt><trkpt lat="44.1976987393246" lon="11.547922949459176"><ele>531.0</ele><time>2026-04-12T10:15:58Z</time></trkpt><trkpt lat="44.19773646743184" lon="11.548012060723712"><ele>528.0</ele><time>2026-04-12T10:16:01Z</time></trkpt><trkpt lat="44.19777988097725" lon="11.548113802181447"><ele>525.0</ele><time>2026-04-12T10:16:05Z</time></trkpt><trkpt lat="44.1977975621307" lon="11.54822711435914"><ele>522.0</ele><time>2026-04-12T10:16:08Z</time></trkpt><trkpt lat="44.197849822021986" lon="11.548319667634214"><ele>519.0</ele><time>2026-04-12T10:16:11Z</time></trkpt><trkpt lat="44.19790242853438" lon="11.548388596631412"><ele>516.0</ele><time>2026-04-12T10:16:14Z</time></trkpt><trkpt lat="44.197935071687816" lon="11.54851078097777"><ele>516.0</ele><time>2026-04-12T10:16:17Z</time></trkpt><trkpt lat="44.198011280651635" lon="11.548581885269327"><ele>516.0</ele><time>2026-04-12T10:16:20Z</time></trkpt><trkpt lat="44.19809801303847" lon="11.54858782173286"><ele>516.0</ele><time>2026-04-12T10:16:23Z</time></trkpt><trkpt lat="44.198163897858734" lon="11.54853417597145"><ele>516.0</ele><time>2026-04-12T10:16:25.999Z</time></trkpt><trkpt lat="44.198209223960845" lon="11.548458628069573"><ele>516.0</ele><time>2026-04-12T10:16:27.999Z</time></trkpt><trkpt lat="44.1982808774869" lon="11.548375540122887"><ele>516.0</ele><time>2026-04-12T10:16:29.999Z</time></trkpt><trkpt lat="44.19832530281005" lon="11.548264461885722"><ele>517.6</ele><time>2026-04-12T10:16:31.999Z</time></trkpt><trkpt lat="44.198376467263216" lon="11.548150988709803"><ele>519.2</ele><time>2026-04-12T10:16:33.999Z</time></trkpt><trkpt lat="44.19845856759874" lon="11.54805856332362"><ele>520.8</ele><time>2026-04-12T10:16:35.999Z</time></trkpt><trkpt lat="44.19852372752245" lon="11.54800962565033"><ele>522.4</ele><time>2026-04-12T10:16:37.999Z</time></trkpt><trkpt lat="44.198613314699415" lon="11.547946862190914"><ele>524.0</ele><time>2026-04-12T10:16:39.999Z</time></trkpt><trkpt lat="44.1986829123613" lon="11.548001829913186"><ele>524.0</ele><time>2026-04-12T10:16:41.999Z</time></trkpt><trkpt lat="44.19874780656848" lon="11.548080451186795"><ele>524.0</ele><time>2026-04-12T10:16:43.999Z</time></trkpt><trkpt lat="44.19884881804354" lon="11.54812748025369"><ele>524.0</ele><time>2026-04-12T10:16:45.999Z</time></trkpt><trkpt lat="44.19891087463914" lon="11.54816143677918"><ele>524.0</ele><time>2026-04-12T10:16:46.999Z</time></trkpt><trkpt lat="44.198973076453726" lon="11.548109631649709"><ele>524.0</ele><time>2026-04-12T10:16:49.999Z</time></trkpt><trkpt lat="44.19904923924185" lon="11.548058394043547"><ele>524.0</ele><time>2026-04-12T10:16:51.999Z</time></trkpt><trkpt lat="44.199112904312436" lon="11.54794815810025"><ele>526.6666666666666</ele><time>2026-04-12T10:16:53.999Z</time></trkpt><trkpt lat="44.19914208767067" lon="11.547860244208008"><ele>529.3333333333333</ele><time>2026-04-12T10:16:54.999Z</time></trkpt><trkpt lat="44.1991770109286" lon="11.547784583865479"><ele>532.0</ele><time>2026-04-12T10:16:55.999Z</time></trkpt><trkpt lat="44.199251079415376" lon="11.547703620552836"><ele>534.6666666666666</ele><time>2026-04-12T10:16:57.999Z</time></trkpt><trkpt lat="44.19934112220085" lon="11.547646351276182"><ele>537.3333333333334</ele><time>2026-04-12T10:16:59.999Z</time></trkpt><trkpt lat="44.19940177832409" lon="11.54749986957134"><ele>540.0</ele><time>2026-04-12T10:17:03.999Z</time></trkpt><trkpt lat="44.19944878537855" lon="11.547427371534257"><ele>540.0</ele><time>2026-04-12T10:17:04.999Z</time></trkpt><trkpt lat="44.199535828582796" lon="11.547403608067146"><ele>540.0</ele><time>2026-04-12T10:17:07.999Z</time></trkpt><trkpt lat="44.19962350949744" lon="11.547431111275701"><ele>540.0</ele><time>2026-04-12T10:17:09.999Z</time></trkpt><trkpt lat="44.19962337657838" lon="11.547525205627926"><ele>540.0</ele><time>2026-04-12T10:17:11.999Z</time></trkpt><trkpt lat="44.19966472690113" lon="11.547621883877445"><ele>540.0</ele><time>2026-04-12T10:17:15.999Z</time></trkpt><trkpt lat="44.199731805665735" lon="11.547699448965245"><ele>540.0</ele><time>2026-04-12T10:17:19.999Z</time></trkpt><trkpt lat="44.199794174846886" lon="11.547739148430404"><ele>541.0</ele><time>2026-04-12T10:17:21.999Z</time></trkpt><trkpt lat="44.19984924626968" lon="11.54781827382803"><ele>542.0</ele><time>2026-04-12T10:17:24.999Z</time></trkpt><trkpt lat="44.1999192427467" lon="11.547847037364923"><ele>543.0</ele><time>2026-04-12T10:17:27.999Z</time></trkpt><trkpt lat="44.20001555707221" lon="11.547887420205623"><ele>544.0</ele><time>2026-04-12T10:17:30.999Z</time></trkpt><trkpt lat="44.20007988429278" lon="11.54793306595696"><ele>545.0</ele><time>2026-04-12T10:17:33.999Z</time></trkpt><trkpt lat="44.200151360141305" lon="11.547915565105646"><ele>546.0</ele><time>2026-04-12T10:17:36.999Z</time></trkpt><trkpt lat="44.20023087419199" lon="11.547935673848782"><ele>541.8333333333334</ele><time>2026-04-12T10:17:41Z</time></trkpt><trkpt lat="44.200299997496096" lon="11.54798607050513"><ele>537.6666666666666</ele><time>2026-04-12T10:17:44Z</time></trkpt><trkpt lat="44.20036280579587" lon="11.54800642124433"><ele>533.5</ele><time>2026-04-12T10:17:46Z</time></trkpt><trkpt lat="44.200446892791696" lon="11.548063233713302"><ele>529.3333333333333</ele><time>2026-04-12T10:17:49Z</time></trkpt><trkpt lat="44.2005226884508" lon="11.548123221737624"><ele>525.1666666666666</ele><time>2026-04-12T10:17:52Z</time></trkpt><trkpt lat="44.200588438108184" lon="11.548200843837582"><ele>521.0</ele><time>2026-04-12T10:17:56Z</time></trkpt><trkpt lat="44.200646893088035" lon="11.548273473882192"><ele>524.4285714285714</ele><time>2026-04-12T10:18:00Z</time></trkpt><trkpt lat="44.200718940322126" lon="11.54827745190023"><ele>527.8571428571429</ele><time>2026-04-12T10:18:03Z</time></trkpt><trkpt lat="44.2007819461876" lon="11.548287792147867"><ele>531.2857142857143</ele><time>2026-04-12T10:18:06Z</time></trkpt><trkpt lat="44.20085361694193" lon="11.548290272892963"><ele>534.7142857142858</ele><time>2026-04-12T10:18:09Z</time></trkpt><trkpt lat="44.20092395664175" lon="11.548270586490332"><ele>538.1428571428572</ele><time>2026-04-12T10:18:12Z</time></trkpt><trkpt lat="44.20099617426285" lon="11.548261180801305"><ele>541.5714285714286</ele><time>2026-04-12T10:18:15Z</time></trkpt><trkpt lat="44.20107950976462" lon="11.54824079616996"><ele>545.0</ele><time>2026-04-12T10:18:19Z</time></trkpt><trkpt lat="44.2011562073521" lon="11.548211873538337"><ele>545.0</ele><time>2026-04-12T10:18:23Z</time></trkpt><trkpt lat="44.20123328533733" lon="11.548173783668938"><ele>545.0</ele><time>2026-04-12T10:18:27Z</time></trkpt><trkpt lat="44.20128832638545" lon="11.548124664341325"><ele>545.0</ele><time>2026-04-12T10:18:31Z</time></trkpt><trkpt lat="44.20136587521073" lon="11.548085015700329"><ele>545.0</ele><time>2026-04-12T10:18:33.999Z</time></trkpt><trkpt lat="44.20143780587973" lon="11.548056352138135"><ele>545.0</ele><time>2026-04-12T10:18:36.999Z</time></trkpt><trkpt lat="44.20148672940296" lon="11.547999835906207"><ele>545.0</ele><time>2026-04-12T10:18:39.999Z</time></trkpt><trkpt lat="44.201567379719855" lon="11.547993169699584"><ele>545.0</ele><time>2026-04-12T10:18:42.999Z</time></trkpt><trkpt lat="44.201624582084015" lon="11.547940403263697"><ele>548.0</ele><time>2026-04-12T10:18:45.999Z</time></trkpt><trkpt lat="44.2016880032159" lon="11.547916224395387"><ele>551.0</ele><time>2026-04-12T10:18:48.999Z</time></trkpt><trkpt lat="44.20174335485324" lon="11.547850514165567"><ele>554.0</ele><time>2026-04-12T10:18:51.999Z</time></trkpt><trkpt lat="44.20182648581072" lon="11.547850657927489"><ele>557.0</ele><time>2026-04-12T10:18:54.999Z</time></trkpt><trkpt lat="44.201910524887616" lon="11.547820345797058"><ele>560.0</ele><time>2026-04-12T10:18:57.999Z</time></trkpt><trkpt lat="44.201928738968064" lon="11.547717296215716"><ele>563.0</ele><time>2026-04-12T10:19:00.999Z</time></trkpt><trkpt lat="44.201959382360705" lon="11.547638863270944"><ele>566.0</ele><time>2026-04-12T10:19:04.999Z</time></trkpt><trkpt lat="44.202019948994355" lon="11.547611075277494"><ele>570.1428571428571</ele><time>2026-04-12T10:19:07.999Z</time></trkpt><trkpt lat="44.20209432511653" lon="11.547603167239632"><ele>574.2857142857143</ele><time>2026-04-12T10:19:10.999Z</time></trkpt><trkpt lat="44.20215681205328" lon="11.547534222753036"><ele>578.4285714285714</ele><time>2026-04-12T10:19:13.999Z</time></trkpt><trkpt lat="44.202184503147116" lon="11.547450181645754"><ele>582.5714285714286</ele><time>2026-04-12T10:19:17.999Z</time></trkpt><trkpt lat="44.20225018349026" lon="11.547448359918022"><ele>586.7142857142858</ele><time>2026-04-12T10:19:20.999Z</time></trkpt><trkpt lat="44.2023184180585" lon="11.547474839281712"><ele>590.8571428571429</ele><time>2026-04-12T10:19:24.999Z</time></trkpt><trkpt lat="44.20240128441958" lon="11.547459463499647"><ele>595.0</ele><time>2026-04-12T10:19:27.999Z</time></trkpt><trkpt lat="44.20247679526068" lon="11.547430466541217"><ele>596.0</ele><time>2026-04-12T10:19:31.999Z</time></trkpt><trkpt lat="44.20254733397035" lon="11.547414771027155"><ele>597.0</ele><time>2026-04-12T10:19:34.999Z</time></trkpt><trkpt lat="44.20260869228441" lon="11.547437263767456"><ele>598.0</ele><time>2026-04-12T10:19:36.999Z</time></trkpt><trkpt lat="44.202664220902776" lon="11.54749798467164"><ele>599.0</ele><time>2026-04-12T10:19:39.999Z</time></trkpt><trkpt lat="44.20273004508464" lon="11.547542484525747"><ele>600.0</ele><time>2026-04-12T10:19:43.999Z</time></trkpt><trkpt lat="44.20280638565413" lon="11.547544410693545"><ele>601.0</ele><time>2026-04-12T10:19:47Z</time></trkpt><trkpt lat="44.20286991633573" lon="11.547604874933889"><ele>602.0</ele><time>2026-04-12T10:19:50Z</time></trkpt><trkpt lat="44.20293385418491" lon="11.547640834112798"><ele>602.0</ele><time>2026-04-12T10:19:54Z</time></trkpt><trkpt lat="44.202934138128185" lon="11.54774307831433"><ele>602.0</ele><time>2026-04-12T10:19:59Z</time></trkpt><trkpt lat="44.202885631794366" lon="11.547882508667419"><ele>602.0</ele><time>2026-04-12T10:20:04Z</time></trkpt><trkpt lat="44.20285979627372" lon="11.547990702503931"><ele>602.0</ele><time>2026-04-12T10:20:05Z</time></trkpt><trkpt lat="44.202856035483556" lon="11.548104840153322"><ele>602.0</ele><time>2026-04-12T10:20:06Z</time></trkpt><trkpt lat="44.20282821149746" lon="11.548252082486085"><ele>600.0</ele><time>2026-04-12T10:20:07Z</time></trkpt><trkpt lat="44.202760750840525" lon="11.548306720733354"><ele>598.0</ele><time>2026-04-12T10:20:08Z</time></trkpt><trkpt lat="44.2026680085909" lon="11.548416245407129"><ele>596.0</ele><time>2026-04-12T10:20:10Z</time></trkpt><trkpt lat="44.20262010033626" lon="11.54848244051401"><ele>594.0</ele><time>2026-04-12T10:20:11Z</time></trkpt><trkpt lat="44.202572457523445" lon="11.548575031735622"><ele>592.0</ele><time>2026-04-12T10:20:12Z</time></trkpt><trkpt lat="44.202554663997695" lon="11.548666523996742"><ele>590.0</ele><time>2026-04-12T10:20:13Z</time></trkpt><trkpt lat="44.202547552315515" lon="11.548762463548332"><ele>589.0</ele><time>2026-04-12T10:20:14Z</time></trkpt><trkpt lat="44.20252814411765" lon="11.548910264120023"><ele>588.0</ele><time>2026-04-12T10:20:16Z</time></trkpt><trkpt lat="44.20255226214739" lon="11.549058883335526"><ele>587.0</ele><time>2026-04-12T10:20:18Z</time></trkpt><trkpt lat="44.202661110768425" lon="11.549130343362014"><ele>586.0</ele><time>2026-04-12T10:20:20Z</time></trkpt><trkpt lat="44.20273246669214" lon="11.54916927347763"><ele>585.0</ele><time>2026-04-12T10:20:21Z</time></trkpt><trkpt lat="44.202805521854124" lon="11.5492048821416"><ele>585.0</ele><time>2026-04-12T10:20:22Z</time></trkpt><trkpt lat="44.202879967802886" lon="11.54922855953079"><ele>585.0</ele><time>2026-04-12T10:20:23Z</time></trkpt><trkpt lat="44.20295988868082" lon="11.549273739516153"><ele>585.0</ele><time>2026-04-12T10:20:24Z</time></trkpt><trkpt lat="44.20309031418809" lon="11.54932535332671"><ele>585.0</ele><time>2026-04-12T10:20:26Z</time></trkpt><trkpt lat="44.20316710133625" lon="11.549323767335165"><ele>585.0</ele><time>2026-04-12T10:20:27Z</time></trkpt><trkpt lat="44.20324063651613" lon="11.549321253204603"><ele>585.0</ele><time>2026-04-12T10:20:28Z</time></trkpt><trkpt lat="44.20330429381756" lon="11.549362287749982"><ele>587.6666666666666</ele><time>2026-04-12T10:20:29Z</time></trkpt><trkpt lat="44.203375862605334" lon="11.549398868494498"><ele>590.3333333333334</ele><time>2026-04-12T10:20:30Z</time></trkpt><trkpt lat="44.2034749604968" lon="11.549437126803776"><ele>593.0</ele><time>2026-04-12T10:20:32Z</time></trkpt><trkpt lat="44.20351522085711" lon="11.54953560868383"><ele>595.6666666666667</ele><time>2026-04-12T10:20:34Z</time></trkpt><trkpt lat="44.20353669076181" lon="11.549648769086996"><ele>598.3333333333334</ele><time>2026-04-12T10:20:36Z</time></trkpt><trkpt lat="44.20345050803581" lon="11.549701007167627"><ele>601.0</ele><time>2026-04-12T10:20:38Z</time></trkpt><trkpt lat="44.20341040731124" lon="11.549789196421747"><ele>601.0</ele><time>2026-04-12T10:20:40Z</time></trkpt><trkpt lat="44.203417392534206" lon="11.549894698403326"><ele>601.0</ele><time>2026-04-12T10:20:42.999Z</time></trkpt><trkpt lat="44.20346878124517" lon="11.549973545819098"><ele>601.0</ele><time>2026-04-12T10:21:00.999Z</time></trkpt><trkpt lat="44.20343089020787" lon="11.550045515165184"><ele>601.0</ele><time>2026-04-12T10:21:24.999Z</time></trkpt><trkpt lat="44.20340610822527" lon="11.550142566455616"><ele>601.0</ele><time>2026-04-12T10:21:43.999Z</time></trkpt><trkpt lat="44.203372686178994" lon="11.550221693631253"><ele>601.0</ele><time>2026-04-12T10:21:48.999Z</time></trkpt><trkpt lat="44.20333786116153" lon="11.550300478386797"><ele>601.0</ele><time>2026-04-12T10:21:54Z</time></trkpt><trkpt lat="44.20328750215243" lon="11.550378533534913"><ele>602.0</ele><time>2026-04-12T10:21:59Z</time></trkpt><trkpt lat="44.20323429977777" lon="11.55043943953595"><ele>603.0</ele><time>2026-04-12T10:22:04Z</time></trkpt><trkpt lat="44.203209732741904" lon="11.550541077694879"><ele>604.0</ele><time>2026-04-12T10:22:44Z</time></trkpt><trkpt lat="44.203176272200785" lon="11.550628557091185"><ele>605.0</ele><time>2026-04-12T10:22:47Z</time></trkpt><trkpt lat="44.20316365277107" lon="11.550748729598336"><ele>606.0</ele><time>2026-04-12T10:22:50.999Z</time></trkpt><trkpt lat="44.20317169438782" lon="11.55087265927001"><ele>607.0</ele><time>2026-04-12T10:22:54.999Z</time></trkpt><trkpt lat="44.20324251508044" lon="11.55092601744362"><ele>607.0</ele><time>2026-04-12T10:22:57.999Z</time></trkpt><trkpt lat="44.20331230049568" lon="11.550912687995082"><ele>607.0</ele><time>2026-04-12T10:23:00.999Z</time></trkpt><trkpt lat="44.20339201086611" lon="11.550886147279545"><ele>607.0</ele><time>2026-04-12T10:23:02.999Z</time></trkpt><trkpt lat="44.20349573493259" lon="11.550852160268605"><ele>607.0</ele><time>2026-04-12T10:23:04.999Z</time></trkpt><trkpt lat="44.203562640765185" lon="11.550871796079816"><ele>607.0</ele><time>2026-04-12T10:23:06.999Z</time></trkpt><trkpt lat="44.20362588121799" lon="11.550885066581943"><ele>607.0</ele><time>2026-04-12T10:23:07.999Z</time></trkpt><trkpt lat="44.203688630548875" lon="11.550955301458576"><ele>607.0</ele><time>2026-04-12T10:23:08.999Z</time></trkpt><trkpt lat="44.20376798836804" lon="11.550891564342468"><ele>607.0</ele><time>2026-04-12T10:23:10.999Z</time></trkpt><trkpt lat="44.20388500036132" lon="11.550906956890994"><ele>607.0</ele><time>2026-04-12T10:23:12.999Z</time></trkpt><trkpt lat="44.20397001427941" lon="11.550888715833882"><ele>607.0</ele><time>2026-04-12T10:23:14.999Z</time></trkpt><trkpt lat="44.2040367592479" lon="11.550968459993825"><ele>607.0</ele><time>2026-04-12T10:23:16.999Z</time></trkpt><trkpt lat="44.204126037338675" lon="11.550954263088002"><ele>609.6</ele><time>2026-04-12T10:23:18.999Z</time></trkpt><trkpt lat="44.204247792000665" lon="11.550967845673922"><ele>612.2</ele><time>2026-04-12T10:23:20.999Z</time></trkpt><trkpt lat="44.20435895698059" lon="11.550966116881073"><ele>614.8</ele><time>2026-04-12T10:23:22.999Z</time></trkpt><trkpt lat="44.204480508977966" lon="11.550934303239703"><ele>617.4</ele><time>2026-04-12T10:23:24.999Z</time></trkpt><trkpt lat="44.2045467671517" lon="11.55095808886273"><ele>620.0</ele><time>2026-04-12T10:23:26.999Z</time></trkpt><trkpt lat="44.20464157511231" lon="11.550995204425693"><ele>620.0</ele><time>2026-04-12T10:23:28.999Z</time></trkpt><trkpt lat="44.20470665342006" lon="11.551000611810606"><ele>620.0</ele><time>2026-04-12T10:23:29.999Z</time></trkpt><trkpt lat="44.204770101730055" lon="11.550966653998485"><ele>620.0</ele><time>2026-04-12T10:23:30.999Z</time></trkpt><trkpt lat="44.20483112270984" lon="11.55094072145115"><ele>620.0</ele><time>2026-04-12T10:23:31.999Z</time></trkpt><trkpt lat="44.20490682035484" lon="11.55093527938699"><ele>620.0</ele><time>2026-04-12T10:23:32.999Z</time></trkpt><trkpt lat="44.204972988587045" lon="11.550912560263498"><ele>620.0</ele><time>2026-04-12T10:23:33.999Z</time></trkpt><trkpt lat="44.20509442517895" lon="11.550889055949002"><ele>619.0</ele><time>2026-04-12T10:23:35.999Z</time></trkpt><trkpt lat="44.20515221953886" lon="11.550839303412886"><ele>618.0</ele><time>2026-04-12T10:23:36.999Z</time></trkpt><trkpt lat="44.205245400072506" lon="11.550780361011274"><ele>617.0</ele><time>2026-04-12T10:23:38.999Z</time></trkpt><trkpt lat="44.20530011373782" lon="11.550727052143092"><ele>616.0</ele><time>2026-04-12T10:23:41.999Z</time></trkpt><trkpt lat="44.205378675829024" lon="11.550708010391563"><ele>615.0</ele><time>2026-04-12T10:23:43.999Z</time></trkpt><trkpt lat="44.20544153545945" lon="11.550732279550939"><ele>614.0</ele><time>2026-04-12T10:23:44.999Z</time></trkpt><trkpt lat="44.20551563645537" lon="11.550730564574089"><ele>614.0</ele><time>2026-04-12T10:23:45.999Z</time></trkpt><trkpt lat="44.205600314567754" lon="11.550742518130969"><ele>614.0</ele><time>2026-04-12T10:23:47.999Z</time></trkpt><trkpt lat="44.20571054018887" lon="11.550767592193045"><ele>614.0</ele><time>2026-04-12T10:23:50.999Z</time></trkpt><trkpt lat="44.20576703417248" lon="11.550810968219112"><ele>614.0</ele><time>2026-04-12T10:23:51.999Z</time></trkpt><trkpt lat="44.205852575394246" lon="11.55086338784979"><ele>614.0</ele><time>2026-04-12T10:23:53.999Z</time></trkpt><trkpt lat="44.2058838808632" lon="11.550954958117186"><ele>614.0</ele><time>2026-04-12T10:23:55.999Z</time></trkpt><trkpt lat="44.205945076684436" lon="11.551001139732486"><ele>613.5714285714286</ele><time>2026-04-12T10:23:58Z</time></trkpt><trkpt lat="44.205910281265346" lon="11.551088905803931"><ele>613.1428571428571</ele><time>2026-04-12T10:24:03Z</time></trkpt><trkpt lat="44.2059161329738" lon="11.551184182613424"><ele>612.7142857142858</ele><time>2026-04-12T10:24:05Z</time></trkpt><trkpt lat="44.20596670609156" lon="11.55126708902403"><ele>612.2857142857142</ele><time>2026-04-12T10:24:07Z</time></trkpt><trkpt lat="44.206038685829185" lon="11.551280660643213"><ele>611.8571428571429</ele><time>2026-04-12T10:24:10Z</time></trkpt><trkpt lat="44.20609757860388" lon="11.55132449630802"><ele>611.4285714285714</ele><time>2026-04-12T10:24:14Z</time></trkpt><trkpt lat="44.206181698289086" lon="11.551334931857133"><ele>611.0</ele><time>2026-04-12T10:24:18Z</time></trkpt><trkpt lat="44.20626443344913" lon="11.551327775733315"><ele>611.1666666666666</ele><time>2026-04-12T10:24:22Z</time></trkpt><trkpt lat="44.20634886221909" lon="11.55129581830751"><ele>611.3333333333333</ele><time>2026-04-12T10:24:26Z</time></trkpt><trkpt lat="44.206425831736055" lon="11.551261647812762"><ele>611.5</ele><time>2026-04-12T10:24:30Z</time></trkpt><trkpt lat="44.20650003658043" lon="11.551298568367342"><ele>611.6666666666666</ele><time>2026-04-12T10:24:34Z</time></trkpt><trkpt lat="44.206564153036105" lon="11.551331741564503"><ele>611.8333333333334</ele><time>2026-04-12T10:24:37Z</time></trkpt><trkpt lat="44.20663755580557" lon="11.55137531979986"><ele>612.0</ele><time>2026-04-12T10:24:41Z</time></trkpt><trkpt lat="44.206701820002024" lon="11.551430498081912"><ele>612.0</ele><time>2026-04-12T10:24:44Z</time></trkpt><trkpt lat="44.20673071276649" lon="11.551516138364844"><ele>612.0</ele><time>2026-04-12T10:24:47Z</time></trkpt><trkpt lat="44.206759933737544" lon="11.551612849803305"><ele>612.0</ele><time>2026-04-12T10:24:50Z</time></trkpt><trkpt lat="44.206775088274625" lon="11.55169906259111"><ele>612.0</ele><time>2026-04-12T10:24:54Z</time></trkpt><trkpt lat="44.20681652036912" lon="11.551797594066983"><ele>612.0</ele><time>2026-04-12T10:24:56.999Z</time></trkpt><trkpt lat="44.206849692991554" lon="11.551884333498373"><ele>612.0</ele><time>2026-04-12T10:24:59.999Z</time></trkpt><trkpt lat="44.206891993756116" lon="11.551971655340884"><ele>612.0</ele><time>2026-04-12T10:25:02.999Z</time></trkpt><trkpt lat="44.20694457295131" lon="11.552043881899102"><ele>611.2857142857142</ele><time>2026-04-12T10:25:05.999Z</time></trkpt><trkpt lat="44.20700796961966" lon="11.552058345713197"><ele>610.5714285714286</ele><time>2026-04-12T10:25:07.999Z</time></trkpt><trkpt lat="44.20708420013077" lon="11.552055781795191"><ele>609.8571428571429</ele><time>2026-04-12T10:25:10.999Z</time></trkpt><trkpt lat="44.20714916866155" lon="11.552073077446558"><ele>609.1428571428571</ele><time>2026-04-12T10:25:13.999Z</time></trkpt><trkpt lat="44.2071238526477" lon="11.55216641843941"><ele>608.4285714285714</ele><time>2026-04-12T10:25:16.999Z</time></trkpt><trkpt lat="44.207082193455996" lon="11.552267078287247"><ele>607.7142857142857</ele><time>2026-04-12T10:25:19.999Z</time></trkpt><trkpt lat="44.20705164938927" lon="11.55237346771871"><ele>607.0</ele><time>2026-04-12T10:25:22.999Z</time></trkpt><trkpt lat="44.20701608010856" lon="11.552463535524502"><ele>606.9999999999999</ele><time>2026-04-12T10:25:24.999Z</time></trkpt><trkpt lat="44.2069964300931" lon="11.552555285787165"><ele>607.0</ele><time>2026-04-12T10:25:26.999Z</time></trkpt><trkpt lat="44.206966222479934" lon="11.55264655477277"><ele>607.0</ele><time>2026-04-12T10:25:28.999Z</time></trkpt><trkpt lat="44.20693752028043" lon="11.55273634961819"><ele>607.0</ele><time>2026-04-12T10:25:30.999Z</time></trkpt><trkpt lat="44.20691322365741" lon="11.552820149084775"><ele>607.0</ele><time>2026-04-12T10:25:32.999Z</time></trkpt><trkpt lat="44.20688626915773" lon="11.552901790465512"><ele>606.9999999999999</ele><time>2026-04-12T10:25:34.999Z</time></trkpt><trkpt lat="44.206863543263495" lon="11.552987230003263"><ele>607.0</ele><time>2026-04-12T10:25:36.999Z</time></trkpt><trkpt lat="44.2068608319459" lon="11.553076454084202"><ele>607.5</ele><time>2026-04-12T10:25:38.999Z</time></trkpt><trkpt lat="44.20687135292656" lon="11.553167271871374"><ele>608.0</ele><time>2026-04-12T10:25:40.999Z</time></trkpt><trkpt lat="44.206912038675085" lon="11.553262990093359"><ele>608.5</ele><time>2026-04-12T10:25:42.999Z</time></trkpt><trkpt lat="44.20695607056897" lon="11.553355913394475"><ele>609.0</ele><time>2026-04-12T10:25:44.999Z</time></trkpt><trkpt lat="44.207011578010956" lon="11.553459729546004"><ele>609.5</ele><time>2026-04-12T10:25:46.999Z</time></trkpt><trkpt lat="44.207050066967774" lon="11.553585497937052"><ele>610.0</ele><time>2026-04-12T10:25:48.999Z</time></trkpt><trkpt lat="44.2070624595481" lon="11.553726481802846"><ele>608.5</ele><time>2026-04-12T10:25:50.999Z</time></trkpt><trkpt lat="44.20706353746994" lon="11.553886833299796"><ele>607.0</ele><time>2026-04-12T10:25:52.999Z</time></trkpt><trkpt lat="44.207069817658535" lon="11.55405166531305"><ele>605.5</ele><time>2026-04-12T10:25:54.999Z</time></trkpt><trkpt lat="44.207097601645884" lon="11.554137282710586"><ele>604.0</ele><time>2026-04-12T10:25:55.999Z</time></trkpt><trkpt lat="44.20713979491204" lon="11.554210482227475"><ele>602.5</ele><time>2026-04-12T10:25:56.999Z</time></trkpt><trkpt lat="44.20718868122999" lon="11.55428750108273"><ele>601.0</ele><time>2026-04-12T10:25:57.999Z</time></trkpt><trkpt lat="44.207221947268515" lon="11.554375502056052"><ele>601.0</ele><time>2026-04-12T10:25:58.999Z</time></trkpt><trkpt lat="44.20724409123358" lon="11.55447345159683"><ele>601.0</ele><time>2026-04-12T10:25:59.999Z</time></trkpt><trkpt lat="44.207251065679024" lon="11.55457846185694"><ele>601.0</ele><time>2026-04-12T10:26:00.999Z</time></trkpt><trkpt lat="44.20724198553349" lon="11.554692864135957"><ele>601.0</ele><time>2026-04-12T10:26:01.999Z</time></trkpt><trkpt lat="44.207236708838785" lon="11.554811011123151"><ele>601.0</ele><time>2026-04-12T10:26:03Z</time></trkpt><trkpt lat="44.20723493704761" lon="11.554922048528946"><ele>601.0</ele><time>2026-04-12T10:26:04Z</time></trkpt><trkpt lat="44.20724217617308" lon="11.555026309345038"><ele>602.0</ele><time>2026-04-12T10:26:05Z</time></trkpt><trkpt lat="44.20725755940592" lon="11.555143584431283"><ele>603.0</ele><time>2026-04-12T10:26:06Z</time></trkpt><trkpt lat="44.20728729372525" lon="11.555259996071255"><ele>604.0</ele><time>2026-04-12T10:26:07Z</time></trkpt><trkpt lat="44.20731325526897" lon="11.555362324015805"><ele>605.0</ele><time>2026-04-12T10:26:08Z</time></trkpt><trkpt lat="44.20733794315069" lon="11.555468398523374"><ele>606.0</ele><time>2026-04-12T10:26:09Z</time></trkpt><trkpt lat="44.20734940333569" lon="11.555605971502255"><ele>607.0</ele><time>2026-04-12T10:26:10Z</time></trkpt><trkpt lat="44.20734854873141" lon="11.555725547097513"><ele>604.8333333333334</ele><time>2026-04-12T10:26:11Z</time></trkpt><trkpt lat="44.20731334634454" lon="11.55583961390251"><ele>602.6666666666667</ele><time>2026-04-12T10:26:12Z</time></trkpt><trkpt lat="44.2072710699706" lon="11.555938310011596"><ele>600.5</ele><time>2026-04-12T10:26:13Z</time></trkpt><trkpt lat="44.20722901437477" lon="11.556019958186852"><ele>598.3333333333334</ele><time>2026-04-12T10:26:14Z</time></trkpt><trkpt lat="44.20718939350249" lon="11.556092451781979"><ele>596.1666666666666</ele><time>2026-04-12T10:26:15Z</time></trkpt><trkpt lat="44.20715229359644" lon="11.556236760453489"><ele>594.0</ele><time>2026-04-12T10:26:17Z</time></trkpt><trkpt lat="44.207133695602124" lon="11.556399394991548"><ele>594.0</ele><time>2026-04-12T10:26:19Z</time></trkpt><trkpt lat="44.20712384895054" lon="11.556555791368625"><ele>594.0</ele><time>2026-04-12T10:26:21Z</time></trkpt><trkpt lat="44.20711796083476" lon="11.556731249410234"><ele>594.0</ele><time>2026-04-12T10:26:23Z</time></trkpt><trkpt lat="44.20708087774693" lon="11.556897199385515"><ele>594.0</ele><time>2026-04-12T10:26:25Z</time></trkpt><trkpt lat="44.2070461838129" lon="11.556982447367785"><ele>594.0</ele><time>2026-04-12T10:26:26Z</time></trkpt><trkpt lat="44.20701239511585" lon="11.557065783113591"><ele>595.0</ele><time>2026-04-12T10:26:27Z</time></trkpt><trkpt lat="44.20698734397224" lon="11.557148418120974"><ele>596.0</ele><time>2026-04-12T10:26:28Z</time></trkpt><trkpt lat="44.20696938534312" lon="11.557248150418381"><ele>597.0</ele><time>2026-04-12T10:26:29Z</time></trkpt><trkpt lat="44.206951430505754" lon="11.55734438692162"><ele>598.0</ele><time>2026-04-12T10:26:30Z</time></trkpt><trkpt lat="44.2069372876779" lon="11.557437847129009"><ele>599.0</ele><time>2026-04-12T10:26:31Z</time></trkpt><trkpt lat="44.20691060471624" lon="11.557601297997362"><ele>600.0</ele><time>2026-04-12T10:26:33Z</time></trkpt><trkpt lat="44.20689717504901" lon="11.557691893567348"><ele>600.0</ele><time>2026-04-12T10:26:34Z</time></trkpt><trkpt lat="44.20687432482702" lon="11.557783036425775"><ele>600.0</ele><time>2026-04-12T10:26:35Z</time></trkpt><trkpt lat="44.206832772847456" lon="11.557930932121549"><ele>600.0</ele><time>2026-04-12T10:26:37Z</time></trkpt><trkpt lat="44.206818302466544" lon="11.55808551069236"><ele>600.0</ele><time>2026-04-12T10:26:39Z</time></trkpt><trkpt lat="44.206824312186875" lon="11.558233677070369"><ele>600.0</ele><time>2026-04-12T10:26:41Z</time></trkpt><trkpt lat="44.206830375687616" lon="11.558388774275967"><ele>603.25</ele><time>2026-04-12T10:26:43Z</time></trkpt><trkpt lat="44.20687476616931" lon="11.558536320244242"><ele>606.5</ele><time>2026-04-12T10:26:45Z</time></trkpt><trkpt lat="44.206903209075506" lon="11.55868937704082"><ele>609.75</ele><time>2026-04-12T10:26:47Z</time></trkpt><trkpt lat="44.20694264526745" lon="11.558832313736064"><ele>613.0</ele><time>2026-04-12T10:26:49Z</time></trkpt><trkpt lat="44.20698060049574" lon="11.55898584871883"><ele>615.0</ele><time>2026-04-12T10:26:51Z</time></trkpt><trkpt lat="44.207017414224744" lon="11.559121444634537"><ele>617.0</ele><time>2026-04-12T10:26:53Z</time></trkpt><trkpt lat="44.207044393769216" lon="11.559249784570236"><ele>619.0</ele><time>2026-04-12T10:26:55Z</time></trkpt><trkpt lat="44.20692735272513" lon="11.55939469218992"><ele>621.0</ele><time>2026-04-12T10:27:00Z</time></trkpt><trkpt lat="44.206830389304216" lon="11.559415924489638"><ele>621.0</ele><time>2026-04-12T10:27:01Z</time></trkpt><trkpt lat="44.20674209427505" lon="11.55943588348003"><ele>621.0</ele><time>2026-04-12T10:27:02Z</time></trkpt><trkpt lat="44.20667322859127" lon="11.559479362668784"><ele>621.0</ele><time>2026-04-12T10:27:03Z</time></trkpt><trkpt lat="44.206589774026945" lon="11.559546397864693"><ele>621.0</ele><time>2026-04-12T10:27:03.999Z</time></trkpt><trkpt lat="44.206527360331016" lon="11.55963607728038"><ele>621.0</ele><time>2026-04-12T10:27:04.999Z</time></trkpt><trkpt lat="44.20645308318229" lon="11.559682001557519"><ele>621.0</ele><time>2026-04-12T10:27:05.999Z</time></trkpt><trkpt lat="44.206386326810104" lon="11.559683381118122"><ele>616.6</ele><time>2026-04-12T10:27:06.999Z</time></trkpt><trkpt lat="44.206297171513455" lon="11.559778361513494"><ele>612.2</ele><time>2026-04-12T10:27:08.999Z</time></trkpt><trkpt lat="44.20621734663216" lon="11.559864879231586"><ele>607.8</ele><time>2026-04-12T10:27:09.999Z</time></trkpt><trkpt lat="44.20614693660885" lon="11.559844846907724"><ele>603.4</ele><time>2026-04-12T10:27:10.999Z</time></trkpt><trkpt lat="44.20608354023431" lon="11.55987091620265"><ele>599.0</ele><time>2026-04-12T10:27:11.999Z</time></trkpt><trkpt lat="44.20600146892182" lon="11.5599673104553"><ele>599.0</ele><time>2026-04-12T10:27:13.999Z</time></trkpt><trkpt lat="44.20592398252898" lon="11.560011174261476"><ele>599.0</ele><time>2026-04-12T10:27:16.999Z</time></trkpt><trkpt lat="44.20586547403063" lon="11.560070063654633"><ele>599.0</ele><time>2026-04-12T10:27:18.999Z</time></trkpt><trkpt lat="44.20578496556027" lon="11.560132378160628"><ele>599.0</ele><time>2026-04-12T10:27:20.999Z</time></trkpt><trkpt lat="44.20573401709899" lon="11.560199000030371"><ele>599.0</ele><time>2026-04-12T10:27:22.999Z</time></trkpt><trkpt lat="44.20572694026964" lon="11.560110191107794"><ele>599.0</ele><time>2026-04-12T10:27:24.999Z</time></trkpt><trkpt lat="44.20571284603984" lon="11.55997115389768"><ele>594.1666666666666</ele><time>2026-04-12T10:27:26.999Z</time></trkpt><trkpt lat="44.20564456486248" lon="11.559853737235867"><ele>589.3333333333333</ele><time>2026-04-12T10:27:28.999Z</time></trkpt><trkpt lat="44.20558442003286" lon="11.55975744029181"><ele>584.5</ele><time>2026-04-12T10:27:30.999Z</time></trkpt><trkpt lat="44.20548645063561" lon="11.559730155824415"><ele>579.6666666666666</ele><time>2026-04-12T10:27:33.999Z</time></trkpt><trkpt lat="44.20542627717616" lon="11.559699248024138"><ele>574.8333333333334</ele><time>2026-04-12T10:27:34.999Z</time></trkpt><trkpt lat="44.20536037999792" lon="11.55965243226431"><ele>570.0</ele><time>2026-04-12T10:27:35.999Z</time></trkpt><trkpt lat="44.20529584208492" lon="11.559587683496272"><ele>570.0</ele><time>2026-04-12T10:27:36.999Z</time></trkpt><trkpt lat="44.205223842239285" lon="11.559576916158957"><ele>570.0</ele><time>2026-04-12T10:27:37.999Z</time></trkpt><trkpt lat="44.20516041090184" lon="11.559582805632365"><ele>570.0</ele><time>2026-04-12T10:27:38.999Z</time></trkpt><trkpt lat="44.20509213741933" lon="11.559562675683058"><ele>570.0</ele><time>2026-04-12T10:27:39.999Z</time></trkpt><trkpt lat="44.205013858393514" lon="11.559532500898012"><ele>570.0</ele><time>2026-04-12T10:27:40.999Z</time></trkpt><trkpt lat="44.204932330996385" lon="11.55953737271928"><ele>570.0</ele><time>2026-04-12T10:27:41.999Z</time></trkpt><trkpt lat="44.204861162621526" lon="11.559548536014"><ele>570.0</ele><time>2026-04-12T10:27:42.999Z</time></trkpt><trkpt lat="44.20474420460692" lon="11.559585221863834"><ele>567.4</ele><time>2026-04-12T10:27:43.999Z</time></trkpt><trkpt lat="44.204636542609364" lon="11.559625755324394"><ele>564.8</ele><time>2026-04-12T10:27:44.999Z</time></trkpt><trkpt lat="44.20456664685706" lon="11.559675734384687"><ele>562.2</ele><time>2026-04-12T10:27:45.999Z</time></trkpt><trkpt lat="44.204480343432316" lon="11.55970819410438"><ele>559.6</ele><time>2026-04-12T10:27:46.999Z</time></trkpt><trkpt lat="44.204363013350694" lon="11.559790558508684"><ele>557.0</ele><time>2026-04-12T10:27:47.999Z</time></trkpt><trkpt lat="44.204278160373676" lon="11.559856999121205"><ele>557.0</ele><time>2026-04-12T10:27:48.999Z</time></trkpt><trkpt lat="44.20418499755442" lon="11.559918086072862"><ele>557.0</ele><time>2026-04-12T10:27:49.999Z</time></trkpt><trkpt lat="44.20407030985576" lon="11.559961756115635"><ele>557.0</ele><time>2026-04-12T10:27:50.999Z</time></trkpt><trkpt lat="44.20402001692963" lon="11.560029173850637"><ele>557.0</ele><time>2026-04-12T10:27:51.999Z</time></trkpt><trkpt lat="44.20399025987089" lon="11.560140622957947"><ele>557.0</ele><time>2026-04-12T10:27:53.999Z</time></trkpt><trkpt lat="44.203890393029056" lon="11.560174442730123"><ele>556.3333333333333</ele><time>2026-04-12T10:27:54.999Z</time></trkpt><trkpt lat="44.20379669028495" lon="11.560182555300507"><ele>555.6666666666666</ele><time>2026-04-12T10:27:55.999Z</time></trkpt><trkpt lat="44.20372679389033" lon="11.56021293248521"><ele>555.0</ele><time>2026-04-12T10:27:56.999Z</time></trkpt><trkpt lat="44.2036640543692" lon="11.560237868418492"><ele>554.3333333333334</ele><time>2026-04-12T10:27:57.999Z</time></trkpt><trkpt lat="44.20355099176337" lon="11.560296233112833"><ele>553.6666666666667</ele><time>2026-04-12T10:27:59.999Z</time></trkpt><trkpt lat="44.2035103943653" lon="11.56040528714737"><ele>553.0</ele><time>2026-04-12T10:28:01.999Z</time></trkpt><trkpt lat="44.203420092904615" lon="11.560447021869665"><ele>553.0</ele><time>2026-04-12T10:28:02.999Z</time></trkpt><trkpt lat="44.20335831479434" lon="11.560519053757673"><ele>553.0</ele><time>2026-04-12T10:28:03.999Z</time></trkpt><trkpt lat="44.203268145331634" lon="11.560560888034123"><ele>553.0</ele><time>2026-04-12T10:28:04.999Z</time></trkpt><trkpt lat="44.20318239093361" lon="11.560560762721936"><ele>553.0</ele><time>2026-04-12T10:28:05.999Z</time></trkpt><trkpt lat="44.20307850432601" lon="11.560536845673557"><ele>553.0</ele><time>2026-04-12T10:28:09Z</time></trkpt><trkpt lat="44.202930129430314" lon="11.560534530583707"><ele>553.0</ele><time>2026-04-12T10:28:10Z</time></trkpt><trkpt lat="44.20285339363751" lon="11.560537595436593"><ele>553.0</ele><time>2026-04-12T10:28:11Z</time></trkpt><trkpt lat="44.2027459793532" lon="11.560554302886283"><ele>553.0</ele><time>2026-04-12T10:28:13Z</time></trkpt><trkpt lat="44.202670497659504" lon="11.56058086507827"><ele>553.0</ele><time>2026-04-12T10:28:14Z</time></trkpt><trkpt lat="44.20253772195848" lon="11.560587355341823"><ele>553.0</ele><time>2026-04-12T10:28:16Z</time></trkpt><trkpt lat="44.202460734763974" lon="11.560600240656022"><ele>553.0</ele><time>2026-04-12T10:28:17Z</time></trkpt><trkpt lat="44.20239575837161" lon="11.56059803759467"><ele>553.0</ele><time>2026-04-12T10:28:18Z</time></trkpt><trkpt lat="44.20231378130187" lon="11.560639757381834"><ele>553.0</ele><time>2026-04-12T10:28:19Z</time></trkpt><trkpt lat="44.20225110029506" lon="11.560615966583702"><ele>553.0</ele><time>2026-04-12T10:28:20Z</time></trkpt><trkpt lat="44.202166579676955" lon="11.560601579843715"><ele>553.0</ele><time>2026-04-12T10:28:21Z</time></trkpt><trkpt lat="44.20209210080072" lon="11.560587936936994"><ele>553.0</ele><time>2026-04-12T10:28:22Z</time></trkpt><trkpt lat="44.20200336925116" lon="11.560633764958238"><ele>551.0</ele><time>2026-04-12T10:28:24Z</time></trkpt><trkpt lat="44.20190251535909" lon="11.560641215366113"><ele>549.0</ele><time>2026-04-12T10:28:26Z</time></trkpt><trkpt lat="44.20183909401103" lon="11.560610850322929"><ele>547.0</ele><time>2026-04-12T10:28:27Z</time></trkpt><trkpt lat="44.201761358662" lon="11.56058590275673"><ele>545.0</ele><time>2026-04-12T10:28:29Z</time></trkpt><trkpt lat="44.20169066219199" lon="11.560593512354277"><ele>543.0</ele><time>2026-04-12T10:28:31Z</time></trkpt><trkpt lat="44.20156828123009" lon="11.560602384317216"><ele>541.0</ele><time>2026-04-12T10:28:33Z</time></trkpt><trkpt lat="44.201486377660416" lon="11.560613270883412"><ele>536.5</ele><time>2026-04-12T10:28:35Z</time></trkpt><trkpt lat="44.201407362566705" lon="11.560564010648346"><ele>532.0</ele><time>2026-04-12T10:28:37Z</time></trkpt><trkpt lat="44.20131679542677" lon="11.560624904588533"><ele>527.5</ele><time>2026-04-12T10:28:41Z</time></trkpt><trkpt lat="44.20123225119735" lon="11.560606341512374"><ele>523.0</ele><time>2026-04-12T10:28:43Z</time></trkpt><trkpt lat="44.20115526217537" lon="11.560564114519881"><ele>518.5</ele><time>2026-04-12T10:28:45Z</time></trkpt><trkpt lat="44.20108517027702" lon="11.560532259328365"><ele>514.0</ele><time>2026-04-12T10:28:47Z</time></trkpt><trkpt lat="44.20101758633774" lon="11.560490099255553"><ele>514.0</ele><time>2026-04-12T10:28:49Z</time></trkpt><trkpt lat="44.200943750825815" lon="11.560460925572743"><ele>514.0</ele><time>2026-04-12T10:28:51Z</time></trkpt><trkpt lat="44.20085712956764" lon="11.560477369653816"><ele>514.0</ele><time>2026-04-12T10:28:53Z</time></trkpt><trkpt lat="44.20077983836566" lon="11.560461267691856"><ele>514.0</ele><time>2026-04-12T10:28:54Z</time></trkpt><trkpt lat="44.20064871376196" lon="11.560440075188284"><ele>514.0</ele><time>2026-04-12T10:28:56Z</time></trkpt><trkpt lat="44.20058614678654" lon="11.560426463538754"><ele>514.0</ele><time>2026-04-12T10:28:57Z</time></trkpt><trkpt lat="44.20052063805654" lon="11.56047526364632"><ele>513.0</ele><time>2026-04-12T10:28:58Z</time></trkpt><trkpt lat="44.20039264973166" lon="11.560530005381146"><ele>512.0</ele><time>2026-04-12T10:29:00Z</time></trkpt><trkpt lat="44.20033310564105" lon="11.560596355290052"><ele>511.0</ele><time>2026-04-12T10:29:03Z</time></trkpt><trkpt lat="44.20026596811564" lon="11.56061270571407"><ele>510.0</ele><time>2026-04-12T10:29:06Z</time></trkpt><trkpt lat="44.20017087007806" lon="11.560654113704437"><ele>509.0</ele><time>2026-04-12T10:29:10Z</time></trkpt><trkpt lat="44.200092807665555" lon="11.560722745889253"><ele>508.99999999999994</ele><time>2026-04-12T10:29:11.999Z</time></trkpt><trkpt lat="44.20000686826225" lon="11.560797184349367"><ele>509.0</ele><time>2026-04-12T10:29:13.999Z</time></trkpt><trkpt lat="44.19992673666727" lon="11.560826279394615"><ele>509.0</ele><time>2026-04-12T10:29:16.999Z</time></trkpt><trkpt lat="44.19985710209844" lon="11.56087987019123"><ele>509.0</ele><time>2026-04-12T10:29:19.999Z</time></trkpt><trkpt lat="44.19979303873879" lon="11.560896592792153"><ele>508.99999999999994</ele><time>2026-04-12T10:29:21.999Z</time></trkpt><trkpt lat="44.199720408306945" lon="11.560923578832808"><ele>509.0</ele><time>2026-04-12T10:29:26.999Z</time></trkpt><trkpt lat="44.19963930016478" lon="11.560857404945159"><ele>508.0</ele><time>2026-04-12T10:29:29.999Z</time></trkpt><trkpt lat="44.19952715313242" lon="11.560813879381302"><ele>507.0</ele><time>2026-04-12T10:29:31.999Z</time></trkpt><trkpt lat="44.19943439824301" lon="11.560768475286523"><ele>506.0</ele><time>2026-04-12T10:29:33.999Z</time></trkpt><trkpt lat="44.199384481612725" lon="11.560644761303735"><ele>505.0</ele><time>2026-04-12T10:29:35.999Z</time></trkpt><trkpt lat="44.19929897878688" lon="11.560603656335706"><ele>504.0</ele><time>2026-04-12T10:29:36.999Z</time></trkpt><trkpt lat="44.199228742986" lon="11.560594908471021"><ele>504.0</ele><time>2026-04-12T10:29:37.999Z</time></trkpt><trkpt lat="44.19913809875964" lon="11.56057133000373"><ele>504.0</ele><time>2026-04-12T10:29:39.999Z</time></trkpt><trkpt lat="44.199051071343476" lon="11.560615002223592"><ele>504.0</ele><time>2026-04-12T10:29:40.999Z</time></trkpt><trkpt lat="44.19894333289873" lon="11.560597844431472"><ele>504.0</ele><time>2026-04-12T10:29:42.999Z</time></trkpt><trkpt lat="44.19886396376496" lon="11.560618699360173"><ele>504.0</ele><time>2026-04-12T10:29:43.999Z</time></trkpt><trkpt lat="44.198780673892145" lon="11.560620878876891"><ele>504.0</ele><time>2026-04-12T10:29:45.999Z</time></trkpt><trkpt lat="44.19865440615488" lon="11.560625923791168"><ele>504.0</ele><time>2026-04-12T10:29:47.999Z</time></trkpt><trkpt lat="44.1985471841572" lon="11.560699308243397"><ele>504.0</ele><time>2026-04-12T10:29:49.999Z</time></trkpt><trkpt lat="44.198441103421246" lon="11.560766120377211"><ele>504.0</ele><time>2026-04-12T10:29:51.999Z</time></trkpt><trkpt lat="44.19838267371869" lon="11.560812503113548"><ele>504.0</ele><time>2026-04-12T10:29:52.999Z</time></trkpt><trkpt lat="44.19830214588148" lon="11.560893014150937"><ele>504.0</ele><time>2026-04-12T10:29:54.999Z</time></trkpt><trkpt lat="44.19824696503595" lon="11.560951993205776"><ele>504.0</ele><time>2026-04-12T10:29:55.999Z</time></trkpt><trkpt lat="44.19812511158283" lon="11.560976955525009"><ele>504.0</ele><time>2026-04-12T10:29:57.999Z</time></trkpt><trkpt lat="44.19799169558259" lon="11.561062432951408"><ele>504.0</ele><time>2026-04-12T10:29:59.999Z</time></trkpt><trkpt lat="44.19792906637338" lon="11.561128297824595"><ele>504.0</ele><time>2026-04-12T10:30:00.999Z</time></trkpt><trkpt lat="44.19787012927461" lon="11.5611952491858"><ele>500.4</ele><time>2026-04-12T10:30:01.999Z</time></trkpt><trkpt lat="44.197802722387024" lon="11.561212936193392"><ele>496.79999999999995</ele><time>2026-04-12T10:30:03.999Z</time></trkpt><trkpt lat="44.197720213572474" lon="11.561269646346062"><ele>493.20000000000005</ele><time>2026-04-12T10:30:04.999Z</time></trkpt><trkpt lat="44.197617630601634" lon="11.561305185073012"><ele>489.6</ele><time>2026-04-12T10:30:06.999Z</time></trkpt><trkpt lat="44.197507822796396" lon="11.561290296440673"><ele>486.0</ele><time>2026-04-12T10:30:08.999Z</time></trkpt><trkpt lat="44.19740807128105" lon="11.561212642498072"><ele>482.4</ele><time>2026-04-12T10:30:11.999Z</time></trkpt><trkpt lat="44.19732328013883" lon="11.561245778500503"><ele>478.8</ele><time>2026-04-12T10:30:13.999Z</time></trkpt><trkpt lat="44.19724559663455" lon="11.561220133050853"><ele>475.19999999999993</ele><time>2026-04-12T10:30:15Z</time></trkpt><trkpt lat="44.19717156314438" lon="11.561214644640183"><ele>471.59999999999997</ele><time>2026-04-12T10:30:16Z</time></trkpt><trkpt lat="44.19707018894856" lon="11.5611937801762"><ele>468.0</ele><time>2026-04-12T10:30:18Z</time></trkpt><trkpt lat="44.19691841599548" lon="11.561157217875518"><ele>468.0</ele><time>2026-04-12T10:30:20Z</time></trkpt><trkpt lat="44.196839743859144" lon="11.561193815841122"><ele>467.99999999999994</ele><time>2026-04-12T10:30:22Z</time></trkpt><trkpt lat="44.19674160527601" lon="11.56124540632597"><ele>467.99999999999994</ele><time>2026-04-12T10:30:23Z</time></trkpt><trkpt lat="44.196641232165966" lon="11.561283663616802"><ele>468.0</ele><time>2026-04-12T10:30:25Z</time></trkpt><trkpt lat="44.196590013875344" lon="11.561351138766549"><ele>468.0</ele><time>2026-04-12T10:30:26Z</time></trkpt><trkpt lat="44.196506451467584" lon="11.561395739344592"><ele>466.1666666666667</ele><time>2026-04-12T10:30:28Z</time></trkpt><trkpt lat="44.19648054661362" lon="11.561476225460282"><ele>464.33333333333337</ele><time>2026-04-12T10:30:29Z</time></trkpt><trkpt lat="44.19641149450798" lon="11.56150186412487"><ele>462.5</ele><time>2026-04-12T10:30:31Z</time></trkpt><trkpt lat="44.196275834681764" lon="11.561476745701523"><ele>460.6666666666667</ele><time>2026-04-12T10:30:33Z</time></trkpt><trkpt lat="44.196213639256506" lon="11.561504383933723"><ele>458.83333333333337</ele><time>2026-04-12T10:30:34Z</time></trkpt><trkpt lat="44.19611671594588" lon="11.561480177654877"><ele>457.0</ele><time>2026-04-12T10:30:37Z</time></trkpt><trkpt lat="44.19601623602076" lon="11.561491756109435"><ele>457.00000000000006</ele><time>2026-04-12T10:30:39Z</time></trkpt><trkpt lat="44.19591273974231" lon="11.561501627830877"><ele>457.0</ele><time>2026-04-12T10:30:41Z</time></trkpt><trkpt lat="44.19594137907619" lon="11.561585004744469"><ele>457.0</ele><time>2026-04-12T10:30:45Z</time></trkpt><trkpt lat="44.19599610040309" lon="11.56165845181209"><ele>457.0</ele><time>2026-04-12T10:31:03Z</time></trkpt><trkpt lat="44.196076406140264" lon="11.56166537686289"><ele>457.00000000000006</ele><time>2026-04-12T10:31:05Z</time></trkpt><trkpt lat="44.19616235250169" lon="11.561613081735"><ele>457.0</ele><time>2026-04-12T10:31:07Z</time></trkpt><trkpt lat="44.19622665977165" lon="11.561612384538035"><ele>457.0</ele><time>2026-04-12T10:31:09Z</time></trkpt><trkpt lat="44.196296761871416" lon="11.561643169577259"><ele>457.00000000000006</ele><time>2026-04-12T10:31:11Z</time></trkpt><trkpt lat="44.19639769225086" lon="11.561722255254088"><ele>457.00000000000006</ele><time>2026-04-12T10:31:13Z</time></trkpt><trkpt lat="44.196450997117964" lon="11.56178226088144"><ele>457.0</ele><time>2026-04-12T10:31:14Z</time></trkpt><trkpt lat="44.19652851607478" lon="11.561796520587032"><ele>457.0</ele><time>2026-04-12T10:31:15Z</time></trkpt><trkpt lat="44.19664000366507" lon="11.561855665391448"><ele>459.20000000000005</ele><time>2026-04-12T10:31:16.999Z</time></trkpt><trkpt lat="44.19671613272599" lon="11.561818164714861"><ele>461.40000000000003</ele><time>2026-04-12T10:31:17.999Z</time></trkpt><trkpt lat="44.19670783684787" lon="11.561702609848753"><ele>463.59999999999997</ele><time>2026-04-12T10:31:18.999Z</time></trkpt><trkpt lat="44.1968471467302" lon="11.561664658498447"><ele>465.79999999999995</ele><time>2026-04-12T10:31:20.999Z</time></trkpt><trkpt lat="44.19692775276775" lon="11.561701992498502"><ele>468.0</ele><time>2026-04-12T10:31:21.999Z</time></trkpt><trkpt lat="44.19702813422343" lon="11.561819042719954"><ele>468.0</ele><time>2026-04-12T10:31:23.999Z</time></trkpt><trkpt lat="44.197134464711105" lon="11.561927234219386"><ele>468.0</ele><time>2026-04-12T10:31:25.999Z</time></trkpt><trkpt lat="44.197193959138836" lon="11.56207163937952"><ele>468.0</ele><time>2026-04-12T10:31:27.999Z</time></trkpt><trkpt lat="44.19721795392879" lon="11.562186716205206"><ele>468.0</ele><time>2026-04-12T10:31:28.999Z</time></trkpt><trkpt lat="44.19727546094816" lon="11.562342510403822"><ele>464.5</ele><time>2026-04-12T10:31:30.999Z</time></trkpt><trkpt lat="44.197365864797284" lon="11.56238400007137"><ele>461.0</ele><time>2026-04-12T10:31:32.999Z</time></trkpt><trkpt lat="44.19749190349143" lon="11.562315479115586"><ele>457.5</ele><time>2026-04-12T10:31:34.999Z</time></trkpt><trkpt lat="44.19756156535098" lon="11.56236843884581"><ele>454.0</ele><time>2026-04-12T10:31:35.999Z</time></trkpt><trkpt lat="44.197662570977364" lon="11.5625650509625"><ele>454.0</ele><time>2026-04-12T10:31:37.999Z</time></trkpt><trkpt lat="44.1977618381303" lon="11.562563342192536"><ele>454.0</ele><time>2026-04-12T10:31:39.999Z</time></trkpt><trkpt lat="44.1978923096155" lon="11.562544566464837"><ele>454.0</ele><time>2026-04-12T10:31:41.999Z</time></trkpt><trkpt lat="44.197956826517434" lon="11.562596816985941"><ele>454.0</ele><time>2026-04-12T10:31:42.999Z</time></trkpt><trkpt lat="44.19802389233513" lon="11.562575486792849"><ele>454.0</ele><time>2026-04-12T10:31:43.999Z</time></trkpt><trkpt lat="44.198171053988915" lon="11.562519642233651"><ele>452.1666666666667</ele><time>2026-04-12T10:31:45.999Z</time></trkpt><trkpt lat="44.19825966534497" lon="11.562486454413744"><ele>450.33333333333337</ele><time>2026-04-12T10:31:46.999Z</time></trkpt><trkpt lat="44.19830895162716" lon="11.56242897682594"><ele>448.5</ele><time>2026-04-12T10:31:47.999Z</time></trkpt><trkpt lat="44.19837708101444" lon="11.562357316894769"><ele>446.66666666666663</ele><time>2026-04-12T10:31:48.999Z</time></trkpt><trkpt lat="44.19846297211941" lon="11.562345623771254"><ele>444.8333333333333</ele><time>2026-04-12T10:31:50.999Z</time></trkpt><trkpt lat="44.19852493996062" lon="11.562286400235772"><ele>443.0</ele><time>2026-04-12T10:31:52.999Z</time></trkpt><trkpt lat="44.19864043120505" lon="11.562321912734225"><ele>442.99999999999994</ele><time>2026-04-12T10:31:54.999Z</time></trkpt><trkpt lat="44.198724106698826" lon="11.562310219291984"><ele>443.0</ele><time>2026-04-12T10:31:56.999Z</time></trkpt><trkpt lat="44.198799168399134" lon="11.562344864492777"><ele>443.0</ele><time>2026-04-12T10:31:58.999Z</time></trkpt><trkpt lat="44.198863131368384" lon="11.562333848187127"><ele>443.0</ele><time>2026-04-12T10:32:00.999Z</time></trkpt><trkpt lat="44.1989264892155" lon="11.562448319919085"><ele>442.99999999999994</ele><time>2026-04-12T10:32:03.999Z</time></trkpt><trkpt lat="44.19887276134755" lon="11.562573422012191"><ele>443.0</ele><time>2026-04-12T10:32:05.999Z</time></trkpt><trkpt lat="44.19881525319986" lon="11.562732042190076"><ele>443.0</ele><time>2026-04-12T10:32:07.999Z</time></trkpt><trkpt lat="44.19884973821405" lon="11.562824893211685"><ele>442.99999999999994</ele><time>2026-04-12T10:32:09.999Z</time></trkpt><trkpt lat="44.19889690948382" lon="11.563007629073498"><ele>442.99999999999994</ele><time>2026-04-12T10:32:11.999Z</time></trkpt><trkpt lat="44.19899586423959" lon="11.563021631917753"><ele>443.0</ele><time>2026-04-12T10:32:12.999Z</time></trkpt><trkpt lat="44.19899641127057" lon="11.563125996187951"><ele>443.0</ele><time>2026-04-12T10:32:14.999Z</time></trkpt><trkpt lat="44.19907874232216" lon="11.563235387913023"><ele>439.0</ele><time>2026-04-12T10:32:16.999Z</time></trkpt><trkpt lat="44.19913291321454" lon="11.56329874239432"><ele>434.99999999999994</ele><time>2026-04-12T10:32:17.999Z</time></trkpt><trkpt lat="44.19912637419699" lon="11.563413596467646"><ele>431.0</ele><time>2026-04-12T10:32:18.999Z</time></trkpt><trkpt lat="44.199181586926166" lon="11.563488795690573"><ele>427.0</ele><time>2026-04-12T10:32:19.999Z</time></trkpt><trkpt lat="44.19927094643209" lon="11.56361256585901"><ele>423.0</ele><time>2026-04-12T10:32:22Z</time></trkpt><trkpt lat="44.199366171966794" lon="11.563603321563527"><ele>423.0</ele><time>2026-04-12T10:32:24Z</time></trkpt><trkpt lat="44.19944280274933" lon="11.563692407180604"><ele>423.0</ele><time>2026-04-12T10:32:26Z</time></trkpt><trkpt lat="44.19950212232484" lon="11.5637715635843"><ele>423.0</ele><time>2026-04-12T10:32:28Z</time></trkpt><trkpt lat="44.19956840535464" lon="11.56385404265587"><ele>423.0</ele><time>2026-04-12T10:32:30Z</time></trkpt><trkpt lat="44.19963331204427" lon="11.563913004442295"><ele>423.0</ele><time>2026-04-12T10:32:32Z</time></trkpt><trkpt lat="44.19971216762394" lon="11.563964992948506"><ele>423.0</ele><time>2026-04-12T10:32:35Z</time></trkpt><trkpt lat="44.199726637000204" lon="11.564052865680482"><ele>422.4</ele><time>2026-04-12T10:32:38Z</time></trkpt><trkpt lat="44.19977419832181" lon="11.56414709559398"><ele>421.79999999999995</ele><time>2026-04-12T10:32:43Z</time></trkpt><trkpt lat="44.19983262268886" lon="11.564203253151865"><ele>421.2</ele><time>2026-04-12T10:32:48Z</time></trkpt><trkpt lat="44.19989217697822" lon="11.5642997934974"><ele>420.6</ele><time>2026-04-12T10:32:51Z</time></trkpt><trkpt lat="44.19994554816086" lon="11.564438343060317"><ele>420.0</ele><time>2026-04-12T10:32:53Z</time></trkpt><trkpt lat="44.200009059007236" lon="11.564546328443805"><ele>419.8</ele><time>2026-04-12T10:32:55Z</time></trkpt><trkpt lat="44.20006140003374" lon="11.564602235526477"><ele>419.6</ele><time>2026-04-12T10:32:56Z</time></trkpt><trkpt lat="44.20014546828021" lon="11.564697595900308"><ele>419.4</ele><time>2026-04-12T10:32:58Z</time></trkpt><trkpt lat="44.20016345826431" lon="11.564859625369378"><ele>419.2</ele><time>2026-04-12T10:33:00Z</time></trkpt><trkpt lat="44.200164295402146" lon="11.565002977345285"><ele>419.0</ele><time>2026-04-12T10:33:02Z</time></trkpt><trkpt lat="44.20018617679363" lon="11.565093515735702"><ele>418.99999999999994</ele><time>2026-04-12T10:33:04Z</time></trkpt><trkpt lat="44.20020131199584" lon="11.565180942006013"><ele>419.0</ele><time>2026-04-12T10:33:06Z</time></trkpt><trkpt lat="44.200226674341124" lon="11.56527556994657"><ele>419.0</ele><time>2026-04-12T10:33:08Z</time></trkpt><trkpt lat="44.20027746428325" lon="11.565357281322205"><ele>419.0</ele><time>2026-04-12T10:33:10Z</time></trkpt><trkpt lat="44.20029797964433" lon="11.565446607340942"><ele>419.0</ele><time>2026-04-12T10:33:12Z</time></trkpt><trkpt lat="44.200329395542155" lon="11.565546361370576"><ele>418.99999999999994</ele><time>2026-04-12T10:33:14Z</time></trkpt><trkpt lat="44.200357112011716" lon="11.565631907991873"><ele>419.0</ele><time>2026-04-12T10:33:16Z</time></trkpt><trkpt lat="44.20039459694219" lon="11.565721067144645"><ele>421.1428571428571</ele><time>2026-04-12T10:33:18Z</time></trkpt><trkpt lat="44.20044930742582" lon="11.56579789939161"><ele>423.2857142857143</ele><time>2026-04-12T10:33:20Z</time></trkpt><trkpt lat="44.200511081063446" lon="11.565866818113378"><ele>425.42857142857144</ele><time>2026-04-12T10:33:22Z</time></trkpt><trkpt lat="44.20057048133501" lon="11.565926791245797"><ele>427.57142857142856</ele><time>2026-04-12T10:33:24Z</time></trkpt><trkpt lat="44.200634969592954" lon="11.565994564120402"><ele>429.7142857142857</ele><time>2026-04-12T10:33:25.999Z</time></trkpt><trkpt lat="44.20068897493757" lon="11.566039708054571"><ele>431.85714285714283</ele><time>2026-04-12T10:33:27.999Z</time></trkpt><trkpt lat="44.200757687423" lon="11.566066790460113"><ele>434.0</ele><time>2026-04-12T10:33:29.999Z</time></trkpt><trkpt lat="44.20084448603308" lon="11.566111305645677"><ele>433.99999999999994</ele><time>2026-04-12T10:33:32.999Z</time></trkpt><trkpt lat="44.200925428640886" lon="11.566176320691028"><ele>434.0</ele><time>2026-04-12T10:33:35.999Z</time></trkpt><trkpt lat="44.20098168161862" lon="11.566259298756759"><ele>434.0</ele><time>2026-04-12T10:33:38.999Z</time></trkpt><trkpt lat="44.20103582786766" lon="11.566360986832304"><ele>434.0</ele><time>2026-04-12T10:33:41.999Z</time></trkpt><trkpt lat="44.201077454902894" lon="11.566475516987824"><ele>433.99999999999994</ele><time>2026-04-12T10:33:44.999Z</time></trkpt><trkpt lat="44.201134894814444" lon="11.566568310411384"><ele>434.0</ele><time>2026-04-12T10:33:47.999Z</time></trkpt><trkpt lat="44.20119689743425" lon="11.56661135787148"><ele>433.57142857142856</ele><time>2026-04-12T10:33:49.999Z</time></trkpt><trkpt lat="44.201260630583725" lon="11.566647520050374"><ele>433.1428571428571</ele><time>2026-04-12T10:33:51.999Z</time></trkpt><trkpt lat="44.201324724549885" lon="11.56668085023414"><ele>432.7142857142857</ele><time>2026-04-12T10:33:53.999Z</time></trkpt><trkpt lat="44.201376070125114" lon="11.566741295351274"><ele>432.2857142857143</ele><time>2026-04-12T10:33:55.999Z</time></trkpt><trkpt lat="44.201420229516096" lon="11.566810444024084"><ele>431.85714285714283</ele><time>2026-04-12T10:33:57.999Z</time></trkpt><trkpt lat="44.2014644807551" lon="11.566881953803716"><ele>431.42857142857144</ele><time>2026-04-12T10:33:59.999Z</time></trkpt><trkpt lat="44.20150445427484" lon="11.566954259000134"><ele>431.0</ele><time>2026-04-12T10:34:01.999Z</time></trkpt><trkpt lat="44.20157411509845" lon="11.567050177531272"><ele>432.99999999999994</ele><time>2026-04-12T10:34:04.999Z</time></trkpt><trkpt lat="44.201653264465826" lon="11.567119048480928"><ele>435.0</ele><time>2026-04-12T10:34:07.999Z</time></trkpt><trkpt lat="44.20171327072102" lon="11.56716319159559"><ele>437.0</ele><time>2026-04-12T10:34:09.999Z</time></trkpt><trkpt lat="44.20177651049309" lon="11.567195261118519"><ele>439.0</ele><time>2026-04-12T10:34:11.999Z</time></trkpt><trkpt lat="44.20186154513263" lon="11.56725090381468"><ele>440.99999999999994</ele><time>2026-04-12T10:34:14.999Z</time></trkpt><trkpt lat="44.201924962481705" lon="11.567277188590738"><ele>443.0</ele><time>2026-04-12T10:34:16.999Z</time></trkpt><trkpt lat="44.20199497408543" lon="11.567282742955019"><ele>443.0</ele><time>2026-04-12T10:34:18.999Z</time></trkpt><trkpt lat="44.20206006133889" lon="11.567295550387016"><ele>443.0</ele><time>2026-04-12T10:34:20.999Z</time></trkpt><trkpt lat="44.20212849511767" lon="11.567302906449006"><ele>443.0</ele><time>2026-04-12T10:34:22.999Z</time></trkpt><trkpt lat="44.20219479767135" lon="11.567324440654712"><ele>443.0</ele><time>2026-04-12T10:34:24.999Z</time></trkpt><trkpt lat="44.202257900821714" lon="11.567364816694084"><ele>443.0</ele><time>2026-04-12T10:34:27Z</time></trkpt><trkpt lat="44.202320734047895" lon="11.567385028029555"><ele>443.0</ele><time>2026-04-12T10:34:29Z</time></trkpt><trkpt lat="44.202419040036226" lon="11.567407848998775"><ele>443.0</ele><time>2026-04-12T10:34:32Z</time></trkpt><trkpt lat="44.20248056668435" lon="11.567431065037324"><ele>443.49999999999994</ele><time>2026-04-12T10:34:34Z</time></trkpt><trkpt lat="44.20253912220412" lon="11.567486557229925"><ele>444.0</ele><time>2026-04-12T10:34:36Z</time></trkpt><trkpt lat="44.20259075837853" lon="11.567540057171277"><ele>444.5</ele><time>2026-04-12T10:34:38Z</time></trkpt><trkpt lat="44.20265125477078" lon="11.567641166655688"><ele>445.0</ele><time>2026-04-12T10:34:41Z</time></trkpt><trkpt lat="44.202711779856614" lon="11.567736340984107"><ele>445.49999999999994</ele><time>2026-04-12T10:34:44Z</time></trkpt><trkpt lat="44.202754839953855" lon="11.567803130635836"><ele>446.0</ele><time>2026-04-12T10:34:46Z</time></trkpt><trkpt lat="44.202812699396205" lon="11.567855283191006"><ele>445.99999999999994</ele><time>2026-04-12T10:34:48Z</time></trkpt><trkpt lat="44.202874226722386" lon="11.567896009337284"><ele>446.0</ele><time>2026-04-12T10:34:50Z</time></trkpt><trkpt lat="44.202940223973705" lon="11.567927692204659"><ele>446.0</ele><time>2026-04-12T10:34:52Z</time></trkpt><trkpt lat="44.203018355981975" lon="11.56794623669575"><ele>446.0</ele><time>2026-04-12T10:34:54Z</time></trkpt><trkpt lat="44.20309912637868" lon="11.567953479934914"><ele>445.99999999999994</ele><time>2026-04-12T10:34:56Z</time></trkpt><trkpt lat="44.2031792300219" lon="11.567941093000254"><ele>446.0</ele><time>2026-04-12T10:34:58Z</time></trkpt><trkpt lat="44.20326433786021" lon="11.567934815372181"><ele>445.99999999999994</ele><time>2026-04-12T10:35:00Z</time></trkpt><trkpt lat="44.20335301349133" lon="11.567931310514133"><ele>446.0</ele><time>2026-04-12T10:35:02Z</time></trkpt><trkpt lat="44.20344238955009" lon="11.567923106344983"><ele>446.0</ele><time>2026-04-12T10:35:04Z</time></trkpt><trkpt lat="44.20352749041651" lon="11.567904877852275"><ele>446.0</ele><time>2026-04-12T10:35:06Z</time></trkpt><trkpt lat="44.20361312764824" lon="11.567901653075408"><ele>445.99999999999994</ele><time>2026-04-12T10:35:08Z</time></trkpt><trkpt lat="44.203701448294105" lon="11.567848332579633"><ele>446.0</ele><time>2026-04-12T10:35:10Z</time></trkpt><trkpt lat="44.20376898178354" lon="11.567824230315502"><ele>447.16666666666663</ele><time>2026-04-12T10:35:12Z</time></trkpt><trkpt lat="44.20384259449869" lon="11.567817472369002"><ele>448.3333333333333</ele><time>2026-04-12T10:35:14Z</time></trkpt><trkpt lat="44.20391912747575" lon="11.5677977948846"><ele>449.5</ele><time>2026-04-12T10:35:17Z</time></trkpt><trkpt lat="44.20396627083469" lon="11.56785804814759"><ele>450.66666666666663</ele><time>2026-04-12T10:35:19Z</time></trkpt><trkpt lat="44.204037677668424" lon="11.56791258262738"><ele>451.8333333333333</ele><time>2026-04-12T10:35:22Z</time></trkpt><trkpt lat="44.2041100161662" lon="11.567949576114982"><ele>453.0</ele><time>2026-04-12T10:35:25Z</time></trkpt><trkpt lat="44.204183423710596" lon="11.567976269875459"><ele>453.0</ele><time>2026-04-12T10:35:28Z</time></trkpt><trkpt lat="44.20425453519463" lon="11.5680107250793"><ele>453.0</ele><time>2026-04-12T10:35:31Z</time></trkpt><trkpt lat="44.20432941593966" lon="11.568032175378237"><ele>453.0</ele><time>2026-04-12T10:35:33.999Z</time></trkpt><trkpt lat="44.20440930695076" lon="11.568060127467797"><ele>453.0</ele><time>2026-04-12T10:35:36.999Z</time></trkpt><trkpt lat="44.204489509475174" lon="11.568070013254605"><ele>453.0</ele><time>2026-04-12T10:35:39.999Z</time></trkpt><trkpt lat="44.20456211795344" lon="11.568092037593146"><ele>453.0</ele><time>2026-04-12T10:35:42.999Z</time></trkpt><trkpt lat="44.2046291751929" lon="11.56811948272363"><ele>453.0</ele><time>2026-04-12T10:35:45.999Z</time></trkpt><trkpt lat="44.204710240022415" lon="11.56814290218322"><ele>453.0</ele><time>2026-04-12T10:35:48.999Z</time></trkpt><trkpt lat="44.20478535578338" lon="11.568167952500575"><ele>453.0</ele><time>2026-04-12T10:35:51.999Z</time></trkpt><trkpt lat="44.204864675508574" lon="11.568183268885663"><ele>453.0</ele><time>2026-04-12T10:35:54.999Z</time></trkpt><trkpt lat="44.20494063897169" lon="11.568190765507378"><ele>453.0</ele><time>2026-04-12T10:35:57.999Z</time></trkpt><trkpt lat="44.205023019160755" lon="11.568215682025176"><ele>453.0</ele><time>2026-04-12T10:36:00.999Z</time></trkpt><trkpt lat="44.20510387970676" lon="11.568239420639838"><ele>454.8333333333333</ele><time>2026-04-12T10:36:03.999Z</time></trkpt><trkpt lat="44.205184403618404" lon="11.568255971208073"><ele>456.66666666666663</ele><time>2026-04-12T10:36:06.999Z</time></trkpt><trkpt lat="44.205266784092686" lon="11.568267098285286"><ele>458.5</ele><time>2026-04-12T10:36:09.999Z</time></trkpt><trkpt lat="44.20534218437176" lon="11.568285325482291"><ele>460.3333333333333</ele><time>2026-04-12T10:36:12.999Z</time></trkpt><trkpt lat="44.20542081574755" lon="11.568307557522338"><ele>462.16666666666663</ele><time>2026-04-12T10:36:15.999Z</time></trkpt><trkpt lat="44.20549330143307" lon="11.568336841599221"><ele>464.0</ele><time>2026-04-12T10:36:18.999Z</time></trkpt><trkpt lat="44.205560385805875" lon="11.568376270506091"><ele>463.99999999999994</ele><time>2026-04-12T10:36:21.999Z</time></trkpt><trkpt lat="44.20562270425633" lon="11.56842216741002"><ele>464.0</ele><time>2026-04-12T10:36:24.999Z</time></trkpt><trkpt lat="44.20569940966327" lon="11.568453429977767"><ele>464.0</ele><time>2026-04-12T10:36:28.999Z</time></trkpt><trkpt lat="44.20577882897226" lon="11.56847790363844"><ele>464.0</ele><time>2026-04-12T10:36:33Z</time></trkpt><trkpt lat="44.20585334286132" lon="11.568499285331875"><ele>463.99999999999994</ele><time>2026-04-12T10:36:37Z</time></trkpt><trkpt lat="44.205932264765266" lon="11.568515432947274"><ele>464.0</ele><time>2026-04-12T10:36:41Z</time></trkpt><trkpt lat="44.206005978219835" lon="11.56853669776675"><ele>466.28571428571433</ele><time>2026-04-12T10:36:45Z</time></trkpt><trkpt lat="44.20607094977505" lon="11.568544849068973"><ele>468.57142857142856</ele><time>2026-04-12T10:36:48Z</time></trkpt><trkpt lat="44.20613838377817" lon="11.568531847638678"><ele>470.8571428571429</ele><time>2026-04-12T10:36:51Z</time></trkpt><trkpt lat="44.20621966379909" lon="11.568526790772227"><ele>473.14285714285717</ele><time>2026-04-12T10:36:55Z</time></trkpt><trkpt lat="44.20629404270604" lon="11.568530977823478"><ele>475.42857142857144</ele><time>2026-04-12T10:36:58Z</time></trkpt><trkpt lat="44.20636365781585" lon="11.568548836964498"><ele>477.7142857142857</ele><time>2026-04-12T10:37:01Z</time></trkpt><trkpt lat="44.2064275793026" lon="11.568547369879253"><ele>480.0</ele><time>2026-04-12T10:37:04Z</time></trkpt><trkpt lat="44.20649368627025" lon="11.568562651660377"><ele>482.42857142857144</ele><time>2026-04-12T10:37:07Z</time></trkpt><trkpt lat="44.20656067713249" lon="11.568568043325065"><ele>484.85714285714283</ele><time>2026-04-12T10:37:10Z</time></trkpt><trkpt lat="44.206627244223036" lon="11.568579048058902"><ele>487.2857142857143</ele><time>2026-04-12T10:37:13Z</time></trkpt><trkpt lat="44.20668790256501" lon="11.568544072558126"><ele>489.7142857142857</ele><time>2026-04-12T10:37:17Z</time></trkpt><trkpt lat="44.206750468540996" lon="11.568457998489095"><ele>492.1428571428571</ele><time>2026-04-12T10:37:21Z</time></trkpt><trkpt lat="44.2067941336787" lon="11.568391832697056"><ele>494.57142857142856</ele><time>2026-04-12T10:37:24Z</time></trkpt><trkpt lat="44.206839354198515" lon="11.568329614140875"><ele>497.0</ele><time>2026-04-12T10:37:27Z</time></trkpt><trkpt lat="44.20690674155761" lon="11.568260758598063"><ele>496.99999999999994</ele><time>2026-04-12T10:37:31Z</time></trkpt><trkpt lat="44.20698041977077" lon="11.568178965076664"><ele>497.0</ele><time>2026-04-12T10:37:35Z</time></trkpt><trkpt lat="44.20704812347186" lon="11.568105565854339"><ele>497.0</ele><time>2026-04-12T10:37:38Z</time></trkpt><trkpt lat="44.207122938646215" lon="11.568058593509257"><ele>497.0</ele><time>2026-04-12T10:37:40.999Z</time></trkpt><trkpt lat="44.20718549123891" lon="11.5680084932032"><ele>496.99999999999994</ele><time>2026-04-12T10:37:43.999Z</time></trkpt><trkpt lat="44.20727946704531" lon="11.567946408816114"><ele>497.0</ele><time>2026-04-12T10:37:47.999Z</time></trkpt><trkpt lat="44.20735243681131" lon="11.567890076517257"><ele>500.0</ele><time>2026-04-12T10:37:50.999Z</time></trkpt><trkpt lat="44.207413821272766" lon="11.567827736997312"><ele>503.0</ele><time>2026-04-12T10:37:53.999Z</time></trkpt><trkpt lat="44.20749282295616" lon="11.56782345598534"><ele>506.0</ele><time>2026-04-12T10:37:56.999Z</time></trkpt><trkpt lat="44.20756571323978" lon="11.56777970109644"><ele>509.0</ele><time>2026-04-12T10:37:59.999Z</time></trkpt><trkpt lat="44.2076293060129" lon="11.56775021409597"><ele>512.0</ele><time>2026-04-12T10:38:02.999Z</time></trkpt><trkpt lat="44.20768993419894" lon="11.56770243945569"><ele>515.0</ele><time>2026-04-12T10:38:05.999Z</time></trkpt><trkpt lat="44.207742144240015" lon="11.567632748570986"><ele>518.0</ele><time>2026-04-12T10:38:08.999Z</time></trkpt><trkpt lat="44.207788641899064" lon="11.567549015516365"><ele>518.0</ele><time>2026-04-12T10:38:11.999Z</time></trkpt><trkpt lat="44.20784515732626" lon="11.56744396101978"><ele>518.0</ele><time>2026-04-12T10:38:14.999Z</time></trkpt><trkpt lat="44.20789448587689" lon="11.567351851813818"><ele>518.0</ele><time>2026-04-12T10:38:17.999Z</time></trkpt><trkpt lat="44.207945794562484" lon="11.567266817972687"><ele>518.0</ele><time>2026-04-12T10:38:20.999Z</time></trkpt><trkpt lat="44.20801092997347" lon="11.56718548351127"><ele>518.0</ele><time>2026-04-12T10:38:23.999Z</time></trkpt><trkpt lat="44.20806705854668" lon="11.567112857506503"><ele>518.0</ele><time>2026-04-12T10:38:26.999Z</time></trkpt><trkpt lat="44.20812291797799" lon="11.56704384232597"><ele>519.3333333333333</ele><time>2026-04-12T10:38:29.999Z</time></trkpt><trkpt lat="44.20818443910186" lon="11.566969693392355"><ele>520.6666666666666</ele><time>2026-04-12T10:38:32.999Z</time></trkpt><trkpt lat="44.208236920433784" lon="11.56689522448733"><ele>522.0</ele><time>2026-04-12T10:38:35.999Z</time></trkpt><trkpt lat="44.20828959425595" lon="11.566803105526896"><ele>523.3333333333334</ele><time>2026-04-12T10:38:39Z</time></trkpt><trkpt lat="44.20833447099522" lon="11.566712938512318"><ele>524.6666666666667</ele><time>2026-04-12T10:38:42Z</time></trkpt><trkpt lat="44.20838442858689" lon="11.566621327030331"><ele>526.0</ele><time>2026-04-12T10:38:45Z</time></trkpt><trkpt lat="44.20843378580123" lon="11.566536088087341"><ele>526.0</ele><time>2026-04-12T10:38:48Z</time></trkpt><trkpt lat="44.208481256525644" lon="11.566444016505294"><ele>526.0</ele><time>2026-04-12T10:38:51Z</time></trkpt><trkpt lat="44.20853036458828" lon="11.566350363260845"><ele>526.0</ele><time>2026-04-12T10:38:54Z</time></trkpt><trkpt lat="44.208579625761466" lon="11.566256064857496"><ele>526.0</ele><time>2026-04-12T10:38:57Z</time></trkpt><trkpt lat="44.208635880740616" lon="11.566171922349891"><ele>526.0</ele><time>2026-04-12T10:39:00Z</time></trkpt><trkpt lat="44.20866250331555" lon="11.566065051243507"><ele>526.0</ele><time>2026-04-12T10:39:03Z</time></trkpt><trkpt lat="44.20863527931628" lon="11.565961752549574"><ele>530.1666666666667</ele><time>2026-04-12T10:39:06Z</time></trkpt><trkpt lat="44.20855875830596" lon="11.565903366558329"><ele>534.3333333333334</ele><time>2026-04-12T10:39:09Z</time></trkpt><trkpt lat="44.208485994006196" lon="11.56588299533176"><ele>538.5</ele><time>2026-04-12T10:39:12Z</time></trkpt><trkpt lat="44.20840048999875" lon="11.565874297080002"><ele>542.6666666666666</ele><time>2026-04-12T10:39:15Z</time></trkpt><trkpt lat="44.20831664748259" lon="11.565866435909381"><ele>546.8333333333333</ele><time>2026-04-12T10:39:18Z</time></trkpt><trkpt lat="44.20823381641909" lon="11.565838848694531"><ele>551.0</ele><time>2026-04-12T10:39:21Z</time></trkpt><trkpt lat="44.20814899964905" lon="11.56583448187869"><ele>552.5</ele><time>2026-04-12T10:39:24Z</time></trkpt><trkpt lat="44.20806296137452" lon="11.56584907856776"><ele>554.0</ele><time>2026-04-12T10:39:27Z</time></trkpt><trkpt lat="44.20797565666962" lon="11.565871954356535"><ele>555.5</ele><time>2026-04-12T10:39:30Z</time></trkpt><trkpt lat="44.20788728099969" lon="11.565896350650718"><ele>557.0</ele><time>2026-04-12T10:39:33Z</time></trkpt><trkpt lat="44.20780900880566" lon="11.565919514333414"><ele>558.5</ele><time>2026-04-12T10:39:36Z</time></trkpt><trkpt lat="44.20772181033646" lon="11.56595026819698"><ele>560.0</ele><time>2026-04-12T10:39:38.999Z</time></trkpt><trkpt lat="44.2076362218711" lon="11.565995918929415"><ele>560.0</ele><time>2026-04-12T10:39:41.999Z</time></trkpt><trkpt lat="44.20755757754329" lon="11.56603983606541"><ele>560.0</ele><time>2026-04-12T10:39:44.999Z</time></trkpt><trkpt lat="44.20747534489877" lon="11.566076395264485"><ele>560.0</ele><time>2026-04-12T10:39:47.999Z</time></trkpt><trkpt lat="44.20739562440106" lon="11.566112668236528"><ele>560.0</ele><time>2026-04-12T10:39:50.999Z</time></trkpt><trkpt lat="44.20731671225211" lon="11.566147496998587"><ele>560.0</ele><time>2026-04-12T10:39:53.999Z</time></trkpt><trkpt lat="44.20723876819132" lon="11.566177683451258"><ele>560.0</ele><time>2026-04-12T10:39:56.999Z</time></trkpt><trkpt lat="44.20715598149724" lon="11.566148488806325"><ele>560.0</ele><time>2026-04-12T10:39:59.999Z</time></trkpt><trkpt lat="44.207146829910066" lon="11.566023204006637"><ele>560.0</ele><time>2026-04-12T10:40:02.999Z</time></trkpt><trkpt lat="44.20719218389762" lon="11.565958910988764"><ele>560.0</ele><time>2026-04-12T10:40:04.999Z</time></trkpt><trkpt lat="44.207237246266956" lon="11.565861171767484"><ele>560.0</ele><time>2026-04-12T10:40:07.999Z</time></trkpt><trkpt lat="44.20728564361248" lon="11.565765028487373"><ele>560.0</ele><time>2026-04-12T10:40:10.999Z</time></trkpt><trkpt lat="44.207314127450644" lon="11.565665781397964"><ele>560.0</ele><time>2026-04-12T10:40:13.999Z</time></trkpt><trkpt lat="44.20734249932419" lon="11.56554687219918"><ele>560.0</ele><time>2026-04-12T10:40:16.999Z</time></trkpt><trkpt lat="44.2073758719826" lon="11.565456430480452"><ele>560.0</ele><time>2026-04-12T10:40:19.999Z</time></trkpt><trkpt lat="44.207430388512314" lon="11.565391093458112"><ele>560.0</ele><time>2026-04-12T10:40:21.999Z</time></trkpt><trkpt lat="44.20748924616064" lon="11.56535173640221"><ele>560.0</ele><time>2026-04-12T10:40:23.999Z</time></trkpt><trkpt lat="44.20758884910138" lon="11.565339788117226"><ele>560.0</ele><time>2026-04-12T10:40:26.999Z</time></trkpt><trkpt lat="44.2076781962865" lon="11.565322782539647"><ele>560.0</ele><time>2026-04-12T10:40:29.999Z</time></trkpt><trkpt lat="44.207737151627214" lon="11.56529110058938"><ele>564.5</ele><time>2026-04-12T10:40:31.999Z</time></trkpt><trkpt lat="44.20781715509885" lon="11.565232420717454"><ele>569.0</ele><time>2026-04-12T10:40:34.999Z</time></trkpt><trkpt lat="44.20786889914443" lon="11.565174808936161"><ele>573.5</ele><time>2026-04-12T10:40:36.999Z</time></trkpt><trkpt lat="44.2079274230451" lon="11.565135651655007"><ele>578.0</ele><time>2026-04-12T10:40:38.999Z</time></trkpt><trkpt lat="44.20798742887627" lon="11.565097968254843"><ele>582.5</ele><time>2026-04-12T10:40:40.999Z</time></trkpt><trkpt lat="44.20805996069485" lon="11.56505350852202"><ele>587.0</ele><time>2026-04-12T10:40:43.999Z</time></trkpt><trkpt lat="44.20813391756318" lon="11.56496358405688"><ele>588.3333333333333</ele><time>2026-04-12T10:40:47Z</time></trkpt><trkpt lat="44.20818208493825" lon="11.564897133984285"><ele>589.6666666666666</ele><time>2026-04-12T10:40:49Z</time></trkpt><trkpt lat="44.208250189184845" lon="11.564814266570973"><ele>591.0</ele><time>2026-04-12T10:40:52Z</time></trkpt><trkpt lat="44.20829924504278" lon="11.564695448164617"><ele>592.3333333333334</ele><time>2026-04-12T10:40:55Z</time></trkpt><trkpt lat="44.20836210409459" lon="11.56464569023377"><ele>593.6666666666667</ele><time>2026-04-12T10:40:57Z</time></trkpt><trkpt lat="44.20844667909296" lon="11.564579047585791"><ele>595.0</ele><time>2026-04-12T10:41:00Z</time></trkpt><trkpt lat="44.20851706287657" lon="11.564515709046793"><ele>595.0</ele><time>2026-04-12T10:41:02Z</time></trkpt><trkpt lat="44.20856635999575" lon="11.56443196135727"><ele>595.0</ele><time>2026-04-12T10:41:05Z</time></trkpt><trkpt lat="44.20864611155607" lon="11.564360736929729"><ele>595.0</ele><time>2026-04-12T10:41:08Z</time></trkpt><trkpt lat="44.20872724128315" lon="11.564313186438074"><ele>595.0</ele><time>2026-04-12T10:41:11Z</time></trkpt><trkpt lat="44.20879337843546" lon="11.564293103757006"><ele>595.0</ele><time>2026-04-12T10:41:14Z</time></trkpt><trkpt lat="44.208871241078974" lon="11.564277189796861"><ele>595.0</ele><time>2026-04-12T10:41:16Z</time></trkpt><trkpt lat="44.208934410705915" lon="11.56424031060357"><ele>595.5714285714286</ele><time>2026-04-12T10:41:18Z</time></trkpt><trkpt lat="44.20899639611595" lon="11.564210510540926"><ele>596.1428571428571</ele><time>2026-04-12T10:41:20Z</time></trkpt><trkpt lat="44.20906055841158" lon="11.564173577302741"><ele>596.7142857142858</ele><time>2026-04-12T10:41:22Z</time></trkpt><trkpt lat="44.209150667544854" lon="11.564119043882014"><ele>597.2857142857142</ele><time>2026-04-12T10:41:25Z</time></trkpt><trkpt lat="44.20921596500337" lon="11.564111606771545"><ele>597.8571428571429</ele><time>2026-04-12T10:41:27Z</time></trkpt><trkpt lat="44.20928378732633" lon="11.564152464522857"><ele>598.4285714285714</ele><time>2026-04-12T10:41:29Z</time></trkpt><trkpt lat="44.20932946888605" lon="11.564218253126587"><ele>599.0</ele><time>2026-04-12T10:41:31Z</time></trkpt><trkpt lat="44.20937596044696" lon="11.564334480302723"><ele>599.0</ele><time>2026-04-12T10:41:34Z</time></trkpt><trkpt lat="44.20941136585615" lon="11.564410929340445"><ele>599.0</ele><time>2026-04-12T10:41:36Z</time></trkpt><trkpt lat="44.20944061281648" lon="11.564489661117076"><ele>599.0</ele><time>2026-04-12T10:41:38Z</time></trkpt><trkpt lat="44.20950751797073" lon="11.564533257593126"><ele>599.0</ele><time>2026-04-12T10:41:40Z</time></trkpt><trkpt lat="44.2095794413461" lon="11.56454602236479"><ele>599.0</ele><time>2026-04-12T10:41:41.999Z</time></trkpt><trkpt lat="44.2096446946603" lon="11.56453052709724"><ele>599.0</ele><time>2026-04-12T10:41:43.999Z</time></trkpt><trkpt lat="44.20971659459679" lon="11.564511143274425"><ele>599.0</ele><time>2026-04-12T10:41:45.999Z</time></trkpt><trkpt lat="44.20978699153175" lon="11.564492628441897"><ele>599.0</ele><time>2026-04-12T10:41:47.999Z</time></trkpt><trkpt lat="44.209859457279386" lon="11.564502032057135"><ele>599.0</ele><time>2026-04-12T10:41:49.999Z</time></trkpt><trkpt lat="44.20992833637913" lon="11.564534254435234"><ele>599.0</ele><time>2026-04-12T10:41:51.999Z</time></trkpt><trkpt lat="44.20999294090923" lon="11.564598847954539"><ele>599.0</ele><time>2026-04-12T10:41:53.999Z</time></trkpt><trkpt lat="44.21004721912065" lon="11.56467116650162"><ele>599.0</ele><time>2026-04-12T10:41:55.999Z</time></trkpt><trkpt lat="44.21010337334094" lon="11.564739297824843"><ele>599.0</ele><time>2026-04-12T10:41:57.999Z</time></trkpt><trkpt lat="44.21015939540444" lon="11.564803487722079"><ele>599.0</ele><time>2026-04-12T10:41:59.999Z</time></trkpt><trkpt lat="44.210217532926116" lon="11.564863144084834"><ele>599.0</ele><time>2026-04-12T10:42:01.999Z</time></trkpt><trkpt lat="44.210268599413766" lon="11.564952814034907"><ele>599.0</ele><time>2026-04-12T10:42:03.999Z</time></trkpt><trkpt lat="44.210293081361954" lon="11.565044032410695"><ele>599.0</ele><time>2026-04-12T10:42:05.999Z</time></trkpt><trkpt lat="44.21029128413938" lon="11.565145575080459"><ele>599.0</ele><time>2026-04-12T10:42:07.999Z</time></trkpt><trkpt lat="44.21028698181358" lon="11.565239791015173"><ele>599.0</ele><time>2026-04-12T10:42:09.999Z</time></trkpt><trkpt lat="44.21028196312127" lon="11.565344727711961"><ele>599.0</ele><time>2026-04-12T10:42:11.999Z</time></trkpt><trkpt lat="44.21029349690196" lon="11.565439640627604"><ele>599.0</ele><time>2026-04-12T10:42:13.999Z</time></trkpt><trkpt lat="44.21034993036924" lon="11.56551549200478"><ele>599.5</ele><time>2026-04-12T10:42:15.999Z</time></trkpt><trkpt lat="44.21043149290673" lon="11.56553097985833"><ele>600.0</ele><time>2026-04-12T10:42:17.999Z</time></trkpt><trkpt lat="44.210501810080295" lon="11.565549170857315"><ele>600.5</ele><time>2026-04-12T10:42:19.999Z</time></trkpt><trkpt lat="44.21058311918342" lon="11.565556761271479"><ele>601.0</ele><time>2026-04-12T10:42:21.999Z</time></trkpt><trkpt lat="44.210665950676436" lon="11.56557576055235"><ele>601.5</ele><time>2026-04-12T10:42:23.999Z</time></trkpt><trkpt lat="44.21074220925956" lon="11.565635519287277"><ele>602.0</ele><time>2026-04-12T10:42:25.999Z</time></trkpt><trkpt lat="44.210814922151535" lon="11.565682212010843"><ele>602.0</ele><time>2026-04-12T10:42:27.999Z</time></trkpt><trkpt lat="44.210889055148336" lon="11.565722627289116"><ele>602.0</ele><time>2026-04-12T10:42:29.999Z</time></trkpt><trkpt lat="44.21095741694417" lon="11.565757513720412"><ele>602.0</ele><time>2026-04-12T10:42:31.999Z</time></trkpt><trkpt lat="44.2110253507455" lon="11.565791086640347"><ele>602.0</ele><time>2026-04-12T10:42:33.999Z</time></trkpt><trkpt lat="44.21110975183322" lon="11.565808391401577"><ele>602.0</ele><time>2026-04-12T10:42:36.999Z</time></trkpt><trkpt lat="44.2111980061483" lon="11.56584555297803"><ele>602.0</ele><time>2026-04-12T10:42:39.999Z</time></trkpt><trkpt lat="44.2112540777904" lon="11.56591818011538"><ele>602.0</ele><time>2026-04-12T10:42:41.999Z</time></trkpt><trkpt lat="44.211316005499924" lon="11.565982357735539"><ele>602.0</ele><time>2026-04-12T10:42:43.999Z</time></trkpt><trkpt lat="44.21138059519864" lon="11.566034464855761"><ele>602.0</ele><time>2026-04-12T10:42:45.999Z</time></trkpt><trkpt lat="44.21143017528947" lon="11.566117035232333"><ele>602.0</ele><time>2026-04-12T10:42:47.999Z</time></trkpt><trkpt lat="44.21146521021522" lon="11.566200366653137"><ele>602.0</ele><time>2026-04-12T10:42:49.999Z</time></trkpt><trkpt lat="44.211507065110304" lon="11.566289098834142"><ele>602.0</ele><time>2026-04-12T10:42:51.999Z</time></trkpt><trkpt lat="44.21153347191428" lon="11.566406137970874"><ele>603.8333333333333</ele><time>2026-04-12T10:42:53.999Z</time></trkpt><trkpt lat="44.21153491743676" lon="11.566497028343234"><ele>605.6666666666666</ele><time>2026-04-12T10:42:55.999Z</time></trkpt><trkpt lat="44.21152739600716" lon="11.566613587045959"><ele>607.5</ele><time>2026-04-12T10:42:57.999Z</time></trkpt><trkpt lat="44.21151853054968" lon="11.566734694228117"><ele>609.3333333333334</ele><time>2026-04-12T10:42:59.999Z</time></trkpt><trkpt lat="44.21149703133853" lon="11.566836819248147"><ele>611.1666666666667</ele><time>2026-04-12T10:43:02Z</time></trkpt><trkpt lat="44.21149873330393" lon="11.56692675234633"><ele>613.0</ele><time>2026-04-12T10:43:04Z</time></trkpt><trkpt lat="44.21148970008207" lon="11.567046525087205"><ele>613.0</ele><time>2026-04-12T10:43:06Z</time></trkpt><trkpt lat="44.21151189445161" lon="11.567171684491358"><ele>613.0</ele><time>2026-04-12T10:43:08Z</time></trkpt><trkpt lat="44.21154877114065" lon="11.567277066300695"><ele>613.0</ele><time>2026-04-12T10:43:10Z</time></trkpt><trkpt lat="44.21158196231192" lon="11.567373960822575"><ele>613.0</ele><time>2026-04-12T10:43:12Z</time></trkpt><trkpt lat="44.211614166098514" lon="11.567476624652398"><ele>613.0</ele><time>2026-04-12T10:43:14Z</time></trkpt><trkpt lat="44.21163757128473" lon="11.567584388215042"><ele>613.0</ele><time>2026-04-12T10:43:16Z</time></trkpt><trkpt lat="44.21162337974229" lon="11.567710419188764"><ele>613.0</ele><time>2026-04-12T10:43:18Z</time></trkpt><trkpt lat="44.21159629745718" lon="11.567838887764129"><ele>613.0</ele><time>2026-04-12T10:43:20Z</time></trkpt><trkpt lat="44.211591910036525" lon="11.567973605905864"><ele>613.0</ele><time>2026-04-12T10:43:21.999Z</time></trkpt><trkpt lat="44.211611439297336" lon="11.568107969380947"><ele>613.0</ele><time>2026-04-12T10:43:23.999Z</time></trkpt><trkpt lat="44.21165893398216" lon="11.568227932124923"><ele>613.0</ele><time>2026-04-12T10:43:25.999Z</time></trkpt><trkpt lat="44.21170752933916" lon="11.568342898517843"><ele>613.0</ele><time>2026-04-12T10:43:27.999Z</time></trkpt><trkpt lat="44.21176156777303" lon="11.568473938160098"><ele>613.0</ele><time>2026-04-12T10:43:29.999Z</time></trkpt><trkpt lat="44.211768885053175" lon="11.568633946534993"><ele>613.0</ele><time>2026-04-12T10:43:31.999Z</time></trkpt><trkpt lat="44.211780704953654" lon="11.56872419858809"><ele>613.0</ele><time>2026-04-12T10:43:32.999Z</time></trkpt><trkpt lat="44.21182601816298" lon="11.568799883044498"><ele>613.0</ele><time>2026-04-12T10:43:33.999Z</time></trkpt><trkpt lat="44.211860211314274" lon="11.568880537948024"><ele>613.0</ele><time>2026-04-12T10:43:34.999Z</time></trkpt><trkpt lat="44.21190303266641" lon="11.569055941526797"><ele>611.7142857142858</ele><time>2026-04-12T10:43:36.999Z</time></trkpt><trkpt lat="44.21189005438733" lon="11.56916251912591"><ele>610.4285714285714</ele><time>2026-04-12T10:43:37.999Z</time></trkpt><trkpt lat="44.2118733397306" lon="11.569267924916224"><ele>609.1428571428571</ele><time>2026-04-12T10:43:38.999Z</time></trkpt><trkpt lat="44.21185046566394" lon="11.569374996075554"><ele>607.8571428571429</ele><time>2026-04-12T10:43:39.999Z</time></trkpt><trkpt lat="44.211828808675975" lon="11.569468430355204"><ele>606.5714285714286</ele><time>2026-04-12T10:43:40.999Z</time></trkpt><trkpt lat="44.21179755617875" lon="11.569554688247184"><ele>605.2857142857143</ele><time>2026-04-12T10:43:41.999Z</time></trkpt><trkpt lat="44.21175405131137" lon="11.569632258576508"><ele>604.0</ele><time>2026-04-12T10:43:42.999Z</time></trkpt><trkpt lat="44.21171310969942" lon="11.569716971812683"><ele>603.6</ele><time>2026-04-12T10:43:43.999Z</time></trkpt><trkpt lat="44.21167725082014" lon="11.569900600765559"><ele>603.2</ele><time>2026-04-12T10:43:45.999Z</time></trkpt><trkpt lat="44.21166736104605" lon="11.570007345429733"><ele>602.8000000000001</ele><time>2026-04-12T10:43:46.999Z</time></trkpt><trkpt lat="44.211680164060375" lon="11.570124259840055"><ele>602.4</ele><time>2026-04-12T10:43:47.999Z</time></trkpt><trkpt lat="44.21172609091721" lon="11.57023032024994"><ele>602.0</ele><time>2026-04-12T10:43:48.999Z</time></trkpt><trkpt lat="44.211799097263075" lon="11.570303452121323"><ele>599.6666666666666</ele><time>2026-04-12T10:43:49.999Z</time></trkpt><trkpt lat="44.21187280351551" lon="11.57035916738152"><ele>597.3333333333333</ele><time>2026-04-12T10:43:50.999Z</time></trkpt><trkpt lat="44.211937799738514" lon="11.570419010693396"><ele>595.0</ele><time>2026-04-12T10:43:51.999Z</time></trkpt><trkpt lat="44.21199449264734" lon="11.570486598098883"><ele>592.6666666666666</ele><time>2026-04-12T10:43:52.999Z</time></trkpt><trkpt lat="44.21204613235485" lon="11.570552964309368"><ele>590.3333333333334</ele><time>2026-04-12T10:43:53.999Z</time></trkpt><trkpt lat="44.21210329293883" lon="11.570628856087215"><ele>588.0</ele><time>2026-04-12T10:43:54.999Z</time></trkpt><trkpt lat="44.21216003241291" lon="11.570704188759443"><ele>588.0</ele><time>2026-04-12T10:43:55.999Z</time></trkpt><trkpt lat="44.212217010883805" lon="11.57078244229058"><ele>588.0</ele><time>2026-04-12T10:43:56.999Z</time></trkpt><trkpt lat="44.21227386086822" lon="11.570867028222557"><ele>588.0</ele><time>2026-04-12T10:43:57.999Z</time></trkpt><trkpt lat="44.21231859100809" lon="11.57094388277453"><ele>588.0</ele><time>2026-04-12T10:43:58.999Z</time></trkpt><trkpt lat="44.21235707613055" lon="11.571018483528361"><ele>588.0</ele><time>2026-04-12T10:43:59.999Z</time></trkpt><trkpt lat="44.21239331536865" lon="11.571095075171765"><ele>588.0</ele><time>2026-04-12T10:44:00.999Z</time></trkpt><trkpt lat="44.2124384800312" lon="11.57117416963106"><ele>588.0</ele><time>2026-04-12T10:44:01.999Z</time></trkpt><trkpt lat="44.21243746772146" lon="11.571271130566023"><ele>587.1666666666666</ele><time>2026-04-12T10:44:02.999Z</time></trkpt><trkpt lat="44.212405115332054" lon="11.571352580601069"><ele>586.3333333333334</ele><time>2026-04-12T10:44:03.999Z</time></trkpt><trkpt lat="44.212333414612154" lon="11.571486968211264"><ele>585.5</ele><time>2026-04-12T10:44:05.999Z</time></trkpt><trkpt lat="44.212310696537045" lon="11.571578174140917"><ele>584.6666666666667</ele><time>2026-04-12T10:44:06.999Z</time></trkpt><trkpt lat="44.21229077535373" lon="11.571663766896634"><ele>583.8333333333334</ele><time>2026-04-12T10:44:07.999Z</time></trkpt><trkpt lat="44.21225306804631" lon="11.571740918386482"><ele>583.0</ele><time>2026-04-12T10:44:08.999Z</time></trkpt><trkpt lat="44.212212848825885" lon="11.571879517278106"><ele>583.0</ele><time>2026-04-12T10:44:10.999Z</time></trkpt><trkpt lat="44.21220791088432" lon="11.572012368181044"><ele>583.0</ele><time>2026-04-12T10:44:12.999Z</time></trkpt><trkpt lat="44.21221294353734" lon="11.572166632991488"><ele>583.0</ele><time>2026-04-12T10:44:14.999Z</time></trkpt><trkpt lat="44.21216581297843" lon="11.57230791638827"><ele>583.0</ele><time>2026-04-12T10:44:16.999Z</time></trkpt><trkpt lat="44.21212071375646" lon="11.572447223209878"><ele>583.0</ele><time>2026-04-12T10:44:18.999Z</time></trkpt><trkpt lat="44.21206576859801" lon="11.57257087489416"><ele>585.4</ele><time>2026-04-12T10:44:20.999Z</time></trkpt><trkpt lat="44.21198413762809" lon="11.57265882434162"><ele>587.8</ele><time>2026-04-12T10:44:22.999Z</time></trkpt><trkpt lat="44.211940448709115" lon="11.572765347786827"><ele>590.2</ele><time>2026-04-12T10:44:24.999Z</time></trkpt><trkpt lat="44.211943568810035" lon="11.572890556755649"><ele>592.6</ele><time>2026-04-12T10:44:26.999Z</time></trkpt><trkpt lat="44.21200897222608" lon="11.573005063670161"><ele>595.0</ele><time>2026-04-12T10:44:28.999Z</time></trkpt><trkpt lat="44.212038537557284" lon="11.573137456036532"><ele>595.0</ele><time>2026-04-12T10:44:30.999Z</time></trkpt><trkpt lat="44.21211207128472" lon="11.573274688822888"><ele>595.0</ele><time>2026-04-12T10:44:32.999Z</time></trkpt><trkpt lat="44.212147538487336" lon="11.573429304909254"><ele>595.0</ele><time>2026-04-12T10:44:34.999Z</time></trkpt><trkpt lat="44.21220942818167" lon="11.573565732782745"><ele>595.0</ele><time>2026-04-12T10:44:36.999Z</time></trkpt><trkpt lat="44.21228114779693" lon="11.573684357494018"><ele>600.5</ele><time>2026-04-12T10:44:38.999Z</time></trkpt><trkpt lat="44.21239554072282" lon="11.573739235381812"><ele>606.0</ele><time>2026-04-12T10:44:40.999Z</time></trkpt><trkpt lat="44.212462572489" lon="11.573898503240006"><ele>611.5</ele><time>2026-04-12T10:44:42.999Z</time></trkpt><trkpt lat="44.21254714661254" lon="11.57399759104356"><ele>617.0</ele><time>2026-04-12T10:44:44.999Z</time></trkpt><trkpt lat="44.21262393488402" lon="11.57411828343826"><ele>617.0</ele><time>2026-04-12T10:44:46.999Z</time></trkpt><trkpt lat="44.21270029641723" lon="11.574223856744384"><ele>617.0</ele><time>2026-04-12T10:44:48.999Z</time></trkpt><trkpt lat="44.21278742543887" lon="11.574296942349154"><ele>617.0</ele><time>2026-04-12T10:44:50.999Z</time></trkpt><trkpt lat="44.21287452014819" lon="11.574363967597808"><ele>617.0</ele><time>2026-04-12T10:44:52.999Z</time></trkpt><trkpt lat="44.21295533699157" lon="11.57445115264779"><ele>617.0</ele><time>2026-04-12T10:44:54.999Z</time></trkpt><trkpt lat="44.2130343207174" lon="11.574547785473994"><ele>618.4</ele><time>2026-04-12T10:44:57Z</time></trkpt><trkpt lat="44.213107865749286" lon="11.574642404049275"><ele>619.8000000000001</ele><time>2026-04-12T10:44:59Z</time></trkpt><trkpt lat="44.213184055516166" lon="11.574740243631343"><ele>621.2</ele><time>2026-04-12T10:45:01Z</time></trkpt><trkpt lat="44.2132596203563" lon="11.574841011309912"><ele>622.6</ele><time>2026-04-12T10:45:03Z</time></trkpt><trkpt lat="44.21334268635636" lon="11.574951781975006"><ele>624.0</ele><time>2026-04-12T10:45:05Z</time></trkpt><trkpt lat="44.213416384365274" lon="11.575052718684942"><ele>626.2</ele><time>2026-04-12T10:45:07Z</time></trkpt><trkpt lat="44.21349084366743" lon="11.575155189354984"><ele>628.4</ele><time>2026-04-12T10:45:09Z</time></trkpt><trkpt lat="44.213562058180344" lon="11.575256542030973"><ele>630.6</ele><time>2026-04-12T10:45:11Z</time></trkpt><trkpt lat="44.21363256797936" lon="11.575361795796807"><ele>632.8</ele><time>2026-04-12T10:45:13Z</time></trkpt><trkpt lat="44.21368434580791" lon="11.575451860951956"><ele>635.0</ele><time>2026-04-12T10:45:15Z</time></trkpt><trkpt lat="44.213731056219615" lon="11.575543341418065"><ele>635.6666666666666</ele><time>2026-04-12T10:45:17Z</time></trkpt><trkpt lat="44.21377322904646" lon="11.575622186401471"><ele>636.3333333333333</ele><time>2026-04-12T10:45:19Z</time></trkpt><trkpt lat="44.21380236182013" lon="11.57571798945511"><ele>637.0</ele><time>2026-04-12T10:45:21Z</time></trkpt><trkpt lat="44.21382185193558" lon="11.575825397391029"><ele>637.6666666666666</ele><time>2026-04-12T10:45:23Z</time></trkpt><trkpt lat="44.21383679490627" lon="11.575941381735296"><ele>638.3333333333334</ele><time>2026-04-12T10:45:25Z</time></trkpt><trkpt lat="44.213870609899175" lon="11.576045664399043"><ele>639.0</ele><time>2026-04-12T10:45:27Z</time></trkpt><trkpt lat="44.21392665444417" lon="11.576145332840271"><ele>637.4</ele><time>2026-04-12T10:45:29Z</time></trkpt><trkpt lat="44.21397661466037" lon="11.576244988019448"><ele>635.8</ele><time>2026-04-12T10:45:31Z</time></trkpt><trkpt lat="44.2140109092277" lon="11.576335495836116"><ele>634.2</ele><time>2026-04-12T10:45:33Z</time></trkpt><trkpt lat="44.2140834637805" lon="11.576437089631806"><ele>632.6</ele><time>2026-04-12T10:45:35Z</time></trkpt><trkpt lat="44.21417378130434" lon="11.576523019658756"><ele>631.0</ele><time>2026-04-12T10:45:37Z</time></trkpt><trkpt lat="44.214180131049986" lon="11.576677920434095"><ele>631.0</ele><time>2026-04-12T10:45:38Z</time></trkpt><trkpt lat="44.214328176947284" lon="11.576630208562646"><ele>631.0</ele><time>2026-04-12T10:45:40Z</time></trkpt><trkpt lat="44.21443279878678" lon="11.576708311455205"><ele>631.0</ele><time>2026-04-12T10:45:42Z</time></trkpt><trkpt lat="44.21453943656851" lon="11.576799165453087"><ele>631.0</ele><time>2026-04-12T10:45:44Z</time></trkpt><trkpt lat="44.21459139343639" lon="11.57685443836139"><ele>631.0</ele><time>2026-04-12T10:45:45Z</time></trkpt><trkpt lat="44.21464519338463" lon="11.576910823261322"><ele>631.0</ele><time>2026-04-12T10:45:46Z</time></trkpt><trkpt lat="44.21463087192044" lon="11.577058967939303"><ele>631.0</ele><time>2026-04-12T10:45:47Z</time></trkpt><trkpt lat="44.214677890329064" lon="11.577128423006144"><ele>631.0</ele><time>2026-04-12T10:45:48Z</time></trkpt><trkpt lat="44.214824833290734" lon="11.577163692289645"><ele>631.0</ele><time>2026-04-12T10:45:50Z</time></trkpt><trkpt lat="44.214868931936664" lon="11.577227353987185"><ele>631.8</ele><time>2026-04-12T10:45:51Z</time></trkpt><trkpt lat="44.214963369864606" lon="11.57733495319544"><ele>632.6</ele><time>2026-04-12T10:45:53Z</time></trkpt><trkpt lat="44.21496551176318" lon="11.577486670536478"><ele>633.4</ele><time>2026-04-12T10:45:54Z</time></trkpt><trkpt lat="44.215028952517564" lon="11.577534107723084"><ele>634.2</ele><time>2026-04-12T10:45:55Z</time></trkpt><trkpt lat="44.21509862377094" lon="11.5775731447096"><ele>635.0</ele><time>2026-04-12T10:45:55.999Z</time></trkpt><trkpt lat="44.21516998600546" lon="11.577604049964"><ele>635.0</ele><time>2026-04-12T10:45:56.999Z</time></trkpt><trkpt lat="44.2152821731028" lon="11.577633806068002"><ele>635.0</ele><time>2026-04-12T10:45:58.999Z</time></trkpt><trkpt lat="44.215373547776885" lon="11.577709920989443"><ele>635.0</ele><time>2026-04-12T10:46:00.999Z</time></trkpt><trkpt lat="44.21546148935744" lon="11.577796851858128"><ele>635.0</ele><time>2026-04-12T10:46:02.999Z</time></trkpt><trkpt lat="44.21556213089182" lon="11.577870719768473"><ele>635.0</ele><time>2026-04-12T10:46:04.999Z</time></trkpt><trkpt lat="44.21562460420696" lon="11.577892272839483"><ele>635.0</ele><time>2026-04-12T10:46:05.999Z</time></trkpt><trkpt lat="44.21568772957319" lon="11.577892744817076"><ele>635.0</ele><time>2026-04-12T10:46:06.999Z</time></trkpt><trkpt lat="44.215800452553076" lon="11.577883539577943"><ele>635.0</ele><time>2026-04-12T10:46:08.999Z</time></trkpt><trkpt lat="44.215913228680755" lon="11.57779656063087"><ele>635.0</ele><time>2026-04-12T10:46:10.999Z</time></trkpt><trkpt lat="44.216014111145256" lon="11.577731174141592"><ele>635.0</ele><time>2026-04-12T10:46:12.999Z</time></trkpt><trkpt lat="44.21607791022587" lon="11.577695050528021"><ele>635.0</ele><time>2026-04-12T10:46:13.999Z</time></trkpt><trkpt lat="44.21618429452335" lon="11.577760092224842"><ele>635.0</ele><time>2026-04-12T10:46:15.999Z</time></trkpt><trkpt lat="44.21626305887414" lon="11.57790294950508"><ele>635.0</ele><time>2026-04-12T10:46:17.999Z</time></trkpt><trkpt lat="44.216291717125316" lon="11.577996706903988"><ele>635.0</ele><time>2026-04-12T10:46:18.999Z</time></trkpt><trkpt lat="44.21636098618038" lon="11.57813277133334"><ele>635.0</ele><time>2026-04-12T10:46:20.999Z</time></trkpt><trkpt lat="44.216401067994205" lon="11.578204529425863"><ele>637.5</ele><time>2026-04-12T10:46:21.999Z</time></trkpt><trkpt lat="44.216436922296786" lon="11.578288030974727"><ele>640.0</ele><time>2026-04-12T10:46:22.999Z</time></trkpt><trkpt lat="44.21653825593529" lon="11.578386763006193"><ele>642.5</ele><time>2026-04-12T10:46:24.999Z</time></trkpt><trkpt lat="44.2166002287531" lon="11.578424997927499"><ele>645.0</ele><time>2026-04-12T10:46:25.999Z</time></trkpt><trkpt lat="44.21666830118345" lon="11.578447057724377"><ele>647.5</ele><time>2026-04-12T10:46:26.999Z</time></trkpt><trkpt lat="44.21673155726946" lon="11.5784856431818"><ele>650.0</ele><time>2026-04-12T10:46:27.999Z</time></trkpt><trkpt lat="44.21679914171291" lon="11.578496658476158"><ele>650.0</ele><time>2026-04-12T10:46:28.999Z</time></trkpt><trkpt lat="44.216867682324526" lon="11.578484736674422"><ele>650.0</ele><time>2026-04-12T10:46:29.999Z</time></trkpt><trkpt lat="44.21698875639261" lon="11.578519043277748"><ele>650.0</ele><time>2026-04-12T10:46:31.999Z</time></trkpt><trkpt lat="44.21708861250535" lon="11.578481346456421"><ele>650.0</ele><time>2026-04-12T10:46:33.999Z</time></trkpt><trkpt lat="44.21718254744022" lon="11.578480300195954"><ele>650.0</ele><time>2026-04-12T10:46:35.999Z</time></trkpt><trkpt lat="44.21727258055477" lon="11.578480485239353"><ele>651.5</ele><time>2026-04-12T10:46:37.999Z</time></trkpt><trkpt lat="44.21735868472021" lon="11.578476164815475"><ele>653.0</ele><time>2026-04-12T10:46:39.999Z</time></trkpt><trkpt lat="44.21744388847655" lon="11.578434567164155"><ele>654.5</ele><time>2026-04-12T10:46:41.999Z</time></trkpt><trkpt lat="44.21750749689404" lon="11.578371138736168"><ele>656.0</ele><time>2026-04-12T10:46:43.999Z</time></trkpt><trkpt lat="44.21758068785038" lon="11.578271057811309"><ele>657.5</ele><time>2026-04-12T10:46:45.999Z</time></trkpt><trkpt lat="44.21764182853896" lon="11.578178911175007"><ele>659.0</ele><time>2026-04-12T10:46:47.999Z</time></trkpt><trkpt lat="44.21771315374304" lon="11.578104276563028"><ele>659.0</ele><time>2026-04-12T10:46:49.999Z</time></trkpt><trkpt lat="44.2177879111576" lon="11.578033883166123"><ele>659.0</ele><time>2026-04-12T10:46:51.999Z</time></trkpt><trkpt lat="44.217869501822136" lon="11.578016552404062"><ele>659.0</ele><time>2026-04-12T10:46:53.999Z</time></trkpt><trkpt lat="44.21795831290946" lon="11.578047709787423"><ele>659.0</ele><time>2026-04-12T10:46:55.999Z</time></trkpt><trkpt lat="44.218023917309914" lon="11.57815081735138"><ele>659.0</ele><time>2026-04-12T10:46:57.999Z</time></trkpt><trkpt lat="44.218076679145554" lon="11.578254534193405"><ele>659.0</ele><time>2026-04-12T10:46:59.999Z</time></trkpt><trkpt lat="44.218140694347376" lon="11.578342442968902"><ele>659.0</ele><time>2026-04-12T10:47:01.999Z</time></trkpt><trkpt lat="44.21820608849139" lon="11.578422932985113"><ele>659.0</ele><time>2026-04-12T10:47:04Z</time></trkpt><trkpt lat="44.2182781195627" lon="11.57850641373589"><ele>659.0</ele><time>2026-04-12T10:47:06Z</time></trkpt><trkpt lat="44.21834920429805" lon="11.578560647955017"><ele>659.0</ele><time>2026-04-12T10:47:08Z</time></trkpt><trkpt lat="44.218422280858036" lon="11.578631028662533"><ele>659.0</ele><time>2026-04-12T10:47:10Z</time></trkpt><trkpt lat="44.21847346453219" lon="11.57871267558729"><ele>664.6</ele><time>2026-04-12T10:47:12Z</time></trkpt><trkpt lat="44.218549554762106" lon="11.57878466389388"><ele>670.2</ele><time>2026-04-12T10:47:14Z</time></trkpt><trkpt lat="44.21861589016256" lon="11.578885348146674"><ele>675.8000000000001</ele><time>2026-04-12T10:47:16Z</time></trkpt><trkpt lat="44.218682011825614" lon="11.578975814082712"><ele>681.4000000000001</ele><time>2026-04-12T10:47:18Z</time></trkpt><trkpt lat="44.21875165741361" lon="11.579067467986313"><ele>687.0</ele><time>2026-04-12T10:47:20Z</time></trkpt><trkpt lat="44.21883073434579" lon="11.57916452736209"><ele>687.0</ele><time>2026-04-12T10:47:22Z</time></trkpt><trkpt lat="44.21889336472861" lon="11.579273897919535"><ele>687.0</ele><time>2026-04-12T10:47:24Z</time></trkpt><trkpt lat="44.21898614115555" lon="11.57937556370273"><ele>687.0</ele><time>2026-04-12T10:47:26Z</time></trkpt><trkpt lat="44.21905377374459" lon="11.579484772533803"><ele>687.0</ele><time>2026-04-12T10:47:28Z</time></trkpt><trkpt lat="44.2191413157834" lon="11.579607166347511"><ele>687.0</ele><time>2026-04-12T10:47:30Z</time></trkpt><trkpt lat="44.219183085668824" lon="11.579673087066178"><ele>685.2</ele><time>2026-04-12T10:47:31Z</time></trkpt><trkpt lat="44.21924748610164" lon="11.579813871131861"><ele>683.4000000000001</ele><time>2026-04-12T10:47:33Z</time></trkpt><trkpt lat="44.21931814697031" lon="11.579870919542568"><ele>681.5999999999999</ele><time>2026-04-12T10:47:34Z</time></trkpt><trkpt lat="44.21935530893731" lon="11.579945040197325"><ele>679.8</ele><time>2026-04-12T10:47:35Z</time></trkpt><trkpt lat="44.21942237443491" lon="11.580088939841813"><ele>678.0</ele><time>2026-04-12T10:47:37Z</time></trkpt><trkpt lat="44.219478741845464" lon="11.58016818965339"><ele>678.0</ele><time>2026-04-12T10:47:38Z</time></trkpt><trkpt lat="44.219530857001516" lon="11.580229619782793"><ele>678.0</ele><time>2026-04-12T10:47:39Z</time></trkpt><trkpt lat="44.21956979052157" lon="11.580301271655525"><ele>678.0</ele><time>2026-04-12T10:47:40Z</time></trkpt><trkpt lat="44.219603455632495" lon="11.580382521941067"><ele>678.0</ele><time>2026-04-12T10:47:41Z</time></trkpt><trkpt lat="44.21963569289085" lon="11.580467649988098"><ele>678.0</ele><time>2026-04-12T10:47:42Z</time></trkpt><trkpt lat="44.21966709365758" lon="11.580545307409814"><ele>678.0</ele><time>2026-04-12T10:47:43Z</time></trkpt><trkpt lat="44.21971742941657" lon="11.580628049846936"><ele>678.0</ele><time>2026-04-12T10:47:44Z</time></trkpt><trkpt lat="44.21975872423997" lon="11.580708280748723"><ele>676.5714285714286</ele><time>2026-04-12T10:47:45Z</time></trkpt><trkpt lat="44.219788462973085" lon="11.580798521727665"><ele>675.1428571428572</ele><time>2026-04-12T10:47:46Z</time></trkpt><trkpt lat="44.21982429087205" lon="11.580874775131383"><ele>673.7142857142858</ele><time>2026-04-12T10:47:47Z</time></trkpt><trkpt lat="44.21985917946397" lon="11.580959189765554"><ele>672.2857142857142</ele><time>2026-04-12T10:47:48Z</time></trkpt><trkpt lat="44.219903801281745" lon="11.581034148844438"><ele>670.8571428571429</ele><time>2026-04-12T10:47:49Z</time></trkpt><trkpt lat="44.21995714652543" lon="11.58110554923867"><ele>669.4285714285714</ele><time>2026-04-12T10:47:50Z</time></trkpt><trkpt lat="44.220023470386984" lon="11.581161834424186"><ele>668.0</ele><time>2026-04-12T10:47:51Z</time></trkpt><trkpt lat="44.2200869310297" lon="11.581227682633154"><ele>664.4</ele><time>2026-04-12T10:47:52Z</time></trkpt><trkpt lat="44.22015102745549" lon="11.581285340700683"><ele>660.8</ele><time>2026-04-12T10:47:53Z</time></trkpt><trkpt lat="44.220270467273615" lon="11.581353040349011"><ele>657.2</ele><time>2026-04-12T10:47:55Z</time></trkpt><trkpt lat="44.220346144198516" lon="11.581400378168329"><ele>653.6</ele><time>2026-04-12T10:47:56Z</time></trkpt><trkpt lat="44.22040658195071" lon="11.581448160413927"><ele>650.0</ele><time>2026-04-12T10:47:57Z</time></trkpt><trkpt lat="44.22047793218222" lon="11.581554716992008"><ele>650.0</ele><time>2026-04-12T10:47:59Z</time></trkpt><trkpt lat="44.22052083631004" lon="11.581662240999046"><ele>650.0</ele><time>2026-04-12T10:48:01Z</time></trkpt><trkpt lat="44.22057684842238" lon="11.581752317292654"><ele>650.0</ele><time>2026-04-12T10:48:03Z</time></trkpt><trkpt lat="44.22062659019873" lon="11.581806895727869"><ele>650.0</ele><time>2026-04-12T10:48:05Z</time></trkpt><trkpt lat="44.22070244873423" lon="11.581892243545752"><ele>650.0</ele><time>2026-04-12T10:48:07Z</time></trkpt><trkpt lat="44.220815466594246" lon="11.581930114135567"><ele>650.3333333333333</ele><time>2026-04-12T10:48:10Z</time></trkpt><trkpt lat="44.22089483822979" lon="11.581937555921249"><ele>650.6666666666666</ele><time>2026-04-12T10:48:12Z</time></trkpt><trkpt lat="44.22097376229321" lon="11.581933180831694"><ele>651.0</ele><time>2026-04-12T10:48:14Z</time></trkpt><trkpt lat="44.22104738499745" lon="11.58196114473728"><ele>651.3333333333334</ele><time>2026-04-12T10:48:16Z</time></trkpt><trkpt lat="44.22111855856777" lon="11.582003305464683"><ele>651.6666666666667</ele><time>2026-04-12T10:48:18Z</time></trkpt><trkpt lat="44.22118133524084" lon="11.58206779033424"><ele>652.0</ele><time>2026-04-12T10:48:19.999Z</time></trkpt><trkpt lat="44.22124846576701" lon="11.58212842308968"><ele>652.0</ele><time>2026-04-12T10:48:21.999Z</time></trkpt><trkpt lat="44.22130890115303" lon="11.582191229028526"><ele>652.0</ele><time>2026-04-12T10:48:23.999Z</time></trkpt><trkpt lat="44.22135758017302" lon="11.58225129858149"><ele>652.0</ele><time>2026-04-12T10:48:26.999Z</time></trkpt><trkpt lat="44.22143462466492" lon="11.582326198658604"><ele>652.0</ele><time>2026-04-12T10:48:28.999Z</time></trkpt><trkpt lat="44.221507237720914" lon="11.582384152892436"><ele>652.0</ele><time>2026-04-12T10:48:30.999Z</time></trkpt><trkpt lat="44.221581101677224" lon="11.582441611782166"><ele>652.0</ele><time>2026-04-12T10:48:32.999Z</time></trkpt><trkpt lat="44.22166310942986" lon="11.582502631347197"><ele>652.2</ele><time>2026-04-12T10:48:34.999Z</time></trkpt><trkpt lat="44.22175500238357" lon="11.582570250414776"><ele>652.4000000000001</ele><time>2026-04-12T10:48:36.999Z</time></trkpt><trkpt lat="44.22183353529807" lon="11.582634282711266"><ele>652.5999999999999</ele><time>2026-04-12T10:48:38.999Z</time></trkpt><trkpt lat="44.221909641814705" lon="11.582710291688933"><ele>652.8</ele><time>2026-04-12T10:48:40.999Z</time></trkpt><trkpt lat="44.22197993392527" lon="11.582803701656808"><ele>653.0</ele><time>2026-04-12T10:48:42.999Z</time></trkpt><trkpt lat="44.22204028155013" lon="11.582892097347013"><ele>653.0</ele><time>2026-04-12T10:48:44.999Z</time></trkpt><trkpt lat="44.22210865341223" lon="11.582981622565555"><ele>653.0</ele><time>2026-04-12T10:48:46.999Z</time></trkpt><trkpt lat="44.222196999278204" lon="11.583078261055062"><ele>653.0</ele><time>2026-04-12T10:48:48.999Z</time></trkpt><trkpt lat="44.22224711163868" lon="11.583139741333083"><ele>653.0</ele><time>2026-04-12T10:48:49.999Z</time></trkpt><trkpt lat="44.22230067696193" lon="11.583207521341537"><ele>653.0</ele><time>2026-04-12T10:48:50.999Z</time></trkpt><trkpt lat="44.222367603060746" lon="11.583278812081147"><ele>653.0</ele><time>2026-04-12T10:48:51.999Z</time></trkpt><trkpt lat="44.222439658513174" lon="11.583352543626681"><ele>651.8</ele><time>2026-04-12T10:48:52.999Z</time></trkpt><trkpt lat="44.222515115046654" lon="11.583431203754138"><ele>650.5999999999999</ele><time>2026-04-12T10:48:53.999Z</time></trkpt><trkpt lat="44.222591933648005" lon="11.583513557880014"><ele>649.4000000000001</ele><time>2026-04-12T10:48:54.999Z</time></trkpt><trkpt lat="44.22266809106483" lon="11.583602623665634"><ele>648.2</ele><time>2026-04-12T10:48:55.999Z</time></trkpt><trkpt lat="44.222734813194045" lon="11.58367781471928"><ele>647.0</ele><time>2026-04-12T10:48:56.999Z</time></trkpt><trkpt lat="44.222811357939726" lon="11.583741584367264"><ele>647.0</ele><time>2026-04-12T10:48:58.999Z</time></trkpt><trkpt lat="44.22287726381657" lon="11.583790609218067"><ele>647.0</ele><time>2026-04-12T10:49:02.999Z</time></trkpt><trkpt lat="44.222943973246" lon="11.583832565933186"><ele>647.0</ele><time>2026-04-12T10:49:03.999Z</time></trkpt><trkpt lat="44.223005700353674" lon="11.583866218168945"><ele>647.0</ele><time>2026-04-12T10:49:04.999Z</time></trkpt><trkpt lat="44.223077621888486" lon="11.583902539036474"><ele>647.0</ele><time>2026-04-12T10:49:05.999Z</time></trkpt><trkpt lat="44.22314250393618" lon="11.583934170735192"><ele>647.0</ele><time>2026-04-12T10:49:06.999Z</time></trkpt><trkpt lat="44.223262749825416" lon="11.583988650507512"><ele>648.0</ele><time>2026-04-12T10:49:09Z</time></trkpt><trkpt lat="44.22334169881006" lon="11.58402367634292"><ele>649.0</ele><time>2026-04-12T10:49:10Z</time></trkpt><trkpt lat="44.22346743273337" lon="11.58407964835296"><ele>650.0</ele><time>2026-04-12T10:49:11Z</time></trkpt><trkpt lat="44.22354297884293" lon="11.58410526708127"><ele>651.0</ele><time>2026-04-12T10:49:12Z</time></trkpt><trkpt lat="44.223627729785704" lon="11.584128809582138"><ele>652.0</ele><time>2026-04-12T10:49:13Z</time></trkpt><trkpt lat="44.223710758841214" lon="11.584141334988304"><ele>652.0</ele><time>2026-04-12T10:49:14Z</time></trkpt><trkpt lat="44.223788194497935" lon="11.584150200571699"><ele>652.0</ele><time>2026-04-12T10:49:15Z</time></trkpt><trkpt lat="44.223865481427715" lon="11.584157933111682"><ele>652.0</ele><time>2026-04-12T10:49:16Z</time></trkpt><trkpt lat="44.22393486902123" lon="11.584164035672057"><ele>652.0</ele><time>2026-04-12T10:49:17Z</time></trkpt><trkpt lat="44.224031565182564" lon="11.5839860990678"><ele>652.0</ele><time>2026-04-12T10:49:18Z</time></trkpt><trkpt lat="44.22411171633939" lon="11.584007576409375"><ele>650.2</ele><time>2026-04-12T10:49:19Z</time></trkpt><trkpt lat="44.22419204612834" lon="11.584068643121569"><ele>648.4000000000001</ele><time>2026-04-12T10:49:20Z</time></trkpt><trkpt lat="44.224259790639906" lon="11.584153253339013"><ele>646.5999999999999</ele><time>2026-04-12T10:49:21Z</time></trkpt><trkpt lat="44.22431348326408" lon="11.584209371886585"><ele>644.8</ele><time>2026-04-12T10:49:22Z</time></trkpt><trkpt lat="44.224415301707445" lon="11.584144038190733"><ele>643.0</ele><time>2026-04-12T10:49:24Z</time></trkpt><trkpt lat="44.22452266429316" lon="11.58423673380995"><ele>643.0</ele><time>2026-04-12T10:49:26Z</time></trkpt><trkpt lat="44.224585131777744" lon="11.584293644052673"><ele>643.0</ele><time>2026-04-12T10:49:27Z</time></trkpt><trkpt lat="44.2246691282096" lon="11.584353297261744"><ele>643.0</ele><time>2026-04-12T10:49:28Z</time></trkpt><trkpt lat="44.22478664981707" lon="11.584453448820751"><ele>643.0</ele><time>2026-04-12T10:49:30Z</time></trkpt><trkpt lat="44.22488653605033" lon="11.58458752146186"><ele>643.0</ele><time>2026-04-12T10:49:32Z</time></trkpt><trkpt lat="44.22494700183788" lon="11.584636181095512"><ele>640.8333333333334</ele><time>2026-04-12T10:49:33Z</time></trkpt><trkpt lat="44.225025941249406" lon="11.584681731859881"><ele>638.6666666666667</ele><time>2026-04-12T10:49:34Z</time></trkpt><trkpt lat="44.225050874552224" lon="11.584805199052699"><ele>636.5</ele><time>2026-04-12T10:49:35Z</time></trkpt><trkpt lat="44.225127708848206" lon="11.584856606978187"><ele>634.3333333333334</ele><time>2026-04-12T10:49:36Z</time></trkpt><trkpt lat="44.225213785933015" lon="11.584916735294577"><ele>632.1666666666666</ele><time>2026-04-12T10:49:37Z</time></trkpt><trkpt lat="44.22528201815646" lon="11.5849648438187"><ele>630.0</ele><time>2026-04-12T10:49:38Z</time></trkpt><trkpt lat="44.22536510915571" lon="11.58502342889945"><ele>630.0</ele><time>2026-04-12T10:49:39Z</time></trkpt><trkpt lat="44.22545199698617" lon="11.585083859286307"><ele>630.0</ele><time>2026-04-12T10:49:40Z</time></trkpt><trkpt lat="44.225520898652924" lon="11.585131026287646"><ele>630.0</ele><time>2026-04-12T10:49:41Z</time></trkpt><trkpt lat="44.22558474192561" lon="11.58512535839693"><ele>630.0</ele><time>2026-04-12T10:49:43Z</time></trkpt><trkpt lat="44.225741941411776" lon="11.58467564598036"><ele>630.1666666666666</ele><time>2026-04-12T10:49:44Z</time></trkpt><trkpt lat="44.225826665680664" lon="11.584627968438946"><ele>630.3333333333334</ele><time>2026-04-12T10:49:46Z</time></trkpt><trkpt lat="44.22582201711564" lon="11.58452331136291"><ele>630.5</ele><time>2026-04-12T10:49:48Z</time></trkpt><trkpt lat="44.22576595161863" lon="11.584460407597115"><ele>630.6666666666667</ele><time>2026-04-12T10:49:49Z</time></trkpt><trkpt lat="44.2256928834425" lon="11.58440686070001"><ele>630.8333333333334</ele><time>2026-04-12T10:49:50Z</time></trkpt><trkpt lat="44.225626192239964" lon="11.584378257253272"><ele>631.0</ele><time>2026-04-12T10:49:51Z</time></trkpt><trkpt lat="44.22557204398007" lon="11.584320727212443"><ele>631.0</ele><time>2026-04-12T10:49:52Z</time></trkpt><trkpt lat="44.22555991056697" lon="11.584221698626433"><ele>631.0</ele><time>2026-04-12T10:49:54Z</time></trkpt><trkpt lat="44.22564566728945" lon="11.584174917465397"><ele>631.0</ele><time>2026-04-12T10:49:55Z</time></trkpt><trkpt lat="44.22571559264701" lon="11.584095376641407"><ele>631.0</ele><time>2026-04-12T10:49:57Z</time></trkpt><trkpt lat="44.22571132901381" lon="11.583998334205578"><ele>631.0</ele><time>2026-04-12T10:49:58Z</time></trkpt><trkpt lat="44.22573166629757" lon="11.583886593951918"><ele>631.0</ele><time>2026-04-12T10:49:59Z</time></trkpt><trkpt lat="44.22579866930815" lon="11.583895155593995"><ele>627.1666666666667</ele><time>2026-04-12T10:50:03Z</time></trkpt><trkpt lat="44.22583894395015" lon="11.583733774097086"><ele>623.3333333333334</ele><time>2026-04-12T10:50:05Z</time></trkpt><trkpt lat="44.22585647204898" lon="11.583649374133486"><ele>619.5</ele><time>2026-04-12T10:50:06Z</time></trkpt><trkpt lat="44.22591444061943" lon="11.583769156633577"><ele>615.6666666666666</ele><time>2026-04-12T10:50:10Z</time></trkpt><trkpt lat="44.22598813502742" lon="11.583737251652334"><ele>611.8333333333333</ele><time>2026-04-12T10:50:12Z</time></trkpt><trkpt lat="44.22599902109755" lon="11.583624027858951"><ele>608.0</ele><time>2026-04-12T10:50:13Z</time></trkpt><trkpt lat="44.22601143218342" lon="11.583513639175454"><ele>605.6666666666666</ele><time>2026-04-12T10:50:14Z</time></trkpt><trkpt lat="44.22607721927903" lon="11.583567515863207"><ele>603.3333333333333</ele><time>2026-04-12T10:50:16Z</time></trkpt><trkpt lat="44.22613012116444" lon="11.583498778074292"><ele>601.0</ele><time>2026-04-12T10:50:19Z</time></trkpt><trkpt lat="44.226227091117956" lon="11.583463324035698"><ele>598.6666666666666</ele><time>2026-04-12T10:50:21Z</time></trkpt><trkpt lat="44.22631462309212" lon="11.583499489873697"><ele>596.3333333333334</ele><time>2026-04-12T10:50:23Z</time></trkpt><trkpt lat="44.22639166064309" lon="11.583587536075997"><ele>594.0</ele><time>2026-04-12T10:50:25Z</time></trkpt><trkpt lat="44.22648169856552" lon="11.583624637642314"><ele>589.4</ele><time>2026-04-12T10:50:27Z</time></trkpt><trkpt lat="44.22659092047455" lon="11.583690319292621"><ele>584.8</ele><time>2026-04-12T10:50:30Z</time></trkpt><trkpt lat="44.226651229476445" lon="11.58363765847419"><ele>580.2</ele><time>2026-04-12T10:50:30.999Z</time></trkpt><trkpt lat="44.22677049068846" lon="11.583737783996122"><ele>575.6</ele><time>2026-04-12T10:50:33.999Z</time></trkpt><trkpt lat="44.22685802210205" lon="11.58376612943693"><ele>571.0</ele><time>2026-04-12T10:50:34.999Z</time></trkpt><trkpt lat="44.22692140148736" lon="11.583801566859142"><ele>571.0</ele><time>2026-04-12T10:50:35.999Z</time></trkpt><trkpt lat="44.226977748935056" lon="11.583958598040729"><ele>571.0</ele><time>2026-04-12T10:50:37.999Z</time></trkpt><trkpt lat="44.227067586170406" lon="11.583961944681935"><ele>571.0</ele><time>2026-04-12T10:50:39.999Z</time></trkpt><trkpt lat="44.227116840741374" lon="11.58402733387344"><ele>571.0</ele><time>2026-04-12T10:50:41.999Z</time></trkpt><trkpt lat="44.227187537217056" lon="11.584048836736962"><ele>571.0</ele><time>2026-04-12T10:50:43.999Z</time></trkpt><trkpt lat="44.22727464181962" lon="11.584113764035521"><ele>565.1666666666667</ele><time>2026-04-12T10:50:45.999Z</time></trkpt><trkpt lat="44.227327041360695" lon="11.584026914424081"><ele>559.3333333333334</ele><time>2026-04-12T10:50:47.999Z</time></trkpt><trkpt lat="44.227385713974726" lon="11.58411631245775"><ele>553.5</ele><time>2026-04-12T10:50:49.999Z</time></trkpt><trkpt lat="44.22747869060942" lon="11.584145539014452"><ele>547.6666666666666</ele><time>2026-04-12T10:50:50.999Z</time></trkpt><trkpt lat="44.227566658125006" lon="11.584171840882327"><ele>541.8333333333333</ele><time>2026-04-12T10:50:52.999Z</time></trkpt><trkpt lat="44.227629523651714" lon="11.584198050527316"><ele>536.0</ele><time>2026-04-12T10:50:54.999Z</time></trkpt><trkpt lat="44.22770363764763" lon="11.584241632394527"><ele>536.0</ele><time>2026-04-12T10:50:56.999Z</time></trkpt><trkpt lat="44.227768423922505" lon="11.584225755976592"><ele>536.0</ele><time>2026-04-12T10:50:58.999Z</time></trkpt><trkpt lat="44.22781620010411" lon="11.584164270675853"><ele>536.0</ele><time>2026-04-12T10:51:00.999Z</time></trkpt><trkpt lat="44.22783081206986" lon="11.584066830866291"><ele>536.0</ele><time>2026-04-12T10:51:03.999Z</time></trkpt><trkpt lat="44.227772275198916" lon="11.584016268698447"><ele>536.0</ele><time>2026-04-12T10:51:05.999Z</time></trkpt><trkpt lat="44.22775649689907" lon="11.583841279800755"><ele>536.0</ele><time>2026-04-12T10:51:08.999Z</time></trkpt><trkpt lat="44.22777236399705" lon="11.58375038755636"><ele>536.0</ele><time>2026-04-12T10:51:09.999Z</time></trkpt><trkpt lat="44.22784428862689" lon="11.583752335433406"><ele>536.0</ele><time>2026-04-12T10:51:11.999Z</time></trkpt><trkpt lat="44.22790665759976" lon="11.58380532057817"><ele>536.0</ele><time>2026-04-12T10:51:33Z</time></trkpt><trkpt lat="44.22800450429985" lon="11.58379190163306"><ele>536.0</ele><time>2026-04-12T10:51:36Z</time></trkpt><trkpt lat="44.228111546553365" lon="11.583759658835678"><ele>536.0</ele><time>2026-04-12T10:51:38Z</time></trkpt><trkpt lat="44.2281720460996" lon="11.583724583690252"><ele>536.0</ele><time>2026-04-12T10:51:39Z</time></trkpt><trkpt lat="44.22826331502819" lon="11.583668689309699"><ele>532.0</ele><time>2026-04-12T10:51:41Z</time></trkpt><trkpt lat="44.22835783451255" lon="11.58365455754582"><ele>528.0</ele><time>2026-04-12T10:51:43Z</time></trkpt><trkpt lat="44.228412824093986" lon="11.583706727145575"><ele>524.0</ele><time>2026-04-12T10:51:45Z</time></trkpt><trkpt lat="44.22847106768392" lon="11.583740288058307"><ele>520.0</ele><time>2026-04-12T10:52:32.999Z</time></trkpt><trkpt lat="44.22855828681682" lon="11.583804105358231"><ele>516.0</ele><time>2026-04-12T10:52:35.999Z</time></trkpt><trkpt lat="44.22865136468041" lon="11.583873770839492"><ele>512.0</ele><time>2026-04-12T10:52:37.999Z</time></trkpt><trkpt lat="44.22873250861568" lon="11.583983136763848"><ele>512.0</ele><time>2026-04-12T10:52:39.999Z</time></trkpt><trkpt lat="44.2288074606822" lon="11.584125062686978"><ele>512.0</ele><time>2026-04-12T10:52:41.999Z</time></trkpt><trkpt lat="44.22886211938593" lon="11.584179163367162"><ele>512.0</ele><time>2026-04-12T10:52:42.999Z</time></trkpt><trkpt lat="44.228928874331714" lon="11.584158339298774"><ele>512.0</ele><time>2026-04-12T10:52:43.999Z</time></trkpt><trkpt lat="44.22900535323182" lon="11.584022975209319"><ele>512.0</ele><time>2026-04-12T10:52:45.999Z</time></trkpt><trkpt lat="44.22907887784094" lon="11.583879174924437"><ele>512.1428571428571</ele><time>2026-04-12T10:52:47.999Z</time></trkpt><trkpt lat="44.22912436881884" lon="11.583812396704138"><ele>512.2857142857142</ele><time>2026-04-12T10:52:48.999Z</time></trkpt><trkpt lat="44.22917717622604" lon="11.583764486984787"><ele>512.4285714285714</ele><time>2026-04-12T10:52:49.999Z</time></trkpt><trkpt lat="44.229237305357834" lon="11.583710736339047"><ele>512.5714285714286</ele><time>2026-04-12T10:52:50.999Z</time></trkpt><trkpt lat="44.22929224513263" lon="11.583661288922084"><ele>512.7142857142858</ele><time>2026-04-12T10:52:51.999Z</time></trkpt><trkpt lat="44.2293452352067" lon="11.583602939678595"><ele>512.8571428571429</ele><time>2026-04-12T10:52:52.999Z</time></trkpt><trkpt lat="44.22940461609446" lon="11.583550039814325"><ele>513.0</ele><time>2026-04-12T10:52:53.999Z</time></trkpt><trkpt lat="44.2294710031293" lon="11.583525034465195"><ele>515.3333333333334</ele><time>2026-04-12T10:52:54.999Z</time></trkpt><trkpt lat="44.229594609526515" lon="11.583517498365183"><ele>517.6666666666666</ele><time>2026-04-12T10:52:56.999Z</time></trkpt><trkpt lat="44.229669103784786" lon="11.583544322044323"><ele>520.0</ele><time>2026-04-12T10:52:57.999Z</time></trkpt><trkpt lat="44.22973072251588" lon="11.58359017262245"><ele>522.3333333333333</ele><time>2026-04-12T10:52:58.999Z</time></trkpt><trkpt lat="44.22979422348813" lon="11.583628203193578"><ele>524.6666666666666</ele><time>2026-04-12T10:52:59.999Z</time></trkpt><trkpt lat="44.2298709439969" lon="11.583669518238596"><ele>527.0</ele><time>2026-04-12T10:53:00.999Z</time></trkpt><trkpt lat="44.22994976095623" lon="11.583718547539565"><ele>527.0</ele><time>2026-04-12T10:53:01.999Z</time></trkpt><trkpt lat="44.23001496432073" lon="11.583754919344994"><ele>527.0</ele><time>2026-04-12T10:53:02.999Z</time></trkpt><trkpt lat="44.230085354682686" lon="11.58381865309498"><ele>527.0</ele><time>2026-04-12T10:53:03.999Z</time></trkpt><trkpt lat="44.230164209332166" lon="11.58384987188586"><ele>527.0</ele><time>2026-04-12T10:53:04.999Z</time></trkpt><trkpt lat="44.23023127756005" lon="11.583855518726395"><ele>527.0</ele><time>2026-04-12T10:53:05.999Z</time></trkpt><trkpt lat="44.230300314814315" lon="11.583843656782152"><ele>527.0</ele><time>2026-04-12T10:53:06.999Z</time></trkpt><trkpt lat="44.230374670208775" lon="11.583782206745491"><ele>527.0000000000001</ele><time>2026-04-12T10:53:07.999Z</time></trkpt><trkpt lat="44.230432444362236" lon="11.583700837328365"><ele>527.0</ele><time>2026-04-12T10:53:08.999Z</time></trkpt><trkpt lat="44.230474658354424" lon="11.583619147367134"><ele>527.0</ele><time>2026-04-12T10:53:09.999Z</time></trkpt><trkpt lat="44.230513456029996" lon="11.583534533004128"><ele>527.0</ele><time>2026-04-12T10:53:10.999Z</time></trkpt><trkpt lat="44.230543900957834" lon="11.583434223462794"><ele>527.0</ele><time>2026-04-12T10:53:11.999Z</time></trkpt><trkpt lat="44.230576701817284" lon="11.583345005761666"><ele>527.0000000000001</ele><time>2026-04-12T10:53:12.999Z</time></trkpt><trkpt lat="44.2306065795089" lon="11.58326134919188"><ele>527.0</ele><time>2026-04-12T10:53:13.999Z</time></trkpt><trkpt lat="44.23063409255825" lon="11.583101433847311"><ele>521.8333333333333</ele><time>2026-04-12T10:53:15.999Z</time></trkpt><trkpt lat="44.230614858185945" lon="11.582970068263899"><ele>516.6666666666666</ele><time>2026-04-12T10:53:17.999Z</time></trkpt><trkpt lat="44.23062355707641" lon="11.582865009644818"><ele>511.5</ele><time>2026-04-12T10:53:19.999Z</time></trkpt><trkpt lat="44.230663523567564" lon="11.582794298831384"><ele>506.33333333333337</ele><time>2026-04-12T10:53:22Z</time></trkpt><trkpt lat="44.23071292235593" lon="11.582728866587951"><ele>501.1666666666667</ele><time>2026-04-12T10:53:24Z</time></trkpt><trkpt lat="44.23079251807838" lon="11.58266454297109"><ele>496.0</ele><time>2026-04-12T10:53:26Z</time></trkpt><trkpt lat="44.23087408872339" lon="11.582619636596519"><ele>496.0</ele><time>2026-04-12T10:53:28Z</time></trkpt><trkpt lat="44.23094366240511" lon="11.582542947790882"><ele>496.0</ele><time>2026-04-12T10:53:30Z</time></trkpt><trkpt lat="44.23101276372508" lon="11.582428089153137"><ele>496.0</ele><time>2026-04-12T10:53:32Z</time></trkpt><trkpt lat="44.231060855821255" lon="11.582296642879838"><ele>496.0</ele><time>2026-04-12T10:53:34Z</time></trkpt><trkpt lat="44.23113387873769" lon="11.582204170620736"><ele>496.0</ele><time>2026-04-12T10:53:36Z</time></trkpt><trkpt lat="44.23121831161271" lon="11.582269839133561"><ele>496.00000000000006</ele><time>2026-04-12T10:53:38Z</time></trkpt><trkpt lat="44.23124149146683" lon="11.58244801190614"><ele>496.0</ele><time>2026-04-12T10:53:40Z</time></trkpt><trkpt lat="44.23125743045526" lon="11.582537704926912"><ele>496.0</ele><time>2026-04-12T10:53:41Z</time></trkpt><trkpt lat="44.231286893344716" lon="11.582631473913745"><ele>496.0</ele><time>2026-04-12T10:53:43Z</time></trkpt><trkpt lat="44.23130538420721" lon="11.582731274493783"><ele>496.00000000000006</ele><time>2026-04-12T10:53:44Z</time></trkpt><trkpt lat="44.231347512048146" lon="11.582820222105193"><ele>496.0</ele><time>2026-04-12T10:53:45Z</time></trkpt><trkpt lat="44.23141746613013" lon="11.582942332980414"><ele>497.33333333333337</ele><time>2026-04-12T10:53:46Z</time></trkpt><trkpt lat="44.231470963927755" lon="11.583026593236676"><ele>498.6666666666667</ele><time>2026-04-12T10:53:47Z</time></trkpt><trkpt lat="44.23153231390117" lon="11.583104572500005"><ele>500.0</ele><time>2026-04-12T10:53:48Z</time></trkpt><trkpt lat="44.23158339770772" lon="11.583184699221569"><ele>501.33333333333337</ele><time>2026-04-12T10:53:49Z</time></trkpt><trkpt lat="44.231630224198504" lon="11.583271958079838"><ele>502.6666666666667</ele><time>2026-04-12T10:53:50Z</time></trkpt><trkpt lat="44.231689535311425" lon="11.583411257987693"><ele>504.0</ele><time>2026-04-12T10:53:52Z</time></trkpt><trkpt lat="44.231725760941266" lon="11.583511061233112"><ele>504.0</ele><time>2026-04-12T10:53:53Z</time></trkpt><trkpt lat="44.23180149373341" lon="11.583617745611136"><ele>504.0</ele><time>2026-04-12T10:53:54Z</time></trkpt><trkpt lat="44.23186336233875" lon="11.583700868098655"><ele>504.0</ele><time>2026-04-12T10:53:55Z</time></trkpt><trkpt lat="44.23191696663568" lon="11.583789076116677"><ele>504.0</ele><time>2026-04-12T10:53:56Z</time></trkpt><trkpt lat="44.23198075363826" lon="11.583816780021333"><ele>504.0</ele><time>2026-04-12T10:53:57Z</time></trkpt><trkpt lat="44.232055892330564" lon="11.583887143699123"><ele>504.0</ele><time>2026-04-12T10:53:58Z</time></trkpt><trkpt lat="44.232134225154255" lon="11.583940539461791"><ele>503.0</ele><time>2026-04-12T10:53:59Z</time></trkpt><trkpt lat="44.23221258144074" lon="11.584025841508014"><ele>502.0</ele><time>2026-04-12T10:54:00Z</time></trkpt><trkpt lat="44.23231095895698" lon="11.584055541728713"><ele>501.0</ele><time>2026-04-12T10:54:01Z</time></trkpt><trkpt lat="44.232400050989945" lon="11.584051998956467"><ele>500.0</ele><time>2026-04-12T10:54:02Z</time></trkpt><trkpt lat="44.232513094770404" lon="11.584026488863596"><ele>499.0</ele><time>2026-04-12T10:54:03Z</time></trkpt><trkpt lat="44.23259534491137" lon="11.583982010999188"><ele>499.00000000000006</ele><time>2026-04-12T10:54:04Z</time></trkpt><trkpt lat="44.232674947144936" lon="11.583985553991889"><ele>499.0</ele><time>2026-04-12T10:54:05Z</time></trkpt><trkpt lat="44.23276219753643" lon="11.584093384986186"><ele>499.0</ele><time>2026-04-12T10:54:07Z</time></trkpt><trkpt lat="44.2327991233271" lon="11.584164974593632"><ele>499.0</ele><time>2026-04-12T10:54:08Z</time></trkpt><trkpt lat="44.23281296591406" lon="11.584266575788526"><ele>499.00000000000006</ele><time>2026-04-12T10:54:09Z</time></trkpt><trkpt lat="44.232850147431286" lon="11.58438823331453"><ele>499.0</ele><time>2026-04-12T10:54:10Z</time></trkpt><trkpt lat="44.23284901958021" lon="11.584515108182218"><ele>500.0</ele><time>2026-04-12T10:54:11Z</time></trkpt><trkpt lat="44.232848210352174" lon="11.58464067332202"><ele>501.0</ele><time>2026-04-12T10:54:12Z</time></trkpt><trkpt lat="44.232851150540775" lon="11.584769580834378"><ele>502.0</ele><time>2026-04-12T10:54:13Z</time></trkpt><trkpt lat="44.23286684225429" lon="11.58489681850451"><ele>503.0</ele><time>2026-04-12T10:54:14Z</time></trkpt><trkpt lat="44.2328830433151" lon="11.585020932050996"><ele>504.0</ele><time>2026-04-12T10:54:15Z</time></trkpt><trkpt lat="44.232908405386496" lon="11.585143863700857"><ele>504.0</ele><time>2026-04-12T10:54:16Z</time></trkpt><trkpt lat="44.232939976229765" lon="11.585262294597408"><ele>504.0</ele><time>2026-04-12T10:54:17Z</time></trkpt><trkpt lat="44.23296639501237" lon="11.585380924115318"><ele>504.0</ele><time>2026-04-12T10:54:18Z</time></trkpt><trkpt lat="44.23298084319945" lon="11.585517749480143"><ele>504.0</ele><time>2026-04-12T10:54:19Z</time></trkpt><trkpt lat="44.232982852356685" lon="11.585652523936279"><ele>504.0</ele><time>2026-04-12T10:54:20Z</time></trkpt><trkpt lat="44.23296823974628" lon="11.585775112129472"><ele>505.6</ele><time>2026-04-12T10:54:21Z</time></trkpt><trkpt lat="44.23294301862155" lon="11.585897084847751"><ele>507.2</ele><time>2026-04-12T10:54:22Z</time></trkpt><trkpt lat="44.23291001999583" lon="11.58599327434277"><ele>508.80000000000007</ele><time>2026-04-12T10:54:23Z</time></trkpt><trkpt lat="44.23287025924046" lon="11.586063464824786"><ele>510.40000000000003</ele><time>2026-04-12T10:54:24Z</time></trkpt><trkpt lat="44.23282004502121" lon="11.586223877544333"><ele>512.0</ele><time>2026-04-12T10:54:26Z</time></trkpt><trkpt lat="44.23279856397982" lon="11.586384387446977"><ele>512.6</ele><time>2026-04-12T10:54:28Z</time></trkpt><trkpt lat="44.23283546664482" lon="11.586535399178016"><ele>513.2</ele><time>2026-04-12T10:54:30Z</time></trkpt><trkpt lat="44.23287731503077" lon="11.58667340173604"><ele>513.8</ele><time>2026-04-12T10:54:32Z</time></trkpt><trkpt lat="44.232902352721545" lon="11.586794954109763"><ele>514.4</ele><time>2026-04-12T10:54:34Z</time></trkpt><trkpt lat="44.2329000846426" lon="11.586941849773877"><ele>515.0</ele><time>2026-04-12T10:54:35.999Z</time></trkpt><trkpt lat="44.23282758471109" lon="11.587066435327454"><ele>517.0</ele><time>2026-04-12T10:54:37.999Z</time></trkpt><trkpt lat="44.23280863657711" lon="11.587194880716305"><ele>519.0</ele><time>2026-04-12T10:54:39.999Z</time></trkpt><trkpt lat="44.23277190751582" lon="11.58728228414858"><ele>521.0</ele><time>2026-04-12T10:54:41.999Z</time></trkpt><trkpt lat="44.23275398879742" lon="11.587392166194592"><ele>523.0</ele><time>2026-04-12T10:54:44.999Z</time></trkpt><trkpt lat="44.23277850442348" lon="11.587502325333277"><ele>525.0</ele><time>2026-04-12T10:54:47.999Z</time></trkpt><trkpt lat="44.23282764177469" lon="11.587567768544714"><ele>527.0</ele><time>2026-04-12T10:54:49.999Z</time></trkpt><trkpt lat="44.23287186136442" lon="11.587635901859013"><ele>527.0</ele><time>2026-04-12T10:54:52.999Z</time></trkpt><trkpt lat="44.2329135144557" lon="11.587706713387197"><ele>527.0</ele><time>2026-04-12T10:54:54.999Z</time></trkpt><trkpt lat="44.2329910584446" lon="11.587777072554712"><ele>527.0</ele><time>2026-04-12T10:54:57.999Z</time></trkpt><trkpt lat="44.23304917000689" lon="11.587829892505383"><ele>527.0</ele><time>2026-04-12T10:54:59.999Z</time></trkpt><trkpt lat="44.233113386912656" lon="11.587900009620666"><ele>527.0</ele><time>2026-04-12T10:55:01.999Z</time></trkpt><trkpt lat="44.233181331146525" lon="11.587982905225184"><ele>527.0</ele><time>2026-04-12T10:55:04.999Z</time></trkpt><trkpt lat="44.233226651768234" lon="11.588078384980637"><ele>527.7142857142858</ele><time>2026-04-12T10:55:06.999Z</time></trkpt><trkpt lat="44.233274818769424" lon="11.58816183647744"><ele>528.4285714285714</ele><time>2026-04-12T10:55:08.999Z</time></trkpt><trkpt lat="44.23331287518363" lon="11.58825427055928"><ele>529.1428571428571</ele><time>2026-04-12T10:55:10.999Z</time></trkpt><trkpt lat="44.23332097542873" lon="11.588353245700324"><ele>529.8571428571429</ele><time>2026-04-12T10:55:12.999Z</time></trkpt><trkpt lat="44.23331131066816" lon="11.588467496510853"><ele>530.5714285714286</ele><time>2026-04-12T10:55:15.999Z</time></trkpt><trkpt lat="44.23329222546487" lon="11.588561805478998"><ele>531.2857142857143</ele><time>2026-04-12T10:55:17.999Z</time></trkpt><trkpt lat="44.23327643539125" lon="11.588651741006792"><ele>532.0</ele><time>2026-04-12T10:55:19.999Z</time></trkpt><trkpt lat="44.233285545296674" lon="11.588781734184408"><ele>532.0</ele><time>2026-04-12T10:55:22.999Z</time></trkpt><trkpt lat="44.23329678426219" lon="11.588869381766317"><ele>532.0</ele><time>2026-04-12T10:55:24.999Z</time></trkpt><trkpt lat="44.233327637969474" lon="11.588956484537952"><ele>532.0</ele><time>2026-04-12T10:55:27Z</time></trkpt><trkpt lat="44.233358724307855" lon="11.589047802670315"><ele>532.0</ele><time>2026-04-12T10:55:29Z</time></trkpt><trkpt lat="44.2333928910881" lon="11.589138504619934"><ele>532.0</ele><time>2026-04-12T10:55:31Z</time></trkpt><trkpt lat="44.23343661013042" lon="11.589218376464572"><ele>532.0</ele><time>2026-04-12T10:55:33Z</time></trkpt><trkpt lat="44.2334932862399" lon="11.589301226650313"><ele>532.0</ele><time>2026-04-12T10:55:35Z</time></trkpt><trkpt lat="44.23354444079381" lon="11.589372317870469"><ele>532.0</ele><time>2026-04-12T10:55:37Z</time></trkpt><trkpt lat="44.23358895579875" lon="11.589465182756324"><ele>532.0</ele><time>2026-04-12T10:55:39Z</time></trkpt><trkpt lat="44.233610709103544" lon="11.589575449639462"><ele>532.0</ele><time>2026-04-12T10:55:41Z</time></trkpt><trkpt lat="44.23361971346097" lon="11.589701562700215"><ele>532.0</ele><time>2026-04-12T10:55:43Z</time></trkpt><trkpt lat="44.23360587630779" lon="11.589828069501984"><ele>532.0</ele><time>2026-04-12T10:55:45Z</time></trkpt><trkpt lat="44.233606442710105" lon="11.589959715304294"><ele>532.0</ele><time>2026-04-12T10:55:47Z</time></trkpt><trkpt lat="44.23361681364835" lon="11.590088984554066"><ele>533.0</ele><time>2026-04-12T10:55:49Z</time></trkpt><trkpt lat="44.233625084175934" lon="11.590223542487827"><ele>534.0</ele><time>2026-04-12T10:55:51Z</time></trkpt><trkpt lat="44.23363247453578" lon="11.590357399422526"><ele>535.0</ele><time>2026-04-12T10:55:53Z</time></trkpt><trkpt lat="44.23365478621324" lon="11.590496037097791"><ele>536.0</ele><time>2026-04-12T10:55:55Z</time></trkpt><trkpt lat="44.23371147819284" lon="11.590592988422072"><ele>537.0</ele><time>2026-04-12T10:55:57Z</time></trkpt><trkpt lat="44.233776481047" lon="11.59068859767829"><ele>535.8000000000001</ele><time>2026-04-12T10:55:59Z</time></trkpt><trkpt lat="44.23383046981804" lon="11.590798585185832"><ele>534.6</ele><time>2026-04-12T10:56:01Z</time></trkpt><trkpt lat="44.233903324579614" lon="11.590873630963397"><ele>533.4000000000001</ele><time>2026-04-12T10:56:03Z</time></trkpt><trkpt lat="44.23395876755897" lon="11.590965309138317"><ele>532.2</ele><time>2026-04-12T10:56:05Z</time></trkpt><trkpt lat="44.23401214774379" lon="11.591083829126063"><ele>531.0</ele><time>2026-04-12T10:56:07Z</time></trkpt><trkpt lat="44.23405396633821" lon="11.591193786397895"><ele>535.4</ele><time>2026-04-12T10:56:09Z</time></trkpt><trkpt lat="44.23410233767068" lon="11.591321782704401"><ele>539.8</ele><time>2026-04-12T10:56:11Z</time></trkpt><trkpt lat="44.234149961517815" lon="11.591407710587262"><ele>544.1999999999999</ele><time>2026-04-12T10:56:13Z</time></trkpt><trkpt lat="44.23419781634341" lon="11.591521573157735"><ele>548.6</ele><time>2026-04-12T10:56:15Z</time></trkpt><trkpt lat="44.23427531885466" lon="11.591623919004967"><ele>553.0</ele><time>2026-04-12T10:56:17Z</time></trkpt><trkpt lat="44.234343990642394" lon="11.59171177896832"><ele>553.0</ele><time>2026-04-12T10:56:19Z</time></trkpt><trkpt lat="44.23441573628639" lon="11.591788059661708"><ele>553.0</ele><time>2026-04-12T10:56:21Z</time></trkpt><trkpt lat="44.23448854353686" lon="11.591855151567964"><ele>553.0</ele><time>2026-04-12T10:56:23Z</time></trkpt><trkpt lat="44.23456192819482" lon="11.591915194328779"><ele>553.0</ele><time>2026-04-12T10:56:25Z</time></trkpt><trkpt lat="44.23464307410955" lon="11.591966261499925"><ele>553.0</ele><time>2026-04-12T10:56:27Z</time></trkpt><trkpt lat="44.234758308475506" lon="11.591968102882102"><ele>551.7142857142857</ele><time>2026-04-12T10:56:29Z</time></trkpt><trkpt lat="44.23481627829515" lon="11.591925500761144"><ele>550.4285714285714</ele><time>2026-04-12T10:56:30Z</time></trkpt><trkpt lat="44.234866250413326" lon="11.591859258744746"><ele>549.1428571428571</ele><time>2026-04-12T10:56:31Z</time></trkpt><trkpt lat="44.234891182308814" lon="11.591769174906648"><ele>547.8571428571429</ele><time>2026-04-12T10:56:32.999Z</time></trkpt><trkpt lat="44.23492053610115" lon="11.591677825906276"><ele>546.5714285714286</ele><time>2026-04-12T10:56:36.999Z</time></trkpt><trkpt lat="44.234981496432226" lon="11.59162227816859"><ele>545.2857142857142</ele><time>2026-04-12T10:56:45.999Z</time></trkpt><trkpt lat="44.23505698952838" lon="11.591642087746708"><ele>544.0</ele><time>2026-04-12T10:56:51.999Z</time></trkpt><trkpt lat="44.23512933352338" lon="11.59168653337888"><ele>544.0</ele><time>2026-04-12T10:56:56.999Z</time></trkpt><trkpt lat="44.23519528005303" lon="11.591750798723837"><ele>544.0</ele><time>2026-04-12T10:57:00.999Z</time></trkpt><trkpt lat="44.235268896695565" lon="11.591791456659523"><ele>544.0</ele><time>2026-04-12T10:57:03.999Z</time></trkpt><trkpt lat="44.235344331645535" lon="11.59184385097688"><ele>544.0</ele><time>2026-04-12T10:57:06.999Z</time></trkpt><trkpt lat="44.23540606957712" lon="11.591915968845008"><ele>544.0</ele><time>2026-04-12T10:57:09.999Z</time></trkpt><trkpt lat="44.23550295671852" lon="11.591859187232833"><ele>544.0</ele><time>2026-04-12T10:57:12.999Z</time></trkpt><trkpt lat="44.235563865177525" lon="11.591797274292563"><ele>544.0</ele><time>2026-04-12T10:57:14.999Z</time></trkpt><trkpt lat="44.23556775273476" lon="11.591696078823537"><ele>544.0</ele><time>2026-04-12T10:57:17.999Z</time></trkpt><trkpt lat="44.23558200754749" lon="11.591610130671556"><ele>544.0</ele><time>2026-04-12T10:57:21.999Z</time></trkpt><trkpt lat="44.23558978352344" lon="11.591490327233206"><ele>544.0</ele><time>2026-04-12T10:57:24.999Z</time></trkpt><trkpt lat="44.23551501362009" lon="11.59146758561702"><ele>544.0</ele><time>2026-04-12T10:57:29.999Z</time></trkpt><trkpt lat="44.23545744567426" lon="11.591417434322773"><ele>544.0</ele><time>2026-04-12T10:57:35Z</time></trkpt><trkpt lat="44.23542547454577" lon="11.591304531600636"><ele>544.0</ele><time>2026-04-12T10:57:37Z</time></trkpt><trkpt lat="44.23547348356918" lon="11.591204353399988"><ele>544.0</ele><time>2026-04-12T10:57:41Z</time></trkpt><trkpt lat="44.23555229099064" lon="11.591112039745832"><ele>544.0</ele><time>2026-04-12T10:57:43Z</time></trkpt><trkpt lat="44.235615514863525" lon="11.591046654480895"><ele>544.0</ele><time>2026-04-12T10:57:45Z</time></trkpt><trkpt lat="44.23570143747714" lon="11.591046911228885"><ele>544.0</ele><time>2026-04-12T10:57:47Z</time></trkpt><trkpt lat="44.23578289337968" lon="11.591055287016594"><ele>544.0</ele><time>2026-04-12T10:57:48Z</time></trkpt><trkpt lat="44.23589657828133" lon="11.591010971545568"><ele>539.2</ele><time>2026-04-12T10:57:50Z</time></trkpt><trkpt lat="44.23599165000012" lon="11.590965566319609"><ele>534.4</ele><time>2026-04-12T10:57:52Z</time></trkpt><trkpt lat="44.2360917184573" lon="11.590826532021588"><ele>529.6</ele><time>2026-04-12T10:57:55Z</time></trkpt><trkpt lat="44.23612724925956" lon="11.590733846612663"><ele>524.8</ele><time>2026-04-12T10:57:56Z</time></trkpt><trkpt lat="44.23615525588045" lon="11.590649713262602"><ele>520.0</ele><time>2026-04-12T10:57:57Z</time></trkpt><trkpt lat="44.23623762512125" lon="11.590515005406695"><ele>520.0</ele><time>2026-04-12T10:57:59Z</time></trkpt><trkpt lat="44.23631307345539" lon="11.590516126217437"><ele>520.0</ele><time>2026-04-12T10:58:01Z</time></trkpt><trkpt lat="44.236396053932104" lon="11.590503468377186"><ele>520.0</ele><time>2026-04-12T10:58:04Z</time></trkpt><trkpt lat="44.236458347807876" lon="11.590442814692528"><ele>520.0</ele><time>2026-04-12T10:58:07Z</time></trkpt><trkpt lat="44.23640056649109" lon="11.590378487479798"><ele>520.0</ele><time>2026-04-12T10:58:09Z</time></trkpt><trkpt lat="44.23633253117793" lon="11.590398348237128"><ele>520.0</ele><time>2026-04-12T10:58:12Z</time></trkpt><trkpt lat="44.23626225478445" lon="11.59045587517982"><ele>520.0000000000001</ele><time>2026-04-12T10:58:14Z</time></trkpt><trkpt lat="44.23618536263086" lon="11.590415794601716"><ele>520.0</ele><time>2026-04-12T10:58:16Z</time></trkpt><trkpt lat="44.236117596128274" lon="11.590425728668395"><ele>520.0</ele><time>2026-04-12T10:58:18Z</time></trkpt><trkpt lat="44.236035879264975" lon="11.590453370775444"><ele>520.0</ele><time>2026-04-12T10:58:20Z</time></trkpt><trkpt lat="44.23596647468828" lon="11.59047323431467"><ele>520.0</ele><time>2026-04-12T10:58:22Z</time></trkpt><trkpt lat="44.235916527411234" lon="11.590532543008738"><ele>520.0000000000001</ele><time>2026-04-12T10:58:25Z</time></trkpt><trkpt lat="44.23590532091339" lon="11.590443833739808"><ele>520.0</ele><time>2026-04-12T10:58:28Z</time></trkpt><trkpt lat="44.23586192444245" lon="11.59036712579407"><ele>516.1666666666667</ele><time>2026-04-12T10:58:31Z</time></trkpt><trkpt lat="44.23579417547044" lon="11.590288483311557"><ele>512.3333333333334</ele><time>2026-04-12T10:58:32.999Z</time></trkpt><trkpt lat="44.23574669691774" lon="11.59022931031518"><ele>508.5</ele><time>2026-04-12T10:58:37.999Z</time></trkpt><trkpt lat="44.235722806431" lon="11.590121373048628"><ele>504.66666666666663</ele><time>2026-04-12T10:58:40.999Z</time></trkpt><trkpt lat="44.23568289446328" lon="11.590044436941335"><ele>500.8333333333333</ele><time>2026-04-12T10:58:41.999Z</time></trkpt><trkpt lat="44.23571200209506" lon="11.589947396298966"><ele>497.0</ele><time>2026-04-12T10:58:43.999Z</time></trkpt><trkpt lat="44.235765528120176" lon="11.589830928902082"><ele>497.0</ele><time>2026-04-12T10:58:45.999Z</time></trkpt><trkpt lat="44.23580195331457" lon="11.589725344348293"><ele>497.0</ele><time>2026-04-12T10:58:47.999Z</time></trkpt><trkpt lat="44.235818366359375" lon="11.589640439470944"><ele>497.0</ele><time>2026-04-12T10:58:48.999Z</time></trkpt><trkpt lat="44.23579393775495" lon="11.58952980013692"><ele>497.0</ele><time>2026-04-12T10:59:09.999Z</time></trkpt><trkpt lat="44.23579194069866" lon="11.589424476342005"><ele>497.0</ele><time>2026-04-12T11:01:38.999Z</time></trkpt><trkpt lat="44.23579581859926" lon="11.589331677812897"><ele>497.0</ele><time>2026-04-12T11:01:41.999Z</time></trkpt><trkpt lat="44.235762841069175" lon="11.589234637786236"><ele>497.0</ele><time>2026-04-12T11:01:45Z</time></trkpt><trkpt lat="44.235742960357115" lon="11.589102482793553"><ele>495.49999999999994</ele><time>2026-04-12T11:01:48Z</time></trkpt><trkpt lat="44.23569437384571" lon="11.588937725767222"><ele>494.0</ele><time>2026-04-12T11:01:50Z</time></trkpt><trkpt lat="44.23566371809068" lon="11.58885538812781"><ele>492.5</ele><time>2026-04-12T11:01:51Z</time></trkpt><trkpt lat="44.235653843643846" lon="11.588746837041048"><ele>491.0</ele><time>2026-04-12T11:01:53Z</time></trkpt><trkpt lat="44.23564994365377" lon="11.588624630619769"><ele>489.49999999999994</ele><time>2026-04-12T11:02:04Z</time></trkpt><trkpt lat="44.235646764461855" lon="11.588522647260733"><ele>488.0</ele><time>2026-04-12T11:02:06Z</time></trkpt><trkpt lat="44.2356377795481" lon="11.588397153379017"><ele>487.16666666666663</ele><time>2026-04-12T11:02:09Z</time></trkpt><trkpt lat="44.23564960679603" lon="11.588305613244955"><ele>486.3333333333333</ele><time>2026-04-12T11:02:11Z</time></trkpt><trkpt lat="44.23565668066897" lon="11.588179767949235"><ele>485.5</ele><time>2026-04-12T11:02:13Z</time></trkpt><trkpt lat="44.23566225831241" lon="11.58803924409774"><ele>484.66666666666663</ele><time>2026-04-12T11:02:15Z</time></trkpt><trkpt lat="44.235684362228106" lon="11.587922435183174"><ele>483.8333333333333</ele><time>2026-04-12T11:02:17Z</time></trkpt><trkpt lat="44.235734223738135" lon="11.587830881307998"><ele>483.0</ele><time>2026-04-12T11:02:19Z</time></trkpt><trkpt lat="44.23577978534145" lon="11.587720608889693"><ele>481.0</ele><time>2026-04-12T11:02:21Z</time></trkpt><trkpt lat="44.23583784985417" lon="11.587637156055122"><ele>479.0</ele><time>2026-04-12T11:02:23Z</time></trkpt><trkpt lat="44.23588969969302" lon="11.587587226357035"><ele>477.0</ele><time>2026-04-12T11:02:25Z</time></trkpt><trkpt lat="44.23597946064871" lon="11.587511754522371"><ele>475.0</ele><time>2026-04-12T11:02:27Z</time></trkpt><trkpt lat="44.2360531615459" lon="11.587487247011266"><ele>473.0</ele><time>2026-04-12T11:02:29Z</time></trkpt><trkpt lat="44.236132979241894" lon="11.587474844371945"><ele>471.0</ele><time>2026-04-12T11:02:31Z</time></trkpt><trkpt lat="44.2362028788093" lon="11.587470330776712"><ele>471.0</ele><time>2026-04-12T11:02:33Z</time></trkpt><trkpt lat="44.23628400101862" lon="11.587455502540022"><ele>471.0</ele><time>2026-04-12T11:02:35Z</time></trkpt><trkpt lat="44.23640547245904" lon="11.587472429968726"><ele>471.0</ele><time>2026-04-12T11:02:37Z</time></trkpt><trkpt lat="44.236498574784804" lon="11.587497764061403"><ele>471.0</ele><time>2026-04-12T11:02:39Z</time></trkpt><trkpt lat="44.23656752425121" lon="11.587524771105558"><ele>471.0</ele><time>2026-04-12T11:02:40Z</time></trkpt><trkpt lat="44.23662780609447" lon="11.587564137255706"><ele>471.0</ele><time>2026-04-12T11:02:41Z</time></trkpt><trkpt lat="44.23668511253769" lon="11.587603255600364"><ele>472.6</ele><time>2026-04-12T11:02:42Z</time></trkpt><trkpt lat="44.23675326442292" lon="11.587676272548816"><ele>474.20000000000005</ele><time>2026-04-12T11:02:44Z</time></trkpt><trkpt lat="44.236817795606285" lon="11.587717144447115"><ele>475.79999999999995</ele><time>2026-04-12T11:02:45Z</time></trkpt><trkpt lat="44.23690748001091" lon="11.587811350676878"><ele>477.4</ele><time>2026-04-12T11:02:47Z</time></trkpt><trkpt lat="44.236976725353514" lon="11.58788812511541"><ele>479.0</ele><time>2026-04-12T11:02:49Z</time></trkpt><trkpt lat="44.23703688116266" lon="11.588003851713843"><ele>479.0</ele><time>2026-04-12T11:02:51Z</time></trkpt><trkpt lat="44.2371038849478" lon="11.588144726438232"><ele>479.0</ele><time>2026-04-12T11:02:53Z</time></trkpt><trkpt lat="44.23718304396676" lon="11.588247857055133"><ele>479.0</ele><time>2026-04-12T11:02:54.999Z</time></trkpt><trkpt lat="44.237244451266015" lon="11.588329694901997"><ele>479.0</ele><time>2026-04-12T11:03:09.999Z</time></trkpt><trkpt lat="44.23729811017334" lon="11.588376792613575"><ele>479.0</ele><time>2026-04-12T11:03:11.999Z</time></trkpt><trkpt lat="44.237385149773175" lon="11.588406478240534"><ele>479.0</ele><time>2026-04-12T11:03:13.999Z</time></trkpt><trkpt lat="44.237494919568476" lon="11.588419578090656"><ele>479.0</ele><time>2026-04-12T11:03:15.999Z</time></trkpt><trkpt lat="44.23761639822296" lon="11.588387189068374"><ele>479.0</ele><time>2026-04-12T11:03:17.999Z</time></trkpt><trkpt lat="44.23771056395986" lon="11.588265820407063"><ele>479.0</ele><time>2026-04-12T11:03:19.999Z</time></trkpt><trkpt lat="44.237767900743" lon="11.58814783894484"><ele>478.99999999999994</ele><time>2026-04-12T11:03:21.999Z</time></trkpt><trkpt lat="44.23783255078456" lon="11.58805519276678"><ele>479.0</ele><time>2026-04-12T11:03:23.999Z</time></trkpt><trkpt lat="44.237876526413935" lon="11.58798134805452"><ele>479.0</ele><time>2026-04-12T11:03:25.999Z</time></trkpt><trkpt lat="44.23793521690752" lon="11.587895313659855"><ele>479.0</ele><time>2026-04-12T11:03:28.999Z</time></trkpt><trkpt lat="44.237992245070075" lon="11.587822371205272"><ele>478.99999999999994</ele><time>2026-04-12T11:03:31.999Z</time></trkpt><trkpt lat="44.23805330737476" lon="11.587779682993967"><ele>479.0</ele><time>2026-04-12T11:03:33.999Z</time></trkpt><trkpt lat="44.23813065243568" lon="11.587830919046977"><ele>480.49999999999994</ele><time>2026-04-12T11:03:36.999Z</time></trkpt><trkpt lat="44.238173544369154" lon="11.587936653079568"><ele>482.0</ele><time>2026-04-12T11:03:39.999Z</time></trkpt><trkpt lat="44.238195519701094" lon="11.588020168053122"><ele>483.5</ele><time>2026-04-12T11:03:41.999Z</time></trkpt><trkpt lat="44.23820644749471" lon="11.58810972735294"><ele>485.0</ele><time>2026-04-12T11:03:43.999Z</time></trkpt><trkpt lat="44.238215441146735" lon="11.588241794763123"><ele>486.49999999999994</ele><time>2026-04-12T11:03:46.999Z</time></trkpt><trkpt lat="44.23823033085723" lon="11.588333809745972"><ele>488.0</ele><time>2026-04-12T11:03:48.999Z</time></trkpt><trkpt lat="44.238250981408065" lon="11.588452795149532"><ele>487.99999999999994</ele><time>2026-04-12T11:03:52Z</time></trkpt><trkpt lat="44.238186561084085" lon="11.588489657012014"><ele>488.0</ele><time>2026-04-12T11:03:55Z</time></trkpt><trkpt lat="44.2382382347665" lon="11.588551083492497"><ele>488.0</ele><time>2026-04-12T11:03:57Z</time></trkpt><trkpt lat="44.238310092619905" lon="11.588588941702927"><ele>488.0</ele><time>2026-04-12T11:03:59Z</time></trkpt><trkpt lat="44.23840865963193" lon="11.588608132022157"><ele>487.99999999999994</ele><time>2026-04-12T11:04:01Z</time></trkpt><trkpt lat="44.23853422109095" lon="11.588604468810873"><ele>488.0</ele><time>2026-04-12T11:04:03Z</time></trkpt><trkpt lat="44.23859794143456" lon="11.58861346205552"><ele>487.99999999999994</ele><time>2026-04-12T11:04:04Z</time></trkpt><trkpt lat="44.23866249969728" lon="11.588618649195007"><ele>488.0</ele><time>2026-04-12T11:04:05Z</time></trkpt><trkpt lat="44.2387295230329" lon="11.588631754524318"><ele>487.99999999999994</ele><time>2026-04-12T11:04:06Z</time></trkpt><trkpt lat="44.23880401777513" lon="11.588630080240172"><ele>487.99999999999994</ele><time>2026-04-12T11:04:07Z</time></trkpt><trkpt lat="44.23887604347773" lon="11.58863453963735"><ele>488.0</ele><time>2026-04-12T11:04:08Z</time></trkpt><trkpt lat="44.23895042950807" lon="11.588628466014347"><ele>487.99999999999994</ele><time>2026-04-12T11:04:09Z</time></trkpt><trkpt lat="44.23902262791451" lon="11.588617097332053"><ele>487.99999999999994</ele><time>2026-04-12T11:04:10Z</time></trkpt><trkpt lat="44.23909546781708" lon="11.588596795477864"><ele>487.8333333333333</ele><time>2026-04-12T11:04:11Z</time></trkpt><trkpt lat="44.23916464050388" lon="11.588565096994296"><ele>487.66666666666663</ele><time>2026-04-12T11:04:12Z</time></trkpt><trkpt lat="44.239230386581994" lon="11.588525144969328"><ele>487.5</ele><time>2026-04-12T11:04:13Z</time></trkpt><trkpt lat="44.2392883042937" lon="11.588487055035387"><ele>487.33333333333337</ele><time>2026-04-12T11:04:14Z</time></trkpt><trkpt lat="44.23937765201156" lon="11.588407632965783"><ele>487.1666666666667</ele><time>2026-04-12T11:04:16Z</time></trkpt><trkpt lat="44.239465436467015" lon="11.588337642987941"><ele>487.0</ele><time>2026-04-12T11:04:18Z</time></trkpt><trkpt lat="44.23953158753011" lon="11.588267117156065"><ele>487.00000000000006</ele><time>2026-04-12T11:04:20Z</time></trkpt><trkpt lat="44.239617799088734" lon="11.588195833919423"><ele>487.0</ele><time>2026-04-12T11:04:22Z</time></trkpt><trkpt lat="44.23967054721979" lon="11.588133741755728"><ele>487.0</ele><time>2026-04-12T11:04:25Z</time></trkpt><trkpt lat="44.239615010620426" lon="11.588209511154362"><ele>487.0</ele><time>2026-04-12T11:04:29Z</time></trkpt><trkpt lat="44.23956211472599" lon="11.588260155419094"><ele>487.00000000000006</ele><time>2026-04-12T11:04:31Z</time></trkpt><trkpt lat="44.23949375966166" lon="11.588323568710777"><ele>487.0</ele><time>2026-04-12T11:04:33Z</time></trkpt><trkpt lat="44.239405524373815" lon="11.588404000881697"><ele>487.0</ele><time>2026-04-12T11:04:35Z</time></trkpt><trkpt lat="44.23931352401921" lon="11.588479295747003"><ele>487.0</ele><time>2026-04-12T11:04:37Z</time></trkpt><trkpt lat="44.23920088883706" lon="11.588554958039335"><ele>487.0</ele><time>2026-04-12T11:04:39Z</time></trkpt><trkpt lat="44.23908619416917" lon="11.58861620633938"><ele>487.0</ele><time>2026-04-12T11:04:41Z</time></trkpt><trkpt lat="44.23895602116438" lon="11.588651692382289"><ele>487.1666666666667</ele><time>2026-04-12T11:04:43Z</time></trkpt><trkpt lat="44.23889155858656" lon="11.588669016104973"><ele>487.33333333333337</ele><time>2026-04-12T11:04:44Z</time></trkpt><trkpt lat="44.238819710346405" lon="11.588664309238823"><ele>487.5</ele><time>2026-04-12T11:04:45Z</time></trkpt><trkpt lat="44.23872293049956" lon="11.58869126396147"><ele>487.66666666666663</ele><time>2026-04-12T11:04:46Z</time></trkpt><trkpt lat="44.238645570046046" lon="11.588692466930405"><ele>487.8333333333333</ele><time>2026-04-12T11:04:47Z</time></trkpt><trkpt lat="44.23853670650286" lon="11.58873164414198"><ele>488.0</ele><time>2026-04-12T11:04:49Z</time></trkpt><trkpt lat="44.23842178620853" lon="11.58875739365219"><ele>488.0</ele><time>2026-04-12T11:04:51Z</time></trkpt><trkpt lat="44.2383468738766" lon="11.588583390160705"><ele>488.0</ele><time>2026-04-12T11:04:52Z</time></trkpt><trkpt lat="44.23823489171756" lon="11.588608345860761"><ele>488.0</ele><time>2026-04-12T11:04:53.999Z</time></trkpt><trkpt lat="44.23813261116424" lon="11.588658273949331"><ele>488.0</ele><time>2026-04-12T11:04:55.999Z</time></trkpt><trkpt lat="44.23803570048728" lon="11.588727564775343"><ele>489.4</ele><time>2026-04-12T11:04:57.999Z</time></trkpt><trkpt lat="44.23795543290947" lon="11.58881418996096"><ele>490.79999999999995</ele><time>2026-04-12T11:04:59.999Z</time></trkpt><trkpt lat="44.23788990584752" lon="11.588919801474633"><ele>492.2</ele><time>2026-04-12T11:05:01.999Z</time></trkpt><trkpt lat="44.23782352429547" lon="11.589034319976198"><ele>493.6</ele><time>2026-04-12T11:05:03.999Z</time></trkpt><trkpt lat="44.23776968917454" lon="11.589164082948558"><ele>495.0</ele><time>2026-04-12T11:05:05.999Z</time></trkpt><trkpt lat="44.237717458845964" lon="11.589295998792261"><ele>495.0</ele><time>2026-04-12T11:05:07.999Z</time></trkpt><trkpt lat="44.23766262338858" lon="11.589426670862373"><ele>495.0</ele><time>2026-04-12T11:05:09.999Z</time></trkpt><trkpt lat="44.23760972870121" lon="11.589555543418633"><ele>495.0</ele><time>2026-04-12T11:05:11.999Z</time></trkpt><trkpt lat="44.23755892821416" lon="11.58967978373928"><ele>495.0</ele><time>2026-04-12T11:05:13.999Z</time></trkpt><trkpt lat="44.23750994581965" lon="11.58980866327122"><ele>495.0</ele><time>2026-04-12T11:05:15.999Z</time></trkpt><trkpt lat="44.23746534692256" lon="11.589935168290246"><ele>496.8</ele><time>2026-04-12T11:05:17.999Z</time></trkpt><trkpt lat="44.23740507410327" lon="11.59003981501677"><ele>498.6</ele><time>2026-04-12T11:05:19.999Z</time></trkpt><trkpt lat="44.237354705708896" lon="11.590166685675296"><ele>500.4</ele><time>2026-04-12T11:05:21.999Z</time></trkpt><trkpt lat="44.23730228615393" lon="11.59029873751331"><ele>502.2</ele><time>2026-04-12T11:05:23.999Z</time></trkpt><trkpt lat="44.237254188420074" lon="11.590419950248014"><ele>504.0</ele><time>2026-04-12T11:05:25.999Z</time></trkpt><trkpt lat="44.237203010020934" lon="11.590546500378927"><ele>507.4</ele><time>2026-04-12T11:05:27.999Z</time></trkpt><trkpt lat="44.237149833373515" lon="11.590670003743309"><ele>510.79999999999995</ele><time>2026-04-12T11:05:29.999Z</time></trkpt><trkpt lat="44.237101445974226" lon="11.590805263272294"><ele>514.2</ele><time>2026-04-12T11:05:31.999Z</time></trkpt><trkpt lat="44.23702600461183" lon="11.590912637284475"><ele>517.6</ele><time>2026-04-12T11:05:33.999Z</time></trkpt><trkpt lat="44.236963001681424" lon="11.591027324686536"><ele>521.0</ele><time>2026-04-12T11:05:35.999Z</time></trkpt><trkpt lat="44.236899274990975" lon="11.59114510699219"><ele>521.2</ele><time>2026-04-12T11:05:37.999Z</time></trkpt><trkpt lat="44.23683474740661" lon="11.591265163017344"><ele>521.4000000000001</ele><time>2026-04-12T11:05:39.999Z</time></trkpt><trkpt lat="44.23677895087427" lon="11.59139907092739"><ele>521.6</ele><time>2026-04-12T11:05:41.999Z</time></trkpt><trkpt lat="44.23671673556384" lon="11.591513538211506"><ele>521.8000000000001</ele><time>2026-04-12T11:05:43.999Z</time></trkpt><trkpt lat="44.23666395706903" lon="11.591638111599133"><ele>522.0</ele><time>2026-04-12T11:05:45.999Z</time></trkpt><trkpt lat="44.23661134507744" lon="11.591768597670011"><ele>522.0</ele><time>2026-04-12T11:05:47.999Z</time></trkpt><trkpt lat="44.23657482295919" lon="11.591903125120787"><ele>522.0</ele><time>2026-04-12T11:05:49.999Z</time></trkpt><trkpt lat="44.2365383687005" lon="11.592045386260736"><ele>522.0</ele><time>2026-04-12T11:05:51.999Z</time></trkpt><trkpt lat="44.236507590156066" lon="11.59218626681852"><ele>522.0</ele><time>2026-04-12T11:05:53.999Z</time></trkpt><trkpt lat="44.23647515462076" lon="11.592326793064744"><ele>522.0</ele><time>2026-04-12T11:05:55.999Z</time></trkpt><trkpt lat="44.23644451746282" lon="11.5924622628179"><ele>524.0</ele><time>2026-04-12T11:05:58Z</time></trkpt><trkpt lat="44.236403583130546" lon="11.592606030428744"><ele>526.0</ele><time>2026-04-12T11:06:00Z</time></trkpt><trkpt lat="44.236344880759965" lon="11.592730882462043"><ele>528.0</ele><time>2026-04-12T11:06:02Z</time></trkpt><trkpt lat="44.236266899077286" lon="11.592832390416278"><ele>530.0</ele><time>2026-04-12T11:06:04Z</time></trkpt><trkpt lat="44.23618849560972" lon="11.592910848671508"><ele>532.0</ele><time>2026-04-12T11:06:06Z</time></trkpt><trkpt lat="44.23612256270872" lon="11.593009420163893"><ele>532.0</ele><time>2026-04-12T11:06:08Z</time></trkpt><trkpt lat="44.2360632638385" lon="11.593112993427466"><ele>532.0</ele><time>2026-04-12T11:06:10Z</time></trkpt><trkpt lat="44.2360019025578" lon="11.593209449179229"><ele>532.0</ele><time>2026-04-12T11:06:12Z</time></trkpt><trkpt lat="44.23593455221701" lon="11.59330431978244"><ele>532.0</ele><time>2026-04-12T11:06:14Z</time></trkpt><trkpt lat="44.23587121371992" lon="11.593389379946485"><ele>532.0</ele><time>2026-04-12T11:06:16Z</time></trkpt><trkpt lat="44.235817446307976" lon="11.593477232513202"><ele>532.0</ele><time>2026-04-12T11:06:18Z</time></trkpt><trkpt lat="44.23575082451898" lon="11.59358228386615"><ele>532.0</ele><time>2026-04-12T11:06:20Z</time></trkpt><trkpt lat="44.23569396040335" lon="11.593685840427886"><ele>532.0</ele><time>2026-04-12T11:06:22Z</time></trkpt><trkpt lat="44.23565834669925" lon="11.59380057475514"><ele>532.0</ele><time>2026-04-12T11:06:24Z</time></trkpt><trkpt lat="44.23559992854902" lon="11.593891603049391"><ele>532.0</ele><time>2026-04-12T11:06:27Z</time></trkpt><trkpt lat="44.235541359715924" lon="11.59398719846772"><ele>532.3333333333334</ele><time>2026-04-12T11:06:29Z</time></trkpt><trkpt lat="44.23549704331336" lon="11.594054152026319"><ele>532.6666666666667</ele><time>2026-04-12T11:06:30Z</time></trkpt><trkpt lat="44.23544663570338" lon="11.594150534749645"><ele>533.0</ele><time>2026-04-12T11:06:32Z</time></trkpt><trkpt lat="44.23538042600337" lon="11.594254321687352"><ele>533.3333333333334</ele><time>2026-04-12T11:06:34Z</time></trkpt><trkpt lat="44.235321433845414" lon="11.594357910914361"><ele>533.6666666666666</ele><time>2026-04-12T11:06:36Z</time></trkpt><trkpt lat="44.23525651736981" lon="11.594459675159154"><ele>534.0</ele><time>2026-04-12T11:06:38Z</time></trkpt><trkpt lat="44.23518818206957" lon="11.594574973984379"><ele>534.0</ele><time>2026-04-12T11:06:40Z</time></trkpt><trkpt lat="44.23513895237346" lon="11.594698068607375"><ele>534.0</ele><time>2026-04-12T11:06:42Z</time></trkpt><trkpt lat="44.23511400718218" lon="11.5948584962284"><ele>534.0</ele><time>2026-04-12T11:06:44Z</time></trkpt><trkpt lat="44.23511606676752" lon="11.595027311605403"><ele>534.0</ele><time>2026-04-12T11:06:46Z</time></trkpt><trkpt lat="44.23512380777987" lon="11.595115967858582"><ele>534.0</ele><time>2026-04-12T11:06:47Z</time></trkpt><trkpt lat="44.2351191968239" lon="11.595212007457453"><ele>534.0000000000001</ele><time>2026-04-12T11:06:48Z</time></trkpt><trkpt lat="44.2351058074324" lon="11.595301904789817"><ele>534.0</ele><time>2026-04-12T11:06:48.999Z</time></trkpt><trkpt lat="44.235078018041946" lon="11.595388859663867"><ele>534.0</ele><time>2026-04-12T11:06:49.999Z</time></trkpt><trkpt lat="44.2350474608022" lon="11.595478938869789"><ele>534.0</ele><time>2026-04-12T11:06:50.999Z</time></trkpt><trkpt lat="44.23500640577234" lon="11.59556569773637"><ele>534.0</ele><time>2026-04-12T11:06:51.999Z</time></trkpt><trkpt lat="44.234964964043144" lon="11.595661437994314"><ele>534.0000000000001</ele><time>2026-04-12T11:06:52.999Z</time></trkpt><trkpt lat="44.234912439284365" lon="11.595748113299148"><ele>534.0</ele><time>2026-04-12T11:06:53.999Z</time></trkpt><trkpt lat="44.23486951218413" lon="11.595838508602863"><ele>533.4</ele><time>2026-04-12T11:06:54.999Z</time></trkpt><trkpt lat="44.234863863941285" lon="11.595955751753623"><ele>532.8</ele><time>2026-04-12T11:06:55.999Z</time></trkpt><trkpt lat="44.23488562173049" lon="11.596082938845655"><ele>532.2</ele><time>2026-04-12T11:06:56.999Z</time></trkpt><trkpt lat="44.234984179558815" lon="11.59615986141157"><ele>531.6</ele><time>2026-04-12T11:06:57.999Z</time></trkpt><trkpt lat="44.23507133658509" lon="11.596200031481079"><ele>531.0</ele><time>2026-04-12T11:06:58.999Z</time></trkpt><trkpt lat="44.235156130288516" lon="11.596262447654809"><ele>527.8</ele><time>2026-04-12T11:06:59.999Z</time></trkpt><trkpt lat="44.2352434343331" lon="11.59630988092429"><ele>524.6</ele><time>2026-04-12T11:07:00.999Z</time></trkpt><trkpt lat="44.23533164423278" lon="11.596361038824725"><ele>521.4</ele><time>2026-04-12T11:07:01.999Z</time></trkpt><trkpt lat="44.235411170160376" lon="11.596418216971376"><ele>518.2</ele><time>2026-04-12T11:07:02.999Z</time></trkpt><trkpt lat="44.23548051391957" lon="11.596508517471271"><ele>515.0</ele><time>2026-04-12T11:07:03.999Z</time></trkpt><trkpt lat="44.23553809359866" lon="11.596615386619716"><ele>515.0</ele><time>2026-04-12T11:07:04.999Z</time></trkpt><trkpt lat="44.23559188882944" lon="11.596722716685745"><ele>515.0</ele><time>2026-04-12T11:07:05.999Z</time></trkpt><trkpt lat="44.23564701031373" lon="11.596817649053374"><ele>515.0</ele><time>2026-04-12T11:07:06.999Z</time></trkpt><trkpt lat="44.23568042120996" lon="11.59693301442369"><ele>515.0</ele><time>2026-04-12T11:07:07.999Z</time></trkpt><trkpt lat="44.23570582524209" lon="11.59704859970599"><ele>515.0</ele><time>2026-04-12T11:07:08.999Z</time></trkpt><trkpt lat="44.23570285033478" lon="11.597171934859192"><ele>515.0</ele><time>2026-04-12T11:07:09.999Z</time></trkpt><trkpt lat="44.2356880750205" lon="11.59728985726302"><ele>517.0</ele><time>2026-04-12T11:07:10.999Z</time></trkpt><trkpt lat="44.235655850816364" lon="11.59741273086465"><ele>519.0</ele><time>2026-04-12T11:07:11.999Z</time></trkpt><trkpt lat="44.235633719490856" lon="11.597528206773008"><ele>521.0</ele><time>2026-04-12T11:07:12.999Z</time></trkpt><trkpt lat="44.23562470980749" lon="11.597642392203449"><ele>523.0</ele><time>2026-04-12T11:07:13.999Z</time></trkpt><trkpt lat="44.23562900160261" lon="11.597753760824231"><ele>525.0</ele><time>2026-04-12T11:07:14.999Z</time></trkpt><trkpt lat="44.23565253793141" lon="11.59786052528672"><ele>527.0</ele><time>2026-04-12T11:07:15.999Z</time></trkpt><trkpt lat="44.23570092357204" lon="11.597964404521676"><ele>527.0</ele><time>2026-04-12T11:07:16.999Z</time></trkpt><trkpt lat="44.23574222385035" lon="11.598064324493953"><ele>527.0</ele><time>2026-04-12T11:07:17.999Z</time></trkpt><trkpt lat="44.23577342591511" lon="11.598165788429169"><ele>527.0</ele><time>2026-04-12T11:07:18.999Z</time></trkpt><trkpt lat="44.23582294250005" lon="11.59826747975726"><ele>527.0</ele><time>2026-04-12T11:07:19.999Z</time></trkpt><trkpt lat="44.23588517437772" lon="11.59836280343432"><ele>527.0</ele><time>2026-04-12T11:07:20.999Z</time></trkpt><trkpt lat="44.235941416184275" lon="11.598472054625605"><ele>527.0</ele><time>2026-04-12T11:07:21.999Z</time></trkpt><trkpt lat="44.23599585501918" lon="11.598586274742228"><ele>523.8000000000001</ele><time>2026-04-12T11:07:22.999Z</time></trkpt><trkpt lat="44.236040829598686" lon="11.598712287947286"><ele>520.6</ele><time>2026-04-12T11:07:23.999Z</time></trkpt><trkpt lat="44.23606138701731" lon="11.59884291931884"><ele>517.4000000000001</ele><time>2026-04-12T11:07:24.999Z</time></trkpt><trkpt lat="44.236058888007854" lon="11.598993370834604"><ele>514.2</ele><time>2026-04-12T11:07:25.999Z</time></trkpt><trkpt lat="44.23603028224065" lon="11.599134725691444"><ele>511.0</ele><time>2026-04-12T11:07:26.999Z</time></trkpt><trkpt lat="44.23600245637472" lon="11.599289008773043"><ele>511.0</ele><time>2026-04-12T11:07:27.999Z</time></trkpt><trkpt lat="44.235963127256774" lon="11.599426839946357"><ele>511.0</ele><time>2026-04-12T11:07:28.999Z</time></trkpt><trkpt lat="44.23590300266839" lon="11.59953181891792"><ele>511.0</ele><time>2026-04-12T11:07:29.999Z</time></trkpt><trkpt lat="44.235851395991794" lon="11.59965092009082"><ele>511.0</ele><time>2026-04-12T11:07:30.999Z</time></trkpt><trkpt lat="44.23564819300541" lon="11.600287376455007"><ele>508.0</ele><time>2026-04-12T11:07:32.999Z</time></trkpt><trkpt lat="44.23604908254974" lon="11.600190634690897"><ele>505.0</ele><time>2026-04-12T11:07:33.999Z</time></trkpt><trkpt lat="44.236147326220724" lon="11.600266571334833"><ele>502.25</ele><time>2026-04-12T11:07:34.999Z</time></trkpt><trkpt lat="44.236227137582446" lon="11.600374071248913"><ele>499.5</ele><time>2026-04-12T11:07:35.999Z</time></trkpt><trkpt lat="44.23631227570405" lon="11.600487173993264"><ele>496.75</ele><time>2026-04-12T11:07:36.999Z</time></trkpt><trkpt lat="44.23640895286484" lon="11.60058103277363"><ele>494.0</ele><time>2026-04-12T11:07:37.999Z</time></trkpt><trkpt lat="44.236507575253974" lon="11.600634649908175"><ele>494.0</ele><time>2026-04-12T11:07:38.999Z</time></trkpt><trkpt lat="44.23663239360434" lon="11.600633907734439"><ele>494.0</ele><time>2026-04-12T11:07:39.999Z</time></trkpt><trkpt lat="44.23675196636144" lon="11.600634359193718"><ele>494.0</ele><time>2026-04-12T11:07:40.999Z</time></trkpt><trkpt lat="44.236860335089254" lon="11.600675472535642"><ele>494.0</ele><time>2026-04-12T11:07:41.999Z</time></trkpt><trkpt lat="44.2369729004738" lon="11.600708764214886"><ele>494.0</ele><time>2026-04-12T11:07:42.999Z</time></trkpt><trkpt lat="44.23708340932247" lon="11.600746284780902"><ele>494.0</ele><time>2026-04-12T11:07:43.999Z</time></trkpt><trkpt lat="44.2371941867078" lon="11.600789612884979"><ele>494.0</ele><time>2026-04-12T11:07:44.999Z</time></trkpt><trkpt lat="44.23729259660538" lon="11.60086095079616"><ele>494.0</ele><time>2026-04-12T11:07:45.999Z</time></trkpt><trkpt lat="44.23741769437401" lon="11.600859862991681"><ele>495.4</ele><time>2026-04-12T11:07:46.999Z</time></trkpt><trkpt lat="44.23752275639088" lon="11.600896767414447"><ele>496.79999999999995</ele><time>2026-04-12T11:07:47.999Z</time></trkpt><trkpt lat="44.237579836749056" lon="11.601006520271547"><ele>498.20000000000005</ele><time>2026-04-12T11:07:48.999Z</time></trkpt><trkpt lat="44.23761866388257" lon="11.601098571675902"><ele>499.6</ele><time>2026-04-12T11:07:49.999Z</time></trkpt><trkpt lat="44.237673202101924" lon="11.601143324427833"><ele>501.0</ele><time>2026-04-12T11:07:50.999Z</time></trkpt><trkpt lat="44.237771266353576" lon="11.601225830788433"><ele>500.8</ele><time>2026-04-12T11:07:52.999Z</time></trkpt><trkpt lat="44.23788191050938" lon="11.601264160728707"><ele>500.6</ele><time>2026-04-12T11:07:54.999Z</time></trkpt><trkpt lat="44.23792047616504" lon="11.601337290171607"><ele>500.4</ele><time>2026-04-12T11:07:55.999Z</time></trkpt><trkpt lat="44.238023878558764" lon="11.601390587327531"><ele>500.2</ele><time>2026-04-12T11:07:57.999Z</time></trkpt><trkpt lat="44.23812551506181" lon="11.60145244761589"><ele>500.0</ele><time>2026-04-12T11:07:59.999Z</time></trkpt><trkpt lat="44.238234964299316" lon="11.601510214853631"><ele>500.0</ele><time>2026-04-12T11:08:01.999Z</time></trkpt><trkpt lat="44.238330014341614" lon="11.601537595047493"><ele>500.0</ele><time>2026-04-12T11:08:04Z</time></trkpt><trkpt lat="44.23842026121334" lon="11.601566987531083"><ele>500.0</ele><time>2026-04-12T11:08:06Z</time></trkpt><trkpt lat="44.23851692076546" lon="11.601585694622772"><ele>500.0</ele><time>2026-04-12T11:08:09Z</time></trkpt><trkpt lat="44.23858547104711" lon="11.6015989616146"><ele>500.0</ele><time>2026-04-12T11:08:11Z</time></trkpt><trkpt lat="44.23863556895659" lon="11.601821385037919"><ele>500.0</ele><time>2026-04-12T11:08:14Z</time></trkpt><trkpt lat="44.238658495058" lon="11.601903751155737"><ele>500.0</ele><time>2026-04-12T11:08:16Z</time></trkpt><trkpt lat="44.238676627965546" lon="11.601809770377876"><ele>500.0</ele><time>2026-04-12T11:08:24Z</time></trkpt><trkpt lat="44.23864555106061" lon="11.60171955684271"><ele>500.0</ele><time>2026-04-12T11:08:29Z</time></trkpt><trkpt lat="44.238627795159594" lon="11.601623072464514"><ele>500.0</ele><time>2026-04-12T11:08:31Z</time></trkpt><trkpt lat="44.23870161241618" lon="11.601592303377606"><ele>500.0</ele><time>2026-04-12T11:08:36Z</time></trkpt><trkpt lat="44.238742868149586" lon="11.60167074265366"><ele>500.0</ele><time>2026-04-12T11:08:39Z</time></trkpt><trkpt lat="44.23880145925828" lon="11.601710007756415"><ele>499.99999999999994</ele><time>2026-04-12T11:08:41Z</time></trkpt><trkpt lat="44.23887821724436" lon="11.601770328532831"><ele>500.0</ele><time>2026-04-12T11:08:43Z</time></trkpt><trkpt lat="44.23893162168772" lon="11.601836423181595"><ele>500.0</ele><time>2026-04-12T11:08:46Z</time></trkpt><trkpt lat="44.2389889015633" lon="11.601893617049857"><ele>500.0</ele><time>2026-04-12T11:08:48Z</time></trkpt><trkpt lat="44.239057902723474" lon="11.601965965565762"><ele>499.99999999999994</ele><time>2026-04-12T11:08:50.999Z</time></trkpt><trkpt lat="44.23912539778741" lon="11.602032234090649"><ele>500.0</ele><time>2026-04-12T11:08:53.999Z</time></trkpt><trkpt lat="44.2391895225225" lon="11.602127351614325"><ele>501.99999999999994</ele><time>2026-04-12T11:08:56.999Z</time></trkpt><trkpt lat="44.23923335842395" lon="11.60219617490059"><ele>504.0</ele><time>2026-04-12T11:08:59.999Z</time></trkpt><trkpt lat="44.23930281458374" lon="11.602294381676815"><ele>506.0</ele><time>2026-04-12T11:09:02.999Z</time></trkpt><trkpt lat="44.23936522732215" lon="11.602338671046608"><ele>508.0</ele><time>2026-04-12T11:09:04.999Z</time></trkpt><trkpt lat="44.239421221624994" lon="11.602381158545743"><ele>509.99999999999994</ele><time>2026-04-12T11:09:06.999Z</time></trkpt><trkpt lat="44.23951006696897" lon="11.602467040183766"><ele>512.0</ele><time>2026-04-12T11:09:09.999Z</time></trkpt><trkpt lat="44.23958842337201" lon="11.602460683636366"><ele>512.0</ele><time>2026-04-12T11:09:11.999Z</time></trkpt><trkpt lat="44.23971012441948" lon="11.602467172655967"><ele>512.0</ele><time>2026-04-12T11:09:14.999Z</time></trkpt><trkpt lat="44.23978527690612" lon="11.602491649041314"><ele>512.0</ele><time>2026-04-12T11:09:17.999Z</time></trkpt><trkpt lat="44.23988128188731" lon="11.602542573496669"><ele>512.0</ele><time>2026-04-12T11:09:20.999Z</time></trkpt><trkpt lat="44.23994891222312" lon="11.602599933376815"><ele>512.0</ele><time>2026-04-12T11:09:22.999Z</time></trkpt><trkpt lat="44.24002329256032" lon="11.602666366755873"><ele>514.1666666666666</ele><time>2026-04-12T11:09:24.999Z</time></trkpt><trkpt lat="44.240103400025944" lon="11.602724126063734"><ele>516.3333333333333</ele><time>2026-04-12T11:09:28.999Z</time></trkpt><trkpt lat="44.24017922854988" lon="11.60279629542741"><ele>518.5</ele><time>2026-04-12T11:09:30.999Z</time></trkpt><trkpt lat="44.240241070406896" lon="11.60284996221382"><ele>520.6666666666666</ele><time>2026-04-12T11:09:32.999Z</time></trkpt><trkpt lat="44.24031412816777" lon="11.60289141754206"><ele>522.8333333333334</ele><time>2026-04-12T11:09:34.999Z</time></trkpt><trkpt lat="44.24035710095154" lon="11.602964235271253"><ele>525.0</ele><time>2026-04-12T11:09:37.999Z</time></trkpt><trkpt lat="44.240415156629105" lon="11.603037484755669"><ele>525.0</ele><time>2026-04-12T11:09:40.999Z</time></trkpt><trkpt lat="44.24047409582462" lon="11.603126622689095"><ele>525.0</ele><time>2026-04-12T11:09:43.999Z</time></trkpt><trkpt lat="44.24051983381045" lon="11.603229047656772"><ele>525.0</ele><time>2026-04-12T11:09:46.999Z</time></trkpt><trkpt lat="44.24056216629845" lon="11.603315041751108"><ele>525.0</ele><time>2026-04-12T11:09:48.999Z</time></trkpt><trkpt lat="44.24057658943698" lon="11.603471227805658"><ele>525.0</ele><time>2026-04-12T11:09:50.999Z</time></trkpt><trkpt lat="44.24054134499847" lon="11.60357879494198"><ele>525.0</ele><time>2026-04-12T11:09:52.999Z</time></trkpt><trkpt lat="44.240490923602565" lon="11.603699106976295"><ele>526.0</ele><time>2026-04-12T11:09:53.999Z</time></trkpt><trkpt lat="44.24046300932716" lon="11.603780935124176"><ele>527.0</ele><time>2026-04-12T11:09:54.999Z</time></trkpt><trkpt lat="44.24041819901151" lon="11.603866377766549"><ele>528.0</ele><time>2026-04-12T11:09:55.999Z</time></trkpt><trkpt lat="44.24037638811654" lon="11.603954806460816"><ele>529.0</ele><time>2026-04-12T11:09:56.999Z</time></trkpt><trkpt lat="44.24036388836858" lon="11.604120139995722"><ele>530.0</ele><time>2026-04-12T11:09:58.999Z</time></trkpt><trkpt lat="44.2403069738586" lon="11.604301423641106"><ele>530.0</ele><time>2026-04-12T11:10:00.999Z</time></trkpt><trkpt lat="44.24025960069217" lon="11.604393996928753"><ele>530.0</ele><time>2026-04-12T11:10:01.999Z</time></trkpt><trkpt lat="44.240166862226964" lon="11.604433888335192"><ele>530.0</ele><time>2026-04-12T11:10:02.999Z</time></trkpt><trkpt lat="44.240082831222985" lon="11.604447339538602"><ele>530.0</ele><time>2026-04-12T11:10:03.999Z</time></trkpt><trkpt lat="44.24001261140672" lon="11.604471542407516"><ele>530.0</ele><time>2026-04-12T11:10:04.999Z</time></trkpt><trkpt lat="44.23994638603656" lon="11.60463343455515"><ele>532.5</ele><time>2026-04-12T11:10:06.999Z</time></trkpt><trkpt lat="44.239841633790135" lon="11.604775355032233"><ele>535.0</ele><time>2026-04-12T11:10:09Z</time></trkpt><trkpt lat="44.23972429634268" lon="11.604846405062"><ele>537.5</ele><time>2026-04-12T11:10:11Z</time></trkpt><trkpt lat="44.239634773058945" lon="11.604929895104474"><ele>540.0</ele><time>2026-04-12T11:10:13Z</time></trkpt><trkpt lat="44.23950881584767" lon="11.604926487519553"><ele>536.3333333333334</ele><time>2026-04-12T11:10:14Z</time></trkpt><trkpt lat="44.2394291816778" lon="11.604982883268121"><ele>532.6666666666666</ele><time>2026-04-12T11:10:15Z</time></trkpt><trkpt lat="44.23935144874748" lon="11.604994695037151"><ele>529.0</ele><time>2026-04-12T11:10:16Z</time></trkpt><trkpt lat="44.239288077343545" lon="11.605017564289007"><ele>525.3333333333333</ele><time>2026-04-12T11:10:17Z</time></trkpt><trkpt lat="44.23926625346733" lon="11.605112610909606"><ele>521.6666666666666</ele><time>2026-04-12T11:10:18Z</time></trkpt><trkpt lat="44.23921147278045" lon="11.60519536367519"><ele>518.0</ele><time>2026-04-12T11:10:20Z</time></trkpt><trkpt lat="44.23914891723567" lon="11.605281358447645"><ele>518.0</ele><time>2026-04-12T11:10:21Z</time></trkpt><trkpt lat="44.23909107524331" lon="11.605324909306148"><ele>518.0</ele><time>2026-04-12T11:10:22Z</time></trkpt><trkpt lat="44.23904781871773" lon="11.605426762225163"><ele>518.0</ele><time>2026-04-12T11:10:23Z</time></trkpt><trkpt lat="44.2389718029649" lon="11.605486084668263"><ele>518.0</ele><time>2026-04-12T11:10:24Z</time></trkpt><trkpt lat="44.23890292501976" lon="11.605494838414609"><ele>518.0</ele><time>2026-04-12T11:10:25Z</time></trkpt><trkpt lat="44.23879287555611" lon="11.605528895852022"><ele>518.0</ele><time>2026-04-12T11:10:27Z</time></trkpt><trkpt lat="44.23877642188301" lon="11.605633189181722"><ele>516.6</ele><time>2026-04-12T11:10:29Z</time></trkpt><trkpt lat="44.238850444641905" lon="11.60575630526647"><ele>515.1999999999999</ele><time>2026-04-12T11:10:31Z</time></trkpt><trkpt lat="44.238951419283794" lon="11.605799373325672"><ele>513.8</ele><time>2026-04-12T11:10:33Z</time></trkpt><trkpt lat="44.23901446032312" lon="11.605819753768278"><ele>512.4</ele><time>2026-04-12T11:10:34Z</time></trkpt><trkpt lat="44.23911624308864" lon="11.605796794669258"><ele>511.0</ele><time>2026-04-12T11:10:36Z</time></trkpt><trkpt lat="44.239178502876264" lon="11.605756381172215"><ele>511.0</ele><time>2026-04-12T11:10:37Z</time></trkpt><trkpt lat="44.2392760327441" lon="11.605702282554988"><ele>511.0</ele><time>2026-04-12T11:10:38Z</time></trkpt><trkpt lat="44.23940049573893" lon="11.60567327865056"><ele>511.0</ele><time>2026-04-12T11:10:39Z</time></trkpt><trkpt lat="44.23947357218102" lon="11.605673762855536"><ele>511.0</ele><time>2026-04-12T11:10:40Z</time></trkpt><trkpt lat="44.23954622497261" lon="11.605618848490076"><ele>511.0</ele><time>2026-04-12T11:10:41Z</time></trkpt><trkpt lat="44.23961262181993" lon="11.60560968013033"><ele>511.0</ele><time>2026-04-12T11:10:42Z</time></trkpt><trkpt lat="44.23969653379562" lon="11.605722364329521"><ele>511.0</ele><time>2026-04-12T11:10:44Z</time></trkpt><trkpt lat="44.2397664610919" lon="11.605778830164574"><ele>511.0</ele><time>2026-04-12T11:10:45Z</time></trkpt><trkpt lat="44.23984727538338" lon="11.60580339425622"><ele>511.0</ele><time>2026-04-12T11:10:46Z</time></trkpt><trkpt lat="44.23993945783097" lon="11.605841795508066"><ele>511.0</ele><time>2026-04-12T11:10:47Z</time></trkpt><trkpt lat="44.24001480787375" lon="11.605851065388427"><ele>513.2</ele><time>2026-04-12T11:10:48Z</time></trkpt><trkpt lat="44.2400876310156" lon="11.605857833961911"><ele>515.4000000000001</ele><time>2026-04-12T11:10:49Z</time></trkpt><trkpt lat="44.24014804361335" lon="11.605900576271116"><ele>517.6</ele><time>2026-04-12T11:10:50Z</time></trkpt><trkpt lat="44.240234701748236" lon="11.605955190176688"><ele>519.8000000000001</ele><time>2026-04-12T11:10:52Z</time></trkpt><trkpt lat="44.24023792254358" lon="11.606126271543314"><ele>522.0</ele><time>2026-04-12T11:10:54Z</time></trkpt><trkpt lat="44.24025496400768" lon="11.606256053705897"><ele>516.8333333333334</ele><time>2026-04-12T11:10:55Z</time></trkpt><trkpt lat="44.240272403611385" lon="11.606359204846214"><ele>511.66666666666663</ele><time>2026-04-12T11:10:56Z</time></trkpt><trkpt lat="44.240292201668126" lon="11.606446640201884"><ele>506.5</ele><time>2026-04-12T11:10:57Z</time></trkpt><trkpt lat="44.240343751199134" lon="11.6064987298412"><ele>501.3333333333333</ele><time>2026-04-12T11:10:58Z</time></trkpt><trkpt lat="44.240415986467504" lon="11.606554599145223"><ele>496.16666666666663</ele><time>2026-04-12T11:10:59Z</time></trkpt><trkpt lat="44.240479604343705" lon="11.606619001393998"><ele>491.0</ele><time>2026-04-12T11:11:00Z</time></trkpt><trkpt lat="44.240557870078995" lon="11.606702564231613"><ele>491.0</ele><time>2026-04-12T11:11:01Z</time></trkpt><trkpt lat="44.24062289717283" lon="11.60680110185055"><ele>491.0</ele><time>2026-04-12T11:11:02Z</time></trkpt><trkpt lat="44.2406873945154" lon="11.606925448897071"><ele>491.0</ele><time>2026-04-12T11:11:04Z</time></trkpt><trkpt lat="44.24072412090334" lon="11.607056138266636"><ele>491.0</ele><time>2026-04-12T11:11:06Z</time></trkpt><trkpt lat="44.24077466855444" lon="11.60713473422329"><ele>491.0</ele><time>2026-04-12T11:11:07Z</time></trkpt><trkpt lat="44.24083971744862" lon="11.607243776791462"><ele>490.8333333333333</ele><time>2026-04-12T11:11:09Z</time></trkpt><trkpt lat="44.240894964301695" lon="11.607320448517758"><ele>490.66666666666663</ele><time>2026-04-12T11:11:10.999Z</time></trkpt><trkpt lat="44.24095727591834" lon="11.607376900852872"><ele>490.5</ele><time>2026-04-12T11:11:13.999Z</time></trkpt><trkpt lat="44.2410362017447" lon="11.607441971718556"><ele>490.33333333333337</ele><time>2026-04-12T11:11:15.999Z</time></trkpt><trkpt lat="44.24112913558138" lon="11.607518236919901"><ele>490.1666666666667</ele><time>2026-04-12T11:11:17.999Z</time></trkpt><trkpt lat="44.24119462174677" lon="11.60759152389082"><ele>490.0</ele><time>2026-04-12T11:11:18.999Z</time></trkpt><trkpt lat="44.24124909535846" lon="11.60766357089514"><ele>490.00000000000006</ele><time>2026-04-12T11:11:19.999Z</time></trkpt><trkpt lat="44.24131610692142" lon="11.607758410011062"><ele>490.0</ele><time>2026-04-12T11:11:21.999Z</time></trkpt><trkpt lat="44.241360583662555" lon="11.60783002692255"><ele>490.0</ele><time>2026-04-12T11:11:22.999Z</time></trkpt><trkpt lat="44.2414308396306" lon="11.607909726118107"><ele>490.0</ele><time>2026-04-12T11:11:24.999Z</time></trkpt><trkpt lat="44.241504217526256" lon="11.607953584642095"><ele>490.00000000000006</ele><time>2026-04-12T11:11:25.999Z</time></trkpt><trkpt lat="44.241570951249805" lon="11.60801983578228"><ele>490.0</ele><time>2026-04-12T11:11:26.999Z</time></trkpt><trkpt lat="44.241646924086176" lon="11.60809370720763"><ele>487.0</ele><time>2026-04-12T11:11:28.999Z</time></trkpt><trkpt lat="44.24173925941746" lon="11.608165731313392"><ele>484.0</ele><time>2026-04-12T11:11:30.999Z</time></trkpt><trkpt lat="44.24184071096909" lon="11.608225782961851"><ele>481.0</ele><time>2026-04-12T11:11:31.999Z</time></trkpt><trkpt lat="44.24192325996809" lon="11.608258922286764"><ele>478.0</ele><time>2026-04-12T11:11:33.999Z</time></trkpt><trkpt lat="44.242031885730505" lon="11.608235345994148"><ele>475.0</ele><time>2026-04-12T11:11:35.999Z</time></trkpt><trkpt lat="44.242211563472765" lon="11.608374218026036"><ele>475.0</ele><time>2026-04-12T11:11:39.999Z</time></trkpt><trkpt lat="44.24227397912063" lon="11.608416921527596"><ele>475.0</ele><time>2026-04-12T11:11:40.999Z</time></trkpt><trkpt lat="44.242333864337745" lon="11.608448568092921"><ele>475.0</ele><time>2026-04-12T11:11:41.999Z</time></trkpt><trkpt lat="44.24242404360574" lon="11.608587144685947"><ele>475.0</ele><time>2026-04-12T11:11:43.999Z</time></trkpt><trkpt lat="44.2424660724437" lon="11.608686549843558"><ele>475.0</ele><time>2026-04-12T11:11:44.999Z</time></trkpt><trkpt lat="44.24255395242477" lon="11.608768129695168"><ele>473.1666666666667</ele><time>2026-04-12T11:11:46.999Z</time></trkpt><trkpt lat="44.24259371939735" lon="11.608843376151398"><ele>471.33333333333337</ele><time>2026-04-12T11:11:47.999Z</time></trkpt><trkpt lat="44.24265810651752" lon="11.608934659671705"><ele>469.5</ele><time>2026-04-12T11:11:48.999Z</time></trkpt><trkpt lat="44.24271382769553" lon="11.60901056320555"><ele>467.66666666666663</ele><time>2026-04-12T11:11:49.999Z</time></trkpt><trkpt lat="44.242761699215954" lon="11.609089896117368"><ele>465.8333333333333</ele><time>2026-04-12T11:11:50.999Z</time></trkpt><trkpt lat="44.24282143566552" lon="11.609227676034438"><ele>464.0</ele><time>2026-04-12T11:11:52.999Z</time></trkpt><trkpt lat="44.242879360467576" lon="11.609356562539887"><ele>465.3333333333333</ele><time>2026-04-12T11:11:54.999Z</time></trkpt><trkpt lat="44.242911473286654" lon="11.609495616479482"><ele>466.66666666666663</ele><time>2026-04-12T11:11:56.999Z</time></trkpt><trkpt lat="44.242950111211776" lon="11.609570844754494"><ele>468.0</ele><time>2026-04-12T11:11:57.999Z</time></trkpt><trkpt lat="44.24299054569434" lon="11.609663632804152"><ele>469.33333333333337</ele><time>2026-04-12T11:11:58.999Z</time></trkpt><trkpt lat="44.24304698936193" lon="11.609746848912849"><ele>470.6666666666667</ele><time>2026-04-12T11:11:59.999Z</time></trkpt><trkpt lat="44.243100436456174" lon="11.609828541335874"><ele>472.0</ele><time>2026-04-12T11:12:00.999Z</time></trkpt><trkpt lat="44.24313931418274" lon="11.60992679728898"><ele>472.00000000000006</ele><time>2026-04-12T11:12:01.999Z</time></trkpt><trkpt lat="44.243177873466735" lon="11.610006843751325"><ele>472.0</ele><time>2026-04-12T11:12:02.999Z</time></trkpt><trkpt lat="44.24320953814174" lon="11.61010086053651"><ele>472.0</ele><time>2026-04-12T11:12:03.999Z</time></trkpt><trkpt lat="44.243240389404455" lon="11.610200285580339"><ele>472.0</ele><time>2026-04-12T11:12:04.999Z</time></trkpt><trkpt lat="44.24329456452902" lon="11.610337944491468"><ele>472.00000000000006</ele><time>2026-04-12T11:12:06.999Z</time></trkpt><trkpt lat="44.2433136696138" lon="11.610440272249546"><ele>472.0</ele><time>2026-04-12T11:12:07.999Z</time></trkpt><trkpt lat="44.24338982178199" lon="11.610587302869654"><ele>470.20000000000005</ele><time>2026-04-12T11:12:09.999Z</time></trkpt><trkpt lat="44.243437997146145" lon="11.610681206501932"><ele>468.40000000000003</ele><time>2026-04-12T11:12:10.999Z</time></trkpt><trkpt lat="44.243495104641674" lon="11.610774997629328"><ele>466.59999999999997</ele><time>2026-04-12T11:12:11.999Z</time></trkpt><trkpt lat="44.24356873094084" lon="11.610946140257903"><ele>464.79999999999995</ele><time>2026-04-12T11:12:13.999Z</time></trkpt><trkpt lat="44.243627363686024" lon="11.61105265805264"><ele>463.0</ele><time>2026-04-12T11:12:15Z</time></trkpt><trkpt lat="44.24367648363249" lon="11.611133144798458"><ele>462.00000000000006</ele><time>2026-04-12T11:12:16Z</time></trkpt><trkpt lat="44.243731414652544" lon="11.61122285253456"><ele>461.0</ele><time>2026-04-12T11:12:17Z</time></trkpt><trkpt lat="44.24377459641941" lon="11.61131202169229"><ele>460.0</ele><time>2026-04-12T11:12:18Z</time></trkpt><trkpt lat="44.2438075427185" lon="11.611418584579503"><ele>459.0</ele><time>2026-04-12T11:12:19Z</time></trkpt><trkpt lat="44.24383480375178" lon="11.611540329440418"><ele>458.00000000000006</ele><time>2026-04-12T11:12:20Z</time></trkpt><trkpt lat="44.24385425180145" lon="11.611669749218734"><ele>457.0</ele><time>2026-04-12T11:12:21Z</time></trkpt><trkpt lat="44.243848148160026" lon="11.611797710716282"><ele>457.00000000000006</ele><time>2026-04-12T11:12:22Z</time></trkpt><trkpt lat="44.24384661866909" lon="11.611910915206657"><ele>457.0</ele><time>2026-04-12T11:12:23Z</time></trkpt><trkpt lat="44.24383466309857" lon="11.612009126155868"><ele>457.00000000000006</ele><time>2026-04-12T11:12:24Z</time></trkpt><trkpt lat="44.243828490139286" lon="11.612120522826741"><ele>457.00000000000006</ele><time>2026-04-12T11:12:25Z</time></trkpt><trkpt lat="44.24382910000189" lon="11.612224397398874"><ele>457.0</ele><time>2026-04-12T11:12:26Z</time></trkpt><trkpt lat="44.24384155867782" lon="11.612321127124055"><ele>457.00000000000006</ele><time>2026-04-12T11:12:27Z</time></trkpt><trkpt lat="44.24385439328934" lon="11.612415083016161"><ele>457.00000000000006</ele><time>2026-04-12T11:12:28Z</time></trkpt><trkpt lat="44.24379322479589" lon="11.612527562276835"><ele>458.40000000000003</ele><time>2026-04-12T11:12:30Z</time></trkpt><trkpt lat="44.243744684382264" lon="11.612633917856227"><ele>459.80000000000007</ele><time>2026-04-12T11:12:32Z</time></trkpt><trkpt lat="44.24365987504967" lon="11.612730700817243"><ele>461.2</ele><time>2026-04-12T11:12:34Z</time></trkpt><trkpt lat="44.24355065772856" lon="11.612802925605715"><ele>462.6</ele><time>2026-04-12T11:12:36Z</time></trkpt><trkpt lat="44.243428143492" lon="11.612821212018265"><ele>464.0</ele><time>2026-04-12T11:12:38Z</time></trkpt><trkpt lat="44.243325084625" lon="11.612852588004152"><ele>464.8333333333333</ele><time>2026-04-12T11:12:40Z</time></trkpt><trkpt lat="44.24325536301095" lon="11.61287917394979"><ele>465.66666666666663</ele><time>2026-04-12T11:12:41Z</time></trkpt><trkpt lat="44.243187841117376" lon="11.612904941034989"><ele>466.5</ele><time>2026-04-12T11:12:42Z</time></trkpt><trkpt lat="44.24312027509936" lon="11.612943517173669"><ele>467.33333333333337</ele><time>2026-04-12T11:12:43Z</time></trkpt><trkpt lat="44.24304887894686" lon="11.612987570501746"><ele>468.1666666666667</ele><time>2026-04-12T11:12:44Z</time></trkpt><trkpt lat="44.24297191519907" lon="11.613040088443515"><ele>469.0</ele><time>2026-04-12T11:12:45Z</time></trkpt><trkpt lat="44.24289647942127" lon="11.613067116308507"><ele>469.00000000000006</ele><time>2026-04-12T11:12:46Z</time></trkpt><trkpt lat="44.24281658839012" lon="11.613082920210802"><ele>469.0</ele><time>2026-04-12T11:12:47Z</time></trkpt><trkpt lat="44.242740590826635" lon="11.613085584743462"><ele>469.0</ele><time>2026-04-12T11:12:48Z</time></trkpt><trkpt lat="44.24266359914514" lon="11.613082177675112"><ele>469.0</ele><time>2026-04-12T11:12:49Z</time></trkpt><trkpt lat="44.24259120140917" lon="11.613079069698955"><ele>469.00000000000006</ele><time>2026-04-12T11:12:50Z</time></trkpt><trkpt lat="44.24251241018559" lon="11.613081783197517"><ele>469.0</ele><time>2026-04-12T11:12:51Z</time></trkpt><trkpt lat="44.24243739687809" lon="11.613096503227663"><ele>469.00000000000006</ele><time>2026-04-12T11:12:52Z</time></trkpt><trkpt lat="44.24236841589745" lon="11.613135876615841"><ele>469.0</ele><time>2026-04-12T11:12:53Z</time></trkpt><trkpt lat="44.24232112601696" lon="11.613221910607251"><ele>469.0</ele><time>2026-04-12T11:12:54Z</time></trkpt><trkpt lat="44.242312374729224" lon="11.613328422433145"><ele>469.0</ele><time>2026-04-12T11:12:55Z</time></trkpt><trkpt lat="44.24229030322313" lon="11.613452223862874"><ele>469.00000000000006</ele><time>2026-04-12T11:12:56Z</time></trkpt><trkpt lat="44.24231818513798" lon="11.613566654457532"><ele>469.0</ele><time>2026-04-12T11:12:57Z</time></trkpt><trkpt lat="44.24237177120843" lon="11.613662791040166"><ele>467.50000000000006</ele><time>2026-04-12T11:12:58Z</time></trkpt><trkpt lat="44.24245393901461" lon="11.613726885765667"><ele>466.0</ele><time>2026-04-12T11:12:59Z</time></trkpt><trkpt lat="44.24254134044167" lon="11.61375782636356"><ele>464.5</ele><time>2026-04-12T11:13:00Z</time></trkpt><trkpt lat="44.24262343907151" lon="11.613780412496753"><ele>463.0</ele><time>2026-04-12T11:13:01Z</time></trkpt><trkpt lat="44.242706842626184" lon="11.613785107285588"><ele>461.50000000000006</ele><time>2026-04-12T11:13:02Z</time></trkpt><trkpt lat="44.24278770856836" lon="11.613799426873172"><ele>460.0</ele><time>2026-04-12T11:13:03Z</time></trkpt><trkpt lat="44.24286706397154" lon="11.613838580763334"><ele>460.00000000000006</ele><time>2026-04-12T11:13:04Z</time></trkpt><trkpt lat="44.24294224664502" lon="11.613849886448952"><ele>460.0</ele><time>2026-04-12T11:13:05Z</time></trkpt><trkpt lat="44.24301558561978" lon="11.613856772580965"><ele>460.0</ele><time>2026-04-12T11:13:06Z</time></trkpt><trkpt lat="44.243140627485595" lon="11.613901860849422"><ele>460.0</ele><time>2026-04-12T11:13:08Z</time></trkpt><trkpt lat="44.24320179989912" lon="11.613953297449338"><ele>460.00000000000006</ele><time>2026-04-12T11:13:09Z</time></trkpt><trkpt lat="44.24326601602697" lon="11.613997303145412"><ele>460.0</ele><time>2026-04-12T11:13:10Z</time></trkpt><trkpt lat="44.24334027771486" lon="11.614044631175323"><ele>461.0</ele><time>2026-04-12T11:13:11Z</time></trkpt><trkpt lat="44.243413197915494" lon="11.614111219306315"><ele>462.0</ele><time>2026-04-12T11:13:12Z</time></trkpt><trkpt lat="44.24348289853313" lon="11.614181724444542"><ele>463.0</ele><time>2026-04-12T11:13:13Z</time></trkpt><trkpt lat="44.24355115428528" lon="11.614270028330687"><ele>464.0</ele><time>2026-04-12T11:13:14Z</time></trkpt><trkpt lat="44.243619503939065" lon="11.614356377235817"><ele>465.0</ele><time>2026-04-12T11:13:15Z</time></trkpt><trkpt lat="44.24369056744037" lon="11.614457885898386"><ele>462.2</ele><time>2026-04-12T11:13:16Z</time></trkpt><trkpt lat="44.24375659790074" lon="11.614570233837906"><ele>459.4</ele><time>2026-04-12T11:13:17Z</time></trkpt><trkpt lat="44.24383304162355" lon="11.614683113947283"><ele>456.6</ele><time>2026-04-12T11:13:18Z</time></trkpt><trkpt lat="44.243906068784085" lon="11.614793890294228"><ele>453.8</ele><time>2026-04-12T11:13:19Z</time></trkpt><trkpt lat="44.24398471606522" lon="11.614927578105528"><ele>451.0</ele><time>2026-04-12T11:13:20Z</time></trkpt><trkpt lat="44.244030083678936" lon="11.615082081353691"><ele>451.0</ele><time>2026-04-12T11:13:21Z</time></trkpt><trkpt lat="44.24405489196806" lon="11.615240958787519"><ele>451.0</ele><time>2026-04-12T11:13:22Z</time></trkpt><trkpt lat="44.24409161416638" lon="11.615386344539719"><ele>451.0</ele><time>2026-04-12T11:13:23Z</time></trkpt><trkpt lat="44.24413758814989" lon="11.615534692353405"><ele>451.0</ele><time>2026-04-12T11:13:24Z</time></trkpt><trkpt lat="44.24417532220413" lon="11.61563988475639"><ele>451.0</ele><time>2026-04-12T11:13:25Z</time></trkpt><trkpt lat="44.24422218895755" lon="11.615716467221135"><ele>450.33333333333337</ele><time>2026-04-12T11:13:26Z</time></trkpt><trkpt lat="44.244276607133735" lon="11.615764536897416"><ele>449.6666666666667</ele><time>2026-04-12T11:13:27Z</time></trkpt><trkpt lat="44.24434348870049" lon="11.615826393569046"><ele>449.0</ele><time>2026-04-12T11:13:29.999Z</time></trkpt><trkpt lat="44.24438870901844" lon="11.615951562747536"><ele>448.33333333333337</ele><time>2026-04-12T11:13:32.999Z</time></trkpt><trkpt lat="44.24446926368586" lon="11.616017130297218"><ele>447.6666666666667</ele><time>2026-04-12T11:13:34.999Z</time></trkpt><trkpt lat="44.24453398711461" lon="11.61608774317603"><ele>447.0</ele><time>2026-04-12T11:13:36.999Z</time></trkpt><trkpt lat="44.24460222164195" lon="11.61620462607773"><ele>445.8</ele><time>2026-04-12T11:13:38.999Z</time></trkpt><trkpt lat="44.244634105452974" lon="11.61628969624856"><ele>444.6</ele><time>2026-04-12T11:13:39.999Z</time></trkpt><trkpt lat="44.244674678583124" lon="11.616359790337501"><ele>443.40000000000003</ele><time>2026-04-12T11:13:40.999Z</time></trkpt><trkpt lat="44.244753737857486" lon="11.61647776954797"><ele>442.20000000000005</ele><time>2026-04-12T11:13:42.999Z</time></trkpt><trkpt lat="44.24483479815028" lon="11.616565889138734"><ele>441.0</ele><time>2026-04-12T11:13:44.999Z</time></trkpt><trkpt lat="44.24485282357608" lon="11.616724521057728"><ele>443.3333333333333</ele><time>2026-04-12T11:13:46.999Z</time></trkpt><trkpt lat="44.244889504786755" lon="11.616897200171943"><ele>445.66666666666663</ele><time>2026-04-12T11:13:48.999Z</time></trkpt><trkpt lat="44.24489806303597" lon="11.616999688347097"><ele>448.0</ele><time>2026-04-12T11:13:49.999Z</time></trkpt><trkpt lat="44.24490536831463" lon="11.617110805388478"><ele>450.3333333333333</ele><time>2026-04-12T11:13:50.999Z</time></trkpt><trkpt lat="44.244894072270384" lon="11.617216268251914"><ele>452.66666666666663</ele><time>2026-04-12T11:13:51.999Z</time></trkpt><trkpt lat="44.244895072774355" lon="11.617319491650786"><ele>455.0</ele><time>2026-04-12T11:13:53.999Z</time></trkpt><trkpt lat="44.244896561858795" lon="11.617443008071822"><ele>455.0</ele><time>2026-04-12T11:13:55.999Z</time></trkpt><trkpt lat="44.24490507756736" lon="11.617581200344167"><ele>455.0</ele><time>2026-04-12T11:13:57.999Z</time></trkpt><trkpt lat="44.24489738696033" lon="11.617761276563103"><ele>455.0</ele><time>2026-04-12T11:13:59.999Z</time></trkpt><trkpt lat="44.24488619768183" lon="11.617858779405898"><ele>455.0</ele><time>2026-04-12T11:14:00.999Z</time></trkpt><trkpt lat="44.24486926329583" lon="11.617947547283633"><ele>455.0</ele><time>2026-04-12T11:14:01.999Z</time></trkpt><trkpt lat="44.24485524922379" lon="11.618114636156308"><ele>455.2</ele><time>2026-04-12T11:14:03.999Z</time></trkpt><trkpt lat="44.24485843312029" lon="11.6182409325269"><ele>455.4</ele><time>2026-04-12T11:14:05.999Z</time></trkpt><trkpt lat="44.244869979658084" lon="11.618386897796242"><ele>455.6</ele><time>2026-04-12T11:14:07.999Z</time></trkpt><trkpt lat="44.24488351307394" lon="11.61853396574257"><ele>455.8</ele><time>2026-04-12T11:14:09.999Z</time></trkpt><trkpt lat="44.24491670808168" lon="11.618664020558308"><ele>456.0</ele><time>2026-04-12T11:14:11.999Z</time></trkpt><trkpt lat="44.24496005821474" lon="11.618792472244797"><ele>457.0</ele><time>2026-04-12T11:14:13.999Z</time></trkpt><trkpt lat="44.245028297052194" lon="11.618942629522872"><ele>458.0</ele><time>2026-04-12T11:14:15.999Z</time></trkpt><trkpt lat="44.2451113556464" lon="11.619090835777396"><ele>459.0</ele><time>2026-04-12T11:14:17.999Z</time></trkpt><trkpt lat="44.24514908490353" lon="11.619169847652818"><ele>460.0</ele><time>2026-04-12T11:14:18.999Z</time></trkpt><trkpt lat="44.245223765575226" lon="11.619304731906341"><ele>460.00000000000006</ele><time>2026-04-12T11:14:21Z</time></trkpt><trkpt lat="44.24527166813648" lon="11.619369806691184"><ele>460.0</ele><time>2026-04-12T11:14:22Z</time></trkpt><trkpt lat="44.245310117526124" lon="11.619446808948949"><ele>460.0</ele><time>2026-04-12T11:14:23Z</time></trkpt><trkpt lat="44.24533665758605" lon="11.619536103858005"><ele>460.0</ele><time>2026-04-12T11:14:24Z</time></trkpt><trkpt lat="44.245342987048225" lon="11.619630931192019"><ele>460.00000000000006</ele><time>2026-04-12T11:14:25Z</time></trkpt><trkpt lat="44.2453505661442" lon="11.619723347139118"><ele>460.0</ele><time>2026-04-12T11:14:26Z</time></trkpt><trkpt lat="44.245415225007115" lon="11.619861383967418"><ele>459.99999999999994</ele><time>2026-04-12T11:14:28Z</time></trkpt><trkpt lat="44.24547300519738" lon="11.619908455199598"><ele>460.0</ele><time>2026-04-12T11:14:29Z</time></trkpt><trkpt lat="44.245477642161916" lon="11.619996144014092"><ele>459.99999999999994</ele><time>2026-04-12T11:14:30Z</time></trkpt><trkpt lat="44.2454800391327" lon="11.620090183533286"><ele>459.99999999999994</ele><time>2026-04-12T11:14:31Z</time></trkpt><trkpt lat="44.24545901265544" lon="11.62018526386467"><ele>460.0</ele><time>2026-04-12T11:14:32Z</time></trkpt><trkpt lat="44.2454532977856" lon="11.620282250960404"><ele>459.99999999999994</ele><time>2026-04-12T11:14:33Z</time></trkpt><trkpt lat="44.24546667469595" lon="11.620405623549752"><ele>459.99999999999994</ele><time>2026-04-12T11:14:34Z</time></trkpt><trkpt lat="44.24547243238022" lon="11.620554650160805"><ele>460.00000000000006</ele><time>2026-04-12T11:14:35Z</time></trkpt><trkpt lat="44.2454807091389" lon="11.620705583798172"><ele>460.0</ele><time>2026-04-12T11:14:36Z</time></trkpt><trkpt lat="44.24548240763037" lon="11.620811735779611"><ele>460.0</ele><time>2026-04-12T11:14:37Z</time></trkpt><trkpt lat="44.245479386553725" lon="11.620942606654419"><ele>460.0</ele><time>2026-04-12T11:14:38Z</time></trkpt><trkpt lat="44.245456563897974" lon="11.621041833095001"><ele>460.00000000000006</ele><time>2026-04-12T11:14:39Z</time></trkpt><trkpt lat="44.24543526206588" lon="11.621132830282338"><ele>460.0</ele><time>2026-04-12T11:14:40Z</time></trkpt><trkpt lat="44.245425549762054" lon="11.62122469989488"><ele>458.2</ele><time>2026-04-12T11:14:41Z</time></trkpt><trkpt lat="44.24542071325722" lon="11.621325118511406"><ele>456.4</ele><time>2026-04-12T11:14:42Z</time></trkpt><trkpt lat="44.24541155194813" lon="11.62142363011735"><ele>454.6</ele><time>2026-04-12T11:14:43Z</time></trkpt><trkpt lat="44.24540663403364" lon="11.621532312339264"><ele>452.8</ele><time>2026-04-12T11:14:44Z</time></trkpt><trkpt lat="44.24544477647431" lon="11.62171953302077"><ele>451.0</ele><time>2026-04-12T11:14:46Z</time></trkpt><trkpt lat="44.24545506790822" lon="11.62184612917706"><ele>451.0</ele><time>2026-04-12T11:14:47Z</time></trkpt><trkpt lat="44.24548353649229" lon="11.62196505858172"><ele>451.0</ele><time>2026-04-12T11:14:48Z</time></trkpt><trkpt lat="44.24551140510365" lon="11.62207833512439"><ele>451.0</ele><time>2026-04-12T11:14:49Z</time></trkpt><trkpt lat="44.245519650963004" lon="11.622252612566168"><ele>451.0</ele><time>2026-04-12T11:14:51Z</time></trkpt><trkpt lat="44.24555541899444" lon="11.62242881271283"><ele>451.0</ele><time>2026-04-12T11:14:53Z</time></trkpt><trkpt lat="44.245600840782146" lon="11.622518928276596"><ele>449.00000000000006</ele><time>2026-04-12T11:14:54Z</time></trkpt><trkpt lat="44.24565202621498" lon="11.622584190209132"><ele>447.0</ele><time>2026-04-12T11:14:55Z</time></trkpt><trkpt lat="44.245705489479555" lon="11.622667509202797"><ele>445.0</ele><time>2026-04-12T11:14:56Z</time></trkpt><trkpt lat="44.245773843985134" lon="11.622763547306732"><ele>443.0</ele><time>2026-04-12T11:14:57Z</time></trkpt><trkpt lat="44.24584045510342" lon="11.622847014899719"><ele>441.00000000000006</ele><time>2026-04-12T11:14:58Z</time></trkpt><trkpt lat="44.24589829778616" lon="11.622941689185575"><ele>439.0</ele><time>2026-04-12T11:14:59Z</time></trkpt><trkpt lat="44.24594936018078" lon="11.623041836643791"><ele>437.0</ele><time>2026-04-12T11:15:00Z</time></trkpt><trkpt lat="44.246013164637574" lon="11.623149213665075"><ele>435.0</ele><time>2026-04-12T11:15:01Z</time></trkpt><trkpt lat="44.24606181627547" lon="11.6232446308897"><ele>433.0</ele><time>2026-04-12T11:15:02Z</time></trkpt><trkpt lat="44.24611307763738" lon="11.623344908808333"><ele>431.0</ele><time>2026-04-12T11:15:03Z</time></trkpt><trkpt lat="44.24620394753159" lon="11.623500411059835"><ele>429.0</ele><time>2026-04-12T11:15:04Z</time></trkpt><trkpt lat="44.246264825669805" lon="11.623629881700914"><ele>426.0</ele><time>2026-04-12T11:15:05Z</time></trkpt><trkpt lat="44.24631749782399" lon="11.62373007949716"><ele>423.0</ele><time>2026-04-12T11:15:06Z</time></trkpt><trkpt lat="44.246358247580915" lon="11.623827503497761"><ele>420.0</ele><time>2026-04-12T11:15:07Z</time></trkpt><trkpt lat="44.2464086567073" lon="11.623933572829234"><ele>417.0</ele><time>2026-04-12T11:15:08Z</time></trkpt><trkpt lat="44.246473720467385" lon="11.624037024690509"><ele>414.0</ele><time>2026-04-12T11:15:09Z</time></trkpt><trkpt lat="44.24652635916039" lon="11.624149068297653"><ele>414.0</ele><time>2026-04-12T11:15:10Z</time></trkpt><trkpt lat="44.246586036786226" lon="11.624273123874715"><ele>414.0</ele><time>2026-04-12T11:15:11Z</time></trkpt><trkpt lat="44.24664174340877" lon="11.62440782427162"><ele>414.0</ele><time>2026-04-12T11:15:12Z</time></trkpt><trkpt lat="44.24670351456892" lon="11.624515946553048"><ele>414.0</ele><time>2026-04-12T11:15:13Z</time></trkpt><trkpt lat="44.24674572644739" lon="11.624592887373119"><ele>414.0</ele><time>2026-04-12T11:15:14Z</time></trkpt><trkpt lat="44.24677440278106" lon="11.624674864712805"><ele>413.28571428571433</ele><time>2026-04-12T11:15:15Z</time></trkpt><trkpt lat="44.24678758399737" lon="11.62477217358461"><ele>412.57142857142856</ele><time>2026-04-12T11:15:16Z</time></trkpt><trkpt lat="44.24679731304339" lon="11.624873471761148"><ele>411.8571428571429</ele><time>2026-04-12T11:15:17Z</time></trkpt><trkpt lat="44.24680251133248" lon="11.624968050302266"><ele>411.14285714285717</ele><time>2026-04-12T11:15:18Z</time></trkpt><trkpt lat="44.24678676276785" lon="11.62507564040193"><ele>410.42857142857144</ele><time>2026-04-12T11:15:19Z</time></trkpt><trkpt lat="44.24677491000782" lon="11.625181206560173"><ele>409.7142857142857</ele><time>2026-04-12T11:15:20Z</time></trkpt><trkpt lat="44.24677366756989" lon="11.625281998625754"><ele>409.0</ele><time>2026-04-12T11:15:21Z</time></trkpt><trkpt lat="44.24679274983811" lon="11.625382429250035"><ele>408.1428571428571</ele><time>2026-04-12T11:15:22Z</time></trkpt><trkpt lat="44.246814824852216" lon="11.625490225266498"><ele>407.28571428571433</ele><time>2026-04-12T11:15:23Z</time></trkpt><trkpt lat="44.2468463787254" lon="11.625575967325565"><ele>406.42857142857144</ele><time>2026-04-12T11:15:24Z</time></trkpt><trkpt lat="44.24689286444642" lon="11.625641929558054"><ele>405.57142857142856</ele><time>2026-04-12T11:15:25Z</time></trkpt><trkpt lat="44.24694409048433" lon="11.625700452986033"><ele>404.71428571428567</ele><time>2026-04-12T11:15:26Z</time></trkpt><trkpt lat="44.24699381793568" lon="11.625768474412727"><ele>403.8571428571429</ele><time>2026-04-12T11:15:27Z</time></trkpt><trkpt lat="44.247041741777636" lon="11.625841548769118"><ele>403.0</ele><time>2026-04-12T11:15:28Z</time></trkpt><trkpt lat="44.247082658235875" lon="11.625921075190842"><ele>403.00000000000006</ele><time>2026-04-12T11:15:29Z</time></trkpt><trkpt lat="44.24711190741334" lon="11.626018272981542"><ele>403.0</ele><time>2026-04-12T11:15:29.999Z</time></trkpt><trkpt lat="44.247139742096905" lon="11.626111463842129"><ele>403.0</ele><time>2026-04-12T11:15:30.999Z</time></trkpt><trkpt lat="44.247177520992615" lon="11.626255812983366"><ele>403.0</ele><time>2026-04-12T11:15:32.999Z</time></trkpt><trkpt lat="44.247231701961866" lon="11.626349364409851"><ele>403.00000000000006</ele><time>2026-04-12T11:15:34.999Z</time></trkpt><trkpt lat="44.247221090225864" lon="11.62645459725305"><ele>403.0</ele><time>2026-04-12T11:15:36.999Z</time></trkpt><trkpt lat="44.247202366438316" lon="11.626550888135563"><ele>403.00000000000006</ele><time>2026-04-12T11:15:38.999Z</time></trkpt><trkpt lat="44.24720473225608" lon="11.626673474982116"><ele>403.0</ele><time>2026-04-12T11:15:41.999Z</time></trkpt><trkpt lat="44.247208961886805" lon="11.626792707417117"><ele>403.0</ele><time>2026-04-12T11:15:44.999Z</time></trkpt><trkpt lat="44.24722211465469" lon="11.626909946664385"><ele>403.0</ele><time>2026-04-12T11:15:47.999Z</time></trkpt><trkpt lat="44.24723748624244" lon="11.626996250475516"><ele>403.00000000000006</ele><time>2026-04-12T11:15:49.999Z</time></trkpt><trkpt lat="44.247236136552345" lon="11.627105590403701"><ele>403.0</ele><time>2026-04-12T11:15:51.999Z</time></trkpt><trkpt lat="44.247236142482556" lon="11.627216553328076"><ele>403.33333333333337</ele><time>2026-04-12T11:15:53.999Z</time></trkpt><trkpt lat="44.24722846325062" lon="11.627311808240247"><ele>403.6666666666667</ele><time>2026-04-12T11:15:55.999Z</time></trkpt><trkpt lat="44.24722025750802" lon="11.627418491929953"><ele>404.0</ele><time>2026-04-12T11:15:57.999Z</time></trkpt><trkpt lat="44.247191566393504" lon="11.627499700940671"><ele>404.33333333333337</ele><time>2026-04-12T11:15:59.999Z</time></trkpt><trkpt lat="44.24713002715122" lon="11.627568498395156"><ele>404.6666666666667</ele><time>2026-04-12T11:16:02.999Z</time></trkpt><trkpt lat="44.24722871959583" lon="11.62768322467377"><ele>405.0</ele><time>2026-04-12T11:16:42Z</time></trkpt><trkpt lat="44.24716922216968" lon="11.62773778580764"><ele>404.99999999999994</ele><time>2026-04-12T11:17:21Z</time></trkpt><trkpt lat="44.24718843894417" lon="11.627642203765562"><ele>405.0</ele><time>2026-04-12T11:17:26Z</time></trkpt><trkpt lat="44.2472271187702" lon="11.62757040653571"><ele>405.0</ele><time>2026-04-12T11:17:34Z</time></trkpt><trkpt lat="44.24727973794845" lon="11.627504537644956"><ele>405.0</ele><time>2026-04-12T11:17:40Z</time></trkpt><trkpt lat="44.24736226446097" lon="11.62749776758654"><ele>405.0</ele><time>2026-04-12T11:17:45.999Z</time></trkpt><trkpt lat="44.24743523712696" lon="11.627520180955422"><ele>404.99999999999994</ele><time>2026-04-12T11:17:50.999Z</time></trkpt><trkpt lat="44.24751135965954" lon="11.627529612007411"><ele>405.0</ele><time>2026-04-12T11:17:52.999Z</time></trkpt><trkpt lat="44.2476223534844" lon="11.627556105809152"><ele>407.0</ele><time>2026-04-12T11:17:54.999Z</time></trkpt><trkpt lat="44.24769261864776" lon="11.627571326773852"><ele>409.0</ele><time>2026-04-12T11:17:55.999Z</time></trkpt><trkpt lat="44.247766375985485" lon="11.62759262654404"><ele>411.0</ele><time>2026-04-12T11:17:56.999Z</time></trkpt><trkpt lat="44.2478509944436" lon="11.627610427306"><ele>413.0</ele><time>2026-04-12T11:17:57.999Z</time></trkpt><trkpt lat="44.24793150447027" lon="11.627643980316243"><ele>415.0</ele><time>2026-04-12T11:17:58.999Z</time></trkpt><trkpt lat="44.24800059723697" lon="11.627687530587135"><ele>417.0</ele><time>2026-04-12T11:17:59.999Z</time></trkpt><trkpt lat="44.24807458912886" lon="11.627738682647593"><ele>414.0</ele><time>2026-04-12T11:18:00.999Z</time></trkpt><trkpt lat="44.24816486485331" lon="11.62778839432272"><ele>411.0</ele><time>2026-04-12T11:18:01.999Z</time></trkpt><trkpt lat="44.24825133787477" lon="11.627828510398198"><ele>408.0</ele><time>2026-04-12T11:18:02.999Z</time></trkpt><trkpt lat="44.248334115548836" lon="11.62787243283068"><ele>405.0</ele><time>2026-04-12T11:18:03.999Z</time></trkpt><trkpt lat="44.24840745368959" lon="11.62790145030841"><ele>402.0</ele><time>2026-04-12T11:18:04.999Z</time></trkpt><trkpt lat="44.248485231002476" lon="11.62795187489339"><ele>399.0</ele><time>2026-04-12T11:18:05.999Z</time></trkpt><trkpt lat="44.24858015675945" lon="11.628019503258674"><ele>399.0</ele><time>2026-04-12T11:18:06.999Z</time></trkpt><trkpt lat="44.248674639340564" lon="11.628086424398491"><ele>399.0</ele><time>2026-04-12T11:18:07.999Z</time></trkpt><trkpt lat="44.24875060051724" lon="11.628130400608283"><ele>399.0</ele><time>2026-04-12T11:18:08.999Z</time></trkpt><trkpt lat="44.248832959712836" lon="11.62817887812786"><ele>399.0</ele><time>2026-04-12T11:18:09.999Z</time></trkpt><trkpt lat="44.24891806667079" lon="11.628226344886015"><ele>399.0</ele><time>2026-04-12T11:18:10.999Z</time></trkpt><trkpt lat="44.24899365388859" lon="11.628266245694347"><ele>399.3333333333333</ele><time>2026-04-12T11:18:11.999Z</time></trkpt><trkpt lat="44.249055321669026" lon="11.628314443829346"><ele>399.66666666666663</ele><time>2026-04-12T11:18:12.999Z</time></trkpt><trkpt lat="44.24909816344698" lon="11.628389456299207"><ele>400.0</ele><time>2026-04-12T11:18:13.999Z</time></trkpt><trkpt lat="44.24911604139567" lon="11.628474693660184"><ele>400.3333333333333</ele><time>2026-04-12T11:18:14.999Z</time></trkpt><trkpt lat="44.24912762157322" lon="11.628633070302538"><ele>400.66666666666663</ele><time>2026-04-12T11:18:16.999Z</time></trkpt><trkpt lat="44.24913346234183" lon="11.628723188633757"><ele>401.0</ele><time>2026-04-12T11:18:17.999Z</time></trkpt><trkpt lat="44.24913199481968" lon="11.628896170978063"><ele>401.0</ele><time>2026-04-12T11:18:19.999Z</time></trkpt><trkpt lat="44.24917397734708" lon="11.629057151141936"><ele>401.0</ele><time>2026-04-12T11:18:21.999Z</time></trkpt><trkpt lat="44.24923517314018" lon="11.629180328406703"><ele>401.0</ele><time>2026-04-12T11:18:23.999Z</time></trkpt><trkpt lat="44.24931990012874" lon="11.629284106137089"><ele>401.0</ele><time>2026-04-12T11:18:25.999Z</time></trkpt><trkpt lat="44.24942178760248" lon="11.629368709998095"><ele>401.0</ele><time>2026-04-12T11:18:27.999Z</time></trkpt><trkpt lat="44.24946981685776" lon="11.629426695791786"><ele>401.0</ele><time>2026-04-12T11:18:28.999Z</time></trkpt><trkpt lat="44.249522989763136" lon="11.629487331579751"><ele>401.0</ele><time>2026-04-12T11:18:29.999Z</time></trkpt><trkpt lat="44.24958153773973" lon="11.62955436568915"><ele>401.0</ele><time>2026-04-12T11:18:30.999Z</time></trkpt><trkpt lat="44.249630477089596" lon="11.629635904608806"><ele>401.0</ele><time>2026-04-12T11:18:31.999Z</time></trkpt><trkpt lat="44.24968181276888" lon="11.629710543454278"><ele>401.0</ele><time>2026-04-12T11:18:33Z</time></trkpt><trkpt lat="44.24974223740206" lon="11.62975782367655"><ele>401.0</ele><time>2026-04-12T11:18:34Z</time></trkpt><trkpt lat="44.24982320867563" lon="11.629792997423191"><ele>401.3333333333333</ele><time>2026-04-12T11:18:35Z</time></trkpt><trkpt lat="44.2499064923355" lon="11.629814758542159"><ele>401.66666666666663</ele><time>2026-04-12T11:18:36Z</time></trkpt><trkpt lat="44.24999149233675" lon="11.629828772393077"><ele>402.0</ele><time>2026-04-12T11:18:37Z</time></trkpt><trkpt lat="44.250080465382844" lon="11.629846141349153"><ele>402.33333333333337</ele><time>2026-04-12T11:18:38Z</time></trkpt><trkpt lat="44.250172219431406" lon="11.629846865956614"><ele>402.6666666666667</ele><time>2026-04-12T11:18:39Z</time></trkpt><trkpt lat="44.250269201199224" lon="11.629851554721306"><ele>403.0</ele><time>2026-04-12T11:18:40Z</time></trkpt><trkpt lat="44.25036916282607" lon="11.62987632737365"><ele>403.0</ele><time>2026-04-12T11:18:41Z</time></trkpt><trkpt lat="44.250462082999356" lon="11.629915527594965"><ele>403.0</ele><time>2026-04-12T11:18:42Z</time></trkpt><trkpt lat="44.25055371147291" lon="11.629951269162357"><ele>403.0</ele><time>2026-04-12T11:18:43Z</time></trkpt><trkpt lat="44.25064943031286" lon="11.629989339167954"><ele>403.0</ele><time>2026-04-12T11:18:44Z</time></trkpt><trkpt lat="44.2507448583461" lon="11.6300284200415"><ele>403.0</ele><time>2026-04-12T11:18:45Z</time></trkpt><trkpt lat="44.25083845995496" lon="11.630062085033739"><ele>401.0</ele><time>2026-04-12T11:18:46Z</time></trkpt><trkpt lat="44.250935745429004" lon="11.63009582298994"><ele>399.0</ele><time>2026-04-12T11:18:47Z</time></trkpt><trkpt lat="44.251035565545585" lon="11.630119781352136"><ele>397.0</ele><time>2026-04-12T11:18:48Z</time></trkpt><trkpt lat="44.25113864872924" lon="11.630131543255557"><ele>395.0</ele><time>2026-04-12T11:18:49Z</time></trkpt><trkpt lat="44.25124700203922" lon="11.630123066555003"><ele>393.0</ele><time>2026-04-12T11:18:50Z</time></trkpt><trkpt lat="44.25136176396427" lon="11.630092607539153"><ele>390.79999999999995</ele><time>2026-04-12T11:18:51Z</time></trkpt><trkpt lat="44.251462495192285" lon="11.63008256509239"><ele>388.6</ele><time>2026-04-12T11:18:52Z</time></trkpt><trkpt lat="44.251547852048546" lon="11.630108290980713"><ele>386.4</ele><time>2026-04-12T11:18:53Z</time></trkpt><trkpt lat="44.251611104109685" lon="11.63019051073014"><ele>384.20000000000005</ele><time>2026-04-12T11:18:54Z</time></trkpt><trkpt lat="44.25165170898519" lon="11.630304900566925"><ele>382.0</ele><time>2026-04-12T11:18:55Z</time></trkpt><trkpt lat="44.25169032380956" lon="11.630441930703675"><ele>382.0</ele><time>2026-04-12T11:18:56Z</time></trkpt><trkpt lat="44.25173561901024" lon="11.630573471012395"><ele>382.0</ele><time>2026-04-12T11:18:57Z</time></trkpt><trkpt lat="44.25178965767277" lon="11.630690918758802"><ele>382.0</ele><time>2026-04-12T11:18:58Z</time></trkpt><trkpt lat="44.25186299519074" lon="11.630814020599521"><ele>382.0</ele><time>2026-04-12T11:18:59Z</time></trkpt><trkpt lat="44.2519340895216" lon="11.630931495153193"><ele>382.0</ele><time>2026-04-12T11:19:00Z</time></trkpt><trkpt lat="44.25200936500291" lon="11.63105137833766"><ele>379.6</ele><time>2026-04-12T11:19:01Z</time></trkpt><trkpt lat="44.252087111323945" lon="11.631156427233739"><ele>377.20000000000005</ele><time>2026-04-12T11:19:02Z</time></trkpt><trkpt lat="44.25216651199336" lon="11.631260744888237"><ele>374.8</ele><time>2026-04-12T11:19:03Z</time></trkpt><trkpt lat="44.25224663392391" lon="11.631345652206061"><ele>372.4</ele><time>2026-04-12T11:19:04Z</time></trkpt><trkpt lat="44.25233978626043" lon="11.631397938514748"><ele>370.0</ele><time>2026-04-12T11:19:05Z</time></trkpt><trkpt lat="44.25244008343913" lon="11.631406553665268"><ele>368.6</ele><time>2026-04-12T11:19:06Z</time></trkpt><trkpt lat="44.25253539290502" lon="11.631380823963482"><ele>367.2</ele><time>2026-04-12T11:19:07Z</time></trkpt><trkpt lat="44.25262909695607" lon="11.631356802990213"><ele>365.79999999999995</ele><time>2026-04-12T11:19:08Z</time></trkpt><trkpt lat="44.252726095434134" lon="11.631345801624574"><ele>364.4</ele><time>2026-04-12T11:19:09Z</time></trkpt><trkpt lat="44.25282335095388" lon="11.631353462902233"><ele>363.0</ele><time>2026-04-12T11:19:10Z</time></trkpt><trkpt lat="44.25291701878292" lon="11.63134550715906"><ele>363.0</ele><time>2026-04-12T11:19:11Z</time></trkpt><trkpt lat="44.25300970927501" lon="11.631309018669608"><ele>363.0</ele><time>2026-04-12T11:19:12Z</time></trkpt><trkpt lat="44.25309764189172" lon="11.631259932838832"><ele>363.0</ele><time>2026-04-12T11:19:13Z</time></trkpt><trkpt lat="44.25318147446702" lon="11.631217719894341"><ele>363.0</ele><time>2026-04-12T11:19:14Z</time></trkpt><trkpt lat="44.25326460345492" lon="11.631171381709354"><ele>363.0</ele><time>2026-04-12T11:19:15Z</time></trkpt><trkpt lat="44.253345133974065" lon="11.631130829450713"><ele>363.8333333333333</ele><time>2026-04-12T11:19:16Z</time></trkpt><trkpt lat="44.253435168623945" lon="11.631116758992077"><ele>364.6666666666667</ele><time>2026-04-12T11:19:17Z</time></trkpt><trkpt lat="44.25352374005811" lon="11.631128503337557"><ele>365.5</ele><time>2026-04-12T11:19:18Z</time></trkpt><trkpt lat="44.25361340048429" lon="11.63116298273605"><ele>366.33333333333337</ele><time>2026-04-12T11:19:19Z</time></trkpt><trkpt lat="44.25368701309664" lon="11.631231968585487"><ele>367.1666666666667</ele><time>2026-04-12T11:19:20Z</time></trkpt><trkpt lat="44.25374569854842" lon="11.631320917597472"><ele>368.0</ele><time>2026-04-12T11:19:21Z</time></trkpt><trkpt lat="44.25381052654518" lon="11.6314109407923"><ele>368.0</ele><time>2026-04-12T11:19:22Z</time></trkpt><trkpt lat="44.25389051945108" lon="11.63149205846408"><ele>368.0</ele><time>2026-04-12T11:19:23Z</time></trkpt><trkpt lat="44.25397302171815" lon="11.631567246700575"><ele>368.0</ele><time>2026-04-12T11:19:24Z</time></trkpt><trkpt lat="44.25406424907233" lon="11.631643373793729"><ele>368.0</ele><time>2026-04-12T11:19:25Z</time></trkpt><trkpt lat="44.254155646230934" lon="11.631716779236765"><ele>368.0</ele><time>2026-04-12T11:19:26Z</time></trkpt><trkpt lat="44.25423602898567" lon="11.63179777442115"><ele>368.2</ele><time>2026-04-12T11:19:27Z</time></trkpt><trkpt lat="44.2543211540885" lon="11.63187644915456"><ele>368.4</ele><time>2026-04-12T11:19:28Z</time></trkpt><trkpt lat="44.25440362728474" lon="11.631955070514126"><ele>368.59999999999997</ele><time>2026-04-12T11:19:29Z</time></trkpt><trkpt lat="44.254482828558494" lon="11.632025146497165"><ele>368.79999999999995</ele><time>2026-04-12T11:19:30Z</time></trkpt><trkpt lat="44.254565818944556" lon="11.632100979448163"><ele>369.0</ele><time>2026-04-12T11:19:31Z</time></trkpt><trkpt lat="44.25464200052069" lon="11.632175122886528"><ele>369.6666666666667</ele><time>2026-04-12T11:19:32Z</time></trkpt><trkpt lat="44.25471601796476" lon="11.632263699131025"><ele>370.3333333333333</ele><time>2026-04-12T11:19:33Z</time></trkpt><trkpt lat="44.25478548377191" lon="11.632349808838775"><ele>371.0</ele><time>2026-04-12T11:19:34Z</time></trkpt><trkpt lat="44.25484561572376" lon="11.632438230859123"><ele>371.66666666666663</ele><time>2026-04-12T11:19:35Z</time></trkpt><trkpt lat="44.25489093775754" lon="11.632528475985128"><ele>372.3333333333333</ele><time>2026-04-12T11:19:36Z</time></trkpt><trkpt lat="44.25490658637002" lon="11.632620664870718"><ele>373.0</ele><time>2026-04-12T11:19:37Z</time></trkpt><trkpt lat="44.25492993555672" lon="11.632704832337518"><ele>370.79999999999995</ele><time>2026-04-12T11:19:38Z</time></trkpt><trkpt lat="44.25497555895997" lon="11.632863120771287"><ele>368.6</ele><time>2026-04-12T11:19:39.999Z</time></trkpt><trkpt lat="44.25498064681341" lon="11.632952673098357"><ele>366.4</ele><time>2026-04-12T11:19:40.999Z</time></trkpt><trkpt lat="44.25500596122214" lon="11.633122571556461"><ele>364.20000000000005</ele><time>2026-04-12T11:19:42.999Z</time></trkpt><trkpt lat="44.2550986979412" lon="11.633225193066075"><ele>362.0</ele><time>2026-04-12T11:19:44.999Z</time></trkpt><trkpt lat="44.25515864741227" lon="11.633253345227988"><ele>362.0</ele><time>2026-04-12T11:19:45.999Z</time></trkpt><trkpt lat="44.25524756995875" lon="11.633285076958055"><ele>362.0</ele><time>2026-04-12T11:19:47.999Z</time></trkpt><trkpt lat="44.255340875062856" lon="11.633331226427734"><ele>362.0</ele><time>2026-04-12T11:19:49.999Z</time></trkpt><trkpt lat="44.25542719705685" lon="11.633393634709806"><ele>362.0</ele><time>2026-04-12T11:19:51.999Z</time></trkpt><trkpt lat="44.25552661962029" lon="11.633454886107643"><ele>362.0</ele><time>2026-04-12T11:19:53.999Z</time></trkpt><trkpt lat="44.255621194614584" lon="11.633507593031672"><ele>365.1666666666667</ele><time>2026-04-12T11:19:55.999Z</time></trkpt><trkpt lat="44.255691926930126" lon="11.63350205908004"><ele>368.33333333333337</ele><time>2026-04-12T11:19:57.999Z</time></trkpt><trkpt lat="44.255740063208485" lon="11.633404512928845"><ele>371.5</ele><time>2026-04-12T11:20:00.999Z</time></trkpt><trkpt lat="44.25576795126863" lon="11.633289221541173"><ele>374.6666666666667</ele><time>2026-04-12T11:20:03.999Z</time></trkpt><trkpt lat="44.25582065763731" lon="11.633202262981026"><ele>377.8333333333333</ele><time>2026-04-12T11:20:07.999Z</time></trkpt><trkpt lat="44.255895171295336" lon="11.633141225401028"><ele>381.0</ele><time>2026-04-12T11:20:11.999Z</time></trkpt><trkpt lat="44.25597259905989" lon="11.633145723925503"><ele>381.0</ele><time>2026-04-12T11:20:15.999Z</time></trkpt><trkpt lat="44.25603056210835" lon="11.633216969791295"><ele>381.0</ele><time>2026-04-12T11:20:18.999Z</time></trkpt><trkpt lat="44.25611316284303" lon="11.633275613659228"><ele>381.0</ele><time>2026-04-12T11:20:21.999Z</time></trkpt><trkpt lat="44.25616778740609" lon="11.633321672015212"><ele>381.0</ele><time>2026-04-12T11:20:23.999Z</time></trkpt><trkpt lat="44.25624208390079" lon="11.633394441001869"><ele>381.0</ele><time>2026-04-12T11:20:26.999Z</time></trkpt><trkpt lat="44.2562915019271" lon="11.633480269277586"><ele>381.0</ele><time>2026-04-12T11:20:29.999Z</time></trkpt><trkpt lat="44.25634431882625" lon="11.633539793210392"><ele>381.0</ele><time>2026-04-12T11:20:31.999Z</time></trkpt><trkpt lat="44.25641216670187" lon="11.633555169629446"><ele>381.0</ele><time>2026-04-12T11:20:33.999Z</time></trkpt><trkpt lat="44.25648527677017" lon="11.633489097803457"><ele>381.0</ele><time>2026-04-12T11:20:36.999Z</time></trkpt><trkpt lat="44.256541747708354" lon="11.63343589111452"><ele>381.0</ele><time>2026-04-12T11:20:40Z</time></trkpt><trkpt lat="44.25662498670917" lon="11.633448485869796"><ele>381.0</ele><time>2026-04-12T11:20:43Z</time></trkpt><trkpt lat="44.25670682922382" lon="11.63345388098146"><ele>381.0</ele><time>2026-04-12T11:20:46Z</time></trkpt><trkpt lat="44.25677593496172" lon="11.633431764182667"><ele>382.3333333333333</ele><time>2026-04-12T11:20:48Z</time></trkpt><trkpt lat="44.25687356720142" lon="11.633456266556708"><ele>383.66666666666663</ele><time>2026-04-12T11:20:50Z</time></trkpt><trkpt lat="44.256965487063596" lon="11.633483387229953"><ele>385.0</ele><time>2026-04-12T11:20:52Z</time></trkpt><trkpt lat="44.25702993665069" lon="11.63348701678061"><ele>386.3333333333333</ele><time>2026-04-12T11:20:54Z</time></trkpt><trkpt lat="44.257093215570606" lon="11.633487985260242"><ele>387.66666666666663</ele><time>2026-04-12T11:20:57Z</time></trkpt><trkpt lat="44.25716729000296" lon="11.633499839450236"><ele>389.0</ele><time>2026-04-12T11:21:00Z</time></trkpt><trkpt lat="44.25724112303415" lon="11.633530100898158"><ele>391.3333333333333</ele><time>2026-04-12T11:21:03Z</time></trkpt><trkpt lat="44.25733333259793" lon="11.63357469227465"><ele>393.66666666666663</ele><time>2026-04-12T11:21:07Z</time></trkpt><trkpt lat="44.25740029703331" lon="11.633626319270574"><ele>396.0</ele><time>2026-04-12T11:21:10Z</time></trkpt><trkpt lat="44.257466286449976" lon="11.633661004150367"><ele>398.33333333333337</ele><time>2026-04-12T11:21:13Z</time></trkpt><trkpt lat="44.257538334249745" lon="11.633702733407027"><ele>400.6666666666667</ele><time>2026-04-12T11:21:16Z</time></trkpt><trkpt lat="44.2576029976441" lon="11.633733691601755"><ele>403.0</ele><time>2026-04-12T11:21:19Z</time></trkpt><trkpt lat="44.25767884375817" lon="11.633773057674704"><ele>403.8571428571429</ele><time>2026-04-12T11:21:23Z</time></trkpt><trkpt lat="44.25775494304502" lon="11.633812607289283"><ele>404.71428571428567</ele><time>2026-04-12T11:21:27Z</time></trkpt><trkpt lat="44.25781472640169" lon="11.633844568675897"><ele>405.57142857142856</ele><time>2026-04-12T11:21:30Z</time></trkpt><trkpt lat="44.257890140601766" lon="11.63388779807657"><ele>406.42857142857144</ele><time>2026-04-12T11:21:33.999Z</time></trkpt><trkpt lat="44.25795276220411" lon="11.633946783236214"><ele>407.28571428571433</ele><time>2026-04-12T11:21:37.999Z</time></trkpt><trkpt lat="44.25799880288496" lon="11.634021348451318"><ele>408.1428571428571</ele><time>2026-04-12T11:21:41.999Z</time></trkpt><trkpt lat="44.258030623824325" lon="11.634107564443186"><ele>409.0</ele><time>2026-04-12T11:21:45.999Z</time></trkpt><trkpt lat="44.258063963027624" lon="11.634206625264037"><ele>409.0</ele><time>2026-04-12T11:21:49.999Z</time></trkpt><trkpt lat="44.25809338750779" lon="11.63430401910867"><ele>409.0</ele><time>2026-04-12T11:21:52.999Z</time></trkpt><trkpt lat="44.25812378373626" lon="11.63438544449766"><ele>409.0</ele><time>2026-04-12T11:21:54.999Z</time></trkpt><trkpt lat="44.25817543873538" lon="11.634462110848236"><ele>409.0</ele><time>2026-04-12T11:21:56.999Z</time></trkpt><trkpt lat="44.258248999451794" lon="11.634502070259858"><ele>409.0</ele><time>2026-04-12T11:22:00.999Z</time></trkpt><trkpt lat="44.25831458666393" lon="11.634522901327166"><ele>409.0</ele><time>2026-04-12T11:22:03.999Z</time></trkpt><trkpt lat="44.258383397239385" lon="11.63450654924318"><ele>409.0</ele><time>2026-04-12T11:22:05.999Z</time></trkpt><trkpt lat="44.258480629072885" lon="11.634501437209089"><ele>409.83333333333337</ele><time>2026-04-12T11:22:07.999Z</time></trkpt><trkpt lat="44.25859829984557" lon="11.63450462238804"><ele>410.6666666666667</ele><time>2026-04-12T11:22:09.999Z</time></trkpt><trkpt lat="44.258668328067756" lon="11.634552277053897"><ele>411.5</ele><time>2026-04-12T11:22:10.999Z</time></trkpt><trkpt lat="44.25873760225766" lon="11.634519045384652"><ele>412.33333333333337</ele><time>2026-04-12T11:22:11.999Z</time></trkpt><trkpt lat="44.25880538100533" lon="11.634547406329006"><ele>413.1666666666667</ele><time>2026-04-12T11:22:12.999Z</time></trkpt><trkpt lat="44.25888657590213" lon="11.634583749827428"><ele>414.0</ele><time>2026-04-12T11:22:13.999Z</time></trkpt><trkpt lat="44.258959853313634" lon="11.63460801601936"><ele>414.0</ele><time>2026-04-12T11:22:14.999Z</time></trkpt><trkpt lat="44.259028105274524" lon="11.634626288370848"><ele>414.0</ele><time>2026-04-12T11:22:15.999Z</time></trkpt><trkpt lat="44.259094579637065" lon="11.634653070216"><ele>414.0</ele><time>2026-04-12T11:22:16.999Z</time></trkpt><trkpt lat="44.25917171157121" lon="11.634694516853873"><ele>414.0</ele><time>2026-04-12T11:22:17.999Z</time></trkpt><trkpt lat="44.25924841046368" lon="11.634749859320879"><ele>414.0</ele><time>2026-04-12T11:22:18.999Z</time></trkpt><trkpt lat="44.259311063074215" lon="11.63482066729459"><ele>414.0</ele><time>2026-04-12T11:22:19.999Z</time></trkpt><trkpt lat="44.25938854902585" lon="11.634885500547451"><ele>414.0</ele><time>2026-04-12T11:22:20.999Z</time></trkpt><trkpt lat="44.25946382805366" lon="11.634954585255207"><ele>414.0</ele><time>2026-04-12T11:22:21.999Z</time></trkpt><trkpt lat="44.25951737811136" lon="11.635033764631311"><ele>414.0</ele><time>2026-04-12T11:22:22.999Z</time></trkpt><trkpt lat="44.25956768110722" lon="11.635129332311276"><ele>414.0</ele><time>2026-04-12T11:22:23.999Z</time></trkpt><trkpt lat="44.25961537732942" lon="11.635217550445274"><ele>414.0</ele><time>2026-04-12T11:22:24.999Z</time></trkpt><trkpt lat="44.259651979938845" lon="11.635315502669998"><ele>414.0</ele><time>2026-04-12T11:22:25.999Z</time></trkpt><trkpt lat="44.25971858891118" lon="11.635429893650421"><ele>412.3333333333333</ele><time>2026-04-12T11:22:26.999Z</time></trkpt><trkpt lat="44.25978771057032" lon="11.635515650304574"><ele>410.66666666666663</ele><time>2026-04-12T11:22:27.999Z</time></trkpt><trkpt lat="44.25982937219324" lon="11.63558973190159"><ele>409.0</ele><time>2026-04-12T11:22:28.999Z</time></trkpt><trkpt lat="44.25991155129599" lon="11.635615355360159"><ele>407.3333333333333</ele><time>2026-04-12T11:22:30.999Z</time></trkpt><trkpt lat="44.259985409016096" lon="11.63560428824199"><ele>405.66666666666663</ele><time>2026-04-12T11:22:31.999Z</time></trkpt><trkpt lat="44.26005898763283" lon="11.635616535297295"><ele>404.0</ele><time>2026-04-12T11:22:32.999Z</time></trkpt><trkpt lat="44.260212864349924" lon="11.635554506507079"><ele>404.0</ele><time>2026-04-12T11:22:34.999Z</time></trkpt><trkpt lat="44.26028526133314" lon="11.635474766129057"><ele>404.0</ele><time>2026-04-12T11:22:35.999Z</time></trkpt><trkpt lat="44.26038491187582" lon="11.635363243650515"><ele>404.0</ele><time>2026-04-12T11:22:36.999Z</time></trkpt><trkpt lat="44.260450858769126" lon="11.635258929144038"><ele>404.0</ele><time>2026-04-12T11:22:37.999Z</time></trkpt><trkpt lat="44.26049921869096" lon="11.635160114532457"><ele>404.0</ele><time>2026-04-12T11:22:38.999Z</time></trkpt><trkpt lat="44.26049861120198" lon="11.635065659830792"><ele>404.49999999999994</ele><time>2026-04-12T11:22:39.999Z</time></trkpt><trkpt lat="44.260514488442716" lon="11.634943571336754"><ele>405.0</ele><time>2026-04-12T11:22:40.999Z</time></trkpt><trkpt lat="44.26052159499997" lon="11.63481699369334"><ele>405.5</ele><time>2026-04-12T11:22:41.999Z</time></trkpt><trkpt lat="44.260514730480466" lon="11.634701581428958"><ele>406.0</ele><time>2026-04-12T11:22:42.999Z</time></trkpt><trkpt lat="44.260519137017006" lon="11.634594753961965"><ele>406.49999999999994</ele><time>2026-04-12T11:22:43.999Z</time></trkpt><trkpt lat="44.26055735586448" lon="11.634504276312219"><ele>407.0</ele><time>2026-04-12T11:22:45Z</time></trkpt><trkpt lat="44.26063902513808" lon="11.634406642849171"><ele>404.99999999999994</ele><time>2026-04-12T11:22:47Z</time></trkpt><trkpt lat="44.26069073610532" lon="11.634329491074464"><ele>403.0</ele><time>2026-04-12T11:22:49Z</time></trkpt><trkpt lat="44.26072712865098" lon="11.634246011487228"><ele>401.0</ele><time>2026-04-12T11:22:51Z</time></trkpt><trkpt lat="44.260756247869985" lon="11.63410951571116"><ele>399.0</ele><time>2026-04-12T11:22:54Z</time></trkpt><trkpt lat="44.2607724743932" lon="11.634015367733976"><ele>396.99999999999994</ele><time>2026-04-12T11:22:56Z</time></trkpt><trkpt lat="44.260790255402505" lon="11.633884219378206"><ele>395.0</ele><time>2026-04-12T11:22:59Z</time></trkpt><trkpt lat="44.26080434788172" lon="11.633790306641984"><ele>394.99999999999994</ele><time>2026-04-12T11:23:01Z</time></trkpt><trkpt lat="44.260801421915424" lon="11.633681632427157"><ele>395.0</ele><time>2026-04-12T11:23:04Z</time></trkpt><trkpt lat="44.2608006669492" lon="11.633593567503508"><ele>395.0</ele><time>2026-04-12T11:23:06Z</time></trkpt><trkpt lat="44.26083378798603" lon="11.633480893656861"><ele>395.0</ele><time>2026-04-12T11:23:09Z</time></trkpt><trkpt lat="44.26087635200279" lon="11.633386596016429"><ele>394.99999999999994</ele><time>2026-04-12T11:23:12Z</time></trkpt><trkpt lat="44.2609537305914" lon="11.633257996144208"><ele>395.0</ele><time>2026-04-12T11:23:14Z</time></trkpt><trkpt lat="44.261029334506155" lon="11.633122574261655"><ele>393.7142857142857</ele><time>2026-04-12T11:23:16Z</time></trkpt><trkpt lat="44.26107257903772" lon="11.633055197200006"><ele>392.42857142857144</ele><time>2026-04-12T11:23:17Z</time></trkpt><trkpt lat="44.26111954630354" lon="11.632995199107489"><ele>391.14285714285717</ele><time>2026-04-12T11:23:18Z</time></trkpt><trkpt lat="44.26123588936995" lon="11.632933015382955"><ele>389.8571428571429</ele><time>2026-04-12T11:23:20Z</time></trkpt><trkpt lat="44.26129402445847" lon="11.632894955380161"><ele>388.57142857142856</ele><time>2026-04-12T11:23:21Z</time></trkpt><trkpt lat="44.26135858164438" lon="11.632883668946707"><ele>387.28571428571433</ele><time>2026-04-12T11:23:22Z</time></trkpt><trkpt lat="44.261419589934505" lon="11.632907051391031"><ele>386.0</ele><time>2026-04-12T11:23:23Z</time></trkpt><trkpt lat="44.26148231898598" lon="11.632916610564024"><ele>386.0</ele><time>2026-04-12T11:23:24Z</time></trkpt><trkpt lat="44.26157715790307" lon="11.632827850553044"><ele>386.0</ele><time>2026-04-12T11:23:25.999Z</time></trkpt><trkpt lat="44.261648972851056" lon="11.632743401204525"><ele>386.0</ele><time>2026-04-12T11:23:27.999Z</time></trkpt><trkpt lat="44.26166087197983" lon="11.632618729739233"><ele>386.0</ele><time>2026-04-12T11:23:29.999Z</time></trkpt><trkpt lat="44.2616431036327" lon="11.6324915366243"><ele>386.0</ele><time>2026-04-12T11:23:31.999Z</time></trkpt><trkpt lat="44.261628217149074" lon="11.6323901448393"><ele>389.20000000000005</ele><time>2026-04-12T11:23:33.999Z</time></trkpt><trkpt lat="44.26159907841797" lon="11.632246417872308"><ele>392.40000000000003</ele><time>2026-04-12T11:23:35.999Z</time></trkpt><trkpt lat="44.261599002391534" lon="11.632144181425442"><ele>395.6</ele><time>2026-04-12T11:23:36.999Z</time></trkpt><trkpt lat="44.261622374270296" lon="11.63203489114168"><ele>398.8</ele><time>2026-04-12T11:23:37.999Z</time></trkpt><trkpt lat="44.261631711247176" lon="11.631935547149782"><ele>402.0</ele><time>2026-04-12T11:23:38.999Z</time></trkpt><trkpt lat="44.26164040248281" lon="11.631754124432616"><ele>403.1428571428571</ele><time>2026-04-12T11:23:40.999Z</time></trkpt><trkpt lat="44.261652037611206" lon="11.63165380522235"><ele>404.28571428571433</ele><time>2026-04-12T11:23:41.999Z</time></trkpt><trkpt lat="44.261680656814676" lon="11.63156995493129"><ele>405.42857142857144</ele><time>2026-04-12T11:23:42.999Z</time></trkpt><trkpt lat="44.261751435433524" lon="11.631504721155206"><ele>406.57142857142856</ele><time>2026-04-12T11:23:44.999Z</time></trkpt><trkpt lat="44.26181296807258" lon="11.631452824290768"><ele>407.71428571428567</ele><time>2026-04-12T11:23:46.999Z</time></trkpt><trkpt lat="44.261884230175006" lon="11.631438975505587"><ele>408.8571428571429</ele><time>2026-04-12T11:23:48.999Z</time></trkpt><trkpt lat="44.2619543105616" lon="11.631396903242832"><ele>410.0</ele><time>2026-04-12T11:23:51.999Z</time></trkpt><trkpt lat="44.26204027113168" lon="11.631378512916548"><ele>410.0</ele><time>2026-04-12T11:23:53.999Z</time></trkpt><trkpt lat="44.262155680160866" lon="11.6313258085688"><ele>410.0</ele><time>2026-04-12T11:23:56.999Z</time></trkpt><trkpt lat="44.262286524718576" lon="11.631313385722642"><ele>410.0</ele><time>2026-04-12T11:23:58.999Z</time></trkpt><trkpt lat="44.2623637681501" lon="11.631295558958985"><ele>410.0</ele><time>2026-04-12T11:23:59.999Z</time></trkpt><trkpt lat="44.26244628194997" lon="11.631288601728063"><ele>410.0</ele><time>2026-04-12T11:24:00.999Z</time></trkpt><trkpt lat="44.26250893409792" lon="11.631269351754062"><ele>408.2</ele><time>2026-04-12T11:24:01.999Z</time></trkpt><trkpt lat="44.262600765991536" lon="11.63119705407659"><ele>406.4</ele><time>2026-04-12T11:24:03.999Z</time></trkpt><trkpt lat="44.262649281480094" lon="11.631140608828002"><ele>404.6</ele><time>2026-04-12T11:24:04.999Z</time></trkpt><trkpt lat="44.26271470584519" lon="11.631032613752827"><ele>402.8</ele><time>2026-04-12T11:24:05.999Z</time></trkpt><trkpt lat="44.26276963465949" lon="11.630909968542143"><ele>401.0</ele><time>2026-04-12T11:24:06.999Z</time></trkpt><trkpt lat="44.26281761892856" lon="11.630793668036045"><ele>399.6</ele><time>2026-04-12T11:24:07.999Z</time></trkpt><trkpt lat="44.26287121334505" lon="11.630680490997308"><ele>398.20000000000005</ele><time>2026-04-12T11:24:08.999Z</time></trkpt><trkpt lat="44.262953194617964" lon="11.630611986666334"><ele>396.79999999999995</ele><time>2026-04-12T11:24:09.999Z</time></trkpt><trkpt lat="44.26303944357491" lon="11.630603672611551"><ele>395.4</ele><time>2026-04-12T11:24:10.999Z</time></trkpt><trkpt lat="44.26312924710489" lon="11.63053402327579"><ele>394.0</ele><time>2026-04-12T11:24:11.999Z</time></trkpt><trkpt lat="44.263213372556685" lon="11.630483466487451"><ele>394.0</ele><time>2026-04-12T11:24:12.999Z</time></trkpt><trkpt lat="44.26331534535853" lon="11.630451410793908"><ele>394.0</ele><time>2026-04-12T11:24:13.999Z</time></trkpt><trkpt lat="44.26341121493434" lon="11.63039241314704"><ele>394.0</ele><time>2026-04-12T11:24:14.999Z</time></trkpt><trkpt lat="44.26349914407735" lon="11.630345756143578"><ele>394.0</ele><time>2026-04-12T11:24:15.999Z</time></trkpt><trkpt lat="44.26360031155225" lon="11.630299143217428"><ele>394.0</ele><time>2026-04-12T11:24:16.999Z</time></trkpt><trkpt lat="44.26369187614693" lon="11.630293082854267"><ele>394.00000000000006</ele><time>2026-04-12T11:24:17.999Z</time></trkpt><trkpt lat="44.26378026037932" lon="11.630314330633702"><ele>394.0</ele><time>2026-04-12T11:24:18.999Z</time></trkpt><trkpt lat="44.263877834020924" lon="11.630319394072929"><ele>394.0</ele><time>2026-04-12T11:24:19.999Z</time></trkpt><trkpt lat="44.26395056017564" lon="11.630314663834499"><ele>394.0</ele><time>2026-04-12T11:24:20.999Z</time></trkpt><trkpt lat="44.26402825752904" lon="11.630245609423355"><ele>394.00000000000006</ele><time>2026-04-12T11:24:22.999Z</time></trkpt><trkpt lat="44.26408597284638" lon="11.630165363571633"><ele>394.0</ele><time>2026-04-12T11:24:23.999Z</time></trkpt><trkpt lat="44.26409255820488" lon="11.630006595029354"><ele>392.6</ele><time>2026-04-12T11:24:25.999Z</time></trkpt><trkpt lat="44.26412421003298" lon="11.629917418181321"><ele>391.2</ele><time>2026-04-12T11:24:26.999Z</time></trkpt><trkpt lat="44.26416646361153" lon="11.629842101917964"><ele>389.8</ele><time>2026-04-12T11:24:27.999Z</time></trkpt><trkpt lat="44.264238078364805" lon="11.629712231518539"><ele>388.40000000000003</ele><time>2026-04-12T11:24:29.999Z</time></trkpt><trkpt lat="44.26424817057254" lon="11.62955797952988"><ele>387.0</ele><time>2026-04-12T11:24:31.999Z</time></trkpt><trkpt lat="44.26415019737677" lon="11.629521688307765"><ele>387.1666666666667</ele><time>2026-04-12T11:24:33.999Z</time></trkpt><trkpt lat="44.2641065689825" lon="11.629442567602862"><ele>387.33333333333337</ele><time>2026-04-12T11:24:35.999Z</time></trkpt><trkpt lat="44.264114000483374" lon="11.629245541408732"><ele>387.5</ele><time>2026-04-12T11:24:37.999Z</time></trkpt><trkpt lat="44.26413195597119" lon="11.629127015603956"><ele>387.6666666666667</ele><time>2026-04-12T11:24:38.999Z</time></trkpt><trkpt lat="44.26417462766846" lon="11.629031462008442"><ele>387.83333333333337</ele><time>2026-04-12T11:24:39.999Z</time></trkpt><trkpt lat="44.264200403382596" lon="11.628942233227313"><ele>388.0</ele><time>2026-04-12T11:24:40.999Z</time></trkpt><trkpt lat="44.26422626240136" lon="11.628847598232777"><ele>388.00000000000006</ele><time>2026-04-12T11:24:41.999Z</time></trkpt><trkpt lat="44.264267631791" lon="11.628749370568908"><ele>388.0</ele><time>2026-04-12T11:24:42.999Z</time></trkpt><trkpt lat="44.2643104300744" lon="11.6286413957437"><ele>388.0</ele><time>2026-04-12T11:24:43.999Z</time></trkpt><trkpt lat="44.26436762901273" lon="11.628540108399742"><ele>388.0</ele><time>2026-04-12T11:24:44.999Z</time></trkpt><trkpt lat="44.26442300005209" lon="11.628444827124053"><ele>388.00000000000006</ele><time>2026-04-12T11:24:45.999Z</time></trkpt><trkpt lat="44.264464098746686" lon="11.628341276616705"><ele>388.0</ele><time>2026-04-12T11:24:46.999Z</time></trkpt><trkpt lat="44.26452012857706" lon="11.62825374046398"><ele>388.4</ele><time>2026-04-12T11:24:47.999Z</time></trkpt><trkpt lat="44.264575827916666" lon="11.628190077508624"><ele>388.79999999999995</ele><time>2026-04-12T11:24:48.999Z</time></trkpt><trkpt lat="44.26458220568764" lon="11.62802628010656"><ele>389.2</ele><time>2026-04-12T11:24:51Z</time></trkpt><trkpt lat="44.26456058198596" lon="11.627910932490986"><ele>389.6</ele><time>2026-04-12T11:24:53Z</time></trkpt><trkpt lat="44.264583373047586" lon="11.627780634693396"><ele>390.0</ele><time>2026-04-12T11:24:55Z</time></trkpt><trkpt lat="44.26460088322364" lon="11.627662851698597"><ele>391.6</ele><time>2026-04-12T11:24:57Z</time></trkpt><trkpt lat="44.26461073469474" lon="11.62752441317248"><ele>393.2</ele><time>2026-04-12T11:24:59Z</time></trkpt><trkpt lat="44.26465571095266" lon="11.627347650553883"><ele>394.79999999999995</ele><time>2026-04-12T11:25:01Z</time></trkpt><trkpt lat="44.264713075921705" lon="11.627264060243538"><ele>396.4</ele><time>2026-04-12T11:25:02Z</time></trkpt><trkpt lat="44.26475045098207" lon="11.62715935970869"><ele>398.0</ele><time>2026-04-12T11:25:03Z</time></trkpt><trkpt lat="44.26478643405879" lon="11.627043302866817"><ele>393.3333333333333</ele><time>2026-04-12T11:25:04Z</time></trkpt><trkpt lat="44.26481758973457" lon="11.626926027184718"><ele>388.66666666666663</ele><time>2026-04-12T11:25:05Z</time></trkpt><trkpt lat="44.264863908142935" lon="11.626792207503712"><ele>384.0</ele><time>2026-04-12T11:25:06Z</time></trkpt><trkpt lat="44.264909464754574" lon="11.62668951604193"><ele>379.3333333333333</ele><time>2026-04-12T11:25:07Z</time></trkpt><trkpt lat="44.26494964351557" lon="11.626595026247855"><ele>374.66666666666663</ele><time>2026-04-12T11:25:08Z</time></trkpt><trkpt lat="44.2649762856346" lon="11.626482893448063"><ele>370.0</ele><time>2026-04-12T11:25:09Z</time></trkpt><trkpt lat="44.265005675199106" lon="11.62639138069566"><ele>370.0</ele><time>2026-04-12T11:25:10Z</time></trkpt><trkpt lat="44.265048449736895" lon="11.626265650430325"><ele>370.0</ele><time>2026-04-12T11:25:11Z</time></trkpt><trkpt lat="44.265063287517776" lon="11.626124097770123"><ele>370.0</ele><time>2026-04-12T11:25:12Z</time></trkpt><trkpt lat="44.265078296854384" lon="11.625990908583924"><ele>370.0</ele><time>2026-04-12T11:25:13Z</time></trkpt><trkpt lat="44.26509204049237" lon="11.625890595472976"><ele>370.0</ele><time>2026-04-12T11:25:14Z</time></trkpt><trkpt lat="44.26512654840226" lon="11.62580918231975"><ele>370.0</ele><time>2026-04-12T11:25:15Z</time></trkpt><trkpt lat="44.265189367410706" lon="11.625723648766623"><ele>371.8</ele><time>2026-04-12T11:25:16Z</time></trkpt><trkpt lat="44.26528277454754" lon="11.625614485007832"><ele>373.6</ele><time>2026-04-12T11:25:18Z</time></trkpt><trkpt lat="44.2653498624242" lon="11.625525751878953"><ele>375.4</ele><time>2026-04-12T11:25:19Z</time></trkpt><trkpt lat="44.26538881682346" lon="11.625388808964438"><ele>377.2</ele><time>2026-04-12T11:25:20Z</time></trkpt><trkpt lat="44.26543564269652" lon="11.625288048101236"><ele>379.0</ele><time>2026-04-12T11:25:21Z</time></trkpt><trkpt lat="44.26551008130385" lon="11.625250024750617"><ele>381.0</ele><time>2026-04-12T11:25:22Z</time></trkpt><trkpt lat="44.26559094089182" lon="11.625233669285318"><ele>383.0</ele><time>2026-04-12T11:25:23Z</time></trkpt><trkpt lat="44.26565251164366" lon="11.625202616226446"><ele>385.0</ele><time>2026-04-12T11:25:24Z</time></trkpt><trkpt lat="44.26574758701209" lon="11.62513973665708"><ele>387.0</ele><time>2026-04-12T11:25:25Z</time></trkpt><trkpt lat="44.26582936360576" lon="11.62506967877385"><ele>389.0</ele><time>2026-04-12T11:25:26Z</time></trkpt><trkpt lat="44.26591948236545" lon="11.624997640629593"><ele>384.3333333333333</ele><time>2026-04-12T11:25:27Z</time></trkpt><trkpt lat="44.2659876886321" lon="11.624962593232345"><ele>379.66666666666663</ele><time>2026-04-12T11:25:28Z</time></trkpt><trkpt lat="44.266084147666646" lon="11.624950947462743"><ele>375.0</ele><time>2026-04-12T11:25:29Z</time></trkpt><trkpt lat="44.266167039314034" lon="11.624902173818622"><ele>370.3333333333333</ele><time>2026-04-12T11:25:30Z</time></trkpt><trkpt lat="44.26624690469302" lon="11.624823270094803"><ele>365.66666666666663</ele><time>2026-04-12T11:25:31Z</time></trkpt><trkpt lat="44.26632249818151" lon="11.624775146740811"><ele>361.0</ele><time>2026-04-12T11:25:32Z</time></trkpt><trkpt lat="44.26640134681532" lon="11.624720522413702"><ele>360.0</ele><time>2026-04-12T11:25:33Z</time></trkpt><trkpt lat="44.26648940389327" lon="11.624658293378419"><ele>359.0</ele><time>2026-04-12T11:25:34Z</time></trkpt><trkpt lat="44.26664489947367" lon="11.62456221178374"><ele>358.0</ele><time>2026-04-12T11:25:36Z</time></trkpt><trkpt lat="44.26676594185677" lon="11.624436720961349"><ele>357.0</ele><time>2026-04-12T11:25:37Z</time></trkpt><trkpt lat="44.26685539177117" lon="11.624364873822609"><ele>357.0</ele><time>2026-04-12T11:25:40Z</time></trkpt><trkpt lat="44.26701903574086" lon="11.624359948299047"><ele>357.0</ele><time>2026-04-12T11:25:42Z</time></trkpt><trkpt lat="44.26708768580028" lon="11.624382496256965"><ele>357.0</ele><time>2026-04-12T11:25:43Z</time></trkpt><trkpt lat="44.26722924320915" lon="11.624445441833467"><ele>357.0</ele><time>2026-04-12T11:25:44Z</time></trkpt><trkpt lat="44.26744717064281" lon="11.624439410977057"><ele>352.0</ele><time>2026-04-12T11:25:46Z</time></trkpt><trkpt lat="44.26761077280156" lon="11.62446103202284"><ele>347.0</ele><time>2026-04-12T11:25:47.999Z</time></trkpt><trkpt lat="44.267716079292455" lon="11.624414183962793"><ele>342.0</ele><time>2026-04-12T11:25:49.999Z</time></trkpt><trkpt lat="44.267764625075266" lon="11.624330857374765"><ele>337.0</ele><time>2026-04-12T11:25:50.999Z</time></trkpt><trkpt lat="44.26786885875549" lon="11.624273617847713"><ele>337.0</ele><time>2026-04-12T11:25:52.999Z</time></trkpt><trkpt lat="44.267932007099226" lon="11.624318900642644"><ele>337.0</ele><time>2026-04-12T11:25:55.999Z</time></trkpt><trkpt lat="44.2679884823135" lon="11.624392816480764"><ele>337.0</ele><time>2026-04-12T11:25:56.999Z</time></trkpt><trkpt lat="44.26808694062703" lon="11.624495922061662"><ele>337.0</ele><time>2026-04-12T11:25:58.999Z</time></trkpt><trkpt lat="44.26822395137168" lon="11.624385461772833"><ele>337.0</ele><time>2026-04-12T11:26:02.999Z</time></trkpt><trkpt lat="44.268256559128965" lon="11.624289825234252"><ele>332.5</ele><time>2026-04-12T11:26:03.999Z</time></trkpt><trkpt lat="44.268261390726465" lon="11.624178932927775"><ele>328.0</ele><time>2026-04-12T11:26:04.999Z</time></trkpt><trkpt lat="44.26826971298824" lon="11.624059541950531"><ele>323.5</ele><time>2026-04-12T11:26:05.999Z</time></trkpt><trkpt lat="44.26825462400199" lon="11.62395102901703"><ele>319.0</ele><time>2026-04-12T11:26:06.999Z</time></trkpt><trkpt lat="44.26823746015037" lon="11.623844912110348"><ele>314.5</ele><time>2026-04-12T11:26:07.999Z</time></trkpt><trkpt lat="44.26818997960344" lon="11.623756883598514"><ele>310.0</ele><time>2026-04-12T11:26:08.999Z</time></trkpt><trkpt lat="44.268117806887794" lon="11.623697497512191"><ele>314.66666666666663</ele><time>2026-04-12T11:26:09.999Z</time></trkpt><trkpt lat="44.26808272424482" lon="11.623586894407909"><ele>319.3333333333333</ele><time>2026-04-12T11:26:10.999Z</time></trkpt><trkpt lat="44.26805926207361" lon="11.623479436806976"><ele>324.0</ele><time>2026-04-12T11:26:11.999Z</time></trkpt><trkpt lat="44.268020446147396" lon="11.623409514730481"><ele>328.6666666666667</ele><time>2026-04-12T11:26:12.999Z</time></trkpt><trkpt lat="44.26800783263866" lon="11.623310221835618"><ele>333.33333333333337</ele><time>2026-04-12T11:26:13.999Z</time></trkpt><trkpt lat="44.268028143139354" lon="11.62318951131574"><ele>338.0</ele><time>2026-04-12T11:26:14.999Z</time></trkpt><trkpt lat="44.268075201922414" lon="11.62306567810082"><ele>338.0</ele><time>2026-04-12T11:26:15.999Z</time></trkpt><trkpt lat="44.26809079344607" lon="11.62293574781818"><ele>338.0</ele><time>2026-04-12T11:26:16.999Z</time></trkpt><trkpt lat="44.26810401018364" lon="11.622799347285348"><ele>338.0</ele><time>2026-04-12T11:26:17.999Z</time></trkpt><trkpt lat="44.268136003100715" lon="11.622676898167855"><ele>338.0</ele><time>2026-04-12T11:26:18.999Z</time></trkpt><trkpt lat="44.268170021799996" lon="11.622542289120469"><ele>338.0</ele><time>2026-04-12T11:26:19.999Z</time></trkpt><trkpt lat="44.26819319630569" lon="11.622423030230767"><ele>335.33333333333337</ele><time>2026-04-12T11:26:20.999Z</time></trkpt><trkpt lat="44.268176063785695" lon="11.62229554850316"><ele>332.6666666666667</ele><time>2026-04-12T11:26:21.999Z</time></trkpt><trkpt lat="44.26816894144567" lon="11.622154711404482"><ele>330.0</ele><time>2026-04-12T11:26:22.999Z</time></trkpt><trkpt lat="44.26813738155431" lon="11.622053094845823"><ele>327.3333333333333</ele><time>2026-04-12T11:26:23.999Z</time></trkpt><trkpt lat="44.26811180044695" lon="11.621963809523722"><ele>324.66666666666663</ele><time>2026-04-12T11:26:24.999Z</time></trkpt><trkpt lat="44.26810534493734" lon="11.621873079849118"><ele>322.0</ele><time>2026-04-12T11:26:25.999Z</time></trkpt><trkpt lat="44.26814090685303" lon="11.62176214868681"><ele>314.6</ele><time>2026-04-12T11:26:26.999Z</time></trkpt><trkpt lat="44.268179171172974" lon="11.621671491421731"><ele>307.20000000000005</ele><time>2026-04-12T11:26:27.999Z</time></trkpt><trkpt lat="44.2681360141333" lon="11.621527618681917"><ele>299.8</ele><time>2026-04-12T11:26:29.999Z</time></trkpt><trkpt lat="44.26815103236621" lon="11.621349407065486"><ele>292.4</ele><time>2026-04-12T11:26:31.999Z</time></trkpt><trkpt lat="44.26814378041905" lon="11.621246656221583"><ele>285.0</ele><time>2026-04-12T11:26:32.999Z</time></trkpt><trkpt lat="44.26815508780764" lon="11.621147702430205"><ele>284.1666666666667</ele><time>2026-04-12T11:26:33.999Z</time></trkpt><trkpt lat="44.26815252843919" lon="11.621051076392252"><ele>283.3333333333333</ele><time>2026-04-12T11:26:34.999Z</time></trkpt><trkpt lat="44.268182018517514" lon="11.62089969556638"><ele>282.5</ele><time>2026-04-12T11:26:36.999Z</time></trkpt><trkpt lat="44.26819655203022" lon="11.62073409137633"><ele>281.66666666666663</ele><time>2026-04-12T11:26:38.999Z</time></trkpt><trkpt lat="44.268220478880124" lon="11.62064919433533"><ele>280.8333333333333</ele><time>2026-04-12T11:26:39.999Z</time></trkpt><trkpt lat="44.26823204761383" lon="11.620540577856872"><ele>280.0</ele><time>2026-04-12T11:26:40.999Z</time></trkpt><trkpt lat="44.26825448316076" lon="11.620443456483434"><ele>280.0</ele><time>2026-04-12T11:26:41.999Z</time></trkpt><trkpt lat="44.26827590636599" lon="11.62035034236314"><ele>280.0</ele><time>2026-04-12T11:26:43.999Z</time></trkpt><trkpt lat="44.26830324448069" lon="11.620200289927865"><ele>280.0</ele><time>2026-04-12T11:26:45.999Z</time></trkpt><trkpt lat="44.26833232754959" lon="11.62011763598925"><ele>280.0</ele><time>2026-04-12T11:26:46.999Z</time></trkpt><trkpt lat="44.26835455481286" lon="11.620018407757518"><ele>280.0</ele><time>2026-04-12T11:26:47.999Z</time></trkpt><trkpt lat="44.26840765284605" lon="11.619840475819823"><ele>280.0</ele><time>2026-04-12T11:26:49.999Z</time></trkpt><trkpt lat="44.268433606056995" lon="11.61972463170639"><ele>280.0</ele><time>2026-04-12T11:26:50.999Z</time></trkpt><trkpt lat="44.26845380833639" lon="11.619640406073305"><ele>280.0</ele><time>2026-04-12T11:26:51.999Z</time></trkpt><trkpt lat="44.268493251938054" lon="11.619523633529909"><ele>280.0</ele><time>2026-04-12T11:26:52.999Z</time></trkpt><trkpt lat="44.268507734124086" lon="11.619377394845467"><ele>280.0</ele><time>2026-04-12T11:26:53.999Z</time></trkpt><trkpt lat="44.26855355246193" lon="11.619280777341102"><ele>280.0</ele><time>2026-04-12T11:26:54.999Z</time></trkpt><trkpt lat="44.268566558846736" lon="11.619159834508782"><ele>280.0</ele><time>2026-04-12T11:26:55.999Z</time></trkpt><trkpt lat="44.26859312951186" lon="11.619023626064548"><ele>280.0</ele><time>2026-04-12T11:26:57Z</time></trkpt><trkpt lat="44.26862403420327" lon="11.618903544871394"><ele>280.0</ele><time>2026-04-12T11:26:58Z</time></trkpt><trkpt lat="44.26866034115293" lon="11.618760146943007"><ele>280.0</ele><time>2026-04-12T11:26:59Z</time></trkpt><trkpt lat="44.2687051989127" lon="11.618640912807331"><ele>280.0</ele><time>2026-04-12T11:27:00Z</time></trkpt><trkpt lat="44.26875708076614" lon="11.618507470854016"><ele>281.4</ele><time>2026-04-12T11:27:01Z</time></trkpt><trkpt lat="44.26877762722576" lon="11.618397829233247"><ele>282.8</ele><time>2026-04-12T11:27:02Z</time></trkpt><trkpt lat="44.26879421068332" lon="11.618306101005972"><ele>284.2</ele><time>2026-04-12T11:27:03Z</time></trkpt><trkpt lat="44.26886826371581" lon="11.618177054544972"><ele>285.6</ele><time>2026-04-12T11:27:04Z</time></trkpt><trkpt lat="44.26890407260912" lon="11.618056989587185"><ele>287.0</ele><time>2026-04-12T11:27:05Z</time></trkpt><trkpt lat="44.268942297440965" lon="11.617936773903018"><ele>281.5</ele><time>2026-04-12T11:27:06Z</time></trkpt><trkpt lat="44.268985042935896" lon="11.617798626830096"><ele>276.0</ele><time>2026-04-12T11:27:07Z</time></trkpt><trkpt lat="44.26901035134191" lon="11.617689893750486"><ele>270.5</ele><time>2026-04-12T11:27:08Z</time></trkpt><trkpt lat="44.26906591435639" lon="11.6176071147409"><ele>265.0</ele><time>2026-04-12T11:27:09Z</time></trkpt><trkpt lat="44.26913038664459" lon="11.617529761373616"><ele>259.5</ele><time>2026-04-12T11:27:10Z</time></trkpt><trkpt lat="44.2691739015655" lon="11.617436005032474"><ele>254.0</ele><time>2026-04-12T11:27:11Z</time></trkpt><trkpt lat="44.269228343845754" lon="11.617350640178218"><ele>254.00000000000003</ele><time>2026-04-12T11:27:12Z</time></trkpt><trkpt lat="44.26928476848604" lon="11.61725389704441"><ele>254.0</ele><time>2026-04-12T11:27:13Z</time></trkpt><trkpt lat="44.269343410784586" lon="11.617142460012886"><ele>254.0</ele><time>2026-04-12T11:27:14Z</time></trkpt><trkpt lat="44.26939762421831" lon="11.617053229280684"><ele>254.0</ele><time>2026-04-12T11:27:15Z</time></trkpt><trkpt lat="44.269447645778406" lon="11.616951220007959"><ele>254.00000000000003</ele><time>2026-04-12T11:27:16Z</time></trkpt><trkpt lat="44.26947392230009" lon="11.61683510440924"><ele>254.0</ele><time>2026-04-12T11:27:17Z</time></trkpt><trkpt lat="44.26949429129624" lon="11.616704007003177"><ele>256.4</ele><time>2026-04-12T11:27:18Z</time></trkpt><trkpt lat="44.26951652416786" lon="11.616569204236745"><ele>258.79999999999995</ele><time>2026-04-12T11:27:19Z</time></trkpt><trkpt lat="44.26955247496927" lon="11.616466944648224"><ele>261.20000000000005</ele><time>2026-04-12T11:27:20Z</time></trkpt><trkpt lat="44.269571888405416" lon="11.61634527400006"><ele>263.6</ele><time>2026-04-12T11:27:21Z</time></trkpt><trkpt lat="44.2695946532541" lon="11.61620625701216"><ele>266.0</ele><time>2026-04-12T11:27:22Z</time></trkpt><trkpt lat="44.26963682510206" lon="11.616081164577217"><ele>266.2</ele><time>2026-04-12T11:27:23Z</time></trkpt><trkpt lat="44.269673176655694" lon="11.615983265524578"><ele>266.40000000000003</ele><time>2026-04-12T11:27:24Z</time></trkpt><trkpt lat="44.26971409567427" lon="11.615884516906977"><ele>266.6</ele><time>2026-04-12T11:27:25Z</time></trkpt><trkpt lat="44.269751992395214" lon="11.615792427103216"><ele>266.8</ele><time>2026-04-12T11:27:26Z</time></trkpt><trkpt lat="44.26978389499785" lon="11.615694624733752"><ele>267.0</ele><time>2026-04-12T11:27:27Z</time></trkpt><trkpt lat="44.269900555531756" lon="11.615564898149023"><ele>261.0</ele><time>2026-04-12T11:27:29Z</time></trkpt><trkpt lat="44.26997890933358" lon="11.615505352952063"><ele>255.0</ele><time>2026-04-12T11:27:30Z</time></trkpt><trkpt lat="44.27004083574295" lon="11.615444786076464"><ele>249.0</ele><time>2026-04-12T11:27:31Z</time></trkpt><trkpt lat="44.270115438258486" lon="11.615414026986787"><ele>243.0</ele><time>2026-04-12T11:27:32Z</time></trkpt><trkpt lat="44.27022994223881" lon="11.615377780179362"><ele>237.0</ele><time>2026-04-12T11:27:33Z</time></trkpt><trkpt lat="44.270417553665766" lon="11.615371216127459"><ele>237.2</ele><time>2026-04-12T11:27:35Z</time></trkpt><trkpt lat="44.27039058641806" lon="11.615273199931142"><ele>237.39999999999998</ele><time>2026-04-12T11:27:37Z</time></trkpt><trkpt lat="44.27033078319846" lon="11.615199491440544"><ele>237.60000000000002</ele><time>2026-04-12T11:27:38Z</time></trkpt><trkpt lat="44.27026739973595" lon="11.615020605489127"><ele>237.8</ele><time>2026-04-12T11:27:39Z</time></trkpt><trkpt lat="44.27026352597922" lon="11.61483001060686"><ele>238.0</ele><time>2026-04-12T11:27:40Z</time></trkpt><trkpt lat="44.27022309416663" lon="11.614672483497811"><ele>238.0</ele><time>2026-04-12T11:27:41Z</time></trkpt><trkpt lat="44.27025798616937" lon="11.614534148824115"><ele>238.0</ele><time>2026-04-12T11:27:42Z</time></trkpt><trkpt lat="44.27029563113808" lon="11.614405746011045"><ele>238.0</ele><time>2026-04-12T11:27:43Z</time></trkpt><trkpt lat="44.2703495787741" lon="11.614202901250387"><ele>238.0</ele><time>2026-04-12T11:27:45Z</time></trkpt><trkpt lat="44.27035251914562" lon="11.614079527080433"><ele>238.0</ele><time>2026-04-12T11:27:46Z</time></trkpt><trkpt lat="44.27033693493318" lon="11.613964545018984"><ele>236.2</ele><time>2026-04-12T11:27:47Z</time></trkpt><trkpt lat="44.27034007103449" lon="11.613866439256523"><ele>234.4</ele><time>2026-04-12T11:27:48Z</time></trkpt><trkpt lat="44.27045326068674" lon="11.61378539762702"><ele>232.59999999999997</ele><time>2026-04-12T11:27:49Z</time></trkpt><trkpt lat="44.270483335220455" lon="11.613678520205122"><ele>230.79999999999998</ele><time>2026-04-12T11:27:50Z</time></trkpt><trkpt lat="44.27058097594936" lon="11.613533169684422"><ele>229.0</ele><time>2026-04-12T11:27:52Z</time></trkpt><trkpt lat="44.270664417092874" lon="11.613473013103711"><ele>224.39999999999998</ele><time>2026-04-12T11:27:53Z</time></trkpt><trkpt lat="44.270772574624246" lon="11.613413359198006"><ele>219.79999999999998</ele><time>2026-04-12T11:27:54Z</time></trkpt><trkpt lat="44.27084010372878" lon="11.613406144702125"><ele>215.2</ele><time>2026-04-12T11:27:55Z</time></trkpt><trkpt lat="44.27092838530063" lon="11.613454332657964"><ele>210.60000000000002</ele><time>2026-04-12T11:27:57Z</time></trkpt><trkpt lat="44.270916935624264" lon="11.613627364257333"><ele>206.0</ele><time>2026-04-12T11:27:58Z</time></trkpt><trkpt lat="44.27093091590742" lon="11.613735665626267"><ele>206.0</ele><time>2026-04-12T11:27:59Z</time></trkpt><trkpt lat="44.27095553573223" lon="11.613851224798465"><ele>206.0</ele><time>2026-04-12T11:28:00Z</time></trkpt><trkpt lat="44.27095965215927" lon="11.613972887417143"><ele>206.0</ele><time>2026-04-12T11:28:01Z</time></trkpt><trkpt lat="44.27098809935221" lon="11.614102633169745"><ele>206.0</ele><time>2026-04-12T11:28:02Z</time></trkpt><trkpt lat="44.27097386317761" lon="11.614240596667914"><ele>206.0</ele><time>2026-04-12T11:28:03Z</time></trkpt><trkpt lat="44.27096416346461" lon="11.614376659219756"><ele>206.00000000000003</ele><time>2026-04-12T11:28:04Z</time></trkpt><trkpt lat="44.27093246129324" lon="11.614487142180444"><ele>206.0</ele><time>2026-04-12T11:28:05Z</time></trkpt><trkpt lat="44.270962306778124" lon="11.614585422678395"><ele>206.0</ele><time>2026-04-12T11:28:06Z</time></trkpt><trkpt lat="44.271010326281804" lon="11.61468426567566"><ele>206.0</ele><time>2026-04-12T11:28:07Z</time></trkpt><trkpt lat="44.271070122808794" lon="11.61475579803796"><ele>206.00000000000003</ele><time>2026-04-12T11:28:08Z</time></trkpt><trkpt lat="44.27114805461797" lon="11.614842403131192"><ele>206.0</ele><time>2026-04-12T11:28:09Z</time></trkpt><trkpt lat="44.27119593394493" lon="11.6149494393097"><ele>206.33333333333334</ele><time>2026-04-12T11:28:10Z</time></trkpt><trkpt lat="44.271236507199" lon="11.615076608313222"><ele>206.66666666666669</ele><time>2026-04-12T11:28:11Z</time></trkpt><trkpt lat="44.27125653802401" lon="11.615202084396882"><ele>207.0</ele><time>2026-04-12T11:28:12Z</time></trkpt><trkpt lat="44.27126353395105" lon="11.615313232085906"><ele>207.33333333333331</ele><time>2026-04-12T11:28:13Z</time></trkpt><trkpt lat="44.27135034138118" lon="11.615367003853493"><ele>207.66666666666666</ele><time>2026-04-12T11:28:15Z</time></trkpt><trkpt lat="44.27140364495191" lon="11.615291212570348"><ele>208.0</ele><time>2026-04-12T11:28:15.999Z</time></trkpt><trkpt lat="44.27142575009527" lon="11.615187514733108"><ele>208.0</ele><time>2026-04-12T11:28:16.999Z</time></trkpt><trkpt lat="44.27143514962817" lon="11.615077499883501"><ele>208.0</ele><time>2026-04-12T11:28:17.999Z</time></trkpt><trkpt lat="44.271448741930314" lon="11.614951299291826"><ele>208.0</ele><time>2026-04-12T11:28:18.999Z</time></trkpt><trkpt lat="44.27145715309368" lon="11.614816340288675"><ele>208.0</ele><time>2026-04-12T11:28:19.999Z</time></trkpt><trkpt lat="44.27142996939567" lon="11.614662037604921"><ele>208.0</ele><time>2026-04-12T11:28:20.999Z</time></trkpt><trkpt lat="44.271416902551714" lon="11.61454426664147"><ele>207.60000000000002</ele><time>2026-04-12T11:28:21.999Z</time></trkpt><trkpt lat="44.27141081647298" lon="11.61441645159554"><ele>207.20000000000002</ele><time>2026-04-12T11:28:22.999Z</time></trkpt><trkpt lat="44.271415460590255" lon="11.614284439181601"><ele>206.8</ele><time>2026-04-12T11:28:23.999Z</time></trkpt><trkpt lat="44.27144426389178" lon="11.614169601183367"><ele>206.4</ele><time>2026-04-12T11:28:24.999Z</time></trkpt><trkpt lat="44.271481361562834" lon="11.614048902706356"><ele>206.0</ele><time>2026-04-12T11:28:25.999Z</time></trkpt><trkpt lat="44.2715169891402" lon="11.613928225083999"><ele>200.0</ele><time>2026-04-12T11:28:26.999Z</time></trkpt><trkpt lat="44.27156383513865" lon="11.613793203785407"><ele>194.0</ele><time>2026-04-12T11:28:27.999Z</time></trkpt><trkpt lat="44.27161072690293" lon="11.613710236712006"><ele>188.0</ele><time>2026-04-12T11:28:28.999Z</time></trkpt><trkpt lat="44.27166987847845" lon="11.61361318345434"><ele>182.0</ele><time>2026-04-12T11:28:29.999Z</time></trkpt><trkpt lat="44.27173089624483" lon="11.613498179154123"><ele>176.0</ele><time>2026-04-12T11:28:30.999Z</time></trkpt><trkpt lat="44.27178029843232" lon="11.613389854310888"><ele>175.5</ele><time>2026-04-12T11:28:31.999Z</time></trkpt><trkpt lat="44.27179982910492" lon="11.61326185197341"><ele>175.0</ele><time>2026-04-12T11:28:32.999Z</time></trkpt><trkpt lat="44.27180240293349" lon="11.613151060414385"><ele>174.5</ele><time>2026-04-12T11:28:33.999Z</time></trkpt><trkpt lat="44.27178988502907" lon="11.613006780976404"><ele>174.0</ele><time>2026-04-12T11:28:35.999Z</time></trkpt><trkpt lat="44.27187674600718" lon="11.613029763490283"><ele>173.5</ele><time>2026-04-12T11:28:36.999Z</time></trkpt><trkpt lat="44.271917684766045" lon="11.613097989511203"><ele>173.0</ele><time>2026-04-12T11:28:37.999Z</time></trkpt><trkpt lat="44.271921537090044" lon="11.613194940684355"><ele>173.0</ele><time>2026-04-12T11:28:38.999Z</time></trkpt><trkpt lat="44.27192367595779" lon="11.613304676685978"><ele>173.0</ele><time>2026-04-12T11:28:39.999Z</time></trkpt><trkpt lat="44.27192645610099" lon="11.613433359937938"><ele>173.0</ele><time>2026-04-12T11:28:40.999Z</time></trkpt><trkpt lat="44.27195085492261" lon="11.613550914945954"><ele>173.0</ele><time>2026-04-12T11:28:41.999Z</time></trkpt><trkpt lat="44.27195860075772" lon="11.61367600216328"><ele>173.0</ele><time>2026-04-12T11:28:42.999Z</time></trkpt><trkpt lat="44.27197435405069" lon="11.613802265758823"><ele>173.0</ele><time>2026-04-12T11:28:43.999Z</time></trkpt><trkpt lat="44.27198696380472" lon="11.613931558454036"><ele>173.60000000000002</ele><time>2026-04-12T11:28:44.999Z</time></trkpt><trkpt lat="44.27199481462473" lon="11.614068951328521"><ele>174.20000000000002</ele><time>2026-04-12T11:28:45.999Z</time></trkpt><trkpt lat="44.272012207456534" lon="11.614177014887755"><ele>174.8</ele><time>2026-04-12T11:28:46.999Z</time></trkpt><trkpt lat="44.2721000908074" lon="11.614263999261112"><ele>175.4</ele><time>2026-04-12T11:28:48.999Z</time></trkpt><trkpt lat="44.27215141955808" lon="11.614118433916147"><ele>176.0</ele><time>2026-04-12T11:28:50.999Z</time></trkpt><trkpt lat="44.27212976170968" lon="11.614020699927321"><ele>176.0</ele><time>2026-04-12T11:28:51.999Z</time></trkpt><trkpt lat="44.27210107675756" lon="11.613922036703372"><ele>176.0</ele><time>2026-04-12T11:28:52.999Z</time></trkpt><trkpt lat="44.27216545814257" lon="11.613820935142211"><ele>176.0</ele><time>2026-04-12T11:28:54.999Z</time></trkpt><trkpt lat="44.272212199874794" lon="11.61389544774435"><ele>176.0</ele><time>2026-04-12T11:28:55.999Z</time></trkpt><trkpt lat="44.27223986341819" lon="11.61399286473502"><ele>176.0</ele><time>2026-04-12T11:28:56.999Z</time></trkpt><trkpt lat="44.272272505671346" lon="11.614090500351033"><ele>176.0</ele><time>2026-04-12T11:28:57.999Z</time></trkpt><trkpt lat="44.27235225207159" lon="11.614411019692136"><ele>170.0</ele><time>2026-04-12T11:28:58.999Z</time></trkpt><trkpt lat="44.27241969342269" lon="11.61447574092818"><ele>164.0</ele><time>2026-04-12T11:28:59.999Z</time></trkpt><trkpt lat="44.27237086897775" lon="11.6145945620581"><ele>158.0</ele><time>2026-04-12T11:29:03Z</time></trkpt><trkpt lat="44.27259302756679" lon="11.614439058194355"><ele>152.0</ele><time>2026-04-12T11:29:06Z</time></trkpt><trkpt lat="44.272624201966636" lon="11.614322547365123"><ele>150.79999999999998</ele><time>2026-04-12T11:29:07Z</time></trkpt><trkpt lat="44.27262879527252" lon="11.614194908951678"><ele>149.6</ele><time>2026-04-12T11:29:08Z</time></trkpt><trkpt lat="44.272613817389384" lon="11.61406152166294"><ele>148.39999999999998</ele><time>2026-04-12T11:29:09Z</time></trkpt><trkpt lat="44.27258590981396" lon="11.613930231067346"><ele>147.2</ele><time>2026-04-12T11:29:10Z</time></trkpt><trkpt lat="44.272579225647256" lon="11.613793378110115"><ele>146.0</ele><time>2026-04-12T11:29:11Z</time></trkpt><trkpt lat="44.27259853988847" lon="11.613669150680995"><ele>146.0</ele><time>2026-04-12T11:29:12Z</time></trkpt><trkpt lat="44.272635996610695" lon="11.613590931465076"><ele>146.0</ele><time>2026-04-12T11:29:13Z</time></trkpt><trkpt lat="44.27272619500698" lon="11.613633912137617"><ele>146.0</ele><time>2026-04-12T11:29:15Z</time></trkpt><trkpt lat="44.27277057527217" lon="11.613718227014674"><ele>146.0</ele><time>2026-04-12T11:29:16Z</time></trkpt><trkpt lat="44.27281597396884" lon="11.613840522837485"><ele>146.0</ele><time>2026-04-12T11:29:17Z</time></trkpt><trkpt lat="44.27286128733528" lon="11.613958321477169"><ele>146.0</ele><time>2026-04-12T11:29:18Z</time></trkpt><trkpt lat="44.272906206876314" lon="11.614062513031046"><ele>146.0</ele><time>2026-04-12T11:29:19Z</time></trkpt><trkpt lat="44.27296826131298" lon="11.614161596882045"><ele>146.0</ele><time>2026-04-12T11:29:20Z</time></trkpt><trkpt lat="44.27304330494363" lon="11.61423565116125"><ele>146.0</ele><time>2026-04-12T11:29:21Z</time></trkpt><trkpt lat="44.27311394096627" lon="11.614318825906995"><ele>146.0</ele><time>2026-04-12T11:29:22Z</time></trkpt><trkpt lat="44.2731798872754" lon="11.614376113901034"><ele>146.0</ele><time>2026-04-12T11:29:23Z</time></trkpt><trkpt lat="44.27324732871885" lon="11.614408231997082"><ele>146.0</ele><time>2026-04-12T11:29:24Z</time></trkpt><trkpt lat="44.27335146806095" lon="11.614395182823113"><ele>141.2</ele><time>2026-04-12T11:29:26Z</time></trkpt><trkpt lat="44.2733563824125" lon="11.61427275218348"><ele>136.39999999999998</ele><time>2026-04-12T11:29:28Z</time></trkpt><trkpt lat="44.273330683285735" lon="11.614145609492759"><ele>131.6</ele><time>2026-04-12T11:29:30Z</time></trkpt><trkpt lat="44.273421993639836" lon="11.614021677177846"><ele>126.8</ele><time>2026-04-12T11:29:32Z</time></trkpt><trkpt lat="44.273497452976436" lon="11.614031487502125"><ele>122.0</ele><time>2026-04-12T11:29:33Z</time></trkpt><trkpt lat="44.27356911734269" lon="11.614069264534287"><ele>122.0</ele><time>2026-04-12T11:29:34Z</time></trkpt><trkpt lat="44.27364312648187" lon="11.614059030997792"><ele>121.99999999999999</ele><time>2026-04-12T11:29:35Z</time></trkpt><trkpt lat="44.27371776072791" lon="11.614073740068175"><ele>121.99999999999999</ele><time>2026-04-12T11:29:36Z</time></trkpt><trkpt lat="44.273851873281956" lon="11.613985521399114"><ele>122.0</ele><time>2026-04-12T11:29:38Z</time></trkpt><trkpt lat="44.273911183991295" lon="11.613917539305525"><ele>122.0</ele><time>2026-04-12T11:29:39Z</time></trkpt><trkpt lat="44.273985526015416" lon="11.613825692649261"><ele>121.19999999999999</ele><time>2026-04-12T11:29:40Z</time></trkpt><trkpt lat="44.27407832061809" lon="11.613766019951226"><ele>120.39999999999999</ele><time>2026-04-12T11:29:41Z</time></trkpt><trkpt lat="44.274173492279" lon="11.613699920278172"><ele>119.60000000000001</ele><time>2026-04-12T11:29:42Z</time></trkpt><trkpt lat="44.27427239051681" lon="11.613655630653122"><ele>118.80000000000001</ele><time>2026-04-12T11:29:43Z</time></trkpt><trkpt lat="44.274373763617064" lon="11.613599140938065"><ele>118.0</ele><time>2026-04-12T11:29:44Z</time></trkpt><trkpt lat="44.27455048968544" lon="11.613569900494507"><ele>116.16666666666667</ele><time>2026-04-12T11:29:45Z</time></trkpt><trkpt lat="44.27456161153315" lon="11.613403513110587"><ele>114.33333333333334</ele><time>2026-04-12T11:29:46Z</time></trkpt><trkpt lat="44.274608275416526" lon="11.613305385497126"><ele>112.5</ele><time>2026-04-12T11:29:47Z</time></trkpt><trkpt lat="44.27464389871613" lon="11.6132062669086"><ele>110.66666666666666</ele><time>2026-04-12T11:29:48Z</time></trkpt><trkpt lat="44.274667604780326" lon="11.613105491045932"><ele>108.83333333333333</ele><time>2026-04-12T11:29:49Z</time></trkpt><trkpt lat="44.274726444227056" lon="11.613022752050897"><ele>107.0</ele><time>2026-04-12T11:29:50Z</time></trkpt><trkpt lat="44.27480793397415" lon="11.612922936369111"><ele>105.66666666666666</ele><time>2026-04-12T11:29:51Z</time></trkpt><trkpt lat="44.274857903398825" lon="11.61285692382023"><ele>104.33333333333333</ele><time>2026-04-12T11:29:52Z</time></trkpt><trkpt lat="44.274921280099335" lon="11.612750352712364"><ele>103.0</ele><time>2026-04-12T11:29:53Z</time></trkpt><trkpt lat="44.27498351383205" lon="11.612664772392852"><ele>101.66666666666666</ele><time>2026-04-12T11:29:54Z</time></trkpt><trkpt lat="44.27505507484737" lon="11.61257754478936"><ele>100.33333333333333</ele><time>2026-04-12T11:29:55Z</time></trkpt><trkpt lat="44.27513658536304" lon="11.612512731034352"><ele>99.0</ele><time>2026-04-12T11:29:56Z</time></trkpt><trkpt lat="44.27522601157351" lon="11.612476534510465"><ele>99.0</ele><time>2026-04-12T11:29:57Z</time></trkpt><trkpt lat="44.27531842299991" lon="11.612474273864672"><ele>99.0</ele><time>2026-04-12T11:29:58Z</time></trkpt><trkpt lat="44.27539752624172" lon="11.612504720802455"><ele>99.0</ele><time>2026-04-12T11:29:59Z</time></trkpt><trkpt lat="44.27548474445367" lon="11.61255860646171"><ele>99.0</ele><time>2026-04-12T11:30:00Z</time></trkpt><trkpt lat="44.27556255334635" lon="11.612619087675506"><ele>99.0</ele><time>2026-04-12T11:30:01Z</time></trkpt><trkpt lat="44.27562737263529" lon="11.612688433348282"><ele>99.0</ele><time>2026-04-12T11:30:02Z</time></trkpt><trkpt lat="44.27569106535354" lon="11.612761388837239"><ele>98.33333333333333</ele><time>2026-04-12T11:30:03Z</time></trkpt><trkpt lat="44.275747780567116" lon="11.612828733331964"><ele>97.66666666666667</ele><time>2026-04-12T11:30:04Z</time></trkpt><trkpt lat="44.2758027192728" lon="11.612905927079664"><ele>97.0</ele><time>2026-04-12T11:30:05Z</time></trkpt><trkpt lat="44.27585594705741" lon="11.61297989539986"><ele>96.33333333333334</ele><time>2026-04-12T11:30:06Z</time></trkpt><trkpt lat="44.275909405897956" lon="11.6130662982618"><ele>95.66666666666667</ele><time>2026-04-12T11:30:07Z</time></trkpt><trkpt lat="44.27596527214075" lon="11.613150302410261"><ele>95.0</ele><time>2026-04-12T11:30:08Z</time></trkpt><trkpt lat="44.27602883083155" lon="11.613222895621876"><ele>95.0</ele><time>2026-04-12T11:30:09Z</time></trkpt><trkpt lat="44.27610297788157" lon="11.613281957646278"><ele>95.0</ele><time>2026-04-12T11:30:10Z</time></trkpt><trkpt lat="44.27616780568588" lon="11.613340477079921"><ele>95.0</ele><time>2026-04-12T11:30:11Z</time></trkpt><trkpt lat="44.27622371625476" lon="11.613410829491798"><ele>95.0</ele><time>2026-04-12T11:30:12Z</time></trkpt><trkpt lat="44.27627766944445" lon="11.613475889767184"><ele>95.0</ele><time>2026-04-12T11:30:13Z</time></trkpt><trkpt lat="44.27633221063702" lon="11.613543857899618"><ele>95.0</ele><time>2026-04-12T11:30:14Z</time></trkpt><trkpt lat="44.27639338247225" lon="11.613608515108988"><ele>95.16666666666667</ele><time>2026-04-12T11:30:15Z</time></trkpt><trkpt lat="44.27645523375852" lon="11.613665585320433"><ele>95.33333333333334</ele><time>2026-04-12T11:30:16Z</time></trkpt><trkpt lat="44.27652032394661" lon="11.613724930098261"><ele>95.5</ele><time>2026-04-12T11:30:17Z</time></trkpt><trkpt lat="44.27658734489943" lon="11.613772021141438"><ele>95.66666666666667</ele><time>2026-04-12T11:30:18Z</time></trkpt><trkpt lat="44.27666150454755" lon="11.613804841533355"><ele>95.83333333333333</ele><time>2026-04-12T11:30:19Z</time></trkpt><trkpt lat="44.27673416879131" lon="11.613827349210707"><ele>96.0</ele><time>2026-04-12T11:30:20Z</time></trkpt><trkpt lat="44.27680932073774" lon="11.613827641487216"><ele>96.0</ele><time>2026-04-12T11:30:21Z</time></trkpt><trkpt lat="44.276885593060534" lon="11.613810772040813"><ele>96.0</ele><time>2026-04-12T11:30:22Z</time></trkpt><trkpt lat="44.276957911483976" lon="11.613767971643844"><ele>96.0</ele><time>2026-04-12T11:30:23Z</time></trkpt><trkpt lat="44.277029919119606" lon="11.613722619976128"><ele>96.0</ele><time>2026-04-12T11:30:24Z</time></trkpt><trkpt lat="44.277153179263834" lon="11.613642098489722"><ele>96.0</ele><time>2026-04-12T11:30:26Z</time></trkpt><trkpt lat="44.277230689016015" lon="11.613599239376192"><ele>95.33333333333333</ele><time>2026-04-12T11:30:27Z</time></trkpt><trkpt lat="44.27730375240594" lon="11.61356507761613"><ele>94.66666666666667</ele><time>2026-04-12T11:30:28Z</time></trkpt><trkpt lat="44.27737504302054" lon="11.613532281158857"><ele>94.0</ele><time>2026-04-12T11:30:29Z</time></trkpt><trkpt lat="44.27745083270842" lon="11.613490496950757"><ele>93.33333333333334</ele><time>2026-04-12T11:30:30Z</time></trkpt><trkpt lat="44.277527976159185" lon="11.613459119922338"><ele>92.66666666666667</ele><time>2026-04-12T11:30:31Z</time></trkpt><trkpt lat="44.27760431295639" lon="11.613433167858581"><ele>92.0</ele><time>2026-04-12T11:30:32Z</time></trkpt><trkpt lat="44.277680137533046" lon="11.613411963104847"><ele>92.0</ele><time>2026-04-12T11:30:33Z</time></trkpt><trkpt lat="44.27776047607695" lon="11.613395181135168"><ele>92.0</ele><time>2026-04-12T11:30:34Z</time></trkpt><trkpt lat="44.27784283332293" lon="11.613391629243678"><ele>92.0</ele><time>2026-04-12T11:30:35Z</time></trkpt><trkpt lat="44.27792510786358" lon="11.613395297647681"><ele>92.0</ele><time>2026-04-12T11:30:36Z</time></trkpt><trkpt lat="44.27800502470297" lon="11.613417866978693"><ele>92.0</ele><time>2026-04-12T11:30:37Z</time></trkpt><trkpt lat="44.27807654989085" lon="11.613466099126095"><ele>92.0</ele><time>2026-04-12T11:30:37.999Z</time></trkpt><trkpt lat="44.27814103176365" lon="11.613516093511818"><ele>91.5</ele><time>2026-04-12T11:30:38.999Z</time></trkpt><trkpt lat="44.2782113345474" lon="11.61352910356349"><ele>91.0</ele><time>2026-04-12T11:30:39.999Z</time></trkpt><trkpt lat="44.27827722135416" lon="11.613553719269689"><ele>90.5</ele><time>2026-04-12T11:30:40.999Z</time></trkpt><trkpt lat="44.27832016908858" lon="11.61368904892888"><ele>90.0</ele><time>2026-04-12T11:30:41.999Z</time></trkpt><trkpt lat="44.27837993835775" lon="11.613769576287652"><ele>89.5</ele><time>2026-04-12T11:30:42.999Z</time></trkpt><trkpt lat="44.27844129552038" lon="11.613845360688831"><ele>89.0</ele><time>2026-04-12T11:30:43.999Z</time></trkpt><trkpt lat="44.278501568557026" lon="11.61392447689764"><ele>89.0</ele><time>2026-04-12T11:30:44.999Z</time></trkpt><trkpt lat="44.27855578259872" lon="11.614007099320082"><ele>89.0</ele><time>2026-04-12T11:30:45.999Z</time></trkpt><trkpt lat="44.278597532104946" lon="11.614102129960719"><ele>89.0</ele><time>2026-04-12T11:30:46.999Z</time></trkpt><trkpt lat="44.278631297660645" lon="11.614205068402441"><ele>89.0</ele><time>2026-04-12T11:30:47.999Z</time></trkpt><trkpt lat="44.27866442393239" lon="11.614308917184015"><ele>89.0</ele><time>2026-04-12T11:30:48.999Z</time></trkpt><trkpt lat="44.27869792902913" lon="11.61441682607411"><ele>89.0</ele><time>2026-04-12T11:30:49.999Z</time></trkpt><trkpt lat="44.27873814984135" lon="11.614521122672503"><ele>88.5</ele><time>2026-04-12T11:30:50.999Z</time></trkpt><trkpt lat="44.278772962213864" lon="11.614618692089149"><ele>88.0</ele><time>2026-04-12T11:30:51.999Z</time></trkpt><trkpt lat="44.278806569658606" lon="11.614725791699286"><ele>87.5</ele><time>2026-04-12T11:30:52.999Z</time></trkpt><trkpt lat="44.2788418491824" lon="11.614830605585514"><ele>87.0</ele><time>2026-04-12T11:30:53.999Z</time></trkpt><trkpt lat="44.278877571121" lon="11.614933672430162"><ele>86.5</ele><time>2026-04-12T11:30:54.999Z</time></trkpt><trkpt lat="44.278912975387186" lon="11.615030784544354"><ele>86.0</ele><time>2026-04-12T11:30:55.999Z</time></trkpt><trkpt lat="44.2789407976969" lon="11.615130371515702"><ele>86.0</ele><time>2026-04-12T11:30:56.999Z</time></trkpt><trkpt lat="44.27897593760095" lon="11.615228416116473"><ele>86.0</ele><time>2026-04-12T11:30:57.999Z</time></trkpt><trkpt lat="44.279007441703484" lon="11.615326080393224"><ele>86.0</ele><time>2026-04-12T11:30:58.999Z</time></trkpt><trkpt lat="44.27903671202594" lon="11.615424644513661"><ele>86.0</ele><time>2026-04-12T11:30:59.999Z</time></trkpt><trkpt lat="44.27907002067515" lon="11.615520342737787"><ele>86.0</ele><time>2026-04-12T11:31:00.999Z</time></trkpt><trkpt lat="44.27909945714239" lon="11.615616397115357"><ele>86.0</ele><time>2026-04-12T11:31:01.999Z</time></trkpt><trkpt lat="44.279129262468885" lon="11.615711138726624"><ele>86.28571428571429</ele><time>2026-04-12T11:31:02.999Z</time></trkpt><trkpt lat="44.2791560063185" lon="11.615800738765666"><ele>86.57142857142857</ele><time>2026-04-12T11:31:03.999Z</time></trkpt><trkpt lat="44.27918602064844" lon="11.615887081058306"><ele>86.85714285714286</ele><time>2026-04-12T11:31:04.999Z</time></trkpt><trkpt lat="44.27921114257731" lon="11.615973360889349"><ele>87.14285714285714</ele><time>2026-04-12T11:31:05.999Z</time></trkpt><trkpt lat="44.279236958965186" lon="11.616059661511864"><ele>87.42857142857143</ele><time>2026-04-12T11:31:06.999Z</time></trkpt><trkpt lat="44.27926553574151" lon="11.616151942720743"><ele>87.71428571428572</ele><time>2026-04-12T11:31:07.999Z</time></trkpt><trkpt lat="44.27929047859604" lon="11.616233078000523"><ele>88.0</ele><time>2026-04-12T11:31:09Z</time></trkpt><trkpt lat="44.279323768327465" lon="11.616309771159615"><ele>88.42857142857143</ele><time>2026-04-12T11:31:10Z</time></trkpt><trkpt lat="44.27936152464273" lon="11.616380683544579"><ele>88.85714285714286</ele><time>2026-04-12T11:31:11Z</time></trkpt><trkpt lat="44.279414975362" lon="11.616459565164588"><ele>89.28571428571428</ele><time>2026-04-12T11:31:12Z</time></trkpt><trkpt lat="44.27946800499402" lon="11.616529279858254"><ele>89.71428571428572</ele><time>2026-04-12T11:31:13Z</time></trkpt><trkpt lat="44.27951925686212" lon="11.616589545232682"><ele>90.14285714285714</ele><time>2026-04-12T11:31:14Z</time></trkpt><trkpt lat="44.27957764572137" lon="11.616651467026347"><ele>90.57142857142857</ele><time>2026-04-12T11:31:15Z</time></trkpt><trkpt lat="44.279638274248406" lon="11.616713140173822"><ele>91.0</ele><time>2026-04-12T11:31:16Z</time></trkpt><trkpt lat="44.27970401935586" lon="11.616770661269657"><ele>91.66666666666666</ele><time>2026-04-12T11:31:17Z</time></trkpt><trkpt lat="44.2797690079202" lon="11.616825124258337"><ele>92.33333333333333</ele><time>2026-04-12T11:31:18Z</time></trkpt><trkpt lat="44.2798353273315" lon="11.616890319581637"><ele>93.0</ele><time>2026-04-12T11:31:19Z</time></trkpt><trkpt lat="44.27990617579462" lon="11.616942365429631"><ele>93.66666666666667</ele><time>2026-04-12T11:31:20Z</time></trkpt><trkpt lat="44.279984693824005" lon="11.61699988212994"><ele>94.33333333333334</ele><time>2026-04-12T11:31:21Z</time></trkpt><trkpt lat="44.28006269980742" lon="11.617052062831608"><ele>95.0</ele><time>2026-04-12T11:31:22Z</time></trkpt><trkpt lat="44.28013498513943" lon="11.617109775256468"><ele>95.0</ele><time>2026-04-12T11:31:23Z</time></trkpt><trkpt lat="44.280211035434284" lon="11.617166584898328"><ele>95.0</ele><time>2026-04-12T11:31:24Z</time></trkpt><trkpt lat="44.28028859674186" lon="11.61722294456983"><ele>95.0</ele><time>2026-04-12T11:31:25Z</time></trkpt><trkpt lat="44.28036483817502" lon="11.617280979073357"><ele>95.0</ele><time>2026-04-12T11:31:26Z</time></trkpt><trkpt lat="44.28044321843687" lon="11.617337270512378"><ele>95.0</ele><time>2026-04-12T11:31:27Z</time></trkpt><trkpt lat="44.280519762748945" lon="11.61739247192357"><ele>95.0</ele><time>2026-04-12T11:31:28Z</time></trkpt><trkpt lat="44.2805985810862" lon="11.617451940201967"><ele>92.83333333333334</ele><time>2026-04-12T11:31:29Z</time></trkpt><trkpt lat="44.28067416716868" lon="11.61750529671557"><ele>90.66666666666667</ele><time>2026-04-12T11:31:30Z</time></trkpt><trkpt lat="44.280753416661156" lon="11.617560263852912"><ele>88.5</ele><time>2026-04-12T11:31:31Z</time></trkpt><trkpt lat="44.28083355665773" lon="11.617618128655517"><ele>86.33333333333333</ele><time>2026-04-12T11:31:32Z</time></trkpt><trkpt lat="44.28091080331898" lon="11.617677061822775"><ele>84.16666666666666</ele><time>2026-04-12T11:31:33Z</time></trkpt><trkpt lat="44.280986536077535" lon="11.617729262227126"><ele>82.0</ele><time>2026-04-12T11:31:34Z</time></trkpt><trkpt lat="44.28106537292228" lon="11.61778609164681"><ele>81.33333333333333</ele><time>2026-04-12T11:31:35Z</time></trkpt><trkpt lat="44.281141855171875" lon="11.617843843800499"><ele>80.66666666666666</ele><time>2026-04-12T11:31:36Z</time></trkpt><trkpt lat="44.281219280128944" lon="11.617902045238937"><ele>80.0</ele><time>2026-04-12T11:31:37Z</time></trkpt><trkpt lat="44.28129742386291" lon="11.617960060865945"><ele>79.33333333333333</ele><time>2026-04-12T11:31:38Z</time></trkpt><trkpt lat="44.28137314995349" lon="11.618021341985319"><ele>78.66666666666667</ele><time>2026-04-12T11:31:39Z</time></trkpt><trkpt lat="44.28145262145178" lon="11.618073853095705"><ele>78.0</ele><time>2026-04-12T11:31:40Z</time></trkpt><trkpt lat="44.28153115177973" lon="11.61812888845391"><ele>78.0</ele><time>2026-04-12T11:31:41Z</time></trkpt><trkpt lat="44.28160649561744" lon="11.618183090934297"><ele>78.0</ele><time>2026-04-12T11:31:42Z</time></trkpt><trkpt lat="44.28168359328987" lon="11.618242963974998"><ele>78.0</ele><time>2026-04-12T11:31:43Z</time></trkpt><trkpt lat="44.28175831235463" lon="11.618291861195738"><ele>78.0</ele><time>2026-04-12T11:31:44Z</time></trkpt><trkpt lat="44.28183364197584" lon="11.618345999344058"><ele>78.0</ele><time>2026-04-12T11:31:45Z</time></trkpt><trkpt lat="44.28191067238074" lon="11.6183965138668"><ele>78.0</ele><time>2026-04-12T11:31:46Z</time></trkpt><trkpt lat="44.28198395446871" lon="11.618454746811544"><ele>78.0</ele><time>2026-04-12T11:31:47Z</time></trkpt><trkpt lat="44.28204516530451" lon="11.61853478092299"><ele>78.0</ele><time>2026-04-12T11:31:48Z</time></trkpt><trkpt lat="44.28207715671609" lon="11.618645076090381"><ele>78.0</ele><time>2026-04-12T11:31:49Z</time></trkpt><trkpt lat="44.282127215478454" lon="11.618741124439634"><ele>78.0</ele><time>2026-04-12T11:31:50Z</time></trkpt><trkpt lat="44.28216383275279" lon="11.618844974153047"><ele>78.0</ele><time>2026-04-12T11:31:51Z</time></trkpt><trkpt lat="44.28220047362525" lon="11.618948291827163"><ele>78.0</ele><time>2026-04-12T11:31:52Z</time></trkpt><trkpt lat="44.282234446592646" lon="11.619054121449913"><ele>78.0</ele><time>2026-04-12T11:31:53Z</time></trkpt><trkpt lat="44.2822706339803" lon="11.619164162678878"><ele>78.0</ele><time>2026-04-12T11:31:54Z</time></trkpt><trkpt lat="44.282306839485464" lon="11.619268007142505"><ele>78.0</ele><time>2026-04-12T11:31:55Z</time></trkpt><trkpt lat="44.28234515827507" lon="11.619373584950765"><ele>78.0</ele><time>2026-04-12T11:31:56Z</time></trkpt><trkpt lat="44.2823819289032" lon="11.619483336559679"><ele>78.0</ele><time>2026-04-12T11:31:57Z</time></trkpt><trkpt lat="44.28242005998202" lon="11.619590621044038"><ele>78.0</ele><time>2026-04-12T11:31:58Z</time></trkpt><trkpt lat="44.282455846367355" lon="11.619695587766657"><ele>78.16666666666667</ele><time>2026-04-12T11:31:59Z</time></trkpt><trkpt lat="44.28249174312272" lon="11.619800464850186"><ele>78.33333333333333</ele><time>2026-04-12T11:32:00Z</time></trkpt><trkpt lat="44.28252661058545" lon="11.619904713403056"><ele>78.5</ele><time>2026-04-12T11:32:01Z</time></trkpt><trkpt lat="44.282563906212644" lon="11.620011015561808"><ele>78.66666666666666</ele><time>2026-04-12T11:32:02Z</time></trkpt><trkpt lat="44.28259978209183" lon="11.620115910045945"><ele>78.83333333333333</ele><time>2026-04-12T11:32:03Z</time></trkpt><trkpt lat="44.28264087483601" lon="11.62021736054984"><ele>79.0</ele><time>2026-04-12T11:32:04Z</time></trkpt><trkpt lat="44.28269174329126" lon="11.620310009954586"><ele>79.16666666666666</ele><time>2026-04-12T11:32:05Z</time></trkpt><trkpt lat="44.28275857584437" lon="11.62038355071117"><ele>79.33333333333333</ele><time>2026-04-12T11:32:06Z</time></trkpt><trkpt lat="44.28283440054489" lon="11.62043523535984"><ele>79.5</ele><time>2026-04-12T11:32:07Z</time></trkpt><trkpt lat="44.28291610635644" lon="11.620473219539548"><ele>79.66666666666667</ele><time>2026-04-12T11:32:08Z</time></trkpt><trkpt lat="44.28298575567462" lon="11.620522401863502"><ele>79.83333333333334</ele><time>2026-04-12T11:32:09Z</time></trkpt><trkpt lat="44.283060046995836" lon="11.620566300370077"><ele>80.0</ele><time>2026-04-12T11:32:10Z</time></trkpt><trkpt lat="44.28313083832906" lon="11.620614689659691"><ele>79.71428571428571</ele><time>2026-04-12T11:32:11Z</time></trkpt><trkpt lat="44.28319722165728" lon="11.620663081896241"><ele>79.42857142857143</ele><time>2026-04-12T11:32:12Z</time></trkpt><trkpt lat="44.28326366151802" lon="11.620705485109143"><ele>79.14285714285714</ele><time>2026-04-12T11:32:13Z</time></trkpt><trkpt lat="44.28332721377736" lon="11.620750057990008"><ele>78.85714285714286</ele><time>2026-04-12T11:32:14Z</time></trkpt><trkpt lat="44.283377813525654" lon="11.620808714825293"><ele>78.57142857142857</ele><time>2026-04-12T11:32:15Z</time></trkpt><trkpt lat="44.28341291936029" lon="11.620891035891054"><ele>78.28571428571429</ele><time>2026-04-12T11:32:16Z</time></trkpt><trkpt lat="44.28342726121141" lon="11.620982440840725"><ele>78.0</ele><time>2026-04-12T11:32:17Z</time></trkpt><trkpt lat="44.28344576032614" lon="11.6210697465888"><ele>78.14285714285715</ele><time>2026-04-12T11:32:18Z</time></trkpt><trkpt lat="44.283467751199595" lon="11.621157280957016"><ele>78.28571428571428</ele><time>2026-04-12T11:32:19Z</time></trkpt><trkpt lat="44.283489546442766" lon="11.621243503124973"><ele>78.42857142857143</ele><time>2026-04-12T11:32:20Z</time></trkpt><trkpt lat="44.28351653496834" lon="11.621327074026402"><ele>78.57142857142858</ele><time>2026-04-12T11:32:21Z</time></trkpt><trkpt lat="44.28354245314012" lon="11.621413356129656"><ele>78.71428571428572</ele><time>2026-04-12T11:32:22Z</time></trkpt><trkpt lat="44.28356444826791" lon="11.621502222393785"><ele>78.85714285714286</ele><time>2026-04-12T11:32:23Z</time></trkpt><trkpt lat="44.28358534679822" lon="11.621588726782923"><ele>79.0</ele><time>2026-04-12T11:32:24Z</time></trkpt><trkpt lat="44.283606561635175" lon="11.621677580787381"><ele>79.00000000000001</ele><time>2026-04-12T11:32:25Z</time></trkpt><trkpt lat="44.28362979798803" lon="11.62176793996842"><ele>79.0</ele><time>2026-04-12T11:32:26Z</time></trkpt><trkpt lat="44.28365511788039" lon="11.621859405242128"><ele>79.0</ele><time>2026-04-12T11:32:27Z</time></trkpt><trkpt lat="44.28367880970103" lon="11.621953508081596"><ele>79.0</ele><time>2026-04-12T11:32:28Z</time></trkpt><trkpt lat="44.28370796205341" lon="11.622042600586774"><ele>79.0</ele><time>2026-04-12T11:32:29Z</time></trkpt><trkpt lat="44.28373337828519" lon="11.622135121927222"><ele>79.00000000000001</ele><time>2026-04-12T11:32:30Z</time></trkpt><trkpt lat="44.28375686140176" lon="11.622231016926275"><ele>79.0</ele><time>2026-04-12T11:32:31Z</time></trkpt><trkpt lat="44.28377898303895" lon="11.622321816069856"><ele>79.00000000000001</ele><time>2026-04-12T11:32:32Z</time></trkpt><trkpt lat="44.28380354818664" lon="11.622415963846397"><ele>79.0</ele><time>2026-04-12T11:32:33Z</time></trkpt><trkpt lat="44.283830610418086" lon="11.6225120579267"><ele>79.0</ele><time>2026-04-12T11:32:34Z</time></trkpt><trkpt lat="44.28385660123701" lon="11.62260740992845"><ele>79.0</ele><time>2026-04-12T11:32:35Z</time></trkpt><trkpt lat="44.28388187610624" lon="11.622700467189365"><ele>79.0</ele><time>2026-04-12T11:32:36Z</time></trkpt><trkpt lat="44.28390694940933" lon="11.622797609765062"><ele>79.00000000000001</ele><time>2026-04-12T11:32:37Z</time></trkpt><trkpt lat="44.28393129301672" lon="11.622894011691622"><ele>79.0</ele><time>2026-04-12T11:32:38Z</time></trkpt><trkpt lat="44.28395563239666" lon="11.622992705348295"><ele>78.85714285714286</ele><time>2026-04-12T11:32:39Z</time></trkpt><trkpt lat="44.28398255823495" lon="11.623087405216012"><ele>78.71428571428572</ele><time>2026-04-12T11:32:40Z</time></trkpt><trkpt lat="44.284008098118335" lon="11.623179784655184"><ele>78.57142857142858</ele><time>2026-04-12T11:32:41Z</time></trkpt><trkpt lat="44.284035337287385" lon="11.623277312537917"><ele>78.42857142857143</ele><time>2026-04-12T11:32:42Z</time></trkpt><trkpt lat="44.284062200386636" lon="11.623374376057697"><ele>78.28571428571428</ele><time>2026-04-12T11:32:43Z</time></trkpt><trkpt lat="44.28408950255249" lon="11.623470068728261"><ele>78.14285714285715</ele><time>2026-04-12T11:32:44Z</time></trkpt><trkpt lat="44.28411506791487" lon="11.623570280889355"><ele>78.0</ele><time>2026-04-12T11:32:45Z</time></trkpt><trkpt lat="44.28414203798898" lon="11.623665687124415"><ele>78.42857142857143</ele><time>2026-04-12T11:32:46Z</time></trkpt><trkpt lat="44.28416956759935" lon="11.62375905807184"><ele>78.85714285714285</ele><time>2026-04-12T11:32:47Z</time></trkpt><trkpt lat="44.284197764267304" lon="11.623858252625723"><ele>79.28571428571428</ele><time>2026-04-12T11:32:48Z</time></trkpt><trkpt lat="44.28422667105698" lon="11.62395257961072"><ele>79.71428571428572</ele><time>2026-04-12T11:32:49Z</time></trkpt><trkpt lat="44.28425387411288" lon="11.624053072529831"><ele>80.14285714285714</ele><time>2026-04-12T11:32:50Z</time></trkpt><trkpt lat="44.2842817409765" lon="11.624148473749283"><ele>80.57142857142857</ele><time>2026-04-12T11:32:50.999Z</time></trkpt><trkpt lat="44.28431187867536" lon="11.624245741938825"><ele>81.0</ele><time>2026-04-12T11:32:51.999Z</time></trkpt><trkpt lat="44.28434268713449" lon="11.624339317613007"><ele>81.0</ele><time>2026-04-12T11:32:52.999Z</time></trkpt><trkpt lat="44.284373636377225" lon="11.624436276253718"><ele>81.0</ele><time>2026-04-12T11:32:53.999Z</time></trkpt><trkpt lat="44.28440255680054" lon="11.624530861710324"><ele>81.0</ele><time>2026-04-12T11:32:54.999Z</time></trkpt><trkpt lat="44.284433576897065" lon="11.624628621613613"><ele>81.0</ele><time>2026-04-12T11:32:55.999Z</time></trkpt><trkpt lat="44.28446854045542" lon="11.624724704944516"><ele>81.0</ele><time>2026-04-12T11:32:56.999Z</time></trkpt><trkpt lat="44.28450114628741" lon="11.624818397324395"><ele>81.0</ele><time>2026-04-12T11:32:57.999Z</time></trkpt><trkpt lat="44.284531382045095" lon="11.624913976867305"><ele>81.33333333333333</ele><time>2026-04-12T11:32:58.999Z</time></trkpt><trkpt lat="44.28456158679183" lon="11.625005994995119"><ele>81.66666666666667</ele><time>2026-04-12T11:32:59.999Z</time></trkpt><trkpt lat="44.284593796301" lon="11.625104339919174"><ele>82.0</ele><time>2026-04-12T11:33:00.999Z</time></trkpt><trkpt lat="44.28462746982781" lon="11.625200551373744"><ele>82.33333333333334</ele><time>2026-04-12T11:33:01.999Z</time></trkpt><trkpt lat="44.28465916442149" lon="11.62529916626915"><ele>82.66666666666667</ele><time>2026-04-12T11:33:02.999Z</time></trkpt><trkpt lat="44.28469155042385" lon="11.625395098957819"><ele>83.0</ele><time>2026-04-12T11:33:03.999Z</time></trkpt><trkpt lat="44.284725170068725" lon="11.625489247044852"><ele>83.0</ele><time>2026-04-12T11:33:04.999Z</time></trkpt><trkpt lat="44.28475675859776" lon="11.625582937105731"><ele>83.0</ele><time>2026-04-12T11:33:05.999Z</time></trkpt><trkpt lat="44.28478687026573" lon="11.62567903184811"><ele>83.0</ele><time>2026-04-12T11:33:06.999Z</time></trkpt><trkpt lat="44.284817513186" lon="11.625773749331714"><ele>83.0</ele><time>2026-04-12T11:33:07.999Z</time></trkpt><trkpt lat="44.284849068144055" lon="11.62586868823837"><ele>83.0</ele><time>2026-04-12T11:33:08.999Z</time></trkpt><trkpt lat="44.284880695517245" lon="11.625962646800906"><ele>83.0</ele><time>2026-04-12T11:33:09.999Z</time></trkpt><trkpt lat="44.28491172474149" lon="11.626055020033027"><ele>83.0</ele><time>2026-04-12T11:33:10.999Z</time></trkpt><trkpt lat="44.28494516759389" lon="11.626151847008401"><ele>82.0</ele><time>2026-04-12T11:33:11.999Z</time></trkpt><trkpt lat="44.284976357706114" lon="11.626245042339088"><ele>81.0</ele><time>2026-04-12T11:33:12.999Z</time></trkpt><trkpt lat="44.28500797431003" lon="11.626340897720391"><ele>80.0</ele><time>2026-04-12T11:33:13.999Z</time></trkpt><trkpt lat="44.28504070452776" lon="11.626437334864814"><ele>79.0</ele><time>2026-04-12T11:33:15Z</time></trkpt><trkpt lat="44.285073604173206" lon="11.62653381463559"><ele>78.0</ele><time>2026-04-12T11:33:16Z</time></trkpt><trkpt lat="44.28510576764658" lon="11.626630650227966"><ele>77.0</ele><time>2026-04-12T11:33:17Z</time></trkpt><trkpt lat="44.285140398250824" lon="11.626726715166361"><ele>77.0</ele><time>2026-04-12T11:33:18Z</time></trkpt><trkpt lat="44.28517345326549" lon="11.626823130023162"><ele>77.0</ele><time>2026-04-12T11:33:19Z</time></trkpt><trkpt lat="44.285205132680886" lon="11.626922465856836"><ele>77.0</ele><time>2026-04-12T11:33:20Z</time></trkpt><trkpt lat="44.285236270789596" lon="11.62702069048824"><ele>77.0</ele><time>2026-04-12T11:33:21Z</time></trkpt><trkpt lat="44.285269641538754" lon="11.627118826277064"><ele>77.0</ele><time>2026-04-12T11:33:22Z</time></trkpt><trkpt lat="44.28530555853645" lon="11.627218269339455"><ele>77.0</ele><time>2026-04-12T11:33:23Z</time></trkpt><trkpt lat="44.285341155426195" lon="11.627314904780556"><ele>77.66666666666667</ele><time>2026-04-12T11:33:24Z</time></trkpt><trkpt lat="44.285374398064334" lon="11.627413048030656"><ele>78.33333333333334</ele><time>2026-04-12T11:33:25Z</time></trkpt><trkpt lat="44.28540753300163" lon="11.627509187295354"><ele>79.0</ele><time>2026-04-12T11:33:26Z</time></trkpt><trkpt lat="44.28544301154352" lon="11.627602590813213"><ele>79.66666666666667</ele><time>2026-04-12T11:33:27Z</time></trkpt><trkpt lat="44.2854767117773" lon="11.627702441023597"><ele>80.33333333333333</ele><time>2026-04-12T11:33:28Z</time></trkpt><trkpt lat="44.285506729598374" lon="11.627801984068899"><ele>81.0</ele><time>2026-04-12T11:33:29Z</time></trkpt><trkpt lat="44.28554020898125" lon="11.62790146456693"><ele>80.66666666666667</ele><time>2026-04-12T11:33:30Z</time></trkpt><trkpt lat="44.28557491788844" lon="11.627999015785742"><ele>80.33333333333333</ele><time>2026-04-12T11:33:31Z</time></trkpt><trkpt lat="44.28560889465584" lon="11.628095124808306"><ele>80.0</ele><time>2026-04-12T11:33:32Z</time></trkpt><trkpt lat="44.285642783757964" lon="11.628192835185374"><ele>79.66666666666666</ele><time>2026-04-12T11:33:33Z</time></trkpt><trkpt lat="44.28567510273266" lon="11.628292539238524"><ele>79.33333333333333</ele><time>2026-04-12T11:33:34Z</time></trkpt><trkpt lat="44.285709805557374" lon="11.628393303173624"><ele>79.0</ele><time>2026-04-12T11:33:35Z</time></trkpt><trkpt lat="44.28574361838522" lon="11.628493448237213"><ele>79.0</ele><time>2026-04-12T11:33:36Z</time></trkpt><trkpt lat="44.28577661695399" lon="11.628591700675882"><ele>79.0</ele><time>2026-04-12T11:33:37Z</time></trkpt><trkpt lat="44.28581114681779" lon="11.628694642410053"><ele>79.0</ele><time>2026-04-12T11:33:38Z</time></trkpt><trkpt lat="44.28584486107069" lon="11.62879588235713"><ele>79.0</ele><time>2026-04-12T11:33:39Z</time></trkpt><trkpt lat="44.28587775485234" lon="11.62889673045462"><ele>79.0</ele><time>2026-04-12T11:33:40Z</time></trkpt><trkpt lat="44.285910248983846" lon="11.628995796163705"><ele>79.0</ele><time>2026-04-12T11:33:41Z</time></trkpt><trkpt lat="44.28594104046089" lon="11.629091952048912"><ele>79.33333333333333</ele><time>2026-04-12T11:33:42Z</time></trkpt><trkpt lat="44.285978262359784" lon="11.629194495744384"><ele>79.66666666666666</ele><time>2026-04-12T11:33:43Z</time></trkpt><trkpt lat="44.286012523755744" lon="11.629294927241078"><ele>80.0</ele><time>2026-04-12T11:33:44Z</time></trkpt><trkpt lat="44.28605042379751" lon="11.629402096138053"><ele>80.33333333333333</ele><time>2026-04-12T11:33:45Z</time></trkpt><trkpt lat="44.28608641571708" lon="11.62950441676712"><ele>80.66666666666667</ele><time>2026-04-12T11:33:46Z</time></trkpt><trkpt lat="44.2861201759428" lon="11.629607464537688"><ele>81.0</ele><time>2026-04-12T11:33:47Z</time></trkpt><trkpt lat="44.28615504529708" lon="11.62970775994246"><ele>80.66666666666667</ele><time>2026-04-12T11:33:48Z</time></trkpt><trkpt lat="44.28619222035611" lon="11.629807326308383"><ele>80.33333333333333</ele><time>2026-04-12T11:33:49Z</time></trkpt><trkpt lat="44.28623021879964" lon="11.629903636787532"><ele>80.0</ele><time>2026-04-12T11:33:50Z</time></trkpt><trkpt lat="44.286272806394116" lon="11.630001278868164"><ele>79.66666666666666</ele><time>2026-04-12T11:33:51Z</time></trkpt><trkpt lat="44.28631824959519" lon="11.630090289799616"><ele>79.33333333333333</ele><time>2026-04-12T11:33:52Z</time></trkpt><trkpt lat="44.286371642212764" lon="11.630178004636797"><ele>79.0</ele><time>2026-04-12T11:33:53Z</time></trkpt><trkpt lat="44.28642884426579" lon="11.630258751149167"><ele>80.16666666666666</ele><time>2026-04-12T11:33:54Z</time></trkpt><trkpt lat="44.286489947160604" lon="11.630332156706148"><ele>81.33333333333333</ele><time>2026-04-12T11:33:55Z</time></trkpt><trkpt lat="44.28655012168861" lon="11.63040915777309"><ele>82.5</ele><time>2026-04-12T11:33:56Z</time></trkpt><trkpt lat="44.28661583395432" lon="11.630475946054297"><ele>83.66666666666667</ele><time>2026-04-12T11:33:57Z</time></trkpt><trkpt lat="44.286680863506" lon="11.63054636983405"><ele>84.83333333333334</ele><time>2026-04-12T11:33:58Z</time></trkpt><trkpt lat="44.28674979100606" lon="11.630614005775382"><ele>86.0</ele><time>2026-04-12T11:33:59Z</time></trkpt><trkpt lat="44.28682010696658" lon="11.630680432189706"><ele>86.0</ele><time>2026-04-12T11:34:00Z</time></trkpt><trkpt lat="44.28688763988252" lon="11.630747657320585"><ele>86.0</ele><time>2026-04-12T11:34:01Z</time></trkpt><trkpt lat="44.28695545333367" lon="11.63081489948501"><ele>86.0</ele><time>2026-04-12T11:34:02Z</time></trkpt><trkpt lat="44.287023681915244" lon="11.630882075707719"><ele>86.0</ele><time>2026-04-12T11:34:03Z</time></trkpt><trkpt lat="44.287093611705984" lon="11.630946834140214"><ele>86.0</ele><time>2026-04-12T11:34:04Z</time></trkpt><trkpt lat="44.28716185651734" lon="11.63101426172887"><ele>86.0</ele><time>2026-04-12T11:34:05Z</time></trkpt><trkpt lat="44.28723070811035" lon="11.631081367876632"><ele>86.0</ele><time>2026-04-12T11:34:06Z</time></trkpt><trkpt lat="44.28729978253239" lon="11.631147724181258"><ele>86.0</ele><time>2026-04-12T11:34:07Z</time></trkpt><trkpt lat="44.28736814998293" lon="11.63121379716356"><ele>86.0</ele><time>2026-04-12T11:34:08Z</time></trkpt><trkpt lat="44.28743787479311" lon="11.631278058007215"><ele>86.0</ele><time>2026-04-12T11:34:09Z</time></trkpt><trkpt lat="44.28750483381302" lon="11.631340329985578"><ele>86.0</ele><time>2026-04-12T11:34:10Z</time></trkpt><trkpt lat="44.28757675994944" lon="11.631400417669543"><ele>86.0</ele><time>2026-04-12T11:34:11Z</time></trkpt><trkpt lat="44.28764511890427" lon="11.631463594636662"><ele>86.0</ele><time>2026-04-12T11:34:12Z</time></trkpt><trkpt lat="44.287705970642925" lon="11.63153023109727"><ele>86.0</ele><time>2026-04-12T11:34:13Z</time></trkpt><trkpt lat="44.28777732300603" lon="11.631591962196207"><ele>86.0</ele><time>2026-04-12T11:34:14Z</time></trkpt><trkpt lat="44.28782901224828" lon="11.6316624665328"><ele>86.0</ele><time>2026-04-12T11:34:15Z</time></trkpt><trkpt lat="44.28790111453379" lon="11.631731927702377"><ele>86.0</ele><time>2026-04-12T11:34:16Z</time></trkpt><trkpt lat="44.28797332040465" lon="11.631803415766056"><ele>86.0</ele><time>2026-04-12T11:34:17Z</time></trkpt><trkpt lat="44.28804408117846" lon="11.63187341732706"><ele>85.33333333333334</ele><time>2026-04-12T11:34:18Z</time></trkpt><trkpt lat="44.28811220114248" lon="11.631941907639161"><ele>84.66666666666667</ele><time>2026-04-12T11:34:19Z</time></trkpt><trkpt lat="44.28817931707739" lon="11.632009531221774"><ele>84.0</ele><time>2026-04-12T11:34:20Z</time></trkpt><trkpt lat="44.288245464624495" lon="11.632081496407988"><ele>83.33333333333333</ele><time>2026-04-12T11:34:21Z</time></trkpt><trkpt lat="44.28830910936737" lon="11.632157835776177"><ele>82.66666666666666</ele><time>2026-04-12T11:34:22Z</time></trkpt><trkpt lat="44.28836101185684" lon="11.632230252591887"><ele>82.0</ele><time>2026-04-12T11:34:23Z</time></trkpt><trkpt lat="44.28841915451644" lon="11.632305112885089"><ele>82.0</ele><time>2026-04-12T11:34:24Z</time></trkpt><trkpt lat="44.288477244889435" lon="11.632380274446165"><ele>82.0</ele><time>2026-04-12T11:34:25Z</time></trkpt><trkpt lat="44.288533795042234" lon="11.63246150153148"><ele>82.0</ele><time>2026-04-12T11:34:26Z</time></trkpt><trkpt lat="44.2885878205421" lon="11.632540944253991"><ele>82.0</ele><time>2026-04-12T11:34:27Z</time></trkpt><trkpt lat="44.28864070565299" lon="11.632622723247962"><ele>82.0</ele><time>2026-04-12T11:34:28Z</time></trkpt><trkpt lat="44.288692596750316" lon="11.63270852666881"><ele>82.0</ele><time>2026-04-12T11:34:29Z</time></trkpt><trkpt lat="44.28874357272358" lon="11.632801021891964"><ele>82.0</ele><time>2026-04-12T11:34:30Z</time></trkpt><trkpt lat="44.28879759079662" lon="11.632888818796884"><ele>82.0</ele><time>2026-04-12T11:34:31Z</time></trkpt><trkpt lat="44.2888551587924" lon="11.63297626874492"><ele>82.0</ele><time>2026-04-12T11:34:32Z</time></trkpt><trkpt lat="44.28890977258116" lon="11.633064202846139"><ele>82.0</ele><time>2026-04-12T11:34:33Z</time></trkpt><trkpt lat="44.2889674800065" lon="11.633149542109079"><ele>82.0</ele><time>2026-04-12T11:34:34Z</time></trkpt><trkpt lat="44.28902236324073" lon="11.633235788908356"><ele>82.0</ele><time>2026-04-12T11:34:35Z</time></trkpt><trkpt lat="44.28907348656883" lon="11.633322995705079"><ele>82.0</ele><time>2026-04-12T11:34:36Z</time></trkpt><trkpt lat="44.2891281193121" lon="11.633411783680891"><ele>82.0</ele><time>2026-04-12T11:34:37Z</time></trkpt><trkpt lat="44.289182868972034" lon="11.633499170332716"><ele>82.0</ele><time>2026-04-12T11:34:38Z</time></trkpt><trkpt lat="44.28924123699038" lon="11.63358781778837"><ele>82.0</ele><time>2026-04-12T11:34:39Z</time></trkpt><trkpt lat="44.28929767166715" lon="11.63367655442861"><ele>82.0</ele><time>2026-04-12T11:34:40Z</time></trkpt><trkpt lat="44.28935298476262" lon="11.633762561694635"><ele>82.0</ele><time>2026-04-12T11:34:41Z</time></trkpt><trkpt lat="44.28940820877013" lon="11.633851531896534"><ele>82.0</ele><time>2026-04-12T11:34:42Z</time></trkpt><trkpt lat="44.28946340055835" lon="11.63394112681043"><ele>82.0</ele><time>2026-04-12T11:34:43Z</time></trkpt><trkpt lat="44.28951561137071" lon="11.634030945989345"><ele>82.0</ele><time>2026-04-12T11:34:44Z</time></trkpt><trkpt lat="44.28956919709143" lon="11.634115969288422"><ele>82.0</ele><time>2026-04-12T11:34:45Z</time></trkpt><trkpt lat="44.28962662215435" lon="11.634203242189566"><ele>82.0</ele><time>2026-04-12T11:34:46Z</time></trkpt><trkpt lat="44.289678323146234" lon="11.634290471148853"><ele>82.0</ele><time>2026-04-12T11:34:47Z</time></trkpt><trkpt lat="44.28973416138291" lon="11.634376938752292"><ele>82.0</ele><time>2026-04-12T11:34:48Z</time></trkpt><trkpt lat="44.28978649568065" lon="11.634466055831217"><ele>82.0</ele><time>2026-04-12T11:34:49Z</time></trkpt><trkpt lat="44.28984086654456" lon="11.634553415783165"><ele>82.0</ele><time>2026-04-12T11:34:50Z</time></trkpt><trkpt lat="44.28989350051654" lon="11.634641876622204"><ele>82.0</ele><time>2026-04-12T11:34:51Z</time></trkpt><trkpt lat="44.289947028999556" lon="11.63472895288271"><ele>82.0</ele><time>2026-04-12T11:34:52Z</time></trkpt><trkpt lat="44.29000168044701" lon="11.63481906531605"><ele>82.0</ele><time>2026-04-12T11:34:53Z</time></trkpt><trkpt lat="44.29005505922337" lon="11.63490723698215"><ele>82.0</ele><time>2026-04-12T11:34:54Z</time></trkpt><trkpt lat="44.29010860793167" lon="11.634996413182334"><ele>82.0</ele><time>2026-04-12T11:34:55Z</time></trkpt><trkpt lat="44.29016407297466" lon="11.63508416890383"><ele>82.0</ele><time>2026-04-12T11:34:56Z</time></trkpt><trkpt lat="44.29021875438508" lon="11.635171980848872"><ele>82.0</ele><time>2026-04-12T11:34:57Z</time></trkpt><trkpt lat="44.29027325526697" lon="11.635263114783527"><ele>82.0</ele><time>2026-04-12T11:34:58Z</time></trkpt><trkpt lat="44.29032786003518" lon="11.635350217609833"><ele>82.0</ele><time>2026-04-12T11:34:58.999Z</time></trkpt><trkpt lat="44.29038116429363" lon="11.63543894013394"><ele>81.83333333333333</ele><time>2026-04-12T11:34:59.999Z</time></trkpt><trkpt lat="44.290433717405854" lon="11.635527278431898"><ele>81.66666666666666</ele><time>2026-04-12T11:35:00.999Z</time></trkpt><trkpt lat="44.29048710353545" lon="11.635615340860946"><ele>81.5</ele><time>2026-04-12T11:35:01.999Z</time></trkpt><trkpt lat="44.290540856653" lon="11.635703707547043"><ele>81.33333333333333</ele><time>2026-04-12T11:35:02.999Z</time></trkpt><trkpt lat="44.29059369256783" lon="11.635790610623818"><ele>81.16666666666667</ele><time>2026-04-12T11:35:03.999Z</time></trkpt><trkpt lat="44.29064713920358" lon="11.6358771754337"><ele>81.0</ele><time>2026-04-12T11:35:04.999Z</time></trkpt><trkpt lat="44.29070153334596" lon="11.635963376760376"><ele>80.83333333333333</ele><time>2026-04-12T11:35:05.999Z</time></trkpt><trkpt lat="44.29075449927526" lon="11.636050418908514"><ele>80.66666666666667</ele><time>2026-04-12T11:35:06.999Z</time></trkpt><trkpt lat="44.29080980109765" lon="11.636138683285566"><ele>80.5</ele><time>2026-04-12T11:35:07.999Z</time></trkpt><trkpt lat="44.29086326082847" lon="11.636227438106431"><ele>80.33333333333334</ele><time>2026-04-12T11:35:08.999Z</time></trkpt><trkpt lat="44.29091703880027" lon="11.636316139933287"><ele>80.16666666666667</ele><time>2026-04-12T11:35:09.999Z</time></trkpt><trkpt lat="44.29097244829284" lon="11.636406389930947"><ele>80.0</ele><time>2026-04-12T11:35:10.999Z</time></trkpt><trkpt lat="44.29102663379762" lon="11.636494632586286"><ele>80.0</ele><time>2026-04-12T11:35:11.999Z</time></trkpt><trkpt lat="44.29108100962863" lon="11.636584511765427"><ele>80.0</ele><time>2026-04-12T11:35:12.999Z</time></trkpt><trkpt lat="44.29113736510558" lon="11.636672823565162"><ele>80.0</ele><time>2026-04-12T11:35:13.999Z</time></trkpt><trkpt lat="44.29119543607003" lon="11.63676099236525"><ele>80.0</ele><time>2026-04-12T11:35:14.999Z</time></trkpt><trkpt lat="44.29125260310007" lon="11.63685184779537"><ele>80.0</ele><time>2026-04-12T11:35:15.999Z</time></trkpt><trkpt lat="44.29130685384541" lon="11.636942338556954"><ele>80.0</ele><time>2026-04-12T11:35:16.999Z</time></trkpt><trkpt lat="44.29136151301682" lon="11.6370349387949"><ele>80.33333333333334</ele><time>2026-04-12T11:35:17.999Z</time></trkpt><trkpt lat="44.29141748728867" lon="11.63712530995838"><ele>80.66666666666667</ele><time>2026-04-12T11:35:18.999Z</time></trkpt><trkpt lat="44.29147506229184" lon="11.637213327002115"><ele>81.0</ele><time>2026-04-12T11:35:19.999Z</time></trkpt><trkpt lat="44.291532592810086" lon="11.63730387746485"><ele>81.33333333333333</ele><time>2026-04-12T11:35:21Z</time></trkpt><trkpt lat="44.29158641834049" lon="11.63739479620631"><ele>81.66666666666666</ele><time>2026-04-12T11:35:22Z</time></trkpt><trkpt lat="44.291641038081345" lon="11.637485998869234"><ele>82.0</ele><time>2026-04-12T11:35:23Z</time></trkpt><trkpt lat="44.29169363988549" lon="11.637572632028705"><ele>82.0</ele><time>2026-04-12T11:35:24Z</time></trkpt><trkpt lat="44.29175080338105" lon="11.637663473374676"><ele>82.0</ele><time>2026-04-12T11:35:25Z</time></trkpt><trkpt lat="44.29180330008371" lon="11.637748289030206"><ele>82.0</ele><time>2026-04-12T11:35:26Z</time></trkpt><trkpt lat="44.29185802280249" lon="11.63783544594066"><ele>82.0</ele><time>2026-04-12T11:35:27Z</time></trkpt><trkpt lat="44.29191196106313" lon="11.63792259553505"><ele>82.0</ele><time>2026-04-12T11:35:28Z</time></trkpt><trkpt lat="44.29196447463748" lon="11.638009027699788"><ele>82.0</ele><time>2026-04-12T11:35:29Z</time></trkpt><trkpt lat="44.292019124228226" lon="11.63809492170612"><ele>82.0</ele><time>2026-04-12T11:35:30Z</time></trkpt><trkpt lat="44.29207317631988" lon="11.638172689615544"><ele>82.0</ele><time>2026-04-12T11:35:31Z</time></trkpt><trkpt lat="44.292122224224144" lon="11.638259047947251"><ele>82.0</ele><time>2026-04-12T11:35:32Z</time></trkpt><trkpt lat="44.29217427162435" lon="11.638343156664437"><ele>82.0</ele><time>2026-04-12T11:35:33Z</time></trkpt><trkpt lat="44.29222878174434" lon="11.638429261263948"><ele>82.0</ele><time>2026-04-12T11:35:34Z</time></trkpt><trkpt lat="44.29227938932115" lon="11.638514199991842"><ele>82.0</ele><time>2026-04-12T11:35:35Z</time></trkpt><trkpt lat="44.29233165784131" lon="11.638598476508957"><ele>82.16666666666666</ele><time>2026-04-12T11:35:36Z</time></trkpt><trkpt lat="44.292384617708535" lon="11.638681910911563"><ele>82.33333333333333</ele><time>2026-04-12T11:35:37Z</time></trkpt><trkpt lat="44.29244030018207" lon="11.63876559177296"><ele>82.5</ele><time>2026-04-12T11:35:38Z</time></trkpt><trkpt lat="44.29249344009924" lon="11.638847411494439"><ele>82.66666666666667</ele><time>2026-04-12T11:35:39Z</time></trkpt><trkpt lat="44.29254546954956" lon="11.63893445970808"><ele>82.83333333333334</ele><time>2026-04-12T11:35:40Z</time></trkpt><trkpt lat="44.29259517759635" lon="11.639016905051703"><ele>83.0</ele><time>2026-04-12T11:35:41Z</time></trkpt><trkpt lat="44.292644965886616" lon="11.639097155790564"><ele>83.0</ele><time>2026-04-12T11:35:42Z</time></trkpt><trkpt lat="44.29269622460346" lon="11.639179479324529"><ele>83.0</ele><time>2026-04-12T11:35:43Z</time></trkpt><trkpt lat="44.29274658004794" lon="11.63926151429459"><ele>83.0</ele><time>2026-04-12T11:35:44Z</time></trkpt><trkpt lat="44.29279778756713" lon="11.639342610412907"><ele>83.0</ele><time>2026-04-12T11:35:45Z</time></trkpt><trkpt lat="44.29284859001678" lon="11.639424316439133"><ele>83.0</ele><time>2026-04-12T11:35:46Z</time></trkpt><trkpt lat="44.2928997220836" lon="11.639504664946513"><ele>83.0</ele><time>2026-04-12T11:35:47Z</time></trkpt><trkpt lat="44.29295053537431" lon="11.639582253073288"><ele>83.28571428571428</ele><time>2026-04-12T11:35:48Z</time></trkpt><trkpt lat="44.29299856102291" lon="11.639661790537488"><ele>83.57142857142858</ele><time>2026-04-12T11:35:49Z</time></trkpt><trkpt lat="44.29304447027861" lon="11.639742981987938"><ele>83.85714285714286</ele><time>2026-04-12T11:35:50Z</time></trkpt><trkpt lat="44.29309128413387" lon="11.639823457874044"><ele>84.14285714285714</ele><time>2026-04-12T11:35:51Z</time></trkpt><trkpt lat="44.29313734371937" lon="11.639905990847875"><ele>84.42857142857142</ele><time>2026-04-12T11:35:52Z</time></trkpt><trkpt lat="44.29317957302344" lon="11.639985791465442"><ele>84.71428571428572</ele><time>2026-04-12T11:35:53Z</time></trkpt><trkpt lat="44.29321816515637" lon="11.640063521609425"><ele>85.0</ele><time>2026-04-12T11:35:54Z</time></trkpt><trkpt lat="44.2932578653066" lon="11.64014077000723"><ele>85.0</ele><time>2026-04-12T11:35:55Z</time></trkpt><trkpt lat="44.293295668921076" lon="11.640220687653139"><ele>85.0</ele><time>2026-04-12T11:35:56Z</time></trkpt><trkpt lat="44.29333332843077" lon="11.64029919534247"><ele>85.0</ele><time>2026-04-12T11:35:57Z</time></trkpt><trkpt lat="44.2933678287883" lon="11.64037671428894"><ele>85.0</ele><time>2026-04-12T11:35:58Z</time></trkpt><trkpt lat="44.29343788509079" lon="11.640521809504882"><ele>85.0</ele><time>2026-04-12T11:36:00Z</time></trkpt><trkpt lat="44.293499354480595" lon="11.64066772203644"><ele>85.0</ele><time>2026-04-12T11:36:02Z</time></trkpt><trkpt lat="44.29353454799624" lon="11.640741280704097"><ele>86.75</ele><time>2026-04-12T11:36:03Z</time></trkpt><trkpt lat="44.29359740219959" lon="11.640887340894576"><ele>88.5</ele><time>2026-04-12T11:36:05Z</time></trkpt><trkpt lat="44.29365555848369" lon="11.64103808272113"><ele>90.25</ele><time>2026-04-12T11:36:07Z</time></trkpt><trkpt lat="44.29371887013834" lon="11.641182201545464"><ele>92.0</ele><time>2026-04-12T11:36:09Z</time></trkpt><trkpt lat="44.29377809890014" lon="11.641323445422561"><ele>92.6</ele><time>2026-04-12T11:36:11Z</time></trkpt><trkpt lat="44.29381909079149" lon="11.64148219828703"><ele>93.19999999999999</ele><time>2026-04-12T11:36:13Z</time></trkpt><trkpt lat="44.293845800723176" lon="11.641642012778194"><ele>93.8</ele><time>2026-04-12T11:36:15Z</time></trkpt><trkpt lat="44.29386555024561" lon="11.641810414530102"><ele>94.4</ele><time>2026-04-12T11:36:17Z</time></trkpt><trkpt lat="44.293877992041985" lon="11.641902485576741"><ele>95.0</ele><time>2026-04-12T11:36:18Z</time></trkpt><trkpt lat="44.293887682013896" lon="11.641993229415126"><ele>95.0</ele><time>2026-04-12T11:36:19Z</time></trkpt><trkpt lat="44.29390297906268" lon="11.642084838868856"><ele>95.0</ele><time>2026-04-12T11:36:20Z</time></trkpt><trkpt lat="44.29391682245902" lon="11.642178393426954"><ele>95.0</ele><time>2026-04-12T11:36:21Z</time></trkpt><trkpt lat="44.29393600505979" lon="11.64227017918917"><ele>95.0</ele><time>2026-04-12T11:36:22Z</time></trkpt><trkpt lat="44.293960576093085" lon="11.642360358643346"><ele>95.0</ele><time>2026-04-12T11:36:23Z</time></trkpt><trkpt lat="44.29398894359994" lon="11.642448526546948"><ele>95.0</ele><time>2026-04-12T11:36:24Z</time></trkpt><trkpt lat="44.294016764047136" lon="11.642538355981262"><ele>95.0</ele><time>2026-04-12T11:36:25Z</time></trkpt><trkpt lat="44.29404639800613" lon="11.642624614061322"><ele>94.6</ele><time>2026-04-12T11:36:26Z</time></trkpt><trkpt lat="44.294076875488265" lon="11.642705305376042"><ele>94.2</ele><time>2026-04-12T11:36:27Z</time></trkpt><trkpt lat="44.29410770971571" lon="11.64278219109391"><ele>93.80000000000001</ele><time>2026-04-12T11:36:28Z</time></trkpt><trkpt lat="44.294169708534284" lon="11.642925686924514"><ele>93.4</ele><time>2026-04-12T11:36:30Z</time></trkpt><trkpt lat="44.294212298161725" lon="11.643063943367501"><ele>93.0</ele><time>2026-04-12T11:36:32Z</time></trkpt><trkpt lat="44.29425853356878" lon="11.643186977569297"><ele>93.0</ele><time>2026-04-12T11:36:34Z</time></trkpt><trkpt lat="44.294415316717235" lon="11.643109974838481"><ele>93.0</ele><time>2026-04-12T11:36:36Z</time></trkpt><trkpt lat="44.29452558589279" lon="11.643016531749172"><ele>93.0</ele><time>2026-04-12T11:36:38Z</time></trkpt><trkpt lat="44.29458845633833" lon="11.642974018019142"><ele>93.0</ele><time>2026-04-12T11:36:39Z</time></trkpt><trkpt lat="44.29464822730932" lon="11.64293679525404"><ele>93.0</ele><time>2026-04-12T11:36:40Z</time></trkpt><trkpt lat="44.294705741529086" lon="11.642900041643504"><ele>92.85714285714286</ele><time>2026-04-12T11:36:41Z</time></trkpt><trkpt lat="44.29476837509372" lon="11.642864145510421"><ele>92.71428571428572</ele><time>2026-04-12T11:36:42Z</time></trkpt><trkpt lat="44.29483201708973" lon="11.642825625873577"><ele>92.57142857142858</ele><time>2026-04-12T11:36:43Z</time></trkpt><trkpt lat="44.29489413692219" lon="11.642784590925734"><ele>92.42857142857143</ele><time>2026-04-12T11:36:44Z</time></trkpt><trkpt lat="44.294963731061394" lon="11.64276180090535"><ele>92.28571428571428</ele><time>2026-04-12T11:36:45Z</time></trkpt><trkpt lat="44.29502583883789" lon="11.642717485600254"><ele>92.14285714285715</ele><time>2026-04-12T11:36:46Z</time></trkpt><trkpt lat="44.295087409254776" lon="11.64267022864053"><ele>92.0</ele><time>2026-04-12T11:36:47Z</time></trkpt><trkpt lat="44.295147771265995" lon="11.642623897166594"><ele>91.71428571428572</ele><time>2026-04-12T11:36:48Z</time></trkpt><trkpt lat="44.295205617882786" lon="11.642572085593454"><ele>91.42857142857142</ele><time>2026-04-12T11:36:49Z</time></trkpt><trkpt lat="44.29526298691754" lon="11.64252073607602"><ele>91.14285714285714</ele><time>2026-04-12T11:36:50Z</time></trkpt><trkpt lat="44.295317265304746" lon="11.642471856466836"><ele>90.85714285714286</ele><time>2026-04-12T11:36:51Z</time></trkpt><trkpt lat="44.29537411057546" lon="11.642420665452766"><ele>90.57142857142858</ele><time>2026-04-12T11:36:52Z</time></trkpt><trkpt lat="44.2954241020503" lon="11.642349507984644"><ele>90.28571428571428</ele><time>2026-04-12T11:36:53Z</time></trkpt><trkpt lat="44.295478967315034" lon="11.642300173142033"><ele>90.0</ele><time>2026-04-12T11:36:54Z</time></trkpt><trkpt lat="44.29553665282603" lon="11.642248385635053"><ele>89.42857142857143</ele><time>2026-04-12T11:36:55Z</time></trkpt><trkpt lat="44.29559834688627" lon="11.64219950165852"><ele>88.85714285714286</ele><time>2026-04-12T11:36:56Z</time></trkpt><trkpt lat="44.29566398114634" lon="11.642155466750586"><ele>88.28571428571429</ele><time>2026-04-12T11:36:57Z</time></trkpt><trkpt lat="44.29573439543268" lon="11.642130898860872"><ele>87.71428571428572</ele><time>2026-04-12T11:36:58Z</time></trkpt><trkpt lat="44.29580788082038" lon="11.642135878762048"><ele>87.14285714285714</ele><time>2026-04-12T11:36:59Z</time></trkpt><trkpt lat="44.29588279137873" lon="11.64216084989362"><ele>86.57142857142858</ele><time>2026-04-12T11:37:00Z</time></trkpt><trkpt lat="44.295949280254256" lon="11.64220297579785"><ele>86.0</ele><time>2026-04-12T11:37:01Z</time></trkpt><trkpt lat="44.29600862939029" lon="11.642272390116176"><ele>86.00000000000001</ele><time>2026-04-12T11:37:02Z</time></trkpt><trkpt lat="44.29607693934021" lon="11.642322934902179"><ele>86.0</ele><time>2026-04-12T11:37:03Z</time></trkpt><trkpt lat="44.296145019094176" lon="11.642362642061556"><ele>86.0</ele><time>2026-04-12T11:37:04Z</time></trkpt><trkpt lat="44.29621182995858" lon="11.642406734912655"><ele>86.0</ele><time>2026-04-12T11:37:05Z</time></trkpt><trkpt lat="44.2962741510024" lon="11.64245054730499"><ele>86.0</ele><time>2026-04-12T11:37:06Z</time></trkpt><trkpt lat="44.296335480148905" lon="11.642494733457205"><ele>86.00000000000001</ele><time>2026-04-12T11:37:07Z</time></trkpt><trkpt lat="44.2964004730089" lon="11.642544747394998"><ele>86.0</ele><time>2026-04-12T11:37:07.999Z</time></trkpt><trkpt lat="44.296466573398874" lon="11.642592430253098"><ele>85.83333333333334</ele><time>2026-04-12T11:37:08.999Z</time></trkpt><trkpt lat="44.296531376598416" lon="11.642642905742585"><ele>85.66666666666667</ele><time>2026-04-12T11:37:09.999Z</time></trkpt><trkpt lat="44.296599295977245" lon="11.642687968810925"><ele>85.5</ele><time>2026-04-12T11:37:10.999Z</time></trkpt><trkpt lat="44.2966676895907" lon="11.64274380795781"><ele>85.33333333333333</ele><time>2026-04-12T11:37:11.999Z</time></trkpt><trkpt lat="44.296737509282025" lon="11.642794485427565"><ele>85.16666666666666</ele><time>2026-04-12T11:37:12.999Z</time></trkpt><trkpt lat="44.29681637449502" lon="11.642842620371951"><ele>85.0</ele><time>2026-04-12T11:37:13.999Z</time></trkpt><trkpt lat="44.29689518432778" lon="11.642896242979608"><ele>85.5</ele><time>2026-04-12T11:37:14.999Z</time></trkpt><trkpt lat="44.29696971275526" lon="11.64295344025417"><ele>86.0</ele><time>2026-04-12T11:37:15.999Z</time></trkpt><trkpt lat="44.29704648039451" lon="11.643009661247373"><ele>86.5</ele><time>2026-04-12T11:37:16.999Z</time></trkpt><trkpt lat="44.29712349796328" lon="11.643064091137047"><ele>87.0</ele><time>2026-04-12T11:37:17.999Z</time></trkpt><trkpt lat="44.297204134616116" lon="11.643119456991815"><ele>87.5</ele><time>2026-04-12T11:37:18.999Z</time></trkpt><trkpt lat="44.29728416250387" lon="11.643176102706386"><ele>88.0</ele><time>2026-04-12T11:37:19.999Z</time></trkpt><trkpt lat="44.297354727901094" lon="11.643249472806266"><ele>86.80000000000001</ele><time>2026-04-12T11:37:20.999Z</time></trkpt><trkpt lat="44.297444836600576" lon="11.64329100716507"><ele>85.6</ele><time>2026-04-12T11:37:21.999Z</time></trkpt><trkpt lat="44.29752109055369" lon="11.643365217686528"><ele>84.4</ele><time>2026-04-12T11:37:22.999Z</time></trkpt><trkpt lat="44.297602235946826" lon="11.643431270512316"><ele>83.19999999999999</ele><time>2026-04-12T11:37:23.999Z</time></trkpt><trkpt lat="44.29768294466089" lon="11.643495244382704"><ele>82.0</ele><time>2026-04-12T11:37:24.999Z</time></trkpt><trkpt lat="44.29777041314475" lon="11.643557818451125"><ele>82.0</ele><time>2026-04-12T11:37:25.999Z</time></trkpt><trkpt lat="44.297860319597284" lon="11.643618886490842"><ele>82.0</ele><time>2026-04-12T11:37:27Z</time></trkpt><trkpt lat="44.29794666588669" lon="11.643676026151109"><ele>82.0</ele><time>2026-04-12T11:37:28Z</time></trkpt><trkpt lat="44.298038311094395" lon="11.643690634686871"><ele>82.0</ele><time>2026-04-12T11:37:29Z</time></trkpt><trkpt lat="44.29813690564927" lon="11.64365183883205"><ele>82.0</ele><time>2026-04-12T11:37:30Z</time></trkpt><trkpt lat="44.2982224687055" lon="11.643569955683779"><ele>78.8</ele><time>2026-04-12T11:37:31Z</time></trkpt><trkpt lat="44.29830049547859" lon="11.643450996538872"><ele>75.6</ele><time>2026-04-12T11:37:32Z</time></trkpt><trkpt lat="44.29834488557513" lon="11.643345896824934"><ele>72.39999999999999</ele><time>2026-04-12T11:37:33Z</time></trkpt><trkpt lat="44.29842461094113" lon="11.643265111945421"><ele>69.19999999999999</ele><time>2026-04-12T11:37:34Z</time></trkpt><trkpt lat="44.29848801357712" lon="11.643168169984753"><ele>66.0</ele><time>2026-04-12T11:37:35Z</time></trkpt><trkpt lat="44.298551324134074" lon="11.643071368645579"><ele>66.0</ele><time>2026-04-12T11:37:36Z</time></trkpt><trkpt lat="44.2986074386261" lon="11.642985777472537"><ele>66.0</ele><time>2026-04-12T11:37:37Z</time></trkpt><trkpt lat="44.29866515687679" lon="11.642897914690717"><ele>66.0</ele><time>2026-04-12T11:37:38Z</time></trkpt><trkpt lat="44.29872134913529" lon="11.642812469071886"><ele>66.0</ele><time>2026-04-12T11:37:39Z</time></trkpt><trkpt lat="44.29878046638126" lon="11.64272347180629"><ele>66.0</ele><time>2026-04-12T11:37:40Z</time></trkpt><trkpt lat="44.29883659737998" lon="11.642638970137273"><ele>66.0</ele><time>2026-04-12T11:37:41Z</time></trkpt><trkpt lat="44.2988933148071" lon="11.642553585520467"><ele>65.33333333333333</ele><time>2026-04-12T11:37:42Z</time></trkpt><trkpt lat="44.298949930725044" lon="11.642468353921046"><ele>64.66666666666667</ele><time>2026-04-12T11:37:43Z</time></trkpt><trkpt lat="44.299003222588624" lon="11.64238817463685"><ele>64.0</ele><time>2026-04-12T11:37:44Z</time></trkpt><trkpt lat="44.29904979578642" lon="11.642295871531717"><ele>63.333333333333336</ele><time>2026-04-12T11:37:45Z</time></trkpt><trkpt lat="44.29909991419711" lon="11.642215247279923"><ele>62.66666666666667</ele><time>2026-04-12T11:37:46Z</time></trkpt><trkpt lat="44.29915419457032" lon="11.642131725424969"><ele>62.0</ele><time>2026-04-12T11:37:47Z</time></trkpt><trkpt lat="44.29920945072488" lon="11.64204856365381"><ele>62.66666666666667</ele><time>2026-04-12T11:37:48Z</time></trkpt><trkpt lat="44.29926437396609" lon="11.641964862648791"><ele>63.333333333333336</ele><time>2026-04-12T11:37:49Z</time></trkpt><trkpt lat="44.29931796427396" lon="11.641883140383381"><ele>64.0</ele><time>2026-04-12T11:37:50Z</time></trkpt><trkpt lat="44.29937407885516" lon="11.641801402640882"><ele>64.66666666666667</ele><time>2026-04-12T11:37:51Z</time></trkpt><trkpt lat="44.299425977754964" lon="11.641711718085544"><ele>65.33333333333333</ele><time>2026-04-12T11:37:52Z</time></trkpt><trkpt lat="44.299479188309775" lon="11.641624856874023"><ele>66.0</ele><time>2026-04-12T11:37:53Z</time></trkpt><trkpt lat="44.29953510801905" lon="11.641540893582986"><ele>66.0</ele><time>2026-04-12T11:37:54Z</time></trkpt><trkpt lat="44.299585794029596" lon="11.641463981326549"><ele>66.0</ele><time>2026-04-12T11:37:55Z</time></trkpt><trkpt lat="44.29963934517015" lon="11.641390852915704"><ele>66.0</ele><time>2026-04-12T11:37:56Z</time></trkpt><trkpt lat="44.29968504916375" lon="11.641316337556573"><ele>66.0</ele><time>2026-04-12T11:37:57Z</time></trkpt><trkpt lat="44.29973222050125" lon="11.64124907407808"><ele>66.0</ele><time>2026-04-12T11:37:58Z</time></trkpt><trkpt lat="44.29977754850014" lon="11.6411847212568"><ele>66.0</ele><time>2026-04-12T11:37:59Z</time></trkpt><trkpt lat="44.29985857766591" lon="11.641055000927203"><ele>66.25</ele><time>2026-04-12T11:38:01Z</time></trkpt><trkpt lat="44.29994251745853" lon="11.640941688304762"><ele>66.5</ele><time>2026-04-12T11:38:03Z</time></trkpt><trkpt lat="44.30000612639287" lon="11.640878269726235"><ele>66.75</ele><time>2026-04-12T11:38:05Z</time></trkpt><trkpt lat="44.30005199735343" lon="11.640816434802842"><ele>67.0</ele><time>2026-04-12T11:38:07Z</time></trkpt><trkpt lat="44.30030790999335" lon="11.640979222197757"><ele>67.0</ele><time>2026-04-12T11:38:09Z</time></trkpt><trkpt lat="44.30043258229504" lon="11.64099471769109"><ele>67.0</ele><time>2026-04-12T11:38:11Z</time></trkpt><trkpt lat="44.300556629477995" lon="11.641002485879346"><ele>67.0</ele><time>2026-04-12T11:38:13Z</time></trkpt><trkpt lat="44.300681349614685" lon="11.641007242597517"><ele>67.0</ele><time>2026-04-12T11:38:15Z</time></trkpt><trkpt lat="44.300804229482864" lon="11.641015427478552"><ele>67.0</ele><time>2026-04-12T11:38:17Z</time></trkpt><trkpt lat="44.30092581963204" lon="11.641025345614514"><ele>67.0</ele><time>2026-04-12T11:38:19Z</time></trkpt><trkpt lat="44.30105092672507" lon="11.641034114696929"><ele>67.0</ele><time>2026-04-12T11:38:21Z</time></trkpt><trkpt lat="44.30116971474354" lon="11.641047145365137"><ele>67.0</ele><time>2026-04-12T11:38:23Z</time></trkpt><trkpt lat="44.30128943492937" lon="11.641051456331658"><ele>67.0</ele><time>2026-04-12T11:38:25Z</time></trkpt><trkpt lat="44.30135246874587" lon="11.641057686421684"><ele>67.0</ele><time>2026-04-12T11:38:26Z</time></trkpt><trkpt lat="44.30147519979575" lon="11.64106007999745"><ele>67.0</ele><time>2026-04-12T11:38:28Z</time></trkpt><trkpt lat="44.301587030549754" lon="11.641070160258963"><ele>67.0</ele><time>2026-04-12T11:38:30Z</time></trkpt><trkpt lat="44.30168848755879" lon="11.641074139242216"><ele>67.0</ele><time>2026-04-12T11:38:32Z</time></trkpt><trkpt lat="44.301804794769915" lon="11.641078857903551"><ele>66.75</ele><time>2026-04-12T11:38:34Z</time></trkpt><trkpt lat="44.30192509937862" lon="11.641087624636917"><ele>66.5</ele><time>2026-04-12T11:38:36Z</time></trkpt><trkpt lat="44.30204859373051" lon="11.641095627587994"><ele>66.25</ele><time>2026-04-12T11:38:38Z</time></trkpt><trkpt lat="44.302174129016116" lon="11.641102597981565"><ele>66.0</ele><time>2026-04-12T11:38:40Z</time></trkpt><trkpt lat="44.302298779553404" lon="11.641111130138803"><ele>65.83333333333333</ele><time>2026-04-12T11:38:42Z</time></trkpt><trkpt lat="44.3023636186497" lon="11.641115657156794"><ele>65.66666666666667</ele><time>2026-04-12T11:38:43Z</time></trkpt><trkpt lat="44.30249043347251" lon="11.641121007674291"><ele>65.5</ele><time>2026-04-12T11:38:45Z</time></trkpt><trkpt lat="44.302554761834806" lon="11.641121448150033"><ele>65.33333333333334</ele><time>2026-04-12T11:38:46Z</time></trkpt><trkpt lat="44.30267871857438" lon="11.641126311838201"><ele>65.16666666666667</ele><time>2026-04-12T11:38:48Z</time></trkpt><trkpt lat="44.302742470906864" lon="11.641129056166582"><ele>65.0</ele><time>2026-04-12T11:38:49Z</time></trkpt><trkpt lat="44.3028053348479" lon="11.641134107409181"><ele>65.0</ele><time>2026-04-12T11:38:50Z</time></trkpt><trkpt lat="44.30286992371037" lon="11.641140263486115"><ele>65.0</ele><time>2026-04-12T11:38:51Z</time></trkpt><trkpt lat="44.302988214665554" lon="11.641143435842281"><ele>65.0</ele><time>2026-04-12T11:38:53Z</time></trkpt><trkpt lat="44.303082063417946" lon="11.641207289208156"><ele>65.0</ele><time>2026-04-12T11:38:55Z</time></trkpt><trkpt lat="44.30304068458669" lon="11.641350361460232"><ele>65.0</ele><time>2026-04-12T11:38:57Z</time></trkpt><trkpt lat="44.30293631313891" lon="11.641413694392075"><ele>65.0</ele><time>2026-04-12T11:38:59Z</time></trkpt><trkpt lat="44.302852065188524" lon="11.64153725701332"><ele>65.0</ele><time>2026-04-12T11:39:01Z</time></trkpt><trkpt lat="44.30280763140308" lon="11.641610647026447"><ele>65.0</ele><time>2026-04-12T11:39:02Z</time></trkpt><trkpt lat="44.30276221804208" lon="11.64168491083553"><ele>65.0</ele><time>2026-04-12T11:39:03Z</time></trkpt><trkpt lat="44.30271429831767" lon="11.64175896017037"><ele>65.0</ele><time>2026-04-12T11:39:04Z</time></trkpt><trkpt lat="44.302671794781496" lon="11.641840322147699"><ele>65.0</ele><time>2026-04-12T11:39:05Z</time></trkpt><trkpt lat="44.30264483642623" lon="11.641927507772028"><ele>64.85714285714286</ele><time>2026-04-12T11:39:06Z</time></trkpt><trkpt lat="44.30259792241187" lon="11.641999581210605"><ele>64.71428571428572</ele><time>2026-04-12T11:39:07Z</time></trkpt><trkpt lat="44.302553503004944" lon="11.642073084117035"><ele>64.57142857142857</ele><time>2026-04-12T11:39:08Z</time></trkpt><trkpt lat="44.30250841451934" lon="11.642147706133454"><ele>64.42857142857143</ele><time>2026-04-12T11:39:09Z</time></trkpt><trkpt lat="44.30246220551586" lon="11.642224287779916"><ele>64.28571428571428</ele><time>2026-04-12T11:39:10Z</time></trkpt><trkpt lat="44.30241430524369" lon="11.642303672254107"><ele>64.14285714285714</ele><time>2026-04-12T11:39:11Z</time></trkpt><trkpt lat="44.3023624343122" lon="11.64238963709279"><ele>64.0</ele><time>2026-04-12T11:39:11.999Z</time></trkpt><trkpt lat="44.30232457032612" lon="11.642486386369754"><ele>63.99999999999999</ele><time>2026-04-12T11:39:12.999Z</time></trkpt><trkpt lat="44.3022653676784" lon="11.642550504366477"><ele>64.0</ele><time>2026-04-12T11:39:13.999Z</time></trkpt><trkpt lat="44.302219367815574" lon="11.642626739491579"><ele>64.0</ele><time>2026-04-12T11:39:14.999Z</time></trkpt><trkpt lat="44.302176492977914" lon="11.642697795395712"><ele>64.0</ele><time>2026-04-12T11:39:15.999Z</time></trkpt><trkpt lat="44.30213566196076" lon="11.642765464101618"><ele>63.99999999999999</ele><time>2026-04-12T11:39:16.999Z</time></trkpt><trkpt lat="44.302053801146705" lon="11.642901130862988"><ele>64.0</ele><time>2026-04-12T11:39:18.999Z</time></trkpt><trkpt lat="44.30197501217673" lon="11.643031709190819"><ele>63.75</ele><time>2026-04-12T11:39:20.999Z</time></trkpt><trkpt lat="44.30190883586018" lon="11.64314148082609"><ele>63.5</ele><time>2026-04-12T11:39:22.999Z</time></trkpt><trkpt lat="44.30186842605375" lon="11.643240703171868"><ele>63.25</ele><time>2026-04-12T11:39:24.999Z</time></trkpt><trkpt lat="44.30204837056334" lon="11.64349712791029"><ele>63.0</ele><time>2026-04-12T11:39:26.999Z</time></trkpt><trkpt lat="44.30211675874858" lon="11.643641696636132"><ele>63.0</ele><time>2026-04-12T11:39:28.999Z</time></trkpt><trkpt lat="44.30214782405946" lon="11.643720636810983"><ele>63.0</ele><time>2026-04-12T11:39:29.999Z</time></trkpt><trkpt lat="44.30218215377907" lon="11.643796111783958"><ele>63.0</ele><time>2026-04-12T11:39:30.999Z</time></trkpt><trkpt lat="44.302218413242166" lon="11.643876337078893"><ele>63.0</ele><time>2026-04-12T11:39:31.999Z</time></trkpt><trkpt lat="44.302249364273834" lon="11.643953649466656"><ele>63.0</ele><time>2026-04-12T11:39:33Z</time></trkpt><trkpt lat="44.302284788202385" lon="11.644031968838483"><ele>63.0</ele><time>2026-04-12T11:39:34Z</time></trkpt><trkpt lat="44.30232057204426" lon="11.644110759692767"><ele>63.0</ele><time>2026-04-12T11:39:35Z</time></trkpt><trkpt lat="44.30235339894057" lon="11.644193227352782"><ele>62.85714285714286</ele><time>2026-04-12T11:39:36Z</time></trkpt><trkpt lat="44.302389154430095" lon="11.644272033179528"><ele>62.714285714285715</ele><time>2026-04-12T11:39:37Z</time></trkpt><trkpt lat="44.30242661132909" lon="11.644355565644387"><ele>62.57142857142857</ele><time>2026-04-12T11:39:38Z</time></trkpt><trkpt lat="44.302464605489234" lon="11.644440956163088"><ele>62.42857142857143</ele><time>2026-04-12T11:39:39Z</time></trkpt><trkpt lat="44.30250024115196" lon="11.644520222164603"><ele>62.28571428571429</ele><time>2026-04-12T11:39:40Z</time></trkpt><trkpt lat="44.30253545287573" lon="11.644607905726517"><ele>62.142857142857146</ele><time>2026-04-12T11:39:41Z</time></trkpt><trkpt lat="44.30257243179414" lon="11.644693292394225"><ele>62.0</ele><time>2026-04-12T11:39:42Z</time></trkpt><trkpt lat="44.30260777266487" lon="11.644775312936352"><ele>62.0</ele><time>2026-04-12T11:39:43Z</time></trkpt><trkpt lat="44.30264184255972" lon="11.644858270749427"><ele>62.00000000000001</ele><time>2026-04-12T11:39:44Z</time></trkpt><trkpt lat="44.302676108973635" lon="11.64494072171674"><ele>62.0</ele><time>2026-04-12T11:39:45Z</time></trkpt><trkpt lat="44.30271330396274" lon="11.64502522812574"><ele>62.0</ele><time>2026-04-12T11:39:46Z</time></trkpt><trkpt lat="44.302747937153235" lon="11.645108089501097"><ele>62.00000000000001</ele><time>2026-04-12T11:39:47Z</time></trkpt><trkpt lat="44.302782143375886" lon="11.645190646174477"><ele>62.0</ele><time>2026-04-12T11:39:48Z</time></trkpt><trkpt lat="44.30281839939188" lon="11.645273914324124"><ele>62.0</ele><time>2026-04-12T11:39:49Z</time></trkpt><trkpt lat="44.302852364607155" lon="11.645356420693219"><ele>62.0</ele><time>2026-04-12T11:39:50Z</time></trkpt><trkpt lat="44.30288737771488" lon="11.645438610028377"><ele>62.00000000000001</ele><time>2026-04-12T11:39:51Z</time></trkpt><trkpt lat="44.302919235200434" lon="11.64552417252668"><ele>62.0</ele><time>2026-04-12T11:39:52Z</time></trkpt><trkpt lat="44.302946872734545" lon="11.645608239954646"><ele>62.0</ele><time>2026-04-12T11:39:53Z</time></trkpt><trkpt lat="44.30298279889249" lon="11.645686275611071"><ele>62.00000000000001</ele><time>2026-04-12T11:39:54Z</time></trkpt><trkpt lat="44.30304652784073" lon="11.645712245843903"><ele>62.0</ele><time>2026-04-12T11:39:55Z</time></trkpt><trkpt lat="44.3031130253946" lon="11.645682442840652"><ele>62.0</ele><time>2026-04-12T11:39:56Z</time></trkpt><trkpt lat="44.30316819941178" lon="11.645616744299588"><ele>61.8</ele><time>2026-04-12T11:39:57Z</time></trkpt><trkpt lat="44.303218888409454" lon="11.645551834226671"><ele>61.6</ele><time>2026-04-12T11:39:58Z</time></trkpt><trkpt lat="44.30327387280631" lon="11.645499031365798"><ele>61.39999999999999</ele><time>2026-04-12T11:39:59Z</time></trkpt><trkpt lat="44.30332744707002" lon="11.645434858246208"><ele>61.199999999999996</ele><time>2026-04-12T11:40:00Z</time></trkpt><trkpt lat="44.30348934211458" lon="11.645544320820216"><ele>61.0</ele><time>2026-04-12T11:40:01Z</time></trkpt><trkpt lat="44.30353771613428" lon="11.645483907215722"><ele>60.99999999999999</ele><time>2026-04-12T11:40:02Z</time></trkpt><trkpt lat="44.30358834420121" lon="11.645420964733104"><ele>61.0</ele><time>2026-04-12T11:40:03Z</time></trkpt><trkpt lat="44.30364008180362" lon="11.645356643100918"><ele>60.99999999999999</ele><time>2026-04-12T11:40:04Z</time></trkpt><trkpt lat="44.303693002807535" lon="11.645290850169024"><ele>60.99999999999999</ele><time>2026-04-12T11:40:05Z</time></trkpt><trkpt lat="44.30374232014308" lon="11.645229538213316"><ele>61.0</ele><time>2026-04-12T11:40:06Z</time></trkpt><trkpt lat="44.303792321808" lon="11.645171176945391"><ele>60.99999999999999</ele><time>2026-04-12T11:40:07Z</time></trkpt><trkpt lat="44.30384158116899" lon="11.645112613801862"><ele>60.99999999999999</ele><time>2026-04-12T11:40:08Z</time></trkpt><trkpt lat="44.30389578824567" lon="11.645048391106004"><ele>61.8</ele><time>2026-04-12T11:40:09Z</time></trkpt><trkpt lat="44.30394852066871" lon="11.644986317618024"><ele>62.599999999999994</ele><time>2026-04-12T11:40:10Z</time></trkpt><trkpt lat="44.304041589103264" lon="11.644887669236615"><ele>63.4</ele><time>2026-04-12T11:40:12Z</time></trkpt><trkpt lat="44.304131082574266" lon="11.644795461927597"><ele>64.2</ele><time>2026-04-12T11:40:14Z</time></trkpt><trkpt lat="44.30408505456341" lon="11.644660577102892"><ele>65.0</ele><time>2026-04-12T11:40:16Z</time></trkpt><trkpt lat="44.30413072778672" lon="11.644722038463986"><ele>65.00000000000001</ele><time>2026-04-12T11:40:17Z</time></trkpt><trkpt lat="44.30417841041211" lon="11.644786205070142"><ele>65.0</ele><time>2026-04-12T11:40:18Z</time></trkpt><trkpt lat="44.30423929840702" lon="11.64483304540665"><ele>65.0</ele><time>2026-04-12T11:40:19Z</time></trkpt><trkpt lat="44.30429263305784" lon="11.64489603144315"><ele>65.0</ele><time>2026-04-12T11:40:20Z</time></trkpt><trkpt lat="44.304348585948006" lon="11.644953870148465"><ele>65.0</ele><time>2026-04-12T11:40:21Z</time></trkpt><trkpt lat="44.30440903524411" lon="11.645002734561828"><ele>65.00000000000001</ele><time>2026-04-12T11:40:22Z</time></trkpt><trkpt lat="44.30447432388245" lon="11.645044098092477"><ele>65.0</ele><time>2026-04-12T11:40:23Z</time></trkpt><trkpt lat="44.304535471686535" lon="11.645083287896341"><ele>65.00000000000001</ele><time>2026-04-12T11:40:24Z</time></trkpt><trkpt lat="44.30459944248434" lon="11.645114521425459"><ele>65.0</ele><time>2026-04-12T11:40:25Z</time></trkpt><trkpt lat="44.304663556776845" lon="11.645126083967781"><ele>65.0</ele><time>2026-04-12T11:40:26Z</time></trkpt><trkpt lat="44.3047253015502" lon="11.645181657498748"><ele>65.0</ele><time>2026-04-12T11:40:27Z</time></trkpt><trkpt lat="44.304792102570424" lon="11.645215364815742"><ele>65.0</ele><time>2026-04-12T11:40:28Z</time></trkpt><trkpt lat="44.30485648774359" lon="11.645244639030881"><ele>65.00000000000001</ele><time>2026-04-12T11:40:29Z</time></trkpt><trkpt lat="44.30493279318741" lon="11.645242781071264"><ele>65.0</ele><time>2026-04-12T11:40:30Z</time></trkpt><trkpt lat="44.30500077399819" lon="11.645265049310858"><ele>64.85714285714286</ele><time>2026-04-12T11:40:31Z</time></trkpt><trkpt lat="44.305069042694186" lon="11.645272231348956"><ele>64.71428571428572</ele><time>2026-04-12T11:40:32Z</time></trkpt><trkpt lat="44.30514273946986" lon="11.645272010046792"><ele>64.57142857142857</ele><time>2026-04-12T11:40:33Z</time></trkpt><trkpt lat="44.30520862942917" lon="11.64529389594696"><ele>64.42857142857143</ele><time>2026-04-12T11:40:34Z</time></trkpt><trkpt lat="44.305276591862224" lon="11.645294716605138"><ele>64.28571428571428</ele><time>2026-04-12T11:40:35Z</time></trkpt><trkpt lat="44.30535013067901" lon="11.645295604596146"><ele>64.14285714285714</ele><time>2026-04-12T11:40:36Z</time></trkpt><trkpt lat="44.30542184153333" lon="11.645296952137818"><ele>64.0</ele><time>2026-04-12T11:40:37Z</time></trkpt><trkpt lat="44.30548948251269" lon="11.645299847947667"><ele>64.0</ele><time>2026-04-12T11:40:38Z</time></trkpt><trkpt lat="44.305555045379" lon="11.645280762582153"><ele>63.99999999999999</ele><time>2026-04-12T11:40:39Z</time></trkpt><trkpt lat="44.30562949133548" lon="11.645297375274161"><ele>64.0</ele><time>2026-04-12T11:40:40Z</time></trkpt><trkpt lat="44.305696820739435" lon="11.645311251576297"><ele>64.0</ele><time>2026-04-12T11:40:41Z</time></trkpt><trkpt lat="44.305770345044856" lon="11.645334893498159"><ele>63.99999999999999</ele><time>2026-04-12T11:40:42Z</time></trkpt><trkpt lat="44.30583649476836" lon="11.645386926352572"><ele>64.0</ele><time>2026-04-12T11:40:43Z</time></trkpt><trkpt lat="44.30589989675544" lon="11.645405147277982"><ele>64.0</ele><time>2026-04-12T11:40:44Z</time></trkpt><trkpt lat="44.30596542864392" lon="11.645437854035663"><ele>63.99999999999999</ele><time>2026-04-12T11:40:45Z</time></trkpt><trkpt lat="44.3060229482841" lon="11.645479411991309"><ele>64.0</ele><time>2026-04-12T11:40:46Z</time></trkpt><trkpt lat="44.306082605025736" lon="11.645508374452133"><ele>64.0</ele><time>2026-04-12T11:40:47Z</time></trkpt><trkpt lat="44.30620216906387" lon="11.645586629182677"><ele>64.0</ele><time>2026-04-12T11:40:49Z</time></trkpt><trkpt lat="44.30626809595557" lon="11.645590309050482"><ele>63.99999999999999</ele><time>2026-04-12T11:40:50Z</time></trkpt><trkpt lat="44.306336423019786" lon="11.645564790029608"><ele>64.0</ele><time>2026-04-12T11:40:51Z</time></trkpt><trkpt lat="44.306437530757165" lon="11.645506280415896"><ele>64.0</ele><time>2026-04-12T11:40:53Z</time></trkpt><trkpt lat="44.30635257128141" lon="11.64582713754846"><ele>64.0</ele><time>2026-04-12T11:40:59Z</time></trkpt><trkpt lat="44.30631708253127" lon="11.645908189642656"><ele>64.0</ele><time>2026-04-12T11:41:00Z</time></trkpt><trkpt lat="44.30627809277962" lon="11.645987314333592"><ele>64.0</ele><time>2026-04-12T11:41:01Z</time></trkpt><trkpt lat="44.306232887810076" lon="11.646065895577596"><ele>63.83333333333333</ele><time>2026-04-12T11:41:02Z</time></trkpt><trkpt lat="44.30618852922045" lon="11.646148220273702"><ele>63.666666666666664</ele><time>2026-04-12T11:41:03Z</time></trkpt><trkpt lat="44.306142468150775" lon="11.646227128898113"><ele>63.5</ele><time>2026-04-12T11:41:04Z</time></trkpt><trkpt lat="44.30609833733732" lon="11.646300456149792"><ele>63.33333333333333</ele><time>2026-04-12T11:41:05Z</time></trkpt><trkpt lat="44.30607256642457" lon="11.646384764703127"><ele>63.166666666666664</ele><time>2026-04-12T11:41:06Z</time></trkpt><trkpt lat="44.30611782093754" lon="11.646541832300917"><ele>63.0</ele><time>2026-04-12T11:41:07.999Z</time></trkpt><trkpt lat="44.306176037254644" lon="11.646599253848612"><ele>63.0</ele><time>2026-04-12T11:41:08.999Z</time></trkpt><trkpt lat="44.30623542503449" lon="11.646656808517672"><ele>63.0</ele><time>2026-04-12T11:41:09.999Z</time></trkpt><trkpt lat="44.30628926286116" lon="11.646729363416181"><ele>63.0</ele><time>2026-04-12T11:41:10.999Z</time></trkpt><trkpt lat="44.30634323245377" lon="11.646802746403745"><ele>63.0</ele><time>2026-04-12T11:41:11.999Z</time></trkpt><trkpt lat="44.30639862187737" lon="11.646873660786364"><ele>63.0</ele><time>2026-04-12T11:41:12.999Z</time></trkpt><trkpt lat="44.306451322070764" lon="11.646943559601201"><ele>63.0</ele><time>2026-04-12T11:41:13.999Z</time></trkpt><trkpt lat="44.30650698735581" lon="11.647011720467958"><ele>63.0</ele><time>2026-04-12T11:41:14.999Z</time></trkpt><trkpt lat="44.30656093158888" lon="11.647082785020062"><ele>62.85714285714286</ele><time>2026-04-12T11:41:15.999Z</time></trkpt><trkpt lat="44.30661437942675" lon="11.647156005727883"><ele>62.714285714285715</ele><time>2026-04-12T11:41:16.999Z</time></trkpt><trkpt lat="44.30667038375562" lon="11.647225421905024"><ele>62.57142857142857</ele><time>2026-04-12T11:41:17.999Z</time></trkpt><trkpt lat="44.30672748290343" lon="11.647295444126865"><ele>62.42857142857143</ele><time>2026-04-12T11:41:18.999Z</time></trkpt><trkpt lat="44.306782710305185" lon="11.647366696259368"><ele>62.28571428571429</ele><time>2026-04-12T11:41:19.999Z</time></trkpt><trkpt lat="44.306837105233754" lon="11.647435911483981"><ele>62.142857142857146</ele><time>2026-04-12T11:41:20.999Z</time></trkpt><trkpt lat="44.30689042977695" lon="11.64750727528982"><ele>62.0</ele><time>2026-04-12T11:41:21.999Z</time></trkpt><trkpt lat="44.30694341085659" lon="11.647578251126781"><ele>62.00000000000001</ele><time>2026-04-12T11:41:22.999Z</time></trkpt><trkpt lat="44.306999256813995" lon="11.647648980270272"><ele>62.0</ele><time>2026-04-12T11:41:23.999Z</time></trkpt><trkpt lat="44.30705485860838" lon="11.64772055115968"><ele>62.0</ele><time>2026-04-12T11:41:24.999Z</time></trkpt><trkpt lat="44.307110215278406" lon="11.647794266430935"><ele>62.0</ele><time>2026-04-12T11:41:25.999Z</time></trkpt><trkpt lat="44.30716595653612" lon="11.647865213834558"><ele>62.00000000000001</ele><time>2026-04-12T11:41:26.999Z</time></trkpt><trkpt lat="44.307219419685154" lon="11.64793691550116"><ele>62.0</ele><time>2026-04-12T11:41:27.999Z</time></trkpt><trkpt lat="44.30727305235454" lon="11.648010000751611"><ele>62.142857142857146</ele><time>2026-04-12T11:41:28.999Z</time></trkpt><trkpt lat="44.30732756007689" lon="11.64807594937101"><ele>62.28571428571429</ele><time>2026-04-12T11:41:29.999Z</time></trkpt><trkpt lat="44.30737847950601" lon="11.648144203582675"><ele>62.42857142857143</ele><time>2026-04-12T11:41:30.999Z</time></trkpt><trkpt lat="44.30742957251468" lon="11.648214369785974"><ele>62.57142857142857</ele><time>2026-04-12T11:41:31.999Z</time></trkpt><trkpt lat="44.307481296486266" lon="11.648280600160636"><ele>62.714285714285715</ele><time>2026-04-12T11:41:32.999Z</time></trkpt><trkpt lat="44.307529143024546" lon="11.64835301126708"><ele>62.85714285714286</ele><time>2026-04-12T11:41:33.999Z</time></trkpt><trkpt lat="44.30757793597392" lon="11.648423213225973"><ele>63.0</ele><time>2026-04-12T11:41:34.999Z</time></trkpt><trkpt lat="44.307636504472384" lon="11.648463971013815"><ele>63.0</ele><time>2026-04-12T11:41:35.999Z</time></trkpt><trkpt lat="44.307748310826305" lon="11.648401439830122"><ele>63.0</ele><time>2026-04-12T11:41:37.999Z</time></trkpt><trkpt lat="44.30778719461135" lon="11.648324400071969"><ele>63.0</ele><time>2026-04-12T11:41:39Z</time></trkpt><trkpt lat="44.30783502925369" lon="11.648263565676704"><ele>63.0</ele><time>2026-04-12T11:41:40Z</time></trkpt><trkpt lat="44.30794874529477" lon="11.648225434298647"><ele>63.0</ele><time>2026-04-12T11:41:42Z</time></trkpt><trkpt lat="44.308011560021164" lon="11.64836497669409"><ele>63.0</ele><time>2026-04-12T11:41:44Z</time></trkpt><trkpt lat="44.308022725652336" lon="11.648456989129414"><ele>63.0</ele><time>2026-04-12T11:41:45Z</time></trkpt><trkpt lat="44.3080268998817" lon="11.64854859973133"><ele>63.0</ele><time>2026-04-12T11:41:46Z</time></trkpt><trkpt lat="44.30802466848289" lon="11.648642241907826"><ele>63.0</ele><time>2026-04-12T11:41:47Z</time></trkpt><trkpt lat="44.308017919836345" lon="11.648738793375221"><ele>63.0</ele><time>2026-04-12T11:41:48Z</time></trkpt><trkpt lat="44.30800690831213" lon="11.648833010706689"><ele>63.0</ele><time>2026-04-12T11:41:49Z</time></trkpt><trkpt lat="44.307995911331375" lon="11.648930951918356"><ele>63.0</ele><time>2026-04-12T11:41:50Z</time></trkpt><trkpt lat="44.307989676165185" lon="11.64902820406508"><ele>63.0</ele><time>2026-04-12T11:41:51Z</time></trkpt><trkpt lat="44.307986646574506" lon="11.64912773239117"><ele>63.0</ele><time>2026-04-12T11:41:52Z</time></trkpt><trkpt lat="44.307986976383866" lon="11.649226876466143"><ele>63.0</ele><time>2026-04-12T11:41:53Z</time></trkpt><trkpt lat="44.30800572419739" lon="11.649325735812551"><ele>63.0</ele><time>2026-04-12T11:41:54Z</time></trkpt><trkpt lat="44.308041289082894" lon="11.649411689003255"><ele>63.0</ele><time>2026-04-12T11:41:55Z</time></trkpt><trkpt lat="44.30805383844143" lon="11.649530058897684"><ele>63.0</ele><time>2026-04-12T11:41:56Z</time></trkpt><trkpt lat="44.30809948824028" lon="11.649600583065139"><ele>63.0</ele><time>2026-04-12T11:41:57Z</time></trkpt><trkpt lat="44.308143984389666" lon="11.649677673721765"><ele>63.0</ele><time>2026-04-12T11:41:58Z</time></trkpt><trkpt lat="44.308185256625315" lon="11.64975619862338"><ele>63.0</ele><time>2026-04-12T11:41:59Z</time></trkpt><trkpt lat="44.30822363332993" lon="11.6498390624093"><ele>63.0</ele><time>2026-04-12T11:42:00Z</time></trkpt><trkpt lat="44.30826246261088" lon="11.649923272492774"><ele>63.0</ele><time>2026-04-12T11:42:01Z</time></trkpt><trkpt lat="44.3083020108442" lon="11.650009041593593"><ele>63.0</ele><time>2026-04-12T11:42:02Z</time></trkpt><trkpt lat="44.30833990385131" lon="11.650095326503095"><ele>63.0</ele><time>2026-04-12T11:42:03Z</time></trkpt><trkpt lat="44.30838543038041" lon="11.650179905825688"><ele>63.0</ele><time>2026-04-12T11:42:04Z</time></trkpt><trkpt lat="44.308431393357644" lon="11.650258249954913"><ele>63.0</ele><time>2026-04-12T11:42:05Z</time></trkpt><trkpt lat="44.30848925564562" lon="11.650327727331097"><ele>63.0</ele><time>2026-04-12T11:42:06Z</time></trkpt><trkpt lat="44.30854100379351" lon="11.650395826395664"><ele>63.0</ele><time>2026-04-12T11:42:07Z</time></trkpt><trkpt lat="44.308592878727396" lon="11.65046409207527"><ele>63.0</ele><time>2026-04-12T11:42:08Z</time></trkpt><trkpt lat="44.30864448793784" lon="11.650532006583544"><ele>63.0</ele><time>2026-04-12T11:42:09Z</time></trkpt><trkpt lat="44.308698903328114" lon="11.650601375312807"><ele>63.0</ele><time>2026-04-12T11:42:10Z</time></trkpt><trkpt lat="44.30874950195244" lon="11.650675360326348"><ele>63.0</ele><time>2026-04-12T11:42:11Z</time></trkpt><trkpt lat="44.30880008648438" lon="11.6507531110735"><ele>63.0</ele><time>2026-04-12T11:42:12Z</time></trkpt><trkpt lat="44.30884683192069" lon="11.650827059106014"><ele>63.0</ele><time>2026-04-12T11:42:13Z</time></trkpt><trkpt lat="44.30890043297049" lon="11.650895243700992"><ele>63.0</ele><time>2026-04-12T11:42:14Z</time></trkpt><trkpt lat="44.30894652178577" lon="11.650974528139736"><ele>63.0</ele><time>2026-04-12T11:42:15Z</time></trkpt><trkpt lat="44.30899019237946" lon="11.651057909320883"><ele>63.0</ele><time>2026-04-12T11:42:16Z</time></trkpt><trkpt lat="44.309035524317416" lon="11.651141150171606"><ele>63.0</ele><time>2026-04-12T11:42:17Z</time></trkpt><trkpt lat="44.309089553667675" lon="11.651210783110532"><ele>63.0</ele><time>2026-04-12T11:42:18Z</time></trkpt><trkpt lat="44.30912757115739" lon="11.651303674456306"><ele>62.714285714285715</ele><time>2026-04-12T11:42:19Z</time></trkpt><trkpt lat="44.309174862411645" lon="11.65138355909691"><ele>62.42857142857143</ele><time>2026-04-12T11:42:20Z</time></trkpt><trkpt lat="44.309225069284025" lon="11.651465216613477"><ele>62.14285714285714</ele><time>2026-04-12T11:42:21Z</time></trkpt><trkpt lat="44.309282769235224" lon="11.651519843700942"><ele>61.857142857142854</ele><time>2026-04-12T11:42:22Z</time></trkpt><trkpt lat="44.309321061678226" lon="11.651611346977383"><ele>61.57142857142857</ele><time>2026-04-12T11:42:23Z</time></trkpt><trkpt lat="44.309369382916856" lon="11.651683536734264"><ele>61.28571428571428</ele><time>2026-04-12T11:42:24Z</time></trkpt><trkpt lat="44.30941849153455" lon="11.651756901960088"><ele>60.99999999999999</ele><time>2026-04-12T11:42:25Z</time></trkpt><trkpt lat="44.30946911646261" lon="11.65183253240329"><ele>60.99999999999999</ele><time>2026-04-12T11:42:26Z</time></trkpt><trkpt lat="44.30953035927497" lon="11.6518912117855"><ele>61.0</ele><time>2026-04-12T11:42:27Z</time></trkpt><trkpt lat="44.30957079439237" lon="11.651980279091726"><ele>60.99999999999999</ele><time>2026-04-12T11:42:28Z</time></trkpt><trkpt lat="44.30963610542272" lon="11.652036702087356"><ele>60.99999999999999</ele><time>2026-04-12T11:42:29Z</time></trkpt><trkpt lat="44.309684705746356" lon="11.652103450886127"><ele>61.0</ele><time>2026-04-12T11:42:30Z</time></trkpt><trkpt lat="44.30974347166262" lon="11.652141922013085"><ele>60.99999999999999</ele><time>2026-04-12T11:42:31Z</time></trkpt><trkpt lat="44.30977507389093" lon="11.652236537834805"><ele>60.99999999999999</ele><time>2026-04-12T11:42:32Z</time></trkpt><trkpt lat="44.30981765317944" lon="11.65231475279923"><ele>60.83333333333333</ele><time>2026-04-12T11:42:33Z</time></trkpt><trkpt lat="44.309858386578824" lon="11.652398036171258"><ele>60.666666666666664</ele><time>2026-04-12T11:42:34Z</time></trkpt><trkpt lat="44.30990297844596" lon="11.652472818925014"><ele>60.5</ele><time>2026-04-12T11:42:35Z</time></trkpt><trkpt lat="44.30995175630621" lon="11.652554184146375"><ele>60.33333333333333</ele><time>2026-04-12T11:42:36Z</time></trkpt><trkpt lat="44.30999898727459" lon="11.652636980158126"><ele>60.166666666666664</ele><time>2026-04-12T11:42:37Z</time></trkpt><trkpt lat="44.310047138637344" lon="11.652725932722323"><ele>60.0</ele><time>2026-04-12T11:42:38Z</time></trkpt><trkpt lat="44.31010025067533" lon="11.652809736508257"><ele>60.0</ele><time>2026-04-12T11:42:39Z</time></trkpt><trkpt lat="44.31015256537024" lon="11.652899641415045"><ele>60.0</ele><time>2026-04-12T11:42:40Z</time></trkpt><trkpt lat="44.310199044302" lon="11.652986389898524"><ele>60.0</ele><time>2026-04-12T11:42:41Z</time></trkpt><trkpt lat="44.31024777384209" lon="11.653063563632296"><ele>60.0</ele><time>2026-04-12T11:42:42Z</time></trkpt><trkpt lat="44.3102980195848" lon="11.653148019311699"><ele>60.0</ele><time>2026-04-12T11:42:43Z</time></trkpt><trkpt lat="44.3103454891554" lon="11.653239119563022"><ele>60.0</ele><time>2026-04-12T11:42:44Z</time></trkpt><trkpt lat="44.310395070650344" lon="11.653324017399076"><ele>60.0</ele><time>2026-04-12T11:42:45Z</time></trkpt><trkpt lat="44.31044176748002" lon="11.65340899433723"><ele>60.0</ele><time>2026-04-12T11:42:46Z</time></trkpt><trkpt lat="44.3104876473167" lon="11.653494509449024"><ele>60.0</ele><time>2026-04-12T11:42:47Z</time></trkpt><trkpt lat="44.31053751327879" lon="11.65357879372405"><ele>60.0</ele><time>2026-04-12T11:42:48Z</time></trkpt><trkpt lat="44.31058895341671" lon="11.653658204311817"><ele>60.0</ele><time>2026-04-12T11:42:49Z</time></trkpt><trkpt lat="44.31063957598981" lon="11.653750080935847"><ele>60.0</ele><time>2026-04-12T11:42:50Z</time></trkpt><trkpt lat="44.31068080144699" lon="11.6538376744657"><ele>60.142857142857146</ele><time>2026-04-12T11:42:51Z</time></trkpt><trkpt lat="44.31072874865197" lon="11.653914460182312"><ele>60.28571428571428</ele><time>2026-04-12T11:42:52Z</time></trkpt><trkpt lat="44.31078042221688" lon="11.653992613089404"><ele>60.42857142857142</ele><time>2026-04-12T11:42:53Z</time></trkpt><trkpt lat="44.310829304629365" lon="11.654075911214923"><ele>60.57142857142857</ele><time>2026-04-12T11:42:54Z</time></trkpt><trkpt lat="44.31087391435099" lon="11.65415732705096"><ele>60.71428571428571</ele><time>2026-04-12T11:42:55Z</time></trkpt><trkpt lat="44.31092156076257" lon="11.654234495878534"><ele>60.85714285714285</ele><time>2026-04-12T11:42:56Z</time></trkpt><trkpt lat="44.31097003552512" lon="11.654311739186245"><ele>60.99999999999999</ele><time>2026-04-12T11:42:57Z</time></trkpt><trkpt lat="44.31101486457828" lon="11.654391271183048"><ele>60.85714285714285</ele><time>2026-04-12T11:42:58Z</time></trkpt><trkpt lat="44.311051759188985" lon="11.654466223296764"><ele>60.71428571428571</ele><time>2026-04-12T11:42:59Z</time></trkpt><trkpt lat="44.3111006258367" lon="11.65454646115495"><ele>60.57142857142857</ele><time>2026-04-12T11:42:59.999Z</time></trkpt><trkpt lat="44.31115256758387" lon="11.654628746225793"><ele>60.42857142857142</ele><time>2026-04-12T11:43:00.999Z</time></trkpt><trkpt lat="44.311186544179044" lon="11.654719001670225"><ele>60.28571428571428</ele><time>2026-04-12T11:43:01.999Z</time></trkpt><trkpt lat="44.311227563562156" lon="11.65480200929518"><ele>60.142857142857146</ele><time>2026-04-12T11:43:02.999Z</time></trkpt><trkpt lat="44.311270639823654" lon="11.65488202615114"><ele>60.0</ele><time>2026-04-12T11:43:03.999Z</time></trkpt><trkpt lat="44.311315319356666" lon="11.654958562358729"><ele>60.0</ele><time>2026-04-12T11:43:04.999Z</time></trkpt><trkpt lat="44.31135981583852" lon="11.655037873844647"><ele>60.0</ele><time>2026-04-12T11:43:05.999Z</time></trkpt><trkpt lat="44.311405096862075" lon="11.65511837218582"><ele>60.0</ele><time>2026-04-12T11:43:06.999Z</time></trkpt><trkpt lat="44.31144998844521" lon="11.65520067488798"><ele>60.0</ele><time>2026-04-12T11:43:07.999Z</time></trkpt><trkpt lat="44.31149399968598" lon="11.655285666700516"><ele>60.0</ele><time>2026-04-12T11:43:08.999Z</time></trkpt><trkpt lat="44.31153971480267" lon="11.655371371470421"><ele>60.0</ele><time>2026-04-12T11:43:09.999Z</time></trkpt><trkpt lat="44.3115891000269" lon="11.655453049049791"><ele>60.0</ele><time>2026-04-12T11:43:10.999Z</time></trkpt><trkpt lat="44.31163244051228" lon="11.655535334044123"><ele>59.833333333333336</ele><time>2026-04-12T11:43:11.999Z</time></trkpt><trkpt lat="44.3116644995957" lon="11.655629125571515"><ele>59.66666666666667</ele><time>2026-04-12T11:43:12.999Z</time></trkpt><trkpt lat="44.311717582670745" lon="11.655707853702367"><ele>59.5</ele><time>2026-04-12T11:43:13.999Z</time></trkpt><trkpt lat="44.31175897821585" lon="11.655798959898869"><ele>59.333333333333336</ele><time>2026-04-12T11:43:14.999Z</time></trkpt><trkpt lat="44.31179555102578" lon="11.655895333091081"><ele>59.16666666666667</ele><time>2026-04-12T11:43:15.999Z</time></trkpt><trkpt lat="44.311837131920385" lon="11.65599542271845"><ele>59.0</ele><time>2026-04-12T11:43:16.999Z</time></trkpt><trkpt lat="44.311872786476485" lon="11.656092536510853"><ele>58.66666666666667</ele><time>2026-04-12T11:43:17.999Z</time></trkpt><trkpt lat="44.31191010084062" lon="11.656189274026863"><ele>58.333333333333336</ele><time>2026-04-12T11:43:18.999Z</time></trkpt><trkpt lat="44.31195138892698" lon="11.656289981277034"><ele>58.0</ele><time>2026-04-12T11:43:19.999Z</time></trkpt><trkpt lat="44.31198093225762" lon="11.656389991108533"><ele>57.66666666666667</ele><time>2026-04-12T11:43:20.999Z</time></trkpt><trkpt lat="44.31202040979085" lon="11.656488756680547"><ele>57.333333333333336</ele><time>2026-04-12T11:43:21.999Z</time></trkpt><trkpt lat="44.31207229730763" lon="11.65657196548486"><ele>57.0</ele><time>2026-04-12T11:43:22.999Z</time></trkpt><trkpt lat="44.31210771494127" lon="11.656676252540139"><ele>57.0</ele><time>2026-04-12T11:43:23.999Z</time></trkpt><trkpt lat="44.31214862278504" lon="11.656773355952671"><ele>57.0</ele><time>2026-04-12T11:43:24.999Z</time></trkpt><trkpt lat="44.312188010700126" lon="11.656876892795353"><ele>57.0</ele><time>2026-04-12T11:43:25.999Z</time></trkpt><trkpt lat="44.312226405430245" lon="11.656974354199107"><ele>57.0</ele><time>2026-04-12T11:43:26.999Z</time></trkpt><trkpt lat="44.31226374748561" lon="11.657074321455015"><ele>57.0</ele><time>2026-04-12T11:43:27.999Z</time></trkpt><trkpt lat="44.31230177884907" lon="11.657173332236148"><ele>57.0</ele><time>2026-04-12T11:43:28.999Z</time></trkpt><trkpt lat="44.31233957604939" lon="11.657272251464452"><ele>57.0</ele><time>2026-04-12T11:43:29.999Z</time></trkpt><trkpt lat="44.31237681708431" lon="11.657365004778338"><ele>57.0</ele><time>2026-04-12T11:43:30.999Z</time></trkpt><trkpt lat="44.31241550262868" lon="11.657458273017102"><ele>57.0</ele><time>2026-04-12T11:43:31.999Z</time></trkpt><trkpt lat="44.312456255227545" lon="11.657555669489199"><ele>57.0</ele><time>2026-04-12T11:43:32.999Z</time></trkpt><trkpt lat="44.31249775042567" lon="11.657646748755917"><ele>57.0</ele><time>2026-04-12T11:43:33.999Z</time></trkpt><trkpt lat="44.31253462775834" lon="11.65774130049937"><ele>57.0</ele><time>2026-04-12T11:43:34.999Z</time></trkpt><trkpt lat="44.312575892800794" lon="11.657837086695475"><ele>57.0</ele><time>2026-04-12T11:43:35.999Z</time></trkpt><trkpt lat="44.312607139289284" lon="11.657940467557623"><ele>57.0</ele><time>2026-04-12T11:43:36.999Z</time></trkpt><trkpt lat="44.31264812515747" lon="11.658035142780456"><ele>57.0</ele><time>2026-04-12T11:43:37.999Z</time></trkpt><trkpt lat="44.312686531130055" lon="11.658130051162669"><ele>57.0</ele><time>2026-04-12T11:43:38.999Z</time></trkpt><trkpt lat="44.31271306266564" lon="11.658233690492882"><ele>57.0</ele><time>2026-04-12T11:43:39.999Z</time></trkpt><trkpt lat="44.31274349699231" lon="11.658330845001295"><ele>57.0</ele><time>2026-04-12T11:43:40.999Z</time></trkpt><trkpt lat="44.312725551232376" lon="11.65843838003539"><ele>57.0</ele><time>2026-04-12T11:43:41.999Z</time></trkpt><trkpt lat="44.31272217656683" lon="11.658540342274295"><ele>56.99999999999999</ele><time>2026-04-12T11:43:42.999Z</time></trkpt><trkpt lat="44.31265257455772" lon="11.658610307032351"><ele>57.0</ele><time>2026-04-12T11:43:43.999Z</time></trkpt><trkpt lat="44.3126005451831" lon="11.658673517248335"><ele>57.0</ele><time>2026-04-12T11:43:45Z</time></trkpt><trkpt lat="44.31254593025681" lon="11.658728831657905"><ele>56.99999999999999</ele><time>2026-04-12T11:43:46Z</time></trkpt><trkpt lat="44.31249125333548" lon="11.658786475513967"><ele>57.0</ele><time>2026-04-12T11:43:47Z</time></trkpt><trkpt lat="44.31244934091613" lon="11.658864830461505"><ele>57.0</ele><time>2026-04-12T11:43:48Z</time></trkpt><trkpt lat="44.312397481562456" lon="11.658916614988042"><ele>57.0</ele><time>2026-04-12T11:43:49Z</time></trkpt><trkpt lat="44.312377169386146" lon="11.65900605079428"><ele>56.99999999999999</ele><time>2026-04-12T11:43:50Z</time></trkpt><trkpt lat="44.31242324756854" lon="11.65910699790345"><ele>57.0</ele><time>2026-04-12T11:43:51Z</time></trkpt><trkpt lat="44.3124716208136" lon="11.659178788602537"><ele>57.0</ele><time>2026-04-12T11:43:52Z</time></trkpt><trkpt lat="44.312508949215875" lon="11.659262787758186"><ele>56.99999999999999</ele><time>2026-04-12T11:43:53Z</time></trkpt><trkpt lat="44.31254962409365" lon="11.659344346070135"><ele>57.0</ele><time>2026-04-12T11:43:54Z</time></trkpt><trkpt lat="44.31258737424831" lon="11.659420039677308"><ele>57.0</ele><time>2026-04-12T11:43:55Z</time></trkpt><trkpt lat="44.31262624196987" lon="11.659502247982651"><ele>57.0</ele><time>2026-04-12T11:43:56Z</time></trkpt><trkpt lat="44.312663144495474" lon="11.6595831864359"><ele>57.0</ele><time>2026-04-12T11:43:57Z</time></trkpt><trkpt lat="44.31270112484906" lon="11.659671398381503"><ele>57.0</ele><time>2026-04-12T11:43:58Z</time></trkpt><trkpt lat="44.31274231437688" lon="11.659748961434483"><ele>57.0</ele><time>2026-04-12T11:43:59Z</time></trkpt><trkpt lat="44.3127404618513" lon="11.65985284143942"><ele>57.0</ele><time>2026-04-12T11:44:00Z</time></trkpt><trkpt lat="44.312708698027265" lon="11.659955744197804"><ele>57.0</ele><time>2026-04-12T11:44:01Z</time></trkpt><trkpt lat="44.312623647912574" lon="11.660002264143364"><ele>57.0</ele><time>2026-04-12T11:44:02Z</time></trkpt><trkpt lat="44.31256898928091" lon="11.660074563198812"><ele>57.0</ele><time>2026-04-12T11:44:03Z</time></trkpt><trkpt lat="44.312511341800324" lon="11.660150563275618"><ele>57.0</ele><time>2026-04-12T11:44:04Z</time></trkpt><trkpt lat="44.312460703862726" lon="11.660245067064485"><ele>57.0</ele><time>2026-04-12T11:44:05Z</time></trkpt><trkpt lat="44.31239699657186" lon="11.66032087509291"><ele>57.0</ele><time>2026-04-12T11:44:06Z</time></trkpt><trkpt lat="44.31233656608538" lon="11.660399886379471"><ele>57.0</ele><time>2026-04-12T11:44:07Z</time></trkpt><trkpt lat="44.312278658208456" lon="11.660479525068641"><ele>56.666666666666664</ele><time>2026-04-12T11:44:08Z</time></trkpt><trkpt lat="44.31222068546185" lon="11.660560602546106"><ele>56.33333333333333</ele><time>2026-04-12T11:44:09Z</time></trkpt><trkpt lat="44.31216438073193" lon="11.66064502345265"><ele>56.0</ele><time>2026-04-12T11:44:10Z</time></trkpt><trkpt lat="44.31211395003926" lon="11.660740196660772"><ele>55.666666666666664</ele><time>2026-04-12T11:44:11Z</time></trkpt><trkpt lat="44.31207684759942" lon="11.660843885477505"><ele>55.33333333333333</ele><time>2026-04-12T11:44:12Z</time></trkpt><trkpt lat="44.31205773281228" lon="11.660960084685222"><ele>55.0</ele><time>2026-04-12T11:44:13Z</time></trkpt><trkpt lat="44.312056327916856" lon="11.66107810399467"><ele>54.83333333333333</ele><time>2026-04-12T11:44:14Z</time></trkpt><trkpt lat="44.312068603078096" lon="11.661188174097878"><ele>54.666666666666664</ele><time>2026-04-12T11:44:15Z</time></trkpt><trkpt lat="44.312097327692726" lon="11.661282030166772"><ele>54.5</ele><time>2026-04-12T11:44:16Z</time></trkpt><trkpt lat="44.312143326045536" lon="11.661376058181382"><ele>54.33333333333333</ele><time>2026-04-12T11:44:17Z</time></trkpt><trkpt lat="44.3122071963584" lon="11.661460413272403"><ele>54.166666666666664</ele><time>2026-04-12T11:44:18Z</time></trkpt><trkpt lat="44.31227631491332" lon="11.661536803279173"><ele>54.0</ele><time>2026-04-12T11:44:19Z</time></trkpt><trkpt lat="44.312341161577976" lon="11.661612184753203"><ele>54.333333333333336</ele><time>2026-04-12T11:44:20Z</time></trkpt><trkpt lat="44.312408302752694" lon="11.661691526309292"><ele>54.66666666666667</ele><time>2026-04-12T11:44:21Z</time></trkpt><trkpt lat="44.31247280985733" lon="11.661767742914694"><ele>55.0</ele><time>2026-04-12T11:44:22Z</time></trkpt><trkpt lat="44.31252310674239" lon="11.66186177188616"><ele>55.333333333333336</ele><time>2026-04-12T11:44:23Z</time></trkpt><trkpt lat="44.312585718585545" lon="11.66194083461489"><ele>55.66666666666667</ele><time>2026-04-12T11:44:24Z</time></trkpt><trkpt lat="44.31265470245641" lon="11.662002976660355"><ele>56.0</ele><time>2026-04-12T11:44:25Z</time></trkpt><trkpt lat="44.312709105908674" lon="11.662082931727898"><ele>56.00000000000001</ele><time>2026-04-12T11:44:26Z</time></trkpt><trkpt lat="44.31276768250725" lon="11.662160762462765"><ele>56.0</ele><time>2026-04-12T11:44:27Z</time></trkpt><trkpt lat="44.3128248261057" lon="11.662233187471545"><ele>56.0</ele><time>2026-04-12T11:44:28Z</time></trkpt><trkpt lat="44.31288083441282" lon="11.662306004627265"><ele>56.0</ele><time>2026-04-12T11:44:29Z</time></trkpt><trkpt lat="44.312938739147896" lon="11.662376437838025"><ele>56.00000000000001</ele><time>2026-04-12T11:44:30Z</time></trkpt><trkpt lat="44.31299177968343" lon="11.662443414912572"><ele>56.0</ele><time>2026-04-12T11:44:31Z</time></trkpt><trkpt lat="44.31304606268334" lon="11.662517022750903"><ele>56.0</ele><time>2026-04-12T11:44:32Z</time></trkpt><trkpt lat="44.31310408854621" lon="11.662585511002005"><ele>56.0</ele><time>2026-04-12T11:44:33Z</time></trkpt><trkpt lat="44.3131625942619" lon="11.662654575774726"><ele>56.0</ele><time>2026-04-12T11:44:34Z</time></trkpt><trkpt lat="44.313207280635986" lon="11.662744194633442"><ele>56.0</ele><time>2026-04-12T11:44:35Z</time></trkpt><trkpt lat="44.313261410977816" lon="11.662813774875703"><ele>56.0</ele><time>2026-04-12T11:44:36Z</time></trkpt><trkpt lat="44.3133157831624" lon="11.662883665718075"><ele>56.0</ele><time>2026-04-12T11:44:37Z</time></trkpt><trkpt lat="44.31336676609442" lon="11.662949199986807"><ele>56.0</ele><time>2026-04-12T11:44:38Z</time></trkpt><trkpt lat="44.31341362036523" lon="11.66300916289594"><ele>56.0</ele><time>2026-04-12T11:44:39Z</time></trkpt><trkpt lat="44.31348830863045" lon="11.663104693655951"><ele>55.99999999999999</ele><time>2026-04-12T11:44:41Z</time></trkpt><trkpt lat="44.313570666714085" lon="11.663210034782944"><ele>55.99999999999999</ele><time>2026-04-12T11:44:43Z</time></trkpt><trkpt lat="44.31366387027233" lon="11.663300061327954"><ele>56.0</ele><time>2026-04-12T11:44:45Z</time></trkpt><trkpt lat="44.31373652819365" lon="11.663425090498373"><ele>56.0</ele><time>2026-04-12T11:44:47Z</time></trkpt><trkpt lat="44.313821683653266" lon="11.663527620531314"><ele>56.0</ele><time>2026-04-12T11:44:49Z</time></trkpt><trkpt lat="44.31386677323163" lon="11.663590634177405"><ele>56.0</ele><time>2026-04-12T11:44:50Z</time></trkpt><trkpt lat="44.3139186784356" lon="11.663653304552684"><ele>56.0</ele><time>2026-04-12T11:44:51Z</time></trkpt><trkpt lat="44.31396860684617" lon="11.663716068368458"><ele>56.0</ele><time>2026-04-12T11:44:52Z</time></trkpt><trkpt lat="44.314021971675864" lon="11.663779165986282"><ele>56.0</ele><time>2026-04-12T11:44:53Z</time></trkpt><trkpt lat="44.314074736008415" lon="11.663846082282255"><ele>56.0</ele><time>2026-04-12T11:44:54Z</time></trkpt><trkpt lat="44.31412806898389" lon="11.663915926552434"><ele>56.0</ele><time>2026-04-12T11:44:55Z</time></trkpt><trkpt lat="44.31418479784876" lon="11.663990391865807"><ele>56.00000000000001</ele><time>2026-04-12T11:44:56Z</time></trkpt><trkpt lat="44.31424097356131" lon="11.664059367111271"><ele>56.0</ele><time>2026-04-12T11:44:57Z</time></trkpt><trkpt lat="44.314297056599216" lon="11.664132396093239"><ele>56.0</ele><time>2026-04-12T11:44:58Z</time></trkpt><trkpt lat="44.31435374168175" lon="11.664204733476668"><ele>56.0</ele><time>2026-04-12T11:44:59Z</time></trkpt><trkpt lat="44.314412552352245" lon="11.664279612457282"><ele>56.00000000000001</ele><time>2026-04-12T11:45:00Z</time></trkpt><trkpt lat="44.31447064267852" lon="11.66435612954097"><ele>56.0</ele><time>2026-04-12T11:45:01Z</time></trkpt><trkpt lat="44.31452971034143" lon="11.664429417311242"><ele>56.00000000000001</ele><time>2026-04-12T11:45:02Z</time></trkpt><trkpt lat="44.31458982314872" lon="11.664505122900925"><ele>56.0</ele><time>2026-04-12T11:45:03Z</time></trkpt><trkpt lat="44.3146468744801" lon="11.66458087376173"><ele>56.0</ele><time>2026-04-12T11:45:04Z</time></trkpt><trkpt lat="44.31470245394357" lon="11.664656746638833"><ele>56.0</ele><time>2026-04-12T11:45:05Z</time></trkpt><trkpt lat="44.31475829749858" lon="11.664732476482932"><ele>56.00000000000001</ele><time>2026-04-12T11:45:06Z</time></trkpt><trkpt lat="44.314805190596324" lon="11.664817219091944"><ele>56.0</ele><time>2026-04-12T11:45:07Z</time></trkpt><trkpt lat="44.314851119726484" lon="11.664897872395638"><ele>56.0</ele><time>2026-04-12T11:45:08Z</time></trkpt><trkpt lat="44.314898087134985" lon="11.664976908129743"><ele>56.0</ele><time>2026-04-12T11:45:08.999Z</time></trkpt><trkpt lat="44.31494004308816" lon="11.665053387376291"><ele>56.0</ele><time>2026-04-12T11:45:09.999Z</time></trkpt><trkpt lat="44.314981840711184" lon="11.665124256690662"><ele>56.0</ele><time>2026-04-12T11:45:10.999Z</time></trkpt><trkpt lat="44.31503133359644" lon="11.6651903312004"><ele>56.0</ele><time>2026-04-12T11:45:11.999Z</time></trkpt><trkpt lat="44.31508448287377" lon="11.665251255405053"><ele>56.0</ele><time>2026-04-12T11:45:12.999Z</time></trkpt><trkpt lat="44.31514054719925" lon="11.66530655420287"><ele>56.0</ele><time>2026-04-12T11:45:13.999Z</time></trkpt><trkpt lat="44.315198713435215" lon="11.665363355691062"><ele>56.0</ele><time>2026-04-12T11:45:14.999Z</time></trkpt><trkpt lat="44.31525505251192" lon="11.665416146615936"><ele>56.0</ele><time>2026-04-12T11:45:15.999Z</time></trkpt><trkpt lat="44.31530942402484" lon="11.665475836004225"><ele>56.0</ele><time>2026-04-12T11:45:16.999Z</time></trkpt><trkpt lat="44.315356682519834" lon="11.665550110462343"><ele>56.0</ele><time>2026-04-12T11:45:17.999Z</time></trkpt><trkpt lat="44.31539245942372" lon="11.66563336950887"><ele>56.0</ele><time>2026-04-12T11:45:18.999Z</time></trkpt><trkpt lat="44.31541995825733" lon="11.665714388641245"><ele>56.0</ele><time>2026-04-12T11:45:19.999Z</time></trkpt><trkpt lat="44.315448513809116" lon="11.66579337661878"><ele>56.0</ele><time>2026-04-12T11:45:20.999Z</time></trkpt><trkpt lat="44.31552498792688" lon="11.665813822513659"><ele>56.16666666666667</ele><time>2026-04-12T11:45:21.999Z</time></trkpt><trkpt lat="44.3156078374492" lon="11.665766065509883"><ele>56.333333333333336</ele><time>2026-04-12T11:45:22.999Z</time></trkpt><trkpt lat="44.315676265482644" lon="11.665741638897094"><ele>56.5</ele><time>2026-04-12T11:45:23.999Z</time></trkpt><trkpt lat="44.315746125215966" lon="11.665724003611919"><ele>56.66666666666667</ele><time>2026-04-12T11:45:24.999Z</time></trkpt><trkpt lat="44.31582119964364" lon="11.66570703697807"><ele>56.833333333333336</ele><time>2026-04-12T11:45:25.999Z</time></trkpt><trkpt lat="44.315893203745006" lon="11.665694534672339"><ele>57.0</ele><time>2026-04-12T11:45:26.999Z</time></trkpt><trkpt lat="44.315967197752926" lon="11.665681471167009"><ele>57.0</ele><time>2026-04-12T11:45:27.999Z</time></trkpt><trkpt lat="44.31604206833758" lon="11.665670122176303"><ele>57.0</ele><time>2026-04-12T11:45:28.999Z</time></trkpt><trkpt lat="44.316117506651054" lon="11.665658865097647"><ele>57.0</ele><time>2026-04-12T11:45:29.999Z</time></trkpt><trkpt lat="44.316194146152256" lon="11.665649670533648"><ele>57.0</ele><time>2026-04-12T11:45:30.999Z</time></trkpt><trkpt lat="44.31627656011925" lon="11.665629926083012"><ele>57.0</ele><time>2026-04-12T11:45:31.999Z</time></trkpt><trkpt lat="44.31635444243311" lon="11.665597097954821"><ele>57.0</ele><time>2026-04-12T11:45:32.999Z</time></trkpt><trkpt lat="44.316426917649515" lon="11.665546417048649"><ele>56.833333333333336</ele><time>2026-04-12T11:45:33.999Z</time></trkpt><trkpt lat="44.316494678960616" lon="11.665473679416438"><ele>56.66666666666667</ele><time>2026-04-12T11:45:34.999Z</time></trkpt><trkpt lat="44.31655110703077" lon="11.665395133076307"><ele>56.5</ele><time>2026-04-12T11:45:35.999Z</time></trkpt><trkpt lat="44.3166190386723" lon="11.665334996294263"><ele>56.333333333333336</ele><time>2026-04-12T11:45:36.999Z</time></trkpt><trkpt lat="44.316675791937485" lon="11.665258665410516"><ele>56.16666666666667</ele><time>2026-04-12T11:45:37.999Z</time></trkpt><trkpt lat="44.31673384384909" lon="11.66518058792416"><ele>56.0</ele><time>2026-04-12T11:45:38.999Z</time></trkpt><trkpt lat="44.31678936286682" lon="11.665105916907287"><ele>56.50000000000001</ele><time>2026-04-12T11:45:39.999Z</time></trkpt><trkpt lat="44.31684363993434" lon="11.665032468369418"><ele>57.0</ele><time>2026-04-12T11:45:40.999Z</time></trkpt><trkpt lat="44.31689894271006" lon="11.664957362706904"><ele>57.5</ele><time>2026-04-12T11:45:41.999Z</time></trkpt><trkpt lat="44.31695394753304" lon="11.664882661829273"><ele>58.0</ele><time>2026-04-12T11:45:42.999Z</time></trkpt><trkpt lat="44.31700874260836" lon="11.664808245810221"><ele>58.50000000000001</ele><time>2026-04-12T11:45:43.999Z</time></trkpt><trkpt lat="44.317064711039905" lon="11.664732236085756"><ele>59.0</ele><time>2026-04-12T11:45:44.999Z</time></trkpt><trkpt lat="44.31711811853836" lon="11.66466118711172"><ele>59.0</ele><time>2026-04-12T11:45:45.999Z</time></trkpt><trkpt lat="44.31717227382932" lon="11.664589552687543"><ele>59.0</ele><time>2026-04-12T11:45:46.999Z</time></trkpt><trkpt lat="44.31722392096875" lon="11.664521721738119"><ele>59.0</ele><time>2026-04-12T11:45:47.999Z</time></trkpt><trkpt lat="44.31728082750805" lon="11.664461167477539"><ele>59.0</ele><time>2026-04-12T11:45:48.999Z</time></trkpt><trkpt lat="44.31734274263625" lon="11.664412636459934"><ele>59.0</ele><time>2026-04-12T11:45:49.999Z</time></trkpt><trkpt lat="44.31742208214881" lon="11.664431201810164"><ele>59.0</ele><time>2026-04-12T11:45:51Z</time></trkpt><trkpt lat="44.31748988756078" lon="11.66448730164137"><ele>59.0</ele><time>2026-04-12T11:45:52Z</time></trkpt><trkpt lat="44.31755476904902" lon="11.664530638073042"><ele>58.833333333333336</ele><time>2026-04-12T11:45:53Z</time></trkpt><trkpt lat="44.317619980423736" lon="11.664583526121731"><ele>58.66666666666667</ele><time>2026-04-12T11:45:54Z</time></trkpt><trkpt lat="44.31767834573093" lon="11.664657308921928"><ele>58.5</ele><time>2026-04-12T11:45:55Z</time></trkpt><trkpt lat="44.31773129441165" lon="11.664737407102313"><ele>58.33333333333333</ele><time>2026-04-12T11:45:56Z</time></trkpt><trkpt lat="44.31778937594742" lon="11.664809521880455"><ele>58.166666666666664</ele><time>2026-04-12T11:45:57Z</time></trkpt><trkpt lat="44.31785378813822" lon="11.664859609895995"><ele>58.0</ele><time>2026-04-12T11:45:58Z</time></trkpt><trkpt lat="44.31793332904612" lon="11.664882319263368"><ele>57.99999999999999</ele><time>2026-04-12T11:45:59Z</time></trkpt><trkpt lat="44.31800773918504" lon="11.664905605811368"><ele>58.0</ele><time>2026-04-12T11:46:00Z</time></trkpt><trkpt lat="44.31808754391824" lon="11.664935403422916"><ele>58.0</ele><time>2026-04-12T11:46:01Z</time></trkpt><trkpt lat="44.318167070672175" lon="11.66497722106174"><ele>58.0</ele><time>2026-04-12T11:46:02Z</time></trkpt><trkpt lat="44.31824681165237" lon="11.665020708711747"><ele>57.99999999999999</ele><time>2026-04-12T11:46:03Z</time></trkpt><trkpt lat="44.318323974470644" lon="11.665054129612765"><ele>58.0</ele><time>2026-04-12T11:46:04Z</time></trkpt><trkpt lat="44.318406814245996" lon="11.665088229894728"><ele>57.83333333333333</ele><time>2026-04-12T11:46:05Z</time></trkpt><trkpt lat="44.31848223548525" lon="11.665135893241429"><ele>57.666666666666664</ele><time>2026-04-12T11:46:06Z</time></trkpt><trkpt lat="44.31856164389891" lon="11.665176775190517"><ele>57.5</ele><time>2026-04-12T11:46:07Z</time></trkpt><trkpt lat="44.31864289012982" lon="11.665207266783757"><ele>57.33333333333333</ele><time>2026-04-12T11:46:08Z</time></trkpt><trkpt lat="44.31872646403599" lon="11.66523963063172"><ele>57.166666666666664</ele><time>2026-04-12T11:46:09Z</time></trkpt><trkpt lat="44.31880715646071" lon="11.665277483486513"><ele>57.0</ele><time>2026-04-12T11:46:10Z</time></trkpt><trkpt lat="44.31888478608938" lon="11.665312718760571"><ele>57.166666666666664</ele><time>2026-04-12T11:46:11Z</time></trkpt><trkpt lat="44.318966080753405" lon="11.665349847825695"><ele>57.33333333333333</ele><time>2026-04-12T11:46:12Z</time></trkpt><trkpt lat="44.319044061815696" lon="11.665395414974725"><ele>57.5</ele><time>2026-04-12T11:46:13Z</time></trkpt><trkpt lat="44.31912007167759" lon="11.665447611749162"><ele>57.666666666666664</ele><time>2026-04-12T11:46:14Z</time></trkpt><trkpt lat="44.319191872690546" lon="11.66551032427828"><ele>57.83333333333333</ele><time>2026-04-12T11:46:15Z</time></trkpt><trkpt lat="44.31926120046176" lon="11.665585949594506"><ele>58.0</ele><time>2026-04-12T11:46:16Z</time></trkpt><trkpt lat="44.319322509994734" lon="11.665672160228405"><ele>57.99999999999999</ele><time>2026-04-12T11:46:17Z</time></trkpt><trkpt lat="44.31937991390252" lon="11.665758789934337"><ele>58.0</ele><time>2026-04-12T11:46:18Z</time></trkpt><trkpt lat="44.31943502278331" lon="11.66584560330422"><ele>58.0</ele><time>2026-04-12T11:46:19Z</time></trkpt><trkpt lat="44.31949454880209" lon="11.665934363662812"><ele>58.0</ele><time>2026-04-12T11:46:20Z</time></trkpt><trkpt lat="44.31954864495727" lon="11.666015898506789"><ele>57.99999999999999</ele><time>2026-04-12T11:46:21Z</time></trkpt><trkpt lat="44.319605411537616" lon="11.666091512139815"><ele>58.0</ele><time>2026-04-12T11:46:22Z</time></trkpt><trkpt lat="44.319661720202646" lon="11.666154633846737"><ele>58.00000000000001</ele><time>2026-04-12T11:46:23Z</time></trkpt><trkpt lat="44.31971353647994" lon="11.666208940180573"><ele>58.0</ele><time>2026-04-12T11:46:24Z</time></trkpt><trkpt lat="44.3197645087373" lon="11.66626346351484"><ele>58.00000000000001</ele><time>2026-04-12T11:46:25Z</time></trkpt><trkpt lat="44.319818517152335" lon="11.666319289748847"><ele>58.00000000000001</ele><time>2026-04-12T11:46:26Z</time></trkpt><trkpt lat="44.31987212146423" lon="11.666385949960542"><ele>58.0</ele><time>2026-04-12T11:46:27Z</time></trkpt><trkpt lat="44.31990930635476" lon="11.666480362490779"><ele>58.00000000000001</ele><time>2026-04-12T11:46:28Z</time></trkpt><trkpt lat="44.31993998185095" lon="11.666584489772788"><ele>58.00000000000001</ele><time>2026-04-12T11:46:29Z</time></trkpt><trkpt lat="44.31996930836" lon="11.666692904479959"><ele>57.99999999999999</ele><time>2026-04-12T11:46:30Z</time></trkpt><trkpt lat="44.319994234893144" lon="11.666803309797343"><ele>58.0</ele><time>2026-04-12T11:46:31Z</time></trkpt><trkpt lat="44.32002671011038" lon="11.666909185027901"><ele>58.0</ele><time>2026-04-12T11:46:32Z</time></trkpt><trkpt lat="44.320061092878646" lon="11.667015791243841"><ele>58.0</ele><time>2026-04-12T11:46:33Z</time></trkpt><trkpt lat="44.32009446029632" lon="11.667121702660365"><ele>57.99999999999999</ele><time>2026-04-12T11:46:34Z</time></trkpt><trkpt lat="44.32012740307428" lon="11.667230368374996"><ele>58.0</ele><time>2026-04-12T11:46:35Z</time></trkpt><trkpt lat="44.32016153303497" lon="11.667342008373623"><ele>57.99999999999999</ele><time>2026-04-12T11:46:36Z</time></trkpt><trkpt lat="44.32019587061051" lon="11.667453763159253"><ele>58.0</ele><time>2026-04-12T11:46:37Z</time></trkpt><trkpt lat="44.32022489798749" lon="11.667561877248538"><ele>58.0</ele><time>2026-04-12T11:46:38Z</time></trkpt><trkpt lat="44.32025334901323" lon="11.667671311946357"><ele>58.0</ele><time>2026-04-12T11:46:39Z</time></trkpt><trkpt lat="44.32028548868059" lon="11.667777131856528"><ele>57.99999999999999</ele><time>2026-04-12T11:46:40Z</time></trkpt><trkpt lat="44.320313107025335" lon="11.667889644188323"><ele>58.0</ele><time>2026-04-12T11:46:41Z</time></trkpt><trkpt lat="44.320348779946315" lon="11.66799158111118"><ele>57.99999999999999</ele><time>2026-04-12T11:46:42Z</time></trkpt><trkpt lat="44.320378827705234" lon="11.668094277599126"><ele>58.0</ele><time>2026-04-12T11:46:43Z</time></trkpt><trkpt lat="44.32040923757811" lon="11.668200723406697"><ele>58.0</ele><time>2026-04-12T11:46:44Z</time></trkpt><trkpt lat="44.32043772772087" lon="11.668308253938148"><ele>58.0</ele><time>2026-04-12T11:46:45Z</time></trkpt><trkpt lat="44.32046406711017" lon="11.668418497342774"><ele>57.99999999999999</ele><time>2026-04-12T11:46:46Z</time></trkpt><trkpt lat="44.32049029289474" lon="11.668527362938367"><ele>58.0</ele><time>2026-04-12T11:46:47Z</time></trkpt><trkpt lat="44.32051662075948" lon="11.668637744914582"><ele>57.99999999999999</ele><time>2026-04-12T11:46:48Z</time></trkpt><trkpt lat="44.32054154307274" lon="11.668747952224702"><ele>58.0</ele><time>2026-04-12T11:46:49Z</time></trkpt><trkpt lat="44.320567021724464" lon="11.668857620843243"><ele>58.0</ele><time>2026-04-12T11:46:50Z</time></trkpt><trkpt lat="44.32059343501628" lon="11.668964935560277"><ele>58.0</ele><time>2026-04-12T11:46:51Z</time></trkpt><trkpt lat="44.3206189623631" lon="11.66906605423494"><ele>57.99999999999999</ele><time>2026-04-12T11:46:52Z</time></trkpt><trkpt lat="44.32065083074925" lon="11.669172262049445"><ele>58.0</ele><time>2026-04-12T11:46:53Z</time></trkpt><trkpt lat="44.32069277040359" lon="11.669272497857428"><ele>57.49999999999999</ele><time>2026-04-12T11:46:54Z</time></trkpt><trkpt lat="44.32073834872" lon="11.669369453214065"><ele>57.0</ele><time>2026-04-12T11:46:55Z</time></trkpt><trkpt lat="44.32079219735022" lon="11.66946103513408"><ele>56.5</ele><time>2026-04-12T11:46:56Z</time></trkpt><trkpt lat="44.32084715412686" lon="11.669554170780696"><ele>56.0</ele><time>2026-04-12T11:46:57Z</time></trkpt><trkpt lat="44.320899922562" lon="11.669648615791122"><ele>55.49999999999999</ele><time>2026-04-12T11:46:58Z</time></trkpt><trkpt lat="44.32094747802382" lon="11.669747000133263"><ele>55.0</ele><time>2026-04-12T11:46:59Z</time></trkpt><trkpt lat="44.32099199741803" lon="11.669847315699686"><ele>54.83333333333333</ele><time>2026-04-12T11:47:00Z</time></trkpt><trkpt lat="44.32103199497212" lon="11.669945579166262"><ele>54.666666666666664</ele><time>2026-04-12T11:47:01Z</time></trkpt><trkpt lat="44.32107287904685" lon="11.67004520103381"><ele>54.5</ele><time>2026-04-12T11:47:02Z</time></trkpt><trkpt lat="44.32111349037765" lon="11.670144593257664"><ele>54.33333333333333</ele><time>2026-04-12T11:47:03Z</time></trkpt><trkpt lat="44.32115465570164" lon="11.670241576581576"><ele>54.166666666666664</ele><time>2026-04-12T11:47:04Z</time></trkpt><trkpt lat="44.321199705123604" lon="11.670336512340967"><ele>54.0</ele><time>2026-04-12T11:47:05Z</time></trkpt><trkpt lat="44.321246181863316" lon="11.670428175148201"><ele>54.0</ele><time>2026-04-12T11:47:06Z</time></trkpt><trkpt lat="44.32129113190595" lon="11.670515341037614"><ele>54.0</ele><time>2026-04-12T11:47:07Z</time></trkpt><trkpt lat="44.321339395176295" lon="11.670602820311286"><ele>54.0</ele><time>2026-04-12T11:47:08Z</time></trkpt><trkpt lat="44.32138957211323" lon="11.670689640745342"><ele>54.0</ele><time>2026-04-12T11:47:09Z</time></trkpt><trkpt lat="44.32143998577392" lon="11.670774190246297"><ele>54.0</ele><time>2026-04-12T11:47:10Z</time></trkpt><trkpt lat="44.32148360061588" lon="11.670853714069361"><ele>54.0</ele><time>2026-04-12T11:47:11Z</time></trkpt><trkpt lat="44.321528675075676" lon="11.670936382925563"><ele>54.166666666666664</ele><time>2026-04-12T11:47:12Z</time></trkpt><trkpt lat="44.32157611225118" lon="11.671017820699289"><ele>54.33333333333333</ele><time>2026-04-12T11:47:13Z</time></trkpt><trkpt lat="44.3216246651195" lon="11.67110169767036"><ele>54.5</ele><time>2026-04-12T11:47:14Z</time></trkpt><trkpt lat="44.32167242338738" lon="11.671181583056368"><ele>54.666666666666664</ele><time>2026-04-12T11:47:15Z</time></trkpt><trkpt lat="44.32172159164967" lon="11.67126207949115"><ele>54.83333333333333</ele><time>2026-04-12T11:47:16Z</time></trkpt><trkpt lat="44.321773107136714" lon="11.671343330511908"><ele>55.0</ele><time>2026-04-12T11:47:17Z</time></trkpt><trkpt lat="44.32182488998218" lon="11.671422132236696"><ele>54.99999999999999</ele><time>2026-04-12T11:47:18Z</time></trkpt><trkpt lat="44.32187693223876" lon="11.671501538776123"><ele>55.0</ele><time>2026-04-12T11:47:19Z</time></trkpt><trkpt lat="44.321926189771254" lon="11.671582305553084"><ele>55.0</ele><time>2026-04-12T11:47:20Z</time></trkpt><trkpt lat="44.32196976110924" lon="11.671667904505158"><ele>55.0</ele><time>2026-04-12T11:47:21Z</time></trkpt><trkpt lat="44.32201218559101" lon="11.671755601091494"><ele>54.99999999999999</ele><time>2026-04-12T11:47:22Z</time></trkpt><trkpt lat="44.32204492416591" lon="11.671848610052779"><ele>55.0</ele><time>2026-04-12T11:47:23Z</time></trkpt><trkpt lat="44.32207259200379" lon="11.671943370821404"><ele>54.83333333333333</ele><time>2026-04-12T11:47:24Z</time></trkpt><trkpt lat="44.32210049202338" lon="11.672037426430272"><ele>54.666666666666664</ele><time>2026-04-12T11:47:25Z</time></trkpt><trkpt lat="44.32212748239716" lon="11.672132579881033"><ele>54.5</ele><time>2026-04-12T11:47:26Z</time></trkpt><trkpt lat="44.32217262101847" lon="11.672214346348841"><ele>54.33333333333333</ele><time>2026-04-12T11:47:27Z</time></trkpt><trkpt lat="44.32223204582839" lon="11.672273656478101"><ele>54.166666666666664</ele><time>2026-04-12T11:47:28Z</time></trkpt><trkpt lat="44.32230180988152" lon="11.672327876097812"><ele>54.0</ele><time>2026-04-12T11:47:29Z</time></trkpt><trkpt lat="44.322370234240296" lon="11.672379380693739"><ele>54.0</ele><time>2026-04-12T11:47:30Z</time></trkpt><trkpt lat="44.32243311168022" lon="11.672440633330854"><ele>54.0</ele><time>2026-04-12T11:47:30.999Z</time></trkpt><trkpt lat="44.32249206920266" lon="11.672494069645007"><ele>54.0</ele><time>2026-04-12T11:47:31.999Z</time></trkpt><trkpt lat="44.322568486657964" lon="11.672545962848096"><ele>54.0</ele><time>2026-04-12T11:47:32.999Z</time></trkpt><trkpt lat="44.322627758992276" lon="11.672602926315953"><ele>54.0</ele><time>2026-04-12T11:47:33.999Z</time></trkpt><trkpt lat="44.32269457965696" lon="11.672666927031957"><ele>54.0</ele><time>2026-04-12T11:47:34.999Z</time></trkpt><trkpt lat="44.32275708892649" lon="11.67272040151868"><ele>54.0</ele><time>2026-04-12T11:47:35.999Z</time></trkpt><trkpt lat="44.32282161129625" lon="11.672768816278838"><ele>54.0</ele><time>2026-04-12T11:47:36.999Z</time></trkpt><trkpt lat="44.32287945338207" lon="11.672820452316047"><ele>54.0</ele><time>2026-04-12T11:47:37.999Z</time></trkpt><trkpt lat="44.32294176084094" lon="11.672875010518753"><ele>54.0</ele><time>2026-04-12T11:47:38.999Z</time></trkpt><trkpt lat="44.323004503968015" lon="11.67292940388537"><ele>54.0</ele><time>2026-04-12T11:47:39.999Z</time></trkpt><trkpt lat="44.32306980238104" lon="11.672985539735674"><ele>54.0</ele><time>2026-04-12T11:47:40.999Z</time></trkpt><trkpt lat="44.323134685524465" lon="11.673044809134216"><ele>54.0</ele><time>2026-04-12T11:47:41.999Z</time></trkpt><trkpt lat="44.323193937762305" lon="11.673104605501246"><ele>54.166666666666664</ele><time>2026-04-12T11:47:42.999Z</time></trkpt><trkpt lat="44.32325494409143" lon="11.67316781530052"><ele>54.33333333333333</ele><time>2026-04-12T11:47:43.999Z</time></trkpt><trkpt lat="44.32332175378094" lon="11.673232678981334"><ele>54.5</ele><time>2026-04-12T11:47:44.999Z</time></trkpt><trkpt lat="44.323378167169224" lon="11.673306357224273"><ele>54.666666666666664</ele><time>2026-04-12T11:47:45.999Z</time></trkpt><trkpt lat="44.323424249474336" lon="11.67338921730258"><ele>54.83333333333333</ele><time>2026-04-12T11:47:46.999Z</time></trkpt><trkpt lat="44.32346595400145" lon="11.673470829655246"><ele>55.0</ele><time>2026-04-12T11:47:47.999Z</time></trkpt><trkpt lat="44.32349753921254" lon="11.673582710696603"><ele>54.71428571428571</ele><time>2026-04-12T11:47:48.999Z</time></trkpt><trkpt lat="44.32353131905323" lon="11.673681224300562"><ele>54.42857142857143</ele><time>2026-04-12T11:47:49.999Z</time></trkpt><trkpt lat="44.32356489819941" lon="11.673773209048067"><ele>54.14285714285714</ele><time>2026-04-12T11:47:50.999Z</time></trkpt><trkpt lat="44.323601363651974" lon="11.673868279362308"><ele>53.857142857142854</ele><time>2026-04-12T11:47:51.999Z</time></trkpt><trkpt lat="44.32364746436839" lon="11.673949817942384"><ele>53.57142857142857</ele><time>2026-04-12T11:47:52.999Z</time></trkpt><trkpt lat="44.323705535463795" lon="11.674010479533505"><ele>53.285714285714285</ele><time>2026-04-12T11:47:53.999Z</time></trkpt><trkpt lat="44.32376776475491" lon="11.674057232355343"><ele>53.0</ele><time>2026-04-12T11:47:54.999Z</time></trkpt><trkpt lat="44.32383396667918" lon="11.67409825972145"><ele>53.285714285714285</ele><time>2026-04-12T11:47:55.999Z</time></trkpt><trkpt lat="44.32389733164189" lon="11.674141021936173"><ele>53.57142857142857</ele><time>2026-04-12T11:47:57Z</time></trkpt><trkpt lat="44.323967947858335" lon="11.674175865058855"><ele>53.857142857142854</ele><time>2026-04-12T11:47:58Z</time></trkpt><trkpt lat="44.32403793234575" lon="11.674206302668916"><ele>54.14285714285714</ele><time>2026-04-12T11:47:59Z</time></trkpt><trkpt lat="44.324107060629565" lon="11.674243388166342"><ele>54.42857142857143</ele><time>2026-04-12T11:48:00Z</time></trkpt><trkpt lat="44.32417407767807" lon="11.674287720633234"><ele>54.71428571428571</ele><time>2026-04-12T11:48:01Z</time></trkpt><trkpt lat="44.32424034551387" lon="11.674331074443824"><ele>55.0</ele><time>2026-04-12T11:48:02Z</time></trkpt><trkpt lat="44.32430751358328" lon="11.674373079475611"><ele>54.99999999999999</ele><time>2026-04-12T11:48:03Z</time></trkpt><trkpt lat="44.32437385641539" lon="11.67442098720861"><ele>55.0</ele><time>2026-04-12T11:48:04Z</time></trkpt><trkpt lat="44.32444461453203" lon="11.674464608443751"><ele>55.0</ele><time>2026-04-12T11:48:05Z</time></trkpt><trkpt lat="44.324511978341356" lon="11.674501958333924"><ele>55.0</ele><time>2026-04-12T11:48:06Z</time></trkpt><trkpt lat="44.324577451018456" lon="11.67454703648861"><ele>55.0</ele><time>2026-04-12T11:48:07Z</time></trkpt><trkpt lat="44.3246409142496" lon="11.67459511886333"><ele>54.99999999999999</ele><time>2026-04-12T11:48:08Z</time></trkpt><trkpt lat="44.32470255174295" lon="11.67464164350052"><ele>55.0</ele><time>2026-04-12T11:48:09Z</time></trkpt><trkpt lat="44.32481326695148" lon="11.674729706696446"><ele>54.99999999999999</ele><time>2026-04-12T11:48:11Z</time></trkpt><trkpt lat="44.32487452450309" lon="11.674778733382169"><ele>55.0</ele><time>2026-04-12T11:48:12Z</time></trkpt><trkpt lat="44.324941429057105" lon="11.674834357170592"><ele>55.0</ele><time>2026-04-12T11:48:13Z</time></trkpt><trkpt lat="44.32500924458484" lon="11.674887667229255"><ele>55.0</ele><time>2026-04-12T11:48:14Z</time></trkpt><trkpt lat="44.32507044351926" lon="11.67493777185982"><ele>55.0</ele><time>2026-04-12T11:48:15Z</time></trkpt><trkpt lat="44.32513146938347" lon="11.674989596909588"><ele>54.99999999999999</ele><time>2026-04-12T11:48:16Z</time></trkpt><trkpt lat="44.325191835604365" lon="11.675042755999272"><ele>55.0</ele><time>2026-04-12T11:48:17Z</time></trkpt><trkpt lat="44.325252273808154" lon="11.675097010326246"><ele>54.99999999999999</ele><time>2026-04-12T11:48:18Z</time></trkpt><trkpt lat="44.32530913601196" lon="11.675153517849353"><ele>55.0</ele><time>2026-04-12T11:48:19Z</time></trkpt><trkpt lat="44.32536652324735" lon="11.675213111187501"><ele>55.0</ele><time>2026-04-12T11:48:20Z</time></trkpt><trkpt lat="44.32542130865482" lon="11.675272737505852"><ele>55.0</ele><time>2026-04-12T11:48:21Z</time></trkpt><trkpt lat="44.32547784195342" lon="11.675335372644355"><ele>55.0</ele><time>2026-04-12T11:48:22Z</time></trkpt><trkpt lat="44.32553273779437" lon="11.675397673960518"><ele>54.99999999999999</ele><time>2026-04-12T11:48:23Z</time></trkpt><trkpt lat="44.32559124778447" lon="11.675463496255595"><ele>55.0</ele><time>2026-04-12T11:48:24Z</time></trkpt><trkpt lat="44.3256469838973" lon="11.675533288165981"><ele>54.857142857142854</ele><time>2026-04-12T11:48:25Z</time></trkpt><trkpt lat="44.325698497405355" lon="11.675608144497053"><ele>54.714285714285715</ele><time>2026-04-12T11:48:26Z</time></trkpt><trkpt lat="44.3257457374451" lon="11.675687127437506"><ele>54.57142857142857</ele><time>2026-04-12T11:48:27Z</time></trkpt><trkpt lat="44.3257829013337" lon="11.675774333898778"><ele>54.42857142857143</ele><time>2026-04-12T11:48:28Z</time></trkpt><trkpt lat="44.32581930794807" lon="11.675862105394842"><ele>54.285714285714285</ele><time>2026-04-12T11:48:29Z</time></trkpt><trkpt lat="44.325857492595205" lon="11.675949756828235"><ele>54.14285714285714</ele><time>2026-04-12T11:48:30Z</time></trkpt><trkpt lat="44.325904577411514" lon="11.67602319316584"><ele>54.0</ele><time>2026-04-12T11:48:31Z</time></trkpt><trkpt lat="44.325953015068556" lon="11.676101895985127"><ele>54.166666666666664</ele><time>2026-04-12T11:48:32Z</time></trkpt><trkpt lat="44.32600340852286" lon="11.676177460812907"><ele>54.33333333333333</ele><time>2026-04-12T11:48:33Z</time></trkpt><trkpt lat="44.32605557327562" lon="11.676254224334075"><ele>54.5</ele><time>2026-04-12T11:48:34Z</time></trkpt><trkpt lat="44.32610628869094" lon="11.676333791073388"><ele>54.666666666666664</ele><time>2026-04-12T11:48:35Z</time></trkpt><trkpt lat="44.32615703603442" lon="11.676416500520043"><ele>54.83333333333333</ele><time>2026-04-12T11:48:36Z</time></trkpt><trkpt lat="44.326204218520445" lon="11.676501778167413"><ele>55.0</ele><time>2026-04-12T11:48:37Z</time></trkpt><trkpt lat="44.326256349829286" lon="11.676577898753909"><ele>54.99999999999999</ele><time>2026-04-12T11:48:38Z</time></trkpt><trkpt lat="44.32630476524461" lon="11.676661184558407"><ele>55.0</ele><time>2026-04-12T11:48:39Z</time></trkpt><trkpt lat="44.32635447027587" lon="11.676740669524088"><ele>55.0</ele><time>2026-04-12T11:48:40Z</time></trkpt><trkpt lat="44.32640806866168" lon="11.67681498595393"><ele>55.0</ele><time>2026-04-12T11:48:41Z</time></trkpt><trkpt lat="44.32646199527664" lon="11.676893760528"><ele>54.99999999999999</ele><time>2026-04-12T11:48:42Z</time></trkpt><trkpt lat="44.326518636731485" lon="11.676970216646085"><ele>55.0</ele><time>2026-04-12T11:48:43Z</time></trkpt><trkpt lat="44.326560773319756" lon="11.677065430099404"><ele>54.99999999999999</ele><time>2026-04-12T11:48:44Z</time></trkpt><trkpt lat="44.32662039038945" lon="11.67712890034907"><ele>55.0</ele><time>2026-04-12T11:48:45Z</time></trkpt><trkpt lat="44.326669804194616" lon="11.67721099587795"><ele>55.0</ele><time>2026-04-12T11:48:46Z</time></trkpt><trkpt lat="44.32671746697062" lon="11.677294318682657"><ele>55.0</ele><time>2026-04-12T11:48:47Z</time></trkpt><trkpt lat="44.32676682891674" lon="11.677381300542082"><ele>54.99999999999999</ele><time>2026-04-12T11:48:48Z</time></trkpt><trkpt lat="44.32681449915882" lon="11.677466846005672"><ele>55.0</ele><time>2026-04-12T11:48:49Z</time></trkpt><trkpt lat="44.32686719510362" lon="11.6775560245325"><ele>54.99999999999999</ele><time>2026-04-12T11:48:50Z</time></trkpt><trkpt lat="44.32690978078875" lon="11.677644494148401"><ele>55.0</ele><time>2026-04-12T11:48:51Z</time></trkpt><trkpt lat="44.326961315344356" lon="11.6777303900074"><ele>55.0</ele><time>2026-04-12T11:48:52Z</time></trkpt><trkpt lat="44.32701560466141" lon="11.677817478903336"><ele>55.0</ele><time>2026-04-12T11:48:53Z</time></trkpt><trkpt lat="44.32706506110835" lon="11.677906195334533"><ele>54.99999999999999</ele><time>2026-04-12T11:48:54Z</time></trkpt><trkpt lat="44.327113688454396" lon="11.67798959621343"><ele>55.0</ele><time>2026-04-12T11:48:55Z</time></trkpt><trkpt lat="44.32717227720307" lon="11.678064174854358"><ele>54.49999999999999</ele><time>2026-04-12T11:48:56Z</time></trkpt><trkpt lat="44.3272379076712" lon="11.678134497056584"><ele>54.0</ele><time>2026-04-12T11:48:57Z</time></trkpt><trkpt lat="44.32731853709661" lon="11.678178127656723"><ele>53.5</ele><time>2026-04-12T11:48:58Z</time></trkpt><trkpt lat="44.327394692518666" lon="11.678213206338347"><ele>53.0</ele><time>2026-04-12T11:48:59Z</time></trkpt><trkpt lat="44.3274805379948" lon="11.67825191051247"><ele>52.49999999999999</ele><time>2026-04-12T11:49:00Z</time></trkpt><trkpt lat="44.327562347071634" lon="11.678291115150673"><ele>52.0</ele><time>2026-04-12T11:49:01Z</time></trkpt><trkpt lat="44.32764830076594" lon="11.678324180335794"><ele>51.99999999999999</ele><time>2026-04-12T11:49:02Z</time></trkpt><trkpt lat="44.32773206485992" lon="11.678356958704164"><ele>52.0</ele><time>2026-04-12T11:49:03Z</time></trkpt><trkpt lat="44.327814856924114" lon="11.678389723576945"><ele>52.0</ele><time>2026-04-12T11:49:04Z</time></trkpt><trkpt lat="44.32789799585929" lon="11.678418258354183"><ele>52.0</ele><time>2026-04-12T11:49:05Z</time></trkpt><trkpt lat="44.32797984464312" lon="11.67844322214285"><ele>51.99999999999999</ele><time>2026-04-12T11:49:06Z</time></trkpt><trkpt lat="44.328058760428874" lon="11.67847185369931"><ele>52.0</ele><time>2026-04-12T11:49:07Z</time></trkpt><trkpt lat="44.32813370236657" lon="11.678510103924438"><ele>52.166666666666664</ele><time>2026-04-12T11:49:08Z</time></trkpt><trkpt lat="44.32820065172969" lon="11.678574102192394"><ele>52.33333333333333</ele><time>2026-04-12T11:49:09Z</time></trkpt><trkpt lat="44.328255666991446" lon="11.678654201895108"><ele>52.5</ele><time>2026-04-12T11:49:10Z</time></trkpt><trkpt lat="44.32829753156898" lon="11.678742031135933"><ele>52.66666666666667</ele><time>2026-04-12T11:49:11Z</time></trkpt><trkpt lat="44.32833654089043" lon="11.67883068163952"><ele>52.833333333333336</ele><time>2026-04-12T11:49:12Z</time></trkpt><trkpt lat="44.32837515708292" lon="11.678919303638041"><ele>53.0</ele><time>2026-04-12T11:49:13Z</time></trkpt><trkpt lat="44.32841518967965" lon="11.679006791110739"><ele>53.00000000000001</ele><time>2026-04-12T11:49:14Z</time></trkpt><trkpt lat="44.32845343293957" lon="11.679097735657805"><ele>53.0</ele><time>2026-04-12T11:49:15Z</time></trkpt><trkpt lat="44.32849235610726" lon="11.679190920277328"><ele>53.0</ele><time>2026-04-12T11:49:16Z</time></trkpt><trkpt lat="44.328533841672666" lon="11.67928762825255"><ele>53.0</ele><time>2026-04-12T11:49:17Z</time></trkpt><trkpt lat="44.328572874822505" lon="11.679384467781048"><ele>53.00000000000001</ele><time>2026-04-12T11:49:18Z</time></trkpt><trkpt lat="44.328616233577236" lon="11.67948066323696"><ele>53.0</ele><time>2026-04-12T11:49:19Z</time></trkpt><trkpt lat="44.32866232499378" lon="11.67957201206407"><ele>53.00000000000001</ele><time>2026-04-12T11:49:20Z</time></trkpt><trkpt lat="44.32871743884432" lon="11.679657239327735"><ele>53.0</ele><time>2026-04-12T11:49:21Z</time></trkpt><trkpt lat="44.32877797683023" lon="11.679734609080255"><ele>53.0</ele><time>2026-04-12T11:49:22Z</time></trkpt><trkpt lat="44.328841584370366" lon="11.679795806151333"><ele>53.0</ele><time>2026-04-12T11:49:23Z</time></trkpt><trkpt lat="44.3289117892815" lon="11.679845695351975"><ele>53.00000000000001</ele><time>2026-04-12T11:49:24Z</time></trkpt><trkpt lat="44.32898141244563" lon="11.679892713906728"><ele>53.0</ele><time>2026-04-12T11:49:25Z</time></trkpt><trkpt lat="44.3290466174775" lon="11.679956821304472"><ele>53.00000000000001</ele><time>2026-04-12T11:49:26Z</time></trkpt><trkpt lat="44.32911704040031" lon="11.67999248984517"><ele>53.0</ele><time>2026-04-12T11:49:27Z</time></trkpt><trkpt lat="44.329197214717794" lon="11.680053262295283"><ele>53.0</ele><time>2026-04-12T11:49:28Z</time></trkpt><trkpt lat="44.32927678059479" lon="11.680108825110494"><ele>53.0</ele><time>2026-04-12T11:49:29Z</time></trkpt><trkpt lat="44.32935877050208" lon="11.680150654090665"><ele>53.00000000000001</ele><time>2026-04-12T11:49:30Z</time></trkpt><trkpt lat="44.32944302961375" lon="11.680174080346692"><ele>53.0</ele><time>2026-04-12T11:49:31Z</time></trkpt><trkpt lat="44.32952886874698" lon="11.680190607199304"><ele>53.00000000000001</ele><time>2026-04-12T11:49:32Z</time></trkpt><trkpt lat="44.32960261164049" lon="11.680141861581307"><ele>53.0</ele><time>2026-04-12T11:49:33Z</time></trkpt><trkpt lat="44.32968327903457" lon="11.680106244858477"><ele>53.0</ele><time>2026-04-12T11:49:34Z</time></trkpt><trkpt lat="44.329765225192325" lon="11.680073433934444"><ele>53.0</ele><time>2026-04-12T11:49:35Z</time></trkpt><trkpt lat="44.32984828788522" lon="11.680073231258545"><ele>53.00000000000001</ele><time>2026-04-12T11:49:35.999Z</time></trkpt><trkpt lat="44.3299318503718" lon="11.680109350061404"><ele>53.0</ele><time>2026-04-12T11:49:36.999Z</time></trkpt><trkpt lat="44.33000513737253" lon="11.680163471025397"><ele>52.833333333333336</ele><time>2026-04-12T11:49:37.999Z</time></trkpt><trkpt lat="44.33008056997068" lon="11.680211068248013"><ele>52.66666666666667</ele><time>2026-04-12T11:49:38.999Z</time></trkpt><trkpt lat="44.33015854640769" lon="11.680256238244086"><ele>52.5</ele><time>2026-04-12T11:49:39.999Z</time></trkpt><trkpt lat="44.33023792840305" lon="11.68030435292769"><ele>52.33333333333333</ele><time>2026-04-12T11:49:40.999Z</time></trkpt><trkpt lat="44.33031821993949" lon="11.680354474377218"><ele>52.166666666666664</ele><time>2026-04-12T11:49:41.999Z</time></trkpt><trkpt lat="44.33039965764906" lon="11.680407065032998"><ele>52.0</ele><time>2026-04-12T11:49:42.999Z</time></trkpt><trkpt lat="44.330482330253" lon="11.680463152861234"><ele>52.0</ele><time>2026-04-12T11:49:43.999Z</time></trkpt><trkpt lat="44.330563265805644" lon="11.680524921488825"><ele>52.0</ele><time>2026-04-12T11:49:44.999Z</time></trkpt><trkpt lat="44.33064223740329" lon="11.680587580040157"><ele>52.0</ele><time>2026-04-12T11:49:45.999Z</time></trkpt><trkpt lat="44.330722266483704" lon="11.680648928483768"><ele>52.0</ele><time>2026-04-12T11:49:46.999Z</time></trkpt><trkpt lat="44.33079993956782" lon="11.68071057728804"><ele>52.0</ele><time>2026-04-12T11:49:47.999Z</time></trkpt><trkpt lat="44.33087478027786" lon="11.680778122085849"><ele>51.99999999999999</ele><time>2026-04-12T11:49:48.999Z</time></trkpt><trkpt lat="44.33094877656806" lon="11.680848851195991"><ele>52.0</ele><time>2026-04-12T11:49:49.999Z</time></trkpt><trkpt lat="44.33102173898581" lon="11.680918302790785"><ele>52.0</ele><time>2026-04-12T11:49:50.999Z</time></trkpt><trkpt lat="44.33109528261231" lon="11.680987097100429"><ele>52.0</ele><time>2026-04-12T11:49:51.999Z</time></trkpt><trkpt lat="44.331170136907396" lon="11.681054766891007"><ele>51.99999999999999</ele><time>2026-04-12T11:49:52.999Z</time></trkpt><trkpt lat="44.33124356984469" lon="11.681122670906086"><ele>52.0</ele><time>2026-04-12T11:49:53.999Z</time></trkpt><trkpt lat="44.331315047205706" lon="11.681182900425057"><ele>51.99999999999999</ele><time>2026-04-12T11:49:54.999Z</time></trkpt><trkpt lat="44.3313866000965" lon="11.681234970834216"><ele>52.0</ele><time>2026-04-12T11:49:55.999Z</time></trkpt><trkpt lat="44.33146170353327" lon="11.681282655361501"><ele>52.0</ele><time>2026-04-12T11:49:56.999Z</time></trkpt><trkpt lat="44.33154308192698" lon="11.6813312966786"><ele>52.0</ele><time>2026-04-12T11:49:57.999Z</time></trkpt><trkpt lat="44.3316287586412" lon="11.681382302701996"><ele>51.99999999999999</ele><time>2026-04-12T11:49:58.999Z</time></trkpt><trkpt lat="44.331712522315335" lon="11.681431139164834"><ele>52.0</ele><time>2026-04-12T11:49:59.999Z</time></trkpt><trkpt lat="44.33179415328925" lon="11.681481909846935"><ele>51.99999999999999</ele><time>2026-04-12T11:50:00.999Z</time></trkpt><trkpt lat="44.33187456481433" lon="11.681538221855353"><ele>52.0</ele><time>2026-04-12T11:50:01.999Z</time></trkpt><trkpt lat="44.33195509888249" lon="11.681593929361464"><ele>52.0</ele><time>2026-04-12T11:50:03Z</time></trkpt><trkpt lat="44.33203102407204" lon="11.68164387125174"><ele>52.0</ele><time>2026-04-12T11:50:04Z</time></trkpt><trkpt lat="44.33210941873562" lon="11.681688406307696"><ele>51.99999999999999</ele><time>2026-04-12T11:50:05Z</time></trkpt><trkpt lat="44.33218775539502" lon="11.681736463126354"><ele>52.0</ele><time>2026-04-12T11:50:06Z</time></trkpt><trkpt lat="44.332264515691215" lon="11.681786324607817"><ele>52.166666666666664</ele><time>2026-04-12T11:50:07Z</time></trkpt><trkpt lat="44.3323424578141" lon="11.681835691607944"><ele>52.33333333333333</ele><time>2026-04-12T11:50:08Z</time></trkpt><trkpt lat="44.33241944093829" lon="11.68188395770622"><ele>52.5</ele><time>2026-04-12T11:50:09Z</time></trkpt><trkpt lat="44.332494138355905" lon="11.68192820911324"><ele>52.66666666666667</ele><time>2026-04-12T11:50:10Z</time></trkpt><trkpt lat="44.3325761658243" lon="11.681979256176755"><ele>52.833333333333336</ele><time>2026-04-12T11:50:11Z</time></trkpt><trkpt lat="44.33265775479784" lon="11.682029598345721"><ele>53.0</ele><time>2026-04-12T11:50:12Z</time></trkpt><trkpt lat="44.332741815723935" lon="11.682071479958566"><ele>52.66666666666667</ele><time>2026-04-12T11:50:13Z</time></trkpt><trkpt lat="44.33282163284284" lon="11.682117567910138"><ele>52.333333333333336</ele><time>2026-04-12T11:50:14Z</time></trkpt><trkpt lat="44.33289991876747" lon="11.68216814602156"><ele>52.0</ele><time>2026-04-12T11:50:15Z</time></trkpt><trkpt lat="44.3329726196589" lon="11.682218166400567"><ele>51.66666666666667</ele><time>2026-04-12T11:50:16Z</time></trkpt><trkpt lat="44.333060612168005" lon="11.682262583842085"><ele>51.333333333333336</ele><time>2026-04-12T11:50:17Z</time></trkpt><trkpt lat="44.333139975481856" lon="11.682312644668098"><ele>51.0</ele><time>2026-04-12T11:50:18Z</time></trkpt><trkpt lat="44.33322004497642" lon="11.682362850337034"><ele>51.0</ele><time>2026-04-12T11:50:19Z</time></trkpt><trkpt lat="44.333300039739726" lon="11.682414655267747"><ele>51.0</ele><time>2026-04-12T11:50:20Z</time></trkpt><trkpt lat="44.33337943386972" lon="11.68246365314046"><ele>51.0</ele><time>2026-04-12T11:50:21Z</time></trkpt><trkpt lat="44.333459827866534" lon="11.682515377510553"><ele>51.0</ele><time>2026-04-12T11:50:22Z</time></trkpt><trkpt lat="44.33353839603857" lon="11.682566846456831"><ele>51.0</ele><time>2026-04-12T11:50:23Z</time></trkpt><trkpt lat="44.333617962643864" lon="11.68262853391502"><ele>51.0</ele><time>2026-04-12T11:50:24Z</time></trkpt><trkpt lat="44.33368847926788" lon="11.682696395629772"><ele>51.0</ele><time>2026-04-12T11:50:25Z</time></trkpt><trkpt lat="44.33375891474249" lon="11.682774731604297"><ele>51.0</ele><time>2026-04-12T11:50:26Z</time></trkpt><trkpt lat="44.33382220465276" lon="11.682860834334486"><ele>51.0</ele><time>2026-04-12T11:50:27Z</time></trkpt><trkpt lat="44.33389292311422" lon="11.682944117196433"><ele>51.0</ele><time>2026-04-12T11:50:28Z</time></trkpt><trkpt lat="44.33395652072071" lon="11.683028417185199"><ele>51.0</ele><time>2026-04-12T11:50:29Z</time></trkpt><trkpt lat="44.33401933901166" lon="11.683111959801858"><ele>51.0</ele><time>2026-04-12T11:50:30Z</time></trkpt><trkpt lat="44.334085094493624" lon="11.683195549558807"><ele>51.0</ele><time>2026-04-12T11:50:31Z</time></trkpt><trkpt lat="44.33414981363286" lon="11.6832794564457"><ele>51.0</ele><time>2026-04-12T11:50:32Z</time></trkpt><trkpt lat="44.334213655696715" lon="11.683362084058464"><ele>51.0</ele><time>2026-04-12T11:50:33Z</time></trkpt><trkpt lat="44.33428020520478" lon="11.683447325966728"><ele>51.0</ele><time>2026-04-12T11:50:34Z</time></trkpt><trkpt lat="44.334346029700384" lon="11.683535207781816"><ele>51.0</ele><time>2026-04-12T11:50:35Z</time></trkpt><trkpt lat="44.334411212821095" lon="11.683620438618615"><ele>51.0</ele><time>2026-04-12T11:50:36Z</time></trkpt><trkpt lat="44.33447038316176" lon="11.68370584259738"><ele>51.166666666666664</ele><time>2026-04-12T11:50:37Z</time></trkpt><trkpt lat="44.33453689200349" lon="11.683789932245892"><ele>51.33333333333333</ele><time>2026-04-12T11:50:38Z</time></trkpt><trkpt lat="44.334604285773615" lon="11.6838732199502"><ele>51.5</ele><time>2026-04-12T11:50:39Z</time></trkpt><trkpt lat="44.33466940846652" lon="11.683953108674963"><ele>51.666666666666664</ele><time>2026-04-12T11:50:40Z</time></trkpt><trkpt lat="44.33473753576608" lon="11.684032917953504"><ele>51.83333333333333</ele><time>2026-04-12T11:50:41Z</time></trkpt><trkpt lat="44.33479790949982" lon="11.684119230128088"><ele>52.0</ele><time>2026-04-12T11:50:42Z</time></trkpt><trkpt lat="44.33486241529867" lon="11.68420606998427"><ele>51.99999999999999</ele><time>2026-04-12T11:50:43Z</time></trkpt><trkpt lat="44.33492780076437" lon="11.684292334764207"><ele>52.0</ele><time>2026-04-12T11:50:44Z</time></trkpt><trkpt lat="44.33499284658934" lon="11.68437855620688"><ele>52.0</ele><time>2026-04-12T11:50:45Z</time></trkpt><trkpt lat="44.33505812200406" lon="11.684464883957336"><ele>52.0</ele><time>2026-04-12T11:50:46Z</time></trkpt><trkpt lat="44.335122175456156" lon="11.684546669648185"><ele>51.99999999999999</ele><time>2026-04-12T11:50:47Z</time></trkpt><trkpt lat="44.335188713355166" lon="11.684629892467578"><ele>52.0</ele><time>2026-04-12T11:50:48Z</time></trkpt><trkpt lat="44.33525330366464" lon="11.68471382950971"><ele>51.83333333333333</ele><time>2026-04-12T11:50:49Z</time></trkpt><trkpt lat="44.33531836627262" lon="11.684797878471743"><ele>51.666666666666664</ele><time>2026-04-12T11:50:50Z</time></trkpt><trkpt lat="44.33538071654199" lon="11.684885281887894"><ele>51.5</ele><time>2026-04-12T11:50:51Z</time></trkpt><trkpt lat="44.33544548517252" lon="11.684972589310451"><ele>51.33333333333333</ele><time>2026-04-12T11:50:52Z</time></trkpt><trkpt lat="44.33551019082064" lon="11.685056789355587"><ele>51.166666666666664</ele><time>2026-04-12T11:50:53Z</time></trkpt><trkpt lat="44.33557322547965" lon="11.685140518643923"><ele>51.0</ele><time>2026-04-12T11:50:54Z</time></trkpt><trkpt lat="44.33563605391851" lon="11.685226153275021"><ele>51.0</ele><time>2026-04-12T11:50:55Z</time></trkpt><trkpt lat="44.33569990234021" lon="11.685308088055292"><ele>51.0</ele><time>2026-04-12T11:50:56Z</time></trkpt><trkpt lat="44.33576022778547" lon="11.68539012346126"><ele>51.0</ele><time>2026-04-12T11:50:57Z</time></trkpt><trkpt lat="44.33582404117169" lon="11.6854745964767"><ele>51.0</ele><time>2026-04-12T11:50:58Z</time></trkpt><trkpt lat="44.33588748142645" lon="11.68555703498716"><ele>51.0</ele><time>2026-04-12T11:50:59Z</time></trkpt><trkpt lat="44.335953642157136" lon="11.685634693734158"><ele>51.0</ele><time>2026-04-12T11:51:00Z</time></trkpt><trkpt lat="44.33602019067387" lon="11.685711617859598"><ele>51.0</ele><time>2026-04-12T11:51:01Z</time></trkpt><trkpt lat="44.33608725290363" lon="11.685788855892515"><ele>51.0</ele><time>2026-04-12T11:51:02Z</time></trkpt><trkpt lat="44.3361555146034" lon="11.685862354193214"><ele>51.0</ele><time>2026-04-12T11:51:03Z</time></trkpt><trkpt lat="44.33622247500152" lon="11.685930611827903"><ele>51.0</ele><time>2026-04-12T11:51:04Z</time></trkpt><trkpt lat="44.336290560374394" lon="11.685994810788719"><ele>51.0</ele><time>2026-04-12T11:51:05Z</time></trkpt><trkpt lat="44.336357967657655" lon="11.68606235632041"><ele>51.0</ele><time>2026-04-12T11:51:06Z</time></trkpt><trkpt lat="44.33642542789968" lon="11.686130016725274"><ele>51.333333333333336</ele><time>2026-04-12T11:51:07Z</time></trkpt><trkpt lat="44.33649364380178" lon="11.686204431533238"><ele>51.66666666666667</ele><time>2026-04-12T11:51:08Z</time></trkpt><trkpt lat="44.33655825760493" lon="11.686281302856923"><ele>52.0</ele><time>2026-04-12T11:51:09Z</time></trkpt><trkpt lat="44.336619552555526" lon="11.686368315462486"><ele>52.333333333333336</ele><time>2026-04-12T11:51:10Z</time></trkpt><trkpt lat="44.336681176387444" lon="11.686460079790013"><ele>52.66666666666667</ele><time>2026-04-12T11:51:11Z</time></trkpt><trkpt lat="44.33673434015022" lon="11.686549074503056"><ele>53.0</ele><time>2026-04-12T11:51:12Z</time></trkpt><trkpt lat="44.336791350369054" lon="11.686636662489605"><ele>53.00000000000001</ele><time>2026-04-12T11:51:13Z</time></trkpt><trkpt lat="44.3368467968495" lon="11.68672524725687"><ele>53.0</ele><time>2026-04-12T11:51:14Z</time></trkpt><trkpt lat="44.336902153414336" lon="11.686813388806112"><ele>53.0</ele><time>2026-04-12T11:51:15Z</time></trkpt><trkpt lat="44.336954283812084" lon="11.686902634892002"><ele>53.0</ele><time>2026-04-12T11:51:16Z</time></trkpt><trkpt lat="44.337005697475604" lon="11.686987443578882"><ele>53.00000000000001</ele><time>2026-04-12T11:51:17Z</time></trkpt><trkpt lat="44.33705933176202" lon="11.687071505192822"><ele>53.0</ele><time>2026-04-12T11:51:18Z</time></trkpt><trkpt lat="44.337120992263024" lon="11.687154252804143"><ele>53.00000000000001</ele><time>2026-04-12T11:51:19Z</time></trkpt><trkpt lat="44.33717398038396" lon="11.687238205708583"><ele>53.0</ele><time>2026-04-12T11:51:20Z</time></trkpt><trkpt lat="44.33722762044065" lon="11.687323402635915"><ele>53.0</ele><time>2026-04-12T11:51:21Z</time></trkpt><trkpt lat="44.33728064144852" lon="11.687412090730835"><ele>53.0</ele><time>2026-04-12T11:51:22Z</time></trkpt><trkpt lat="44.33734080133644" lon="11.687493750647334"><ele>53.00000000000001</ele><time>2026-04-12T11:51:23Z</time></trkpt><trkpt lat="44.337398194445136" lon="11.687577644965472"><ele>53.0</ele><time>2026-04-12T11:51:24Z</time></trkpt><trkpt lat="44.337452080012945" lon="11.687661228631162"><ele>53.00000000000001</ele><time>2026-04-12T11:51:25Z</time></trkpt><trkpt lat="44.337507326372595" lon="11.687743543190471"><ele>53.0</ele><time>2026-04-12T11:51:26Z</time></trkpt><trkpt lat="44.337562531729404" lon="11.68782638607039"><ele>53.0</ele><time>2026-04-12T11:51:27Z</time></trkpt><trkpt lat="44.33761902903791" lon="11.687907342484523"><ele>53.0</ele><time>2026-04-12T11:51:28Z</time></trkpt><trkpt lat="44.33767511166215" lon="11.68798820568674"><ele>53.00000000000001</ele><time>2026-04-12T11:51:29Z</time></trkpt><trkpt lat="44.33773043988708" lon="11.688068271632737"><ele>53.0</ele><time>2026-04-12T11:51:30Z</time></trkpt><trkpt lat="44.33778708964075" lon="11.68815030648208"><ele>53.00000000000001</ele><time>2026-04-12T11:51:31Z</time></trkpt><trkpt lat="44.33784318569657" lon="11.688232528081551"><ele>53.0</ele><time>2026-04-12T11:51:32Z</time></trkpt><trkpt lat="44.33790197996924" lon="11.6883118447904"><ele>53.0</ele><time>2026-04-12T11:51:33Z</time></trkpt><trkpt lat="44.33795814275623" lon="11.688392498549277"><ele>53.0</ele><time>2026-04-12T11:51:34Z</time></trkpt><trkpt lat="44.338013839330976" lon="11.688475144457955"><ele>53.00000000000001</ele><time>2026-04-12T11:51:35Z</time></trkpt><trkpt lat="44.338070904835355" lon="11.688555064138438"><ele>53.0</ele><time>2026-04-12T11:51:36Z</time></trkpt><trkpt lat="44.33812726823356" lon="11.688636835878034"><ele>52.66666666666667</ele><time>2026-04-12T11:51:37Z</time></trkpt><trkpt lat="44.33818016342481" lon="11.688717784832992"><ele>52.333333333333336</ele><time>2026-04-12T11:51:38Z</time></trkpt><trkpt lat="44.338233457696646" lon="11.688798125536579"><ele>52.0</ele><time>2026-04-12T11:51:39Z</time></trkpt><trkpt lat="44.33828793116479" lon="11.688879050774492"><ele>51.66666666666667</ele><time>2026-04-12T11:51:40Z</time></trkpt><trkpt lat="44.338343410579554" lon="11.688958174140598"><ele>51.333333333333336</ele><time>2026-04-12T11:51:41Z</time></trkpt><trkpt lat="44.33839962388688" lon="11.689038434428308"><ele>51.0</ele><time>2026-04-12T11:51:42Z</time></trkpt><trkpt lat="44.3384552409326" lon="11.689118873941997"><ele>51.0</ele><time>2026-04-12T11:51:43Z</time></trkpt><trkpt lat="44.338512522746086" lon="11.689200373035618"><ele>51.0</ele><time>2026-04-12T11:51:44Z</time></trkpt><trkpt lat="44.33856859384597" lon="11.689280551366194"><ele>51.0</ele><time>2026-04-12T11:51:45Z</time></trkpt><trkpt lat="44.338623182035704" lon="11.689363203329881"><ele>51.0</ele><time>2026-04-12T11:51:46Z</time></trkpt><trkpt lat="44.338681224004894" lon="11.68944307479985"><ele>51.0</ele><time>2026-04-12T11:51:47Z</time></trkpt><trkpt lat="44.33873962557165" lon="11.689529147371275"><ele>51.0</ele><time>2026-04-12T11:51:48Z</time></trkpt><trkpt lat="44.33879467406071" lon="11.689615141747614"><ele>51.0</ele><time>2026-04-12T11:51:49Z</time></trkpt><trkpt lat="44.338847165204974" lon="11.689696604731722"><ele>51.0</ele><time>2026-04-12T11:51:50Z</time></trkpt><trkpt lat="44.33890171840502" lon="11.689781585902546"><ele>51.0</ele><time>2026-04-12T11:51:51Z</time></trkpt><trkpt lat="44.338955084307955" lon="11.689867253427645"><ele>51.0</ele><time>2026-04-12T11:51:52Z</time></trkpt><trkpt lat="44.339004808245534" lon="11.689956189305798"><ele>51.0</ele><time>2026-04-12T11:51:53Z</time></trkpt><trkpt lat="44.339055737229664" lon="11.690044988446743"><ele>51.0</ele><time>2026-04-12T11:51:54Z</time></trkpt><trkpt lat="44.33910519165816" lon="11.690140533794064"><ele>51.0</ele><time>2026-04-12T11:51:55Z</time></trkpt><trkpt lat="44.339147262253896" lon="11.690241295732125"><ele>51.0</ele><time>2026-04-12T11:51:56Z</time></trkpt><trkpt lat="44.33918263914457" lon="11.69034314062166"><ele>51.0</ele><time>2026-04-12T11:51:57Z</time></trkpt><trkpt lat="44.33921733291086" lon="11.690446939443065"><ele>51.0</ele><time>2026-04-12T11:51:57.999Z</time></trkpt><trkpt lat="44.339260022052066" lon="11.690541767613308"><ele>51.0</ele><time>2026-04-12T11:51:58.999Z</time></trkpt><trkpt lat="44.339310732235795" lon="11.690630249497293"><ele>51.0</ele><time>2026-04-12T11:51:59.999Z</time></trkpt><trkpt lat="44.33936380018224" lon="11.690720085988563"><ele>51.0</ele><time>2026-04-12T11:52:00.999Z</time></trkpt><trkpt lat="44.33941957737978" lon="11.690808490060608"><ele>51.0</ele><time>2026-04-12T11:52:01.999Z</time></trkpt><trkpt lat="44.33947447801624" lon="11.690896423768589"><ele>51.0</ele><time>2026-04-12T11:52:02.999Z</time></trkpt><trkpt lat="44.33953110827791" lon="11.690982077170286"><ele>51.0</ele><time>2026-04-12T11:52:03.999Z</time></trkpt><trkpt lat="44.339587704767865" lon="11.691070050709563"><ele>51.0</ele><time>2026-04-12T11:52:05Z</time></trkpt><trkpt lat="44.339642647255516" lon="11.691155977282078"><ele>51.0</ele><time>2026-04-12T11:52:05.999Z</time></trkpt><trkpt lat="44.339698547802314" lon="11.6912408354939"><ele>50.833333333333336</ele><time>2026-04-12T11:52:06.999Z</time></trkpt><trkpt lat="44.33975478878082" lon="11.691325425416855"><ele>50.66666666666667</ele><time>2026-04-12T11:52:07.999Z</time></trkpt><trkpt lat="44.33981215348228" lon="11.691406110113459"><ele>50.5</ele><time>2026-04-12T11:52:09Z</time></trkpt><trkpt lat="44.33987042360346" lon="11.691489508228015"><ele>50.333333333333336</ele><time>2026-04-12T11:52:10Z</time></trkpt><trkpt lat="44.339922805626195" lon="11.691571152766755"><ele>50.16666666666667</ele><time>2026-04-12T11:52:11Z</time></trkpt><trkpt lat="44.33998300271396" lon="11.691653577295726"><ele>50.0</ele><time>2026-04-12T11:52:12Z</time></trkpt><trkpt lat="44.340040899150566" lon="11.691734428490768"><ele>50.00000000000001</ele><time>2026-04-12T11:52:13Z</time></trkpt><trkpt lat="44.340102613818054" lon="11.691814041930092"><ele>50.0</ele><time>2026-04-12T11:52:14Z</time></trkpt><trkpt lat="44.34016192255891" lon="11.691889581865471"><ele>50.0</ele><time>2026-04-12T11:52:15Z</time></trkpt><trkpt lat="44.34021982923541" lon="11.69196680688052"><ele>50.0</ele><time>2026-04-12T11:52:16Z</time></trkpt><trkpt lat="44.34028130752599" lon="11.692040141587647"><ele>50.00000000000001</ele><time>2026-04-12T11:52:17Z</time></trkpt><trkpt lat="44.340342705819886" lon="11.692113089311004"><ele>50.0</ele><time>2026-04-12T11:52:18Z</time></trkpt><trkpt lat="44.34040684807664" lon="11.69219354960859"><ele>50.16666666666667</ele><time>2026-04-12T11:52:19Z</time></trkpt><trkpt lat="44.340471499193356" lon="11.692271354821331"><ele>50.333333333333336</ele><time>2026-04-12T11:52:20Z</time></trkpt><trkpt lat="44.34053685362594" lon="11.69234814189147"><ele>50.5</ele><time>2026-04-12T11:52:21Z</time></trkpt><trkpt lat="44.34060063084713" lon="11.692425268911233"><ele>50.66666666666667</ele><time>2026-04-12T11:52:22Z</time></trkpt><trkpt lat="44.340662249284144" lon="11.692497940373578"><ele>50.833333333333336</ele><time>2026-04-12T11:52:23Z</time></trkpt><trkpt lat="44.34072202770655" lon="11.692577894826835"><ele>51.0</ele><time>2026-04-12T11:52:24Z</time></trkpt><trkpt lat="44.340791137579174" lon="11.692657023468014"><ele>51.0</ele><time>2026-04-12T11:52:25Z</time></trkpt><trkpt lat="44.340856745862226" lon="11.692735213336817"><ele>51.0</ele><time>2026-04-12T11:52:26Z</time></trkpt><trkpt lat="44.34091855112324" lon="11.692816582880445"><ele>51.0</ele><time>2026-04-12T11:52:27Z</time></trkpt><trkpt lat="44.34098019655278" lon="11.692904965880365"><ele>51.0</ele><time>2026-04-12T11:52:28Z</time></trkpt><trkpt lat="44.34104972559659" lon="11.692981707798786"><ele>51.0</ele><time>2026-04-12T11:52:29Z</time></trkpt><trkpt lat="44.341120502978114" lon="11.693061878287006"><ele>51.0</ele><time>2026-04-12T11:52:30Z</time></trkpt><trkpt lat="44.34118522814872" lon="11.693152282894868"><ele>50.833333333333336</ele><time>2026-04-12T11:52:31Z</time></trkpt><trkpt lat="44.341251782665736" lon="11.693232378875917"><ele>50.66666666666667</ele><time>2026-04-12T11:52:32Z</time></trkpt><trkpt lat="44.34131960172249" lon="11.69331596789382"><ele>50.5</ele><time>2026-04-12T11:52:33Z</time></trkpt><trkpt lat="44.341384301126574" lon="11.693404983617427"><ele>50.333333333333336</ele><time>2026-04-12T11:52:34Z</time></trkpt><trkpt lat="44.34143984883551" lon="11.693496366631107"><ele>50.16666666666667</ele><time>2026-04-12T11:52:35Z</time></trkpt><trkpt lat="44.341498712682956" lon="11.693586090053314"><ele>50.0</ele><time>2026-04-12T11:52:36Z</time></trkpt><trkpt lat="44.34155538739476" lon="11.693681972573179"><ele>49.66666666666667</ele><time>2026-04-12T11:52:37Z</time></trkpt><trkpt lat="44.341609888066145" lon="11.693774655387944"><ele>49.333333333333336</ele><time>2026-04-12T11:52:38Z</time></trkpt><trkpt lat="44.3416508339097" lon="11.69387817709175"><ele>49.0</ele><time>2026-04-12T11:52:39Z</time></trkpt><trkpt lat="44.341695902154775" lon="11.693989725818941"><ele>48.66666666666667</ele><time>2026-04-12T11:52:40Z</time></trkpt><trkpt lat="44.34173371030854" lon="11.694084298985738"><ele>48.333333333333336</ele><time>2026-04-12T11:52:41Z</time></trkpt><trkpt lat="44.34177346768938" lon="11.694188889634034"><ele>48.0</ele><time>2026-04-12T11:52:42Z</time></trkpt><trkpt lat="44.341822364468165" lon="11.69429315363737"><ele>48.0</ele><time>2026-04-12T11:52:43Z</time></trkpt><trkpt lat="44.341865437422314" lon="11.694403617474723"><ele>48.0</ele><time>2026-04-12T11:52:44Z</time></trkpt><trkpt lat="44.34190344291925" lon="11.694508108970284"><ele>48.0</ele><time>2026-04-12T11:52:45Z</time></trkpt><trkpt lat="44.341946117179425" lon="11.694611751691248"><ele>48.0</ele><time>2026-04-12T11:52:46Z</time></trkpt><trkpt lat="44.34198575192069" lon="11.694712146229175"><ele>48.0</ele><time>2026-04-12T11:52:47Z</time></trkpt><trkpt lat="44.3420313313386" lon="11.694814585558346"><ele>48.0</ele><time>2026-04-12T11:52:48Z</time></trkpt><trkpt lat="44.34207751697726" lon="11.694915782719969"><ele>47.666666666666664</ele><time>2026-04-12T11:52:49Z</time></trkpt><trkpt lat="44.342121710934336" lon="11.695012978316862"><ele>47.333333333333336</ele><time>2026-04-12T11:52:50Z</time></trkpt><trkpt lat="44.342160590086586" lon="11.695107237053724"><ele>47.0</ele><time>2026-04-12T11:52:51Z</time></trkpt><trkpt lat="44.34221291882129" lon="11.695205386732239"><ele>46.66666666666667</ele><time>2026-04-12T11:52:52Z</time></trkpt><trkpt lat="44.34226405562885" lon="11.695306710185355"><ele>46.333333333333336</ele><time>2026-04-12T11:52:53Z</time></trkpt><trkpt lat="44.342306613005576" lon="11.695398373846103"><ele>46.0</ele><time>2026-04-12T11:52:54Z</time></trkpt><trkpt lat="44.34235024301825" lon="11.695488459339504"><ele>46.0</ele><time>2026-04-12T11:52:55Z</time></trkpt><trkpt lat="44.342385580358794" lon="11.695580757215133"><ele>46.0</ele><time>2026-04-12T11:52:56Z</time></trkpt><trkpt lat="44.34241386135085" lon="11.695680802786265"><ele>46.0</ele><time>2026-04-12T11:52:57Z</time></trkpt><trkpt lat="44.34242893912459" lon="11.695787104482495"><ele>46.0</ele><time>2026-04-12T11:52:58Z</time></trkpt><trkpt lat="44.34242181401064" lon="11.695902071667728"><ele>46.0</ele><time>2026-04-12T11:52:59Z</time></trkpt><trkpt lat="44.34239410912848" lon="11.696018393506435"><ele>46.0</ele><time>2026-04-12T11:53:00Z</time></trkpt><trkpt lat="44.34235704578524" lon="11.696113527706602"><ele>46.0</ele><time>2026-04-12T11:53:01Z</time></trkpt><trkpt lat="44.3423156265088" lon="11.696180779124218"><ele>46.0</ele><time>2026-04-12T11:53:02Z</time></trkpt><trkpt lat="44.342266685789205" lon="11.696271970922673"><ele>46.0</ele><time>2026-04-12T11:53:03Z</time></trkpt><trkpt lat="44.34222986707455" lon="11.696366698569388"><ele>46.0</ele><time>2026-04-12T11:53:04Z</time></trkpt><trkpt lat="44.34219345506283" lon="11.696460428030965"><ele>46.0</ele><time>2026-04-12T11:53:05Z</time></trkpt><trkpt lat="44.34221918287112" lon="11.696571595712184"><ele>46.0</ele><time>2026-04-12T11:53:06Z</time></trkpt><trkpt lat="44.34226359691308" lon="11.696657160931224"><ele>46.0</ele><time>2026-04-12T11:53:07Z</time></trkpt><trkpt lat="44.34230642968663" lon="11.696730585929016"><ele>46.0</ele><time>2026-04-12T11:53:08Z</time></trkpt><trkpt lat="44.34235425365725" lon="11.696800340869675"><ele>46.0</ele><time>2026-04-12T11:53:09Z</time></trkpt><trkpt lat="44.342402248343916" lon="11.696879791800836"><ele>46.0</ele><time>2026-04-12T11:53:10Z</time></trkpt><trkpt lat="44.34244117832277" lon="11.696970204564163"><ele>46.0</ele><time>2026-04-12T11:53:11Z</time></trkpt><trkpt lat="44.34248964880416" lon="11.69702774563575"><ele>46.0</ele><time>2026-04-12T11:53:12Z</time></trkpt><trkpt lat="44.34247737167897" lon="11.697159396942723"><ele>46.0</ele><time>2026-04-12T11:53:13Z</time></trkpt><trkpt lat="44.34248341096128" lon="11.697264043516157"><ele>46.0</ele><time>2026-04-12T11:53:14Z</time></trkpt><trkpt lat="44.342481938742765" lon="11.697370461869866"><ele>46.0</ele><time>2026-04-12T11:53:15Z</time></trkpt><trkpt lat="44.34248685171494" lon="11.69747597012159"><ele>46.0</ele><time>2026-04-12T11:53:16Z</time></trkpt><trkpt lat="44.34249807059239" lon="11.697579476493512"><ele>46.0</ele><time>2026-04-12T11:53:17Z</time></trkpt><trkpt lat="44.342521601262675" lon="11.69768334081616"><ele>46.0</ele><time>2026-04-12T11:53:18Z</time></trkpt><trkpt lat="44.342558197191615" lon="11.697780663760069"><ele>46.0</ele><time>2026-04-12T11:53:19Z</time></trkpt><trkpt lat="44.34260299592097" lon="11.697873813987561"><ele>46.0</ele><time>2026-04-12T11:53:20Z</time></trkpt><trkpt lat="44.3426575141601" lon="11.697955424713342"><ele>46.0</ele><time>2026-04-12T11:53:21Z</time></trkpt><trkpt lat="44.34271881262021" lon="11.698029904673282"><ele>46.0</ele><time>2026-04-12T11:53:22Z</time></trkpt><trkpt lat="44.342780113146794" lon="11.698094699072875"><ele>46.0</ele><time>2026-04-12T11:53:23Z</time></trkpt><trkpt lat="44.34284290208997" lon="11.69816294167484"><ele>46.0</ele><time>2026-04-12T11:53:24Z</time></trkpt><trkpt lat="44.34290945650905" lon="11.698226787400642"><ele>46.0</ele><time>2026-04-12T11:53:25Z</time></trkpt><trkpt lat="44.34297558971572" lon="11.69828711457033"><ele>46.0</ele><time>2026-04-12T11:53:26Z</time></trkpt><trkpt lat="44.343038858264684" lon="11.698348934275751"><ele>46.0</ele><time>2026-04-12T11:53:27Z</time></trkpt><trkpt lat="44.34310526866193" lon="11.698411633024543"><ele>46.0</ele><time>2026-04-12T11:53:28Z</time></trkpt><trkpt lat="44.34316945177421" lon="11.698474219147714"><ele>46.0</ele><time>2026-04-12T11:53:29Z</time></trkpt><trkpt lat="44.343232196873764" lon="11.698541366744596"><ele>46.0</ele><time>2026-04-12T11:53:30Z</time></trkpt><trkpt lat="44.343296773274666" lon="11.69860585473429"><ele>46.0</ele><time>2026-04-12T11:53:31Z</time></trkpt><trkpt lat="44.34336311570992" lon="11.69867089993149"><ele>46.0</ele><time>2026-04-12T11:53:32Z</time></trkpt><trkpt lat="44.343424626562715" lon="11.698738430986396"><ele>46.0</ele><time>2026-04-12T11:53:33Z</time></trkpt><trkpt lat="44.343489075598015" lon="11.698803590746582"><ele>46.0</ele><time>2026-04-12T11:53:34Z</time></trkpt><trkpt lat="44.343554304830946" lon="11.698867719338692"><ele>46.0</ele><time>2026-04-12T11:53:35Z</time></trkpt><trkpt lat="44.34361891876877" lon="11.698929430459469"><ele>46.0</ele><time>2026-04-12T11:53:36Z</time></trkpt><trkpt lat="44.34368865591684" lon="11.69897787804635"><ele>46.0</ele><time>2026-04-12T11:53:37Z</time></trkpt><trkpt lat="44.34376674832319" lon="11.698991361654665"><ele>46.0</ele><time>2026-04-12T11:53:38Z</time></trkpt><trkpt lat="44.34384563301732" lon="11.698967172963902"><ele>46.0</ele><time>2026-04-12T11:53:39Z</time></trkpt><trkpt lat="44.343917046887306" lon="11.69891282361045"><ele>46.0</ele><time>2026-04-12T11:53:40Z</time></trkpt><trkpt lat="44.34397590856135" lon="11.698837796529622"><ele>46.0</ele><time>2026-04-12T11:53:41Z</time></trkpt><trkpt lat="44.344024198983384" lon="11.698750389875693"><ele>46.0</ele><time>2026-04-12T11:53:42Z</time></trkpt><trkpt lat="44.3440703136994" lon="11.698660842392844"><ele>46.0</ele><time>2026-04-12T11:53:43Z</time></trkpt><trkpt lat="44.34411451122858" lon="11.698573460482743"><ele>46.333333333333336</ele><time>2026-04-12T11:53:44Z</time></trkpt><trkpt lat="44.344157888957525" lon="11.698490224794186"><ele>46.66666666666667</ele><time>2026-04-12T11:53:45Z</time></trkpt><trkpt lat="44.344207923154904" lon="11.698414572465673"><ele>47.0</ele><time>2026-04-12T11:53:46Z</time></trkpt><trkpt lat="44.344278232980145" lon="11.6983635940979"><ele>47.333333333333336</ele><time>2026-04-12T11:53:47Z</time></trkpt><trkpt lat="44.34433942116742" lon="11.698294465619087"><ele>47.666666666666664</ele><time>2026-04-12T11:53:48Z</time></trkpt><trkpt lat="44.34441999641442" lon="11.698278843175375"><ele>48.0</ele><time>2026-04-12T11:53:49Z</time></trkpt><trkpt lat="44.344500244974995" lon="11.698280359364638"><ele>48.0</ele><time>2026-04-12T11:53:50Z</time></trkpt><trkpt lat="44.34457898643751" lon="11.69829857064927"><ele>48.0</ele><time>2026-04-12T11:53:51Z</time></trkpt><trkpt lat="44.34465644287769" lon="11.698323860072907"><ele>48.0</ele><time>2026-04-12T11:53:52Z</time></trkpt><trkpt lat="44.344731208817954" lon="11.698345566076966"><ele>48.0</ele><time>2026-04-12T11:53:53Z</time></trkpt><trkpt lat="44.34481121141319" lon="11.698362630401922"><ele>48.0</ele><time>2026-04-12T11:53:54Z</time></trkpt><trkpt lat="44.344885547954505" lon="11.698379025068293"><ele>48.0</ele><time>2026-04-12T11:53:55Z</time></trkpt><trkpt lat="44.34496517667154" lon="11.69840570303646"><ele>48.166666666666664</ele><time>2026-04-12T11:53:56Z</time></trkpt><trkpt lat="44.345043358385915" lon="11.69842919853376"><ele>48.33333333333333</ele><time>2026-04-12T11:53:57Z</time></trkpt><trkpt lat="44.34512377681039" lon="11.698452465914364"><ele>48.5</ele><time>2026-04-12T11:53:58Z</time></trkpt><trkpt lat="44.34519835769222" lon="11.69847786652702"><ele>48.666666666666664</ele><time>2026-04-12T11:53:59Z</time></trkpt><trkpt lat="44.34527870223471" lon="11.698505787158833"><ele>48.83333333333333</ele><time>2026-04-12T11:54:00Z</time></trkpt><trkpt lat="44.345357864731" lon="11.698537693378631"><ele>49.0</ele><time>2026-04-12T11:54:01Z</time></trkpt><trkpt lat="44.3454315913424" lon="11.698572329423268"><ele>48.83333333333333</ele><time>2026-04-12T11:54:02Z</time></trkpt><trkpt lat="44.345498935768056" lon="11.69860515109954"><ele>48.666666666666664</ele><time>2026-04-12T11:54:03Z</time></trkpt><trkpt lat="44.34556424399284" lon="11.698646509509445"><ele>48.5</ele><time>2026-04-12T11:54:04Z</time></trkpt><trkpt lat="44.34563354499546" lon="11.698695950212164"><ele>48.33333333333333</ele><time>2026-04-12T11:54:05Z</time></trkpt><trkpt lat="44.345701661213276" lon="11.69875144277116"><ele>48.166666666666664</ele><time>2026-04-12T11:54:06Z</time></trkpt><trkpt lat="44.345770757928186" lon="11.698812242257432"><ele>48.0</ele><time>2026-04-12T11:54:07Z</time></trkpt><trkpt lat="44.345836673158196" lon="11.698876182943861"><ele>48.0</ele><time>2026-04-12T11:54:08Z</time></trkpt><trkpt lat="44.34590052357455" lon="11.69894013365835"><ele>48.0</ele><time>2026-04-12T11:54:09Z</time></trkpt><trkpt lat="44.34596827272577" lon="11.699001189816766"><ele>48.0</ele><time>2026-04-12T11:54:10Z</time></trkpt><trkpt lat="44.34603022572963" lon="11.699070123544148"><ele>48.0</ele><time>2026-04-12T11:54:11Z</time></trkpt><trkpt lat="44.34608773426923" lon="11.699146301434604"><ele>48.0</ele><time>2026-04-12T11:54:12Z</time></trkpt><trkpt lat="44.34613973155598" lon="11.69922498635787"><ele>48.0</ele><time>2026-04-12T11:54:13Z</time></trkpt><trkpt lat="44.346194010192924" lon="11.699304246598457"><ele>48.0</ele><time>2026-04-12T11:54:14Z</time></trkpt><trkpt lat="44.34624809260935" lon="11.699383232070199"><ele>48.0</ele><time>2026-04-12T11:54:15Z</time></trkpt><trkpt lat="44.346299729002894" lon="11.699464102907863"><ele>48.0</ele><time>2026-04-12T11:54:16Z</time></trkpt><trkpt lat="44.34635083979949" lon="11.699546864941103"><ele>48.0</ele><time>2026-04-12T11:54:17Z</time></trkpt><trkpt lat="44.34640159301386" lon="11.69963037337527"><ele>48.0</ele><time>2026-04-12T11:54:18Z</time></trkpt><trkpt lat="44.34645013288458" lon="11.699716263973366"><ele>48.0</ele><time>2026-04-12T11:54:19Z</time></trkpt><trkpt lat="44.346495966858505" lon="11.699806281993027"><ele>48.0</ele><time>2026-04-12T11:54:20Z</time></trkpt><trkpt lat="44.34653901030431" lon="11.699894499560154"><ele>48.0</ele><time>2026-04-12T11:54:21Z</time></trkpt><trkpt lat="44.346582821555906" lon="11.699981423425138"><ele>48.0</ele><time>2026-04-12T11:54:22Z</time></trkpt><trkpt lat="44.34663071161424" lon="11.700065776160642"><ele>48.0</ele><time>2026-04-12T11:54:23Z</time></trkpt><trkpt lat="44.34668080339901" lon="11.700162174112567"><ele>48.0</ele><time>2026-04-12T11:54:24Z</time></trkpt><trkpt lat="44.346736299845226" lon="11.700241621929028"><ele>48.0</ele><time>2026-04-12T11:54:25Z</time></trkpt><trkpt lat="44.346783774494384" lon="11.700317037083797"><ele>48.0</ele><time>2026-04-12T11:54:26Z</time></trkpt><trkpt lat="44.346844411802586" lon="11.700403997656222"><ele>48.0</ele><time>2026-04-12T11:54:27Z</time></trkpt><trkpt lat="44.346897287979374" lon="11.700491669283592"><ele>48.0</ele><time>2026-04-12T11:54:28Z</time></trkpt><trkpt lat="44.34694854223492" lon="11.700574108008794"><ele>48.0</ele><time>2026-04-12T11:54:29Z</time></trkpt><trkpt lat="44.34699896207522" lon="11.700659351437453"><ele>48.0</ele><time>2026-04-12T11:54:30Z</time></trkpt><trkpt lat="44.3470555514528" lon="11.700739892210946"><ele>48.0</ele><time>2026-04-12T11:54:31Z</time></trkpt><trkpt lat="44.34711004882526" lon="11.700819375370477"><ele>48.0</ele><time>2026-04-12T11:54:32Z</time></trkpt><trkpt lat="44.34715729079147" lon="11.700902840599651"><ele>48.0</ele><time>2026-04-12T11:54:33Z</time></trkpt><trkpt lat="44.347209413763714" lon="11.700986076021215"><ele>48.0</ele><time>2026-04-12T11:54:34Z</time></trkpt><trkpt lat="44.347259144838546" lon="11.701063135093955"><ele>48.0</ele><time>2026-04-12T11:54:35Z</time></trkpt><trkpt lat="44.34731260942146" lon="11.701141708230598"><ele>48.0</ele><time>2026-04-12T11:54:36Z</time></trkpt><trkpt lat="44.34736351394417" lon="11.701221695703328"><ele>48.0</ele><time>2026-04-12T11:54:37Z</time></trkpt><trkpt lat="44.347412188082245" lon="11.701293560288246"><ele>47.857142857142854</ele><time>2026-04-12T11:54:38Z</time></trkpt><trkpt lat="44.34744980811705" lon="11.701388585639192"><ele>47.714285714285715</ele><time>2026-04-12T11:54:39Z</time></trkpt><trkpt lat="44.3474953570572" lon="11.701473474530093"><ele>47.57142857142857</ele><time>2026-04-12T11:54:40Z</time></trkpt><trkpt lat="44.347549116640266" lon="11.701549787740166"><ele>47.42857142857143</ele><time>2026-04-12T11:54:41Z</time></trkpt><trkpt lat="44.34757397782621" lon="11.7016516143338"><ele>47.285714285714285</ele><time>2026-04-12T11:54:42Z</time></trkpt><trkpt lat="44.34761964381753" lon="11.701731301387975"><ele>47.14285714285714</ele><time>2026-04-12T11:54:43Z</time></trkpt><trkpt lat="44.3476361974303" lon="11.701825358174396"><ele>47.0</ele><time>2026-04-12T11:54:44Z</time></trkpt><trkpt lat="44.34767998233219" lon="11.701990403666208"><ele>47.400000000000006</ele><time>2026-04-12T11:54:46Z</time></trkpt><trkpt lat="44.34785679715733" lon="11.702033364964997"><ele>47.800000000000004</ele><time>2026-04-12T11:54:48Z</time></trkpt><trkpt lat="44.347924663549676" lon="11.702045578826278"><ele>48.2</ele><time>2026-04-12T11:54:49Z</time></trkpt><trkpt lat="44.34798440351287" lon="11.702097096250238"><ele>48.6</ele><time>2026-04-12T11:54:50Z</time></trkpt><trkpt lat="44.34804308368815" lon="11.702156111813435"><ele>49.0</ele><time>2026-04-12T11:54:51Z</time></trkpt><trkpt lat="44.348100742897635" lon="11.702214243654824"><ele>49.0</ele><time>2026-04-12T11:54:52Z</time></trkpt><trkpt lat="44.34816083180468" lon="11.702267520751835"><ele>49.0</ele><time>2026-04-12T11:54:53Z</time></trkpt><trkpt lat="44.34822098593577" lon="11.702319229333817"><ele>49.0</ele><time>2026-04-12T11:54:54Z</time></trkpt><trkpt lat="44.34828053895016" lon="11.70237169759026"><ele>49.0</ele><time>2026-04-12T11:54:55Z</time></trkpt><trkpt lat="44.348339106122424" lon="11.702425398182474"><ele>49.0</ele><time>2026-04-12T11:54:56Z</time></trkpt><trkpt lat="44.34839392405816" lon="11.702474378684272"><ele>49.0</ele><time>2026-04-12T11:54:57Z</time></trkpt><trkpt lat="44.34844789753049" lon="11.70252187474104"><ele>49.0</ele><time>2026-04-12T11:54:58Z</time></trkpt><trkpt lat="44.34850482461964" lon="11.702574561426141"><ele>48.99999999999999</ele><time>2026-04-12T11:54:59Z</time></trkpt><trkpt lat="44.348557639079296" lon="11.7026241643575"><ele>49.0</ele><time>2026-04-12T11:55:00Z</time></trkpt><trkpt lat="44.348616766330885" lon="11.702673580870604"><ele>49.0</ele><time>2026-04-12T11:55:01Z</time></trkpt><trkpt lat="44.34867421757421" lon="11.702721219912497"><ele>49.0</ele><time>2026-04-12T11:55:02Z</time></trkpt><trkpt lat="44.348734843789806" lon="11.702758852230028"><ele>48.99999999999999</ele><time>2026-04-12T11:55:03Z</time></trkpt><trkpt lat="44.34880333216158" lon="11.702840602989838"><ele>49.0</ele><time>2026-04-12T11:55:05Z</time></trkpt><trkpt lat="44.3488909176302" lon="11.702636088469863"><ele>49.2</ele><time>2026-04-12T11:55:09Z</time></trkpt><trkpt lat="44.348933483466176" lon="11.702537374752103"><ele>49.400000000000006</ele><time>2026-04-12T11:55:11Z</time></trkpt><trkpt lat="44.34898549184063" lon="11.702425482547365"><ele>49.6</ele><time>2026-04-12T11:55:13Z</time></trkpt><trkpt lat="44.34904785232028" lon="11.70229495641724"><ele>49.8</ele><time>2026-04-12T11:55:15Z</time></trkpt><trkpt lat="44.34910753052734" lon="11.702171457867928"><ele>50.0</ele><time>2026-04-12T11:55:17Z</time></trkpt><trkpt lat="44.34916303925586" lon="11.70202516790458"><ele>50.25</ele><time>2026-04-12T11:55:19Z</time></trkpt><trkpt lat="44.34922934319621" lon="11.70189066191936"><ele>50.5</ele><time>2026-04-12T11:55:21Z</time></trkpt><trkpt lat="44.34929471317876" lon="11.701745441961474"><ele>50.75</ele><time>2026-04-12T11:55:23Z</time></trkpt><trkpt lat="44.34935907459029" lon="11.701594323922773"><ele>51.0</ele><time>2026-04-12T11:55:25Z</time></trkpt><trkpt lat="44.34942151188497" lon="11.701452541388965"><ele>51.0</ele><time>2026-04-12T11:55:27Z</time></trkpt><trkpt lat="44.34948585942361" lon="11.701310774491017"><ele>51.0</ele><time>2026-04-12T11:55:29Z</time></trkpt><trkpt lat="44.34952104748496" lon="11.701232629873942"><ele>51.0</ele><time>2026-04-12T11:55:30Z</time></trkpt><trkpt lat="44.349586386218284" lon="11.70108455374508"><ele>51.0</ele><time>2026-04-12T11:55:32Z</time></trkpt><trkpt lat="44.34964816297341" lon="11.700939929145365"><ele>51.0</ele><time>2026-04-12T11:55:34Z</time></trkpt><trkpt lat="44.34970434332887" lon="11.700796418729377"><ele>50.4</ele><time>2026-04-12T11:55:36Z</time></trkpt><trkpt lat="44.34972694151983" lon="11.700651097791212"><ele>49.8</ele><time>2026-04-12T11:55:38Z</time></trkpt><trkpt lat="44.349784750624345" lon="11.700520994301261"><ele>49.199999999999996</ele><time>2026-04-12T11:55:40Z</time></trkpt><trkpt lat="44.34985832019875" lon="11.700442506027395"><ele>48.599999999999994</ele><time>2026-04-12T11:55:42Z</time></trkpt><trkpt lat="44.349922824780435" lon="11.700370285091807"><ele>48.0</ele><time>2026-04-12T11:55:44Z</time></trkpt><trkpt lat="44.35001548826638" lon="11.700318929122618"><ele>48.2</ele><time>2026-04-12T11:55:46Z</time></trkpt><trkpt lat="44.35009685389437" lon="11.700235335354524"><ele>48.4</ele><time>2026-04-12T11:55:48Z</time></trkpt><trkpt lat="44.35013910151003" lon="11.700123723934581"><ele>48.6</ele><time>2026-04-12T11:55:50Z</time></trkpt><trkpt lat="44.350181371997046" lon="11.700057432221575"><ele>48.800000000000004</ele><time>2026-04-12T11:55:51Z</time></trkpt><trkpt lat="44.35025472732595" lon="11.69993084214086"><ele>49.0</ele><time>2026-04-12T11:55:53Z</time></trkpt><trkpt lat="44.35036476397619" lon="11.699869041379348"><ele>49.0</ele><time>2026-04-12T11:55:55Z</time></trkpt><trkpt lat="44.35048826340377" lon="11.699899803514857"><ele>49.0</ele><time>2026-04-12T11:55:57Z</time></trkpt><trkpt lat="44.35058380670201" lon="11.699981646135784"><ele>50.0</ele><time>2026-04-12T11:55:59Z</time></trkpt><trkpt lat="44.350657296324556" lon="11.700063252180009"><ele>50.0</ele><time>2026-04-12T11:56:01Z</time></trkpt><trkpt lat="44.3506567034316" lon="11.70015601850371"><ele>50.0</ele><time>2026-04-12T11:56:02Z</time></trkpt></trkseg></trk></gpx>